<?xml version="1.0" encoding="UTF-8"?>
<gpx version="1.1" creator="https://www.www-youtrack-es.amenigma.com" xsi:schemaLocation="http://www.topografix.com/GPX/1/1 http://www.topografix.com/GPX/1/1/gpx.xsd http://www.garmin.com/xmlschemas/GpxExtensions/v3 http://www.garmin.com/xmlschemas/GpxExtensionsv3.xsd http://www.garmin.com/xmlschemas/TrackPointExtension/v1 http://www.garmin.com/xmlschemas/TrackPointExtensionv1.xsd" xmlns:gpxtpx="http://www.garmin.com/xmlschemas/TrackPointExtension/v1" xmlns:gpxx="http://www.garmin.com/xmlschemas/GpxExtensions/v3" xmlns:xsi="http://www.w3.org/2001/XMLSchema-instance">
  <metadata>
    <author>
      <name>Maixi Castillo</name>
      <email id="maixi.castillo" domain="gmail.com"/>
    </author>
    <link href="https://www.www-youtrack-es.amenigma.com">
      <text>YouTrack.es</text>
    </link>
    <time>2026-09-01T02:43:40Z</time>
  </metadata>
  <trk>
    <src>https://www.www-youtrack-es.amenigma.com</src>
    <link href="https://www.www-youtrack-es.amenigma.com/ruta/30288-paseo-por-garaio">
      <text>YouTrack.es</text>
    </link>
    <trkseg>
      <trkpt lat="42.909649" lon="-2.542495">
        <ele>529.265</ele>
        <time>2022-03-20T12:26:50Z</time>
      </trkpt>
      <trkpt lat="42.909638" lon="-2.542546">
        <ele>545.268</ele>
        <time>2022-03-20T12:26:51Z</time>
      </trkpt>
      <trkpt lat="42.909627" lon="-2.542584">
        <ele>544.614</ele>
        <time>2022-03-20T12:26:52Z</time>
      </trkpt>
      <trkpt lat="42.909642" lon="-2.542583">
        <ele>544.608</ele>
        <time>2022-03-20T12:26:53Z</time>
      </trkpt>
      <trkpt lat="42.909614" lon="-2.542622">
        <ele>544.675</ele>
        <time>2022-03-20T12:26:54Z</time>
      </trkpt>
      <trkpt lat="42.909618" lon="-2.54264">
        <ele>544.643</ele>
        <time>2022-03-20T12:26:55Z</time>
      </trkpt>
      <trkpt lat="42.909632" lon="-2.542661">
        <ele>544.615</ele>
        <time>2022-03-20T12:26:56Z</time>
      </trkpt>
      <trkpt lat="42.909648" lon="-2.542667">
        <ele>544.467</ele>
        <time>2022-03-20T12:26:57Z</time>
      </trkpt>
      <trkpt lat="42.909661" lon="-2.542673">
        <ele>544.485</ele>
        <time>2022-03-20T12:26:58Z</time>
      </trkpt>
      <trkpt lat="42.909668" lon="-2.542675">
        <ele>544.448</ele>
        <time>2022-03-20T12:26:59Z</time>
      </trkpt>
      <trkpt lat="42.909673" lon="-2.542673">
        <ele>544.697</ele>
        <time>2022-03-20T12:27:00Z</time>
      </trkpt>
      <trkpt lat="42.909673" lon="-2.542674">
        <ele>544.655</ele>
        <time>2022-03-20T12:27:01Z</time>
      </trkpt>
      <trkpt lat="42.909672" lon="-2.542683">
        <ele>544.683</ele>
        <time>2022-03-20T12:27:02Z</time>
      </trkpt>
      <trkpt lat="42.909673" lon="-2.542697">
        <ele>544.825</ele>
        <time>2022-03-20T12:27:03Z</time>
      </trkpt>
      <trkpt lat="42.909669" lon="-2.542711">
        <ele>544.817</ele>
        <time>2022-03-20T12:27:04Z</time>
      </trkpt>
      <trkpt lat="42.909662" lon="-2.542716">
        <ele>544.808</ele>
        <time>2022-03-20T12:27:05Z</time>
      </trkpt>
      <trkpt lat="42.909656" lon="-2.542715">
        <ele>544.637</ele>
        <time>2022-03-20T12:27:06Z</time>
      </trkpt>
      <trkpt lat="42.909649" lon="-2.54272">
        <ele>544.455</ele>
        <time>2022-03-20T12:27:07Z</time>
      </trkpt>
      <trkpt lat="42.90964" lon="-2.542725">
        <ele>543.877</ele>
        <time>2022-03-20T12:27:08Z</time>
      </trkpt>
      <trkpt lat="42.909633" lon="-2.542727">
        <ele>543.619</ele>
        <time>2022-03-20T12:27:09Z</time>
      </trkpt>
      <trkpt lat="42.909624" lon="-2.54273">
        <ele>543.687</ele>
        <time>2022-03-20T12:27:10Z</time>
      </trkpt>
      <trkpt lat="42.909612" lon="-2.542729">
        <ele>543.860</ele>
        <time>2022-03-20T12:27:11Z</time>
      </trkpt>
      <trkpt lat="42.9096" lon="-2.542724">
        <ele>543.699</ele>
        <time>2022-03-20T12:27:12Z</time>
      </trkpt>
      <trkpt lat="42.909588" lon="-2.542716">
        <ele>543.647</ele>
        <time>2022-03-20T12:27:13Z</time>
      </trkpt>
      <trkpt lat="42.909575" lon="-2.54271">
        <ele>543.679</ele>
        <time>2022-03-20T12:27:14Z</time>
      </trkpt>
      <trkpt lat="42.909564" lon="-2.542706">
        <ele>543.605</ele>
        <time>2022-03-20T12:27:15Z</time>
      </trkpt>
      <trkpt lat="42.909554" lon="-2.5427">
        <ele>543.625</ele>
        <time>2022-03-20T12:27:16Z</time>
      </trkpt>
      <trkpt lat="42.909542" lon="-2.542696">
        <ele>543.608</ele>
        <time>2022-03-20T12:27:17Z</time>
      </trkpt>
      <trkpt lat="42.909531" lon="-2.542691">
        <ele>543.656</ele>
        <time>2022-03-20T12:27:18Z</time>
      </trkpt>
      <trkpt lat="42.90952" lon="-2.542689">
        <ele>543.624</ele>
        <time>2022-03-20T12:27:19Z</time>
      </trkpt>
      <trkpt lat="42.909512" lon="-2.542687">
        <ele>543.696</ele>
        <time>2022-03-20T12:27:20Z</time>
      </trkpt>
      <trkpt lat="42.909505" lon="-2.542683">
        <ele>544.098</ele>
        <time>2022-03-20T12:27:21Z</time>
      </trkpt>
      <trkpt lat="42.909495" lon="-2.542678">
        <ele>544.026</ele>
        <time>2022-03-20T12:27:22Z</time>
      </trkpt>
      <trkpt lat="42.909485" lon="-2.542673">
        <ele>544.819</ele>
        <time>2022-03-20T12:27:23Z</time>
      </trkpt>
      <trkpt lat="42.909472" lon="-2.542673">
        <ele>544.878</ele>
        <time>2022-03-20T12:27:24Z</time>
      </trkpt>
      <trkpt lat="42.909461" lon="-2.542674">
        <ele>543.676</ele>
        <time>2022-03-20T12:27:25Z</time>
      </trkpt>
      <trkpt lat="42.909451" lon="-2.542677">
        <ele>543.627</ele>
        <time>2022-03-20T12:27:26Z</time>
      </trkpt>
      <trkpt lat="42.909442" lon="-2.542677">
        <ele>543.668</ele>
        <time>2022-03-20T12:27:27Z</time>
      </trkpt>
      <trkpt lat="42.909432" lon="-2.542676">
        <ele>543.614</ele>
        <time>2022-03-20T12:27:28Z</time>
      </trkpt>
      <trkpt lat="42.90942" lon="-2.54268">
        <ele>543.808</ele>
        <time>2022-03-20T12:27:29Z</time>
      </trkpt>
      <trkpt lat="42.909412" lon="-2.542685">
        <ele>544.081</ele>
        <time>2022-03-20T12:27:30Z</time>
      </trkpt>
      <trkpt lat="42.909401" lon="-2.542688">
        <ele>544.049</ele>
        <time>2022-03-20T12:27:31Z</time>
      </trkpt>
      <trkpt lat="42.909392" lon="-2.542689">
        <ele>544.021</ele>
        <time>2022-03-20T12:27:32Z</time>
      </trkpt>
      <trkpt lat="42.909381" lon="-2.54269">
        <ele>544.093</ele>
        <time>2022-03-20T12:27:33Z</time>
      </trkpt>
      <trkpt lat="42.909369" lon="-2.542693">
        <ele>543.691</ele>
        <time>2022-03-20T12:27:34Z</time>
      </trkpt>
      <trkpt lat="42.909359" lon="-2.542694">
        <ele>543.424</ele>
        <time>2022-03-20T12:27:35Z</time>
      </trkpt>
      <trkpt lat="42.909348" lon="-2.542694">
        <ele>542.653</ele>
        <time>2022-03-20T12:27:36Z</time>
      </trkpt>
      <trkpt lat="42.909336" lon="-2.542696">
        <ele>542.641</ele>
        <time>2022-03-20T12:27:37Z</time>
      </trkpt>
      <trkpt lat="42.909325" lon="-2.542698">
        <ele>542.446</ele>
        <time>2022-03-20T12:27:38Z</time>
      </trkpt>
      <trkpt lat="42.909314" lon="-2.542697">
        <ele>542.488</ele>
        <time>2022-03-20T12:27:39Z</time>
      </trkpt>
      <trkpt lat="42.909303" lon="-2.542694">
        <ele>543.016</ele>
        <time>2022-03-20T12:27:40Z</time>
      </trkpt>
      <trkpt lat="42.909292" lon="-2.542695">
        <ele>543.008</ele>
        <time>2022-03-20T12:27:41Z</time>
      </trkpt>
      <trkpt lat="42.909283" lon="-2.542692">
        <ele>543.253</ele>
        <time>2022-03-20T12:27:42Z</time>
      </trkpt>
      <trkpt lat="42.909277" lon="-2.542686">
        <ele>544.251</ele>
        <time>2022-03-20T12:27:43Z</time>
      </trkpt>
      <trkpt lat="42.909268" lon="-2.54268">
        <ele>544.653</ele>
        <time>2022-03-20T12:27:44Z</time>
      </trkpt>
      <trkpt lat="42.909261" lon="-2.542673">
        <ele>544.635</ele>
        <time>2022-03-20T12:27:45Z</time>
      </trkpt>
      <trkpt lat="42.909251" lon="-2.542668">
        <ele>544.693</ele>
        <time>2022-03-20T12:27:46Z</time>
      </trkpt>
      <trkpt lat="42.90924" lon="-2.542667">
        <ele>544.256</ele>
        <time>2022-03-20T12:27:47Z</time>
      </trkpt>
      <trkpt lat="42.90923" lon="-2.542663">
        <ele>543.645</ele>
        <time>2022-03-20T12:27:48Z</time>
      </trkpt>
      <trkpt lat="42.90922" lon="-2.542658">
        <ele>543.623</ele>
        <time>2022-03-20T12:27:49Z</time>
      </trkpt>
      <trkpt lat="42.909208" lon="-2.542653">
        <ele>543.678</ele>
        <time>2022-03-20T12:27:50Z</time>
      </trkpt>
      <trkpt lat="42.909199" lon="-2.542648">
        <ele>543.433</ele>
        <time>2022-03-20T12:27:51Z</time>
      </trkpt>
      <trkpt lat="42.909187" lon="-2.542645">
        <ele>543.426</ele>
        <time>2022-03-20T12:27:52Z</time>
      </trkpt>
      <trkpt lat="42.909175" lon="-2.54264">
        <ele>543.408</ele>
        <time>2022-03-20T12:27:53Z</time>
      </trkpt>
      <trkpt lat="42.909166" lon="-2.542634">
        <ele>543.496</ele>
        <time>2022-03-20T12:27:54Z</time>
      </trkpt>
      <trkpt lat="42.909156" lon="-2.542626">
        <ele>543.484</ele>
        <time>2022-03-20T12:27:55Z</time>
      </trkpt>
      <trkpt lat="42.909147" lon="-2.542621">
        <ele>543.476</ele>
        <time>2022-03-20T12:27:56Z</time>
      </trkpt>
      <trkpt lat="42.909127" lon="-2.542612">
        <ele>543.428</ele>
        <time>2022-03-20T12:27:57Z</time>
      </trkpt>
      <trkpt lat="42.90912" lon="-2.542609">
        <ele>543.426</ele>
        <time>2022-03-20T12:27:58Z</time>
      </trkpt>
      <trkpt lat="42.90911" lon="-2.542604">
        <ele>543.249</ele>
        <time>2022-03-20T12:27:59Z</time>
      </trkpt>
      <trkpt lat="42.909099" lon="-2.542599">
        <ele>543.248</ele>
        <time>2022-03-20T12:28:00Z</time>
      </trkpt>
      <trkpt lat="42.909089" lon="-2.542595">
        <ele>543.256</ele>
        <time>2022-03-20T12:28:01Z</time>
      </trkpt>
      <trkpt lat="42.909079" lon="-2.54259">
        <ele>543.847</ele>
        <time>2022-03-20T12:28:02Z</time>
      </trkpt>
      <trkpt lat="42.90907" lon="-2.542586">
        <ele>544.029</ele>
        <time>2022-03-20T12:28:03Z</time>
      </trkpt>
      <trkpt lat="42.909062" lon="-2.54258">
        <ele>544.021</ele>
        <time>2022-03-20T12:28:04Z</time>
      </trkpt>
      <trkpt lat="42.909053" lon="-2.542575">
        <ele>543.208</ele>
        <time>2022-03-20T12:28:05Z</time>
      </trkpt>
      <trkpt lat="42.909044" lon="-2.542571">
        <ele>544.023</ele>
        <time>2022-03-20T12:28:06Z</time>
      </trkpt>
      <trkpt lat="42.909033" lon="-2.542565">
        <ele>544.281</ele>
        <time>2022-03-20T12:28:07Z</time>
      </trkpt>
      <trkpt lat="42.909019" lon="-2.542559">
        <ele>544.243</ele>
        <time>2022-03-20T12:28:08Z</time>
      </trkpt>
      <trkpt lat="42.909007" lon="-2.542556">
        <ele>544.285</ele>
        <time>2022-03-20T12:28:09Z</time>
      </trkpt>
      <trkpt lat="42.908997" lon="-2.542552">
        <ele>544.213</ele>
        <time>2022-03-20T12:28:10Z</time>
      </trkpt>
      <trkpt lat="42.90899" lon="-2.542546">
        <ele>544.256</ele>
        <time>2022-03-20T12:28:11Z</time>
      </trkpt>
      <trkpt lat="42.908981" lon="-2.542541">
        <ele>544.225</ele>
        <time>2022-03-20T12:28:12Z</time>
      </trkpt>
      <trkpt lat="42.908973" lon="-2.542537">
        <ele>544.263</ele>
        <time>2022-03-20T12:28:13Z</time>
      </trkpt>
      <trkpt lat="42.908966" lon="-2.542531">
        <ele>544.276</ele>
        <time>2022-03-20T12:28:14Z</time>
      </trkpt>
      <trkpt lat="42.908959" lon="-2.542523">
        <ele>543.890</ele>
        <time>2022-03-20T12:28:15Z</time>
      </trkpt>
      <trkpt lat="42.908951" lon="-2.542516">
        <ele>544.619</ele>
        <time>2022-03-20T12:28:16Z</time>
      </trkpt>
      <trkpt lat="42.908942" lon="-2.542508">
        <ele>544.608</ele>
        <time>2022-03-20T12:28:17Z</time>
      </trkpt>
      <trkpt lat="42.908933" lon="-2.542501">
        <ele>544.626</ele>
        <time>2022-03-20T12:28:18Z</time>
      </trkpt>
      <trkpt lat="42.908926" lon="-2.542496">
        <ele>544.614</ele>
        <time>2022-03-20T12:28:19Z</time>
      </trkpt>
      <trkpt lat="42.908923" lon="-2.542496">
        <ele>544.666</ele>
        <time>2022-03-20T12:28:20Z</time>
      </trkpt>
      <trkpt lat="42.908923" lon="-2.542499">
        <ele>545.488</ele>
        <time>2022-03-20T12:28:21Z</time>
      </trkpt>
      <trkpt lat="42.908925" lon="-2.5425">
        <ele>545.686</ele>
        <time>2022-03-20T12:28:22Z</time>
      </trkpt>
      <trkpt lat="42.908923" lon="-2.542497">
        <ele>545.439</ele>
        <time>2022-03-20T12:28:23Z</time>
      </trkpt>
      <trkpt lat="42.908922" lon="-2.542492">
        <ele>545.428</ele>
        <time>2022-03-20T12:28:24Z</time>
      </trkpt>
      <trkpt lat="42.908917" lon="-2.542487">
        <ele>545.476</ele>
        <time>2022-03-20T12:28:25Z</time>
      </trkpt>
      <trkpt lat="42.908908" lon="-2.542482">
        <ele>543.054</ele>
        <time>2022-03-20T12:28:26Z</time>
      </trkpt>
      <trkpt lat="42.908899" lon="-2.542477">
        <ele>542.656</ele>
        <time>2022-03-20T12:28:27Z</time>
      </trkpt>
      <trkpt lat="42.908889" lon="-2.542473">
        <ele>542.611</ele>
        <time>2022-03-20T12:28:28Z</time>
      </trkpt>
      <trkpt lat="42.908879" lon="-2.542474">
        <ele>542.608</ele>
        <time>2022-03-20T12:28:29Z</time>
      </trkpt>
      <trkpt lat="42.908868" lon="-2.542473">
        <ele>542.694</ele>
        <time>2022-03-20T12:28:30Z</time>
      </trkpt>
      <trkpt lat="42.908856" lon="-2.542471">
        <ele>542.612</ele>
        <time>2022-03-20T12:28:31Z</time>
      </trkpt>
      <trkpt lat="42.908844" lon="-2.542468">
        <ele>543.284</ele>
        <time>2022-03-20T12:28:32Z</time>
      </trkpt>
      <trkpt lat="42.908832" lon="-2.542465">
        <ele>543.256</ele>
        <time>2022-03-20T12:28:33Z</time>
      </trkpt>
      <trkpt lat="42.908821" lon="-2.542459">
        <ele>543.444</ele>
        <time>2022-03-20T12:28:34Z</time>
      </trkpt>
      <trkpt lat="42.908815" lon="-2.542458">
        <ele>543.877</ele>
        <time>2022-03-20T12:28:35Z</time>
      </trkpt>
      <trkpt lat="42.908807" lon="-2.542463">
        <ele>544.896</ele>
        <time>2022-03-20T12:28:36Z</time>
      </trkpt>
      <trkpt lat="42.908799" lon="-2.542466">
        <ele>544.894</ele>
        <time>2022-03-20T12:28:37Z</time>
      </trkpt>
      <trkpt lat="42.908792" lon="-2.542465">
        <ele>545.653</ele>
        <time>2022-03-20T12:28:38Z</time>
      </trkpt>
      <trkpt lat="42.908782" lon="-2.542456">
        <ele>545.604</ele>
        <time>2022-03-20T12:28:39Z</time>
      </trkpt>
      <trkpt lat="42.908774" lon="-2.542448">
        <ele>545.614</ele>
        <time>2022-03-20T12:28:40Z</time>
      </trkpt>
      <trkpt lat="42.908764" lon="-2.542442">
        <ele>545.808</ele>
        <time>2022-03-20T12:28:41Z</time>
      </trkpt>
      <trkpt lat="42.908753" lon="-2.542437">
        <ele>545.634</ele>
        <time>2022-03-20T12:28:42Z</time>
      </trkpt>
      <trkpt lat="42.908742" lon="-2.542428">
        <ele>545.292</ele>
        <time>2022-03-20T12:28:43Z</time>
      </trkpt>
      <trkpt lat="42.908728" lon="-2.542422">
        <ele>545.264</ele>
        <time>2022-03-20T12:28:44Z</time>
      </trkpt>
      <trkpt lat="42.908715" lon="-2.542419">
        <ele>545.236</ele>
        <time>2022-03-20T12:28:45Z</time>
      </trkpt>
      <trkpt lat="42.908701" lon="-2.542416">
        <ele>545.284</ele>
        <time>2022-03-20T12:28:46Z</time>
      </trkpt>
      <trkpt lat="42.908689" lon="-2.542417">
        <ele>545.257</ele>
        <time>2022-03-20T12:28:47Z</time>
      </trkpt>
      <trkpt lat="42.908678" lon="-2.542418">
        <ele>544.846</ele>
        <time>2022-03-20T12:28:48Z</time>
      </trkpt>
      <trkpt lat="42.908666" lon="-2.542416">
        <ele>544.874</ele>
        <time>2022-03-20T12:28:49Z</time>
      </trkpt>
      <trkpt lat="42.908657" lon="-2.542412">
        <ele>545.846</ele>
        <time>2022-03-20T12:28:50Z</time>
      </trkpt>
      <trkpt lat="42.908644" lon="-2.54241">
        <ele>545.888</ele>
        <time>2022-03-20T12:28:51Z</time>
      </trkpt>
      <trkpt lat="42.908632" lon="-2.54241">
        <ele>545.816</ele>
        <time>2022-03-20T12:28:52Z</time>
      </trkpt>
      <trkpt lat="42.90862" lon="-2.542413">
        <ele>545.808</ele>
        <time>2022-03-20T12:28:53Z</time>
      </trkpt>
      <trkpt lat="42.908608" lon="-2.54242">
        <ele>545.823</ele>
        <time>2022-03-20T12:28:54Z</time>
      </trkpt>
      <trkpt lat="42.908597" lon="-2.542427">
        <ele>546.041</ele>
        <time>2022-03-20T12:28:55Z</time>
      </trkpt>
      <trkpt lat="42.908587" lon="-2.542432">
        <ele>546.073</ele>
        <time>2022-03-20T12:28:56Z</time>
      </trkpt>
      <trkpt lat="42.908577" lon="-2.542434">
        <ele>546.245</ele>
        <time>2022-03-20T12:28:57Z</time>
      </trkpt>
      <trkpt lat="42.908566" lon="-2.542437">
        <ele>546.483</ele>
        <time>2022-03-20T12:28:58Z</time>
      </trkpt>
      <trkpt lat="42.908555" lon="-2.54244">
        <ele>546.476</ele>
        <time>2022-03-20T12:28:59Z</time>
      </trkpt>
      <trkpt lat="42.908544" lon="-2.542441">
        <ele>546.675</ele>
        <time>2022-03-20T12:29:00Z</time>
      </trkpt>
      <trkpt lat="42.908533" lon="-2.542443">
        <ele>546.663</ele>
        <time>2022-03-20T12:29:01Z</time>
      </trkpt>
      <trkpt lat="42.908524" lon="-2.542449">
        <ele>546.696</ele>
        <time>2022-03-20T12:29:02Z</time>
      </trkpt>
      <trkpt lat="42.908516" lon="-2.542456">
        <ele>546.831</ele>
        <time>2022-03-20T12:29:03Z</time>
      </trkpt>
      <trkpt lat="42.908506" lon="-2.542462">
        <ele>546.624</ele>
        <time>2022-03-20T12:29:04Z</time>
      </trkpt>
      <trkpt lat="42.908495" lon="-2.542467">
        <ele>546.608</ele>
        <time>2022-03-20T12:29:05Z</time>
      </trkpt>
      <trkpt lat="42.908483" lon="-2.54247">
        <ele>546.678</ele>
        <time>2022-03-20T12:29:06Z</time>
      </trkpt>
      <trkpt lat="42.908473" lon="-2.542473">
        <ele>546.636</ele>
        <time>2022-03-20T12:29:07Z</time>
      </trkpt>
      <trkpt lat="42.908462" lon="-2.542477">
        <ele>546.618</ele>
        <time>2022-03-20T12:29:08Z</time>
      </trkpt>
      <trkpt lat="42.908452" lon="-2.542481">
        <ele>546.620</ele>
        <time>2022-03-20T12:29:09Z</time>
      </trkpt>
      <trkpt lat="42.908442" lon="-2.542484">
        <ele>546.628</ele>
        <time>2022-03-20T12:29:10Z</time>
      </trkpt>
      <trkpt lat="42.908434" lon="-2.542489">
        <ele>546.671</ele>
        <time>2022-03-20T12:29:11Z</time>
      </trkpt>
      <trkpt lat="42.908424" lon="-2.542496">
        <ele>546.630</ele>
        <time>2022-03-20T12:29:12Z</time>
      </trkpt>
      <trkpt lat="42.908416" lon="-2.542503">
        <ele>546.668</ele>
        <time>2022-03-20T12:29:13Z</time>
      </trkpt>
      <trkpt lat="42.908407" lon="-2.54251">
        <ele>546.431</ele>
        <time>2022-03-20T12:29:14Z</time>
      </trkpt>
      <trkpt lat="42.908397" lon="-2.542515">
        <ele>546.461</ele>
        <time>2022-03-20T12:29:15Z</time>
      </trkpt>
      <trkpt lat="42.90839" lon="-2.542519">
        <ele>546.607</ele>
        <time>2022-03-20T12:29:16Z</time>
      </trkpt>
      <trkpt lat="42.908389" lon="-2.542523">
        <ele>546.608</ele>
        <time>2022-03-20T12:29:17Z</time>
      </trkpt>
      <trkpt lat="42.908389" lon="-2.542527">
        <ele>546.822</ele>
        <time>2022-03-20T12:29:18Z</time>
      </trkpt>
      <trkpt lat="42.908394" lon="-2.542527">
        <ele>546.870</ele>
        <time>2022-03-20T12:29:19Z</time>
      </trkpt>
      <trkpt lat="42.908396" lon="-2.542529">
        <ele>546.832</ele>
        <time>2022-03-20T12:29:20Z</time>
      </trkpt>
      <trkpt lat="42.908394" lon="-2.542532">
        <ele>546.884</ele>
        <time>2022-03-20T12:29:21Z</time>
      </trkpt>
      <trkpt lat="42.908392" lon="-2.542535">
        <ele>546.652</ele>
        <time>2022-03-20T12:29:22Z</time>
      </trkpt>
      <trkpt lat="42.90839" lon="-2.542541">
        <ele>546.645</ele>
        <time>2022-03-20T12:29:23Z</time>
      </trkpt>
      <trkpt lat="42.908385" lon="-2.542544">
        <ele>546.614</ele>
        <time>2022-03-20T12:29:24Z</time>
      </trkpt>
      <trkpt lat="42.90838" lon="-2.542546">
        <ele>546.622</ele>
        <time>2022-03-20T12:29:25Z</time>
      </trkpt>
      <trkpt lat="42.908373" lon="-2.542553">
        <ele>546.627</ele>
        <time>2022-03-20T12:29:26Z</time>
      </trkpt>
      <trkpt lat="42.908368" lon="-2.542559">
        <ele>546.668</ele>
        <time>2022-03-20T12:29:27Z</time>
      </trkpt>
      <trkpt lat="42.908364" lon="-2.542564">
        <ele>546.614</ele>
        <time>2022-03-20T12:29:28Z</time>
      </trkpt>
      <trkpt lat="42.908359" lon="-2.54257">
        <ele>546.608</ele>
        <time>2022-03-20T12:29:29Z</time>
      </trkpt>
      <trkpt lat="42.908356" lon="-2.542575">
        <ele>546.421</ele>
        <time>2022-03-20T12:29:30Z</time>
      </trkpt>
      <trkpt lat="42.908354" lon="-2.542577">
        <ele>546.489</ele>
        <time>2022-03-20T12:29:31Z</time>
      </trkpt>
      <trkpt lat="42.908355" lon="-2.542576">
        <ele>546.291</ele>
        <time>2022-03-20T12:29:32Z</time>
      </trkpt>
      <trkpt lat="42.908353" lon="-2.542579">
        <ele>546.223</ele>
        <time>2022-03-20T12:29:33Z</time>
      </trkpt>
      <trkpt lat="42.908349" lon="-2.542583">
        <ele>546.241</ele>
        <time>2022-03-20T12:29:34Z</time>
      </trkpt>
      <trkpt lat="42.908343" lon="-2.542589">
        <ele>546.024</ele>
        <time>2022-03-20T12:29:35Z</time>
      </trkpt>
      <trkpt lat="42.908336" lon="-2.542596">
        <ele>546.013</ele>
        <time>2022-03-20T12:29:36Z</time>
      </trkpt>
      <trkpt lat="42.908329" lon="-2.542604">
        <ele>546.031</ele>
        <time>2022-03-20T12:29:37Z</time>
      </trkpt>
      <trkpt lat="42.908321" lon="-2.542612">
        <ele>546.211</ele>
        <time>2022-03-20T12:29:38Z</time>
      </trkpt>
      <trkpt lat="42.908315" lon="-2.54262">
        <ele>546.221</ele>
        <time>2022-03-20T12:29:39Z</time>
      </trkpt>
      <trkpt lat="42.908308" lon="-2.54263">
        <ele>546.203</ele>
        <time>2022-03-20T12:29:40Z</time>
      </trkpt>
      <trkpt lat="42.9083" lon="-2.542639">
        <ele>546.208</ele>
        <time>2022-03-20T12:29:41Z</time>
      </trkpt>
      <trkpt lat="42.908293" lon="-2.542647">
        <ele>546.240</ele>
        <time>2022-03-20T12:29:42Z</time>
      </trkpt>
      <trkpt lat="42.908288" lon="-2.542653">
        <ele>546.228</ele>
        <time>2022-03-20T12:29:43Z</time>
      </trkpt>
      <trkpt lat="42.908284" lon="-2.542661">
        <ele>546.290</ele>
        <time>2022-03-20T12:29:44Z</time>
      </trkpt>
      <trkpt lat="42.908281" lon="-2.542666">
        <ele>546.082</ele>
        <time>2022-03-20T12:29:45Z</time>
      </trkpt>
      <trkpt lat="42.908281" lon="-2.542671">
        <ele>546.070</ele>
        <time>2022-03-20T12:29:46Z</time>
      </trkpt>
      <trkpt lat="42.908278" lon="-2.542675">
        <ele>546.053</ele>
        <time>2022-03-20T12:29:47Z</time>
      </trkpt>
      <trkpt lat="42.908273" lon="-2.542679">
        <ele>546.032</ele>
        <time>2022-03-20T12:29:48Z</time>
      </trkpt>
      <trkpt lat="42.908269" lon="-2.542685">
        <ele>546.060</ele>
        <time>2022-03-20T12:29:49Z</time>
      </trkpt>
      <trkpt lat="42.908268" lon="-2.542688">
        <ele>546.096</ele>
        <time>2022-03-20T12:29:50Z</time>
      </trkpt>
      <trkpt lat="42.90827" lon="-2.54269">
        <ele>546.031</ele>
        <time>2022-03-20T12:29:51Z</time>
      </trkpt>
      <trkpt lat="42.908271" lon="-2.542691">
        <ele>546.024</ele>
        <time>2022-03-20T12:29:52Z</time>
      </trkpt>
      <trkpt lat="42.908272" lon="-2.542692">
        <ele>546.008</ele>
        <time>2022-03-20T12:29:53Z</time>
      </trkpt>
      <trkpt lat="42.908273" lon="-2.542692">
        <ele>546.058</ele>
        <time>2022-03-20T12:29:54Z</time>
      </trkpt>
      <trkpt lat="42.908274" lon="-2.54269">
        <ele>546.276</ele>
        <time>2022-03-20T12:29:55Z</time>
      </trkpt>
      <trkpt lat="42.908275" lon="-2.542689">
        <ele>546.228</ele>
        <time>2022-03-20T12:29:56Z</time>
      </trkpt>
      <trkpt lat="42.908274" lon="-2.542687">
        <ele>546.240</ele>
        <time>2022-03-20T12:29:57Z</time>
      </trkpt>
      <trkpt lat="42.908274" lon="-2.542687">
        <ele>546.298</ele>
        <time>2022-03-20T12:29:58Z</time>
      </trkpt>
      <trkpt lat="42.908274" lon="-2.542687">
        <ele>546.261</ele>
        <time>2022-03-20T12:29:59Z</time>
      </trkpt>
      <trkpt lat="42.908274" lon="-2.542687">
        <ele>546.020</ele>
        <time>2022-03-20T12:30:00Z</time>
      </trkpt>
      <trkpt lat="42.908274" lon="-2.542687">
        <ele>546.048</ele>
        <time>2022-03-20T12:30:01Z</time>
      </trkpt>
      <trkpt lat="42.908274" lon="-2.542687">
        <ele>546.041</ele>
        <time>2022-03-20T12:30:02Z</time>
      </trkpt>
      <trkpt lat="42.908274" lon="-2.542687">
        <ele>546.081</ele>
        <time>2022-03-20T12:30:03Z</time>
      </trkpt>
      <trkpt lat="42.908274" lon="-2.542687">
        <ele>546.009</ele>
        <time>2022-03-20T12:30:04Z</time>
      </trkpt>
      <trkpt lat="42.908274" lon="-2.542687">
        <ele>546.008</ele>
        <time>2022-03-20T12:30:05Z</time>
      </trkpt>
      <trkpt lat="42.908274" lon="-2.542687">
        <ele>546.043</ele>
        <time>2022-03-20T12:30:06Z</time>
      </trkpt>
      <trkpt lat="42.908274" lon="-2.542687">
        <ele>546.081</ele>
        <time>2022-03-20T12:30:07Z</time>
      </trkpt>
      <trkpt lat="42.908273" lon="-2.542687">
        <ele>546.053</ele>
        <time>2022-03-20T12:30:08Z</time>
      </trkpt>
      <trkpt lat="42.90827" lon="-2.542691">
        <ele>546.025</ele>
        <time>2022-03-20T12:30:09Z</time>
      </trkpt>
      <trkpt lat="42.90826" lon="-2.542704">
        <ele>546.033</ele>
        <time>2022-03-20T12:30:10Z</time>
      </trkpt>
      <trkpt lat="42.908249" lon="-2.542716">
        <ele>546.036</ele>
        <time>2022-03-20T12:30:11Z</time>
      </trkpt>
      <trkpt lat="42.908239" lon="-2.542729">
        <ele>546.055</ele>
        <time>2022-03-20T12:30:12Z</time>
      </trkpt>
      <trkpt lat="42.908229" lon="-2.542743">
        <ele>545.883</ele>
        <time>2022-03-20T12:30:13Z</time>
      </trkpt>
      <trkpt lat="42.908221" lon="-2.542759">
        <ele>545.836</ele>
        <time>2022-03-20T12:30:14Z</time>
      </trkpt>
      <trkpt lat="42.908214" lon="-2.542775">
        <ele>545.817</ele>
        <time>2022-03-20T12:30:15Z</time>
      </trkpt>
      <trkpt lat="42.908206" lon="-2.542791">
        <ele>545.818</ele>
        <time>2022-03-20T12:30:16Z</time>
      </trkpt>
      <trkpt lat="42.908198" lon="-2.542806">
        <ele>545.808</ele>
        <time>2022-03-20T12:30:17Z</time>
      </trkpt>
      <trkpt lat="42.908188" lon="-2.542821">
        <ele>545.832</ele>
        <time>2022-03-20T12:30:18Z</time>
      </trkpt>
      <trkpt lat="42.90818" lon="-2.542832">
        <ele>546.030</ele>
        <time>2022-03-20T12:30:19Z</time>
      </trkpt>
      <trkpt lat="42.908175" lon="-2.542842">
        <ele>546.072</ele>
        <time>2022-03-20T12:30:20Z</time>
      </trkpt>
      <trkpt lat="42.908175" lon="-2.542851">
        <ele>546.064</ele>
        <time>2022-03-20T12:30:21Z</time>
      </trkpt>
      <trkpt lat="42.908172" lon="-2.542861">
        <ele>546.072</ele>
        <time>2022-03-20T12:30:22Z</time>
      </trkpt>
      <trkpt lat="42.90817" lon="-2.542872">
        <ele>546.065</ele>
        <time>2022-03-20T12:30:23Z</time>
      </trkpt>
      <trkpt lat="42.908168" lon="-2.542883">
        <ele>546.044</ele>
        <time>2022-03-20T12:30:24Z</time>
      </trkpt>
      <trkpt lat="42.908166" lon="-2.542891">
        <ele>545.882</ele>
        <time>2022-03-20T12:30:25Z</time>
      </trkpt>
      <trkpt lat="42.908166" lon="-2.542896">
        <ele>545.862</ele>
        <time>2022-03-20T12:30:26Z</time>
      </trkpt>
      <trkpt lat="42.908161" lon="-2.542907">
        <ele>545.883</ele>
        <time>2022-03-20T12:30:27Z</time>
      </trkpt>
      <trkpt lat="42.908156" lon="-2.542918">
        <ele>545.611</ele>
        <time>2022-03-20T12:30:28Z</time>
      </trkpt>
      <trkpt lat="42.908151" lon="-2.542928">
        <ele>545.608</ele>
        <time>2022-03-20T12:30:29Z</time>
      </trkpt>
      <trkpt lat="42.908145" lon="-2.54294">
        <ele>545.495</ele>
        <time>2022-03-20T12:30:30Z</time>
      </trkpt>
      <trkpt lat="42.908138" lon="-2.542952">
        <ele>545.413</ele>
        <time>2022-03-20T12:30:31Z</time>
      </trkpt>
      <trkpt lat="42.908129" lon="-2.542962">
        <ele>545.445</ele>
        <time>2022-03-20T12:30:32Z</time>
      </trkpt>
      <trkpt lat="42.908121" lon="-2.542972">
        <ele>545.427</ele>
        <time>2022-03-20T12:30:33Z</time>
      </trkpt>
      <trkpt lat="42.908112" lon="-2.542982">
        <ele>545.435</ele>
        <time>2022-03-20T12:30:34Z</time>
      </trkpt>
      <trkpt lat="42.908103" lon="-2.542994">
        <ele>545.488</ele>
        <time>2022-03-20T12:30:35Z</time>
      </trkpt>
      <trkpt lat="42.908096" lon="-2.543005">
        <ele>545.627</ele>
        <time>2022-03-20T12:30:36Z</time>
      </trkpt>
      <trkpt lat="42.908088" lon="-2.543013">
        <ele>545.685</ele>
        <time>2022-03-20T12:30:37Z</time>
      </trkpt>
      <trkpt lat="42.90808" lon="-2.543023">
        <ele>545.665</ele>
        <time>2022-03-20T12:30:38Z</time>
      </trkpt>
      <trkpt lat="42.908074" lon="-2.543034">
        <ele>545.668</ele>
        <time>2022-03-20T12:30:39Z</time>
      </trkpt>
      <trkpt lat="42.908068" lon="-2.543044">
        <ele>545.414</ele>
        <time>2022-03-20T12:30:40Z</time>
      </trkpt>
      <trkpt lat="42.908066" lon="-2.543053">
        <ele>545.408</ele>
        <time>2022-03-20T12:30:41Z</time>
      </trkpt>
      <trkpt lat="42.908066" lon="-2.543058">
        <ele>545.635</ele>
        <time>2022-03-20T12:30:42Z</time>
      </trkpt>
      <trkpt lat="42.908066" lon="-2.54306">
        <ele>545.413</ele>
        <time>2022-03-20T12:30:43Z</time>
      </trkpt>
      <trkpt lat="42.908067" lon="-2.54306">
        <ele>545.415</ele>
        <time>2022-03-20T12:30:44Z</time>
      </trkpt>
      <trkpt lat="42.908065" lon="-2.543064">
        <ele>545.497</ele>
        <time>2022-03-20T12:30:45Z</time>
      </trkpt>
      <trkpt lat="42.908061" lon="-2.54307">
        <ele>545.425</ele>
        <time>2022-03-20T12:30:46Z</time>
      </trkpt>
      <trkpt lat="42.908055" lon="-2.543081">
        <ele>545.288</ele>
        <time>2022-03-20T12:30:47Z</time>
      </trkpt>
      <trkpt lat="42.908048" lon="-2.543091">
        <ele>545.287</ele>
        <time>2022-03-20T12:30:48Z</time>
      </trkpt>
      <trkpt lat="42.908042" lon="-2.543103">
        <ele>545.025</ele>
        <time>2022-03-20T12:30:49Z</time>
      </trkpt>
      <trkpt lat="42.908034" lon="-2.543109">
        <ele>545.092</ele>
        <time>2022-03-20T12:30:50Z</time>
      </trkpt>
      <trkpt lat="42.908026" lon="-2.543117">
        <ele>545.073</ele>
        <time>2022-03-20T12:30:51Z</time>
      </trkpt>
      <trkpt lat="42.908019" lon="-2.543127">
        <ele>545.020</ele>
        <time>2022-03-20T12:30:52Z</time>
      </trkpt>
      <trkpt lat="42.908014" lon="-2.543138">
        <ele>545.008</ele>
        <time>2022-03-20T12:30:53Z</time>
      </trkpt>
      <trkpt lat="42.908006" lon="-2.543148">
        <ele>545.018</ele>
        <time>2022-03-20T12:30:54Z</time>
      </trkpt>
      <trkpt lat="42.908001" lon="-2.543161">
        <ele>545.096</ele>
        <time>2022-03-20T12:30:55Z</time>
      </trkpt>
      <trkpt lat="42.907995" lon="-2.543169">
        <ele>545.028</ele>
        <time>2022-03-20T12:30:56Z</time>
      </trkpt>
      <trkpt lat="42.907988" lon="-2.543181">
        <ele>545.070</ele>
        <time>2022-03-20T12:30:57Z</time>
      </trkpt>
      <trkpt lat="42.907983" lon="-2.543194">
        <ele>545.238</ele>
        <time>2022-03-20T12:30:58Z</time>
      </trkpt>
      <trkpt lat="42.907978" lon="-2.543205">
        <ele>545.411</ele>
        <time>2022-03-20T12:30:59Z</time>
      </trkpt>
      <trkpt lat="42.907969" lon="-2.543213">
        <ele>545.430</ele>
        <time>2022-03-20T12:31:00Z</time>
      </trkpt>
      <trkpt lat="42.907961" lon="-2.543221">
        <ele>545.438</ele>
        <time>2022-03-20T12:31:01Z</time>
      </trkpt>
      <trkpt lat="42.907955" lon="-2.543227">
        <ele>545.664</ele>
        <time>2022-03-20T12:31:02Z</time>
      </trkpt>
      <trkpt lat="42.907949" lon="-2.543239">
        <ele>545.406</ele>
        <time>2022-03-20T12:31:03Z</time>
      </trkpt>
      <trkpt lat="42.907946" lon="-2.543247">
        <ele>545.416</ele>
        <time>2022-03-20T12:31:04Z</time>
      </trkpt>
      <trkpt lat="42.907944" lon="-2.543255">
        <ele>545.208</ele>
        <time>2022-03-20T12:31:05Z</time>
      </trkpt>
      <trkpt lat="42.907942" lon="-2.543264">
        <ele>545.235</ele>
        <time>2022-03-20T12:31:06Z</time>
      </trkpt>
      <trkpt lat="42.907941" lon="-2.54327">
        <ele>545.243</ele>
        <time>2022-03-20T12:31:07Z</time>
      </trkpt>
      <trkpt lat="42.907941" lon="-2.543284">
        <ele>545.695</ele>
        <time>2022-03-20T12:31:08Z</time>
      </trkpt>
      <trkpt lat="42.90794" lon="-2.543294">
        <ele>546.027</ele>
        <time>2022-03-20T12:31:09Z</time>
      </trkpt>
      <trkpt lat="42.907939" lon="-2.543301">
        <ele>546.065</ele>
        <time>2022-03-20T12:31:10Z</time>
      </trkpt>
      <trkpt lat="42.907938" lon="-2.543308">
        <ele>546.038</ele>
        <time>2022-03-20T12:31:11Z</time>
      </trkpt>
      <trkpt lat="42.907937" lon="-2.543314">
        <ele>546.087</ele>
        <time>2022-03-20T12:31:12Z</time>
      </trkpt>
      <trkpt lat="42.907938" lon="-2.543319">
        <ele>545.875</ele>
        <time>2022-03-20T12:31:13Z</time>
      </trkpt>
      <trkpt lat="42.90794" lon="-2.543322">
        <ele>545.811</ele>
        <time>2022-03-20T12:31:14Z</time>
      </trkpt>
      <trkpt lat="42.907936" lon="-2.543323">
        <ele>545.821</ele>
        <time>2022-03-20T12:31:15Z</time>
      </trkpt>
      <trkpt lat="42.907935" lon="-2.543324">
        <ele>545.603</ele>
        <time>2022-03-20T12:31:16Z</time>
      </trkpt>
      <trkpt lat="42.907936" lon="-2.543323">
        <ele>545.608</ele>
        <time>2022-03-20T12:31:17Z</time>
      </trkpt>
      <trkpt lat="42.907935" lon="-2.543323">
        <ele>545.640</ele>
        <time>2022-03-20T12:31:18Z</time>
      </trkpt>
      <trkpt lat="42.907933" lon="-2.543326">
        <ele>545.688</ele>
        <time>2022-03-20T12:31:19Z</time>
      </trkpt>
      <trkpt lat="42.90793" lon="-2.543333">
        <ele>545.660</ele>
        <time>2022-03-20T12:31:20Z</time>
      </trkpt>
      <trkpt lat="42.907925" lon="-2.54334">
        <ele>545.252</ele>
        <time>2022-03-20T12:31:21Z</time>
      </trkpt>
      <trkpt lat="42.907919" lon="-2.54335">
        <ele>545.230</ele>
        <time>2022-03-20T12:31:22Z</time>
      </trkpt>
      <trkpt lat="42.907912" lon="-2.543361">
        <ele>545.293</ele>
        <time>2022-03-20T12:31:23Z</time>
      </trkpt>
      <trkpt lat="42.907906" lon="-2.543374">
        <ele>545.292</ele>
        <time>2022-03-20T12:31:24Z</time>
      </trkpt>
      <trkpt lat="42.907901" lon="-2.543386">
        <ele>545.240</ele>
        <time>2022-03-20T12:31:25Z</time>
      </trkpt>
      <trkpt lat="42.907895" lon="-2.543397">
        <ele>545.255</ele>
        <time>2022-03-20T12:31:26Z</time>
      </trkpt>
      <trkpt lat="42.907889" lon="-2.543408">
        <ele>545.207</ele>
        <time>2022-03-20T12:31:27Z</time>
      </trkpt>
      <trkpt lat="42.907882" lon="-2.543419">
        <ele>545.417</ele>
        <time>2022-03-20T12:31:28Z</time>
      </trkpt>
      <trkpt lat="42.907876" lon="-2.543429">
        <ele>545.408</ele>
        <time>2022-03-20T12:31:29Z</time>
      </trkpt>
      <trkpt lat="42.90787" lon="-2.543439">
        <ele>545.414</ele>
        <time>2022-03-20T12:31:30Z</time>
      </trkpt>
      <trkpt lat="42.907865" lon="-2.543448">
        <ele>545.472</ele>
        <time>2022-03-20T12:31:31Z</time>
      </trkpt>
      <trkpt lat="42.907859" lon="-2.543457">
        <ele>545.284</ele>
        <time>2022-03-20T12:31:32Z</time>
      </trkpt>
      <trkpt lat="42.907853" lon="-2.543467">
        <ele>545.286</ele>
        <time>2022-03-20T12:31:33Z</time>
      </trkpt>
      <trkpt lat="42.907849" lon="-2.543477">
        <ele>545.224</ele>
        <time>2022-03-20T12:31:34Z</time>
      </trkpt>
      <trkpt lat="42.907844" lon="-2.543486">
        <ele>545.267</ele>
        <time>2022-03-20T12:31:35Z</time>
      </trkpt>
      <trkpt lat="42.907839" lon="-2.543495">
        <ele>545.256</ele>
        <time>2022-03-20T12:31:36Z</time>
      </trkpt>
      <trkpt lat="42.907832" lon="-2.543503">
        <ele>545.294</ele>
        <time>2022-03-20T12:31:37Z</time>
      </trkpt>
      <trkpt lat="42.907825" lon="-2.543511">
        <ele>545.219</ele>
        <time>2022-03-20T12:31:38Z</time>
      </trkpt>
      <trkpt lat="42.907819" lon="-2.543518">
        <ele>545.209</ele>
        <time>2022-03-20T12:31:39Z</time>
      </trkpt>
      <trkpt lat="42.907814" lon="-2.543525">
        <ele>545.419</ele>
        <time>2022-03-20T12:31:40Z</time>
      </trkpt>
      <trkpt lat="42.907809" lon="-2.543534">
        <ele>545.408</ele>
        <time>2022-03-20T12:31:41Z</time>
      </trkpt>
      <trkpt lat="42.907803" lon="-2.543545">
        <ele>545.490</ele>
        <time>2022-03-20T12:31:42Z</time>
      </trkpt>
      <trkpt lat="42.907795" lon="-2.543556">
        <ele>545.478</ele>
        <time>2022-03-20T12:31:43Z</time>
      </trkpt>
      <trkpt lat="42.907788" lon="-2.543566">
        <ele>545.440</ele>
        <time>2022-03-20T12:31:44Z</time>
      </trkpt>
      <trkpt lat="42.907781" lon="-2.543577">
        <ele>545.482</ele>
        <time>2022-03-20T12:31:45Z</time>
      </trkpt>
      <trkpt lat="42.907774" lon="-2.543586">
        <ele>545.490</ele>
        <time>2022-03-20T12:31:46Z</time>
      </trkpt>
      <trkpt lat="42.907767" lon="-2.543595">
        <ele>545.453</ele>
        <time>2022-03-20T12:31:47Z</time>
      </trkpt>
      <trkpt lat="42.907762" lon="-2.543606">
        <ele>545.452</ele>
        <time>2022-03-20T12:31:48Z</time>
      </trkpt>
      <trkpt lat="42.907758" lon="-2.543616">
        <ele>545.210</ele>
        <time>2022-03-20T12:31:49Z</time>
      </trkpt>
      <trkpt lat="42.907753" lon="-2.543623">
        <ele>545.244</ele>
        <time>2022-03-20T12:31:50Z</time>
      </trkpt>
      <trkpt lat="42.907748" lon="-2.543631">
        <ele>545.205</ele>
        <time>2022-03-20T12:31:51Z</time>
      </trkpt>
      <trkpt lat="42.90774" lon="-2.543637">
        <ele>544.815</ele>
        <time>2022-03-20T12:31:52Z</time>
      </trkpt>
      <trkpt lat="42.907733" lon="-2.543644">
        <ele>544.808</ele>
        <time>2022-03-20T12:31:53Z</time>
      </trkpt>
      <trkpt lat="42.907726" lon="-2.543653">
        <ele>544.813</ele>
        <time>2022-03-20T12:31:54Z</time>
      </trkpt>
      <trkpt lat="42.907719" lon="-2.543661">
        <ele>544.651</ele>
        <time>2022-03-20T12:31:55Z</time>
      </trkpt>
      <trkpt lat="42.907712" lon="-2.543667">
        <ele>544.653</ele>
        <time>2022-03-20T12:31:56Z</time>
      </trkpt>
      <trkpt lat="42.907705" lon="-2.543675">
        <ele>544.895</ele>
        <time>2022-03-20T12:31:57Z</time>
      </trkpt>
      <trkpt lat="42.907698" lon="-2.543683">
        <ele>544.863</ele>
        <time>2022-03-20T12:31:58Z</time>
      </trkpt>
      <trkpt lat="42.907694" lon="-2.543689">
        <ele>544.846</ele>
        <time>2022-03-20T12:31:59Z</time>
      </trkpt>
      <trkpt lat="42.907692" lon="-2.543692">
        <ele>544.865</ele>
        <time>2022-03-20T12:32:00Z</time>
      </trkpt>
      <trkpt lat="42.90769" lon="-2.543695">
        <ele>544.833</ele>
        <time>2022-03-20T12:32:01Z</time>
      </trkpt>
      <trkpt lat="42.907686" lon="-2.543697">
        <ele>544.886</ele>
        <time>2022-03-20T12:32:02Z</time>
      </trkpt>
      <trkpt lat="42.907684" lon="-2.543695">
        <ele>544.860</ele>
        <time>2022-03-20T12:32:03Z</time>
      </trkpt>
      <trkpt lat="42.907681" lon="-2.543692">
        <ele>545.226</ele>
        <time>2022-03-20T12:32:04Z</time>
      </trkpt>
      <trkpt lat="42.90768" lon="-2.543692">
        <ele>545.408</ele>
        <time>2022-03-20T12:32:05Z</time>
      </trkpt>
      <trkpt lat="42.907679" lon="-2.543692">
        <ele>545.497</ele>
        <time>2022-03-20T12:32:06Z</time>
      </trkpt>
      <trkpt lat="42.907676" lon="-2.543695">
        <ele>545.685</ele>
        <time>2022-03-20T12:32:07Z</time>
      </trkpt>
      <trkpt lat="42.907671" lon="-2.5437">
        <ele>545.617</ele>
        <time>2022-03-20T12:32:08Z</time>
      </trkpt>
      <trkpt lat="42.907667" lon="-2.543708">
        <ele>545.889</ele>
        <time>2022-03-20T12:32:09Z</time>
      </trkpt>
      <trkpt lat="42.907662" lon="-2.543716">
        <ele>545.877</ele>
        <time>2022-03-20T12:32:10Z</time>
      </trkpt>
      <trkpt lat="42.907656" lon="-2.543727">
        <ele>545.810</ele>
        <time>2022-03-20T12:32:11Z</time>
      </trkpt>
      <trkpt lat="42.90765" lon="-2.543739">
        <ele>545.819</ele>
        <time>2022-03-20T12:32:12Z</time>
      </trkpt>
      <trkpt lat="42.907644" lon="-2.54375">
        <ele>546.077</ele>
        <time>2022-03-20T12:32:13Z</time>
      </trkpt>
      <trkpt lat="42.907638" lon="-2.543757">
        <ele>545.814</ele>
        <time>2022-03-20T12:32:14Z</time>
      </trkpt>
      <trkpt lat="42.907631" lon="-2.543765">
        <ele>545.854</ele>
        <time>2022-03-20T12:32:15Z</time>
      </trkpt>
      <trkpt lat="42.907625" lon="-2.543771">
        <ele>545.609</ele>
        <time>2022-03-20T12:32:16Z</time>
      </trkpt>
      <trkpt lat="42.907621" lon="-2.543781">
        <ele>545.608</ele>
        <time>2022-03-20T12:32:17Z</time>
      </trkpt>
      <trkpt lat="42.907614" lon="-2.543789">
        <ele>545.630</ele>
        <time>2022-03-20T12:32:18Z</time>
      </trkpt>
      <trkpt lat="42.907606" lon="-2.543799">
        <ele>545.448</ele>
        <time>2022-03-20T12:32:19Z</time>
      </trkpt>
      <trkpt lat="42.907598" lon="-2.543807">
        <ele>545.430</ele>
        <time>2022-03-20T12:32:20Z</time>
      </trkpt>
      <trkpt lat="42.90759" lon="-2.543816">
        <ele>545.432</ele>
        <time>2022-03-20T12:32:21Z</time>
      </trkpt>
      <trkpt lat="42.907582" lon="-2.543825">
        <ele>545.410</ele>
        <time>2022-03-20T12:32:22Z</time>
      </trkpt>
      <trkpt lat="42.907574" lon="-2.543833">
        <ele>545.413</ele>
        <time>2022-03-20T12:32:23Z</time>
      </trkpt>
      <trkpt lat="42.907565" lon="-2.543842">
        <ele>545.462</ele>
        <time>2022-03-20T12:32:24Z</time>
      </trkpt>
      <trkpt lat="42.907557" lon="-2.54385">
        <ele>545.480</ele>
        <time>2022-03-20T12:32:25Z</time>
      </trkpt>
      <trkpt lat="42.907549" lon="-2.54386">
        <ele>545.456</ele>
        <time>2022-03-20T12:32:26Z</time>
      </trkpt>
      <trkpt lat="42.907541" lon="-2.543867">
        <ele>545.459</ele>
        <time>2022-03-20T12:32:27Z</time>
      </trkpt>
      <trkpt lat="42.907531" lon="-2.543874">
        <ele>545.414</ele>
        <time>2022-03-20T12:32:28Z</time>
      </trkpt>
      <trkpt lat="42.907524" lon="-2.54388">
        <ele>545.408</ele>
        <time>2022-03-20T12:32:29Z</time>
      </trkpt>
      <trkpt lat="42.907514" lon="-2.543888">
        <ele>545.414</ele>
        <time>2022-03-20T12:32:30Z</time>
      </trkpt>
      <trkpt lat="42.907506" lon="-2.543899">
        <ele>545.662</ele>
        <time>2022-03-20T12:32:31Z</time>
      </trkpt>
      <trkpt lat="42.907498" lon="-2.54391">
        <ele>545.634</ele>
        <time>2022-03-20T12:32:32Z</time>
      </trkpt>
      <trkpt lat="42.90749" lon="-2.543922">
        <ele>545.676</ele>
        <time>2022-03-20T12:32:33Z</time>
      </trkpt>
      <trkpt lat="42.907482" lon="-2.543935">
        <ele>545.634</ele>
        <time>2022-03-20T12:32:34Z</time>
      </trkpt>
      <trkpt lat="42.907475" lon="-2.543949">
        <ele>545.437</ele>
        <time>2022-03-20T12:32:35Z</time>
      </trkpt>
      <trkpt lat="42.907467" lon="-2.543961">
        <ele>545.446</ele>
        <time>2022-03-20T12:32:36Z</time>
      </trkpt>
      <trkpt lat="42.907458" lon="-2.543973">
        <ele>545.454</ele>
        <time>2022-03-20T12:32:37Z</time>
      </trkpt>
      <trkpt lat="42.907452" lon="-2.543985">
        <ele>545.429</ele>
        <time>2022-03-20T12:32:38Z</time>
      </trkpt>
      <trkpt lat="42.907446" lon="-2.543998">
        <ele>545.000</ele>
        <time>2022-03-20T12:32:39Z</time>
      </trkpt>
      <trkpt lat="42.907439" lon="-2.544009">
        <ele>545.020</ele>
        <time>2022-03-20T12:32:40Z</time>
      </trkpt>
      <trkpt lat="42.907431" lon="-2.544021">
        <ele>545.008</ele>
        <time>2022-03-20T12:32:41Z</time>
      </trkpt>
      <trkpt lat="42.907426" lon="-2.544032">
        <ele>545.441</ele>
        <time>2022-03-20T12:32:42Z</time>
      </trkpt>
      <trkpt lat="42.907418" lon="-2.544044">
        <ele>545.459</ele>
        <time>2022-03-20T12:32:43Z</time>
      </trkpt>
      <trkpt lat="42.90741" lon="-2.544055">
        <ele>545.411</ele>
        <time>2022-03-20T12:32:44Z</time>
      </trkpt>
      <trkpt lat="42.907404" lon="-2.544066">
        <ele>545.483</ele>
        <time>2022-03-20T12:32:45Z</time>
      </trkpt>
      <trkpt lat="42.907397" lon="-2.544076">
        <ele>545.411</ele>
        <time>2022-03-20T12:32:46Z</time>
      </trkpt>
      <trkpt lat="42.907391" lon="-2.544085">
        <ele>545.654</ele>
        <time>2022-03-20T12:32:47Z</time>
      </trkpt>
      <trkpt lat="42.907384" lon="-2.544097">
        <ele>545.453</ele>
        <time>2022-03-20T12:32:48Z</time>
      </trkpt>
      <trkpt lat="42.907378" lon="-2.54411">
        <ele>545.491</ele>
        <time>2022-03-20T12:32:49Z</time>
      </trkpt>
      <trkpt lat="42.907374" lon="-2.54412">
        <ele>545.686</ele>
        <time>2022-03-20T12:32:50Z</time>
      </trkpt>
      <trkpt lat="42.907371" lon="-2.544131">
        <ele>545.660</ele>
        <time>2022-03-20T12:32:51Z</time>
      </trkpt>
      <trkpt lat="42.907366" lon="-2.544143">
        <ele>545.426</ele>
        <time>2022-03-20T12:32:52Z</time>
      </trkpt>
      <trkpt lat="42.90736" lon="-2.544155">
        <ele>545.408</ele>
        <time>2022-03-20T12:32:53Z</time>
      </trkpt>
      <trkpt lat="42.907355" lon="-2.544167">
        <ele>545.467</ele>
        <time>2022-03-20T12:32:54Z</time>
      </trkpt>
      <trkpt lat="42.907352" lon="-2.544177">
        <ele>545.425</ele>
        <time>2022-03-20T12:32:55Z</time>
      </trkpt>
      <trkpt lat="42.907348" lon="-2.544181">
        <ele>545.457</ele>
        <time>2022-03-20T12:32:56Z</time>
      </trkpt>
      <trkpt lat="42.907345" lon="-2.544185">
        <ele>545.439</ele>
        <time>2022-03-20T12:32:57Z</time>
      </trkpt>
      <trkpt lat="42.907342" lon="-2.544188">
        <ele>545.477</ele>
        <time>2022-03-20T12:32:58Z</time>
      </trkpt>
      <trkpt lat="42.907338" lon="-2.544196">
        <ele>545.470</ele>
        <time>2022-03-20T12:32:59Z</time>
      </trkpt>
      <trkpt lat="42.907335" lon="-2.544206">
        <ele>545.449</ele>
        <time>2022-03-20T12:33:00Z</time>
      </trkpt>
      <trkpt lat="42.907331" lon="-2.544217">
        <ele>545.467</ele>
        <time>2022-03-20T12:33:01Z</time>
      </trkpt>
      <trkpt lat="42.90733" lon="-2.544228">
        <ele>545.482</ele>
        <time>2022-03-20T12:33:02Z</time>
      </trkpt>
      <trkpt lat="42.907327" lon="-2.544241">
        <ele>545.443</ele>
        <time>2022-03-20T12:33:03Z</time>
      </trkpt>
      <trkpt lat="42.907324" lon="-2.544254">
        <ele>545.417</ele>
        <time>2022-03-20T12:33:04Z</time>
      </trkpt>
      <trkpt lat="42.907321" lon="-2.544267">
        <ele>545.408</ele>
        <time>2022-03-20T12:33:05Z</time>
      </trkpt>
      <trkpt lat="42.90732" lon="-2.544283">
        <ele>545.417</ele>
        <time>2022-03-20T12:33:06Z</time>
      </trkpt>
      <trkpt lat="42.907317" lon="-2.544298">
        <ele>545.475</ele>
        <time>2022-03-20T12:33:07Z</time>
      </trkpt>
      <trkpt lat="42.907316" lon="-2.544312">
        <ele>545.457</ele>
        <time>2022-03-20T12:33:08Z</time>
      </trkpt>
      <trkpt lat="42.907314" lon="-2.544326">
        <ele>545.489</ele>
        <time>2022-03-20T12:33:09Z</time>
      </trkpt>
      <trkpt lat="42.907313" lon="-2.54434">
        <ele>545.477</ele>
        <time>2022-03-20T12:33:10Z</time>
      </trkpt>
      <trkpt lat="42.907312" lon="-2.544354">
        <ele>545.430</ele>
        <time>2022-03-20T12:33:11Z</time>
      </trkpt>
      <trkpt lat="42.90731" lon="-2.544371">
        <ele>545.469</ele>
        <time>2022-03-20T12:33:12Z</time>
      </trkpt>
      <trkpt lat="42.907306" lon="-2.544386">
        <ele>545.467</ele>
        <time>2022-03-20T12:33:13Z</time>
      </trkpt>
      <trkpt lat="42.907303" lon="-2.5444">
        <ele>545.475</ele>
        <time>2022-03-20T12:33:14Z</time>
      </trkpt>
      <trkpt lat="42.907301" lon="-2.544413">
        <ele>545.428</ele>
        <time>2022-03-20T12:33:15Z</time>
      </trkpt>
      <trkpt lat="42.907299" lon="-2.544426">
        <ele>545.620</ele>
        <time>2022-03-20T12:33:16Z</time>
      </trkpt>
      <trkpt lat="42.907299" lon="-2.544441">
        <ele>545.608</ele>
        <time>2022-03-20T12:33:17Z</time>
      </trkpt>
      <trkpt lat="42.907295" lon="-2.544455">
        <ele>546.026</ele>
        <time>2022-03-20T12:33:18Z</time>
      </trkpt>
      <trkpt lat="42.907292" lon="-2.544468">
        <ele>546.064</ele>
        <time>2022-03-20T12:33:19Z</time>
      </trkpt>
      <trkpt lat="42.907287" lon="-2.544479">
        <ele>546.016</ele>
        <time>2022-03-20T12:33:20Z</time>
      </trkpt>
      <trkpt lat="42.907283" lon="-2.544491">
        <ele>546.058</ele>
        <time>2022-03-20T12:33:21Z</time>
      </trkpt>
      <trkpt lat="42.907279" lon="-2.544503">
        <ele>546.096</ele>
        <time>2022-03-20T12:33:22Z</time>
      </trkpt>
      <trkpt lat="42.907274" lon="-2.544515">
        <ele>545.899</ele>
        <time>2022-03-20T12:33:23Z</time>
      </trkpt>
      <trkpt lat="42.90727" lon="-2.544529">
        <ele>546.028</ele>
        <time>2022-03-20T12:33:24Z</time>
      </trkpt>
      <trkpt lat="42.907265" lon="-2.544541">
        <ele>546.046</ele>
        <time>2022-03-20T12:33:25Z</time>
      </trkpt>
      <trkpt lat="42.907258" lon="-2.544554">
        <ele>546.067</ele>
        <time>2022-03-20T12:33:26Z</time>
      </trkpt>
      <trkpt lat="42.907254" lon="-2.544566">
        <ele>546.281</ele>
        <time>2022-03-20T12:33:27Z</time>
      </trkpt>
      <trkpt lat="42.907249" lon="-2.544578">
        <ele>546.219</ele>
        <time>2022-03-20T12:33:28Z</time>
      </trkpt>
      <trkpt lat="42.907243" lon="-2.544587">
        <ele>546.208</ele>
        <time>2022-03-20T12:33:29Z</time>
      </trkpt>
      <trkpt lat="42.907235" lon="-2.544594">
        <ele>546.285</ele>
        <time>2022-03-20T12:33:30Z</time>
      </trkpt>
      <trkpt lat="42.90723" lon="-2.544601">
        <ele>546.293</ele>
        <time>2022-03-20T12:33:31Z</time>
      </trkpt>
      <trkpt lat="42.907223" lon="-2.544609">
        <ele>546.285</ele>
        <time>2022-03-20T12:33:32Z</time>
      </trkpt>
      <trkpt lat="42.907215" lon="-2.544616">
        <ele>546.437</ele>
        <time>2022-03-20T12:33:33Z</time>
      </trkpt>
      <trkpt lat="42.907205" lon="-2.544622">
        <ele>546.495</ele>
        <time>2022-03-20T12:33:34Z</time>
      </trkpt>
      <trkpt lat="42.907197" lon="-2.544629">
        <ele>546.468</ele>
        <time>2022-03-20T12:33:35Z</time>
      </trkpt>
      <trkpt lat="42.90719" lon="-2.544636">
        <ele>546.457</ele>
        <time>2022-03-20T12:33:36Z</time>
      </trkpt>
      <trkpt lat="42.907183" lon="-2.544643">
        <ele>546.455</ele>
        <time>2022-03-20T12:33:37Z</time>
      </trkpt>
      <trkpt lat="42.907176" lon="-2.54465">
        <ele>546.417</ele>
        <time>2022-03-20T12:33:38Z</time>
      </trkpt>
      <trkpt lat="42.907176" lon="-2.544655">
        <ele>546.487</ele>
        <time>2022-03-20T12:33:39Z</time>
      </trkpt>
      <trkpt lat="42.907178" lon="-2.544657">
        <ele>546.615</ele>
        <time>2022-03-20T12:33:40Z</time>
      </trkpt>
      <trkpt lat="42.907176" lon="-2.54466">
        <ele>546.008</ele>
        <time>2022-03-20T12:33:41Z</time>
      </trkpt>
      <trkpt lat="42.907168" lon="-2.544665">
        <ele>545.870</ele>
        <time>2022-03-20T12:33:42Z</time>
      </trkpt>
      <trkpt lat="42.907159" lon="-2.544669">
        <ele>545.618</ele>
        <time>2022-03-20T12:33:43Z</time>
      </trkpt>
      <trkpt lat="42.907149" lon="-2.544672">
        <ele>545.480</ele>
        <time>2022-03-20T12:33:44Z</time>
      </trkpt>
      <trkpt lat="42.907139" lon="-2.544675">
        <ele>546.012</ele>
        <time>2022-03-20T12:33:45Z</time>
      </trkpt>
      <trkpt lat="42.907128" lon="-2.544681">
        <ele>545.280</ele>
        <time>2022-03-20T12:33:46Z</time>
      </trkpt>
      <trkpt lat="42.907117" lon="-2.544689">
        <ele>545.273</ele>
        <time>2022-03-20T12:33:47Z</time>
      </trkpt>
      <trkpt lat="42.907106" lon="-2.544697">
        <ele>545.262</ele>
        <time>2022-03-20T12:33:48Z</time>
      </trkpt>
      <trkpt lat="42.907097" lon="-2.544705">
        <ele>545.420</ele>
        <time>2022-03-20T12:33:49Z</time>
      </trkpt>
      <trkpt lat="42.907088" lon="-2.544712">
        <ele>545.864</ele>
        <time>2022-03-20T12:33:50Z</time>
      </trkpt>
      <trkpt lat="42.90708" lon="-2.544715">
        <ele>546.006</ele>
        <time>2022-03-20T12:33:51Z</time>
      </trkpt>
      <trkpt lat="42.907071" lon="-2.544719">
        <ele>546.016</ele>
        <time>2022-03-20T12:33:52Z</time>
      </trkpt>
      <trkpt lat="42.907063" lon="-2.544724">
        <ele>546.008</ele>
        <time>2022-03-20T12:33:53Z</time>
      </trkpt>
      <trkpt lat="42.907052" lon="-2.54473">
        <ele>546.055</ele>
        <time>2022-03-20T12:33:54Z</time>
      </trkpt>
      <trkpt lat="42.907042" lon="-2.544736">
        <ele>546.083</ele>
        <time>2022-03-20T12:33:55Z</time>
      </trkpt>
      <trkpt lat="42.907032" lon="-2.54474">
        <ele>546.075</ele>
        <time>2022-03-20T12:33:56Z</time>
      </trkpt>
      <trkpt lat="42.90702" lon="-2.544742">
        <ele>546.217</ele>
        <time>2022-03-20T12:33:57Z</time>
      </trkpt>
      <trkpt lat="42.907009" lon="-2.544744">
        <ele>546.255</ele>
        <time>2022-03-20T12:33:58Z</time>
      </trkpt>
      <trkpt lat="42.906998" lon="-2.544746">
        <ele>546.498</ele>
        <time>2022-03-20T12:33:59Z</time>
      </trkpt>
      <trkpt lat="42.906985" lon="-2.544749">
        <ele>546.437</ele>
        <time>2022-03-20T12:34:00Z</time>
      </trkpt>
      <trkpt lat="42.906975" lon="-2.544751">
        <ele>546.875</ele>
        <time>2022-03-20T12:34:01Z</time>
      </trkpt>
      <trkpt lat="42.906965" lon="-2.544755">
        <ele>547.091</ele>
        <time>2022-03-20T12:34:02Z</time>
      </trkpt>
      <trkpt lat="42.906956" lon="-2.544761">
        <ele>547.081</ele>
        <time>2022-03-20T12:34:03Z</time>
      </trkpt>
      <trkpt lat="42.906948" lon="-2.544765">
        <ele>547.019</ele>
        <time>2022-03-20T12:34:04Z</time>
      </trkpt>
      <trkpt lat="42.906941" lon="-2.544769">
        <ele>547.008</ele>
        <time>2022-03-20T12:34:05Z</time>
      </trkpt>
      <trkpt lat="42.906932" lon="-2.544773">
        <ele>547.028</ele>
        <time>2022-03-20T12:34:06Z</time>
      </trkpt>
      <trkpt lat="42.906923" lon="-2.544776">
        <ele>546.856</ele>
        <time>2022-03-20T12:34:07Z</time>
      </trkpt>
      <trkpt lat="42.906913" lon="-2.544779">
        <ele>546.618</ele>
        <time>2022-03-20T12:34:08Z</time>
      </trkpt>
      <trkpt lat="42.906905" lon="-2.544782">
        <ele>546.620</ele>
        <time>2022-03-20T12:34:09Z</time>
      </trkpt>
      <trkpt lat="42.906897" lon="-2.544785">
        <ele>546.628</ele>
        <time>2022-03-20T12:34:10Z</time>
      </trkpt>
      <trkpt lat="42.906887" lon="-2.544788">
        <ele>546.681</ele>
        <time>2022-03-20T12:34:11Z</time>
      </trkpt>
      <trkpt lat="42.906877" lon="-2.544791">
        <ele>546.630</ele>
        <time>2022-03-20T12:34:12Z</time>
      </trkpt>
      <trkpt lat="42.906867" lon="-2.544796">
        <ele>546.868</ele>
        <time>2022-03-20T12:34:13Z</time>
      </trkpt>
      <trkpt lat="42.906858" lon="-2.5448">
        <ele>547.295</ele>
        <time>2022-03-20T12:34:14Z</time>
      </trkpt>
      <trkpt lat="42.906849" lon="-2.544803">
        <ele>547.249</ele>
        <time>2022-03-20T12:34:15Z</time>
      </trkpt>
      <trkpt lat="42.906838" lon="-2.544806">
        <ele>547.223</ele>
        <time>2022-03-20T12:34:16Z</time>
      </trkpt>
      <trkpt lat="42.906829" lon="-2.544808">
        <ele>547.208</ele>
        <time>2022-03-20T12:34:17Z</time>
      </trkpt>
      <trkpt lat="42.906819" lon="-2.54481">
        <ele>547.268</ele>
        <time>2022-03-20T12:34:18Z</time>
      </trkpt>
      <trkpt lat="42.906808" lon="-2.544815">
        <ele>546.826</ele>
        <time>2022-03-20T12:34:19Z</time>
      </trkpt>
      <trkpt lat="42.906798" lon="-2.544819">
        <ele>546.668</ele>
        <time>2022-03-20T12:34:20Z</time>
      </trkpt>
      <trkpt lat="42.906789" lon="-2.544822">
        <ele>546.450</ele>
        <time>2022-03-20T12:34:21Z</time>
      </trkpt>
      <trkpt lat="42.906777" lon="-2.544825">
        <ele>546.658</ele>
        <time>2022-03-20T12:34:22Z</time>
      </trkpt>
      <trkpt lat="42.906769" lon="-2.544829">
        <ele>546.861</ele>
        <time>2022-03-20T12:34:23Z</time>
      </trkpt>
      <trkpt lat="42.906758" lon="-2.544832">
        <ele>546.810</ele>
        <time>2022-03-20T12:34:24Z</time>
      </trkpt>
      <trkpt lat="42.906743" lon="-2.544836">
        <ele>547.048</ele>
        <time>2022-03-20T12:34:25Z</time>
      </trkpt>
      <trkpt lat="42.906731" lon="-2.544839">
        <ele>547.431</ele>
        <time>2022-03-20T12:34:26Z</time>
      </trkpt>
      <trkpt lat="42.906721" lon="-2.54484">
        <ele>547.461</ele>
        <time>2022-03-20T12:34:27Z</time>
      </trkpt>
      <trkpt lat="42.906711" lon="-2.544842">
        <ele>547.607</ele>
        <time>2022-03-20T12:34:28Z</time>
      </trkpt>
      <trkpt lat="42.9067" lon="-2.544843">
        <ele>547.608</ele>
        <time>2022-03-20T12:34:29Z</time>
      </trkpt>
      <trkpt lat="42.906688" lon="-2.544846">
        <ele>547.482</ele>
        <time>2022-03-20T12:34:30Z</time>
      </trkpt>
      <trkpt lat="42.906678" lon="-2.544849">
        <ele>547.460</ele>
        <time>2022-03-20T12:34:31Z</time>
      </trkpt>
      <trkpt lat="42.906669" lon="-2.544856">
        <ele>547.462</ele>
        <time>2022-03-20T12:34:32Z</time>
      </trkpt>
      <trkpt lat="42.90666" lon="-2.544864">
        <ele>547.424</ele>
        <time>2022-03-20T12:34:33Z</time>
      </trkpt>
      <trkpt lat="42.906651" lon="-2.544872">
        <ele>547.272</ele>
        <time>2022-03-20T12:34:34Z</time>
      </trkpt>
      <trkpt lat="42.906642" lon="-2.544878">
        <ele>547.285</ele>
        <time>2022-03-20T12:34:35Z</time>
      </trkpt>
      <trkpt lat="42.906634" lon="-2.544884">
        <ele>547.234</ele>
        <time>2022-03-20T12:34:36Z</time>
      </trkpt>
      <trkpt lat="42.906626" lon="-2.544891">
        <ele>547.422</ele>
        <time>2022-03-20T12:34:37Z</time>
      </trkpt>
      <trkpt lat="42.906618" lon="-2.544897">
        <ele>547.496</ele>
        <time>2022-03-20T12:34:38Z</time>
      </trkpt>
      <trkpt lat="42.906609" lon="-2.544901">
        <ele>547.231</ele>
        <time>2022-03-20T12:34:39Z</time>
      </trkpt>
      <trkpt lat="42.906601" lon="-2.544907">
        <ele>547.224</ele>
        <time>2022-03-20T12:34:40Z</time>
      </trkpt>
      <trkpt lat="42.906592" lon="-2.544914">
        <ele>547.208</ele>
        <time>2022-03-20T12:34:41Z</time>
      </trkpt>
      <trkpt lat="42.906582" lon="-2.544922">
        <ele>548.458</ele>
        <time>2022-03-20T12:34:42Z</time>
      </trkpt>
      <trkpt lat="42.906573" lon="-2.544931">
        <ele>548.466</ele>
        <time>2022-03-20T12:34:43Z</time>
      </trkpt>
      <trkpt lat="42.906564" lon="-2.544937">
        <ele>547.468</ele>
        <time>2022-03-20T12:34:44Z</time>
      </trkpt>
      <trkpt lat="42.906555" lon="-2.544942">
        <ele>548.460</ele>
        <time>2022-03-20T12:34:45Z</time>
      </trkpt>
      <trkpt lat="42.906545" lon="-2.544947">
        <ele>548.488</ele>
        <time>2022-03-20T12:34:46Z</time>
      </trkpt>
      <trkpt lat="42.906533" lon="-2.544953">
        <ele>548.021</ele>
        <time>2022-03-20T12:34:47Z</time>
      </trkpt>
      <trkpt lat="42.906524" lon="-2.544961">
        <ele>548.030</ele>
        <time>2022-03-20T12:34:48Z</time>
      </trkpt>
      <trkpt lat="42.906514" lon="-2.544969">
        <ele>547.838</ele>
        <time>2022-03-20T12:34:49Z</time>
      </trkpt>
      <trkpt lat="42.906504" lon="-2.544975">
        <ele>547.681</ele>
        <time>2022-03-20T12:34:50Z</time>
      </trkpt>
      <trkpt lat="42.906495" lon="-2.544981">
        <ele>547.861</ele>
        <time>2022-03-20T12:34:51Z</time>
      </trkpt>
      <trkpt lat="42.906484" lon="-2.544986">
        <ele>547.817</ele>
        <time>2022-03-20T12:34:52Z</time>
      </trkpt>
      <trkpt lat="42.906474" lon="-2.544991">
        <ele>547.808</ele>
        <time>2022-03-20T12:34:53Z</time>
      </trkpt>
      <trkpt lat="42.906464" lon="-2.544996">
        <ele>548.667</ele>
        <time>2022-03-20T12:34:54Z</time>
      </trkpt>
      <trkpt lat="42.906454" lon="-2.545001">
        <ele>548.825</ele>
        <time>2022-03-20T12:34:55Z</time>
      </trkpt>
      <trkpt lat="42.906445" lon="-2.545009">
        <ele>549.247</ele>
        <time>2022-03-20T12:34:56Z</time>
      </trkpt>
      <trkpt lat="42.906435" lon="-2.545017">
        <ele>549.289</ele>
        <time>2022-03-20T12:34:57Z</time>
      </trkpt>
      <trkpt lat="42.906425" lon="-2.545022">
        <ele>549.267</ele>
        <time>2022-03-20T12:34:58Z</time>
      </trkpt>
      <trkpt lat="42.906416" lon="-2.545031">
        <ele>549.210</ele>
        <time>2022-03-20T12:34:59Z</time>
      </trkpt>
      <trkpt lat="42.906407" lon="-2.545036">
        <ele>548.299</ele>
        <time>2022-03-20T12:35:00Z</time>
      </trkpt>
      <trkpt lat="42.906398" lon="-2.545042">
        <ele>548.257</ele>
        <time>2022-03-20T12:35:01Z</time>
      </trkpt>
      <trkpt lat="42.90639" lon="-2.545047">
        <ele>548.273</ele>
        <time>2022-03-20T12:35:02Z</time>
      </trkpt>
      <trkpt lat="42.906381" lon="-2.545054">
        <ele>548.285</ele>
        <time>2022-03-20T12:35:03Z</time>
      </trkpt>
      <trkpt lat="42.906372" lon="-2.545061">
        <ele>548.213</ele>
        <time>2022-03-20T12:35:04Z</time>
      </trkpt>
      <trkpt lat="42.906362" lon="-2.545066">
        <ele>548.408</ele>
        <time>2022-03-20T12:35:05Z</time>
      </trkpt>
      <trkpt lat="42.906352" lon="-2.545073">
        <ele>548.496</ele>
        <time>2022-03-20T12:35:06Z</time>
      </trkpt>
      <trkpt lat="42.906343" lon="-2.545078">
        <ele>548.454</ele>
        <time>2022-03-20T12:35:07Z</time>
      </trkpt>
      <trkpt lat="42.906334" lon="-2.545085">
        <ele>549.056</ele>
        <time>2022-03-20T12:35:08Z</time>
      </trkpt>
      <trkpt lat="42.906326" lon="-2.545093">
        <ele>549.028</ele>
        <time>2022-03-20T12:35:09Z</time>
      </trkpt>
      <trkpt lat="42.90632" lon="-2.545102">
        <ele>549.056</ele>
        <time>2022-03-20T12:35:10Z</time>
      </trkpt>
      <trkpt lat="42.906313" lon="-2.545113">
        <ele>549.059</ele>
        <time>2022-03-20T12:35:11Z</time>
      </trkpt>
      <trkpt lat="42.906305" lon="-2.545123">
        <ele>548.878</ele>
        <time>2022-03-20T12:35:12Z</time>
      </trkpt>
      <trkpt lat="42.906296" lon="-2.545126">
        <ele>548.846</ele>
        <time>2022-03-20T12:35:13Z</time>
      </trkpt>
      <trkpt lat="42.906287" lon="-2.545129">
        <ele>548.854</ele>
        <time>2022-03-20T12:35:14Z</time>
      </trkpt>
      <trkpt lat="42.906279" lon="-2.545133">
        <ele>548.856</ele>
        <time>2022-03-20T12:35:15Z</time>
      </trkpt>
      <trkpt lat="42.90627" lon="-2.545141">
        <ele>548.811</ele>
        <time>2022-03-20T12:35:16Z</time>
      </trkpt>
      <trkpt lat="42.906261" lon="-2.545151">
        <ele>548.808</ele>
        <time>2022-03-20T12:35:17Z</time>
      </trkpt>
      <trkpt lat="42.906254" lon="-2.54516">
        <ele>548.814</ele>
        <time>2022-03-20T12:35:18Z</time>
      </trkpt>
      <trkpt lat="42.906247" lon="-2.54517">
        <ele>548.812</ele>
        <time>2022-03-20T12:35:19Z</time>
      </trkpt>
      <trkpt lat="42.90624" lon="-2.545179">
        <ele>548.894</ele>
        <time>2022-03-20T12:35:20Z</time>
      </trkpt>
      <trkpt lat="42.906232" lon="-2.54519">
        <ele>549.256</ele>
        <time>2022-03-20T12:35:21Z</time>
      </trkpt>
      <trkpt lat="42.906222" lon="-2.545198">
        <ele>549.214</ele>
        <time>2022-03-20T12:35:22Z</time>
      </trkpt>
      <trkpt lat="42.906213" lon="-2.545206">
        <ele>549.277</ele>
        <time>2022-03-20T12:35:23Z</time>
      </trkpt>
      <trkpt lat="42.906204" lon="-2.545215">
        <ele>548.866</ele>
        <time>2022-03-20T12:35:24Z</time>
      </trkpt>
      <trkpt lat="42.906196" lon="-2.545223">
        <ele>548.614</ele>
        <time>2022-03-20T12:35:25Z</time>
      </trkpt>
      <trkpt lat="42.906185" lon="-2.545231">
        <ele>547.868</ele>
        <time>2022-03-20T12:35:26Z</time>
      </trkpt>
      <trkpt lat="42.906174" lon="-2.545237">
        <ele>547.242</ele>
        <time>2022-03-20T12:35:27Z</time>
      </trkpt>
      <trkpt lat="42.906164" lon="-2.545242">
        <ele>546.826</ele>
        <time>2022-03-20T12:35:28Z</time>
      </trkpt>
      <trkpt lat="42.906155" lon="-2.545249">
        <ele>546.808</ele>
        <time>2022-03-20T12:35:29Z</time>
      </trkpt>
      <trkpt lat="42.906146" lon="-2.545255">
        <ele>546.815</ele>
        <time>2022-03-20T12:35:30Z</time>
      </trkpt>
      <trkpt lat="42.906138" lon="-2.545264">
        <ele>547.223</ele>
        <time>2022-03-20T12:35:31Z</time>
      </trkpt>
      <trkpt lat="42.906132" lon="-2.545271">
        <ele>547.265</ele>
        <time>2022-03-20T12:35:32Z</time>
      </trkpt>
      <trkpt lat="42.906122" lon="-2.545276">
        <ele>548.447</ele>
        <time>2022-03-20T12:35:33Z</time>
      </trkpt>
      <trkpt lat="42.906112" lon="-2.54528">
        <ele>548.435</ele>
        <time>2022-03-20T12:35:34Z</time>
      </trkpt>
      <trkpt lat="42.906103" lon="-2.545285">
        <ele>548.448</ele>
        <time>2022-03-20T12:35:35Z</time>
      </trkpt>
      <trkpt lat="42.906094" lon="-2.545292">
        <ele>548.217</ele>
        <time>2022-03-20T12:35:36Z</time>
      </trkpt>
      <trkpt lat="42.906086" lon="-2.545297">
        <ele>547.275</ele>
        <time>2022-03-20T12:35:37Z</time>
      </trkpt>
      <trkpt lat="42.906076" lon="-2.545304">
        <ele>547.232</ele>
        <time>2022-03-20T12:35:38Z</time>
      </trkpt>
      <trkpt lat="42.906068" lon="-2.545311">
        <ele>548.092</ele>
        <time>2022-03-20T12:35:39Z</time>
      </trkpt>
      <trkpt lat="42.906058" lon="-2.545317">
        <ele>547.611</ele>
        <time>2022-03-20T12:35:40Z</time>
      </trkpt>
      <trkpt lat="42.906049" lon="-2.545323">
        <ele>547.608</ele>
        <time>2022-03-20T12:35:41Z</time>
      </trkpt>
      <trkpt lat="42.906041" lon="-2.545328">
        <ele>547.612</ele>
        <time>2022-03-20T12:35:42Z</time>
      </trkpt>
      <trkpt lat="42.906033" lon="-2.545334">
        <ele>548.070</ele>
        <time>2022-03-20T12:35:43Z</time>
      </trkpt>
      <trkpt lat="42.906025" lon="-2.545341">
        <ele>548.012</ele>
        <time>2022-03-20T12:35:44Z</time>
      </trkpt>
      <trkpt lat="42.906015" lon="-2.545349">
        <ele>548.474</ele>
        <time>2022-03-20T12:35:45Z</time>
      </trkpt>
      <trkpt lat="42.906007" lon="-2.545356">
        <ele>548.692</ele>
        <time>2022-03-20T12:35:46Z</time>
      </trkpt>
      <trkpt lat="42.905997" lon="-2.545359">
        <ele>548.855</ele>
        <time>2022-03-20T12:35:47Z</time>
      </trkpt>
      <trkpt lat="42.905988" lon="-2.545363">
        <ele>548.884</ele>
        <time>2022-03-20T12:35:48Z</time>
      </trkpt>
      <trkpt lat="42.905978" lon="-2.545368">
        <ele>549.012</ele>
        <time>2022-03-20T12:35:49Z</time>
      </trkpt>
      <trkpt lat="42.905967" lon="-2.545373">
        <ele>548.851</ele>
        <time>2022-03-20T12:35:50Z</time>
      </trkpt>
      <trkpt lat="42.905956" lon="-2.54538">
        <ele>548.801</ele>
        <time>2022-03-20T12:35:51Z</time>
      </trkpt>
      <trkpt lat="42.905946" lon="-2.545386">
        <ele>548.811</ele>
        <time>2022-03-20T12:35:52Z</time>
      </trkpt>
      <trkpt lat="42.905936" lon="-2.545392">
        <ele>549.008</ele>
        <time>2022-03-20T12:35:53Z</time>
      </trkpt>
      <trkpt lat="42.905926" lon="-2.545398">
        <ele>549.014</ele>
        <time>2022-03-20T12:35:54Z</time>
      </trkpt>
      <trkpt lat="42.905917" lon="-2.545405">
        <ele>549.022</ele>
        <time>2022-03-20T12:35:55Z</time>
      </trkpt>
      <trkpt lat="42.905908" lon="-2.54541">
        <ele>549.044</ele>
        <time>2022-03-20T12:35:56Z</time>
      </trkpt>
      <trkpt lat="42.9059" lon="-2.545414">
        <ele>549.036</ele>
        <time>2022-03-20T12:35:57Z</time>
      </trkpt>
      <trkpt lat="42.905892" lon="-2.545421">
        <ele>548.864</ele>
        <time>2022-03-20T12:35:58Z</time>
      </trkpt>
      <trkpt lat="42.905883" lon="-2.545427">
        <ele>549.067</ele>
        <time>2022-03-20T12:35:59Z</time>
      </trkpt>
      <trkpt lat="42.905874" lon="-2.545432">
        <ele>549.036</ele>
        <time>2022-03-20T12:36:00Z</time>
      </trkpt>
      <trkpt lat="42.905866" lon="-2.545437">
        <ele>549.294</ele>
        <time>2022-03-20T12:36:01Z</time>
      </trkpt>
      <trkpt lat="42.905859" lon="-2.545442">
        <ele>549.231</ele>
        <time>2022-03-20T12:36:02Z</time>
      </trkpt>
      <trkpt lat="42.90585" lon="-2.545448">
        <ele>549.661</ele>
        <time>2022-03-20T12:36:03Z</time>
      </trkpt>
      <trkpt lat="42.905839" lon="-2.545453">
        <ele>549.607</ele>
        <time>2022-03-20T12:36:04Z</time>
      </trkpt>
      <trkpt lat="42.905829" lon="-2.545455">
        <ele>549.608</ele>
        <time>2022-03-20T12:36:05Z</time>
      </trkpt>
      <trkpt lat="42.90582" lon="-2.545457">
        <ele>549.642</ele>
        <time>2022-03-20T12:36:06Z</time>
      </trkpt>
      <trkpt lat="42.90581" lon="-2.545458">
        <ele>549.690</ele>
        <time>2022-03-20T12:36:07Z</time>
      </trkpt>
      <trkpt lat="42.905801" lon="-2.545458">
        <ele>550.022</ele>
        <time>2022-03-20T12:36:08Z</time>
      </trkpt>
      <trkpt lat="42.905792" lon="-2.545459">
        <ele>550.254</ele>
        <time>2022-03-20T12:36:09Z</time>
      </trkpt>
      <trkpt lat="42.905782" lon="-2.545462">
        <ele>550.412</ele>
        <time>2022-03-20T12:36:10Z</time>
      </trkpt>
      <trkpt lat="42.905773" lon="-2.54547">
        <ele>550.655</ele>
        <time>2022-03-20T12:36:11Z</time>
      </trkpt>
      <trkpt lat="42.905763" lon="-2.545477">
        <ele>550.644</ele>
        <time>2022-03-20T12:36:12Z</time>
      </trkpt>
      <trkpt lat="42.905754" lon="-2.545483">
        <ele>550.632</ele>
        <time>2022-03-20T12:36:13Z</time>
      </trkpt>
      <trkpt lat="42.905745" lon="-2.545488">
        <ele>550.652</ele>
        <time>2022-03-20T12:36:14Z</time>
      </trkpt>
      <trkpt lat="42.905734" lon="-2.545491">
        <ele>550.853</ele>
        <time>2022-03-20T12:36:15Z</time>
      </trkpt>
      <trkpt lat="42.905722" lon="-2.545495">
        <ele>550.808</ele>
        <time>2022-03-20T12:36:16Z</time>
      </trkpt>
      <trkpt lat="42.90571" lon="-2.545497">
        <ele>551.008</ele>
        <time>2022-03-20T12:36:17Z</time>
      </trkpt>
      <trkpt lat="42.905699" lon="-2.5455">
        <ele>551.044</ele>
        <time>2022-03-20T12:36:18Z</time>
      </trkpt>
      <trkpt lat="42.905688" lon="-2.545501">
        <ele>551.092</ele>
        <time>2022-03-20T12:36:19Z</time>
      </trkpt>
      <trkpt lat="42.905677" lon="-2.545502">
        <ele>551.064</ele>
        <time>2022-03-20T12:36:20Z</time>
      </trkpt>
      <trkpt lat="42.905667" lon="-2.545505">
        <ele>551.036</ele>
        <time>2022-03-20T12:36:21Z</time>
      </trkpt>
      <trkpt lat="42.905657" lon="-2.545512">
        <ele>550.894</ele>
        <time>2022-03-20T12:36:22Z</time>
      </trkpt>
      <trkpt lat="42.905649" lon="-2.545517">
        <ele>550.837</ele>
        <time>2022-03-20T12:36:23Z</time>
      </trkpt>
      <trkpt lat="42.90564" lon="-2.545519">
        <ele>550.896</ele>
        <time>2022-03-20T12:36:24Z</time>
      </trkpt>
      <trkpt lat="42.905631" lon="-2.54552">
        <ele>551.024</ele>
        <time>2022-03-20T12:36:25Z</time>
      </trkpt>
      <trkpt lat="42.905619" lon="-2.545521">
        <ele>550.886</ele>
        <time>2022-03-20T12:36:26Z</time>
      </trkpt>
      <trkpt lat="42.905606" lon="-2.545524">
        <ele>551.460</ele>
        <time>2022-03-20T12:36:27Z</time>
      </trkpt>
      <trkpt lat="42.905595" lon="-2.54553">
        <ele>551.426</ele>
        <time>2022-03-20T12:36:28Z</time>
      </trkpt>
      <trkpt lat="42.905588" lon="-2.545539">
        <ele>551.408</ele>
        <time>2022-03-20T12:36:29Z</time>
      </trkpt>
      <trkpt lat="42.905579" lon="-2.54555">
        <ele>550.487</ele>
        <time>2022-03-20T12:36:30Z</time>
      </trkpt>
      <trkpt lat="42.90557" lon="-2.54556">
        <ele>550.475</ele>
        <time>2022-03-20T12:36:31Z</time>
      </trkpt>
      <trkpt lat="42.905561" lon="-2.545571">
        <ele>549.817</ele>
        <time>2022-03-20T12:36:32Z</time>
      </trkpt>
      <trkpt lat="42.905551" lon="-2.545577">
        <ele>549.889</ele>
        <time>2022-03-20T12:36:33Z</time>
      </trkpt>
      <trkpt lat="42.905543" lon="-2.545581">
        <ele>549.857</ele>
        <time>2022-03-20T12:36:34Z</time>
      </trkpt>
      <trkpt lat="42.905534" lon="-2.545587">
        <ele>549.830</ele>
        <time>2022-03-20T12:36:35Z</time>
      </trkpt>
      <trkpt lat="42.905525" lon="-2.545592">
        <ele>549.869</ele>
        <time>2022-03-20T12:36:36Z</time>
      </trkpt>
      <trkpt lat="42.905516" lon="-2.545595">
        <ele>549.877</ele>
        <time>2022-03-20T12:36:37Z</time>
      </trkpt>
      <trkpt lat="42.905508" lon="-2.5456">
        <ele>549.866</ele>
        <time>2022-03-20T12:36:38Z</time>
      </trkpt>
      <trkpt lat="42.905505" lon="-2.545603">
        <ele>549.829</ele>
        <time>2022-03-20T12:36:39Z</time>
      </trkpt>
      <trkpt lat="42.905504" lon="-2.545606">
        <ele>549.821</ele>
        <time>2022-03-20T12:36:40Z</time>
      </trkpt>
      <trkpt lat="42.905504" lon="-2.545608">
        <ele>549.408</ele>
        <time>2022-03-20T12:36:41Z</time>
      </trkpt>
      <trkpt lat="42.905511" lon="-2.545609">
        <ele>549.455</ele>
        <time>2022-03-20T12:36:42Z</time>
      </trkpt>
      <trkpt lat="42.905513" lon="-2.545611">
        <ele>549.233</ele>
        <time>2022-03-20T12:36:43Z</time>
      </trkpt>
      <trkpt lat="42.905518" lon="-2.545613">
        <ele>549.225</ele>
        <time>2022-03-20T12:36:44Z</time>
      </trkpt>
      <trkpt lat="42.905521" lon="-2.545614">
        <ele>549.237</ele>
        <time>2022-03-20T12:36:45Z</time>
      </trkpt>
      <trkpt lat="42.905526" lon="-2.545616">
        <ele>549.265</ele>
        <time>2022-03-20T12:36:46Z</time>
      </trkpt>
      <trkpt lat="42.905528" lon="-2.545615">
        <ele>549.268</ele>
        <time>2022-03-20T12:36:47Z</time>
      </trkpt>
      <trkpt lat="42.905531" lon="-2.545615">
        <ele>549.217</ele>
        <time>2022-03-20T12:36:48Z</time>
      </trkpt>
      <trkpt lat="42.905534" lon="-2.545615">
        <ele>549.275</ele>
        <time>2022-03-20T12:36:49Z</time>
      </trkpt>
      <trkpt lat="42.905533" lon="-2.545614">
        <ele>549.017</ele>
        <time>2022-03-20T12:36:50Z</time>
      </trkpt>
      <trkpt lat="42.905526" lon="-2.545616">
        <ele>549.087</ele>
        <time>2022-03-20T12:36:51Z</time>
      </trkpt>
      <trkpt lat="42.905515" lon="-2.545618">
        <ele>549.015</ele>
        <time>2022-03-20T12:36:52Z</time>
      </trkpt>
      <trkpt lat="42.905506" lon="-2.545622">
        <ele>549.008</ele>
        <time>2022-03-20T12:36:53Z</time>
      </trkpt>
      <trkpt lat="42.905496" lon="-2.545623">
        <ele>549.040</ele>
        <time>2022-03-20T12:36:54Z</time>
      </trkpt>
      <trkpt lat="42.905484" lon="-2.545623">
        <ele>549.098</ele>
        <time>2022-03-20T12:36:55Z</time>
      </trkpt>
      <trkpt lat="42.905473" lon="-2.545624">
        <ele>549.280</ele>
        <time>2022-03-20T12:36:56Z</time>
      </trkpt>
      <trkpt lat="42.905463" lon="-2.545628">
        <ele>549.292</ele>
        <time>2022-03-20T12:36:57Z</time>
      </trkpt>
      <trkpt lat="42.905455" lon="-2.545633">
        <ele>549.410</ele>
        <time>2022-03-20T12:36:58Z</time>
      </trkpt>
      <trkpt lat="42.905446" lon="-2.545637">
        <ele>549.453</ele>
        <time>2022-03-20T12:36:59Z</time>
      </trkpt>
      <trkpt lat="42.905435" lon="-2.545641">
        <ele>549.632</ele>
        <time>2022-03-20T12:37:00Z</time>
      </trkpt>
      <trkpt lat="42.905423" lon="-2.545646">
        <ele>549.680</ele>
        <time>2022-03-20T12:37:01Z</time>
      </trkpt>
      <trkpt lat="42.905412" lon="-2.54565">
        <ele>549.646</ele>
        <time>2022-03-20T12:37:02Z</time>
      </trkpt>
      <trkpt lat="42.9054" lon="-2.545654">
        <ele>549.688</ele>
        <time>2022-03-20T12:37:03Z</time>
      </trkpt>
      <trkpt lat="42.905389" lon="-2.545657">
        <ele>549.616</ele>
        <time>2022-03-20T12:37:04Z</time>
      </trkpt>
      <trkpt lat="42.905379" lon="-2.545665">
        <ele>549.608</ele>
        <time>2022-03-20T12:37:05Z</time>
      </trkpt>
      <trkpt lat="42.905368" lon="-2.54567">
        <ele>549.663</ele>
        <time>2022-03-20T12:37:06Z</time>
      </trkpt>
      <trkpt lat="42.905357" lon="-2.545674">
        <ele>549.661</ele>
        <time>2022-03-20T12:37:07Z</time>
      </trkpt>
      <trkpt lat="42.905346" lon="-2.54568">
        <ele>549.413</ele>
        <time>2022-03-20T12:37:08Z</time>
      </trkpt>
      <trkpt lat="42.905335" lon="-2.545683">
        <ele>549.445</ele>
        <time>2022-03-20T12:37:09Z</time>
      </trkpt>
      <trkpt lat="42.905324" lon="-2.545686">
        <ele>549.483</ele>
        <time>2022-03-20T12:37:10Z</time>
      </trkpt>
      <trkpt lat="42.905314" lon="-2.545687">
        <ele>549.416</ele>
        <time>2022-03-20T12:37:11Z</time>
      </trkpt>
      <trkpt lat="42.905303" lon="-2.545687">
        <ele>549.485</ele>
        <time>2022-03-20T12:37:12Z</time>
      </trkpt>
      <trkpt lat="42.905293" lon="-2.545689">
        <ele>548.853</ele>
        <time>2022-03-20T12:37:13Z</time>
      </trkpt>
      <trkpt lat="42.905282" lon="-2.545689">
        <ele>548.815</ele>
        <time>2022-03-20T12:37:14Z</time>
      </trkpt>
      <trkpt lat="42.905271" lon="-2.545689">
        <ele>548.865</ele>
        <time>2022-03-20T12:37:15Z</time>
      </trkpt>
      <trkpt lat="42.90526" lon="-2.545692">
        <ele>548.811</ele>
        <time>2022-03-20T12:37:16Z</time>
      </trkpt>
      <trkpt lat="42.905249" lon="-2.545695">
        <ele>548.808</ele>
        <time>2022-03-20T12:37:17Z</time>
      </trkpt>
      <trkpt lat="42.905239" lon="-2.545701">
        <ele>548.810</ele>
        <time>2022-03-20T12:37:18Z</time>
      </trkpt>
      <trkpt lat="42.90523" lon="-2.545701">
        <ele>548.688</ele>
        <time>2022-03-20T12:37:19Z</time>
      </trkpt>
      <trkpt lat="42.90522" lon="-2.545699">
        <ele>548.640</ele>
        <time>2022-03-20T12:37:20Z</time>
      </trkpt>
      <trkpt lat="42.905209" lon="-2.545699">
        <ele>548.472</ele>
        <time>2022-03-20T12:37:21Z</time>
      </trkpt>
      <trkpt lat="42.905196" lon="-2.545698">
        <ele>548.450</ele>
        <time>2022-03-20T12:37:22Z</time>
      </trkpt>
      <trkpt lat="42.905185" lon="-2.545699">
        <ele>548.453</ele>
        <time>2022-03-20T12:37:23Z</time>
      </trkpt>
      <trkpt lat="42.905175" lon="-2.545704">
        <ele>548.412</ele>
        <time>2022-03-20T12:37:24Z</time>
      </trkpt>
      <trkpt lat="42.905167" lon="-2.545709">
        <ele>548.490</ele>
        <time>2022-03-20T12:37:25Z</time>
      </trkpt>
      <trkpt lat="42.905158" lon="-2.545711">
        <ele>548.863</ele>
        <time>2022-03-20T12:37:26Z</time>
      </trkpt>
      <trkpt lat="42.90515" lon="-2.545718">
        <ele>548.844</ele>
        <time>2022-03-20T12:37:27Z</time>
      </trkpt>
      <trkpt lat="42.905141" lon="-2.545722">
        <ele>549.018</ele>
        <time>2022-03-20T12:37:28Z</time>
      </trkpt>
      <trkpt lat="42.905132" lon="-2.545724">
        <ele>549.008</ele>
        <time>2022-03-20T12:37:29Z</time>
      </trkpt>
      <trkpt lat="42.905123" lon="-2.545727">
        <ele>549.245</ele>
        <time>2022-03-20T12:37:30Z</time>
      </trkpt>
      <trkpt lat="42.905113" lon="-2.54573">
        <ele>549.263</ele>
        <time>2022-03-20T12:37:31Z</time>
      </trkpt>
      <trkpt lat="42.905102" lon="-2.545733">
        <ele>549.245</ele>
        <time>2022-03-20T12:37:32Z</time>
      </trkpt>
      <trkpt lat="42.905094" lon="-2.545734">
        <ele>549.497</ele>
        <time>2022-03-20T12:37:33Z</time>
      </trkpt>
      <trkpt lat="42.905084" lon="-2.545737">
        <ele>549.495</ele>
        <time>2022-03-20T12:37:34Z</time>
      </trkpt>
      <trkpt lat="42.905073" lon="-2.54574">
        <ele>549.618</ele>
        <time>2022-03-20T12:37:35Z</time>
      </trkpt>
      <trkpt lat="42.905063" lon="-2.545745">
        <ele>549.687</ele>
        <time>2022-03-20T12:37:36Z</time>
      </trkpt>
      <trkpt lat="42.905053" lon="-2.54575">
        <ele>549.415</ele>
        <time>2022-03-20T12:37:37Z</time>
      </trkpt>
      <trkpt lat="42.905044" lon="-2.545752">
        <ele>549.411</ele>
        <time>2022-03-20T12:37:38Z</time>
      </trkpt>
      <trkpt lat="42.905036" lon="-2.545754">
        <ele>549.421</ele>
        <time>2022-03-20T12:37:39Z</time>
      </trkpt>
      <trkpt lat="42.905025" lon="-2.545754">
        <ele>549.403</ele>
        <time>2022-03-20T12:37:40Z</time>
      </trkpt>
      <trkpt lat="42.905016" lon="-2.545757">
        <ele>549.408</ele>
        <time>2022-03-20T12:37:41Z</time>
      </trkpt>
      <trkpt lat="42.905007" lon="-2.54576">
        <ele>549.250</ele>
        <time>2022-03-20T12:37:42Z</time>
      </trkpt>
      <trkpt lat="42.904996" lon="-2.545763">
        <ele>549.268</ele>
        <time>2022-03-20T12:37:43Z</time>
      </trkpt>
      <trkpt lat="42.904988" lon="-2.545763">
        <ele>549.220</ele>
        <time>2022-03-20T12:37:44Z</time>
      </trkpt>
      <trkpt lat="42.904977" lon="-2.545767">
        <ele>549.282</ele>
        <time>2022-03-20T12:37:45Z</time>
      </trkpt>
      <trkpt lat="42.904969" lon="-2.545771">
        <ele>549.280</ele>
        <time>2022-03-20T12:37:46Z</time>
      </trkpt>
      <trkpt lat="42.90496" lon="-2.545776">
        <ele>548.633</ele>
        <time>2022-03-20T12:37:47Z</time>
      </trkpt>
      <trkpt lat="42.904952" lon="-2.545781">
        <ele>548.622</ele>
        <time>2022-03-20T12:37:48Z</time>
      </trkpt>
      <trkpt lat="42.904942" lon="-2.545787">
        <ele>548.820</ele>
        <time>2022-03-20T12:37:49Z</time>
      </trkpt>
      <trkpt lat="42.904935" lon="-2.545796">
        <ele>548.894</ele>
        <time>2022-03-20T12:37:50Z</time>
      </trkpt>
      <trkpt lat="42.904928" lon="-2.545805">
        <ele>548.457</ele>
        <time>2022-03-20T12:37:51Z</time>
      </trkpt>
      <trkpt lat="42.90492" lon="-2.545812">
        <ele>548.022</ele>
        <time>2022-03-20T12:37:52Z</time>
      </trkpt>
      <trkpt lat="42.904911" lon="-2.545819">
        <ele>548.008</ele>
        <time>2022-03-20T12:37:53Z</time>
      </trkpt>
      <trkpt lat="42.904902" lon="-2.545825">
        <ele>548.818</ele>
        <time>2022-03-20T12:37:54Z</time>
      </trkpt>
      <trkpt lat="42.904893" lon="-2.545831">
        <ele>548.866</ele>
        <time>2022-03-20T12:37:55Z</time>
      </trkpt>
      <trkpt lat="42.904883" lon="-2.545838">
        <ele>549.278</ele>
        <time>2022-03-20T12:37:56Z</time>
      </trkpt>
      <trkpt lat="42.904874" lon="-2.545844">
        <ele>549.270</ele>
        <time>2022-03-20T12:37:57Z</time>
      </trkpt>
      <trkpt lat="42.904865" lon="-2.54585">
        <ele>549.228</ele>
        <time>2022-03-20T12:37:58Z</time>
      </trkpt>
      <trkpt lat="42.904855" lon="-2.545857">
        <ele>549.251</ele>
        <time>2022-03-20T12:37:59Z</time>
      </trkpt>
      <trkpt lat="42.904845" lon="-2.545864">
        <ele>549.280</ele>
        <time>2022-03-20T12:38:00Z</time>
      </trkpt>
      <trkpt lat="42.904836" lon="-2.54587">
        <ele>549.048</ele>
        <time>2022-03-20T12:38:01Z</time>
      </trkpt>
      <trkpt lat="42.904828" lon="-2.545876">
        <ele>549.032</ele>
        <time>2022-03-20T12:38:02Z</time>
      </trkpt>
      <trkpt lat="42.90482" lon="-2.545884">
        <ele>549.092</ele>
        <time>2022-03-20T12:38:03Z</time>
      </trkpt>
      <trkpt lat="42.904811" lon="-2.545893">
        <ele>549.211</ele>
        <time>2022-03-20T12:38:04Z</time>
      </trkpt>
      <trkpt lat="42.904803" lon="-2.545903">
        <ele>549.208</ele>
        <time>2022-03-20T12:38:05Z</time>
      </trkpt>
      <trkpt lat="42.904797" lon="-2.545914">
        <ele>549.472</ele>
        <time>2022-03-20T12:38:06Z</time>
      </trkpt>
      <trkpt lat="42.904791" lon="-2.545923">
        <ele>549.620</ele>
        <time>2022-03-20T12:38:07Z</time>
      </trkpt>
      <trkpt lat="42.904786" lon="-2.545936">
        <ele>550.052</ele>
        <time>2022-03-20T12:38:08Z</time>
      </trkpt>
      <trkpt lat="42.904782" lon="-2.545951">
        <ele>550.094</ele>
        <time>2022-03-20T12:38:09Z</time>
      </trkpt>
      <trkpt lat="42.90478" lon="-2.545961">
        <ele>550.052</ele>
        <time>2022-03-20T12:38:10Z</time>
      </trkpt>
      <trkpt lat="42.904776" lon="-2.545972">
        <ele>550.075</ele>
        <time>2022-03-20T12:38:11Z</time>
      </trkpt>
      <trkpt lat="42.90477" lon="-2.545984">
        <ele>550.034</ele>
        <time>2022-03-20T12:38:12Z</time>
      </trkpt>
      <trkpt lat="42.904764" lon="-2.545996">
        <ele>550.022</ele>
        <time>2022-03-20T12:38:13Z</time>
      </trkpt>
      <trkpt lat="42.904759" lon="-2.546006">
        <ele>550.081</ele>
        <time>2022-03-20T12:38:14Z</time>
      </trkpt>
      <trkpt lat="42.904752" lon="-2.546017">
        <ele>550.461</ele>
        <time>2022-03-20T12:38:15Z</time>
      </trkpt>
      <trkpt lat="42.904746" lon="-2.546028">
        <ele>550.817</ele>
        <time>2022-03-20T12:38:16Z</time>
      </trkpt>
      <trkpt lat="42.90474" lon="-2.546039">
        <ele>550.808</ele>
        <time>2022-03-20T12:38:17Z</time>
      </trkpt>
      <trkpt lat="42.904734" lon="-2.546053">
        <ele>550.897</ele>
        <time>2022-03-20T12:38:18Z</time>
      </trkpt>
      <trkpt lat="42.904729" lon="-2.546068">
        <ele>550.825</ele>
        <time>2022-03-20T12:38:19Z</time>
      </trkpt>
      <trkpt lat="42.904726" lon="-2.546081">
        <ele>551.057</ele>
        <time>2022-03-20T12:38:20Z</time>
      </trkpt>
      <trkpt lat="42.904723" lon="-2.546094">
        <ele>551.019</ele>
        <time>2022-03-20T12:38:21Z</time>
      </trkpt>
      <trkpt lat="42.904723" lon="-2.546106">
        <ele>551.077</ele>
        <time>2022-03-20T12:38:22Z</time>
      </trkpt>
      <trkpt lat="42.904726" lon="-2.546118">
        <ele>551.090</ele>
        <time>2022-03-20T12:38:23Z</time>
      </trkpt>
      <trkpt lat="42.904728" lon="-2.546132">
        <ele>551.299</ele>
        <time>2022-03-20T12:38:24Z</time>
      </trkpt>
      <trkpt lat="42.904729" lon="-2.546144">
        <ele>551.477</ele>
        <time>2022-03-20T12:38:25Z</time>
      </trkpt>
      <trkpt lat="42.904729" lon="-2.546159">
        <ele>551.451</ele>
        <time>2022-03-20T12:38:26Z</time>
      </trkpt>
      <trkpt lat="42.904728" lon="-2.546171">
        <ele>551.401</ele>
        <time>2022-03-20T12:38:27Z</time>
      </trkpt>
      <trkpt lat="42.904729" lon="-2.546184">
        <ele>551.411</ele>
        <time>2022-03-20T12:38:28Z</time>
      </trkpt>
      <trkpt lat="42.90473" lon="-2.546199">
        <ele>551.208</ele>
        <time>2022-03-20T12:38:29Z</time>
      </trkpt>
      <trkpt lat="42.90473" lon="-2.546213">
        <ele>551.254</ele>
        <time>2022-03-20T12:38:30Z</time>
      </trkpt>
      <trkpt lat="42.904731" lon="-2.546227">
        <ele>551.252</ele>
        <time>2022-03-20T12:38:31Z</time>
      </trkpt>
      <trkpt lat="42.904731" lon="-2.54624">
        <ele>551.054</ele>
        <time>2022-03-20T12:38:32Z</time>
      </trkpt>
      <trkpt lat="42.904732" lon="-2.546254">
        <ele>551.246</ele>
        <time>2022-03-20T12:38:33Z</time>
      </trkpt>
      <trkpt lat="42.904731" lon="-2.546266">
        <ele>551.214</ele>
        <time>2022-03-20T12:38:34Z</time>
      </trkpt>
      <trkpt lat="42.904731" lon="-2.54628">
        <ele>551.487</ele>
        <time>2022-03-20T12:38:35Z</time>
      </trkpt>
      <trkpt lat="42.904733" lon="-2.546293">
        <ele>551.696</ele>
        <time>2022-03-20T12:38:36Z</time>
      </trkpt>
      <trkpt lat="42.904733" lon="-2.546306">
        <ele>551.634</ele>
        <time>2022-03-20T12:38:37Z</time>
      </trkpt>
      <trkpt lat="42.904736" lon="-2.546319">
        <ele>551.459</ele>
        <time>2022-03-20T12:38:38Z</time>
      </trkpt>
      <trkpt lat="42.904739" lon="-2.546331">
        <ele>551.603</ele>
        <time>2022-03-20T12:38:39Z</time>
      </trkpt>
      <trkpt lat="42.904744" lon="-2.546341">
        <ele>551.623</ele>
        <time>2022-03-20T12:38:40Z</time>
      </trkpt>
      <trkpt lat="42.904747" lon="-2.546353">
        <ele>551.608</ele>
        <time>2022-03-20T12:38:41Z</time>
      </trkpt>
      <trkpt lat="42.904752" lon="-2.546362">
        <ele>551.884</ele>
        <time>2022-03-20T12:38:42Z</time>
      </trkpt>
      <trkpt lat="42.904754" lon="-2.546372">
        <ele>551.872</ele>
        <time>2022-03-20T12:38:43Z</time>
      </trkpt>
      <trkpt lat="42.904754" lon="-2.546385">
        <ele>551.894</ele>
        <time>2022-03-20T12:38:44Z</time>
      </trkpt>
      <trkpt lat="42.904758" lon="-2.546397">
        <ele>552.016</ele>
        <time>2022-03-20T12:38:45Z</time>
      </trkpt>
      <trkpt lat="42.904764" lon="-2.546408">
        <ele>552.064</ele>
        <time>2022-03-20T12:38:46Z</time>
      </trkpt>
      <trkpt lat="42.904769" lon="-2.546422">
        <ele>552.057</ele>
        <time>2022-03-20T12:38:47Z</time>
      </trkpt>
      <trkpt lat="42.904774" lon="-2.546432">
        <ele>552.046</ele>
        <time>2022-03-20T12:38:48Z</time>
      </trkpt>
      <trkpt lat="42.904778" lon="-2.546443">
        <ele>552.074</ele>
        <time>2022-03-20T12:38:49Z</time>
      </trkpt>
      <trkpt lat="42.904782" lon="-2.546455">
        <ele>552.023</ele>
        <time>2022-03-20T12:38:50Z</time>
      </trkpt>
      <trkpt lat="42.904786" lon="-2.546465">
        <ele>552.083</ele>
        <time>2022-03-20T12:38:51Z</time>
      </trkpt>
      <trkpt lat="42.904789" lon="-2.546477">
        <ele>552.011</ele>
        <time>2022-03-20T12:38:52Z</time>
      </trkpt>
      <trkpt lat="42.904791" lon="-2.546491">
        <ele>552.008</ele>
        <time>2022-03-20T12:38:53Z</time>
      </trkpt>
      <trkpt lat="42.904794" lon="-2.546506">
        <ele>552.081</ele>
        <time>2022-03-20T12:38:54Z</time>
      </trkpt>
      <trkpt lat="42.904799" lon="-2.546518">
        <ele>552.019</ele>
        <time>2022-03-20T12:38:55Z</time>
      </trkpt>
      <trkpt lat="42.904804" lon="-2.546531">
        <ele>552.061</ele>
        <time>2022-03-20T12:38:56Z</time>
      </trkpt>
      <trkpt lat="42.904807" lon="-2.546546">
        <ele>552.053</ele>
        <time>2022-03-20T12:38:57Z</time>
      </trkpt>
      <trkpt lat="42.904812" lon="-2.546561">
        <ele>552.281</ele>
        <time>2022-03-20T12:38:58Z</time>
      </trkpt>
      <trkpt lat="42.904816" lon="-2.546574">
        <ele>552.274</ele>
        <time>2022-03-20T12:38:59Z</time>
      </trkpt>
      <trkpt lat="42.90482" lon="-2.546585">
        <ele>552.253</ele>
        <time>2022-03-20T12:39:00Z</time>
      </trkpt>
      <trkpt lat="42.904825" lon="-2.5466">
        <ele>552.261</ele>
        <time>2022-03-20T12:39:01Z</time>
      </trkpt>
      <trkpt lat="42.904831" lon="-2.546612">
        <ele>552.227</ele>
        <time>2022-03-20T12:39:02Z</time>
      </trkpt>
      <trkpt lat="42.904834" lon="-2.546626">
        <ele>552.268</ele>
        <time>2022-03-20T12:39:03Z</time>
      </trkpt>
      <trkpt lat="42.904838" lon="-2.546637">
        <ele>552.014</ele>
        <time>2022-03-20T12:39:04Z</time>
      </trkpt>
      <trkpt lat="42.904842" lon="-2.546648">
        <ele>552.008</ele>
        <time>2022-03-20T12:39:05Z</time>
      </trkpt>
      <trkpt lat="42.904846" lon="-2.546659">
        <ele>552.061</ele>
        <time>2022-03-20T12:39:06Z</time>
      </trkpt>
      <trkpt lat="42.904851" lon="-2.546671">
        <ele>552.099</ele>
        <time>2022-03-20T12:39:07Z</time>
      </trkpt>
      <trkpt lat="42.904856" lon="-2.546683">
        <ele>552.031</ele>
        <time>2022-03-20T12:39:08Z</time>
      </trkpt>
      <trkpt lat="42.90486" lon="-2.546696">
        <ele>552.013</ele>
        <time>2022-03-20T12:39:09Z</time>
      </trkpt>
      <trkpt lat="42.904864" lon="-2.546709">
        <ele>552.221</ele>
        <time>2022-03-20T12:39:10Z</time>
      </trkpt>
      <trkpt lat="42.904868" lon="-2.546722">
        <ele>552.244</ele>
        <time>2022-03-20T12:39:11Z</time>
      </trkpt>
      <trkpt lat="42.904871" lon="-2.546735">
        <ele>552.283</ele>
        <time>2022-03-20T12:39:12Z</time>
      </trkpt>
      <trkpt lat="42.904875" lon="-2.546747">
        <ele>552.261</ele>
        <time>2022-03-20T12:39:13Z</time>
      </trkpt>
      <trkpt lat="42.904879" lon="-2.546757">
        <ele>552.217</ele>
        <time>2022-03-20T12:39:14Z</time>
      </trkpt>
      <trkpt lat="42.904882" lon="-2.546768">
        <ele>552.287</ele>
        <time>2022-03-20T12:39:15Z</time>
      </trkpt>
      <trkpt lat="42.904883" lon="-2.546782">
        <ele>552.215</ele>
        <time>2022-03-20T12:39:16Z</time>
      </trkpt>
      <trkpt lat="42.904884" lon="-2.546796">
        <ele>551.808</ele>
        <time>2022-03-20T12:39:17Z</time>
      </trkpt>
      <trkpt lat="42.904884" lon="-2.546809">
        <ele>551.820</ele>
        <time>2022-03-20T12:39:18Z</time>
      </trkpt>
      <trkpt lat="42.904886" lon="-2.546823">
        <ele>551.888</ele>
        <time>2022-03-20T12:39:19Z</time>
      </trkpt>
      <trkpt lat="42.904889" lon="-2.546837">
        <ele>551.840</ele>
        <time>2022-03-20T12:39:20Z</time>
      </trkpt>
      <trkpt lat="42.904891" lon="-2.546848">
        <ele>551.872</ele>
        <time>2022-03-20T12:39:21Z</time>
      </trkpt>
      <trkpt lat="42.904895" lon="-2.546859">
        <ele>551.870</ele>
        <time>2022-03-20T12:39:22Z</time>
      </trkpt>
      <trkpt lat="42.904895" lon="-2.546872">
        <ele>551.853</ele>
        <time>2022-03-20T12:39:23Z</time>
      </trkpt>
      <trkpt lat="42.904897" lon="-2.546883">
        <ele>551.852</ele>
        <time>2022-03-20T12:39:24Z</time>
      </trkpt>
      <trkpt lat="42.904896" lon="-2.546895">
        <ele>551.890</ele>
        <time>2022-03-20T12:39:25Z</time>
      </trkpt>
      <trkpt lat="42.904895" lon="-2.546908">
        <ele>552.062</ele>
        <time>2022-03-20T12:39:26Z</time>
      </trkpt>
      <trkpt lat="42.904894" lon="-2.54692">
        <ele>551.883</ele>
        <time>2022-03-20T12:39:27Z</time>
      </trkpt>
      <trkpt lat="42.904894" lon="-2.546934">
        <ele>552.011</ele>
        <time>2022-03-20T12:39:28Z</time>
      </trkpt>
      <trkpt lat="42.904892" lon="-2.546945">
        <ele>552.008</ele>
        <time>2022-03-20T12:39:29Z</time>
      </trkpt>
      <trkpt lat="42.904891" lon="-2.546956">
        <ele>552.045</ele>
        <time>2022-03-20T12:39:30Z</time>
      </trkpt>
      <trkpt lat="42.904891" lon="-2.54697">
        <ele>552.063</ele>
        <time>2022-03-20T12:39:31Z</time>
      </trkpt>
      <trkpt lat="42.904891" lon="-2.546983">
        <ele>552.095</ele>
        <time>2022-03-20T12:39:32Z</time>
      </trkpt>
      <trkpt lat="42.90489" lon="-2.546993">
        <ele>552.287</ele>
        <time>2022-03-20T12:39:33Z</time>
      </trkpt>
      <trkpt lat="42.904887" lon="-2.547003">
        <ele>552.255</ele>
        <time>2022-03-20T12:39:34Z</time>
      </trkpt>
      <trkpt lat="42.904884" lon="-2.547014">
        <ele>552.268</ele>
        <time>2022-03-20T12:39:35Z</time>
      </trkpt>
      <trkpt lat="42.90488" lon="-2.547024">
        <ele>552.427</ele>
        <time>2022-03-20T12:39:36Z</time>
      </trkpt>
      <trkpt lat="42.904876" lon="-2.547036">
        <ele>552.455</ele>
        <time>2022-03-20T12:39:37Z</time>
      </trkpt>
      <trkpt lat="42.904873" lon="-2.547048">
        <ele>552.854</ele>
        <time>2022-03-20T12:39:38Z</time>
      </trkpt>
      <trkpt lat="42.904871" lon="-2.54706">
        <ele>552.856</ele>
        <time>2022-03-20T12:39:39Z</time>
      </trkpt>
      <trkpt lat="42.904868" lon="-2.547073">
        <ele>552.811</ele>
        <time>2022-03-20T12:39:40Z</time>
      </trkpt>
      <trkpt lat="42.904866" lon="-2.547086">
        <ele>552.808</ele>
        <time>2022-03-20T12:39:41Z</time>
      </trkpt>
      <trkpt lat="42.904861" lon="-2.547094">
        <ele>553.044</ele>
        <time>2022-03-20T12:39:42Z</time>
      </trkpt>
      <trkpt lat="42.904856" lon="-2.547101">
        <ele>553.052</ele>
        <time>2022-03-20T12:39:43Z</time>
      </trkpt>
      <trkpt lat="42.904851" lon="-2.547108">
        <ele>553.294</ele>
        <time>2022-03-20T12:39:44Z</time>
      </trkpt>
      <trkpt lat="42.904845" lon="-2.547115">
        <ele>553.296</ele>
        <time>2022-03-20T12:39:45Z</time>
      </trkpt>
      <trkpt lat="42.904838" lon="-2.547123">
        <ele>553.224</ele>
        <time>2022-03-20T12:39:46Z</time>
      </trkpt>
      <trkpt lat="42.904833" lon="-2.547132">
        <ele>553.417</ele>
        <time>2022-03-20T12:39:47Z</time>
      </trkpt>
      <trkpt lat="42.904827" lon="-2.547143">
        <ele>553.486</ele>
        <time>2022-03-20T12:39:48Z</time>
      </trkpt>
      <trkpt lat="42.904822" lon="-2.547154">
        <ele>553.484</ele>
        <time>2022-03-20T12:39:49Z</time>
      </trkpt>
      <trkpt lat="42.904816" lon="-2.547163">
        <ele>553.666</ele>
        <time>2022-03-20T12:39:50Z</time>
      </trkpt>
      <trkpt lat="42.904809" lon="-2.547172">
        <ele>553.629</ele>
        <time>2022-03-20T12:39:51Z</time>
      </trkpt>
      <trkpt lat="42.904802" lon="-2.547179">
        <ele>554.621</ele>
        <time>2022-03-20T12:39:52Z</time>
      </trkpt>
      <trkpt lat="42.904794" lon="-2.547184">
        <ele>554.608</ele>
        <time>2022-03-20T12:39:53Z</time>
      </trkpt>
      <trkpt lat="42.904786" lon="-2.54719">
        <ele>554.815</ele>
        <time>2022-03-20T12:39:54Z</time>
      </trkpt>
      <trkpt lat="42.90478" lon="-2.5472">
        <ele>554.893</ele>
        <time>2022-03-20T12:39:55Z</time>
      </trkpt>
      <trkpt lat="42.904774" lon="-2.547207">
        <ele>554.865</ele>
        <time>2022-03-20T12:39:56Z</time>
      </trkpt>
      <trkpt lat="42.904766" lon="-2.547214">
        <ele>554.857</ele>
        <time>2022-03-20T12:39:57Z</time>
      </trkpt>
      <trkpt lat="42.904759" lon="-2.547222">
        <ele>554.835</ele>
        <time>2022-03-20T12:39:58Z</time>
      </trkpt>
      <trkpt lat="42.904752" lon="-2.54723">
        <ele>554.418</ele>
        <time>2022-03-20T12:39:59Z</time>
      </trkpt>
      <trkpt lat="42.904746" lon="-2.547239">
        <ele>554.457</ele>
        <time>2022-03-20T12:40:00Z</time>
      </trkpt>
      <trkpt lat="42.904738" lon="-2.547245">
        <ele>554.485</ele>
        <time>2022-03-20T12:40:01Z</time>
      </trkpt>
      <trkpt lat="42.904732" lon="-2.547254">
        <ele>554.446</ele>
        <time>2022-03-20T12:40:02Z</time>
      </trkpt>
      <trkpt lat="42.904723" lon="-2.547262">
        <ele>554.288</ele>
        <time>2022-03-20T12:40:03Z</time>
      </trkpt>
      <trkpt lat="42.904716" lon="-2.547272">
        <ele>554.016</ele>
        <time>2022-03-20T12:40:04Z</time>
      </trkpt>
      <trkpt lat="42.904709" lon="-2.547282">
        <ele>554.008</ele>
        <time>2022-03-20T12:40:05Z</time>
      </trkpt>
      <trkpt lat="42.9047" lon="-2.547291">
        <ele>554.053</ele>
        <time>2022-03-20T12:40:06Z</time>
      </trkpt>
      <trkpt lat="42.904693" lon="-2.547301">
        <ele>554.011</ele>
        <time>2022-03-20T12:40:07Z</time>
      </trkpt>
      <trkpt lat="42.904686" lon="-2.547311">
        <ele>554.033</ele>
        <time>2022-03-20T12:40:08Z</time>
      </trkpt>
      <trkpt lat="42.904677" lon="-2.54732">
        <ele>554.085</ele>
        <time>2022-03-20T12:40:09Z</time>
      </trkpt>
      <trkpt lat="42.904668" lon="-2.547326">
        <ele>554.283</ele>
        <time>2022-03-20T12:40:10Z</time>
      </trkpt>
      <trkpt lat="42.90466" lon="-2.547332">
        <ele>554.466</ele>
        <time>2022-03-20T12:40:11Z</time>
      </trkpt>
      <trkpt lat="42.904652" lon="-2.547335">
        <ele>554.695</ele>
        <time>2022-03-20T12:40:12Z</time>
      </trkpt>
      <trkpt lat="42.904643" lon="-2.547338">
        <ele>554.633</ele>
        <time>2022-03-20T12:40:13Z</time>
      </trkpt>
      <trkpt lat="42.904634" lon="-2.547341">
        <ele>554.867</ele>
        <time>2022-03-20T12:40:14Z</time>
      </trkpt>
      <trkpt lat="42.904626" lon="-2.547343">
        <ele>554.881</ele>
        <time>2022-03-20T12:40:15Z</time>
      </trkpt>
      <trkpt lat="42.904618" lon="-2.547346">
        <ele>555.219</ele>
        <time>2022-03-20T12:40:16Z</time>
      </trkpt>
      <trkpt lat="42.904611" lon="-2.547351">
        <ele>555.408</ele>
        <time>2022-03-20T12:40:17Z</time>
      </trkpt>
      <trkpt lat="42.904602" lon="-2.547354">
        <ele>555.425</ele>
        <time>2022-03-20T12:40:18Z</time>
      </trkpt>
      <trkpt lat="42.904593" lon="-2.547356">
        <ele>556.293</ele>
        <time>2022-03-20T12:40:19Z</time>
      </trkpt>
      <trkpt lat="42.904585" lon="-2.547363">
        <ele>556.255</ele>
        <time>2022-03-20T12:40:20Z</time>
      </trkpt>
      <trkpt lat="42.904576" lon="-2.547372">
        <ele>556.267</ele>
        <time>2022-03-20T12:40:21Z</time>
      </trkpt>
      <trkpt lat="42.904571" lon="-2.547382">
        <ele>556.235</ele>
        <time>2022-03-20T12:40:22Z</time>
      </trkpt>
      <trkpt lat="42.904567" lon="-2.547393">
        <ele>556.218</ele>
        <time>2022-03-20T12:40:23Z</time>
      </trkpt>
      <trkpt lat="42.904563" lon="-2.547404">
        <ele>556.427</ele>
        <time>2022-03-20T12:40:24Z</time>
      </trkpt>
      <trkpt lat="42.904558" lon="-2.547413">
        <ele>556.835</ele>
        <time>2022-03-20T12:40:25Z</time>
      </trkpt>
      <trkpt lat="42.904553" lon="-2.547422">
        <ele>556.824</ele>
        <time>2022-03-20T12:40:26Z</time>
      </trkpt>
      <trkpt lat="42.904548" lon="-2.547433">
        <ele>557.004</ele>
        <time>2022-03-20T12:40:27Z</time>
      </trkpt>
      <trkpt lat="42.904542" lon="-2.547447">
        <ele>557.014</ele>
        <time>2022-03-20T12:40:28Z</time>
      </trkpt>
      <trkpt lat="42.904538" lon="-2.547458">
        <ele>557.008</ele>
        <time>2022-03-20T12:40:29Z</time>
      </trkpt>
      <trkpt lat="42.904533" lon="-2.547469">
        <ele>557.091</ele>
        <time>2022-03-20T12:40:30Z</time>
      </trkpt>
      <trkpt lat="42.90453" lon="-2.54748">
        <ele>557.649</ele>
        <time>2022-03-20T12:40:31Z</time>
      </trkpt>
      <trkpt lat="42.904527" lon="-2.547494">
        <ele>557.681</ele>
        <time>2022-03-20T12:40:32Z</time>
      </trkpt>
      <trkpt lat="42.904525" lon="-2.547508">
        <ele>558.013</ele>
        <time>2022-03-20T12:40:33Z</time>
      </trkpt>
      <trkpt lat="42.904525" lon="-2.547521">
        <ele>558.021</ele>
        <time>2022-03-20T12:40:34Z</time>
      </trkpt>
      <trkpt lat="42.904524" lon="-2.547531">
        <ele>558.034</ele>
        <time>2022-03-20T12:40:35Z</time>
      </trkpt>
      <trkpt lat="42.904521" lon="-2.547539">
        <ele>558.063</ele>
        <time>2022-03-20T12:40:36Z</time>
      </trkpt>
      <trkpt lat="42.904518" lon="-2.547544">
        <ele>558.041</ele>
        <time>2022-03-20T12:40:37Z</time>
      </trkpt>
      <trkpt lat="42.904514" lon="-2.547552">
        <ele>558.094</ele>
        <time>2022-03-20T12:40:38Z</time>
      </trkpt>
      <trkpt lat="42.904506" lon="-2.54756">
        <ele>557.857</ele>
        <time>2022-03-20T12:40:39Z</time>
      </trkpt>
      <trkpt lat="42.9045" lon="-2.54757">
        <ele>557.622</ele>
        <time>2022-03-20T12:40:40Z</time>
      </trkpt>
      <trkpt lat="42.904494" lon="-2.54758">
        <ele>557.408</ele>
        <time>2022-03-20T12:40:41Z</time>
      </trkpt>
      <trkpt lat="42.904489" lon="-2.547592">
        <ele>557.438</ele>
        <time>2022-03-20T12:40:42Z</time>
      </trkpt>
      <trkpt lat="42.904486" lon="-2.547605">
        <ele>557.446</ele>
        <time>2022-03-20T12:40:43Z</time>
      </trkpt>
      <trkpt lat="42.904483" lon="-2.547617">
        <ele>557.668</ele>
        <time>2022-03-20T12:40:44Z</time>
      </trkpt>
      <trkpt lat="42.90448" lon="-2.54763">
        <ele>557.810</ele>
        <time>2022-03-20T12:40:45Z</time>
      </trkpt>
      <trkpt lat="42.904474" lon="-2.54764">
        <ele>557.868</ele>
        <time>2022-03-20T12:40:46Z</time>
      </trkpt>
      <trkpt lat="42.904468" lon="-2.54765">
        <ele>557.881</ele>
        <time>2022-03-20T12:40:47Z</time>
      </trkpt>
      <trkpt lat="42.904464" lon="-2.547662">
        <ele>558.020</ele>
        <time>2022-03-20T12:40:48Z</time>
      </trkpt>
      <trkpt lat="42.904461" lon="-2.547676">
        <ele>558.098</ele>
        <time>2022-03-20T12:40:49Z</time>
      </trkpt>
      <trkpt lat="42.904456" lon="-2.547689">
        <ele>558.052</ele>
        <time>2022-03-20T12:40:50Z</time>
      </trkpt>
      <trkpt lat="42.904451" lon="-2.5477">
        <ele>559.053</ele>
        <time>2022-03-20T12:40:51Z</time>
      </trkpt>
      <trkpt lat="42.904445" lon="-2.547711">
        <ele>559.408</ele>
        <time>2022-03-20T12:40:52Z</time>
      </trkpt>
      <trkpt lat="42.90444" lon="-2.547723">
        <ele>560.008</ele>
        <time>2022-03-20T12:40:53Z</time>
      </trkpt>
      <trkpt lat="42.904436" lon="-2.547735">
        <ele>560.274</ele>
        <time>2022-03-20T12:40:54Z</time>
      </trkpt>
      <trkpt lat="42.904433" lon="-2.547745">
        <ele>560.222</ele>
        <time>2022-03-20T12:40:55Z</time>
      </trkpt>
      <trkpt lat="42.904432" lon="-2.547758">
        <ele>560.284</ele>
        <time>2022-03-20T12:40:56Z</time>
      </trkpt>
      <trkpt lat="42.904428" lon="-2.547771">
        <ele>560.476</ele>
        <time>2022-03-20T12:40:57Z</time>
      </trkpt>
      <trkpt lat="42.904424" lon="-2.547782">
        <ele>560.414</ele>
        <time>2022-03-20T12:40:58Z</time>
      </trkpt>
      <trkpt lat="42.904419" lon="-2.547793">
        <ele>560.647</ele>
        <time>2022-03-20T12:40:59Z</time>
      </trkpt>
      <trkpt lat="42.904413" lon="-2.547802">
        <ele>560.666</ele>
        <time>2022-03-20T12:41:00Z</time>
      </trkpt>
      <trkpt lat="42.904407" lon="-2.547814">
        <ele>560.454</ele>
        <time>2022-03-20T12:41:01Z</time>
      </trkpt>
      <trkpt lat="42.904402" lon="-2.547827">
        <ele>560.494</ele>
        <time>2022-03-20T12:41:02Z</time>
      </trkpt>
      <trkpt lat="42.904395" lon="-2.547838">
        <ele>560.057</ele>
        <time>2022-03-20T12:41:03Z</time>
      </trkpt>
      <trkpt lat="42.904389" lon="-2.54785">
        <ele>560.022</ele>
        <time>2022-03-20T12:41:04Z</time>
      </trkpt>
      <trkpt lat="42.904384" lon="-2.547863">
        <ele>560.008</ele>
        <time>2022-03-20T12:41:05Z</time>
      </trkpt>
      <trkpt lat="42.90438" lon="-2.547876">
        <ele>560.048</ele>
        <time>2022-03-20T12:41:06Z</time>
      </trkpt>
      <trkpt lat="42.904374" lon="-2.547888">
        <ele>560.256</ele>
        <time>2022-03-20T12:41:07Z</time>
      </trkpt>
      <trkpt lat="42.904368" lon="-2.5479">
        <ele>560.278</ele>
        <time>2022-03-20T12:41:08Z</time>
      </trkpt>
      <trkpt lat="42.904363" lon="-2.54791">
        <ele>560.650</ele>
        <time>2022-03-20T12:41:09Z</time>
      </trkpt>
      <trkpt lat="42.904358" lon="-2.547924">
        <ele>560.668</ele>
        <time>2022-03-20T12:41:10Z</time>
      </trkpt>
      <trkpt lat="42.904353" lon="-2.547937">
        <ele>560.221</ele>
        <time>2022-03-20T12:41:11Z</time>
      </trkpt>
      <trkpt lat="42.904347" lon="-2.547948">
        <ele>560.220</ele>
        <time>2022-03-20T12:41:12Z</time>
      </trkpt>
      <trkpt lat="42.904341" lon="-2.547959">
        <ele>560.298</ele>
        <time>2022-03-20T12:41:13Z</time>
      </trkpt>
      <trkpt lat="42.904334" lon="-2.54797">
        <ele>560.283</ele>
        <time>2022-03-20T12:41:14Z</time>
      </trkpt>
      <trkpt lat="42.904327" lon="-2.547981">
        <ele>559.425</ele>
        <time>2022-03-20T12:41:15Z</time>
      </trkpt>
      <trkpt lat="42.90432" lon="-2.54799">
        <ele>559.217</ele>
        <time>2022-03-20T12:41:16Z</time>
      </trkpt>
      <trkpt lat="42.904313" lon="-2.547998">
        <ele>559.208</ele>
        <time>2022-03-20T12:41:17Z</time>
      </trkpt>
      <trkpt lat="42.904307" lon="-2.548009">
        <ele>559.297</ele>
        <time>2022-03-20T12:41:18Z</time>
      </trkpt>
      <trkpt lat="42.904301" lon="-2.548018">
        <ele>559.475</ele>
        <time>2022-03-20T12:41:19Z</time>
      </trkpt>
      <trkpt lat="42.904296" lon="-2.548026">
        <ele>559.417</ele>
        <time>2022-03-20T12:41:20Z</time>
      </trkpt>
      <trkpt lat="42.90429" lon="-2.548035">
        <ele>559.089</ele>
        <time>2022-03-20T12:41:21Z</time>
      </trkpt>
      <trkpt lat="42.904284" lon="-2.548045">
        <ele>559.017</ele>
        <time>2022-03-20T12:41:22Z</time>
      </trkpt>
      <trkpt lat="42.904279" lon="-2.548056">
        <ele>559.640</ele>
        <time>2022-03-20T12:41:23Z</time>
      </trkpt>
      <trkpt lat="42.904275" lon="-2.548071">
        <ele>559.499</ele>
        <time>2022-03-20T12:41:24Z</time>
      </trkpt>
      <trkpt lat="42.90427" lon="-2.548084">
        <ele>559.627</ele>
        <time>2022-03-20T12:41:25Z</time>
      </trkpt>
      <trkpt lat="42.904266" lon="-2.548096">
        <ele>559.695</ele>
        <time>2022-03-20T12:41:26Z</time>
      </trkpt>
      <trkpt lat="42.904262" lon="-2.54811">
        <ele>559.849</ele>
        <time>2022-03-20T12:41:27Z</time>
      </trkpt>
      <trkpt lat="42.904258" lon="-2.548122">
        <ele>559.823</ele>
        <time>2022-03-20T12:41:28Z</time>
      </trkpt>
      <trkpt lat="42.904251" lon="-2.548134">
        <ele>560.008</ele>
        <time>2022-03-20T12:41:29Z</time>
      </trkpt>
      <trkpt lat="42.904245" lon="-2.548145">
        <ele>559.848</ele>
        <time>2022-03-20T12:41:30Z</time>
      </trkpt>
      <trkpt lat="42.90424" lon="-2.548154">
        <ele>559.826</ele>
        <time>2022-03-20T12:41:31Z</time>
      </trkpt>
      <trkpt lat="42.904236" lon="-2.548165">
        <ele>559.818</ele>
        <time>2022-03-20T12:41:32Z</time>
      </trkpt>
      <trkpt lat="42.90423" lon="-2.548176">
        <ele>559.450</ele>
        <time>2022-03-20T12:41:33Z</time>
      </trkpt>
      <trkpt lat="42.904225" lon="-2.54819">
        <ele>559.448</ele>
        <time>2022-03-20T12:41:34Z</time>
      </trkpt>
      <trkpt lat="42.904221" lon="-2.548204">
        <ele>559.271</ele>
        <time>2022-03-20T12:41:35Z</time>
      </trkpt>
      <trkpt lat="42.90422" lon="-2.548218">
        <ele>559.020</ele>
        <time>2022-03-20T12:41:36Z</time>
      </trkpt>
      <trkpt lat="42.904219" lon="-2.548229">
        <ele>559.048</ele>
        <time>2022-03-20T12:41:37Z</time>
      </trkpt>
      <trkpt lat="42.904216" lon="-2.54824">
        <ele>559.021</ele>
        <time>2022-03-20T12:41:38Z</time>
      </trkpt>
      <trkpt lat="42.904214" lon="-2.548252">
        <ele>559.041</ele>
        <time>2022-03-20T12:41:39Z</time>
      </trkpt>
      <trkpt lat="42.904212" lon="-2.548264">
        <ele>558.805</ele>
        <time>2022-03-20T12:41:40Z</time>
      </trkpt>
      <trkpt lat="42.904208" lon="-2.548277">
        <ele>558.808</ele>
        <time>2022-03-20T12:41:41Z</time>
      </trkpt>
      <trkpt lat="42.904203" lon="-2.548287">
        <ele>558.821</ele>
        <time>2022-03-20T12:41:42Z</time>
      </trkpt>
      <trkpt lat="42.904199" lon="-2.548299">
        <ele>558.699</ele>
        <time>2022-03-20T12:41:43Z</time>
      </trkpt>
      <trkpt lat="42.904195" lon="-2.54831">
        <ele>558.491</ele>
        <time>2022-03-20T12:41:44Z</time>
      </trkpt>
      <trkpt lat="42.904191" lon="-2.548318">
        <ele>558.633</ele>
        <time>2022-03-20T12:41:45Z</time>
      </trkpt>
      <trkpt lat="42.904187" lon="-2.548325">
        <ele>558.631</ele>
        <time>2022-03-20T12:41:46Z</time>
      </trkpt>
      <trkpt lat="42.904185" lon="-2.548328">
        <ele>558.624</ele>
        <time>2022-03-20T12:41:47Z</time>
      </trkpt>
      <trkpt lat="42.904185" lon="-2.548327">
        <ele>558.643</ele>
        <time>2022-03-20T12:41:48Z</time>
      </trkpt>
      <trkpt lat="42.904182" lon="-2.548326">
        <ele>558.281</ele>
        <time>2022-03-20T12:41:49Z</time>
      </trkpt>
      <trkpt lat="42.904176" lon="-2.548327">
        <ele>558.231</ele>
        <time>2022-03-20T12:41:50Z</time>
      </trkpt>
      <trkpt lat="42.90417" lon="-2.548333">
        <ele>560.261</ele>
        <time>2022-03-20T12:41:51Z</time>
      </trkpt>
      <trkpt lat="42.904166" lon="-2.548341">
        <ele>560.207</ele>
        <time>2022-03-20T12:41:52Z</time>
      </trkpt>
      <trkpt lat="42.904163" lon="-2.54835">
        <ele>560.208</ele>
        <time>2022-03-20T12:41:53Z</time>
      </trkpt>
      <trkpt lat="42.904161" lon="-2.548361">
        <ele>560.272</ele>
        <time>2022-03-20T12:41:54Z</time>
      </trkpt>
      <trkpt lat="42.904159" lon="-2.548373">
        <ele>560.280</ele>
        <time>2022-03-20T12:41:55Z</time>
      </trkpt>
      <trkpt lat="42.904155" lon="-2.548386">
        <ele>560.262</ele>
        <time>2022-03-20T12:41:56Z</time>
      </trkpt>
      <trkpt lat="42.904153" lon="-2.548398">
        <ele>560.254</ele>
        <time>2022-03-20T12:41:57Z</time>
      </trkpt>
      <trkpt lat="42.904151" lon="-2.548409">
        <ele>560.282</ele>
        <time>2022-03-20T12:41:58Z</time>
      </trkpt>
      <trkpt lat="42.904148" lon="-2.548419">
        <ele>560.015</ele>
        <time>2022-03-20T12:41:59Z</time>
      </trkpt>
      <trkpt lat="42.904142" lon="-2.548427">
        <ele>560.074</ele>
        <time>2022-03-20T12:42:00Z</time>
      </trkpt>
      <trkpt lat="42.904136" lon="-2.548435">
        <ele>559.452</ele>
        <time>2022-03-20T12:42:01Z</time>
      </trkpt>
      <trkpt lat="42.90413" lon="-2.548442">
        <ele>559.481</ele>
        <time>2022-03-20T12:42:02Z</time>
      </trkpt>
      <trkpt lat="42.904124" lon="-2.54845">
        <ele>559.461</ele>
        <time>2022-03-20T12:42:03Z</time>
      </trkpt>
      <trkpt lat="42.90412" lon="-2.54846">
        <ele>559.217</ele>
        <time>2022-03-20T12:42:04Z</time>
      </trkpt>
      <trkpt lat="42.904117" lon="-2.548472">
        <ele>559.208</ele>
        <time>2022-03-20T12:42:05Z</time>
      </trkpt>
      <trkpt lat="42.904113" lon="-2.548484">
        <ele>559.217</ele>
        <time>2022-03-20T12:42:06Z</time>
      </trkpt>
      <trkpt lat="42.904107" lon="-2.548497">
        <ele>559.215</ele>
        <time>2022-03-20T12:42:07Z</time>
      </trkpt>
      <trkpt lat="42.904104" lon="-2.54851">
        <ele>559.287</ele>
        <time>2022-03-20T12:42:08Z</time>
      </trkpt>
      <trkpt lat="42.904101" lon="-2.548521">
        <ele>559.229</ele>
        <time>2022-03-20T12:42:09Z</time>
      </trkpt>
      <trkpt lat="42.9041" lon="-2.548531">
        <ele>559.257</ele>
        <time>2022-03-20T12:42:10Z</time>
      </trkpt>
      <trkpt lat="42.904099" lon="-2.548541">
        <ele>559.280</ele>
        <time>2022-03-20T12:42:11Z</time>
      </trkpt>
      <trkpt lat="42.904096" lon="-2.548555">
        <ele>559.239</ele>
        <time>2022-03-20T12:42:12Z</time>
      </trkpt>
      <trkpt lat="42.904092" lon="-2.548566">
        <ele>559.227</ele>
        <time>2022-03-20T12:42:13Z</time>
      </trkpt>
      <trkpt lat="42.904088" lon="-2.548575">
        <ele>559.296</ele>
        <time>2022-03-20T12:42:14Z</time>
      </trkpt>
      <trkpt lat="42.904085" lon="-2.548583">
        <ele>559.031</ele>
        <time>2022-03-20T12:42:15Z</time>
      </trkpt>
      <trkpt lat="42.904081" lon="-2.548591">
        <ele>559.024</ele>
        <time>2022-03-20T12:42:16Z</time>
      </trkpt>
      <trkpt lat="42.904076" lon="-2.548599">
        <ele>558.808</ele>
        <time>2022-03-20T12:42:17Z</time>
      </trkpt>
      <trkpt lat="42.904069" lon="-2.548607">
        <ele>558.438</ele>
        <time>2022-03-20T12:42:18Z</time>
      </trkpt>
      <trkpt lat="42.904062" lon="-2.548615">
        <ele>558.246</ele>
        <time>2022-03-20T12:42:19Z</time>
      </trkpt>
      <trkpt lat="42.904057" lon="-2.548622">
        <ele>558.278</ele>
        <time>2022-03-20T12:42:20Z</time>
      </trkpt>
      <trkpt lat="42.904052" lon="-2.548629">
        <ele>558.460</ele>
        <time>2022-03-20T12:42:21Z</time>
      </trkpt>
      <trkpt lat="42.904048" lon="-2.548639">
        <ele>558.438</ele>
        <time>2022-03-20T12:42:22Z</time>
      </trkpt>
      <trkpt lat="42.904041" lon="-2.548646">
        <ele>557.821</ele>
        <time>2022-03-20T12:42:23Z</time>
      </trkpt>
      <trkpt lat="42.904034" lon="-2.548653">
        <ele>557.880</ele>
        <time>2022-03-20T12:42:24Z</time>
      </trkpt>
      <trkpt lat="42.904025" lon="-2.548659">
        <ele>557.048</ele>
        <time>2022-03-20T12:42:25Z</time>
      </trkpt>
      <trkpt lat="42.904017" lon="-2.548665">
        <ele>557.042</ele>
        <time>2022-03-20T12:42:26Z</time>
      </trkpt>
      <trkpt lat="42.904009" lon="-2.548672">
        <ele>557.022</ele>
        <time>2022-03-20T12:42:27Z</time>
      </trkpt>
      <trkpt lat="42.904" lon="-2.548679">
        <ele>557.014</ele>
        <time>2022-03-20T12:42:28Z</time>
      </trkpt>
      <trkpt lat="42.903992" lon="-2.548688">
        <ele>557.608</ele>
        <time>2022-03-20T12:42:29Z</time>
      </trkpt>
      <trkpt lat="42.903983" lon="-2.548698">
        <ele>557.633</ele>
        <time>2022-03-20T12:42:30Z</time>
      </trkpt>
      <trkpt lat="42.903974" lon="-2.548705">
        <ele>557.651</ele>
        <time>2022-03-20T12:42:31Z</time>
      </trkpt>
      <trkpt lat="42.903967" lon="-2.548716">
        <ele>557.623</ele>
        <time>2022-03-20T12:42:32Z</time>
      </trkpt>
      <trkpt lat="42.903959" lon="-2.548726">
        <ele>557.455</ele>
        <time>2022-03-20T12:42:33Z</time>
      </trkpt>
      <trkpt lat="42.903951" lon="-2.548734">
        <ele>556.823</ele>
        <time>2022-03-20T12:42:34Z</time>
      </trkpt>
      <trkpt lat="42.903942" lon="-2.548742">
        <ele>556.236</ele>
        <time>2022-03-20T12:42:35Z</time>
      </trkpt>
      <trkpt lat="42.903934" lon="-2.548751">
        <ele>556.065</ele>
        <time>2022-03-20T12:42:36Z</time>
      </trkpt>
      <trkpt lat="42.903926" lon="-2.548762">
        <ele>555.853</ele>
        <time>2022-03-20T12:42:37Z</time>
      </trkpt>
      <trkpt lat="42.903919" lon="-2.548772">
        <ele>555.656</ele>
        <time>2022-03-20T12:42:38Z</time>
      </trkpt>
      <trkpt lat="42.903912" lon="-2.548782">
        <ele>555.259</ele>
        <time>2022-03-20T12:42:39Z</time>
      </trkpt>
      <trkpt lat="42.903908" lon="-2.548792">
        <ele>555.014</ele>
        <time>2022-03-20T12:42:40Z</time>
      </trkpt>
      <trkpt lat="42.903905" lon="-2.548802">
        <ele>554.608</ele>
        <time>2022-03-20T12:42:41Z</time>
      </trkpt>
      <trkpt lat="42.903901" lon="-2.548812">
        <ele>554.494</ele>
        <time>2022-03-20T12:42:42Z</time>
      </trkpt>
      <trkpt lat="42.903897" lon="-2.548823">
        <ele>554.432</ele>
        <time>2022-03-20T12:42:43Z</time>
      </trkpt>
      <trkpt lat="42.903894" lon="-2.548834">
        <ele>554.474</ele>
        <time>2022-03-20T12:42:44Z</time>
      </trkpt>
      <trkpt lat="42.90389" lon="-2.548846">
        <ele>554.466</ele>
        <time>2022-03-20T12:42:45Z</time>
      </trkpt>
      <trkpt lat="42.903885" lon="-2.548857">
        <ele>554.274</ele>
        <time>2022-03-20T12:42:46Z</time>
      </trkpt>
      <trkpt lat="42.903881" lon="-2.548869">
        <ele>554.047</ele>
        <time>2022-03-20T12:42:47Z</time>
      </trkpt>
      <trkpt lat="42.903876" lon="-2.54888">
        <ele>553.676</ele>
        <time>2022-03-20T12:42:48Z</time>
      </trkpt>
      <trkpt lat="42.903871" lon="-2.548891">
        <ele>553.414</ele>
        <time>2022-03-20T12:42:49Z</time>
      </trkpt>
      <trkpt lat="42.903864" lon="-2.548902">
        <ele>553.431</ele>
        <time>2022-03-20T12:42:50Z</time>
      </trkpt>
      <trkpt lat="42.903858" lon="-2.548912">
        <ele>553.061</ele>
        <time>2022-03-20T12:42:51Z</time>
      </trkpt>
      <trkpt lat="42.903854" lon="-2.548921">
        <ele>552.607</ele>
        <time>2022-03-20T12:42:52Z</time>
      </trkpt>
      <trkpt lat="42.903849" lon="-2.548929">
        <ele>552.608</ele>
        <time>2022-03-20T12:42:53Z</time>
      </trkpt>
      <trkpt lat="42.903843" lon="-2.54894">
        <ele>552.682</ele>
        <time>2022-03-20T12:42:54Z</time>
      </trkpt>
      <trkpt lat="42.903837" lon="-2.548952">
        <ele>552.620</ele>
        <time>2022-03-20T12:42:55Z</time>
      </trkpt>
      <trkpt lat="42.903833" lon="-2.548966">
        <ele>552.422</ele>
        <time>2022-03-20T12:42:56Z</time>
      </trkpt>
      <trkpt lat="42.903828" lon="-2.548977">
        <ele>552.444</ele>
        <time>2022-03-20T12:42:57Z</time>
      </trkpt>
      <trkpt lat="42.903825" lon="-2.548987">
        <ele>552.072</ele>
        <time>2022-03-20T12:42:58Z</time>
      </trkpt>
      <trkpt lat="42.90382" lon="-2.548997">
        <ele>552.085</ele>
        <time>2022-03-20T12:42:59Z</time>
      </trkpt>
      <trkpt lat="42.903814" lon="-2.549006">
        <ele>552.084</ele>
        <time>2022-03-20T12:43:00Z</time>
      </trkpt>
      <trkpt lat="42.903813" lon="-2.549013">
        <ele>552.472</ele>
        <time>2022-03-20T12:43:01Z</time>
      </trkpt>
      <trkpt lat="42.903812" lon="-2.549016">
        <ele>552.494</ele>
        <time>2022-03-20T12:43:02Z</time>
      </trkpt>
      <trkpt lat="42.903811" lon="-2.549017">
        <ele>552.457</ele>
        <time>2022-03-20T12:43:03Z</time>
      </trkpt>
      <trkpt lat="42.90381" lon="-2.549018">
        <ele>552.622</ele>
        <time>2022-03-20T12:43:04Z</time>
      </trkpt>
      <trkpt lat="42.903812" lon="-2.549017">
        <ele>552.608</ele>
        <time>2022-03-20T12:43:05Z</time>
      </trkpt>
      <trkpt lat="42.903814" lon="-2.549015">
        <ele>552.688</ele>
        <time>2022-03-20T12:43:06Z</time>
      </trkpt>
      <trkpt lat="42.903816" lon="-2.549016">
        <ele>552.876</ele>
        <time>2022-03-20T12:43:07Z</time>
      </trkpt>
      <trkpt lat="42.903814" lon="-2.54902">
        <ele>552.818</ele>
        <time>2022-03-20T12:43:08Z</time>
      </trkpt>
      <trkpt lat="42.903811" lon="-2.549025">
        <ele>552.880</ele>
        <time>2022-03-20T12:43:09Z</time>
      </trkpt>
      <trkpt lat="42.903806" lon="-2.549032">
        <ele>552.848</ele>
        <time>2022-03-20T12:43:10Z</time>
      </trkpt>
      <trkpt lat="42.9038" lon="-2.54904">
        <ele>552.871</ele>
        <time>2022-03-20T12:43:11Z</time>
      </trkpt>
      <trkpt lat="42.903794" lon="-2.549048">
        <ele>552.830</ele>
        <time>2022-03-20T12:43:12Z</time>
      </trkpt>
      <trkpt lat="42.903788" lon="-2.549057">
        <ele>552.898</ele>
        <time>2022-03-20T12:43:13Z</time>
      </trkpt>
      <trkpt lat="42.903783" lon="-2.549068">
        <ele>552.624</ele>
        <time>2022-03-20T12:43:14Z</time>
      </trkpt>
      <trkpt lat="42.903777" lon="-2.549079">
        <ele>552.404</ele>
        <time>2022-03-20T12:43:15Z</time>
      </trkpt>
      <trkpt lat="42.903769" lon="-2.549085">
        <ele>552.414</ele>
        <time>2022-03-20T12:43:16Z</time>
      </trkpt>
      <trkpt lat="42.903761" lon="-2.549091">
        <ele>552.008</ele>
        <time>2022-03-20T12:43:17Z</time>
      </trkpt>
      <trkpt lat="42.903751" lon="-2.5491">
        <ele>552.051</ele>
        <time>2022-03-20T12:43:18Z</time>
      </trkpt>
      <trkpt lat="42.903743" lon="-2.549106">
        <ele>552.299</ele>
        <time>2022-03-20T12:43:19Z</time>
      </trkpt>
      <trkpt lat="42.903734" lon="-2.549113">
        <ele>552.031</ele>
        <time>2022-03-20T12:43:20Z</time>
      </trkpt>
      <trkpt lat="42.903727" lon="-2.549119">
        <ele>551.653</ele>
        <time>2022-03-20T12:43:21Z</time>
      </trkpt>
      <trkpt lat="42.90372" lon="-2.549125">
        <ele>551.681</ele>
        <time>2022-03-20T12:43:22Z</time>
      </trkpt>
      <trkpt lat="42.903714" lon="-2.549134">
        <ele>551.834</ele>
        <time>2022-03-20T12:43:23Z</time>
      </trkpt>
      <trkpt lat="42.903706" lon="-2.54914">
        <ele>551.843</ele>
        <time>2022-03-20T12:43:24Z</time>
      </trkpt>
      <trkpt lat="42.903699" lon="-2.549144">
        <ele>551.641</ele>
        <time>2022-03-20T12:43:25Z</time>
      </trkpt>
      <trkpt lat="42.903691" lon="-2.549149">
        <ele>551.649</ele>
        <time>2022-03-20T12:43:26Z</time>
      </trkpt>
      <trkpt lat="42.903684" lon="-2.549154">
        <ele>551.802</ele>
        <time>2022-03-20T12:43:27Z</time>
      </trkpt>
      <trkpt lat="42.903677" lon="-2.549158">
        <ele>551.822</ele>
        <time>2022-03-20T12:43:28Z</time>
      </trkpt>
      <trkpt lat="42.903669" lon="-2.549164">
        <ele>551.608</ele>
        <time>2022-03-20T12:43:29Z</time>
      </trkpt>
      <trkpt lat="42.903661" lon="-2.54917">
        <ele>551.653</ele>
        <time>2022-03-20T12:43:30Z</time>
      </trkpt>
      <trkpt lat="42.903653" lon="-2.549177">
        <ele>551.621</ele>
        <time>2022-03-20T12:43:31Z</time>
      </trkpt>
      <trkpt lat="42.903645" lon="-2.549183">
        <ele>551.613</ele>
        <time>2022-03-20T12:43:32Z</time>
      </trkpt>
      <trkpt lat="42.903638" lon="-2.54919">
        <ele>551.625</ele>
        <time>2022-03-20T12:43:33Z</time>
      </trkpt>
      <trkpt lat="42.903631" lon="-2.549197">
        <ele>551.693</ele>
        <time>2022-03-20T12:43:34Z</time>
      </trkpt>
      <trkpt lat="42.903623" lon="-2.549205">
        <ele>551.646</ele>
        <time>2022-03-20T12:43:35Z</time>
      </trkpt>
      <trkpt lat="42.903615" lon="-2.549211">
        <ele>551.655</ele>
        <time>2022-03-20T12:43:36Z</time>
      </trkpt>
      <trkpt lat="42.903606" lon="-2.549218">
        <ele>551.693</ele>
        <time>2022-03-20T12:43:37Z</time>
      </trkpt>
      <trkpt lat="42.903599" lon="-2.549226">
        <ele>551.854</ele>
        <time>2022-03-20T12:43:38Z</time>
      </trkpt>
      <trkpt lat="42.903593" lon="-2.549235">
        <ele>551.856</ele>
        <time>2022-03-20T12:43:39Z</time>
      </trkpt>
      <trkpt lat="42.903588" lon="-2.549246">
        <ele>552.411</ele>
        <time>2022-03-20T12:43:40Z</time>
      </trkpt>
      <trkpt lat="42.903581" lon="-2.549255">
        <ele>552.008</ele>
        <time>2022-03-20T12:43:41Z</time>
      </trkpt>
      <trkpt lat="42.903573" lon="-2.549264">
        <ele>552.434</ele>
        <time>2022-03-20T12:43:42Z</time>
      </trkpt>
      <trkpt lat="42.903567" lon="-2.549273">
        <ele>552.462</ele>
        <time>2022-03-20T12:43:43Z</time>
      </trkpt>
      <trkpt lat="42.903561" lon="-2.549282">
        <ele>552.624</ele>
        <time>2022-03-20T12:43:44Z</time>
      </trkpt>
      <trkpt lat="42.903556" lon="-2.549292">
        <ele>552.476</ele>
        <time>2022-03-20T12:43:45Z</time>
      </trkpt>
      <trkpt lat="42.90355" lon="-2.549301">
        <ele>552.474</ele>
        <time>2022-03-20T12:43:46Z</time>
      </trkpt>
      <trkpt lat="42.903543" lon="-2.549308">
        <ele>552.027</ele>
        <time>2022-03-20T12:43:47Z</time>
      </trkpt>
      <trkpt lat="42.903535" lon="-2.549314">
        <ele>552.026</ele>
        <time>2022-03-20T12:43:48Z</time>
      </trkpt>
      <trkpt lat="42.903526" lon="-2.54932">
        <ele>551.424</ele>
        <time>2022-03-20T12:43:49Z</time>
      </trkpt>
      <trkpt lat="42.903519" lon="-2.549325">
        <ele>551.425</ele>
        <time>2022-03-20T12:43:50Z</time>
      </trkpt>
      <trkpt lat="42.903511" lon="-2.549331">
        <ele>551.226</ele>
        <time>2022-03-20T12:43:51Z</time>
      </trkpt>
      <trkpt lat="42.903503" lon="-2.549336">
        <ele>550.208</ele>
        <time>2022-03-20T12:43:52Z</time>
      </trkpt>
      <trkpt lat="42.903496" lon="-2.549339">
        <ele>550.208</ele>
        <time>2022-03-20T12:43:53Z</time>
      </trkpt>
      <trkpt lat="42.903487" lon="-2.549343">
        <ele>549.811</ele>
        <time>2022-03-20T12:43:54Z</time>
      </trkpt>
      <trkpt lat="42.903479" lon="-2.549344">
        <ele>549.839</ele>
        <time>2022-03-20T12:43:55Z</time>
      </trkpt>
      <trkpt lat="42.903472" lon="-2.549343">
        <ele>550.681</ele>
        <time>2022-03-20T12:43:56Z</time>
      </trkpt>
      <trkpt lat="42.903464" lon="-2.549342">
        <ele>550.633</ele>
        <time>2022-03-20T12:43:57Z</time>
      </trkpt>
      <trkpt lat="42.903456" lon="-2.54934">
        <ele>550.611</ele>
        <time>2022-03-20T12:43:58Z</time>
      </trkpt>
      <trkpt lat="42.903448" lon="-2.549337">
        <ele>554.624</ele>
        <time>2022-03-20T12:43:59Z</time>
      </trkpt>
      <trkpt lat="42.903445" lon="-2.549334">
        <ele>554.853</ele>
        <time>2022-03-20T12:44:00Z</time>
      </trkpt>
      <trkpt lat="42.903441" lon="-2.549329">
        <ele>555.211</ele>
        <time>2022-03-20T12:44:01Z</time>
      </trkpt>
      <trkpt lat="42.903438" lon="-2.549319">
        <ele>556.812</ele>
        <time>2022-03-20T12:44:02Z</time>
      </trkpt>
      <trkpt lat="42.903437" lon="-2.549308">
        <ele>556.832</ele>
        <time>2022-03-20T12:44:03Z</time>
      </trkpt>
      <trkpt lat="42.903437" lon="-2.549295">
        <ele>556.805</ele>
        <time>2022-03-20T12:44:04Z</time>
      </trkpt>
      <trkpt lat="42.903438" lon="-2.549281">
        <ele>556.808</ele>
        <time>2022-03-20T12:44:05Z</time>
      </trkpt>
      <trkpt lat="42.903435" lon="-2.549267">
        <ele>556.210</ele>
        <time>2022-03-20T12:44:06Z</time>
      </trkpt>
      <trkpt lat="42.903433" lon="-2.549255">
        <ele>556.038</ele>
        <time>2022-03-20T12:44:07Z</time>
      </trkpt>
      <trkpt lat="42.903432" lon="-2.549243">
        <ele>555.670</ele>
        <time>2022-03-20T12:44:08Z</time>
      </trkpt>
      <trkpt lat="42.903429" lon="-2.54923">
        <ele>555.622</ele>
        <time>2022-03-20T12:44:09Z</time>
      </trkpt>
      <trkpt lat="42.903428" lon="-2.549218">
        <ele>555.650</ele>
        <time>2022-03-20T12:44:10Z</time>
      </trkpt>
      <trkpt lat="42.903428" lon="-2.549205">
        <ele>555.613</ele>
        <time>2022-03-20T12:44:11Z</time>
      </trkpt>
      <trkpt lat="42.903424" lon="-2.549189">
        <ele>555.442</ele>
        <time>2022-03-20T12:44:12Z</time>
      </trkpt>
      <trkpt lat="42.903421" lon="-2.549176">
        <ele>556.050</ele>
        <time>2022-03-20T12:44:13Z</time>
      </trkpt>
      <trkpt lat="42.903419" lon="-2.549166">
        <ele>556.271</ele>
        <time>2022-03-20T12:44:14Z</time>
      </trkpt>
      <trkpt lat="42.903416" lon="-2.549156">
        <ele>556.441</ele>
        <time>2022-03-20T12:44:15Z</time>
      </trkpt>
      <trkpt lat="42.903411" lon="-2.549153">
        <ele>556.215</ele>
        <time>2022-03-20T12:44:16Z</time>
      </trkpt>
      <trkpt lat="42.903411" lon="-2.549152">
        <ele>555.408</ele>
        <time>2022-03-20T12:44:17Z</time>
      </trkpt>
      <trkpt lat="42.903409" lon="-2.549152">
        <ele>555.456</ele>
        <time>2022-03-20T12:44:18Z</time>
      </trkpt>
      <trkpt lat="42.90341" lon="-2.549152">
        <ele>555.474</ele>
        <time>2022-03-20T12:44:19Z</time>
      </trkpt>
      <trkpt lat="42.903409" lon="-2.549151">
        <ele>555.446</ele>
        <time>2022-03-20T12:44:20Z</time>
      </trkpt>
      <trkpt lat="42.903409" lon="-2.549151">
        <ele>555.468</ele>
        <time>2022-03-20T12:44:21Z</time>
      </trkpt>
      <trkpt lat="42.903408" lon="-2.549151">
        <ele>555.436</ele>
        <time>2022-03-20T12:44:22Z</time>
      </trkpt>
      <trkpt lat="42.903408" lon="-2.549152">
        <ele>555.439</ele>
        <time>2022-03-20T12:44:23Z</time>
      </trkpt>
      <trkpt lat="42.903409" lon="-2.549152">
        <ele>555.618</ele>
        <time>2022-03-20T12:44:24Z</time>
      </trkpt>
      <trkpt lat="42.903411" lon="-2.549151">
        <ele>555.666</ele>
        <time>2022-03-20T12:44:25Z</time>
      </trkpt>
      <trkpt lat="42.903414" lon="-2.549151">
        <ele>555.886</ele>
        <time>2022-03-20T12:44:26Z</time>
      </trkpt>
      <trkpt lat="42.903415" lon="-2.54915">
        <ele>556.260</ele>
        <time>2022-03-20T12:44:27Z</time>
      </trkpt>
      <trkpt lat="42.903415" lon="-2.54915">
        <ele>555.826</ele>
        <time>2022-03-20T12:44:28Z</time>
      </trkpt>
      <trkpt lat="42.903415" lon="-2.54915">
        <ele>555.808</ele>
        <time>2022-03-20T12:44:29Z</time>
      </trkpt>
      <trkpt lat="42.903415" lon="-2.54915">
        <ele>556.037</ele>
        <time>2022-03-20T12:44:30Z</time>
      </trkpt>
      <trkpt lat="42.903415" lon="-2.54915">
        <ele>556.025</ele>
        <time>2022-03-20T12:44:31Z</time>
      </trkpt>
      <trkpt lat="42.903415" lon="-2.54915">
        <ele>556.277</ele>
        <time>2022-03-20T12:44:32Z</time>
      </trkpt>
      <trkpt lat="42.903415" lon="-2.54915">
        <ele>556.239</ele>
        <time>2022-03-20T12:44:33Z</time>
      </trkpt>
      <trkpt lat="42.903415" lon="-2.54915">
        <ele>556.257</ele>
        <time>2022-03-20T12:44:34Z</time>
      </trkpt>
      <trkpt lat="42.903414" lon="-2.549145">
        <ele>556.690</ele>
        <time>2022-03-20T12:44:35Z</time>
      </trkpt>
      <trkpt lat="42.903412" lon="-2.549128">
        <ele>557.079</ele>
        <time>2022-03-20T12:44:36Z</time>
      </trkpt>
      <trkpt lat="42.903408" lon="-2.549111">
        <ele>557.077</ele>
        <time>2022-03-20T12:44:37Z</time>
      </trkpt>
      <trkpt lat="42.903405" lon="-2.549091">
        <ele>557.042</ele>
        <time>2022-03-20T12:44:38Z</time>
      </trkpt>
      <trkpt lat="42.903402" lon="-2.549075">
        <ele>557.022</ele>
        <time>2022-03-20T12:44:39Z</time>
      </trkpt>
      <trkpt lat="42.9034" lon="-2.549063">
        <ele>557.014</ele>
        <time>2022-03-20T12:44:40Z</time>
      </trkpt>
      <trkpt lat="42.903397" lon="-2.549051">
        <ele>555.608</ele>
        <time>2022-03-20T12:44:41Z</time>
      </trkpt>
      <trkpt lat="42.903397" lon="-2.54904">
        <ele>555.613</ele>
        <time>2022-03-20T12:44:42Z</time>
      </trkpt>
      <trkpt lat="42.903396" lon="-2.549026">
        <ele>555.631</ele>
        <time>2022-03-20T12:44:43Z</time>
      </trkpt>
      <trkpt lat="42.903395" lon="-2.54901">
        <ele>555.683</ele>
        <time>2022-03-20T12:44:44Z</time>
      </trkpt>
      <trkpt lat="42.903394" lon="-2.548997">
        <ele>556.885</ele>
        <time>2022-03-20T12:44:45Z</time>
      </trkpt>
      <trkpt lat="42.903392" lon="-2.548984">
        <ele>557.053</ele>
        <time>2022-03-20T12:44:46Z</time>
      </trkpt>
      <trkpt lat="42.903392" lon="-2.548971">
        <ele>557.046</ele>
        <time>2022-03-20T12:44:47Z</time>
      </trkpt>
      <trkpt lat="42.903392" lon="-2.548957">
        <ele>557.415</ele>
        <time>2022-03-20T12:44:48Z</time>
      </trkpt>
      <trkpt lat="42.903392" lon="-2.548942">
        <ele>557.843</ele>
        <time>2022-03-20T12:44:49Z</time>
      </trkpt>
      <trkpt lat="42.903391" lon="-2.548928">
        <ele>557.824</ele>
        <time>2022-03-20T12:44:50Z</time>
      </trkpt>
      <trkpt lat="42.90339" lon="-2.548914">
        <ele>557.804</ele>
        <time>2022-03-20T12:44:51Z</time>
      </trkpt>
      <trkpt lat="42.903387" lon="-2.5489">
        <ele>557.814</ele>
        <time>2022-03-20T12:44:52Z</time>
      </trkpt>
      <trkpt lat="42.903387" lon="-2.548887">
        <ele>557.008</ele>
        <time>2022-03-20T12:44:53Z</time>
      </trkpt>
      <trkpt lat="42.903386" lon="-2.548873">
        <ele>557.821</ele>
        <time>2022-03-20T12:44:54Z</time>
      </trkpt>
      <trkpt lat="42.903386" lon="-2.548858">
        <ele>557.049</ele>
        <time>2022-03-20T12:44:55Z</time>
      </trkpt>
      <trkpt lat="42.903386" lon="-2.548843">
        <ele>557.051</ele>
        <time>2022-03-20T12:44:56Z</time>
      </trkpt>
      <trkpt lat="42.903387" lon="-2.54883">
        <ele>558.083</ele>
        <time>2022-03-20T12:44:57Z</time>
      </trkpt>
      <trkpt lat="42.903387" lon="-2.548817">
        <ele>558.431</ele>
        <time>2022-03-20T12:44:58Z</time>
      </trkpt>
      <trkpt lat="42.903386" lon="-2.548803">
        <ele>558.054</ele>
        <time>2022-03-20T12:44:59Z</time>
      </trkpt>
      <trkpt lat="42.903386" lon="-2.548789">
        <ele>558.493</ele>
        <time>2022-03-20T12:45:00Z</time>
      </trkpt>
      <trkpt lat="42.903384" lon="-2.548776">
        <ele>558.421</ele>
        <time>2022-03-20T12:45:01Z</time>
      </trkpt>
      <trkpt lat="42.903383" lon="-2.548761">
        <ele>558.436</ele>
        <time>2022-03-20T12:45:02Z</time>
      </trkpt>
      <trkpt lat="42.90338" lon="-2.548749">
        <ele>557.617</ele>
        <time>2022-03-20T12:45:03Z</time>
      </trkpt>
      <trkpt lat="42.903378" lon="-2.548734">
        <ele>557.618</ele>
        <time>2022-03-20T12:45:04Z</time>
      </trkpt>
      <trkpt lat="42.903378" lon="-2.548718">
        <ele>557.408</ele>
        <time>2022-03-20T12:45:05Z</time>
      </trkpt>
      <trkpt lat="42.903378" lon="-2.548703">
        <ele>557.252</ele>
        <time>2022-03-20T12:45:06Z</time>
      </trkpt>
      <trkpt lat="42.903378" lon="-2.54869">
        <ele>557.290</ele>
        <time>2022-03-20T12:45:07Z</time>
      </trkpt>
      <trkpt lat="42.903379" lon="-2.548676">
        <ele>557.272</ele>
        <time>2022-03-20T12:45:08Z</time>
      </trkpt>
      <trkpt lat="42.903378" lon="-2.548663">
        <ele>557.244</ele>
        <time>2022-03-20T12:45:09Z</time>
      </trkpt>
      <trkpt lat="42.903379" lon="-2.548649">
        <ele>557.272</ele>
        <time>2022-03-20T12:45:10Z</time>
      </trkpt>
      <trkpt lat="42.90338" lon="-2.548635">
        <ele>557.225</ele>
        <time>2022-03-20T12:45:11Z</time>
      </trkpt>
      <trkpt lat="42.90338" lon="-2.548621">
        <ele>557.284</ele>
        <time>2022-03-20T12:45:12Z</time>
      </trkpt>
      <trkpt lat="42.903379" lon="-2.548608">
        <ele>557.222</ele>
        <time>2022-03-20T12:45:13Z</time>
      </trkpt>
      <trkpt lat="42.903379" lon="-2.548595">
        <ele>557.651</ele>
        <time>2022-03-20T12:45:14Z</time>
      </trkpt>
      <trkpt lat="42.903378" lon="-2.548582">
        <ele>557.201</ele>
        <time>2022-03-20T12:45:15Z</time>
      </trkpt>
      <trkpt lat="42.903379" lon="-2.548568">
        <ele>557.011</ele>
        <time>2022-03-20T12:45:16Z</time>
      </trkpt>
      <trkpt lat="42.903379" lon="-2.548555">
        <ele>557.008</ele>
        <time>2022-03-20T12:45:17Z</time>
      </trkpt>
      <trkpt lat="42.90338" lon="-2.548543">
        <ele>557.084</ele>
        <time>2022-03-20T12:45:18Z</time>
      </trkpt>
      <trkpt lat="42.903383" lon="-2.548531">
        <ele>557.072</ele>
        <time>2022-03-20T12:45:19Z</time>
      </trkpt>
      <trkpt lat="42.903384" lon="-2.548517">
        <ele>557.024</ele>
        <time>2022-03-20T12:45:20Z</time>
      </trkpt>
      <trkpt lat="42.903385" lon="-2.548503">
        <ele>557.096</ele>
        <time>2022-03-20T12:45:21Z</time>
      </trkpt>
      <trkpt lat="42.903384" lon="-2.548489">
        <ele>557.094</ele>
        <time>2022-03-20T12:45:22Z</time>
      </trkpt>
      <trkpt lat="42.903386" lon="-2.548475">
        <ele>557.087</ele>
        <time>2022-03-20T12:45:23Z</time>
      </trkpt>
      <trkpt lat="42.903385" lon="-2.548461">
        <ele>557.236</ele>
        <time>2022-03-20T12:45:24Z</time>
      </trkpt>
      <trkpt lat="42.903385" lon="-2.548447">
        <ele>557.284</ele>
        <time>2022-03-20T12:45:25Z</time>
      </trkpt>
      <trkpt lat="42.903386" lon="-2.548435">
        <ele>557.289</ele>
        <time>2022-03-20T12:45:26Z</time>
      </trkpt>
      <trkpt lat="42.903387" lon="-2.548423">
        <ele>557.406</ele>
        <time>2022-03-20T12:45:27Z</time>
      </trkpt>
      <trkpt lat="42.903389" lon="-2.548411">
        <ele>557.226</ele>
        <time>2022-03-20T12:45:28Z</time>
      </trkpt>
      <trkpt lat="42.903392" lon="-2.548398">
        <ele>557.408</ele>
        <time>2022-03-20T12:45:29Z</time>
      </trkpt>
      <trkpt lat="42.903394" lon="-2.548384">
        <ele>557.427</ele>
        <time>2022-03-20T12:45:30Z</time>
      </trkpt>
      <trkpt lat="42.903397" lon="-2.548372">
        <ele>557.485</ele>
        <time>2022-03-20T12:45:31Z</time>
      </trkpt>
      <trkpt lat="42.903399" lon="-2.54836">
        <ele>557.417</ele>
        <time>2022-03-20T12:45:32Z</time>
      </trkpt>
      <trkpt lat="42.903403" lon="-2.548347">
        <ele>557.449</ele>
        <time>2022-03-20T12:45:33Z</time>
      </trkpt>
      <trkpt lat="42.903406" lon="-2.548334">
        <ele>557.447</ele>
        <time>2022-03-20T12:45:34Z</time>
      </trkpt>
      <trkpt lat="42.903409" lon="-2.548321">
        <ele>557.450</ele>
        <time>2022-03-20T12:45:35Z</time>
      </trkpt>
      <trkpt lat="42.903411" lon="-2.54831">
        <ele>557.419</ele>
        <time>2022-03-20T12:45:36Z</time>
      </trkpt>
      <trkpt lat="42.903414" lon="-2.548298">
        <ele>557.457</ele>
        <time>2022-03-20T12:45:37Z</time>
      </trkpt>
      <trkpt lat="42.903417" lon="-2.548285">
        <ele>557.481</ele>
        <time>2022-03-20T12:45:38Z</time>
      </trkpt>
      <trkpt lat="42.903418" lon="-2.548272">
        <ele>557.061</ele>
        <time>2022-03-20T12:45:39Z</time>
      </trkpt>
      <trkpt lat="42.903421" lon="-2.548258">
        <ele>556.817</ele>
        <time>2022-03-20T12:45:40Z</time>
      </trkpt>
      <trkpt lat="42.903423" lon="-2.548246">
        <ele>556.808</ele>
        <time>2022-03-20T12:45:41Z</time>
      </trkpt>
      <trkpt lat="42.903427" lon="-2.548233">
        <ele>556.817</ele>
        <time>2022-03-20T12:45:42Z</time>
      </trkpt>
      <trkpt lat="42.903429" lon="-2.548221">
        <ele>556.475</ele>
        <time>2022-03-20T12:45:43Z</time>
      </trkpt>
      <trkpt lat="42.903431" lon="-2.548207">
        <ele>556.457</ele>
        <time>2022-03-20T12:45:44Z</time>
      </trkpt>
      <trkpt lat="42.903432" lon="-2.548194">
        <ele>556.689</ele>
        <time>2022-03-20T12:45:45Z</time>
      </trkpt>
      <trkpt lat="42.903433" lon="-2.548182">
        <ele>556.677</ele>
        <time>2022-03-20T12:45:46Z</time>
      </trkpt>
      <trkpt lat="42.903436" lon="-2.54817">
        <ele>556.480</ele>
        <time>2022-03-20T12:45:47Z</time>
      </trkpt>
      <trkpt lat="42.903438" lon="-2.548156">
        <ele>556.289</ele>
        <time>2022-03-20T12:45:48Z</time>
      </trkpt>
      <trkpt lat="42.903442" lon="-2.548142">
        <ele>556.417</ele>
        <time>2022-03-20T12:45:49Z</time>
      </trkpt>
      <trkpt lat="42.903443" lon="-2.54813">
        <ele>556.451</ele>
        <time>2022-03-20T12:45:50Z</time>
      </trkpt>
      <trkpt lat="42.903443" lon="-2.548117">
        <ele>556.401</ele>
        <time>2022-03-20T12:45:51Z</time>
      </trkpt>
      <trkpt lat="42.903445" lon="-2.548108">
        <ele>556.411</ele>
        <time>2022-03-20T12:45:52Z</time>
      </trkpt>
      <trkpt lat="42.903445" lon="-2.548101">
        <ele>556.408</ele>
        <time>2022-03-20T12:45:53Z</time>
      </trkpt>
      <trkpt lat="42.903444" lon="-2.548097">
        <ele>556.424</ele>
        <time>2022-03-20T12:45:54Z</time>
      </trkpt>
      <trkpt lat="42.903444" lon="-2.548096">
        <ele>556.472</ele>
        <time>2022-03-20T12:45:55Z</time>
      </trkpt>
      <trkpt lat="42.903443" lon="-2.548097">
        <ele>555.814</ele>
        <time>2022-03-20T12:45:56Z</time>
      </trkpt>
      <trkpt lat="42.903441" lon="-2.548098">
        <ele>555.866</ele>
        <time>2022-03-20T12:45:57Z</time>
      </trkpt>
      <trkpt lat="42.903439" lon="-2.548101">
        <ele>555.834</ele>
        <time>2022-03-20T12:45:58Z</time>
      </trkpt>
      <trkpt lat="42.903443" lon="-2.5481">
        <ele>555.897</ele>
        <time>2022-03-20T12:45:59Z</time>
      </trkpt>
      <trkpt lat="42.903447" lon="-2.548094">
        <ele>555.846</ele>
        <time>2022-03-20T12:46:00Z</time>
      </trkpt>
      <trkpt lat="42.903449" lon="-2.548084">
        <ele>555.854</ele>
        <time>2022-03-20T12:46:01Z</time>
      </trkpt>
      <trkpt lat="42.903449" lon="-2.548073">
        <ele>556.045</ele>
        <time>2022-03-20T12:46:02Z</time>
      </trkpt>
      <trkpt lat="42.90345" lon="-2.548061">
        <ele>556.447</ele>
        <time>2022-03-20T12:46:03Z</time>
      </trkpt>
      <trkpt lat="42.903451" lon="-2.548051">
        <ele>556.411</ele>
        <time>2022-03-20T12:46:04Z</time>
      </trkpt>
      <trkpt lat="42.903453" lon="-2.548039">
        <ele>556.408</ele>
        <time>2022-03-20T12:46:05Z</time>
      </trkpt>
      <trkpt lat="42.903457" lon="-2.548027">
        <ele>556.093</ele>
        <time>2022-03-20T12:46:06Z</time>
      </trkpt>
      <trkpt lat="42.903461" lon="-2.548013">
        <ele>555.611</ele>
        <time>2022-03-20T12:46:07Z</time>
      </trkpt>
      <trkpt lat="42.903465" lon="-2.548">
        <ele>555.623</ele>
        <time>2022-03-20T12:46:08Z</time>
      </trkpt>
      <trkpt lat="42.903468" lon="-2.547987">
        <ele>555.425</ele>
        <time>2022-03-20T12:46:09Z</time>
      </trkpt>
      <trkpt lat="42.90347" lon="-2.547975">
        <ele>555.433</ele>
        <time>2022-03-20T12:46:10Z</time>
      </trkpt>
      <trkpt lat="42.903471" lon="-2.547963">
        <ele>555.496</ele>
        <time>2022-03-20T12:46:11Z</time>
      </trkpt>
      <trkpt lat="42.903472" lon="-2.547951">
        <ele>555.495</ele>
        <time>2022-03-20T12:46:12Z</time>
      </trkpt>
      <trkpt lat="42.903472" lon="-2.547937">
        <ele>555.453</ele>
        <time>2022-03-20T12:46:13Z</time>
      </trkpt>
      <trkpt lat="42.903472" lon="-2.547924">
        <ele>555.699</ele>
        <time>2022-03-20T12:46:14Z</time>
      </trkpt>
      <trkpt lat="42.903475" lon="-2.547911">
        <ele>555.407</ele>
        <time>2022-03-20T12:46:15Z</time>
      </trkpt>
      <trkpt lat="42.903479" lon="-2.547898">
        <ele>555.427</ele>
        <time>2022-03-20T12:46:16Z</time>
      </trkpt>
      <trkpt lat="42.903482" lon="-2.547885">
        <ele>555.408</ele>
        <time>2022-03-20T12:46:17Z</time>
      </trkpt>
      <trkpt lat="42.903485" lon="-2.547873">
        <ele>555.488</ele>
        <time>2022-03-20T12:46:18Z</time>
      </trkpt>
      <trkpt lat="42.903486" lon="-2.547861">
        <ele>555.646</ele>
        <time>2022-03-20T12:46:19Z</time>
      </trkpt>
      <trkpt lat="42.903488" lon="-2.54785">
        <ele>555.688</ele>
        <time>2022-03-20T12:46:20Z</time>
      </trkpt>
      <trkpt lat="42.903491" lon="-2.547837">
        <ele>555.630</ele>
        <time>2022-03-20T12:46:21Z</time>
      </trkpt>
      <trkpt lat="42.903494" lon="-2.547824">
        <ele>555.648</ele>
        <time>2022-03-20T12:46:22Z</time>
      </trkpt>
      <trkpt lat="42.903495" lon="-2.547812">
        <ele>555.631</ele>
        <time>2022-03-20T12:46:23Z</time>
      </trkpt>
      <trkpt lat="42.903497" lon="-2.5478">
        <ele>555.610</ele>
        <time>2022-03-20T12:46:24Z</time>
      </trkpt>
      <trkpt lat="42.903498" lon="-2.547788">
        <ele>555.658</ele>
        <time>2022-03-20T12:46:25Z</time>
      </trkpt>
      <trkpt lat="42.9035" lon="-2.547776">
        <ele>555.412</ele>
        <time>2022-03-20T12:46:26Z</time>
      </trkpt>
      <trkpt lat="42.903505" lon="-2.547764">
        <ele>555.432</ele>
        <time>2022-03-20T12:46:27Z</time>
      </trkpt>
      <trkpt lat="42.903509" lon="-2.547751">
        <ele>555.405</ele>
        <time>2022-03-20T12:46:28Z</time>
      </trkpt>
      <trkpt lat="42.903513" lon="-2.547738">
        <ele>555.408</ele>
        <time>2022-03-20T12:46:29Z</time>
      </trkpt>
      <trkpt lat="42.903516" lon="-2.547726">
        <ele>555.480</ele>
        <time>2022-03-20T12:46:30Z</time>
      </trkpt>
      <trkpt lat="42.903521" lon="-2.547715">
        <ele>555.218</ele>
        <time>2022-03-20T12:46:31Z</time>
      </trkpt>
      <trkpt lat="42.903524" lon="-2.547702">
        <ele>555.210</ele>
        <time>2022-03-20T12:46:32Z</time>
      </trkpt>
      <trkpt lat="42.903528" lon="-2.54769">
        <ele>555.282</ele>
        <time>2022-03-20T12:46:33Z</time>
      </trkpt>
      <trkpt lat="42.903531" lon="-2.547679">
        <ele>555.460</ele>
        <time>2022-03-20T12:46:34Z</time>
      </trkpt>
      <trkpt lat="42.903534" lon="-2.547667">
        <ele>555.443</ele>
        <time>2022-03-20T12:46:35Z</time>
      </trkpt>
      <trkpt lat="42.90354" lon="-2.547655">
        <ele>555.652</ele>
        <time>2022-03-20T12:46:36Z</time>
      </trkpt>
      <trkpt lat="42.903544" lon="-2.547642">
        <ele>555.480</ele>
        <time>2022-03-20T12:46:37Z</time>
      </trkpt>
      <trkpt lat="42.903548" lon="-2.547629">
        <ele>555.653</ele>
        <time>2022-03-20T12:46:38Z</time>
      </trkpt>
      <trkpt lat="42.903552" lon="-2.547616">
        <ele>555.604</ele>
        <time>2022-03-20T12:46:39Z</time>
      </trkpt>
      <trkpt lat="42.903555" lon="-2.547604">
        <ele>555.614</ele>
        <time>2022-03-20T12:46:40Z</time>
      </trkpt>
      <trkpt lat="42.903561" lon="-2.547592">
        <ele>555.608</ele>
        <time>2022-03-20T12:46:41Z</time>
      </trkpt>
      <trkpt lat="42.903567" lon="-2.54758">
        <ele>555.684</ele>
        <time>2022-03-20T12:46:42Z</time>
      </trkpt>
      <trkpt lat="42.903572" lon="-2.547568">
        <ele>555.672</ele>
        <time>2022-03-20T12:46:43Z</time>
      </trkpt>
      <trkpt lat="42.903575" lon="-2.547555">
        <ele>555.674</ele>
        <time>2022-03-20T12:46:44Z</time>
      </trkpt>
      <trkpt lat="42.903579" lon="-2.547543">
        <ele>555.636</ele>
        <time>2022-03-20T12:46:45Z</time>
      </trkpt>
      <trkpt lat="42.903583" lon="-2.547531">
        <ele>555.654</ele>
        <time>2022-03-20T12:46:46Z</time>
      </trkpt>
      <trkpt lat="42.903587" lon="-2.54752">
        <ele>555.687</ele>
        <time>2022-03-20T12:46:47Z</time>
      </trkpt>
      <trkpt lat="42.90359" lon="-2.547508">
        <ele>555.496</ele>
        <time>2022-03-20T12:46:48Z</time>
      </trkpt>
      <trkpt lat="42.903594" lon="-2.547499">
        <ele>555.624</ele>
        <time>2022-03-20T12:46:49Z</time>
      </trkpt>
      <trkpt lat="42.903599" lon="-2.547489">
        <ele>555.483</ele>
        <time>2022-03-20T12:46:50Z</time>
      </trkpt>
      <trkpt lat="42.903604" lon="-2.547478">
        <ele>555.825</ele>
        <time>2022-03-20T12:46:51Z</time>
      </trkpt>
      <trkpt lat="42.903609" lon="-2.547467">
        <ele>555.417</ele>
        <time>2022-03-20T12:46:52Z</time>
      </trkpt>
      <trkpt lat="42.903613" lon="-2.547455">
        <ele>555.208</ele>
        <time>2022-03-20T12:46:53Z</time>
      </trkpt>
      <trkpt lat="42.903617" lon="-2.547443">
        <ele>555.217</ele>
        <time>2022-03-20T12:46:54Z</time>
      </trkpt>
      <trkpt lat="42.903621" lon="-2.547433">
        <ele>555.895</ele>
        <time>2022-03-20T12:46:55Z</time>
      </trkpt>
      <trkpt lat="42.903626" lon="-2.547421">
        <ele>555.837</ele>
        <time>2022-03-20T12:46:56Z</time>
      </trkpt>
      <trkpt lat="42.90363" lon="-2.547409">
        <ele>556.019</ele>
        <time>2022-03-20T12:46:57Z</time>
      </trkpt>
      <trkpt lat="42.903634" lon="-2.547397">
        <ele>556.247</ele>
        <time>2022-03-20T12:46:58Z</time>
      </trkpt>
      <trkpt lat="42.903638" lon="-2.547386">
        <ele>556.210</ele>
        <time>2022-03-20T12:46:59Z</time>
      </trkpt>
      <trkpt lat="42.903641" lon="-2.547375">
        <ele>556.299</ele>
        <time>2022-03-20T12:47:00Z</time>
      </trkpt>
      <trkpt lat="42.903645" lon="-2.547363">
        <ele>556.067</ele>
        <time>2022-03-20T12:47:01Z</time>
      </trkpt>
      <trkpt lat="42.903652" lon="-2.54735">
        <ele>556.072</ele>
        <time>2022-03-20T12:47:02Z</time>
      </trkpt>
      <trkpt lat="42.903657" lon="-2.547338">
        <ele>556.013</ele>
        <time>2022-03-20T12:47:03Z</time>
      </trkpt>
      <trkpt lat="42.903663" lon="-2.547326">
        <ele>556.014</ele>
        <time>2022-03-20T12:47:04Z</time>
      </trkpt>
      <trkpt lat="42.90367" lon="-2.547313">
        <ele>556.008</ele>
        <time>2022-03-20T12:47:05Z</time>
      </trkpt>
      <trkpt lat="42.903675" lon="-2.547301">
        <ele>556.076</ele>
        <time>2022-03-20T12:47:06Z</time>
      </trkpt>
      <trkpt lat="42.903681" lon="-2.547289">
        <ele>555.614</ele>
        <time>2022-03-20T12:47:07Z</time>
      </trkpt>
      <trkpt lat="42.903686" lon="-2.547276">
        <ele>555.696</ele>
        <time>2022-03-20T12:47:08Z</time>
      </trkpt>
      <trkpt lat="42.90369" lon="-2.547263">
        <ele>555.688</ele>
        <time>2022-03-20T12:47:09Z</time>
      </trkpt>
      <trkpt lat="42.903695" lon="-2.547251">
        <ele>555.816</ele>
        <time>2022-03-20T12:47:10Z</time>
      </trkpt>
      <trkpt lat="42.9037" lon="-2.547238">
        <ele>555.669</ele>
        <time>2022-03-20T12:47:11Z</time>
      </trkpt>
      <trkpt lat="42.903703" lon="-2.547226">
        <ele>555.648</ele>
        <time>2022-03-20T12:47:12Z</time>
      </trkpt>
      <trkpt lat="42.903706" lon="-2.547215">
        <ele>555.636</ele>
        <time>2022-03-20T12:47:13Z</time>
      </trkpt>
      <trkpt lat="42.90371" lon="-2.547202">
        <ele>555.881</ele>
        <time>2022-03-20T12:47:14Z</time>
      </trkpt>
      <trkpt lat="42.903716" lon="-2.547188">
        <ele>555.861</ele>
        <time>2022-03-20T12:47:15Z</time>
      </trkpt>
      <trkpt lat="42.903721" lon="-2.547176">
        <ele>555.817</ele>
        <time>2022-03-20T12:47:16Z</time>
      </trkpt>
      <trkpt lat="42.903725" lon="-2.547166">
        <ele>555.808</ele>
        <time>2022-03-20T12:47:17Z</time>
      </trkpt>
      <trkpt lat="42.90373" lon="-2.547155">
        <ele>555.897</ele>
        <time>2022-03-20T12:47:18Z</time>
      </trkpt>
      <trkpt lat="42.903735" lon="-2.547142">
        <ele>555.875</ele>
        <time>2022-03-20T12:47:19Z</time>
      </trkpt>
      <trkpt lat="42.903739" lon="-2.547129">
        <ele>555.897</ele>
        <time>2022-03-20T12:47:20Z</time>
      </trkpt>
      <trkpt lat="42.903742" lon="-2.547116">
        <ele>555.679</ele>
        <time>2022-03-20T12:47:21Z</time>
      </trkpt>
      <trkpt lat="42.903746" lon="-2.547104">
        <ele>555.687</ele>
        <time>2022-03-20T12:47:22Z</time>
      </trkpt>
      <trkpt lat="42.903753" lon="-2.547091">
        <ele>555.690</ele>
        <time>2022-03-20T12:47:23Z</time>
      </trkpt>
      <trkpt lat="42.903758" lon="-2.547077">
        <ele>555.489</ele>
        <time>2022-03-20T12:47:24Z</time>
      </trkpt>
      <trkpt lat="42.903762" lon="-2.547063">
        <ele>555.437</ele>
        <time>2022-03-20T12:47:25Z</time>
      </trkpt>
      <trkpt lat="42.903765" lon="-2.54705">
        <ele>555.633</ele>
        <time>2022-03-20T12:47:26Z</time>
      </trkpt>
      <trkpt lat="42.903767" lon="-2.547038">
        <ele>555.623</ele>
        <time>2022-03-20T12:47:27Z</time>
      </trkpt>
      <trkpt lat="42.90377" lon="-2.547027">
        <ele>556.215</ele>
        <time>2022-03-20T12:47:28Z</time>
      </trkpt>
      <trkpt lat="42.903772" lon="-2.547012">
        <ele>555.808</ele>
        <time>2022-03-20T12:47:29Z</time>
      </trkpt>
      <trkpt lat="42.903773" lon="-2.546998">
        <ele>556.212</ele>
        <time>2022-03-20T12:47:30Z</time>
      </trkpt>
      <trkpt lat="42.903773" lon="-2.546986">
        <ele>556.220</ele>
        <time>2022-03-20T12:47:31Z</time>
      </trkpt>
      <trkpt lat="42.903778" lon="-2.546974">
        <ele>556.272</ele>
        <time>2022-03-20T12:47:32Z</time>
      </trkpt>
      <trkpt lat="42.903781" lon="-2.546963">
        <ele>556.224</ele>
        <time>2022-03-20T12:47:33Z</time>
      </trkpt>
      <trkpt lat="42.903781" lon="-2.546953">
        <ele>556.232</ele>
        <time>2022-03-20T12:47:34Z</time>
      </trkpt>
      <trkpt lat="42.903778" lon="-2.546947">
        <ele>556.015</ele>
        <time>2022-03-20T12:47:35Z</time>
      </trkpt>
      <trkpt lat="42.903776" lon="-2.546948">
        <ele>556.024</ele>
        <time>2022-03-20T12:47:36Z</time>
      </trkpt>
      <trkpt lat="42.903773" lon="-2.546949">
        <ele>556.042</ele>
        <time>2022-03-20T12:47:37Z</time>
      </trkpt>
      <trkpt lat="42.903773" lon="-2.54695">
        <ele>555.455</ele>
        <time>2022-03-20T12:47:38Z</time>
      </trkpt>
      <trkpt lat="42.903771" lon="-2.546953">
        <ele>555.407</ele>
        <time>2022-03-20T12:47:39Z</time>
      </trkpt>
      <trkpt lat="42.90377" lon="-2.546954">
        <ele>555.217</ele>
        <time>2022-03-20T12:47:40Z</time>
      </trkpt>
      <trkpt lat="42.903769" lon="-2.546956">
        <ele>555.208</ele>
        <time>2022-03-20T12:47:41Z</time>
      </trkpt>
      <trkpt lat="42.903768" lon="-2.546957">
        <ele>555.064</ele>
        <time>2022-03-20T12:47:42Z</time>
      </trkpt>
      <trkpt lat="42.903768" lon="-2.546958">
        <ele>555.092</ele>
        <time>2022-03-20T12:47:43Z</time>
      </trkpt>
      <trkpt lat="42.903769" lon="-2.54696">
        <ele>555.064</ele>
        <time>2022-03-20T12:47:44Z</time>
      </trkpt>
      <trkpt lat="42.90377" lon="-2.54696">
        <ele>555.046</ele>
        <time>2022-03-20T12:47:45Z</time>
      </trkpt>
      <trkpt lat="42.90377" lon="-2.54696">
        <ele>555.024</ele>
        <time>2022-03-20T12:47:46Z</time>
      </trkpt>
      <trkpt lat="42.90377" lon="-2.54696">
        <ele>555.057</ele>
        <time>2022-03-20T12:47:47Z</time>
      </trkpt>
      <trkpt lat="42.90377" lon="-2.54696">
        <ele>555.046</ele>
        <time>2022-03-20T12:47:48Z</time>
      </trkpt>
      <trkpt lat="42.90377" lon="-2.54696">
        <ele>555.074</ele>
        <time>2022-03-20T12:47:49Z</time>
      </trkpt>
      <trkpt lat="42.90377" lon="-2.54696">
        <ele>555.092</ele>
        <time>2022-03-20T12:47:50Z</time>
      </trkpt>
      <trkpt lat="42.90377" lon="-2.54696">
        <ele>555.073</ele>
        <time>2022-03-20T12:47:51Z</time>
      </trkpt>
      <trkpt lat="42.90377" lon="-2.54696">
        <ele>555.020</ele>
        <time>2022-03-20T12:47:52Z</time>
      </trkpt>
      <trkpt lat="42.90377" lon="-2.54696">
        <ele>555.208</ele>
        <time>2022-03-20T12:47:53Z</time>
      </trkpt>
      <trkpt lat="42.90377" lon="-2.54696">
        <ele>555.288</ele>
        <time>2022-03-20T12:47:54Z</time>
      </trkpt>
      <trkpt lat="42.90377" lon="-2.546959">
        <ele>555.236</ele>
        <time>2022-03-20T12:47:55Z</time>
      </trkpt>
      <trkpt lat="42.90377" lon="-2.546958">
        <ele>555.098</ele>
        <time>2022-03-20T12:47:56Z</time>
      </trkpt>
      <trkpt lat="42.90377" lon="-2.546958">
        <ele>555.080</ele>
        <time>2022-03-20T12:47:57Z</time>
      </trkpt>
      <trkpt lat="42.90377" lon="-2.546957">
        <ele>555.068</ele>
        <time>2022-03-20T12:47:58Z</time>
      </trkpt>
      <trkpt lat="42.90377" lon="-2.546956">
        <ele>555.091</ele>
        <time>2022-03-20T12:47:59Z</time>
      </trkpt>
      <trkpt lat="42.90377" lon="-2.546955">
        <ele>555.060</ele>
        <time>2022-03-20T12:48:00Z</time>
      </trkpt>
      <trkpt lat="42.90377" lon="-2.546955">
        <ele>555.078</ele>
        <time>2022-03-20T12:48:01Z</time>
      </trkpt>
      <trkpt lat="42.90377" lon="-2.546953">
        <ele>554.429</ele>
        <time>2022-03-20T12:48:02Z</time>
      </trkpt>
      <trkpt lat="42.903771" lon="-2.546953">
        <ele>554.400</ele>
        <time>2022-03-20T12:48:03Z</time>
      </trkpt>
      <trkpt lat="42.903771" lon="-2.546953">
        <ele>554.420</ele>
        <time>2022-03-20T12:48:04Z</time>
      </trkpt>
      <trkpt lat="42.903771" lon="-2.546953">
        <ele>554.408</ele>
        <time>2022-03-20T12:48:05Z</time>
      </trkpt>
      <trkpt lat="42.903771" lon="-2.546953">
        <ele>554.261</ele>
        <time>2022-03-20T12:48:06Z</time>
      </trkpt>
      <trkpt lat="42.903771" lon="-2.546953">
        <ele>554.239</ele>
        <time>2022-03-20T12:48:07Z</time>
      </trkpt>
      <trkpt lat="42.903771" lon="-2.546953">
        <ele>554.021</ele>
        <time>2022-03-20T12:48:08Z</time>
      </trkpt>
      <trkpt lat="42.903771" lon="-2.546953">
        <ele>554.013</ele>
        <time>2022-03-20T12:48:09Z</time>
      </trkpt>
      <trkpt lat="42.903771" lon="-2.546953">
        <ele>554.021</ele>
        <time>2022-03-20T12:48:10Z</time>
      </trkpt>
      <trkpt lat="42.903771" lon="-2.546952">
        <ele>554.024</ele>
        <time>2022-03-20T12:48:11Z</time>
      </trkpt>
      <trkpt lat="42.903771" lon="-2.546952">
        <ele>554.033</ele>
        <time>2022-03-20T12:48:12Z</time>
      </trkpt>
      <trkpt lat="42.903771" lon="-2.546952">
        <ele>553.841</ele>
        <time>2022-03-20T12:48:13Z</time>
      </trkpt>
      <trkpt lat="42.903772" lon="-2.546952">
        <ele>554.032</ele>
        <time>2022-03-20T12:48:14Z</time>
      </trkpt>
      <trkpt lat="42.903772" lon="-2.546952">
        <ele>554.292</ele>
        <time>2022-03-20T12:48:15Z</time>
      </trkpt>
      <trkpt lat="42.903772" lon="-2.546952">
        <ele>554.211</ele>
        <time>2022-03-20T12:48:16Z</time>
      </trkpt>
      <trkpt lat="42.903772" lon="-2.546952">
        <ele>554.008</ele>
        <time>2022-03-20T12:48:17Z</time>
      </trkpt>
      <trkpt lat="42.903772" lon="-2.546952">
        <ele>553.472</ele>
        <time>2022-03-20T12:48:18Z</time>
      </trkpt>
      <trkpt lat="42.903772" lon="-2.546952">
        <ele>553.420</ele>
        <time>2022-03-20T12:48:19Z</time>
      </trkpt>
      <trkpt lat="42.903771" lon="-2.546952">
        <ele>554.282</ele>
        <time>2022-03-20T12:48:20Z</time>
      </trkpt>
      <trkpt lat="42.903771" lon="-2.546952">
        <ele>554.254</ele>
        <time>2022-03-20T12:48:21Z</time>
      </trkpt>
      <trkpt lat="42.903771" lon="-2.546952">
        <ele>554.212</ele>
        <time>2022-03-20T12:48:22Z</time>
      </trkpt>
      <trkpt lat="42.903771" lon="-2.546952">
        <ele>554.485</ele>
        <time>2022-03-20T12:48:23Z</time>
      </trkpt>
      <trkpt lat="42.903771" lon="-2.546952">
        <ele>554.454</ele>
        <time>2022-03-20T12:48:24Z</time>
      </trkpt>
      <trkpt lat="42.903771" lon="-2.546952">
        <ele>554.692</ele>
        <time>2022-03-20T12:48:25Z</time>
      </trkpt>
      <trkpt lat="42.903771" lon="-2.546952">
        <ele>554.631</ele>
        <time>2022-03-20T12:48:26Z</time>
      </trkpt>
      <trkpt lat="42.903771" lon="-2.546952">
        <ele>554.661</ele>
        <time>2022-03-20T12:48:27Z</time>
      </trkpt>
      <trkpt lat="42.903771" lon="-2.546952">
        <ele>554.607</ele>
        <time>2022-03-20T12:48:28Z</time>
      </trkpt>
      <trkpt lat="42.903771" lon="-2.546952">
        <ele>554.608</ele>
        <time>2022-03-20T12:48:29Z</time>
      </trkpt>
      <trkpt lat="42.903771" lon="-2.546952">
        <ele>554.472</ele>
        <time>2022-03-20T12:48:30Z</time>
      </trkpt>
      <trkpt lat="42.903771" lon="-2.546952">
        <ele>554.420</ele>
        <time>2022-03-20T12:48:31Z</time>
      </trkpt>
      <trkpt lat="42.903772" lon="-2.546952">
        <ele>554.452</ele>
        <time>2022-03-20T12:48:32Z</time>
      </trkpt>
      <trkpt lat="42.903772" lon="-2.546952">
        <ele>554.234</ele>
        <time>2022-03-20T12:48:33Z</time>
      </trkpt>
      <trkpt lat="42.903772" lon="-2.546951">
        <ele>553.812</ele>
        <time>2022-03-20T12:48:34Z</time>
      </trkpt>
      <trkpt lat="42.903772" lon="-2.54695">
        <ele>553.885</ele>
        <time>2022-03-20T12:48:35Z</time>
      </trkpt>
      <trkpt lat="42.903772" lon="-2.54695">
        <ele>553.824</ele>
        <time>2022-03-20T12:48:36Z</time>
      </trkpt>
      <trkpt lat="42.903772" lon="-2.54695">
        <ele>553.892</ele>
        <time>2022-03-20T12:48:37Z</time>
      </trkpt>
      <trkpt lat="42.903773" lon="-2.54695">
        <ele>553.866</ele>
        <time>2022-03-20T12:48:38Z</time>
      </trkpt>
      <trkpt lat="42.903773" lon="-2.54695">
        <ele>553.829</ele>
        <time>2022-03-20T12:48:39Z</time>
      </trkpt>
      <trkpt lat="42.903773" lon="-2.54695">
        <ele>553.821</ele>
        <time>2022-03-20T12:48:40Z</time>
      </trkpt>
      <trkpt lat="42.903773" lon="-2.54695">
        <ele>553.808</ele>
        <time>2022-03-20T12:48:41Z</time>
      </trkpt>
      <trkpt lat="42.903773" lon="-2.546949">
        <ele>553.885</ele>
        <time>2022-03-20T12:48:42Z</time>
      </trkpt>
      <trkpt lat="42.903774" lon="-2.546948">
        <ele>553.823</ele>
        <time>2022-03-20T12:48:43Z</time>
      </trkpt>
      <trkpt lat="42.903775" lon="-2.546948">
        <ele>553.665</ele>
        <time>2022-03-20T12:48:44Z</time>
      </trkpt>
      <trkpt lat="42.903776" lon="-2.546947">
        <ele>553.617</ele>
        <time>2022-03-20T12:48:45Z</time>
      </trkpt>
      <trkpt lat="42.903776" lon="-2.546947">
        <ele>553.665</ele>
        <time>2022-03-20T12:48:46Z</time>
      </trkpt>
      <trkpt lat="42.903777" lon="-2.546946">
        <ele>553.648</ele>
        <time>2022-03-20T12:48:47Z</time>
      </trkpt>
      <trkpt lat="42.903777" lon="-2.546946">
        <ele>553.867</ele>
        <time>2022-03-20T12:48:48Z</time>
      </trkpt>
      <trkpt lat="42.903777" lon="-2.546946">
        <ele>553.835</ele>
        <time>2022-03-20T12:48:49Z</time>
      </trkpt>
      <trkpt lat="42.903778" lon="-2.546946">
        <ele>553.653</ele>
        <time>2022-03-20T12:48:50Z</time>
      </trkpt>
      <trkpt lat="42.903778" lon="-2.546946">
        <ele>553.604</ele>
        <time>2022-03-20T12:48:51Z</time>
      </trkpt>
      <trkpt lat="42.903778" lon="-2.546946">
        <ele>553.614</ele>
        <time>2022-03-20T12:48:52Z</time>
      </trkpt>
      <trkpt lat="42.903778" lon="-2.546946">
        <ele>553.208</ele>
        <time>2022-03-20T12:48:53Z</time>
      </trkpt>
      <trkpt lat="42.903778" lon="-2.546946">
        <ele>552.654</ele>
        <time>2022-03-20T12:48:54Z</time>
      </trkpt>
      <trkpt lat="42.903778" lon="-2.546945">
        <ele>552.482</ele>
        <time>2022-03-20T12:48:55Z</time>
      </trkpt>
      <trkpt lat="42.903778" lon="-2.546945">
        <ele>552.414</ele>
        <time>2022-03-20T12:48:56Z</time>
      </trkpt>
      <trkpt lat="42.903778" lon="-2.546942">
        <ele>552.416</ele>
        <time>2022-03-20T12:48:57Z</time>
      </trkpt>
      <trkpt lat="42.903778" lon="-2.546935">
        <ele>552.454</ele>
        <time>2022-03-20T12:48:58Z</time>
      </trkpt>
      <trkpt lat="42.903778" lon="-2.546928">
        <ele>552.447</ele>
        <time>2022-03-20T12:48:59Z</time>
      </trkpt>
      <trkpt lat="42.903778" lon="-2.546924">
        <ele>552.676</ele>
        <time>2022-03-20T12:49:00Z</time>
      </trkpt>
      <trkpt lat="42.903778" lon="-2.546923">
        <ele>553.074</ele>
        <time>2022-03-20T12:49:01Z</time>
      </trkpt>
      <trkpt lat="42.903778" lon="-2.546923">
        <ele>553.211</ele>
        <time>2022-03-20T12:49:02Z</time>
      </trkpt>
      <trkpt lat="42.903778" lon="-2.546916">
        <ele>553.221</ele>
        <time>2022-03-20T12:49:03Z</time>
      </trkpt>
      <trkpt lat="42.903781" lon="-2.546896">
        <ele>553.203</ele>
        <time>2022-03-20T12:49:04Z</time>
      </trkpt>
      <trkpt lat="42.903782" lon="-2.546876">
        <ele>553.208</ele>
        <time>2022-03-20T12:49:05Z</time>
      </trkpt>
      <trkpt lat="42.903784" lon="-2.546854">
        <ele>553.250</ele>
        <time>2022-03-20T12:49:06Z</time>
      </trkpt>
      <trkpt lat="42.903787" lon="-2.546833">
        <ele>553.278</ele>
        <time>2022-03-20T12:49:07Z</time>
      </trkpt>
      <trkpt lat="42.903791" lon="-2.546813">
        <ele>553.620</ele>
        <time>2022-03-20T12:49:08Z</time>
      </trkpt>
      <trkpt lat="42.903795" lon="-2.546794">
        <ele>553.632</ele>
        <time>2022-03-20T12:49:09Z</time>
      </trkpt>
      <trkpt lat="42.903796" lon="-2.546774">
        <ele>553.650</ele>
        <time>2022-03-20T12:49:10Z</time>
      </trkpt>
      <trkpt lat="42.903797" lon="-2.546753">
        <ele>553.823</ele>
        <time>2022-03-20T12:49:11Z</time>
      </trkpt>
      <trkpt lat="42.903798" lon="-2.546733">
        <ele>553.842</ele>
        <time>2022-03-20T12:49:12Z</time>
      </trkpt>
      <trkpt lat="42.903799" lon="-2.54672">
        <ele>553.430</ele>
        <time>2022-03-20T12:49:13Z</time>
      </trkpt>
      <trkpt lat="42.903798" lon="-2.546715">
        <ele>553.237</ele>
        <time>2022-03-20T12:49:14Z</time>
      </trkpt>
      <trkpt lat="42.903798" lon="-2.54671">
        <ele>553.249</ele>
        <time>2022-03-20T12:49:15Z</time>
      </trkpt>
      <trkpt lat="42.903797" lon="-2.546705">
        <ele>553.413</ele>
        <time>2022-03-20T12:49:16Z</time>
      </trkpt>
      <trkpt lat="42.903797" lon="-2.546695">
        <ele>553.208</ele>
        <time>2022-03-20T12:49:17Z</time>
      </trkpt>
      <trkpt lat="42.903797" lon="-2.546687">
        <ele>553.242</ele>
        <time>2022-03-20T12:49:18Z</time>
      </trkpt>
      <trkpt lat="42.903797" lon="-2.546679">
        <ele>553.240</ele>
        <time>2022-03-20T12:49:19Z</time>
      </trkpt>
      <trkpt lat="42.903799" lon="-2.546669">
        <ele>553.652</ele>
        <time>2022-03-20T12:49:20Z</time>
      </trkpt>
      <trkpt lat="42.903801" lon="-2.546657">
        <ele>554.014</ele>
        <time>2022-03-20T12:49:21Z</time>
      </trkpt>
      <trkpt lat="42.903803" lon="-2.546644">
        <ele>553.622</ele>
        <time>2022-03-20T12:49:22Z</time>
      </trkpt>
      <trkpt lat="42.903805" lon="-2.546628">
        <ele>553.625</ele>
        <time>2022-03-20T12:49:23Z</time>
      </trkpt>
      <trkpt lat="42.903806" lon="-2.546611">
        <ele>554.094</ele>
        <time>2022-03-20T12:49:24Z</time>
      </trkpt>
      <trkpt lat="42.903807" lon="-2.546595">
        <ele>553.812</ele>
        <time>2022-03-20T12:49:25Z</time>
      </trkpt>
      <trkpt lat="42.903806" lon="-2.54658">
        <ele>553.819</ele>
        <time>2022-03-20T12:49:26Z</time>
      </trkpt>
      <trkpt lat="42.903806" lon="-2.546566">
        <ele>553.809</ele>
        <time>2022-03-20T12:49:27Z</time>
      </trkpt>
      <trkpt lat="42.903806" lon="-2.546554">
        <ele>553.819</ele>
        <time>2022-03-20T12:49:28Z</time>
      </trkpt>
      <trkpt lat="42.903806" lon="-2.546541">
        <ele>553.808</ele>
        <time>2022-03-20T12:49:29Z</time>
      </trkpt>
      <trkpt lat="42.903807" lon="-2.546526">
        <ele>553.820</ele>
        <time>2022-03-20T12:49:30Z</time>
      </trkpt>
      <trkpt lat="42.903808" lon="-2.546514">
        <ele>553.698</ele>
        <time>2022-03-20T12:49:31Z</time>
      </trkpt>
      <trkpt lat="42.903807" lon="-2.546503">
        <ele>553.650</ele>
        <time>2022-03-20T12:49:32Z</time>
      </trkpt>
      <trkpt lat="42.903805" lon="-2.546489">
        <ele>553.632</ele>
        <time>2022-03-20T12:49:33Z</time>
      </trkpt>
      <trkpt lat="42.903802" lon="-2.546474">
        <ele>553.650</ele>
        <time>2022-03-20T12:49:34Z</time>
      </trkpt>
      <trkpt lat="42.903799" lon="-2.54646">
        <ele>553.633</ele>
        <time>2022-03-20T12:49:35Z</time>
      </trkpt>
      <trkpt lat="42.903797" lon="-2.546446">
        <ele>553.032</ele>
        <time>2022-03-20T12:49:36Z</time>
      </trkpt>
      <trkpt lat="42.903796" lon="-2.546436">
        <ele>553.670</ele>
        <time>2022-03-20T12:49:37Z</time>
      </trkpt>
      <trkpt lat="42.903793" lon="-2.546426">
        <ele>553.081</ele>
        <time>2022-03-20T12:49:38Z</time>
      </trkpt>
      <trkpt lat="42.903793" lon="-2.546419">
        <ele>553.661</ele>
        <time>2022-03-20T12:49:39Z</time>
      </trkpt>
      <trkpt lat="42.903791" lon="-2.546411">
        <ele>553.417</ele>
        <time>2022-03-20T12:49:40Z</time>
      </trkpt>
      <trkpt lat="42.903788" lon="-2.5464">
        <ele>553.408</ele>
        <time>2022-03-20T12:49:41Z</time>
      </trkpt>
      <trkpt lat="42.903783" lon="-2.546386">
        <ele>553.477</ele>
        <time>2022-03-20T12:49:42Z</time>
      </trkpt>
      <trkpt lat="42.90378" lon="-2.546372">
        <ele>553.625</ele>
        <time>2022-03-20T12:49:43Z</time>
      </trkpt>
      <trkpt lat="42.903777" lon="-2.54636">
        <ele>553.457</ele>
        <time>2022-03-20T12:49:44Z</time>
      </trkpt>
      <trkpt lat="42.903778" lon="-2.546348">
        <ele>553.679</ele>
        <time>2022-03-20T12:49:45Z</time>
      </trkpt>
      <trkpt lat="42.903776" lon="-2.546337">
        <ele>553.487</ele>
        <time>2022-03-20T12:49:46Z</time>
      </trkpt>
      <trkpt lat="42.903771" lon="-2.546323">
        <ele>553.450</ele>
        <time>2022-03-20T12:49:47Z</time>
      </trkpt>
      <trkpt lat="42.903766" lon="-2.546309">
        <ele>553.649</ele>
        <time>2022-03-20T12:49:48Z</time>
      </trkpt>
      <trkpt lat="42.903763" lon="-2.546296">
        <ele>553.457</ele>
        <time>2022-03-20T12:49:49Z</time>
      </trkpt>
      <trkpt lat="42.903761" lon="-2.546284">
        <ele>553.413</ele>
        <time>2022-03-20T12:49:50Z</time>
      </trkpt>
      <trkpt lat="42.903757" lon="-2.546275">
        <ele>553.443</ele>
        <time>2022-03-20T12:49:51Z</time>
      </trkpt>
      <trkpt lat="42.903756" lon="-2.546264">
        <ele>553.407</ele>
        <time>2022-03-20T12:49:52Z</time>
      </trkpt>
      <trkpt lat="42.903751" lon="-2.546255">
        <ele>553.408</ele>
        <time>2022-03-20T12:49:53Z</time>
      </trkpt>
      <trkpt lat="42.903747" lon="-2.546249">
        <ele>553.440</ele>
        <time>2022-03-20T12:49:54Z</time>
      </trkpt>
      <trkpt lat="42.903747" lon="-2.546245">
        <ele>553.098</ele>
        <time>2022-03-20T12:49:55Z</time>
      </trkpt>
      <trkpt lat="42.903746" lon="-2.546244">
        <ele>553.050</ele>
        <time>2022-03-20T12:49:56Z</time>
      </trkpt>
      <trkpt lat="42.903744" lon="-2.546245">
        <ele>553.032</ele>
        <time>2022-03-20T12:49:57Z</time>
      </trkpt>
      <trkpt lat="42.903743" lon="-2.546244">
        <ele>552.870</ele>
        <time>2022-03-20T12:49:58Z</time>
      </trkpt>
      <trkpt lat="42.903739" lon="-2.546244">
        <ele>552.813</ele>
        <time>2022-03-20T12:49:59Z</time>
      </trkpt>
      <trkpt lat="42.903739" lon="-2.546242">
        <ele>552.852</ele>
        <time>2022-03-20T12:50:00Z</time>
      </trkpt>
      <trkpt lat="42.90374" lon="-2.546239">
        <ele>552.210</ele>
        <time>2022-03-20T12:50:01Z</time>
      </trkpt>
      <trkpt lat="42.903739" lon="-2.546239">
        <ele>552.241</ele>
        <time>2022-03-20T12:50:02Z</time>
      </trkpt>
      <trkpt lat="42.903737" lon="-2.546238">
        <ele>552.081</ele>
        <time>2022-03-20T12:50:03Z</time>
      </trkpt>
      <trkpt lat="42.903739" lon="-2.546233">
        <ele>552.009</ele>
        <time>2022-03-20T12:50:04Z</time>
      </trkpt>
      <trkpt lat="42.903739" lon="-2.546231">
        <ele>552.008</ele>
        <time>2022-03-20T12:50:05Z</time>
      </trkpt>
      <trkpt lat="42.903741" lon="-2.546229">
        <ele>552.083</ele>
        <time>2022-03-20T12:50:06Z</time>
      </trkpt>
      <trkpt lat="42.90374" lon="-2.546232">
        <ele>552.291</ele>
        <time>2022-03-20T12:50:07Z</time>
      </trkpt>
      <trkpt lat="42.90374" lon="-2.546235">
        <ele>552.283</ele>
        <time>2022-03-20T12:50:08Z</time>
      </trkpt>
      <trkpt lat="42.903741" lon="-2.546237">
        <ele>552.655</ele>
        <time>2022-03-20T12:50:09Z</time>
      </trkpt>
      <trkpt lat="42.903742" lon="-2.546232">
        <ele>552.653</ele>
        <time>2022-03-20T12:50:10Z</time>
      </trkpt>
      <trkpt lat="42.903738" lon="-2.546223">
        <ele>552.846</ele>
        <time>2022-03-20T12:50:11Z</time>
      </trkpt>
      <trkpt lat="42.903731" lon="-2.546214">
        <ele>553.245</ele>
        <time>2022-03-20T12:50:12Z</time>
      </trkpt>
      <trkpt lat="42.903719" lon="-2.546205">
        <ele>553.263</ele>
        <time>2022-03-20T12:50:13Z</time>
      </trkpt>
      <trkpt lat="42.90371" lon="-2.5462">
        <ele>552.888</ele>
        <time>2022-03-20T12:50:14Z</time>
      </trkpt>
      <trkpt lat="42.903705" lon="-2.546193">
        <ele>552.624</ele>
        <time>2022-03-20T12:50:15Z</time>
      </trkpt>
      <trkpt lat="42.903702" lon="-2.546184">
        <ele>552.826</ele>
        <time>2022-03-20T12:50:16Z</time>
      </trkpt>
      <trkpt lat="42.903693" lon="-2.546177">
        <ele>552.808</ele>
        <time>2022-03-20T12:50:17Z</time>
      </trkpt>
      <trkpt lat="42.903686" lon="-2.546171">
        <ele>551.417</ele>
        <time>2022-03-20T12:50:18Z</time>
      </trkpt>
      <trkpt lat="42.903678" lon="-2.546165">
        <ele>551.065</ele>
        <time>2022-03-20T12:50:19Z</time>
      </trkpt>
      <trkpt lat="42.903671" lon="-2.546157">
        <ele>551.427</ele>
        <time>2022-03-20T12:50:20Z</time>
      </trkpt>
      <trkpt lat="42.903664" lon="-2.546149">
        <ele>551.429</ele>
        <time>2022-03-20T12:50:21Z</time>
      </trkpt>
      <trkpt lat="42.903656" lon="-2.546139">
        <ele>552.427</ele>
        <time>2022-03-20T12:50:22Z</time>
      </trkpt>
      <trkpt lat="42.903647" lon="-2.546129">
        <ele>552.260</ele>
        <time>2022-03-20T12:50:23Z</time>
      </trkpt>
      <trkpt lat="42.903637" lon="-2.546119">
        <ele>552.289</ele>
        <time>2022-03-20T12:50:24Z</time>
      </trkpt>
      <trkpt lat="42.903628" lon="-2.54611">
        <ele>552.227</ele>
        <time>2022-03-20T12:50:25Z</time>
      </trkpt>
      <trkpt lat="42.903621" lon="-2.546103">
        <ele>552.238</ele>
        <time>2022-03-20T12:50:26Z</time>
      </trkpt>
      <trkpt lat="42.903615" lon="-2.546094">
        <ele>552.270</ele>
        <time>2022-03-20T12:50:27Z</time>
      </trkpt>
      <trkpt lat="42.903609" lon="-2.546085">
        <ele>552.217</ele>
        <time>2022-03-20T12:50:28Z</time>
      </trkpt>
      <trkpt lat="42.903601" lon="-2.546076">
        <ele>551.808</ele>
        <time>2022-03-20T12:50:29Z</time>
      </trkpt>
      <trkpt lat="42.903593" lon="-2.546069">
        <ele>551.882</ele>
        <time>2022-03-20T12:50:30Z</time>
      </trkpt>
      <trkpt lat="42.903584" lon="-2.546064">
        <ele>551.840</ele>
        <time>2022-03-20T12:50:31Z</time>
      </trkpt>
      <trkpt lat="42.903576" lon="-2.546058">
        <ele>552.482</ele>
        <time>2022-03-20T12:50:32Z</time>
      </trkpt>
      <trkpt lat="42.90357" lon="-2.54605">
        <ele>552.494</ele>
        <time>2022-03-20T12:50:33Z</time>
      </trkpt>
      <trkpt lat="42.903562" lon="-2.546041">
        <ele>552.672</ele>
        <time>2022-03-20T12:50:34Z</time>
      </trkpt>
      <trkpt lat="42.903553" lon="-2.546033">
        <ele>552.495</ele>
        <time>2022-03-20T12:50:35Z</time>
      </trkpt>
      <trkpt lat="42.903547" lon="-2.546025">
        <ele>552.474</ele>
        <time>2022-03-20T12:50:36Z</time>
      </trkpt>
      <trkpt lat="42.90354" lon="-2.546022">
        <ele>552.492</ele>
        <time>2022-03-20T12:50:37Z</time>
      </trkpt>
      <trkpt lat="42.90353" lon="-2.546017">
        <ele>552.236</ele>
        <time>2022-03-20T12:50:38Z</time>
      </trkpt>
      <trkpt lat="42.90352" lon="-2.546014">
        <ele>552.017</ele>
        <time>2022-03-20T12:50:39Z</time>
      </trkpt>
      <trkpt lat="42.903512" lon="-2.546008">
        <ele>551.818</ele>
        <time>2022-03-20T12:50:40Z</time>
      </trkpt>
      <trkpt lat="42.903504" lon="-2.546002">
        <ele>551.808</ele>
        <time>2022-03-20T12:50:41Z</time>
      </trkpt>
      <trkpt lat="42.903496" lon="-2.545995">
        <ele>551.862</ele>
        <time>2022-03-20T12:50:42Z</time>
      </trkpt>
      <trkpt lat="42.903487" lon="-2.545988">
        <ele>552.210</ele>
        <time>2022-03-20T12:50:43Z</time>
      </trkpt>
      <trkpt lat="42.90348" lon="-2.54598">
        <ele>551.412</ele>
        <time>2022-03-20T12:50:44Z</time>
      </trkpt>
      <trkpt lat="42.903475" lon="-2.545972">
        <ele>551.424</ele>
        <time>2022-03-20T12:50:45Z</time>
      </trkpt>
      <trkpt lat="42.903471" lon="-2.545967">
        <ele>551.622</ele>
        <time>2022-03-20T12:50:46Z</time>
      </trkpt>
      <trkpt lat="42.903466" lon="-2.545959">
        <ele>552.225</ele>
        <time>2022-03-20T12:50:47Z</time>
      </trkpt>
      <trkpt lat="42.903457" lon="-2.545953">
        <ele>552.244</ele>
        <time>2022-03-20T12:50:48Z</time>
      </trkpt>
      <trkpt lat="42.903448" lon="-2.545949">
        <ele>552.092</ele>
        <time>2022-03-20T12:50:49Z</time>
      </trkpt>
      <trkpt lat="42.903437" lon="-2.545945">
        <ele>552.099</ele>
        <time>2022-03-20T12:50:50Z</time>
      </trkpt>
      <trkpt lat="42.903429" lon="-2.545937">
        <ele>552.007</ele>
        <time>2022-03-20T12:50:51Z</time>
      </trkpt>
      <trkpt lat="42.903418" lon="-2.545933">
        <ele>552.027</ele>
        <time>2022-03-20T12:50:52Z</time>
      </trkpt>
      <trkpt lat="42.903405" lon="-2.545931">
        <ele>552.808</ele>
        <time>2022-03-20T12:50:53Z</time>
      </trkpt>
      <trkpt lat="42.903397" lon="-2.545922">
        <ele>552.868</ele>
        <time>2022-03-20T12:50:54Z</time>
      </trkpt>
      <trkpt lat="42.903392" lon="-2.545917">
        <ele>552.866</ele>
        <time>2022-03-20T12:50:55Z</time>
      </trkpt>
      <trkpt lat="42.903386" lon="-2.545906">
        <ele>552.888</ele>
        <time>2022-03-20T12:50:56Z</time>
      </trkpt>
      <trkpt lat="42.903375" lon="-2.545892">
        <ele>552.840</ele>
        <time>2022-03-20T12:50:57Z</time>
      </trkpt>
      <trkpt lat="42.903363" lon="-2.545882">
        <ele>552.828</ele>
        <time>2022-03-20T12:50:58Z</time>
      </trkpt>
      <trkpt lat="42.903353" lon="-2.54588">
        <ele>552.811</ele>
        <time>2022-03-20T12:50:59Z</time>
      </trkpt>
      <trkpt lat="42.903346" lon="-2.545881">
        <ele>552.870</ele>
        <time>2022-03-20T12:51:00Z</time>
      </trkpt>
      <trkpt lat="42.903339" lon="-2.545885">
        <ele>552.678</ele>
        <time>2022-03-20T12:51:01Z</time>
      </trkpt>
      <trkpt lat="42.903336" lon="-2.545884">
        <ele>552.465</ele>
        <time>2022-03-20T12:51:02Z</time>
      </trkpt>
      <trkpt lat="42.903334" lon="-2.545884">
        <ele>552.468</ele>
        <time>2022-03-20T12:51:03Z</time>
      </trkpt>
      <trkpt lat="42.903331" lon="-2.545882">
        <ele>552.414</ele>
        <time>2022-03-20T12:51:04Z</time>
      </trkpt>
      <trkpt lat="42.903328" lon="-2.54588">
        <ele>552.208</ele>
        <time>2022-03-20T12:51:05Z</time>
      </trkpt>
      <trkpt lat="42.903322" lon="-2.545878">
        <ele>552.245</ele>
        <time>2022-03-20T12:51:06Z</time>
      </trkpt>
      <trkpt lat="42.903316" lon="-2.545875">
        <ele>552.243</ele>
        <time>2022-03-20T12:51:07Z</time>
      </trkpt>
      <trkpt lat="42.903308" lon="-2.545872">
        <ele>552.295</ele>
        <time>2022-03-20T12:51:08Z</time>
      </trkpt>
      <trkpt lat="42.903298" lon="-2.545869">
        <ele>552.077</ele>
        <time>2022-03-20T12:51:09Z</time>
      </trkpt>
      <trkpt lat="42.903287" lon="-2.545861">
        <ele>552.065</ele>
        <time>2022-03-20T12:51:10Z</time>
      </trkpt>
      <trkpt lat="42.903277" lon="-2.545849">
        <ele>552.048</ele>
        <time>2022-03-20T12:51:11Z</time>
      </trkpt>
      <trkpt lat="42.903268" lon="-2.545846">
        <ele>552.037</ele>
        <time>2022-03-20T12:51:12Z</time>
      </trkpt>
      <trkpt lat="42.903257" lon="-2.545842">
        <ele>552.025</ele>
        <time>2022-03-20T12:51:13Z</time>
      </trkpt>
      <trkpt lat="42.903246" lon="-2.545839">
        <ele>551.421</ele>
        <time>2022-03-20T12:51:14Z</time>
      </trkpt>
      <trkpt lat="42.903241" lon="-2.54584">
        <ele>551.441</ele>
        <time>2022-03-20T12:51:15Z</time>
      </trkpt>
      <trkpt lat="42.903231" lon="-2.545832">
        <ele>551.205</ele>
        <time>2022-03-20T12:51:16Z</time>
      </trkpt>
      <trkpt lat="42.903214" lon="-2.545826">
        <ele>551.208</ele>
        <time>2022-03-20T12:51:17Z</time>
      </trkpt>
      <trkpt lat="42.903204" lon="-2.545827">
        <ele>551.231</ele>
        <time>2022-03-20T12:51:18Z</time>
      </trkpt>
      <trkpt lat="42.9032" lon="-2.545833">
        <ele>551.289</ele>
        <time>2022-03-20T12:51:19Z</time>
      </trkpt>
      <trkpt lat="42.903192" lon="-2.545834">
        <ele>551.241</ele>
        <time>2022-03-20T12:51:20Z</time>
      </trkpt>
      <trkpt lat="42.903188" lon="-2.545838">
        <ele>551.253</ele>
        <time>2022-03-20T12:51:21Z</time>
      </trkpt>
      <trkpt lat="42.903174" lon="-2.545841">
        <ele>551.261</ele>
        <time>2022-03-20T12:51:22Z</time>
      </trkpt>
      <trkpt lat="42.903166" lon="-2.545846">
        <ele>551.494</ele>
        <time>2022-03-20T12:51:23Z</time>
      </trkpt>
      <trkpt lat="42.903163" lon="-2.545851">
        <ele>551.663</ele>
        <time>2022-03-20T12:51:24Z</time>
      </trkpt>
      <trkpt lat="42.903163" lon="-2.545852">
        <ele>551.611</ele>
        <time>2022-03-20T12:51:25Z</time>
      </trkpt>
      <trkpt lat="42.90316" lon="-2.545852">
        <ele>551.611</ele>
        <time>2022-03-20T12:51:26Z</time>
      </trkpt>
      <trkpt lat="42.903156" lon="-2.545853">
        <ele>551.621</ele>
        <time>2022-03-20T12:51:27Z</time>
      </trkpt>
      <trkpt lat="42.903148" lon="-2.54585">
        <ele>552.203</ele>
        <time>2022-03-20T12:51:28Z</time>
      </trkpt>
      <trkpt lat="42.90314" lon="-2.545848">
        <ele>552.208</ele>
        <time>2022-03-20T12:51:29Z</time>
      </trkpt>
      <trkpt lat="42.903129" lon="-2.545847">
        <ele>552.690</ele>
        <time>2022-03-20T12:51:30Z</time>
      </trkpt>
      <trkpt lat="42.903118" lon="-2.545846">
        <ele>552.648</ele>
        <time>2022-03-20T12:51:31Z</time>
      </trkpt>
      <trkpt lat="42.903106" lon="-2.545845">
        <ele>552.620</ele>
        <time>2022-03-20T12:51:32Z</time>
      </trkpt>
      <trkpt lat="42.903095" lon="-2.545844">
        <ele>552.692</ele>
        <time>2022-03-20T12:51:33Z</time>
      </trkpt>
      <trkpt lat="42.90309" lon="-2.54584">
        <ele>552.020</ele>
        <time>2022-03-20T12:51:34Z</time>
      </trkpt>
      <trkpt lat="42.903086" lon="-2.545838">
        <ele>551.873</ele>
        <time>2022-03-20T12:51:35Z</time>
      </trkpt>
      <trkpt lat="42.903076" lon="-2.545835">
        <ele>551.452</ele>
        <time>2022-03-20T12:51:36Z</time>
      </trkpt>
      <trkpt lat="42.903066" lon="-2.545832">
        <ele>551.450</ele>
        <time>2022-03-20T12:51:37Z</time>
      </trkpt>
      <trkpt lat="42.903058" lon="-2.54583">
        <ele>551.417</ele>
        <time>2022-03-20T12:51:38Z</time>
      </trkpt>
      <trkpt lat="42.903047" lon="-2.545828">
        <ele>551.287</ele>
        <time>2022-03-20T12:51:39Z</time>
      </trkpt>
      <trkpt lat="42.903039" lon="-2.545825">
        <ele>551.215</ele>
        <time>2022-03-20T12:51:40Z</time>
      </trkpt>
      <trkpt lat="42.903029" lon="-2.545825">
        <ele>551.208</ele>
        <time>2022-03-20T12:51:41Z</time>
      </trkpt>
      <trkpt lat="42.903019" lon="-2.545825">
        <ele>551.490</ele>
        <time>2022-03-20T12:51:42Z</time>
      </trkpt>
      <trkpt lat="42.903012" lon="-2.545825">
        <ele>551.638</ele>
        <time>2022-03-20T12:51:43Z</time>
      </trkpt>
      <trkpt lat="42.903003" lon="-2.545822">
        <ele>551.660</ele>
        <time>2022-03-20T12:51:44Z</time>
      </trkpt>
      <trkpt lat="42.902993" lon="-2.545818">
        <ele>552.072</ele>
        <time>2022-03-20T12:51:45Z</time>
      </trkpt>
      <trkpt lat="42.902984" lon="-2.545813">
        <ele>552.080</ele>
        <time>2022-03-20T12:51:46Z</time>
      </trkpt>
      <trkpt lat="42.902975" lon="-2.545809">
        <ele>552.023</ele>
        <time>2022-03-20T12:51:47Z</time>
      </trkpt>
      <trkpt lat="42.902966" lon="-2.545805">
        <ele>552.022</ele>
        <time>2022-03-20T12:51:48Z</time>
      </trkpt>
      <trkpt lat="42.902956" lon="-2.545806">
        <ele>552.070</ele>
        <time>2022-03-20T12:51:49Z</time>
      </trkpt>
      <trkpt lat="42.902944" lon="-2.545809">
        <ele>551.877</ele>
        <time>2022-03-20T12:51:50Z</time>
      </trkpt>
      <trkpt lat="42.902932" lon="-2.545813">
        <ele>551.861</ele>
        <time>2022-03-20T12:51:51Z</time>
      </trkpt>
      <trkpt lat="42.902923" lon="-2.545817">
        <ele>550.627</ele>
        <time>2022-03-20T12:51:52Z</time>
      </trkpt>
      <trkpt lat="42.902912" lon="-2.545821">
        <ele>550.608</ele>
        <time>2022-03-20T12:51:53Z</time>
      </trkpt>
      <trkpt lat="42.902902" lon="-2.545826">
        <ele>550.486</ele>
        <time>2022-03-20T12:51:54Z</time>
      </trkpt>
      <trkpt lat="42.902889" lon="-2.545834">
        <ele>550.434</ele>
        <time>2022-03-20T12:51:55Z</time>
      </trkpt>
      <trkpt lat="42.902881" lon="-2.545839">
        <ele>550.676</ele>
        <time>2022-03-20T12:51:56Z</time>
      </trkpt>
      <trkpt lat="42.902875" lon="-2.545841">
        <ele>552.018</ele>
        <time>2022-03-20T12:51:57Z</time>
      </trkpt>
      <trkpt lat="42.902871" lon="-2.545844">
        <ele>553.016</ele>
        <time>2022-03-20T12:51:58Z</time>
      </trkpt>
      <trkpt lat="42.902868" lon="-2.545846">
        <ele>553.089</ele>
        <time>2022-03-20T12:51:59Z</time>
      </trkpt>
      <trkpt lat="42.902868" lon="-2.54585">
        <ele>553.078</ele>
        <time>2022-03-20T12:52:00Z</time>
      </trkpt>
      <trkpt lat="42.902869" lon="-2.545855">
        <ele>553.036</ele>
        <time>2022-03-20T12:52:01Z</time>
      </trkpt>
      <trkpt lat="42.902867" lon="-2.545863">
        <ele>552.874</ele>
        <time>2022-03-20T12:52:02Z</time>
      </trkpt>
      <trkpt lat="42.902863" lon="-2.545869">
        <ele>552.656</ele>
        <time>2022-03-20T12:52:03Z</time>
      </trkpt>
      <trkpt lat="42.90286" lon="-2.545875">
        <ele>552.621</ele>
        <time>2022-03-20T12:52:04Z</time>
      </trkpt>
      <trkpt lat="42.902856" lon="-2.545876">
        <ele>552.608</ele>
        <time>2022-03-20T12:52:05Z</time>
      </trkpt>
      <trkpt lat="42.902849" lon="-2.545872">
        <ele>552.436</ele>
        <time>2022-03-20T12:52:06Z</time>
      </trkpt>
      <trkpt lat="42.902845" lon="-2.545867">
        <ele>552.224</ele>
        <time>2022-03-20T12:52:07Z</time>
      </trkpt>
      <trkpt lat="42.902836" lon="-2.545857">
        <ele>552.026</ele>
        <time>2022-03-20T12:52:08Z</time>
      </trkpt>
      <trkpt lat="42.902828" lon="-2.545849">
        <ele>552.078</ele>
        <time>2022-03-20T12:52:09Z</time>
      </trkpt>
      <trkpt lat="42.902822" lon="-2.545838">
        <ele>552.096</ele>
        <time>2022-03-20T12:52:10Z</time>
      </trkpt>
      <trkpt lat="42.902818" lon="-2.545841">
        <ele>552.089</ele>
        <time>2022-03-20T12:52:11Z</time>
      </trkpt>
      <trkpt lat="42.902814" lon="-2.545844">
        <ele>552.058</ele>
        <time>2022-03-20T12:52:12Z</time>
      </trkpt>
      <trkpt lat="42.902808" lon="-2.545847">
        <ele>552.226</ele>
        <time>2022-03-20T12:52:13Z</time>
      </trkpt>
      <trkpt lat="42.902803" lon="-2.545855">
        <ele>552.483</ele>
        <time>2022-03-20T12:52:14Z</time>
      </trkpt>
      <trkpt lat="42.902797" lon="-2.54587">
        <ele>552.425</ele>
        <time>2022-03-20T12:52:15Z</time>
      </trkpt>
      <trkpt lat="42.902794" lon="-2.545882">
        <ele>552.417</ele>
        <time>2022-03-20T12:52:16Z</time>
      </trkpt>
      <trkpt lat="42.902786" lon="-2.545888">
        <ele>552.408</ele>
        <time>2022-03-20T12:52:17Z</time>
      </trkpt>
      <trkpt lat="42.902783" lon="-2.545891">
        <ele>552.427</ele>
        <time>2022-03-20T12:52:18Z</time>
      </trkpt>
      <trkpt lat="42.902784" lon="-2.545896">
        <ele>552.475</ele>
        <time>2022-03-20T12:52:19Z</time>
      </trkpt>
      <trkpt lat="42.902779" lon="-2.545898">
        <ele>552.037</ele>
        <time>2022-03-20T12:52:20Z</time>
      </trkpt>
      <trkpt lat="42.902775" lon="-2.5459">
        <ele>552.089</ele>
        <time>2022-03-20T12:52:21Z</time>
      </trkpt>
      <trkpt lat="42.902771" lon="-2.545899">
        <ele>551.467</ele>
        <time>2022-03-20T12:52:22Z</time>
      </trkpt>
      <trkpt lat="42.902758" lon="-2.545898">
        <ele>551.230</ele>
        <time>2022-03-20T12:52:23Z</time>
      </trkpt>
      <trkpt lat="42.902746" lon="-2.545905">
        <ele>550.859</ele>
        <time>2022-03-20T12:52:24Z</time>
      </trkpt>
      <trkpt lat="42.902738" lon="-2.545911">
        <ele>550.837</ele>
        <time>2022-03-20T12:52:25Z</time>
      </trkpt>
      <trkpt lat="42.902732" lon="-2.545918">
        <ele>550.865</ele>
        <time>2022-03-20T12:52:26Z</time>
      </trkpt>
      <trkpt lat="42.902726" lon="-2.545924">
        <ele>550.868</ele>
        <time>2022-03-20T12:52:27Z</time>
      </trkpt>
      <trkpt lat="42.902719" lon="-2.545928">
        <ele>550.814</ele>
        <time>2022-03-20T12:52:28Z</time>
      </trkpt>
      <trkpt lat="42.90271" lon="-2.54593">
        <ele>550.808</ele>
        <time>2022-03-20T12:52:29Z</time>
      </trkpt>
      <trkpt lat="42.902702" lon="-2.545934">
        <ele>550.645</ele>
        <time>2022-03-20T12:52:30Z</time>
      </trkpt>
      <trkpt lat="42.902694" lon="-2.545939">
        <ele>550.683</ele>
        <time>2022-03-20T12:52:31Z</time>
      </trkpt>
      <trkpt lat="42.902683" lon="-2.545944">
        <ele>550.645</ele>
        <time>2022-03-20T12:52:32Z</time>
      </trkpt>
      <trkpt lat="42.902674" lon="-2.545952">
        <ele>550.687</ele>
        <time>2022-03-20T12:52:33Z</time>
      </trkpt>
      <trkpt lat="42.902666" lon="-2.545962">
        <ele>550.685</ele>
        <time>2022-03-20T12:52:34Z</time>
      </trkpt>
      <trkpt lat="42.90266" lon="-2.545968">
        <ele>550.628</ele>
        <time>2022-03-20T12:52:35Z</time>
      </trkpt>
      <trkpt lat="42.902658" lon="-2.545974">
        <ele>551.087</ele>
        <time>2022-03-20T12:52:36Z</time>
      </trkpt>
      <trkpt lat="42.902659" lon="-2.54598">
        <ele>551.065</ele>
        <time>2022-03-20T12:52:37Z</time>
      </trkpt>
      <trkpt lat="42.902657" lon="-2.545982">
        <ele>551.279</ele>
        <time>2022-03-20T12:52:38Z</time>
      </trkpt>
      <trkpt lat="42.902651" lon="-2.545985">
        <ele>551.405</ele>
        <time>2022-03-20T12:52:39Z</time>
      </trkpt>
      <trkpt lat="42.902643" lon="-2.545987">
        <ele>551.225</ele>
        <time>2022-03-20T12:52:40Z</time>
      </trkpt>
      <trkpt lat="42.902634" lon="-2.545987">
        <ele>551.208</ele>
        <time>2022-03-20T12:52:41Z</time>
      </trkpt>
      <trkpt lat="42.902624" lon="-2.54599">
        <ele>551.216</ele>
        <time>2022-03-20T12:52:42Z</time>
      </trkpt>
      <trkpt lat="42.902617" lon="-2.545996">
        <ele>551.044</ele>
        <time>2022-03-20T12:52:43Z</time>
      </trkpt>
      <trkpt lat="42.90261" lon="-2.546005">
        <ele>551.216</ele>
        <time>2022-03-20T12:52:44Z</time>
      </trkpt>
      <trkpt lat="42.902604" lon="-2.546015">
        <ele>551.418</ele>
        <time>2022-03-20T12:52:45Z</time>
      </trkpt>
      <trkpt lat="42.902597" lon="-2.546024">
        <ele>551.086</ele>
        <time>2022-03-20T12:52:46Z</time>
      </trkpt>
      <trkpt lat="42.90259" lon="-2.546035">
        <ele>551.089</ele>
        <time>2022-03-20T12:52:47Z</time>
      </trkpt>
      <trkpt lat="42.902584" lon="-2.546043">
        <ele>551.018</ele>
        <time>2022-03-20T12:52:48Z</time>
      </trkpt>
      <trkpt lat="42.902575" lon="-2.546048">
        <ele>551.066</ele>
        <time>2022-03-20T12:52:49Z</time>
      </trkpt>
      <trkpt lat="42.902566" lon="-2.546051">
        <ele>551.059</ele>
        <time>2022-03-20T12:52:50Z</time>
      </trkpt>
      <trkpt lat="42.902561" lon="-2.546056">
        <ele>551.003</ele>
        <time>2022-03-20T12:52:51Z</time>
      </trkpt>
      <trkpt lat="42.902552" lon="-2.546056">
        <ele>550.423</ele>
        <time>2022-03-20T12:52:52Z</time>
      </trkpt>
      <trkpt lat="42.902543" lon="-2.546062">
        <ele>551.008</ele>
        <time>2022-03-20T12:52:53Z</time>
      </trkpt>
      <trkpt lat="42.902535" lon="-2.54607">
        <ele>552.054</ele>
        <time>2022-03-20T12:52:54Z</time>
      </trkpt>
      <trkpt lat="42.902527" lon="-2.546079">
        <ele>551.262</ele>
        <time>2022-03-20T12:52:55Z</time>
      </trkpt>
      <trkpt lat="42.90252" lon="-2.546087">
        <ele>551.234</ele>
        <time>2022-03-20T12:52:56Z</time>
      </trkpt>
      <trkpt lat="42.902515" lon="-2.546094">
        <ele>552.026</ele>
        <time>2022-03-20T12:52:57Z</time>
      </trkpt>
      <trkpt lat="42.902506" lon="-2.546099">
        <ele>551.284</ele>
        <time>2022-03-20T12:52:58Z</time>
      </trkpt>
      <trkpt lat="42.902497" lon="-2.546109">
        <ele>553.057</ele>
        <time>2022-03-20T12:52:59Z</time>
      </trkpt>
      <trkpt lat="42.902488" lon="-2.546119">
        <ele>553.636</ele>
        <time>2022-03-20T12:53:00Z</time>
      </trkpt>
      <trkpt lat="42.90248" lon="-2.54613">
        <ele>551.244</ele>
        <time>2022-03-20T12:53:01Z</time>
      </trkpt>
      <trkpt lat="42.902476" lon="-2.546138">
        <ele>552.458</ele>
        <time>2022-03-20T12:53:02Z</time>
      </trkpt>
      <trkpt lat="42.902466" lon="-2.546141">
        <ele>553.652</ele>
        <time>2022-03-20T12:53:03Z</time>
      </trkpt>
      <trkpt lat="42.902454" lon="-2.546143">
        <ele>552.417</ele>
        <time>2022-03-20T12:53:04Z</time>
      </trkpt>
      <trkpt lat="42.902444" lon="-2.546147">
        <ele>552.408</ele>
        <time>2022-03-20T12:53:05Z</time>
      </trkpt>
      <trkpt lat="42.902435" lon="-2.546154">
        <ele>552.474</ele>
        <time>2022-03-20T12:53:06Z</time>
      </trkpt>
      <trkpt lat="42.902426" lon="-2.546158">
        <ele>551.442</ele>
        <time>2022-03-20T12:53:07Z</time>
      </trkpt>
      <trkpt lat="42.902416" lon="-2.546162">
        <ele>551.474</ele>
        <time>2022-03-20T12:53:08Z</time>
      </trkpt>
      <trkpt lat="42.902408" lon="-2.546168">
        <ele>551.416</ele>
        <time>2022-03-20T12:53:09Z</time>
      </trkpt>
      <trkpt lat="42.902397" lon="-2.546174">
        <ele>551.464</ele>
        <time>2022-03-20T12:53:10Z</time>
      </trkpt>
      <trkpt lat="42.902387" lon="-2.546181">
        <ele>551.497</ele>
        <time>2022-03-20T12:53:11Z</time>
      </trkpt>
      <trkpt lat="42.902379" lon="-2.546191">
        <ele>551.446</ele>
        <time>2022-03-20T12:53:12Z</time>
      </trkpt>
      <trkpt lat="42.902371" lon="-2.546196">
        <ele>551.474</ele>
        <time>2022-03-20T12:53:13Z</time>
      </trkpt>
      <trkpt lat="42.902361" lon="-2.546198">
        <ele>551.428</ele>
        <time>2022-03-20T12:53:14Z</time>
      </trkpt>
      <trkpt lat="42.902352" lon="-2.546197">
        <ele>551.489</ele>
        <time>2022-03-20T12:53:15Z</time>
      </trkpt>
      <trkpt lat="42.902346" lon="-2.5462">
        <ele>552.617</ele>
        <time>2022-03-20T12:53:16Z</time>
      </trkpt>
      <trkpt lat="42.902338" lon="-2.546202">
        <ele>551.608</ele>
        <time>2022-03-20T12:53:17Z</time>
      </trkpt>
      <trkpt lat="42.90233" lon="-2.546209">
        <ele>551.671</ele>
        <time>2022-03-20T12:53:18Z</time>
      </trkpt>
      <trkpt lat="42.902322" lon="-2.546214">
        <ele>551.699</ele>
        <time>2022-03-20T12:53:19Z</time>
      </trkpt>
      <trkpt lat="42.902315" lon="-2.546216">
        <ele>551.641</ele>
        <time>2022-03-20T12:53:20Z</time>
      </trkpt>
      <trkpt lat="42.902309" lon="-2.546217">
        <ele>554.893</ele>
        <time>2022-03-20T12:53:21Z</time>
      </trkpt>
      <trkpt lat="42.902303" lon="-2.546217">
        <ele>554.811</ele>
        <time>2022-03-20T12:53:22Z</time>
      </trkpt>
      <trkpt lat="42.902296" lon="-2.546213">
        <ele>554.844</ele>
        <time>2022-03-20T12:53:23Z</time>
      </trkpt>
      <trkpt lat="42.902291" lon="-2.546211">
        <ele>554.823</ele>
        <time>2022-03-20T12:53:24Z</time>
      </trkpt>
      <trkpt lat="42.902286" lon="-2.546212">
        <ele>556.081</ele>
        <time>2022-03-20T12:53:25Z</time>
      </trkpt>
      <trkpt lat="42.902277" lon="-2.546214">
        <ele>556.688</ele>
        <time>2022-03-20T12:53:26Z</time>
      </trkpt>
      <trkpt lat="42.90227" lon="-2.546215">
        <ele>556.624</ele>
        <time>2022-03-20T12:53:27Z</time>
      </trkpt>
      <trkpt lat="42.902263" lon="-2.546215">
        <ele>556.626</ele>
        <time>2022-03-20T12:53:28Z</time>
      </trkpt>
      <trkpt lat="42.902262" lon="-2.546219">
        <ele>556.608</ele>
        <time>2022-03-20T12:53:29Z</time>
      </trkpt>
      <trkpt lat="42.902265" lon="-2.546223">
        <ele>556.887</ele>
        <time>2022-03-20T12:53:30Z</time>
      </trkpt>
      <trkpt lat="42.902263" lon="-2.546225">
        <ele>556.815</ele>
        <time>2022-03-20T12:53:31Z</time>
      </trkpt>
      <trkpt lat="42.902255" lon="-2.54623">
        <ele>556.867</ele>
        <time>2022-03-20T12:53:32Z</time>
      </trkpt>
      <trkpt lat="42.902242" lon="-2.546235">
        <ele>556.629</ele>
        <time>2022-03-20T12:53:33Z</time>
      </trkpt>
      <trkpt lat="42.90223" lon="-2.546236">
        <ele>556.617</ele>
        <time>2022-03-20T12:53:34Z</time>
      </trkpt>
      <trkpt lat="42.902221" lon="-2.546238">
        <ele>555.020</ele>
        <time>2022-03-20T12:53:35Z</time>
      </trkpt>
      <trkpt lat="42.902215" lon="-2.546239">
        <ele>555.049</ele>
        <time>2022-03-20T12:53:36Z</time>
      </trkpt>
      <trkpt lat="42.902211" lon="-2.546238">
        <ele>555.097</ele>
        <time>2022-03-20T12:53:37Z</time>
      </trkpt>
      <trkpt lat="42.902208" lon="-2.546235">
        <ele>555.073</ele>
        <time>2022-03-20T12:53:38Z</time>
      </trkpt>
      <trkpt lat="42.902206" lon="-2.54623">
        <ele>555.885</ele>
        <time>2022-03-20T12:53:39Z</time>
      </trkpt>
      <trkpt lat="42.902203" lon="-2.546223">
        <ele>555.813</ele>
        <time>2022-03-20T12:53:40Z</time>
      </trkpt>
      <trkpt lat="42.902201" lon="-2.546218">
        <ele>555.808</ele>
        <time>2022-03-20T12:53:41Z</time>
      </trkpt>
      <trkpt lat="42.902199" lon="-2.546212">
        <ele>555.836</ele>
        <time>2022-03-20T12:53:42Z</time>
      </trkpt>
      <trkpt lat="42.902199" lon="-2.546205">
        <ele>555.844</ele>
        <time>2022-03-20T12:53:43Z</time>
      </trkpt>
      <trkpt lat="42.9022" lon="-2.546202">
        <ele>555.826</ele>
        <time>2022-03-20T12:53:44Z</time>
      </trkpt>
      <trkpt lat="42.902201" lon="-2.546202">
        <ele>555.238</ele>
        <time>2022-03-20T12:53:45Z</time>
      </trkpt>
      <trkpt lat="42.902201" lon="-2.546203">
        <ele>555.216</ele>
        <time>2022-03-20T12:53:46Z</time>
      </trkpt>
      <trkpt lat="42.9022" lon="-2.546202">
        <ele>555.229</ele>
        <time>2022-03-20T12:53:47Z</time>
      </trkpt>
      <trkpt lat="42.902199" lon="-2.546199">
        <ele>555.218</ele>
        <time>2022-03-20T12:53:48Z</time>
      </trkpt>
      <trkpt lat="42.902199" lon="-2.546199">
        <ele>555.496</ele>
        <time>2022-03-20T12:53:49Z</time>
      </trkpt>
      <trkpt lat="42.902199" lon="-2.546199">
        <ele>555.486</ele>
        <time>2022-03-20T12:53:50Z</time>
      </trkpt>
      <trkpt lat="42.902199" lon="-2.546199">
        <ele>555.460</ele>
        <time>2022-03-20T12:53:51Z</time>
      </trkpt>
      <trkpt lat="42.902199" lon="-2.546199">
        <ele>555.426</ele>
        <time>2022-03-20T12:53:52Z</time>
      </trkpt>
      <trkpt lat="42.902199" lon="-2.546199">
        <ele>554.608</ele>
        <time>2022-03-20T12:53:53Z</time>
      </trkpt>
      <trkpt lat="42.902199" lon="-2.546199">
        <ele>554.037</ele>
        <time>2022-03-20T12:53:54Z</time>
      </trkpt>
      <trkpt lat="42.902195" lon="-2.546202">
        <ele>554.015</ele>
        <time>2022-03-20T12:53:55Z</time>
      </trkpt>
      <trkpt lat="42.902184" lon="-2.546214">
        <ele>554.027</ele>
        <time>2022-03-20T12:53:56Z</time>
      </trkpt>
      <trkpt lat="42.902173" lon="-2.546225">
        <ele>554.029</ele>
        <time>2022-03-20T12:53:57Z</time>
      </trkpt>
      <trkpt lat="42.902161" lon="-2.546235">
        <ele>554.077</ele>
        <time>2022-03-20T12:53:58Z</time>
      </trkpt>
      <trkpt lat="42.902151" lon="-2.546242">
        <ele>554.080</ele>
        <time>2022-03-20T12:53:59Z</time>
      </trkpt>
      <trkpt lat="42.90214" lon="-2.546244">
        <ele>554.049</ele>
        <time>2022-03-20T12:54:00Z</time>
      </trkpt>
      <trkpt lat="42.902133" lon="-2.546249">
        <ele>554.097</ele>
        <time>2022-03-20T12:54:01Z</time>
      </trkpt>
      <trkpt lat="42.902126" lon="-2.546256">
        <ele>554.024</ele>
        <time>2022-03-20T12:54:02Z</time>
      </trkpt>
      <trkpt lat="42.902116" lon="-2.546263">
        <ele>553.804</ele>
        <time>2022-03-20T12:54:03Z</time>
      </trkpt>
      <trkpt lat="42.902101" lon="-2.546272">
        <ele>553.614</ele>
        <time>2022-03-20T12:54:04Z</time>
      </trkpt>
      <trkpt lat="42.90209" lon="-2.546278">
        <ele>553.608</ele>
        <time>2022-03-20T12:54:05Z</time>
      </trkpt>
      <trkpt lat="42.902082" lon="-2.546285">
        <ele>552.631</ele>
        <time>2022-03-20T12:54:06Z</time>
      </trkpt>
      <trkpt lat="42.902074" lon="-2.546288">
        <ele>552.679</ele>
        <time>2022-03-20T12:54:07Z</time>
      </trkpt>
      <trkpt lat="42.902065" lon="-2.54629">
        <ele>552.471</ele>
        <time>2022-03-20T12:54:08Z</time>
      </trkpt>
      <trkpt lat="42.902055" lon="-2.546291">
        <ele>552.633</ele>
        <time>2022-03-20T12:54:09Z</time>
      </trkpt>
      <trkpt lat="42.902044" lon="-2.546292">
        <ele>552.651</ele>
        <time>2022-03-20T12:54:10Z</time>
      </trkpt>
      <trkpt lat="42.902032" lon="-2.546294">
        <ele>552.464</ele>
        <time>2022-03-20T12:54:11Z</time>
      </trkpt>
      <trkpt lat="42.902021" lon="-2.546299">
        <ele>552.283</ele>
        <time>2022-03-20T12:54:12Z</time>
      </trkpt>
      <trkpt lat="42.902015" lon="-2.546305">
        <ele>552.231</ele>
        <time>2022-03-20T12:54:13Z</time>
      </trkpt>
      <trkpt lat="42.902008" lon="-2.54631">
        <ele>552.283</ele>
        <time>2022-03-20T12:54:14Z</time>
      </trkpt>
      <trkpt lat="42.902" lon="-2.546313">
        <ele>552.825</ele>
        <time>2022-03-20T12:54:15Z</time>
      </trkpt>
      <trkpt lat="42.901989" lon="-2.546311">
        <ele>552.417</ele>
        <time>2022-03-20T12:54:16Z</time>
      </trkpt>
      <trkpt lat="42.90198" lon="-2.546309">
        <ele>553.008</ele>
        <time>2022-03-20T12:54:17Z</time>
      </trkpt>
      <trkpt lat="42.901973" lon="-2.546307">
        <ele>554.897</ele>
        <time>2022-03-20T12:54:18Z</time>
      </trkpt>
      <trkpt lat="42.901964" lon="-2.546307">
        <ele>554.895</ele>
        <time>2022-03-20T12:54:19Z</time>
      </trkpt>
      <trkpt lat="42.901955" lon="-2.546305">
        <ele>554.257</ele>
        <time>2022-03-20T12:54:20Z</time>
      </trkpt>
      <trkpt lat="42.901946" lon="-2.546303">
        <ele>554.269</ele>
        <time>2022-03-20T12:54:21Z</time>
      </trkpt>
      <trkpt lat="42.901936" lon="-2.546303">
        <ele>553.027</ele>
        <time>2022-03-20T12:54:22Z</time>
      </trkpt>
      <trkpt lat="42.901929" lon="-2.546304">
        <ele>554.220</ele>
        <time>2022-03-20T12:54:23Z</time>
      </trkpt>
      <trkpt lat="42.901919" lon="-2.546305">
        <ele>554.269</ele>
        <time>2022-03-20T12:54:24Z</time>
      </trkpt>
      <trkpt lat="42.901908" lon="-2.546309">
        <ele>552.637</ele>
        <time>2022-03-20T12:54:25Z</time>
      </trkpt>
      <trkpt lat="42.9019" lon="-2.546314">
        <ele>552.067</ele>
        <time>2022-03-20T12:54:26Z</time>
      </trkpt>
      <trkpt lat="42.901892" lon="-2.546316">
        <ele>551.681</ele>
        <time>2022-03-20T12:54:27Z</time>
      </trkpt>
      <trkpt lat="42.901883" lon="-2.546318">
        <ele>551.619</ele>
        <time>2022-03-20T12:54:28Z</time>
      </trkpt>
      <trkpt lat="42.901872" lon="-2.546319">
        <ele>551.608</ele>
        <time>2022-03-20T12:54:29Z</time>
      </trkpt>
      <trkpt lat="42.901862" lon="-2.546319">
        <ele>551.235</ele>
        <time>2022-03-20T12:54:30Z</time>
      </trkpt>
      <trkpt lat="42.901852" lon="-2.546319">
        <ele>551.663</ele>
        <time>2022-03-20T12:54:31Z</time>
      </trkpt>
      <trkpt lat="42.901842" lon="-2.546317">
        <ele>551.615</ele>
        <time>2022-03-20T12:54:32Z</time>
      </trkpt>
      <trkpt lat="42.901834" lon="-2.546313">
        <ele>551.697</ele>
        <time>2022-03-20T12:54:33Z</time>
      </trkpt>
      <trkpt lat="42.901827" lon="-2.546309">
        <ele>551.695</ele>
        <time>2022-03-20T12:54:34Z</time>
      </trkpt>
      <trkpt lat="42.901821" lon="-2.546301">
        <ele>550.868</ele>
        <time>2022-03-20T12:54:35Z</time>
      </trkpt>
      <trkpt lat="42.901812" lon="-2.546296">
        <ele>552.097</ele>
        <time>2022-03-20T12:54:36Z</time>
      </trkpt>
      <trkpt lat="42.901808" lon="-2.546288">
        <ele>552.485</ele>
        <time>2022-03-20T12:54:37Z</time>
      </trkpt>
      <trkpt lat="42.901803" lon="-2.546282">
        <ele>552.432</ele>
        <time>2022-03-20T12:54:38Z</time>
      </trkpt>
      <trkpt lat="42.901802" lon="-2.54628">
        <ele>552.292</ele>
        <time>2022-03-20T12:54:39Z</time>
      </trkpt>
      <trkpt lat="42.901802" lon="-2.546279">
        <ele>552.211</ele>
        <time>2022-03-20T12:54:40Z</time>
      </trkpt>
      <trkpt lat="42.9018" lon="-2.546279">
        <ele>552.808</ele>
        <time>2022-03-20T12:54:41Z</time>
      </trkpt>
      <trkpt lat="42.901801" lon="-2.546278">
        <ele>553.692</ele>
        <time>2022-03-20T12:54:42Z</time>
      </trkpt>
      <trkpt lat="42.9018" lon="-2.546279">
        <ele>554.610</ele>
        <time>2022-03-20T12:54:43Z</time>
      </trkpt>
      <trkpt lat="42.901798" lon="-2.546278">
        <ele>554.672</ele>
        <time>2022-03-20T12:54:44Z</time>
      </trkpt>
      <trkpt lat="42.9018" lon="-2.546278">
        <ele>554.854</ele>
        <time>2022-03-20T12:54:45Z</time>
      </trkpt>
      <trkpt lat="42.9018" lon="-2.54628">
        <ele>554.862</ele>
        <time>2022-03-20T12:54:46Z</time>
      </trkpt>
      <trkpt lat="42.9018" lon="-2.54628">
        <ele>554.815</ele>
        <time>2022-03-20T12:54:47Z</time>
      </trkpt>
      <trkpt lat="42.9018" lon="-2.546279">
        <ele>554.894</ele>
        <time>2022-03-20T12:54:48Z</time>
      </trkpt>
      <trkpt lat="42.9018" lon="-2.546279">
        <ele>554.832</ele>
        <time>2022-03-20T12:54:49Z</time>
      </trkpt>
      <trkpt lat="42.9018" lon="-2.546279">
        <ele>555.059</ele>
        <time>2022-03-20T12:54:50Z</time>
      </trkpt>
      <trkpt lat="42.9018" lon="-2.546279">
        <ele>554.803</ele>
        <time>2022-03-20T12:54:51Z</time>
      </trkpt>
      <trkpt lat="42.9018" lon="-2.546279">
        <ele>555.023</ele>
        <time>2022-03-20T12:54:52Z</time>
      </trkpt>
      <trkpt lat="42.9018" lon="-2.546279">
        <ele>555.008</ele>
        <time>2022-03-20T12:54:53Z</time>
      </trkpt>
      <trkpt lat="42.9018" lon="-2.546279">
        <ele>555.094</ele>
        <time>2022-03-20T12:54:54Z</time>
      </trkpt>
      <trkpt lat="42.9018" lon="-2.546279">
        <ele>554.842</ele>
        <time>2022-03-20T12:54:55Z</time>
      </trkpt>
      <trkpt lat="42.9018" lon="-2.546279">
        <ele>554.874</ele>
        <time>2022-03-20T12:54:56Z</time>
      </trkpt>
      <trkpt lat="42.9018" lon="-2.546279">
        <ele>554.896</ele>
        <time>2022-03-20T12:54:57Z</time>
      </trkpt>
      <trkpt lat="42.9018" lon="-2.546279">
        <ele>554.834</ele>
        <time>2022-03-20T12:54:58Z</time>
      </trkpt>
      <trkpt lat="42.9018" lon="-2.546279">
        <ele>554.637</ele>
        <time>2022-03-20T12:54:59Z</time>
      </trkpt>
      <trkpt lat="42.9018" lon="-2.546279">
        <ele>554.686</ele>
        <time>2022-03-20T12:55:00Z</time>
      </trkpt>
      <trkpt lat="42.9018" lon="-2.546279">
        <ele>554.654</ele>
        <time>2022-03-20T12:55:01Z</time>
      </trkpt>
      <trkpt lat="42.9018" lon="-2.546279">
        <ele>554.817</ele>
        <time>2022-03-20T12:55:02Z</time>
      </trkpt>
      <trkpt lat="42.9018" lon="-2.546279">
        <ele>554.887</ele>
        <time>2022-03-20T12:55:03Z</time>
      </trkpt>
      <trkpt lat="42.9018" lon="-2.546279">
        <ele>554.615</ele>
        <time>2022-03-20T12:55:04Z</time>
      </trkpt>
      <trkpt lat="42.901801" lon="-2.54628">
        <ele>554.608</ele>
        <time>2022-03-20T12:55:05Z</time>
      </trkpt>
      <trkpt lat="42.901801" lon="-2.54628">
        <ele>554.820</ele>
        <time>2022-03-20T12:55:06Z</time>
      </trkpt>
      <trkpt lat="42.901801" lon="-2.54628">
        <ele>554.838</ele>
        <time>2022-03-20T12:55:07Z</time>
      </trkpt>
      <trkpt lat="42.901802" lon="-2.54628">
        <ele>554.840</ele>
        <time>2022-03-20T12:55:08Z</time>
      </trkpt>
      <trkpt lat="42.901804" lon="-2.546281">
        <ele>554.862</ele>
        <time>2022-03-20T12:55:09Z</time>
      </trkpt>
      <trkpt lat="42.901804" lon="-2.546281">
        <ele>554.860</ele>
        <time>2022-03-20T12:55:10Z</time>
      </trkpt>
      <trkpt lat="42.901805" lon="-2.546282">
        <ele>555.063</ele>
        <time>2022-03-20T12:55:11Z</time>
      </trkpt>
      <trkpt lat="42.901806" lon="-2.546284">
        <ele>555.012</ele>
        <time>2022-03-20T12:55:12Z</time>
      </trkpt>
      <trkpt lat="42.901808" lon="-2.546284">
        <ele>554.890</ele>
        <time>2022-03-20T12:55:13Z</time>
      </trkpt>
      <trkpt lat="42.90181" lon="-2.546285">
        <ele>554.848</ele>
        <time>2022-03-20T12:55:14Z</time>
      </trkpt>
      <trkpt lat="42.90181" lon="-2.546285">
        <ele>554.661</ele>
        <time>2022-03-20T12:55:15Z</time>
      </trkpt>
      <trkpt lat="42.901811" lon="-2.546285">
        <ele>554.617</ele>
        <time>2022-03-20T12:55:16Z</time>
      </trkpt>
      <trkpt lat="42.901812" lon="-2.546286">
        <ele>554.408</ele>
        <time>2022-03-20T12:55:17Z</time>
      </trkpt>
      <trkpt lat="42.901812" lon="-2.546287">
        <ele>554.453</ele>
        <time>2022-03-20T12:55:18Z</time>
      </trkpt>
      <trkpt lat="42.901812" lon="-2.546287">
        <ele>554.421</ele>
        <time>2022-03-20T12:55:19Z</time>
      </trkpt>
      <trkpt lat="42.901813" lon="-2.546287">
        <ele>554.423</ele>
        <time>2022-03-20T12:55:20Z</time>
      </trkpt>
      <trkpt lat="42.901813" lon="-2.546288">
        <ele>554.425</ele>
        <time>2022-03-20T12:55:21Z</time>
      </trkpt>
      <trkpt lat="42.901813" lon="-2.546288">
        <ele>554.693</ele>
        <time>2022-03-20T12:55:22Z</time>
      </trkpt>
      <trkpt lat="42.901813" lon="-2.546288">
        <ele>554.476</ele>
        <time>2022-03-20T12:55:23Z</time>
      </trkpt>
      <trkpt lat="42.901814" lon="-2.546288">
        <ele>554.485</ele>
        <time>2022-03-20T12:55:24Z</time>
      </trkpt>
      <trkpt lat="42.901814" lon="-2.546288">
        <ele>554.483</ele>
        <time>2022-03-20T12:55:25Z</time>
      </trkpt>
      <trkpt lat="42.901814" lon="-2.546288">
        <ele>554.038</ele>
        <time>2022-03-20T12:55:26Z</time>
      </trkpt>
      <trkpt lat="42.901814" lon="-2.546288">
        <ele>554.070</ele>
        <time>2022-03-20T12:55:27Z</time>
      </trkpt>
      <trkpt lat="42.901814" lon="-2.546288">
        <ele>553.817</ele>
        <time>2022-03-20T12:55:28Z</time>
      </trkpt>
      <trkpt lat="42.901814" lon="-2.546288">
        <ele>553.808</ele>
        <time>2022-03-20T12:55:29Z</time>
      </trkpt>
      <trkpt lat="42.901814" lon="-2.546288">
        <ele>553.842</ele>
        <time>2022-03-20T12:55:30Z</time>
      </trkpt>
      <trkpt lat="42.901814" lon="-2.546289">
        <ele>553.620</ele>
        <time>2022-03-20T12:55:31Z</time>
      </trkpt>
      <trkpt lat="42.901814" lon="-2.546289">
        <ele>553.642</ele>
        <time>2022-03-20T12:55:32Z</time>
      </trkpt>
      <trkpt lat="42.901814" lon="-2.546289">
        <ele>553.644</ele>
        <time>2022-03-20T12:55:33Z</time>
      </trkpt>
      <trkpt lat="42.901814" lon="-2.546289">
        <ele>553.642</ele>
        <time>2022-03-20T12:55:34Z</time>
      </trkpt>
      <trkpt lat="42.901814" lon="-2.546289">
        <ele>554.065</ele>
        <time>2022-03-20T12:55:35Z</time>
      </trkpt>
      <trkpt lat="42.901814" lon="-2.546289">
        <ele>554.044</ele>
        <time>2022-03-20T12:55:36Z</time>
      </trkpt>
      <trkpt lat="42.901815" lon="-2.546289">
        <ele>554.092</ele>
        <time>2022-03-20T12:55:37Z</time>
      </trkpt>
      <trkpt lat="42.901815" lon="-2.546289">
        <ele>554.272</ele>
        <time>2022-03-20T12:55:38Z</time>
      </trkpt>
      <trkpt lat="42.901815" lon="-2.54629">
        <ele>554.213</ele>
        <time>2022-03-20T12:55:39Z</time>
      </trkpt>
      <trkpt lat="42.901815" lon="-2.546291">
        <ele>554.214</ele>
        <time>2022-03-20T12:55:40Z</time>
      </trkpt>
      <trkpt lat="42.901815" lon="-2.546292">
        <ele>554.208</ele>
        <time>2022-03-20T12:55:41Z</time>
      </trkpt>
      <trkpt lat="42.901815" lon="-2.546293">
        <ele>554.486</ele>
        <time>2022-03-20T12:55:42Z</time>
      </trkpt>
      <trkpt lat="42.901816" lon="-2.546293">
        <ele>554.494</ele>
        <time>2022-03-20T12:55:43Z</time>
      </trkpt>
      <trkpt lat="42.901816" lon="-2.546294">
        <ele>554.696</ele>
        <time>2022-03-20T12:55:44Z</time>
      </trkpt>
      <trkpt lat="42.901816" lon="-2.546294">
        <ele>554.698</ele>
        <time>2022-03-20T12:55:45Z</time>
      </trkpt>
      <trkpt lat="42.901817" lon="-2.546294">
        <ele>554.846</ele>
        <time>2022-03-20T12:55:46Z</time>
      </trkpt>
      <trkpt lat="42.901817" lon="-2.546295">
        <ele>554.889</ele>
        <time>2022-03-20T12:55:47Z</time>
      </trkpt>
      <trkpt lat="42.901817" lon="-2.546295">
        <ele>555.078</ele>
        <time>2022-03-20T12:55:48Z</time>
      </trkpt>
      <trkpt lat="42.901817" lon="-2.546298">
        <ele>555.076</ele>
        <time>2022-03-20T12:55:49Z</time>
      </trkpt>
      <trkpt lat="42.901817" lon="-2.546301">
        <ele>555.236</ele>
        <time>2022-03-20T12:55:50Z</time>
      </trkpt>
      <trkpt lat="42.901817" lon="-2.546302">
        <ele>555.217</ele>
        <time>2022-03-20T12:55:51Z</time>
      </trkpt>
      <trkpt lat="42.901816" lon="-2.546304">
        <ele>555.218</ele>
        <time>2022-03-20T12:55:52Z</time>
      </trkpt>
      <trkpt lat="42.901816" lon="-2.546305">
        <ele>555.208</ele>
        <time>2022-03-20T12:55:53Z</time>
      </trkpt>
      <trkpt lat="42.901815" lon="-2.546305">
        <ele>555.272</ele>
        <time>2022-03-20T12:55:54Z</time>
      </trkpt>
      <trkpt lat="42.901815" lon="-2.546305">
        <ele>555.260</ele>
        <time>2022-03-20T12:55:55Z</time>
      </trkpt>
      <trkpt lat="42.901814" lon="-2.546305">
        <ele>555.252</ele>
        <time>2022-03-20T12:55:56Z</time>
      </trkpt>
      <trkpt lat="42.901814" lon="-2.546305">
        <ele>554.874</ele>
        <time>2022-03-20T12:55:57Z</time>
      </trkpt>
      <trkpt lat="42.901814" lon="-2.546305">
        <ele>554.692</ele>
        <time>2022-03-20T12:55:58Z</time>
      </trkpt>
      <trkpt lat="42.901814" lon="-2.546305">
        <ele>554.655</ele>
        <time>2022-03-20T12:55:59Z</time>
      </trkpt>
      <trkpt lat="42.901814" lon="-2.546305">
        <ele>554.214</ele>
        <time>2022-03-20T12:56:00Z</time>
      </trkpt>
      <trkpt lat="42.901814" lon="-2.546305">
        <ele>554.292</ele>
        <time>2022-03-20T12:56:01Z</time>
      </trkpt>
      <trkpt lat="42.901814" lon="-2.546305">
        <ele>553.634</ele>
        <time>2022-03-20T12:56:02Z</time>
      </trkpt>
      <trkpt lat="42.901813" lon="-2.546305">
        <ele>554.255</ele>
        <time>2022-03-20T12:56:03Z</time>
      </trkpt>
      <trkpt lat="42.901812" lon="-2.546305">
        <ele>554.610</ele>
        <time>2022-03-20T12:56:04Z</time>
      </trkpt>
      <trkpt lat="42.901811" lon="-2.546305">
        <ele>554.608</ele>
        <time>2022-03-20T12:56:05Z</time>
      </trkpt>
      <trkpt lat="42.90181" lon="-2.546306">
        <ele>554.652</ele>
        <time>2022-03-20T12:56:06Z</time>
      </trkpt>
      <trkpt lat="42.901809" lon="-2.546307">
        <ele>555.060</ele>
        <time>2022-03-20T12:56:07Z</time>
      </trkpt>
      <trkpt lat="42.901808" lon="-2.546306">
        <ele>555.042</ele>
        <time>2022-03-20T12:56:08Z</time>
      </trkpt>
      <trkpt lat="42.901808" lon="-2.546306">
        <ele>555.084</ele>
        <time>2022-03-20T12:56:09Z</time>
      </trkpt>
      <trkpt lat="42.901808" lon="-2.546306">
        <ele>555.272</ele>
        <time>2022-03-20T12:56:10Z</time>
      </trkpt>
      <trkpt lat="42.901807" lon="-2.546305">
        <ele>555.485</ele>
        <time>2022-03-20T12:56:11Z</time>
      </trkpt>
      <trkpt lat="42.901807" lon="-2.546305">
        <ele>555.464</ele>
        <time>2022-03-20T12:56:12Z</time>
      </trkpt>
      <trkpt lat="42.901807" lon="-2.546305">
        <ele>555.442</ele>
        <time>2022-03-20T12:56:13Z</time>
      </trkpt>
      <trkpt lat="42.901807" lon="-2.546305">
        <ele>556.252</ele>
        <time>2022-03-20T12:56:14Z</time>
      </trkpt>
      <trkpt lat="42.901806" lon="-2.546305">
        <ele>556.453</ele>
        <time>2022-03-20T12:56:15Z</time>
      </trkpt>
      <trkpt lat="42.901805" lon="-2.546305">
        <ele>556.208</ele>
        <time>2022-03-20T12:56:16Z</time>
      </trkpt>
      <trkpt lat="42.901802" lon="-2.546305">
        <ele>556.208</ele>
        <time>2022-03-20T12:56:17Z</time>
      </trkpt>
      <trkpt lat="42.901801" lon="-2.546305">
        <ele>555.854</ele>
        <time>2022-03-20T12:56:18Z</time>
      </trkpt>
      <trkpt lat="42.9018" lon="-2.546305">
        <ele>556.412</ele>
        <time>2022-03-20T12:56:19Z</time>
      </trkpt>
      <trkpt lat="42.901799" lon="-2.546305">
        <ele>556.414</ele>
        <time>2022-03-20T12:56:20Z</time>
      </trkpt>
      <trkpt lat="42.901799" lon="-2.546305">
        <ele>555.816</ele>
        <time>2022-03-20T12:56:21Z</time>
      </trkpt>
      <trkpt lat="42.901798" lon="-2.546306">
        <ele>555.694</ele>
        <time>2022-03-20T12:56:22Z</time>
      </trkpt>
      <trkpt lat="42.901798" lon="-2.546306">
        <ele>555.677</ele>
        <time>2022-03-20T12:56:23Z</time>
      </trkpt>
      <trkpt lat="42.901798" lon="-2.546306">
        <ele>555.616</ele>
        <time>2022-03-20T12:56:24Z</time>
      </trkpt>
      <trkpt lat="42.901798" lon="-2.546306">
        <ele>555.674</ele>
        <time>2022-03-20T12:56:25Z</time>
      </trkpt>
      <trkpt lat="42.901798" lon="-2.546306">
        <ele>555.672</ele>
        <time>2022-03-20T12:56:26Z</time>
      </trkpt>
      <trkpt lat="42.901798" lon="-2.546307">
        <ele>555.413</ele>
        <time>2022-03-20T12:56:27Z</time>
      </trkpt>
      <trkpt lat="42.901798" lon="-2.546307">
        <ele>555.414</ele>
        <time>2022-03-20T12:56:28Z</time>
      </trkpt>
      <trkpt lat="42.901798" lon="-2.546308">
        <ele>555.008</ele>
        <time>2022-03-20T12:56:29Z</time>
      </trkpt>
      <trkpt lat="42.901798" lon="-2.546309">
        <ele>555.066</ele>
        <time>2022-03-20T12:56:30Z</time>
      </trkpt>
      <trkpt lat="42.901798" lon="-2.546311">
        <ele>555.034</ele>
        <time>2022-03-20T12:56:31Z</time>
      </trkpt>
      <trkpt lat="42.901797" lon="-2.546312">
        <ele>555.066</ele>
        <time>2022-03-20T12:56:32Z</time>
      </trkpt>
      <trkpt lat="42.901797" lon="-2.546314">
        <ele>555.078</ele>
        <time>2022-03-20T12:56:33Z</time>
      </trkpt>
      <trkpt lat="42.901797" lon="-2.546315">
        <ele>555.056</ele>
        <time>2022-03-20T12:56:34Z</time>
      </trkpt>
      <trkpt lat="42.901797" lon="-2.546315">
        <ele>555.439</ele>
        <time>2022-03-20T12:56:35Z</time>
      </trkpt>
      <trkpt lat="42.901797" lon="-2.546315">
        <ele>555.468</ele>
        <time>2022-03-20T12:56:36Z</time>
      </trkpt>
      <trkpt lat="42.901797" lon="-2.546316">
        <ele>555.436</ele>
        <time>2022-03-20T12:56:37Z</time>
      </trkpt>
      <trkpt lat="42.901797" lon="-2.546316">
        <ele>555.469</ele>
        <time>2022-03-20T12:56:38Z</time>
      </trkpt>
      <trkpt lat="42.901797" lon="-2.546316">
        <ele>555.404</ele>
        <time>2022-03-20T12:56:39Z</time>
      </trkpt>
      <trkpt lat="42.901797" lon="-2.546316">
        <ele>555.424</ele>
        <time>2022-03-20T12:56:40Z</time>
      </trkpt>
      <trkpt lat="42.901797" lon="-2.546316">
        <ele>555.408</ele>
        <time>2022-03-20T12:56:41Z</time>
      </trkpt>
      <trkpt lat="42.901797" lon="-2.546316">
        <ele>555.465</ele>
        <time>2022-03-20T12:56:42Z</time>
      </trkpt>
      <trkpt lat="42.901797" lon="-2.546316">
        <ele>555.453</ele>
        <time>2022-03-20T12:56:43Z</time>
      </trkpt>
      <trkpt lat="42.901797" lon="-2.546316">
        <ele>555.685</ele>
        <time>2022-03-20T12:56:44Z</time>
      </trkpt>
      <trkpt lat="42.901797" lon="-2.546316">
        <ele>555.687</ele>
        <time>2022-03-20T12:56:45Z</time>
      </trkpt>
      <trkpt lat="42.901797" lon="-2.546317">
        <ele>555.875</ele>
        <time>2022-03-20T12:56:46Z</time>
      </trkpt>
      <trkpt lat="42.901797" lon="-2.546317">
        <ele>555.888</ele>
        <time>2022-03-20T12:56:47Z</time>
      </trkpt>
      <trkpt lat="42.901797" lon="-2.546317">
        <ele>555.897</ele>
        <time>2022-03-20T12:56:48Z</time>
      </trkpt>
      <trkpt lat="42.901797" lon="-2.546317">
        <ele>556.055</ele>
        <time>2022-03-20T12:56:49Z</time>
      </trkpt>
      <trkpt lat="42.901796" lon="-2.546317">
        <ele>555.866</ele>
        <time>2022-03-20T12:56:50Z</time>
      </trkpt>
      <trkpt lat="42.901796" lon="-2.546317">
        <ele>555.829</ele>
        <time>2022-03-20T12:56:51Z</time>
      </trkpt>
      <trkpt lat="42.901796" lon="-2.546317">
        <ele>555.821</ele>
        <time>2022-03-20T12:56:52Z</time>
      </trkpt>
      <trkpt lat="42.901796" lon="-2.546317">
        <ele>555.408</ele>
        <time>2022-03-20T12:56:53Z</time>
      </trkpt>
      <trkpt lat="42.901796" lon="-2.546317">
        <ele>555.445</ele>
        <time>2022-03-20T12:56:54Z</time>
      </trkpt>
      <trkpt lat="42.901796" lon="-2.546317">
        <ele>552.813</ele>
        <time>2022-03-20T12:56:55Z</time>
      </trkpt>
      <trkpt lat="42.901791" lon="-2.546317">
        <ele>552.885</ele>
        <time>2022-03-20T12:56:56Z</time>
      </trkpt>
      <trkpt lat="42.901779" lon="-2.54631">
        <ele>552.837</ele>
        <time>2022-03-20T12:56:57Z</time>
      </trkpt>
      <trkpt lat="42.901765" lon="-2.546302">
        <ele>552.835</ele>
        <time>2022-03-20T12:56:58Z</time>
      </trkpt>
      <trkpt lat="42.901751" lon="-2.546293">
        <ele>553.618</ele>
        <time>2022-03-20T12:56:59Z</time>
      </trkpt>
      <trkpt lat="42.901734" lon="-2.546286">
        <ele>553.667</ele>
        <time>2022-03-20T12:57:00Z</time>
      </trkpt>
      <trkpt lat="42.901717" lon="-2.546277">
        <ele>554.095</ele>
        <time>2022-03-20T12:57:01Z</time>
      </trkpt>
      <trkpt lat="42.901702" lon="-2.54627">
        <ele>555.246</ele>
        <time>2022-03-20T12:57:02Z</time>
      </trkpt>
      <trkpt lat="42.901689" lon="-2.546264">
        <ele>554.688</ele>
        <time>2022-03-20T12:57:03Z</time>
      </trkpt>
      <trkpt lat="42.901675" lon="-2.546258">
        <ele>554.616</ele>
        <time>2022-03-20T12:57:04Z</time>
      </trkpt>
      <trkpt lat="42.901663" lon="-2.546252">
        <ele>554.608</ele>
        <time>2022-03-20T12:57:05Z</time>
      </trkpt>
      <trkpt lat="42.901655" lon="-2.546246">
        <ele>555.213</ele>
        <time>2022-03-20T12:57:06Z</time>
      </trkpt>
      <trkpt lat="42.901647" lon="-2.546237">
        <ele>555.451</ele>
        <time>2022-03-20T12:57:07Z</time>
      </trkpt>
      <trkpt lat="42.901644" lon="-2.546229">
        <ele>555.483</ele>
        <time>2022-03-20T12:57:08Z</time>
      </trkpt>
      <trkpt lat="42.901638" lon="-2.546219">
        <ele>556.035</ele>
        <time>2022-03-20T12:57:09Z</time>
      </trkpt>
      <trkpt lat="42.901633" lon="-2.546206">
        <ele>556.273</ele>
        <time>2022-03-20T12:57:10Z</time>
      </trkpt>
      <trkpt lat="42.901627" lon="-2.546192">
        <ele>556.446</ele>
        <time>2022-03-20T12:57:11Z</time>
      </trkpt>
      <trkpt lat="42.90162" lon="-2.54618">
        <ele>556.445</ele>
        <time>2022-03-20T12:57:12Z</time>
      </trkpt>
      <trkpt lat="42.901615" lon="-2.546171">
        <ele>556.463</ele>
        <time>2022-03-20T12:57:13Z</time>
      </trkpt>
      <trkpt lat="42.901611" lon="-2.546162">
        <ele>556.848</ele>
        <time>2022-03-20T12:57:14Z</time>
      </trkpt>
      <trkpt lat="42.901604" lon="-2.546152">
        <ele>556.861</ele>
        <time>2022-03-20T12:57:15Z</time>
      </trkpt>
      <trkpt lat="42.901597" lon="-2.546142">
        <ele>556.217</ele>
        <time>2022-03-20T12:57:16Z</time>
      </trkpt>
      <trkpt lat="42.901592" lon="-2.546132">
        <ele>556.008</ele>
        <time>2022-03-20T12:57:17Z</time>
      </trkpt>
      <trkpt lat="42.901585" lon="-2.546121">
        <ele>555.253</ele>
        <time>2022-03-20T12:57:18Z</time>
      </trkpt>
      <trkpt lat="42.901579" lon="-2.546113">
        <ele>555.221</ele>
        <time>2022-03-20T12:57:19Z</time>
      </trkpt>
      <trkpt lat="42.901572" lon="-2.546106">
        <ele>555.863</ele>
        <time>2022-03-20T12:57:20Z</time>
      </trkpt>
      <trkpt lat="42.901566" lon="-2.546096">
        <ele>555.695</ele>
        <time>2022-03-20T12:57:21Z</time>
      </trkpt>
      <trkpt lat="42.90156" lon="-2.546085">
        <ele>555.613</ele>
        <time>2022-03-20T12:57:22Z</time>
      </trkpt>
      <trkpt lat="42.901553" lon="-2.546075">
        <ele>555.876</ele>
        <time>2022-03-20T12:57:23Z</time>
      </trkpt>
      <trkpt lat="42.901547" lon="-2.546068">
        <ele>555.855</ele>
        <time>2022-03-20T12:57:24Z</time>
      </trkpt>
      <trkpt lat="42.901538" lon="-2.54606">
        <ele>555.843</ele>
        <time>2022-03-20T12:57:25Z</time>
      </trkpt>
      <trkpt lat="42.90153" lon="-2.546051">
        <ele>555.612</ele>
        <time>2022-03-20T12:57:26Z</time>
      </trkpt>
      <trkpt lat="42.901522" lon="-2.546041">
        <ele>555.632</ele>
        <time>2022-03-20T12:57:27Z</time>
      </trkpt>
      <trkpt lat="42.901513" lon="-2.546033">
        <ele>555.805</ele>
        <time>2022-03-20T12:57:28Z</time>
      </trkpt>
      <trkpt lat="42.901506" lon="-2.546024">
        <ele>555.808</ele>
        <time>2022-03-20T12:57:29Z</time>
      </trkpt>
      <trkpt lat="42.9015" lon="-2.546016">
        <ele>555.480</ele>
        <time>2022-03-20T12:57:30Z</time>
      </trkpt>
      <trkpt lat="42.901493" lon="-2.546009">
        <ele>555.898</ele>
        <time>2022-03-20T12:57:31Z</time>
      </trkpt>
      <trkpt lat="42.901485" lon="-2.546">
        <ele>556.040</ele>
        <time>2022-03-20T12:57:32Z</time>
      </trkpt>
      <trkpt lat="42.901479" lon="-2.545991">
        <ele>556.012</ele>
        <time>2022-03-20T12:57:33Z</time>
      </trkpt>
      <trkpt lat="42.901473" lon="-2.545981">
        <ele>555.880</ele>
        <time>2022-03-20T12:57:34Z</time>
      </trkpt>
      <trkpt lat="42.901467" lon="-2.545971">
        <ele>556.033</ele>
        <time>2022-03-20T12:57:35Z</time>
      </trkpt>
      <trkpt lat="42.901459" lon="-2.545963">
        <ele>556.052</ele>
        <time>2022-03-20T12:57:36Z</time>
      </trkpt>
      <trkpt lat="42.901451" lon="-2.545954">
        <ele>556.660</ele>
        <time>2022-03-20T12:57:37Z</time>
      </trkpt>
      <trkpt lat="42.901443" lon="-2.545946">
        <ele>556.661</ele>
        <time>2022-03-20T12:57:38Z</time>
      </trkpt>
      <trkpt lat="42.901437" lon="-2.545938">
        <ele>557.021</ele>
        <time>2022-03-20T12:57:39Z</time>
      </trkpt>
      <trkpt lat="42.901432" lon="-2.545932">
        <ele>557.013</ele>
        <time>2022-03-20T12:57:40Z</time>
      </trkpt>
      <trkpt lat="42.901427" lon="-2.545925">
        <ele>557.008</ele>
        <time>2022-03-20T12:57:41Z</time>
      </trkpt>
      <trkpt lat="42.90142" lon="-2.545917">
        <ele>557.235</ele>
        <time>2022-03-20T12:57:42Z</time>
      </trkpt>
      <trkpt lat="42.901412" lon="-2.545907">
        <ele>557.053</ele>
        <time>2022-03-20T12:57:43Z</time>
      </trkpt>
      <trkpt lat="42.901404" lon="-2.545898">
        <ele>557.045</ele>
        <time>2022-03-20T12:57:44Z</time>
      </trkpt>
      <trkpt lat="42.901398" lon="-2.54589">
        <ele>557.057</ele>
        <time>2022-03-20T12:57:45Z</time>
      </trkpt>
      <trkpt lat="42.901395" lon="-2.545882">
        <ele>556.495</ele>
        <time>2022-03-20T12:57:46Z</time>
      </trkpt>
      <trkpt lat="42.901389" lon="-2.545874">
        <ele>556.428</ele>
        <time>2022-03-20T12:57:47Z</time>
      </trkpt>
      <trkpt lat="42.901384" lon="-2.545867">
        <ele>556.867</ele>
        <time>2022-03-20T12:57:48Z</time>
      </trkpt>
      <trkpt lat="42.901379" lon="-2.54586">
        <ele>556.855</ele>
        <time>2022-03-20T12:57:49Z</time>
      </trkpt>
      <trkpt lat="42.901372" lon="-2.545852">
        <ele>557.092</ele>
        <time>2022-03-20T12:57:50Z</time>
      </trkpt>
      <trkpt lat="42.901366" lon="-2.545847">
        <ele>556.873</ele>
        <time>2022-03-20T12:57:51Z</time>
      </trkpt>
      <trkpt lat="42.901361" lon="-2.545844">
        <ele>556.820</ele>
        <time>2022-03-20T12:57:52Z</time>
      </trkpt>
      <trkpt lat="42.901354" lon="-2.545841">
        <ele>556.808</ele>
        <time>2022-03-20T12:57:53Z</time>
      </trkpt>
      <trkpt lat="42.901352" lon="-2.54584">
        <ele>556.468</ele>
        <time>2022-03-20T12:57:54Z</time>
      </trkpt>
      <trkpt lat="42.901351" lon="-2.545841">
        <ele>555.886</ele>
        <time>2022-03-20T12:57:55Z</time>
      </trkpt>
      <trkpt lat="42.901349" lon="-2.545839">
        <ele>555.498</ele>
        <time>2022-03-20T12:57:56Z</time>
      </trkpt>
      <trkpt lat="42.901347" lon="-2.545839">
        <ele>555.480</ele>
        <time>2022-03-20T12:57:57Z</time>
      </trkpt>
      <trkpt lat="42.901348" lon="-2.54584">
        <ele>555.488</ele>
        <time>2022-03-20T12:57:58Z</time>
      </trkpt>
      <trkpt lat="42.901348" lon="-2.545839">
        <ele>555.471</ele>
        <time>2022-03-20T12:57:59Z</time>
      </trkpt>
      <trkpt lat="42.901347" lon="-2.545841">
        <ele>555.270</ele>
        <time>2022-03-20T12:58:00Z</time>
      </trkpt>
      <trkpt lat="42.901346" lon="-2.54584">
        <ele>555.298</ele>
        <time>2022-03-20T12:58:01Z</time>
      </trkpt>
      <trkpt lat="42.901346" lon="-2.545835">
        <ele>555.467</ele>
        <time>2022-03-20T12:58:02Z</time>
      </trkpt>
      <trkpt lat="42.901343" lon="-2.545828">
        <ele>555.681</ele>
        <time>2022-03-20T12:58:03Z</time>
      </trkpt>
      <trkpt lat="42.901337" lon="-2.545819">
        <ele>555.819</ele>
        <time>2022-03-20T12:58:04Z</time>
      </trkpt>
      <trkpt lat="42.901334" lon="-2.545809">
        <ele>555.808</ele>
        <time>2022-03-20T12:58:05Z</time>
      </trkpt>
      <trkpt lat="42.901329" lon="-2.5458">
        <ele>555.875</ele>
        <time>2022-03-20T12:58:06Z</time>
      </trkpt>
      <trkpt lat="42.901325" lon="-2.54579">
        <ele>555.823</ele>
        <time>2022-03-20T12:58:07Z</time>
      </trkpt>
      <trkpt lat="42.901318" lon="-2.545781">
        <ele>556.095</ele>
        <time>2022-03-20T12:58:08Z</time>
      </trkpt>
      <trkpt lat="42.90131" lon="-2.545772">
        <ele>556.677</ele>
        <time>2022-03-20T12:58:09Z</time>
      </trkpt>
      <trkpt lat="42.901302" lon="-2.545762">
        <ele>556.865</ele>
        <time>2022-03-20T12:58:10Z</time>
      </trkpt>
      <trkpt lat="42.901293" lon="-2.54575">
        <ele>557.218</ele>
        <time>2022-03-20T12:58:11Z</time>
      </trkpt>
      <trkpt lat="42.901286" lon="-2.545739">
        <ele>557.297</ele>
        <time>2022-03-20T12:58:12Z</time>
      </trkpt>
      <trkpt lat="42.901278" lon="-2.545727">
        <ele>557.495</ele>
        <time>2022-03-20T12:58:13Z</time>
      </trkpt>
      <trkpt lat="42.901274" lon="-2.545717">
        <ele>557.243</ele>
        <time>2022-03-20T12:58:14Z</time>
      </trkpt>
      <trkpt lat="42.901268" lon="-2.545705">
        <ele>557.464</ele>
        <time>2022-03-20T12:58:15Z</time>
      </trkpt>
      <trkpt lat="42.901264" lon="-2.545693">
        <ele>557.210</ele>
        <time>2022-03-20T12:58:16Z</time>
      </trkpt>
      <trkpt lat="42.901262" lon="-2.545689">
        <ele>556.408</ele>
        <time>2022-03-20T12:58:17Z</time>
      </trkpt>
      <trkpt lat="42.90126" lon="-2.545688">
        <ele>556.473</ele>
        <time>2022-03-20T12:58:18Z</time>
      </trkpt>
      <trkpt lat="42.90126" lon="-2.545688">
        <ele>556.081</ele>
        <time>2022-03-20T12:58:19Z</time>
      </trkpt>
      <trkpt lat="42.90126" lon="-2.545686">
        <ele>556.043</ele>
        <time>2022-03-20T12:58:20Z</time>
      </trkpt>
      <trkpt lat="42.901259" lon="-2.545682">
        <ele>556.025</ele>
        <time>2022-03-20T12:58:21Z</time>
      </trkpt>
      <trkpt lat="42.901257" lon="-2.545673">
        <ele>556.013</ele>
        <time>2022-03-20T12:58:22Z</time>
      </trkpt>
      <trkpt lat="42.901248" lon="-2.545658">
        <ele>556.056</ele>
        <time>2022-03-20T12:58:23Z</time>
      </trkpt>
      <trkpt lat="42.901241" lon="-2.545641">
        <ele>556.825</ele>
        <time>2022-03-20T12:58:24Z</time>
      </trkpt>
      <trkpt lat="42.901234" lon="-2.545628">
        <ele>556.873</ele>
        <time>2022-03-20T12:58:25Z</time>
      </trkpt>
      <trkpt lat="42.901228" lon="-2.545613">
        <ele>556.854</ele>
        <time>2022-03-20T12:58:26Z</time>
      </trkpt>
      <trkpt lat="42.901223" lon="-2.545599">
        <ele>557.456</ele>
        <time>2022-03-20T12:58:27Z</time>
      </trkpt>
      <trkpt lat="42.901219" lon="-2.545586">
        <ele>557.411</ele>
        <time>2022-03-20T12:58:28Z</time>
      </trkpt>
      <trkpt lat="42.901217" lon="-2.545575">
        <ele>557.408</ele>
        <time>2022-03-20T12:58:29Z</time>
      </trkpt>
      <trkpt lat="42.901213" lon="-2.545564">
        <ele>557.484</ele>
        <time>2022-03-20T12:58:30Z</time>
      </trkpt>
      <trkpt lat="42.90121" lon="-2.545555">
        <ele>557.422</ele>
        <time>2022-03-20T12:58:31Z</time>
      </trkpt>
      <trkpt lat="42.901202" lon="-2.545544">
        <ele>557.474</ele>
        <time>2022-03-20T12:58:32Z</time>
      </trkpt>
      <trkpt lat="42.901196" lon="-2.545533">
        <ele>557.476</ele>
        <time>2022-03-20T12:58:33Z</time>
      </trkpt>
      <trkpt lat="42.90119" lon="-2.545521">
        <ele>557.274</ele>
        <time>2022-03-20T12:58:34Z</time>
      </trkpt>
      <trkpt lat="42.901186" lon="-2.545508">
        <ele>557.497</ele>
        <time>2022-03-20T12:58:35Z</time>
      </trkpt>
      <trkpt lat="42.901182" lon="-2.545496">
        <ele>557.296</ele>
        <time>2022-03-20T12:58:36Z</time>
      </trkpt>
      <trkpt lat="42.901179" lon="-2.545484">
        <ele>557.284</ele>
        <time>2022-03-20T12:58:37Z</time>
      </trkpt>
      <trkpt lat="42.901181" lon="-2.545472">
        <ele>557.072</ele>
        <time>2022-03-20T12:58:38Z</time>
      </trkpt>
      <trkpt lat="42.901179" lon="-2.54546">
        <ele>557.013</ele>
        <time>2022-03-20T12:58:39Z</time>
      </trkpt>
      <trkpt lat="42.901176" lon="-2.545449">
        <ele>557.014</ele>
        <time>2022-03-20T12:58:40Z</time>
      </trkpt>
      <trkpt lat="42.901171" lon="-2.54544">
        <ele>557.008</ele>
        <time>2022-03-20T12:58:41Z</time>
      </trkpt>
      <trkpt lat="42.901169" lon="-2.545434">
        <ele>556.636</ele>
        <time>2022-03-20T12:58:42Z</time>
      </trkpt>
      <trkpt lat="42.901169" lon="-2.54543">
        <ele>557.054</ele>
        <time>2022-03-20T12:58:43Z</time>
      </trkpt>
      <trkpt lat="42.901169" lon="-2.545419">
        <ele>556.686</ele>
        <time>2022-03-20T12:58:44Z</time>
      </trkpt>
      <trkpt lat="42.901167" lon="-2.545407">
        <ele>556.428</ele>
        <time>2022-03-20T12:58:45Z</time>
      </trkpt>
      <trkpt lat="42.901165" lon="-2.545394">
        <ele>556.456</ele>
        <time>2022-03-20T12:58:46Z</time>
      </trkpt>
      <trkpt lat="42.901164" lon="-2.545382">
        <ele>556.489</ele>
        <time>2022-03-20T12:58:47Z</time>
      </trkpt>
      <trkpt lat="42.901162" lon="-2.545372">
        <ele>557.088</ele>
        <time>2022-03-20T12:58:48Z</time>
      </trkpt>
      <trkpt lat="42.90116" lon="-2.545361">
        <ele>557.236</ele>
        <time>2022-03-20T12:58:49Z</time>
      </trkpt>
      <trkpt lat="42.901157" lon="-2.545349">
        <ele>558.456</ele>
        <time>2022-03-20T12:58:50Z</time>
      </trkpt>
      <trkpt lat="42.901156" lon="-2.545338">
        <ele>558.459</ele>
        <time>2022-03-20T12:58:51Z</time>
      </trkpt>
      <trkpt lat="42.901152" lon="-2.545326">
        <ele>558.414</ele>
        <time>2022-03-20T12:58:52Z</time>
      </trkpt>
      <trkpt lat="42.901147" lon="-2.545313">
        <ele>557.408</ele>
        <time>2022-03-20T12:58:53Z</time>
      </trkpt>
      <trkpt lat="42.901144" lon="-2.545299">
        <ele>557.224</ele>
        <time>2022-03-20T12:58:54Z</time>
      </trkpt>
      <trkpt lat="42.90114" lon="-2.545284">
        <ele>557.272</ele>
        <time>2022-03-20T12:58:55Z</time>
      </trkpt>
      <trkpt lat="42.901138" lon="-2.545272">
        <ele>557.254</ele>
        <time>2022-03-20T12:58:56Z</time>
      </trkpt>
      <trkpt lat="42.901138" lon="-2.545264">
        <ele>557.026</ele>
        <time>2022-03-20T12:58:57Z</time>
      </trkpt>
      <trkpt lat="42.901135" lon="-2.545257">
        <ele>556.014</ele>
        <time>2022-03-20T12:58:58Z</time>
      </trkpt>
      <trkpt lat="42.901131" lon="-2.545248">
        <ele>556.237</ele>
        <time>2022-03-20T12:58:59Z</time>
      </trkpt>
      <trkpt lat="42.901129" lon="-2.545236">
        <ele>557.016</ele>
        <time>2022-03-20T12:59:00Z</time>
      </trkpt>
      <trkpt lat="42.901125" lon="-2.545223">
        <ele>557.064</ele>
        <time>2022-03-20T12:59:01Z</time>
      </trkpt>
      <trkpt lat="42.901123" lon="-2.54521">
        <ele>556.846</ele>
        <time>2022-03-20T12:59:02Z</time>
      </trkpt>
      <trkpt lat="42.901121" lon="-2.545197">
        <ele>556.888</ele>
        <time>2022-03-20T12:59:03Z</time>
      </trkpt>
      <trkpt lat="42.901119" lon="-2.545184">
        <ele>556.816</ele>
        <time>2022-03-20T12:59:04Z</time>
      </trkpt>
      <trkpt lat="42.901118" lon="-2.545173">
        <ele>556.808</ele>
        <time>2022-03-20T12:59:05Z</time>
      </trkpt>
      <trkpt lat="42.901116" lon="-2.545162">
        <ele>556.823</ele>
        <time>2022-03-20T12:59:06Z</time>
      </trkpt>
      <trkpt lat="42.901113" lon="-2.545152">
        <ele>556.261</ele>
        <time>2022-03-20T12:59:07Z</time>
      </trkpt>
      <trkpt lat="42.901109" lon="-2.545146">
        <ele>556.233</ele>
        <time>2022-03-20T12:59:08Z</time>
      </trkpt>
      <trkpt lat="42.901107" lon="-2.545141">
        <ele>555.675</ele>
        <time>2022-03-20T12:59:09Z</time>
      </trkpt>
      <trkpt lat="42.901104" lon="-2.545138">
        <ele>555.613</ele>
        <time>2022-03-20T12:59:10Z</time>
      </trkpt>
      <trkpt lat="42.901105" lon="-2.545136">
        <ele>555.436</ele>
        <time>2022-03-20T12:59:11Z</time>
      </trkpt>
      <trkpt lat="42.901105" lon="-2.545137">
        <ele>555.485</ele>
        <time>2022-03-20T12:59:12Z</time>
      </trkpt>
      <trkpt lat="42.901104" lon="-2.545138">
        <ele>555.423</ele>
        <time>2022-03-20T12:59:13Z</time>
      </trkpt>
      <trkpt lat="42.901103" lon="-2.545142">
        <ele>555.654</ele>
        <time>2022-03-20T12:59:14Z</time>
      </trkpt>
      <trkpt lat="42.901102" lon="-2.545145">
        <ele>555.456</ele>
        <time>2022-03-20T12:59:15Z</time>
      </trkpt>
      <trkpt lat="42.901102" lon="-2.545148">
        <ele>555.411</ele>
        <time>2022-03-20T12:59:16Z</time>
      </trkpt>
      <trkpt lat="42.901101" lon="-2.545149">
        <ele>555.408</ele>
        <time>2022-03-20T12:59:17Z</time>
      </trkpt>
      <trkpt lat="42.901101" lon="-2.545151">
        <ele>555.434</ele>
        <time>2022-03-20T12:59:18Z</time>
      </trkpt>
      <trkpt lat="42.901101" lon="-2.545151">
        <ele>555.432</ele>
        <time>2022-03-20T12:59:19Z</time>
      </trkpt>
      <trkpt lat="42.901101" lon="-2.545151">
        <ele>555.454</ele>
        <time>2022-03-20T12:59:20Z</time>
      </trkpt>
      <trkpt lat="42.901101" lon="-2.545151">
        <ele>555.466</ele>
        <time>2022-03-20T12:59:21Z</time>
      </trkpt>
      <trkpt lat="42.901101" lon="-2.545151">
        <ele>555.454</ele>
        <time>2022-03-20T12:59:22Z</time>
      </trkpt>
      <trkpt lat="42.901101" lon="-2.545151">
        <ele>555.657</ele>
        <time>2022-03-20T12:59:23Z</time>
      </trkpt>
      <trkpt lat="42.901101" lon="-2.545151">
        <ele>555.686</ele>
        <time>2022-03-20T12:59:24Z</time>
      </trkpt>
      <trkpt lat="42.901101" lon="-2.545151">
        <ele>555.684</ele>
        <time>2022-03-20T12:59:25Z</time>
      </trkpt>
      <trkpt lat="42.901101" lon="-2.545151">
        <ele>555.659</ele>
        <time>2022-03-20T12:59:26Z</time>
      </trkpt>
      <trkpt lat="42.901102" lon="-2.545151">
        <ele>555.603</ele>
        <time>2022-03-20T12:59:27Z</time>
      </trkpt>
      <trkpt lat="42.901102" lon="-2.545151">
        <ele>555.623</ele>
        <time>2022-03-20T12:59:28Z</time>
      </trkpt>
      <trkpt lat="42.901102" lon="-2.545151">
        <ele>555.608</ele>
        <time>2022-03-20T12:59:29Z</time>
      </trkpt>
      <trkpt lat="42.901102" lon="-2.545151">
        <ele>555.824</ele>
        <time>2022-03-20T12:59:30Z</time>
      </trkpt>
      <trkpt lat="42.901102" lon="-2.545151">
        <ele>556.022</ele>
        <time>2022-03-20T12:59:31Z</time>
      </trkpt>
      <trkpt lat="42.901102" lon="-2.545151">
        <ele>556.014</ele>
        <time>2022-03-20T12:59:32Z</time>
      </trkpt>
      <trkpt lat="42.901102" lon="-2.54515">
        <ele>556.096</ele>
        <time>2022-03-20T12:59:33Z</time>
      </trkpt>
      <trkpt lat="42.901102" lon="-2.545149">
        <ele>555.864</ele>
        <time>2022-03-20T12:59:34Z</time>
      </trkpt>
      <trkpt lat="42.901102" lon="-2.545148">
        <ele>555.857</ele>
        <time>2022-03-20T12:59:35Z</time>
      </trkpt>
      <trkpt lat="42.901102" lon="-2.545145">
        <ele>555.866</ele>
        <time>2022-03-20T12:59:36Z</time>
      </trkpt>
      <trkpt lat="42.901102" lon="-2.545142">
        <ele>555.874</ele>
        <time>2022-03-20T12:59:37Z</time>
      </trkpt>
      <trkpt lat="42.901102" lon="-2.545139">
        <ele>555.691</ele>
        <time>2022-03-20T12:59:38Z</time>
      </trkpt>
      <trkpt lat="42.901102" lon="-2.545138">
        <ele>555.681</ele>
        <time>2022-03-20T12:59:39Z</time>
      </trkpt>
      <trkpt lat="42.901102" lon="-2.545138">
        <ele>555.619</ele>
        <time>2022-03-20T12:59:40Z</time>
      </trkpt>
      <trkpt lat="42.901101" lon="-2.545138">
        <ele>555.608</ele>
        <time>2022-03-20T12:59:41Z</time>
      </trkpt>
      <trkpt lat="42.901101" lon="-2.545138">
        <ele>555.628</ele>
        <time>2022-03-20T12:59:42Z</time>
      </trkpt>
      <trkpt lat="42.901099" lon="-2.545129">
        <ele>555.666</ele>
        <time>2022-03-20T12:59:43Z</time>
      </trkpt>
      <trkpt lat="42.901096" lon="-2.545119">
        <ele>555.618</ele>
        <time>2022-03-20T12:59:44Z</time>
      </trkpt>
      <trkpt lat="42.901096" lon="-2.545115">
        <ele>555.630</ele>
        <time>2022-03-20T12:59:45Z</time>
      </trkpt>
      <trkpt lat="42.901095" lon="-2.545114">
        <ele>555.678</ele>
        <time>2022-03-20T12:59:46Z</time>
      </trkpt>
      <trkpt lat="42.901095" lon="-2.54511">
        <ele>555.661</ele>
        <time>2022-03-20T12:59:47Z</time>
      </trkpt>
      <trkpt lat="42.901095" lon="-2.545097">
        <ele>555.670</ele>
        <time>2022-03-20T12:59:48Z</time>
      </trkpt>
      <trkpt lat="42.901094" lon="-2.545088">
        <ele>555.868</ele>
        <time>2022-03-20T12:59:49Z</time>
      </trkpt>
      <trkpt lat="42.901094" lon="-2.545074">
        <ele>556.042</ele>
        <time>2022-03-20T12:59:50Z</time>
      </trkpt>
      <trkpt lat="42.901095" lon="-2.545059">
        <ele>556.022</ele>
        <time>2022-03-20T12:59:51Z</time>
      </trkpt>
      <trkpt lat="42.901098" lon="-2.54504">
        <ele>556.014</ele>
        <time>2022-03-20T12:59:52Z</time>
      </trkpt>
      <trkpt lat="42.901102" lon="-2.545021">
        <ele>556.008</ele>
        <time>2022-03-20T12:59:53Z</time>
      </trkpt>
      <trkpt lat="42.901102" lon="-2.545001">
        <ele>556.453</ele>
        <time>2022-03-20T12:59:54Z</time>
      </trkpt>
      <trkpt lat="42.901101" lon="-2.544985">
        <ele>556.491</ele>
        <time>2022-03-20T12:59:55Z</time>
      </trkpt>
      <trkpt lat="42.901102" lon="-2.544968">
        <ele>556.093</ele>
        <time>2022-03-20T12:59:56Z</time>
      </trkpt>
      <trkpt lat="42.901103" lon="-2.544955">
        <ele>556.025</ele>
        <time>2022-03-20T12:59:57Z</time>
      </trkpt>
      <trkpt lat="42.901103" lon="-2.544941">
        <ele>556.073</ele>
        <time>2022-03-20T12:59:58Z</time>
      </trkpt>
      <trkpt lat="42.901105" lon="-2.54493">
        <ele>556.286</ele>
        <time>2022-03-20T12:59:59Z</time>
      </trkpt>
      <trkpt lat="42.901111" lon="-2.544918">
        <ele>556.245</ele>
        <time>2022-03-20T13:00:00Z</time>
      </trkpt>
      <trkpt lat="42.901115" lon="-2.544907">
        <ele>555.893</ele>
        <time>2022-03-20T13:00:01Z</time>
      </trkpt>
      <trkpt lat="42.901123" lon="-2.544902">
        <ele>556.254</ele>
        <time>2022-03-20T13:00:02Z</time>
      </trkpt>
      <trkpt lat="42.901135" lon="-2.544874">
        <ele>556.256</ele>
        <time>2022-03-20T13:00:03Z</time>
      </trkpt>
      <trkpt lat="42.90114" lon="-2.544833">
        <ele>555.411</ele>
        <time>2022-03-20T13:00:04Z</time>
      </trkpt>
      <trkpt lat="42.901129" lon="-2.544798">
        <ele>555.408</ele>
        <time>2022-03-20T13:00:05Z</time>
      </trkpt>
      <trkpt lat="42.901123" lon="-2.544781">
        <ele>555.234</ele>
        <time>2022-03-20T13:00:06Z</time>
      </trkpt>
      <trkpt lat="42.90112" lon="-2.544772">
        <ele>555.252</ele>
        <time>2022-03-20T13:00:07Z</time>
      </trkpt>
      <trkpt lat="42.901115" lon="-2.544767">
        <ele>554.654</ele>
        <time>2022-03-20T13:00:08Z</time>
      </trkpt>
      <trkpt lat="42.901112" lon="-2.544768">
        <ele>554.636</ele>
        <time>2022-03-20T13:00:09Z</time>
      </trkpt>
      <trkpt lat="42.901108" lon="-2.54477">
        <ele>554.684</ele>
        <time>2022-03-20T13:00:10Z</time>
      </trkpt>
      <trkpt lat="42.901104" lon="-2.544775">
        <ele>554.667</ele>
        <time>2022-03-20T13:00:11Z</time>
      </trkpt>
      <trkpt lat="42.901102" lon="-2.544779">
        <ele>554.656</ele>
        <time>2022-03-20T13:00:12Z</time>
      </trkpt>
      <trkpt lat="42.901103" lon="-2.544781">
        <ele>554.694</ele>
        <time>2022-03-20T13:00:13Z</time>
      </trkpt>
      <trkpt lat="42.901103" lon="-2.544784">
        <ele>554.645</ele>
        <time>2022-03-20T13:00:14Z</time>
      </trkpt>
      <trkpt lat="42.901104" lon="-2.544786">
        <ele>554.647</ele>
        <time>2022-03-20T13:00:15Z</time>
      </trkpt>
      <trkpt lat="42.901106" lon="-2.544786">
        <ele>554.411</ele>
        <time>2022-03-20T13:00:16Z</time>
      </trkpt>
      <trkpt lat="42.901108" lon="-2.544786">
        <ele>554.408</ele>
        <time>2022-03-20T13:00:17Z</time>
      </trkpt>
      <trkpt lat="42.901111" lon="-2.544785">
        <ele>554.493</ele>
        <time>2022-03-20T13:00:18Z</time>
      </trkpt>
      <trkpt lat="42.901108" lon="-2.544784">
        <ele>554.061</ele>
        <time>2022-03-20T13:00:19Z</time>
      </trkpt>
      <trkpt lat="42.90111" lon="-2.544785">
        <ele>554.083</ele>
        <time>2022-03-20T13:00:20Z</time>
      </trkpt>
      <trkpt lat="42.901111" lon="-2.544782">
        <ele>554.025</ele>
        <time>2022-03-20T13:00:21Z</time>
      </trkpt>
      <trkpt lat="42.901113" lon="-2.54478">
        <ele>553.863</ele>
        <time>2022-03-20T13:00:22Z</time>
      </trkpt>
      <trkpt lat="42.901114" lon="-2.544778">
        <ele>553.846</ele>
        <time>2022-03-20T13:00:23Z</time>
      </trkpt>
      <trkpt lat="42.901113" lon="-2.544777">
        <ele>553.835</ele>
        <time>2022-03-20T13:00:24Z</time>
      </trkpt>
      <trkpt lat="42.901113" lon="-2.544777">
        <ele>553.853</ele>
        <time>2022-03-20T13:00:25Z</time>
      </trkpt>
      <trkpt lat="42.901113" lon="-2.544777">
        <ele>554.069</ele>
        <time>2022-03-20T13:00:26Z</time>
      </trkpt>
      <trkpt lat="42.901113" lon="-2.544777">
        <ele>554.004</ele>
        <time>2022-03-20T13:00:27Z</time>
      </trkpt>
      <trkpt lat="42.901113" lon="-2.544777">
        <ele>554.024</ele>
        <time>2022-03-20T13:00:28Z</time>
      </trkpt>
      <trkpt lat="42.901113" lon="-2.544777">
        <ele>554.008</ele>
        <time>2022-03-20T13:00:29Z</time>
      </trkpt>
      <trkpt lat="42.901113" lon="-2.544777">
        <ele>554.215</ele>
        <time>2022-03-20T13:00:30Z</time>
      </trkpt>
      <trkpt lat="42.901113" lon="-2.544777">
        <ele>554.023</ele>
        <time>2022-03-20T13:00:31Z</time>
      </trkpt>
      <trkpt lat="42.901113" lon="-2.544777">
        <ele>554.015</ele>
        <time>2022-03-20T13:00:32Z</time>
      </trkpt>
      <trkpt lat="42.901113" lon="-2.544777">
        <ele>554.067</ele>
        <time>2022-03-20T13:00:33Z</time>
      </trkpt>
      <trkpt lat="42.901113" lon="-2.544777">
        <ele>554.085</ele>
        <time>2022-03-20T13:00:34Z</time>
      </trkpt>
      <trkpt lat="42.901113" lon="-2.544777">
        <ele>554.078</ele>
        <time>2022-03-20T13:00:35Z</time>
      </trkpt>
      <trkpt lat="42.901113" lon="-2.544777">
        <ele>554.257</ele>
        <time>2022-03-20T13:00:36Z</time>
      </trkpt>
      <trkpt lat="42.901113" lon="-2.544777">
        <ele>554.285</ele>
        <time>2022-03-20T13:00:37Z</time>
      </trkpt>
      <trkpt lat="42.901113" lon="-2.544777">
        <ele>554.495</ele>
        <time>2022-03-20T13:00:38Z</time>
      </trkpt>
      <trkpt lat="42.901113" lon="-2.544777">
        <ele>554.449</ele>
        <time>2022-03-20T13:00:39Z</time>
      </trkpt>
      <trkpt lat="42.901113" lon="-2.544777">
        <ele>554.423</ele>
        <time>2022-03-20T13:00:40Z</time>
      </trkpt>
      <trkpt lat="42.901113" lon="-2.544777">
        <ele>554.408</ele>
        <time>2022-03-20T13:00:41Z</time>
      </trkpt>
      <trkpt lat="42.901113" lon="-2.544777">
        <ele>554.438</ele>
        <time>2022-03-20T13:00:42Z</time>
      </trkpt>
      <trkpt lat="42.901113" lon="-2.544777">
        <ele>554.496</ele>
        <time>2022-03-20T13:00:43Z</time>
      </trkpt>
      <trkpt lat="42.901113" lon="-2.544777">
        <ele>554.468</ele>
        <time>2022-03-20T13:00:44Z</time>
      </trkpt>
      <trkpt lat="42.901307" lon="-2.54412">
        <ele>542.877</ele>
        <time>2022-03-20T13:04:00Z</time>
      </trkpt>
      <trkpt lat="42.901289" lon="-2.544137">
        <ele>543.261</ele>
        <time>2022-03-20T13:04:03Z</time>
      </trkpt>
      <trkpt lat="42.901247" lon="-2.544108">
        <ele>544.027</ele>
        <time>2022-03-20T13:04:04Z</time>
      </trkpt>
      <trkpt lat="42.901205" lon="-2.544081">
        <ele>544.008</ele>
        <time>2022-03-20T13:04:05Z</time>
      </trkpt>
      <trkpt lat="42.901194" lon="-2.544087">
        <ele>544.066</ele>
        <time>2022-03-20T13:04:06Z</time>
      </trkpt>
      <trkpt lat="42.901175" lon="-2.544096">
        <ele>544.014</ele>
        <time>2022-03-20T13:04:07Z</time>
      </trkpt>
      <trkpt lat="42.901159" lon="-2.544081">
        <ele>542.476</ele>
        <time>2022-03-20T13:04:08Z</time>
      </trkpt>
      <trkpt lat="42.901145" lon="-2.544076">
        <ele>542.271</ele>
        <time>2022-03-20T13:04:09Z</time>
      </trkpt>
      <trkpt lat="42.901134" lon="-2.544066">
        <ele>542.064</ele>
        <time>2022-03-20T13:04:10Z</time>
      </trkpt>
      <trkpt lat="42.901126" lon="-2.544048">
        <ele>541.663</ele>
        <time>2022-03-20T13:04:11Z</time>
      </trkpt>
      <trkpt lat="42.901129" lon="-2.544032">
        <ele>541.698</ele>
        <time>2022-03-20T13:04:12Z</time>
      </trkpt>
      <trkpt lat="42.901127" lon="-2.544022">
        <ele>540.819</ele>
        <time>2022-03-20T13:04:13Z</time>
      </trkpt>
      <trkpt lat="42.901129" lon="-2.544012">
        <ele>540.859</ele>
        <time>2022-03-20T13:04:14Z</time>
      </trkpt>
      <trkpt lat="42.901132" lon="-2.544001">
        <ele>540.803</ele>
        <time>2022-03-20T13:04:15Z</time>
      </trkpt>
      <trkpt lat="42.901132" lon="-2.543991">
        <ele>540.823</ele>
        <time>2022-03-20T13:04:16Z</time>
      </trkpt>
      <trkpt lat="42.901132" lon="-2.543983">
        <ele>540.808</ele>
        <time>2022-03-20T13:04:17Z</time>
      </trkpt>
      <trkpt lat="42.901129" lon="-2.543974">
        <ele>541.254</ele>
        <time>2022-03-20T13:04:18Z</time>
      </trkpt>
      <trkpt lat="42.901135" lon="-2.543966">
        <ele>542.262</ele>
        <time>2022-03-20T13:04:19Z</time>
      </trkpt>
      <trkpt lat="42.901139" lon="-2.543957">
        <ele>542.484</ele>
        <time>2022-03-20T13:04:20Z</time>
      </trkpt>
      <trkpt lat="42.901136" lon="-2.543946">
        <ele>542.659</ele>
        <time>2022-03-20T13:04:21Z</time>
      </trkpt>
      <trkpt lat="42.901137" lon="-2.543932">
        <ele>543.242</ele>
        <time>2022-03-20T13:04:22Z</time>
      </trkpt>
      <trkpt lat="42.901131" lon="-2.543918">
        <ele>543.691</ele>
        <time>2022-03-20T13:04:23Z</time>
      </trkpt>
      <trkpt lat="42.901127" lon="-2.543907">
        <ele>543.616</ele>
        <time>2022-03-20T13:04:24Z</time>
      </trkpt>
      <trkpt lat="42.901127" lon="-2.543896">
        <ele>543.657</ele>
        <time>2022-03-20T13:04:25Z</time>
      </trkpt>
      <trkpt lat="42.901129" lon="-2.543888">
        <ele>543.682</ele>
        <time>2022-03-20T13:04:26Z</time>
      </trkpt>
      <trkpt lat="42.901123" lon="-2.543875">
        <ele>543.643</ele>
        <time>2022-03-20T13:04:27Z</time>
      </trkpt>
      <trkpt lat="42.90112" lon="-2.543865">
        <ele>543.417</ele>
        <time>2022-03-20T13:04:28Z</time>
      </trkpt>
      <trkpt lat="42.901119" lon="-2.543853">
        <ele>543.208</ele>
        <time>2022-03-20T13:04:29Z</time>
      </trkpt>
      <trkpt lat="42.901118" lon="-2.543841">
        <ele>543.047</ele>
        <time>2022-03-20T13:04:30Z</time>
      </trkpt>
      <trkpt lat="42.901113" lon="-2.543829">
        <ele>543.295</ele>
        <time>2022-03-20T13:04:31Z</time>
      </trkpt>
      <trkpt lat="42.901111" lon="-2.543816">
        <ele>543.017</ele>
        <time>2022-03-20T13:04:32Z</time>
      </trkpt>
      <trkpt lat="42.901111" lon="-2.543804">
        <ele>543.082</ele>
        <time>2022-03-20T13:04:33Z</time>
      </trkpt>
      <trkpt lat="42.901108" lon="-2.543791">
        <ele>543.235</ele>
        <time>2022-03-20T13:04:34Z</time>
      </trkpt>
      <trkpt lat="42.901107" lon="-2.543779">
        <ele>543.094</ele>
        <time>2022-03-20T13:04:35Z</time>
      </trkpt>
      <trkpt lat="42.901105" lon="-2.543768">
        <ele>543.299</ele>
        <time>2022-03-20T13:04:36Z</time>
      </trkpt>
      <trkpt lat="42.901101" lon="-2.543754">
        <ele>543.230</ele>
        <time>2022-03-20T13:04:37Z</time>
      </trkpt>
      <trkpt lat="42.901097" lon="-2.543745">
        <ele>543.299</ele>
        <time>2022-03-20T13:04:38Z</time>
      </trkpt>
      <trkpt lat="42.901095" lon="-2.543735">
        <ele>543.207</ele>
        <time>2022-03-20T13:04:39Z</time>
      </trkpt>
      <trkpt lat="42.901093" lon="-2.543725">
        <ele>543.227</ele>
        <time>2022-03-20T13:04:40Z</time>
      </trkpt>
      <trkpt lat="42.90109" lon="-2.543713">
        <ele>543.008</ele>
        <time>2022-03-20T13:04:41Z</time>
      </trkpt>
      <trkpt lat="42.901087" lon="-2.543704">
        <ele>543.238</ele>
        <time>2022-03-20T13:04:42Z</time>
      </trkpt>
      <trkpt lat="42.901083" lon="-2.543691">
        <ele>543.266</ele>
        <time>2022-03-20T13:04:43Z</time>
      </trkpt>
      <trkpt lat="42.901083" lon="-2.543679">
        <ele>543.268</ele>
        <time>2022-03-20T13:04:44Z</time>
      </trkpt>
      <trkpt lat="42.90108" lon="-2.543666">
        <ele>543.213</ele>
        <time>2022-03-20T13:04:45Z</time>
      </trkpt>
      <trkpt lat="42.901074" lon="-2.543657">
        <ele>543.246</ele>
        <time>2022-03-20T13:04:46Z</time>
      </trkpt>
      <trkpt lat="42.901071" lon="-2.543649">
        <ele>543.295</ele>
        <time>2022-03-20T13:04:47Z</time>
      </trkpt>
      <trkpt lat="42.901068" lon="-2.543639">
        <ele>543.220</ele>
        <time>2022-03-20T13:04:48Z</time>
      </trkpt>
      <trkpt lat="42.901063" lon="-2.543626">
        <ele>543.221</ele>
        <time>2022-03-20T13:04:49Z</time>
      </trkpt>
      <trkpt lat="42.901057" lon="-2.543616">
        <ele>543.247</ele>
        <time>2022-03-20T13:04:50Z</time>
      </trkpt>
      <trkpt lat="42.901051" lon="-2.543605">
        <ele>543.229</ele>
        <time>2022-03-20T13:04:51Z</time>
      </trkpt>
      <trkpt lat="42.901048" lon="-2.543597">
        <ele>543.221</ele>
        <time>2022-03-20T13:04:52Z</time>
      </trkpt>
      <trkpt lat="42.901045" lon="-2.543583">
        <ele>543.208</ele>
        <time>2022-03-20T13:04:53Z</time>
      </trkpt>
      <trkpt lat="42.901037" lon="-2.543571">
        <ele>543.243</ele>
        <time>2022-03-20T13:04:54Z</time>
      </trkpt>
      <trkpt lat="42.901031" lon="-2.543563">
        <ele>543.021</ele>
        <time>2022-03-20T13:04:55Z</time>
      </trkpt>
      <trkpt lat="42.901023" lon="-2.543557">
        <ele>543.093</ele>
        <time>2022-03-20T13:04:56Z</time>
      </trkpt>
      <trkpt lat="42.901018" lon="-2.543551">
        <ele>542.448</ele>
        <time>2022-03-20T13:04:57Z</time>
      </trkpt>
      <trkpt lat="42.901014" lon="-2.543546">
        <ele>543.091</ele>
        <time>2022-03-20T13:04:58Z</time>
      </trkpt>
      <trkpt lat="42.90101" lon="-2.543539">
        <ele>543.020</ele>
        <time>2022-03-20T13:04:59Z</time>
      </trkpt>
      <trkpt lat="42.901006" lon="-2.543534">
        <ele>543.015</ele>
        <time>2022-03-20T13:05:00Z</time>
      </trkpt>
      <trkpt lat="42.901002" lon="-2.543528">
        <ele>543.066</ele>
        <time>2022-03-20T13:05:01Z</time>
      </trkpt>
      <trkpt lat="42.900999" lon="-2.54352">
        <ele>543.018</ele>
        <time>2022-03-20T13:05:02Z</time>
      </trkpt>
      <trkpt lat="42.900998" lon="-2.543513">
        <ele>542.898</ele>
        <time>2022-03-20T13:05:03Z</time>
      </trkpt>
      <trkpt lat="42.900995" lon="-2.543508">
        <ele>543.017</ele>
        <time>2022-03-20T13:05:04Z</time>
      </trkpt>
      <trkpt lat="42.900989" lon="-2.543504">
        <ele>542.808</ele>
        <time>2022-03-20T13:05:05Z</time>
      </trkpt>
      <trkpt lat="42.900978" lon="-2.543498">
        <ele>542.260</ele>
        <time>2022-03-20T13:05:06Z</time>
      </trkpt>
      <trkpt lat="42.900974" lon="-2.543496">
        <ele>542.248</ele>
        <time>2022-03-20T13:05:07Z</time>
      </trkpt>
      <trkpt lat="42.900967" lon="-2.543494">
        <ele>542.210</ele>
        <time>2022-03-20T13:05:08Z</time>
      </trkpt>
      <trkpt lat="42.900964" lon="-2.543494">
        <ele>542.255</ele>
        <time>2022-03-20T13:05:09Z</time>
      </trkpt>
      <trkpt lat="42.900962" lon="-2.543494">
        <ele>542.258</ele>
        <time>2022-03-20T13:05:10Z</time>
      </trkpt>
      <trkpt lat="42.90096" lon="-2.543493">
        <ele>542.277</ele>
        <time>2022-03-20T13:05:11Z</time>
      </trkpt>
      <trkpt lat="42.90096" lon="-2.543492">
        <ele>542.292</ele>
        <time>2022-03-20T13:05:12Z</time>
      </trkpt>
      <trkpt lat="42.90096" lon="-2.543494">
        <ele>542.243</ele>
        <time>2022-03-20T13:05:13Z</time>
      </trkpt>
      <trkpt lat="42.900958" lon="-2.543496">
        <ele>542.048</ele>
        <time>2022-03-20T13:05:14Z</time>
      </trkpt>
      <trkpt lat="42.900958" lon="-2.543498">
        <ele>542.061</ele>
        <time>2022-03-20T13:05:15Z</time>
      </trkpt>
      <trkpt lat="42.900959" lon="-2.543501">
        <ele>542.017</ele>
        <time>2022-03-20T13:05:16Z</time>
      </trkpt>
      <trkpt lat="42.900961" lon="-2.543501">
        <ele>542.008</ele>
        <time>2022-03-20T13:05:17Z</time>
      </trkpt>
      <trkpt lat="42.900963" lon="-2.543503">
        <ele>542.223</ele>
        <time>2022-03-20T13:05:18Z</time>
      </trkpt>
      <trkpt lat="42.900963" lon="-2.543503">
        <ele>542.251</ele>
        <time>2022-03-20T13:05:19Z</time>
      </trkpt>
      <trkpt lat="42.900963" lon="-2.543503">
        <ele>542.283</ele>
        <time>2022-03-20T13:05:20Z</time>
      </trkpt>
      <trkpt lat="42.900963" lon="-2.543503">
        <ele>542.258</ele>
        <time>2022-03-20T13:05:21Z</time>
      </trkpt>
      <trkpt lat="42.900963" lon="-2.543503">
        <ele>542.241</ele>
        <time>2022-03-20T13:05:22Z</time>
      </trkpt>
      <trkpt lat="42.900963" lon="-2.543503">
        <ele>542.030</ele>
        <time>2022-03-20T13:05:23Z</time>
      </trkpt>
      <trkpt lat="42.900963" lon="-2.543503">
        <ele>541.885</ele>
        <time>2022-03-20T13:05:24Z</time>
      </trkpt>
      <trkpt lat="42.900963" lon="-2.543503">
        <ele>541.826</ele>
        <time>2022-03-20T13:05:25Z</time>
      </trkpt>
      <trkpt lat="42.900963" lon="-2.543503">
        <ele>541.827</ele>
        <time>2022-03-20T13:05:26Z</time>
      </trkpt>
      <trkpt lat="42.900963" lon="-2.543503">
        <ele>541.868</ele>
        <time>2022-03-20T13:05:27Z</time>
      </trkpt>
      <trkpt lat="42.900963" lon="-2.543503">
        <ele>541.814</ele>
        <time>2022-03-20T13:05:28Z</time>
      </trkpt>
      <trkpt lat="42.900962" lon="-2.543503">
        <ele>542.008</ele>
        <time>2022-03-20T13:05:29Z</time>
      </trkpt>
      <trkpt lat="42.900962" lon="-2.543503">
        <ele>542.071</ele>
        <time>2022-03-20T13:05:30Z</time>
      </trkpt>
      <trkpt lat="42.900961" lon="-2.543503">
        <ele>542.099</ele>
        <time>2022-03-20T13:05:31Z</time>
      </trkpt>
      <trkpt lat="42.900961" lon="-2.543503">
        <ele>542.061</ele>
        <time>2022-03-20T13:05:32Z</time>
      </trkpt>
      <trkpt lat="42.90096" lon="-2.543503">
        <ele>542.466</ele>
        <time>2022-03-20T13:05:33Z</time>
      </trkpt>
      <trkpt lat="42.90096" lon="-2.543503">
        <ele>542.449</ele>
        <time>2022-03-20T13:05:34Z</time>
      </trkpt>
      <trkpt lat="42.90096" lon="-2.543502">
        <ele>542.068</ele>
        <time>2022-03-20T13:05:35Z</time>
      </trkpt>
      <trkpt lat="42.900959" lon="-2.543502">
        <ele>542.073</ele>
        <time>2022-03-20T13:05:36Z</time>
      </trkpt>
      <trkpt lat="42.900958" lon="-2.543501">
        <ele>542.094</ele>
        <time>2022-03-20T13:05:37Z</time>
      </trkpt>
      <trkpt lat="42.900958" lon="-2.543501">
        <ele>541.857</ele>
        <time>2022-03-20T13:05:38Z</time>
      </trkpt>
      <trkpt lat="42.900958" lon="-2.543501">
        <ele>541.800</ele>
        <time>2022-03-20T13:05:39Z</time>
      </trkpt>
      <trkpt lat="42.900958" lon="-2.543501">
        <ele>541.620</ele>
        <time>2022-03-20T13:05:40Z</time>
      </trkpt>
      <trkpt lat="42.900958" lon="-2.543501">
        <ele>541.408</ele>
        <time>2022-03-20T13:05:41Z</time>
      </trkpt>
      <trkpt lat="42.900958" lon="-2.543502">
        <ele>541.424</ele>
        <time>2022-03-20T13:05:42Z</time>
      </trkpt>
      <trkpt lat="42.900958" lon="-2.543502">
        <ele>541.672</ele>
        <time>2022-03-20T13:05:43Z</time>
      </trkpt>
      <trkpt lat="42.900958" lon="-2.543502">
        <ele>541.694</ele>
        <time>2022-03-20T13:05:44Z</time>
      </trkpt>
      <trkpt lat="42.900957" lon="-2.543503">
        <ele>541.699</ele>
        <time>2022-03-20T13:05:45Z</time>
      </trkpt>
      <trkpt lat="42.900957" lon="-2.543503">
        <ele>541.852</ele>
        <time>2022-03-20T13:05:46Z</time>
      </trkpt>
      <trkpt lat="42.900957" lon="-2.543503">
        <ele>541.841</ele>
        <time>2022-03-20T13:05:47Z</time>
      </trkpt>
      <trkpt lat="42.900957" lon="-2.543503">
        <ele>542.226</ele>
        <time>2022-03-20T13:05:48Z</time>
      </trkpt>
      <trkpt lat="42.900957" lon="-2.543503">
        <ele>542.447</ele>
        <time>2022-03-20T13:05:49Z</time>
      </trkpt>
      <trkpt lat="42.900957" lon="-2.543503">
        <ele>542.471</ele>
        <time>2022-03-20T13:05:50Z</time>
      </trkpt>
      <trkpt lat="42.900957" lon="-2.543502">
        <ele>542.441</ele>
        <time>2022-03-20T13:05:51Z</time>
      </trkpt>
      <trkpt lat="42.900956" lon="-2.543502">
        <ele>542.415</ele>
        <time>2022-03-20T13:05:52Z</time>
      </trkpt>
      <trkpt lat="42.900956" lon="-2.543502">
        <ele>542.008</ele>
        <time>2022-03-20T13:05:53Z</time>
      </trkpt>
      <trkpt lat="42.900956" lon="-2.543502">
        <ele>542.046</ele>
        <time>2022-03-20T13:05:54Z</time>
      </trkpt>
      <trkpt lat="42.900956" lon="-2.543501">
        <ele>542.054</ele>
        <time>2022-03-20T13:05:55Z</time>
      </trkpt>
      <trkpt lat="42.900955" lon="-2.543501">
        <ele>541.846</ele>
        <time>2022-03-20T13:05:56Z</time>
      </trkpt>
      <trkpt lat="42.900955" lon="-2.543501">
        <ele>541.681</ele>
        <time>2022-03-20T13:05:57Z</time>
      </trkpt>
      <trkpt lat="42.900955" lon="-2.543501">
        <ele>541.664</ele>
        <time>2022-03-20T13:05:58Z</time>
      </trkpt>
      <trkpt lat="42.900955" lon="-2.543501">
        <ele>541.683</ele>
        <time>2022-03-20T13:05:59Z</time>
      </trkpt>
      <trkpt lat="42.900955" lon="-2.543501">
        <ele>541.628</ele>
        <time>2022-03-20T13:06:00Z</time>
      </trkpt>
      <trkpt lat="42.900955" lon="-2.543501">
        <ele>541.659</ele>
        <time>2022-03-20T13:06:01Z</time>
      </trkpt>
      <trkpt lat="42.900955" lon="-2.543501">
        <ele>541.452</ele>
        <time>2022-03-20T13:06:02Z</time>
      </trkpt>
      <trkpt lat="42.900954" lon="-2.5435">
        <ele>541.453</ele>
        <time>2022-03-20T13:06:03Z</time>
      </trkpt>
      <trkpt lat="42.900954" lon="-2.543499">
        <ele>541.408</ele>
        <time>2022-03-20T13:06:04Z</time>
      </trkpt>
      <trkpt lat="42.900954" lon="-2.543499">
        <ele>541.208</ele>
        <time>2022-03-20T13:06:05Z</time>
      </trkpt>
      <trkpt lat="42.900949" lon="-2.543493">
        <ele>541.444</ele>
        <time>2022-03-20T13:06:06Z</time>
      </trkpt>
      <trkpt lat="42.900935" lon="-2.543478">
        <ele>541.432</ele>
        <time>2022-03-20T13:06:07Z</time>
      </trkpt>
      <trkpt lat="42.900923" lon="-2.543465">
        <ele>541.444</ele>
        <time>2022-03-20T13:06:08Z</time>
      </trkpt>
      <trkpt lat="42.900913" lon="-2.543453">
        <ele>541.239</ele>
        <time>2022-03-20T13:06:09Z</time>
      </trkpt>
      <trkpt lat="42.9009" lon="-2.543436">
        <ele>541.252</ele>
        <time>2022-03-20T13:06:10Z</time>
      </trkpt>
      <trkpt lat="42.900891" lon="-2.543422">
        <ele>541.641</ele>
        <time>2022-03-20T13:06:11Z</time>
      </trkpt>
      <trkpt lat="42.900881" lon="-2.543408">
        <ele>541.656</ele>
        <time>2022-03-20T13:06:12Z</time>
      </trkpt>
      <trkpt lat="42.900872" lon="-2.543395">
        <ele>541.457</ele>
        <time>2022-03-20T13:06:13Z</time>
      </trkpt>
      <trkpt lat="42.900863" lon="-2.543382">
        <ele>541.442</ele>
        <time>2022-03-20T13:06:14Z</time>
      </trkpt>
      <trkpt lat="42.900852" lon="-2.543369">
        <ele>541.622</ele>
        <time>2022-03-20T13:06:15Z</time>
      </trkpt>
      <trkpt lat="42.900841" lon="-2.543358">
        <ele>541.614</ele>
        <time>2022-03-20T13:06:16Z</time>
      </trkpt>
      <trkpt lat="42.900833" lon="-2.54335">
        <ele>542.008</ele>
        <time>2022-03-20T13:06:17Z</time>
      </trkpt>
      <trkpt lat="42.900825" lon="-2.543345">
        <ele>541.473</ele>
        <time>2022-03-20T13:06:18Z</time>
      </trkpt>
      <trkpt lat="42.900818" lon="-2.543341">
        <ele>541.291</ele>
        <time>2022-03-20T13:06:19Z</time>
      </trkpt>
      <trkpt lat="42.900806" lon="-2.543334">
        <ele>541.473</ele>
        <time>2022-03-20T13:06:20Z</time>
      </trkpt>
      <trkpt lat="42.900794" lon="-2.54333">
        <ele>541.498</ele>
        <time>2022-03-20T13:06:21Z</time>
      </trkpt>
      <trkpt lat="42.900785" lon="-2.543326">
        <ele>541.471</ele>
        <time>2022-03-20T13:06:22Z</time>
      </trkpt>
      <trkpt lat="42.900778" lon="-2.543321">
        <ele>542.090</ele>
        <time>2022-03-20T13:06:23Z</time>
      </trkpt>
      <trkpt lat="42.900772" lon="-2.543317">
        <ele>542.655</ele>
        <time>2022-03-20T13:06:24Z</time>
      </trkpt>
      <trkpt lat="42.900761" lon="-2.54331">
        <ele>543.066</ele>
        <time>2022-03-20T13:06:25Z</time>
      </trkpt>
      <trkpt lat="42.90075" lon="-2.543302">
        <ele>543.287</ele>
        <time>2022-03-20T13:06:26Z</time>
      </trkpt>
      <trkpt lat="42.900744" lon="-2.543296">
        <ele>543.242</ele>
        <time>2022-03-20T13:06:27Z</time>
      </trkpt>
      <trkpt lat="42.900734" lon="-2.54329">
        <ele>543.226</ele>
        <time>2022-03-20T13:06:28Z</time>
      </trkpt>
      <trkpt lat="42.900729" lon="-2.543287">
        <ele>542.808</ele>
        <time>2022-03-20T13:06:29Z</time>
      </trkpt>
      <trkpt lat="42.900723" lon="-2.543283">
        <ele>542.697</ele>
        <time>2022-03-20T13:06:30Z</time>
      </trkpt>
      <trkpt lat="42.900714" lon="-2.543279">
        <ele>542.435</ele>
        <time>2022-03-20T13:06:31Z</time>
      </trkpt>
      <trkpt lat="42.900702" lon="-2.543276">
        <ele>542.247</ele>
        <time>2022-03-20T13:06:32Z</time>
      </trkpt>
      <trkpt lat="42.900692" lon="-2.543274">
        <ele>542.262</ele>
        <time>2022-03-20T13:06:33Z</time>
      </trkpt>
      <trkpt lat="42.900685" lon="-2.543271">
        <ele>542.295</ele>
        <time>2022-03-20T13:06:34Z</time>
      </trkpt>
      <trkpt lat="42.900678" lon="-2.543266">
        <ele>542.214</ele>
        <time>2022-03-20T13:06:35Z</time>
      </trkpt>
      <trkpt lat="42.900671" lon="-2.543262">
        <ele>542.269</ele>
        <time>2022-03-20T13:06:36Z</time>
      </trkpt>
      <trkpt lat="42.900661" lon="-2.543256">
        <ele>542.270</ele>
        <time>2022-03-20T13:06:37Z</time>
      </trkpt>
      <trkpt lat="42.900653" lon="-2.543251">
        <ele>542.482</ele>
        <time>2022-03-20T13:06:38Z</time>
      </trkpt>
      <trkpt lat="42.900646" lon="-2.543247">
        <ele>543.243</ele>
        <time>2022-03-20T13:06:39Z</time>
      </trkpt>
      <trkpt lat="42.900638" lon="-2.543242">
        <ele>542.417</ele>
        <time>2022-03-20T13:06:40Z</time>
      </trkpt>
      <trkpt lat="42.90063" lon="-2.543239">
        <ele>542.408</ele>
        <time>2022-03-20T13:06:41Z</time>
      </trkpt>
      <trkpt lat="42.900617" lon="-2.543234">
        <ele>543.237</ele>
        <time>2022-03-20T13:06:42Z</time>
      </trkpt>
      <trkpt lat="42.900608" lon="-2.54323">
        <ele>543.255</ele>
        <time>2022-03-20T13:06:43Z</time>
      </trkpt>
      <trkpt lat="42.9006" lon="-2.543228">
        <ele>543.297</ele>
        <time>2022-03-20T13:06:44Z</time>
      </trkpt>
      <trkpt lat="42.900591" lon="-2.543224">
        <ele>541.292</ele>
        <time>2022-03-20T13:06:45Z</time>
      </trkpt>
      <trkpt lat="42.900587" lon="-2.543224">
        <ele>540.445</ele>
        <time>2022-03-20T13:06:46Z</time>
      </trkpt>
      <trkpt lat="42.900579" lon="-2.543221">
        <ele>540.434</ele>
        <time>2022-03-20T13:06:47Z</time>
      </trkpt>
      <trkpt lat="42.900569" lon="-2.543216">
        <ele>540.039</ele>
        <time>2022-03-20T13:06:48Z</time>
      </trkpt>
      <trkpt lat="42.900559" lon="-2.543211">
        <ele>540.010</ele>
        <time>2022-03-20T13:06:49Z</time>
      </trkpt>
      <trkpt lat="42.900547" lon="-2.543205">
        <ele>540.069</ele>
        <time>2022-03-20T13:06:50Z</time>
      </trkpt>
      <trkpt lat="42.900539" lon="-2.5432">
        <ele>540.404</ele>
        <time>2022-03-20T13:06:51Z</time>
      </trkpt>
      <trkpt lat="42.900528" lon="-2.543195">
        <ele>540.824</ele>
        <time>2022-03-20T13:06:52Z</time>
      </trkpt>
      <trkpt lat="42.900515" lon="-2.543195">
        <ele>541.208</ele>
        <time>2022-03-20T13:06:53Z</time>
      </trkpt>
      <trkpt lat="42.900506" lon="-2.543194">
        <ele>542.655</ele>
        <time>2022-03-20T13:06:54Z</time>
      </trkpt>
      <trkpt lat="42.900501" lon="-2.543194">
        <ele>542.853</ele>
        <time>2022-03-20T13:06:55Z</time>
      </trkpt>
      <trkpt lat="42.900497" lon="-2.543192">
        <ele>542.835</ele>
        <time>2022-03-20T13:06:56Z</time>
      </trkpt>
      <trkpt lat="42.900488" lon="-2.543189">
        <ele>542.610</ele>
        <time>2022-03-20T13:06:57Z</time>
      </trkpt>
      <trkpt lat="42.900477" lon="-2.543184">
        <ele>542.683</ele>
        <time>2022-03-20T13:06:58Z</time>
      </trkpt>
      <trkpt lat="42.900468" lon="-2.543178">
        <ele>542.642</ele>
        <time>2022-03-20T13:06:59Z</time>
      </trkpt>
      <trkpt lat="42.900457" lon="-2.543179">
        <ele>542.647</ele>
        <time>2022-03-20T13:07:00Z</time>
      </trkpt>
      <trkpt lat="42.900445" lon="-2.543174">
        <ele>541.898</ele>
        <time>2022-03-20T13:07:01Z</time>
      </trkpt>
      <trkpt lat="42.900433" lon="-2.543174">
        <ele>541.898</ele>
        <time>2022-03-20T13:07:02Z</time>
      </trkpt>
      <trkpt lat="42.900423" lon="-2.543172">
        <ele>542.615</ele>
        <time>2022-03-20T13:07:03Z</time>
      </trkpt>
      <trkpt lat="42.900414" lon="-2.543169">
        <ele>542.626</ele>
        <time>2022-03-20T13:07:04Z</time>
      </trkpt>
      <trkpt lat="42.900407" lon="-2.543167">
        <ele>541.608</ele>
        <time>2022-03-20T13:07:05Z</time>
      </trkpt>
      <trkpt lat="42.900396" lon="-2.543167">
        <ele>541.628</ele>
        <time>2022-03-20T13:07:06Z</time>
      </trkpt>
      <trkpt lat="42.900391" lon="-2.543163">
        <ele>541.816</ele>
        <time>2022-03-20T13:07:07Z</time>
      </trkpt>
      <trkpt lat="42.900381" lon="-2.543163">
        <ele>541.878</ele>
        <time>2022-03-20T13:07:08Z</time>
      </trkpt>
      <trkpt lat="42.900369" lon="-2.543161">
        <ele>541.663</ele>
        <time>2022-03-20T13:07:09Z</time>
      </trkpt>
      <trkpt lat="42.90036" lon="-2.543157">
        <ele>541.216</ele>
        <time>2022-03-20T13:07:10Z</time>
      </trkpt>
      <trkpt lat="42.900349" lon="-2.543155">
        <ele>541.275</ele>
        <time>2022-03-20T13:07:11Z</time>
      </trkpt>
      <trkpt lat="42.90034" lon="-2.543154">
        <ele>541.210</ele>
        <time>2022-03-20T13:07:12Z</time>
      </trkpt>
      <trkpt lat="42.900334" lon="-2.543152">
        <ele>541.261</ele>
        <time>2022-03-20T13:07:13Z</time>
      </trkpt>
      <trkpt lat="42.900326" lon="-2.54315">
        <ele>541.219</ele>
        <time>2022-03-20T13:07:14Z</time>
      </trkpt>
      <trkpt lat="42.900315" lon="-2.543147">
        <ele>541.209</ele>
        <time>2022-03-20T13:07:15Z</time>
      </trkpt>
      <trkpt lat="42.900305" lon="-2.543146">
        <ele>541.219</ele>
        <time>2022-03-20T13:07:16Z</time>
      </trkpt>
      <trkpt lat="42.900297" lon="-2.543145">
        <ele>542.208</ele>
        <time>2022-03-20T13:07:17Z</time>
      </trkpt>
      <trkpt lat="42.900288" lon="-2.543142">
        <ele>542.220</ele>
        <time>2022-03-20T13:07:18Z</time>
      </trkpt>
      <trkpt lat="42.900278" lon="-2.543143">
        <ele>542.238</ele>
        <time>2022-03-20T13:07:19Z</time>
      </trkpt>
      <trkpt lat="42.900265" lon="-2.543145">
        <ele>542.250</ele>
        <time>2022-03-20T13:07:20Z</time>
      </trkpt>
      <trkpt lat="42.900256" lon="-2.543147">
        <ele>542.215</ele>
        <time>2022-03-20T13:07:21Z</time>
      </trkpt>
      <trkpt lat="42.900245" lon="-2.543146">
        <ele>542.248</ele>
        <time>2022-03-20T13:07:22Z</time>
      </trkpt>
      <trkpt lat="42.900236" lon="-2.543144">
        <ele>542.237</ele>
        <time>2022-03-20T13:07:23Z</time>
      </trkpt>
      <trkpt lat="42.900225" lon="-2.543141">
        <ele>542.222</ele>
        <time>2022-03-20T13:07:24Z</time>
      </trkpt>
      <trkpt lat="42.900217" lon="-2.543139">
        <ele>542.243</ele>
        <time>2022-03-20T13:07:25Z</time>
      </trkpt>
      <trkpt lat="42.900208" lon="-2.543138">
        <ele>542.249</ele>
        <time>2022-03-20T13:07:26Z</time>
      </trkpt>
      <trkpt lat="42.900203" lon="-2.543136">
        <ele>542.002</ele>
        <time>2022-03-20T13:07:27Z</time>
      </trkpt>
      <trkpt lat="42.900196" lon="-2.543133">
        <ele>542.222</ele>
        <time>2022-03-20T13:07:28Z</time>
      </trkpt>
      <trkpt lat="42.900188" lon="-2.543132">
        <ele>541.608</ele>
        <time>2022-03-20T13:07:29Z</time>
      </trkpt>
      <trkpt lat="42.900179" lon="-2.543132">
        <ele>541.483</ele>
        <time>2022-03-20T13:07:30Z</time>
      </trkpt>
      <trkpt lat="42.900167" lon="-2.543132">
        <ele>540.621</ele>
        <time>2022-03-20T13:07:31Z</time>
      </trkpt>
      <trkpt lat="42.900158" lon="-2.543135">
        <ele>540.663</ele>
        <time>2022-03-20T13:07:32Z</time>
      </trkpt>
      <trkpt lat="42.900152" lon="-2.543137">
        <ele>541.658</ele>
        <time>2022-03-20T13:07:33Z</time>
      </trkpt>
      <trkpt lat="42.900147" lon="-2.543139">
        <ele>541.681</ele>
        <time>2022-03-20T13:07:34Z</time>
      </trkpt>
      <trkpt lat="42.90013" lon="-2.543144">
        <ele>541.650</ele>
        <time>2022-03-20T13:07:35Z</time>
      </trkpt>
      <trkpt lat="42.900125" lon="-2.543146">
        <ele>541.685</ele>
        <time>2022-03-20T13:07:36Z</time>
      </trkpt>
      <trkpt lat="42.900119" lon="-2.543146">
        <ele>541.846</ele>
        <time>2022-03-20T13:07:37Z</time>
      </trkpt>
      <trkpt lat="42.90011" lon="-2.543146">
        <ele>541.881</ele>
        <time>2022-03-20T13:07:38Z</time>
      </trkpt>
      <trkpt lat="42.900099" lon="-2.543145">
        <ele>541.861</ele>
        <time>2022-03-20T13:07:39Z</time>
      </trkpt>
      <trkpt lat="42.900087" lon="-2.543143">
        <ele>542.417</ele>
        <time>2022-03-20T13:07:40Z</time>
      </trkpt>
      <trkpt lat="42.900078" lon="-2.543142">
        <ele>542.608</ele>
        <time>2022-03-20T13:07:41Z</time>
      </trkpt>
      <trkpt lat="42.900069" lon="-2.54314">
        <ele>542.667</ele>
        <time>2022-03-20T13:07:42Z</time>
      </trkpt>
      <trkpt lat="42.900055" lon="-2.543137">
        <ele>542.615</ele>
        <time>2022-03-20T13:07:43Z</time>
      </trkpt>
      <trkpt lat="42.900046" lon="-2.543131">
        <ele>542.837</ele>
        <time>2022-03-20T13:07:44Z</time>
      </trkpt>
      <trkpt lat="42.900035" lon="-2.543123">
        <ele>543.492</ele>
        <time>2022-03-20T13:07:45Z</time>
      </trkpt>
      <trkpt lat="42.900029" lon="-2.543118">
        <ele>544.285</ele>
        <time>2022-03-20T13:07:46Z</time>
      </trkpt>
      <trkpt lat="42.900023" lon="-2.543113">
        <ele>544.634</ele>
        <time>2022-03-20T13:07:47Z</time>
      </trkpt>
      <trkpt lat="42.900016" lon="-2.543107">
        <ele>545.619</ele>
        <time>2022-03-20T13:07:48Z</time>
      </trkpt>
      <trkpt lat="42.90001" lon="-2.543099">
        <ele>545.650</ele>
        <time>2022-03-20T13:07:49Z</time>
      </trkpt>
      <trkpt lat="42.900006" lon="-2.543089">
        <ele>545.678</ele>
        <time>2022-03-20T13:07:50Z</time>
      </trkpt>
      <trkpt lat="42.900002" lon="-2.543079">
        <ele>545.633</ele>
        <time>2022-03-20T13:07:51Z</time>
      </trkpt>
      <trkpt lat="42.899999" lon="-2.543069">
        <ele>546.026</ele>
        <time>2022-03-20T13:07:52Z</time>
      </trkpt>
      <trkpt lat="42.899996" lon="-2.543059">
        <ele>546.208</ele>
        <time>2022-03-20T13:07:53Z</time>
      </trkpt>
      <trkpt lat="42.899991" lon="-2.543047">
        <ele>546.296</ele>
        <time>2022-03-20T13:07:54Z</time>
      </trkpt>
      <trkpt lat="42.899987" lon="-2.543036">
        <ele>546.294</ele>
        <time>2022-03-20T13:07:55Z</time>
      </trkpt>
      <trkpt lat="42.899984" lon="-2.543026">
        <ele>546.216</ele>
        <time>2022-03-20T13:07:56Z</time>
      </trkpt>
      <trkpt lat="42.89998" lon="-2.543013">
        <ele>546.291</ele>
        <time>2022-03-20T13:07:57Z</time>
      </trkpt>
      <trkpt lat="42.899976" lon="-2.543002">
        <ele>545.044</ele>
        <time>2022-03-20T13:07:58Z</time>
      </trkpt>
      <trkpt lat="42.899977" lon="-2.542995">
        <ele>545.033</ele>
        <time>2022-03-20T13:07:59Z</time>
      </trkpt>
      <trkpt lat="42.89998" lon="-2.542986">
        <ele>543.818</ele>
        <time>2022-03-20T13:08:00Z</time>
      </trkpt>
      <trkpt lat="42.899979" lon="-2.542975">
        <ele>543.649</ele>
        <time>2022-03-20T13:08:01Z</time>
      </trkpt>
      <trkpt lat="42.899979" lon="-2.542964">
        <ele>543.698</ele>
        <time>2022-03-20T13:08:02Z</time>
      </trkpt>
      <trkpt lat="42.89998" lon="-2.542954">
        <ele>543.415</ele>
        <time>2022-03-20T13:08:03Z</time>
      </trkpt>
      <trkpt lat="42.899981" lon="-2.542944">
        <ele>543.426</ele>
        <time>2022-03-20T13:08:04Z</time>
      </trkpt>
      <trkpt lat="42.89998" lon="-2.542934">
        <ele>543.408</ele>
        <time>2022-03-20T13:08:05Z</time>
      </trkpt>
      <trkpt lat="42.899983" lon="-2.542924">
        <ele>543.488</ele>
        <time>2022-03-20T13:08:06Z</time>
      </trkpt>
      <trkpt lat="42.899985" lon="-2.542913">
        <ele>543.436</ele>
        <time>2022-03-20T13:08:07Z</time>
      </trkpt>
      <trkpt lat="42.899987" lon="-2.542901">
        <ele>543.428</ele>
        <time>2022-03-20T13:08:08Z</time>
      </trkpt>
      <trkpt lat="42.899989" lon="-2.542891">
        <ele>543.273</ele>
        <time>2022-03-20T13:08:09Z</time>
      </trkpt>
      <trkpt lat="42.899991" lon="-2.542882">
        <ele>543.296</ele>
        <time>2022-03-20T13:08:10Z</time>
      </trkpt>
      <trkpt lat="42.899993" lon="-2.542873">
        <ele>543.265</ele>
        <time>2022-03-20T13:08:11Z</time>
      </trkpt>
      <trkpt lat="42.899998" lon="-2.542865">
        <ele>543.270</ele>
        <time>2022-03-20T13:08:12Z</time>
      </trkpt>
      <trkpt lat="42.899998" lon="-2.542856">
        <ele>543.221</ele>
        <time>2022-03-20T13:08:13Z</time>
      </trkpt>
      <trkpt lat="42.90" lon="-2.542848">
        <ele>543.613</ele>
        <time>2022-03-20T13:08:14Z</time>
      </trkpt>
      <trkpt lat="42.900001" lon="-2.542839">
        <ele>543.643</ele>
        <time>2022-03-20T13:08:15Z</time>
      </trkpt>
      <trkpt lat="42.900005" lon="-2.542832">
        <ele>543.607</ele>
        <time>2022-03-20T13:08:16Z</time>
      </trkpt>
      <trkpt lat="42.900007" lon="-2.542823">
        <ele>543.808</ele>
        <time>2022-03-20T13:08:17Z</time>
      </trkpt>
      <trkpt lat="42.900008" lon="-2.542813">
        <ele>543.810</ele>
        <time>2022-03-20T13:08:18Z</time>
      </trkpt>
      <trkpt lat="42.900011" lon="-2.542805">
        <ele>543.638</ele>
        <time>2022-03-20T13:08:19Z</time>
      </trkpt>
      <trkpt lat="42.900013" lon="-2.542798">
        <ele>543.630</ele>
        <time>2022-03-20T13:08:20Z</time>
      </trkpt>
      <trkpt lat="42.900012" lon="-2.542789">
        <ele>543.665</ele>
        <time>2022-03-20T13:08:21Z</time>
      </trkpt>
      <trkpt lat="42.900012" lon="-2.542777">
        <ele>544.098</ele>
        <time>2022-03-20T13:08:22Z</time>
      </trkpt>
      <trkpt lat="42.900014" lon="-2.542766">
        <ele>544.217</ele>
        <time>2022-03-20T13:08:23Z</time>
      </trkpt>
      <trkpt lat="42.900017" lon="-2.542756">
        <ele>544.282</ele>
        <time>2022-03-20T13:08:24Z</time>
      </trkpt>
      <trkpt lat="42.90002" lon="-2.542744">
        <ele>544.653</ele>
        <time>2022-03-20T13:08:25Z</time>
      </trkpt>
      <trkpt lat="42.900021" lon="-2.542734">
        <ele>544.621</ele>
        <time>2022-03-20T13:08:26Z</time>
      </trkpt>
      <trkpt lat="42.900022" lon="-2.542723">
        <ele>544.641</ele>
        <time>2022-03-20T13:08:27Z</time>
      </trkpt>
      <trkpt lat="42.900023" lon="-2.542711">
        <ele>544.605</ele>
        <time>2022-03-20T13:08:28Z</time>
      </trkpt>
      <trkpt lat="42.900024" lon="-2.542699">
        <ele>544.608</ele>
        <time>2022-03-20T13:08:29Z</time>
      </trkpt>
      <trkpt lat="42.900024" lon="-2.542686">
        <ele>544.681</ele>
        <time>2022-03-20T13:08:30Z</time>
      </trkpt>
      <trkpt lat="42.900024" lon="-2.542673">
        <ele>544.489</ele>
        <time>2022-03-20T13:08:31Z</time>
      </trkpt>
      <trkpt lat="42.900023" lon="-2.542659">
        <ele>544.441</ele>
        <time>2022-03-20T13:08:32Z</time>
      </trkpt>
      <trkpt lat="42.900018" lon="-2.542646">
        <ele>544.286</ele>
        <time>2022-03-20T13:08:33Z</time>
      </trkpt>
      <trkpt lat="42.900016" lon="-2.542634">
        <ele>544.419</ele>
        <time>2022-03-20T13:08:34Z</time>
      </trkpt>
      <trkpt lat="42.900015" lon="-2.54262">
        <ele>544.438</ele>
        <time>2022-03-20T13:08:35Z</time>
      </trkpt>
      <trkpt lat="42.900018" lon="-2.542607">
        <ele>544.413</ele>
        <time>2022-03-20T13:08:36Z</time>
      </trkpt>
      <trkpt lat="42.900019" lon="-2.542598">
        <ele>544.444</ele>
        <time>2022-03-20T13:08:37Z</time>
      </trkpt>
      <trkpt lat="42.900018" lon="-2.542587">
        <ele>544.469</ele>
        <time>2022-03-20T13:08:38Z</time>
      </trkpt>
      <trkpt lat="42.900022" lon="-2.542577">
        <ele>544.404</ele>
        <time>2022-03-20T13:08:39Z</time>
      </trkpt>
      <trkpt lat="42.900024" lon="-2.542566">
        <ele>544.424</ele>
        <time>2022-03-20T13:08:40Z</time>
      </trkpt>
      <trkpt lat="42.900027" lon="-2.542556">
        <ele>544.008</ele>
        <time>2022-03-20T13:08:41Z</time>
      </trkpt>
      <trkpt lat="42.900027" lon="-2.542543">
        <ele>544.085</ele>
        <time>2022-03-20T13:08:42Z</time>
      </trkpt>
      <trkpt lat="42.900025" lon="-2.54253">
        <ele>544.283</ele>
        <time>2022-03-20T13:08:43Z</time>
      </trkpt>
      <trkpt lat="42.900025" lon="-2.542518">
        <ele>544.095</ele>
        <time>2022-03-20T13:08:44Z</time>
      </trkpt>
      <trkpt lat="42.90003" lon="-2.542507">
        <ele>544.240</ele>
        <time>2022-03-20T13:08:45Z</time>
      </trkpt>
      <trkpt lat="42.900032" lon="-2.542494">
        <ele>544.033</ele>
        <time>2022-03-20T13:08:46Z</time>
      </trkpt>
      <trkpt lat="42.900029" lon="-2.542478">
        <ele>544.072</ele>
        <time>2022-03-20T13:08:47Z</time>
      </trkpt>
      <trkpt lat="42.900028" lon="-2.542464">
        <ele>544.257</ele>
        <time>2022-03-20T13:08:48Z</time>
      </trkpt>
      <trkpt lat="42.900025" lon="-2.542452">
        <ele>544.218</ele>
        <time>2022-03-20T13:08:49Z</time>
      </trkpt>
      <trkpt lat="42.900024" lon="-2.542439">
        <ele>544.047</ele>
        <time>2022-03-20T13:08:50Z</time>
      </trkpt>
      <trkpt lat="42.900025" lon="-2.542428">
        <ele>543.629</ele>
        <time>2022-03-20T13:08:51Z</time>
      </trkpt>
      <trkpt lat="42.900019" lon="-2.542412">
        <ele>543.621</ele>
        <time>2022-03-20T13:08:52Z</time>
      </trkpt>
      <trkpt lat="42.900022" lon="-2.542403">
        <ele>543.808</ele>
        <time>2022-03-20T13:08:53Z</time>
      </trkpt>
      <trkpt lat="42.900025" lon="-2.542393">
        <ele>543.833</ele>
        <time>2022-03-20T13:08:54Z</time>
      </trkpt>
      <trkpt lat="42.900028" lon="-2.542381">
        <ele>543.691</ele>
        <time>2022-03-20T13:08:55Z</time>
      </trkpt>
      <trkpt lat="42.90003" lon="-2.542369">
        <ele>543.493</ele>
        <time>2022-03-20T13:08:56Z</time>
      </trkpt>
      <trkpt lat="42.900032" lon="-2.54236">
        <ele>543.678</ele>
        <time>2022-03-20T13:08:57Z</time>
      </trkpt>
      <trkpt lat="42.900035" lon="-2.542353">
        <ele>543.611</ele>
        <time>2022-03-20T13:08:58Z</time>
      </trkpt>
      <trkpt lat="42.900034" lon="-2.542344">
        <ele>543.640</ele>
        <time>2022-03-20T13:08:59Z</time>
      </trkpt>
      <trkpt lat="42.900032" lon="-2.542338">
        <ele>543.495</ele>
        <time>2022-03-20T13:09:00Z</time>
      </trkpt>
      <trkpt lat="42.900031" lon="-2.542334">
        <ele>543.646</ele>
        <time>2022-03-20T13:09:01Z</time>
      </trkpt>
      <trkpt lat="42.90003" lon="-2.542335">
        <ele>543.612</ele>
        <time>2022-03-20T13:09:02Z</time>
      </trkpt>
      <trkpt lat="42.900028" lon="-2.542336">
        <ele>543.632</ele>
        <time>2022-03-20T13:09:03Z</time>
      </trkpt>
      <trkpt lat="42.900029" lon="-2.542336">
        <ele>543.605</ele>
        <time>2022-03-20T13:09:04Z</time>
      </trkpt>
      <trkpt lat="42.900031" lon="-2.542332">
        <ele>543.408</ele>
        <time>2022-03-20T13:09:05Z</time>
      </trkpt>
      <trkpt lat="42.900032" lon="-2.542324">
        <ele>543.450</ele>
        <time>2022-03-20T13:09:06Z</time>
      </trkpt>
      <trkpt lat="42.90003" lon="-2.542314">
        <ele>543.448</ele>
        <time>2022-03-20T13:09:07Z</time>
      </trkpt>
      <trkpt lat="42.90003" lon="-2.542303">
        <ele>543.450</ele>
        <time>2022-03-20T13:09:08Z</time>
      </trkpt>
      <trkpt lat="42.900031" lon="-2.542292">
        <ele>543.475</ele>
        <time>2022-03-20T13:09:09Z</time>
      </trkpt>
      <trkpt lat="42.900032" lon="-2.542282">
        <ele>543.438</ele>
        <time>2022-03-20T13:09:10Z</time>
      </trkpt>
      <trkpt lat="42.900033" lon="-2.542273">
        <ele>543.247</ele>
        <time>2022-03-20T13:09:11Z</time>
      </trkpt>
      <trkpt lat="42.900033" lon="-2.542262">
        <ele>543.282</ele>
        <time>2022-03-20T13:09:12Z</time>
      </trkpt>
      <trkpt lat="42.900033" lon="-2.542251">
        <ele>543.233</ele>
        <time>2022-03-20T13:09:13Z</time>
      </trkpt>
      <trkpt lat="42.900032" lon="-2.54224">
        <ele>543.222</ele>
        <time>2022-03-20T13:09:14Z</time>
      </trkpt>
      <trkpt lat="42.900032" lon="-2.542229">
        <ele>543.262</ele>
        <time>2022-03-20T13:09:15Z</time>
      </trkpt>
      <trkpt lat="42.900033" lon="-2.542217">
        <ele>543.208</ele>
        <time>2022-03-20T13:09:16Z</time>
      </trkpt>
      <trkpt lat="42.900035" lon="-2.542205">
        <ele>543.208</ele>
        <time>2022-03-20T13:09:17Z</time>
      </trkpt>
      <trkpt lat="42.900036" lon="-2.542192">
        <ele>543.271</ele>
        <time>2022-03-20T13:09:18Z</time>
      </trkpt>
      <trkpt lat="42.900034" lon="-2.542181">
        <ele>543.439</ele>
        <time>2022-03-20T13:09:19Z</time>
      </trkpt>
      <trkpt lat="42.900033" lon="-2.542169">
        <ele>543.231</ele>
        <time>2022-03-20T13:09:20Z</time>
      </trkpt>
      <trkpt lat="42.900034" lon="-2.542158">
        <ele>543.476</ele>
        <time>2022-03-20T13:09:21Z</time>
      </trkpt>
      <trkpt lat="42.900034" lon="-2.542147">
        <ele>543.469</ele>
        <time>2022-03-20T13:09:22Z</time>
      </trkpt>
      <trkpt lat="42.900033" lon="-2.542137">
        <ele>543.468</ele>
        <time>2022-03-20T13:09:23Z</time>
      </trkpt>
      <trkpt lat="42.900031" lon="-2.542125">
        <ele>543.443</ele>
        <time>2022-03-20T13:09:24Z</time>
      </trkpt>
      <trkpt lat="42.90003" lon="-2.542117">
        <ele>543.424</ele>
        <time>2022-03-20T13:09:25Z</time>
      </trkpt>
      <trkpt lat="42.90003" lon="-2.542107">
        <ele>543.477</ele>
        <time>2022-03-20T13:09:26Z</time>
      </trkpt>
      <trkpt lat="42.900029" lon="-2.542093">
        <ele>543.461</ele>
        <time>2022-03-20T13:09:27Z</time>
      </trkpt>
      <trkpt lat="42.900026" lon="-2.542081">
        <ele>543.827</ele>
        <time>2022-03-20T13:09:28Z</time>
      </trkpt>
      <trkpt lat="42.900025" lon="-2.542067">
        <ele>543.808</ele>
        <time>2022-03-20T13:09:29Z</time>
      </trkpt>
      <trkpt lat="42.900025" lon="-2.542055">
        <ele>543.846</ele>
        <time>2022-03-20T13:09:30Z</time>
      </trkpt>
      <trkpt lat="42.900023" lon="-2.542042">
        <ele>544.084</ele>
        <time>2022-03-20T13:09:31Z</time>
      </trkpt>
      <trkpt lat="42.900022" lon="-2.54203">
        <ele>544.096</ele>
        <time>2022-03-20T13:09:32Z</time>
      </trkpt>
      <trkpt lat="42.900023" lon="-2.542017">
        <ele>544.041</ele>
        <time>2022-03-20T13:09:33Z</time>
      </trkpt>
      <trkpt lat="42.900023" lon="-2.542004">
        <ele>543.824</ele>
        <time>2022-03-20T13:09:34Z</time>
      </trkpt>
      <trkpt lat="42.900023" lon="-2.541992">
        <ele>543.893</ele>
        <time>2022-03-20T13:09:35Z</time>
      </trkpt>
      <trkpt lat="42.900023" lon="-2.541981">
        <ele>543.898</ele>
        <time>2022-03-20T13:09:36Z</time>
      </trkpt>
      <trkpt lat="42.900022" lon="-2.541969">
        <ele>543.629</ele>
        <time>2022-03-20T13:09:37Z</time>
      </trkpt>
      <trkpt lat="42.90002" lon="-2.541956">
        <ele>543.683</ele>
        <time>2022-03-20T13:09:38Z</time>
      </trkpt>
      <trkpt lat="42.900021" lon="-2.541944">
        <ele>543.425</ele>
        <time>2022-03-20T13:09:39Z</time>
      </trkpt>
      <trkpt lat="42.900022" lon="-2.541932">
        <ele>543.217</ele>
        <time>2022-03-20T13:09:40Z</time>
      </trkpt>
      <trkpt lat="42.900023" lon="-2.541921">
        <ele>543.208</ele>
        <time>2022-03-20T13:09:41Z</time>
      </trkpt>
      <trkpt lat="42.900023" lon="-2.541908">
        <ele>543.247</ele>
        <time>2022-03-20T13:09:42Z</time>
      </trkpt>
      <trkpt lat="42.900026" lon="-2.541897">
        <ele>543.415</ele>
        <time>2022-03-20T13:09:43Z</time>
      </trkpt>
      <trkpt lat="42.900027" lon="-2.541885">
        <ele>543.437</ele>
        <time>2022-03-20T13:09:44Z</time>
      </trkpt>
      <trkpt lat="42.900031" lon="-2.541872">
        <ele>544.032</ele>
        <time>2022-03-20T13:09:45Z</time>
      </trkpt>
      <trkpt lat="42.900033" lon="-2.541858">
        <ele>544.045</ele>
        <time>2022-03-20T13:09:46Z</time>
      </trkpt>
      <trkpt lat="42.900034" lon="-2.541845">
        <ele>544.034</ele>
        <time>2022-03-20T13:09:47Z</time>
      </trkpt>
      <trkpt lat="42.900037" lon="-2.541831">
        <ele>544.079</ele>
        <time>2022-03-20T13:09:48Z</time>
      </trkpt>
      <trkpt lat="42.900039" lon="-2.541818">
        <ele>544.090</ele>
        <time>2022-03-20T13:09:49Z</time>
      </trkpt>
      <trkpt lat="42.90004" lon="-2.541805">
        <ele>544.067</ele>
        <time>2022-03-20T13:09:50Z</time>
      </trkpt>
      <trkpt lat="42.900042" lon="-2.541792">
        <ele>544.281</ele>
        <time>2022-03-20T13:09:51Z</time>
      </trkpt>
      <trkpt lat="42.900043" lon="-2.54178">
        <ele>543.819</ele>
        <time>2022-03-20T13:09:52Z</time>
      </trkpt>
      <trkpt lat="42.900043" lon="-2.541768">
        <ele>543.808</ele>
        <time>2022-03-20T13:09:53Z</time>
      </trkpt>
      <trkpt lat="42.900044" lon="-2.541757">
        <ele>543.885</ele>
        <time>2022-03-20T13:09:54Z</time>
      </trkpt>
      <trkpt lat="42.900047" lon="-2.541743">
        <ele>543.863</ele>
        <time>2022-03-20T13:09:55Z</time>
      </trkpt>
      <trkpt lat="42.90005" lon="-2.541729">
        <ele>544.215</ele>
        <time>2022-03-20T13:09:56Z</time>
      </trkpt>
      <trkpt lat="42.900053" lon="-2.541715">
        <ele>543.870</ele>
        <time>2022-03-20T13:09:57Z</time>
      </trkpt>
      <trkpt lat="42.900058" lon="-2.541701">
        <ele>543.873</ele>
        <time>2022-03-20T13:09:58Z</time>
      </trkpt>
      <trkpt lat="42.900063" lon="-2.54169">
        <ele>544.252</ele>
        <time>2022-03-20T13:09:59Z</time>
      </trkpt>
      <trkpt lat="42.900066" lon="-2.541678">
        <ele>544.217</ele>
        <time>2022-03-20T13:10:00Z</time>
      </trkpt>
      <trkpt lat="42.900071" lon="-2.541667">
        <ele>544.238</ele>
        <time>2022-03-20T13:10:01Z</time>
      </trkpt>
      <trkpt lat="42.900077" lon="-2.541655">
        <ele>543.847</ele>
        <time>2022-03-20T13:10:02Z</time>
      </trkpt>
      <trkpt lat="42.900079" lon="-2.541644">
        <ele>543.629</ele>
        <time>2022-03-20T13:10:03Z</time>
      </trkpt>
      <trkpt lat="42.900082" lon="-2.541634">
        <ele>543.821</ele>
        <time>2022-03-20T13:10:04Z</time>
      </trkpt>
      <trkpt lat="42.900087" lon="-2.541626">
        <ele>543.808</ele>
        <time>2022-03-20T13:10:05Z</time>
      </trkpt>
      <trkpt lat="42.900095" lon="-2.541618">
        <ele>543.893</ele>
        <time>2022-03-20T13:10:06Z</time>
      </trkpt>
      <trkpt lat="42.900104" lon="-2.541608">
        <ele>543.691</ele>
        <time>2022-03-20T13:10:07Z</time>
      </trkpt>
      <trkpt lat="42.900109" lon="-2.541599">
        <ele>543.673</ele>
        <time>2022-03-20T13:10:08Z</time>
      </trkpt>
      <trkpt lat="42.900113" lon="-2.541588">
        <ele>543.628</ele>
        <time>2022-03-20T13:10:09Z</time>
      </trkpt>
      <trkpt lat="42.900118" lon="-2.541575">
        <ele>543.671</ele>
        <time>2022-03-20T13:10:10Z</time>
      </trkpt>
      <trkpt lat="42.900122" lon="-2.541562">
        <ele>543.680</ele>
        <time>2022-03-20T13:10:11Z</time>
      </trkpt>
      <trkpt lat="42.900125" lon="-2.54155">
        <ele>543.475</ele>
        <time>2022-03-20T13:10:12Z</time>
      </trkpt>
      <trkpt lat="42.900127" lon="-2.541538">
        <ele>543.226</ele>
        <time>2022-03-20T13:10:13Z</time>
      </trkpt>
      <trkpt lat="42.900128" lon="-2.541526">
        <ele>543.433</ele>
        <time>2022-03-20T13:10:14Z</time>
      </trkpt>
      <trkpt lat="42.900133" lon="-2.541514">
        <ele>543.023</ele>
        <time>2022-03-20T13:10:15Z</time>
      </trkpt>
      <trkpt lat="42.900136" lon="-2.541505">
        <ele>543.015</ele>
        <time>2022-03-20T13:10:16Z</time>
      </trkpt>
      <trkpt lat="42.900139" lon="-2.5415">
        <ele>543.008</ele>
        <time>2022-03-20T13:10:17Z</time>
      </trkpt>
      <trkpt lat="42.900143" lon="-2.541497">
        <ele>543.092</ele>
        <time>2022-03-20T13:10:18Z</time>
      </trkpt>
      <trkpt lat="42.900149" lon="-2.541495">
        <ele>543.020</ele>
        <time>2022-03-20T13:10:19Z</time>
      </trkpt>
      <trkpt lat="42.900154" lon="-2.541488">
        <ele>543.082</ele>
        <time>2022-03-20T13:10:20Z</time>
      </trkpt>
      <trkpt lat="42.900155" lon="-2.541479">
        <ele>543.017</ele>
        <time>2022-03-20T13:10:21Z</time>
      </trkpt>
      <trkpt lat="42.900157" lon="-2.54147">
        <ele>543.050</ele>
        <time>2022-03-20T13:10:22Z</time>
      </trkpt>
      <trkpt lat="42.900161" lon="-2.541459">
        <ele>543.079</ele>
        <time>2022-03-20T13:10:23Z</time>
      </trkpt>
      <trkpt lat="42.900166" lon="-2.541448">
        <ele>543.054</ele>
        <time>2022-03-20T13:10:24Z</time>
      </trkpt>
      <trkpt lat="42.90017" lon="-2.541437">
        <ele>542.825</ele>
        <time>2022-03-20T13:10:25Z</time>
      </trkpt>
      <trkpt lat="42.900172" lon="-2.541426">
        <ele>542.859</ele>
        <time>2022-03-20T13:10:26Z</time>
      </trkpt>
      <trkpt lat="42.900176" lon="-2.541414">
        <ele>542.803</ele>
        <time>2022-03-20T13:10:27Z</time>
      </trkpt>
      <trkpt lat="42.900181" lon="-2.541404">
        <ele>542.823</ele>
        <time>2022-03-20T13:10:28Z</time>
      </trkpt>
      <trkpt lat="42.900186" lon="-2.541395">
        <ele>542.808</ele>
        <time>2022-03-20T13:10:29Z</time>
      </trkpt>
      <trkpt lat="42.900189" lon="-2.541383">
        <ele>542.884</ele>
        <time>2022-03-20T13:10:30Z</time>
      </trkpt>
      <trkpt lat="42.900192" lon="-2.54137">
        <ele>542.672</ele>
        <time>2022-03-20T13:10:31Z</time>
      </trkpt>
      <trkpt lat="42.900198" lon="-2.54136">
        <ele>542.454</ele>
        <time>2022-03-20T13:10:32Z</time>
      </trkpt>
      <trkpt lat="42.900204" lon="-2.541349">
        <ele>542.689</ele>
        <time>2022-03-20T13:10:33Z</time>
      </trkpt>
      <trkpt lat="42.900209" lon="-2.541339">
        <ele>542.642</ele>
        <time>2022-03-20T13:10:34Z</time>
      </trkpt>
      <trkpt lat="42.900214" lon="-2.541328">
        <ele>542.681</ele>
        <time>2022-03-20T13:10:35Z</time>
      </trkpt>
      <trkpt lat="42.90022" lon="-2.541319">
        <ele>542.656</ele>
        <time>2022-03-20T13:10:36Z</time>
      </trkpt>
      <trkpt lat="42.900225" lon="-2.54131">
        <ele>542.667</ele>
        <time>2022-03-20T13:10:37Z</time>
      </trkpt>
      <trkpt lat="42.90023" lon="-2.541302">
        <ele>542.658</ele>
        <time>2022-03-20T13:10:38Z</time>
      </trkpt>
      <trkpt lat="42.900234" lon="-2.541295">
        <ele>542.652</ele>
        <time>2022-03-20T13:10:39Z</time>
      </trkpt>
      <trkpt lat="42.900238" lon="-2.541288">
        <ele>542.617</ele>
        <time>2022-03-20T13:10:40Z</time>
      </trkpt>
      <trkpt lat="42.900243" lon="-2.54128">
        <ele>542.608</ele>
        <time>2022-03-20T13:10:41Z</time>
      </trkpt>
      <trkpt lat="42.900247" lon="-2.54127">
        <ele>542.654</ele>
        <time>2022-03-20T13:10:42Z</time>
      </trkpt>
      <trkpt lat="42.900252" lon="-2.541263">
        <ele>542.692</ele>
        <time>2022-03-20T13:10:43Z</time>
      </trkpt>
      <trkpt lat="42.900256" lon="-2.541254">
        <ele>542.444</ele>
        <time>2022-03-20T13:10:44Z</time>
      </trkpt>
      <trkpt lat="42.90026" lon="-2.541245">
        <ele>542.669</ele>
        <time>2022-03-20T13:10:45Z</time>
      </trkpt>
      <trkpt lat="42.900263" lon="-2.541233">
        <ele>542.612</ele>
        <time>2022-03-20T13:10:46Z</time>
      </trkpt>
      <trkpt lat="42.900265" lon="-2.541221">
        <ele>542.651</ele>
        <time>2022-03-20T13:10:47Z</time>
      </trkpt>
      <trkpt lat="42.900268" lon="-2.541211">
        <ele>543.036</ele>
        <time>2022-03-20T13:10:48Z</time>
      </trkpt>
      <trkpt lat="42.900274" lon="-2.541203">
        <ele>543.077</ele>
        <time>2022-03-20T13:10:49Z</time>
      </trkpt>
      <trkpt lat="42.900278" lon="-2.541192">
        <ele>543.035</ele>
        <time>2022-03-20T13:10:50Z</time>
      </trkpt>
      <trkpt lat="42.900284" lon="-2.541185">
        <ele>543.286</ele>
        <time>2022-03-20T13:10:51Z</time>
      </trkpt>
      <trkpt lat="42.900287" lon="-2.541175">
        <ele>543.014</ele>
        <time>2022-03-20T13:10:52Z</time>
      </trkpt>
      <trkpt lat="42.900292" lon="-2.541166">
        <ele>543.208</ele>
        <time>2022-03-20T13:10:53Z</time>
      </trkpt>
      <trkpt lat="42.900298" lon="-2.541157">
        <ele>543.042</ele>
        <time>2022-03-20T13:10:54Z</time>
      </trkpt>
      <trkpt lat="42.900304" lon="-2.541149">
        <ele>543.020</ele>
        <time>2022-03-20T13:10:55Z</time>
      </trkpt>
      <trkpt lat="42.900307" lon="-2.54114">
        <ele>543.292</ele>
        <time>2022-03-20T13:10:56Z</time>
      </trkpt>
      <trkpt lat="42.900311" lon="-2.54113">
        <ele>543.277</ele>
        <time>2022-03-20T13:10:57Z</time>
      </trkpt>
      <trkpt lat="42.900317" lon="-2.54112">
        <ele>543.020</ele>
        <time>2022-03-20T13:10:58Z</time>
      </trkpt>
      <trkpt lat="42.900321" lon="-2.541112">
        <ele>543.029</ele>
        <time>2022-03-20T13:10:59Z</time>
      </trkpt>
      <trkpt lat="42.900324" lon="-2.541108">
        <ele>542.674</ele>
        <time>2022-03-20T13:11:00Z</time>
      </trkpt>
      <trkpt lat="42.900326" lon="-2.541106">
        <ele>542.855</ele>
        <time>2022-03-20T13:11:01Z</time>
      </trkpt>
      <trkpt lat="42.900326" lon="-2.541106">
        <ele>542.659</ele>
        <time>2022-03-20T13:11:02Z</time>
      </trkpt>
      <trkpt lat="42.900327" lon="-2.541106">
        <ele>542.603</ele>
        <time>2022-03-20T13:11:03Z</time>
      </trkpt>
      <trkpt lat="42.900331" lon="-2.54111">
        <ele>542.623</ele>
        <time>2022-03-20T13:11:04Z</time>
      </trkpt>
      <trkpt lat="42.900334" lon="-2.541111">
        <ele>542.608</ele>
        <time>2022-03-20T13:11:05Z</time>
      </trkpt>
      <trkpt lat="42.900333" lon="-2.541111">
        <ele>542.664</ele>
        <time>2022-03-20T13:11:06Z</time>
      </trkpt>
      <trkpt lat="42.900331" lon="-2.541112">
        <ele>542.692</ele>
        <time>2022-03-20T13:11:07Z</time>
      </trkpt>
      <trkpt lat="42.900331" lon="-2.541113">
        <ele>542.654</ele>
        <time>2022-03-20T13:11:08Z</time>
      </trkpt>
      <trkpt lat="42.900335" lon="-2.541112">
        <ele>542.649</ele>
        <time>2022-03-20T13:11:09Z</time>
      </trkpt>
      <trkpt lat="42.900337" lon="-2.541107">
        <ele>542.862</ele>
        <time>2022-03-20T13:11:10Z</time>
      </trkpt>
      <trkpt lat="42.90034" lon="-2.5411">
        <ele>542.811</ele>
        <time>2022-03-20T13:11:11Z</time>
      </trkpt>
      <trkpt lat="42.900344" lon="-2.541092">
        <ele>542.616</ele>
        <time>2022-03-20T13:11:12Z</time>
      </trkpt>
      <trkpt lat="42.90035" lon="-2.541084">
        <ele>542.857</ele>
        <time>2022-03-20T13:11:13Z</time>
      </trkpt>
      <trkpt lat="42.900357" lon="-2.541075">
        <ele>542.866</ele>
        <time>2022-03-20T13:11:14Z</time>
      </trkpt>
      <trkpt lat="42.900363" lon="-2.541067">
        <ele>543.029</ele>
        <time>2022-03-20T13:11:15Z</time>
      </trkpt>
      <trkpt lat="42.900365" lon="-2.541059">
        <ele>543.021</ele>
        <time>2022-03-20T13:11:16Z</time>
      </trkpt>
      <trkpt lat="42.900368" lon="-2.54105">
        <ele>543.008</ele>
        <time>2022-03-20T13:11:17Z</time>
      </trkpt>
      <trkpt lat="42.900375" lon="-2.54104">
        <ele>543.065</ele>
        <time>2022-03-20T13:11:18Z</time>
      </trkpt>
      <trkpt lat="42.900383" lon="-2.541032">
        <ele>543.233</ele>
        <time>2022-03-20T13:11:19Z</time>
      </trkpt>
      <trkpt lat="42.900389" lon="-2.541024">
        <ele>543.285</ele>
        <time>2022-03-20T13:11:20Z</time>
      </trkpt>
      <trkpt lat="42.900397" lon="-2.541018">
        <ele>543.220</ele>
        <time>2022-03-20T13:11:21Z</time>
      </trkpt>
      <trkpt lat="42.900405" lon="-2.541011">
        <ele>543.243</ele>
        <time>2022-03-20T13:11:22Z</time>
      </trkpt>
      <trkpt lat="42.900414" lon="-2.541005">
        <ele>543.242</ele>
        <time>2022-03-20T13:11:23Z</time>
      </trkpt>
      <trkpt lat="42.900423" lon="-2.540999">
        <ele>543.037</ele>
        <time>2022-03-20T13:11:24Z</time>
      </trkpt>
      <trkpt lat="42.900431" lon="-2.540996">
        <ele>542.858</ele>
        <time>2022-03-20T13:11:25Z</time>
      </trkpt>
      <trkpt lat="42.900438" lon="-2.54099">
        <ele>542.851</ele>
        <time>2022-03-20T13:11:26Z</time>
      </trkpt>
      <trkpt lat="42.900446" lon="-2.540982">
        <ele>542.801</ele>
        <time>2022-03-20T13:11:27Z</time>
      </trkpt>
      <trkpt lat="42.900453" lon="-2.540976">
        <ele>542.811</ele>
        <time>2022-03-20T13:11:28Z</time>
      </trkpt>
      <trkpt lat="42.900461" lon="-2.540971">
        <ele>542.808</ele>
        <time>2022-03-20T13:11:29Z</time>
      </trkpt>
      <trkpt lat="42.900467" lon="-2.540961">
        <ele>542.864</ele>
        <time>2022-03-20T13:11:30Z</time>
      </trkpt>
      <trkpt lat="42.900474" lon="-2.540951">
        <ele>542.832</ele>
        <time>2022-03-20T13:11:31Z</time>
      </trkpt>
      <trkpt lat="42.900482" lon="-2.540942">
        <ele>542.854</ele>
        <time>2022-03-20T13:11:32Z</time>
      </trkpt>
      <trkpt lat="42.90049" lon="-2.540937">
        <ele>542.649</ele>
        <time>2022-03-20T13:11:33Z</time>
      </trkpt>
      <trkpt lat="42.900497" lon="-2.540936">
        <ele>542.622</ele>
        <time>2022-03-20T13:11:34Z</time>
      </trkpt>
      <trkpt lat="42.900503" lon="-2.540935">
        <ele>542.631</ele>
        <time>2022-03-20T13:11:35Z</time>
      </trkpt>
      <trkpt lat="42.900513" lon="-2.540934">
        <ele>542.656</ele>
        <time>2022-03-20T13:11:36Z</time>
      </trkpt>
      <trkpt lat="42.900523" lon="-2.540929">
        <ele>542.637</ele>
        <time>2022-03-20T13:11:37Z</time>
      </trkpt>
      <trkpt lat="42.900532" lon="-2.540923">
        <ele>542.464</ele>
        <time>2022-03-20T13:11:38Z</time>
      </trkpt>
      <trkpt lat="42.900539" lon="-2.540919">
        <ele>542.406</ele>
        <time>2022-03-20T13:11:39Z</time>
      </trkpt>
      <trkpt lat="42.900547" lon="-2.540912">
        <ele>542.616</ele>
        <time>2022-03-20T13:11:40Z</time>
      </trkpt>
      <trkpt lat="42.900554" lon="-2.540904">
        <ele>542.608</ele>
        <time>2022-03-20T13:11:41Z</time>
      </trkpt>
      <trkpt lat="42.900562" lon="-2.540899">
        <ele>542.665</ele>
        <time>2022-03-20T13:11:42Z</time>
      </trkpt>
      <trkpt lat="42.900571" lon="-2.540898">
        <ele>542.653</ele>
        <time>2022-03-20T13:11:43Z</time>
      </trkpt>
      <trkpt lat="42.900581" lon="-2.540896">
        <ele>542.685</ele>
        <time>2022-03-20T13:11:44Z</time>
      </trkpt>
      <trkpt lat="42.900589" lon="-2.540893">
        <ele>542.620</ele>
        <time>2022-03-20T13:11:45Z</time>
      </trkpt>
      <trkpt lat="42.900598" lon="-2.540889">
        <ele>542.693</ele>
        <time>2022-03-20T13:11:46Z</time>
      </trkpt>
      <trkpt lat="42.900609" lon="-2.540887">
        <ele>542.612</ele>
        <time>2022-03-20T13:11:47Z</time>
      </trkpt>
      <trkpt lat="42.900619" lon="-2.540884">
        <ele>542.417</ele>
        <time>2022-03-20T13:11:48Z</time>
      </trkpt>
      <trkpt lat="42.900627" lon="-2.540881">
        <ele>542.488</ele>
        <time>2022-03-20T13:11:49Z</time>
      </trkpt>
      <trkpt lat="42.900634" lon="-2.540876">
        <ele>542.488</ele>
        <time>2022-03-20T13:11:50Z</time>
      </trkpt>
      <trkpt lat="42.90064" lon="-2.540869">
        <ele>542.424</ele>
        <time>2022-03-20T13:11:51Z</time>
      </trkpt>
      <trkpt lat="42.900645" lon="-2.540862">
        <ele>542.226</ele>
        <time>2022-03-20T13:11:52Z</time>
      </trkpt>
      <trkpt lat="42.900653" lon="-2.540856">
        <ele>542.208</ele>
        <time>2022-03-20T13:11:53Z</time>
      </trkpt>
      <trkpt lat="42.900661" lon="-2.540852">
        <ele>542.257</ele>
        <time>2022-03-20T13:11:54Z</time>
      </trkpt>
      <trkpt lat="42.900669" lon="-2.540845">
        <ele>542.285</ele>
        <time>2022-03-20T13:11:55Z</time>
      </trkpt>
      <trkpt lat="42.900678" lon="-2.540838">
        <ele>542.247</ele>
        <time>2022-03-20T13:11:56Z</time>
      </trkpt>
      <trkpt lat="42.900686" lon="-2.540833">
        <ele>542.272</ele>
        <time>2022-03-20T13:11:57Z</time>
      </trkpt>
      <trkpt lat="42.900694" lon="-2.540825">
        <ele>542.285</ele>
        <time>2022-03-20T13:11:58Z</time>
      </trkpt>
      <trkpt lat="42.9007" lon="-2.540815">
        <ele>542.274</ele>
        <time>2022-03-20T13:11:59Z</time>
      </trkpt>
      <trkpt lat="42.900708" lon="-2.540807">
        <ele>542.049</ele>
        <time>2022-03-20T13:12:00Z</time>
      </trkpt>
      <trkpt lat="42.900714" lon="-2.5408">
        <ele>542.060</ele>
        <time>2022-03-20T13:12:01Z</time>
      </trkpt>
      <trkpt lat="42.900722" lon="-2.540794">
        <ele>542.051</ele>
        <time>2022-03-20T13:12:02Z</time>
      </trkpt>
      <trkpt lat="42.900729" lon="-2.540788">
        <ele>542.001</ele>
        <time>2022-03-20T13:12:03Z</time>
      </trkpt>
      <trkpt lat="42.900736" lon="-2.54078">
        <ele>542.011</ele>
        <time>2022-03-20T13:12:04Z</time>
      </trkpt>
      <trkpt lat="42.900743" lon="-2.540769">
        <ele>542.208</ele>
        <time>2022-03-20T13:12:05Z</time>
      </trkpt>
      <trkpt lat="42.90075" lon="-2.540758">
        <ele>542.064</ele>
        <time>2022-03-20T13:12:06Z</time>
      </trkpt>
      <trkpt lat="42.900757" lon="-2.540748">
        <ele>542.092</ele>
        <time>2022-03-20T13:12:07Z</time>
      </trkpt>
      <trkpt lat="42.900761" lon="-2.540738">
        <ele>542.054</ele>
        <time>2022-03-20T13:12:08Z</time>
      </trkpt>
      <trkpt lat="42.900763" lon="-2.540729">
        <ele>542.019</ele>
        <time>2022-03-20T13:12:09Z</time>
      </trkpt>
      <trkpt lat="42.900762" lon="-2.540721">
        <ele>542.042</ele>
        <time>2022-03-20T13:12:10Z</time>
      </trkpt>
      <trkpt lat="42.900766" lon="-2.540714">
        <ele>542.021</ele>
        <time>2022-03-20T13:12:11Z</time>
      </trkpt>
      <trkpt lat="42.900769" lon="-2.540703">
        <ele>542.066</ele>
        <time>2022-03-20T13:12:12Z</time>
      </trkpt>
      <trkpt lat="42.900772" lon="-2.54069">
        <ele>542.047</ele>
        <time>2022-03-20T13:12:13Z</time>
      </trkpt>
      <trkpt lat="42.900772" lon="-2.540678">
        <ele>542.077</ele>
        <time>2022-03-20T13:12:14Z</time>
      </trkpt>
      <trkpt lat="42.900773" lon="-2.540667">
        <ele>542.061</ele>
        <time>2022-03-20T13:12:15Z</time>
      </trkpt>
      <trkpt lat="42.900777" lon="-2.540655">
        <ele>542.027</ele>
        <time>2022-03-20T13:12:16Z</time>
      </trkpt>
      <trkpt lat="42.90078" lon="-2.540645">
        <ele>542.008</ele>
        <time>2022-03-20T13:12:17Z</time>
      </trkpt>
      <trkpt lat="42.900785" lon="-2.540638">
        <ele>542.036</ele>
        <time>2022-03-20T13:12:18Z</time>
      </trkpt>
      <trkpt lat="42.90079" lon="-2.540632">
        <ele>542.024</ele>
        <time>2022-03-20T13:12:19Z</time>
      </trkpt>
      <trkpt lat="42.900794" lon="-2.540623">
        <ele>542.226</ele>
        <time>2022-03-20T13:12:20Z</time>
      </trkpt>
      <trkpt lat="42.900797" lon="-2.540613">
        <ele>542.251</ele>
        <time>2022-03-20T13:12:21Z</time>
      </trkpt>
      <trkpt lat="42.900799" lon="-2.540603">
        <ele>542.234</ele>
        <time>2022-03-20T13:12:22Z</time>
      </trkpt>
      <trkpt lat="42.9008" lon="-2.540594">
        <ele>542.273</ele>
        <time>2022-03-20T13:12:23Z</time>
      </trkpt>
      <trkpt lat="42.900801" lon="-2.540585">
        <ele>542.288</ele>
        <time>2022-03-20T13:12:24Z</time>
      </trkpt>
      <trkpt lat="42.900802" lon="-2.540577">
        <ele>542.289</ele>
        <time>2022-03-20T13:12:25Z</time>
      </trkpt>
      <trkpt lat="42.900804" lon="-2.540567">
        <ele>542.457</ele>
        <time>2022-03-20T13:12:26Z</time>
      </trkpt>
      <trkpt lat="42.900805" lon="-2.540556">
        <ele>542.400</ele>
        <time>2022-03-20T13:12:27Z</time>
      </trkpt>
      <trkpt lat="42.900809" lon="-2.540545">
        <ele>542.420</ele>
        <time>2022-03-20T13:12:28Z</time>
      </trkpt>
      <trkpt lat="42.90081" lon="-2.540531">
        <ele>542.608</ele>
        <time>2022-03-20T13:12:29Z</time>
      </trkpt>
      <trkpt lat="42.900811" lon="-2.540517">
        <ele>542.654</ele>
        <time>2022-03-20T13:12:30Z</time>
      </trkpt>
      <trkpt lat="42.900813" lon="-2.540504">
        <ele>542.652</ele>
        <time>2022-03-20T13:12:31Z</time>
      </trkpt>
      <trkpt lat="42.900817" lon="-2.540491">
        <ele>542.634</ele>
        <time>2022-03-20T13:12:32Z</time>
      </trkpt>
      <trkpt lat="42.900819" lon="-2.540483">
        <ele>542.629</ele>
        <time>2022-03-20T13:12:33Z</time>
      </trkpt>
      <trkpt lat="42.900817" lon="-2.540477">
        <ele>542.692</ele>
        <time>2022-03-20T13:12:34Z</time>
      </trkpt>
      <trkpt lat="42.900819" lon="-2.540477">
        <ele>542.471</ele>
        <time>2022-03-20T13:12:35Z</time>
      </trkpt>
      <trkpt lat="42.900819" lon="-2.540476">
        <ele>542.286</ele>
        <time>2022-03-20T13:12:36Z</time>
      </trkpt>
      <trkpt lat="42.900813" lon="-2.54047">
        <ele>542.237</ele>
        <time>2022-03-20T13:12:37Z</time>
      </trkpt>
      <trkpt lat="42.900813" lon="-2.540464">
        <ele>542.213</ele>
        <time>2022-03-20T13:12:38Z</time>
      </trkpt>
      <trkpt lat="42.900814" lon="-2.540456">
        <ele>542.243</ele>
        <time>2022-03-20T13:12:39Z</time>
      </trkpt>
      <trkpt lat="42.900817" lon="-2.540445">
        <ele>542.207</ele>
        <time>2022-03-20T13:12:40Z</time>
      </trkpt>
      <trkpt lat="42.900819" lon="-2.540434">
        <ele>542.208</ele>
        <time>2022-03-20T13:12:41Z</time>
      </trkpt>
      <trkpt lat="42.900821" lon="-2.540426">
        <ele>542.270</ele>
        <time>2022-03-20T13:12:42Z</time>
      </trkpt>
      <trkpt lat="42.900824" lon="-2.54042">
        <ele>542.228</ele>
        <time>2022-03-20T13:12:43Z</time>
      </trkpt>
      <trkpt lat="42.900818" lon="-2.540411">
        <ele>542.240</ele>
        <time>2022-03-20T13:12:44Z</time>
      </trkpt>
      <trkpt lat="42.900821" lon="-2.540402">
        <ele>542.265</ele>
        <time>2022-03-20T13:12:45Z</time>
      </trkpt>
      <trkpt lat="42.900821" lon="-2.540395">
        <ele>542.298</ele>
        <time>2022-03-20T13:12:46Z</time>
      </trkpt>
      <trkpt lat="42.900818" lon="-2.540389">
        <ele>542.257</ele>
        <time>2022-03-20T13:12:47Z</time>
      </trkpt>
      <trkpt lat="42.900819" lon="-2.540387">
        <ele>542.412</ele>
        <time>2022-03-20T13:12:48Z</time>
      </trkpt>
      <trkpt lat="42.900818" lon="-2.540387">
        <ele>542.483</ele>
        <time>2022-03-20T13:12:49Z</time>
      </trkpt>
      <trkpt lat="42.900815" lon="-2.540386">
        <ele>542.212</ele>
        <time>2022-03-20T13:12:50Z</time>
      </trkpt>
      <trkpt lat="42.900815" lon="-2.540387">
        <ele>542.232</ele>
        <time>2022-03-20T13:12:51Z</time>
      </trkpt>
      <trkpt lat="42.90082" lon="-2.540389">
        <ele>542.205</ele>
        <time>2022-03-20T13:12:52Z</time>
      </trkpt>
      <trkpt lat="42.90082" lon="-2.54039">
        <ele>542.008</ele>
        <time>2022-03-20T13:12:53Z</time>
      </trkpt>
      <trkpt lat="42.900825" lon="-2.54039">
        <ele>542.030</ele>
        <time>2022-03-20T13:12:54Z</time>
      </trkpt>
      <trkpt lat="42.90083" lon="-2.540395">
        <ele>542.088</ele>
        <time>2022-03-20T13:12:55Z</time>
      </trkpt>
      <trkpt lat="42.900833" lon="-2.54041">
        <ele>542.080</ele>
        <time>2022-03-20T13:12:56Z</time>
      </trkpt>
      <trkpt lat="42.900833" lon="-2.54041">
        <ele>542.035</ele>
        <time>2022-03-20T13:12:57Z</time>
      </trkpt>
      <trkpt lat="42.900833" lon="-2.54041">
        <ele>542.078</ele>
        <time>2022-03-20T13:12:58Z</time>
      </trkpt>
      <trkpt lat="42.900833" lon="-2.54041">
        <ele>542.047</ele>
        <time>2022-03-20T13:12:59Z</time>
      </trkpt>
      <trkpt lat="42.900833" lon="-2.54041">
        <ele>542.062</ele>
        <time>2022-03-20T13:13:00Z</time>
      </trkpt>
      <trkpt lat="42.900833" lon="-2.54041">
        <ele>542.283</ele>
        <time>2022-03-20T13:13:01Z</time>
      </trkpt>
      <trkpt lat="42.900833" lon="-2.54041">
        <ele>542.269</ele>
        <time>2022-03-20T13:13:02Z</time>
      </trkpt>
      <trkpt lat="42.900833" lon="-2.54041">
        <ele>542.404</ele>
        <time>2022-03-20T13:13:03Z</time>
      </trkpt>
      <trkpt lat="42.90083" lon="-2.540403">
        <ele>542.424</ele>
        <time>2022-03-20T13:13:04Z</time>
      </trkpt>
      <trkpt lat="42.900826" lon="-2.540397">
        <ele>542.408</ele>
        <time>2022-03-20T13:13:05Z</time>
      </trkpt>
      <trkpt lat="42.900825" lon="-2.540397">
        <ele>542.435</ele>
        <time>2022-03-20T13:13:06Z</time>
      </trkpt>
      <trkpt lat="42.90082" lon="-2.540395">
        <ele>542.413</ele>
        <time>2022-03-20T13:13:07Z</time>
      </trkpt>
      <trkpt lat="42.90082" lon="-2.540395">
        <ele>542.445</ele>
        <time>2022-03-20T13:13:08Z</time>
      </trkpt>
      <trkpt lat="42.90082" lon="-2.540395">
        <ele>542.420</ele>
        <time>2022-03-20T13:13:09Z</time>
      </trkpt>
      <trkpt lat="42.90082" lon="-2.540395">
        <ele>542.443</ele>
        <time>2022-03-20T13:13:10Z</time>
      </trkpt>
      <trkpt lat="42.90082" lon="-2.540394">
        <ele>542.422</ele>
        <time>2022-03-20T13:13:11Z</time>
      </trkpt>
      <trkpt lat="42.90082" lon="-2.540394">
        <ele>542.667</ele>
        <time>2022-03-20T13:13:12Z</time>
      </trkpt>
      <trkpt lat="42.90082" lon="-2.540392">
        <ele>543.088</ele>
        <time>2022-03-20T13:13:13Z</time>
      </trkpt>
      <trkpt lat="42.90082" lon="-2.540392">
        <ele>542.466</ele>
        <time>2022-03-20T13:13:14Z</time>
      </trkpt>
      <trkpt lat="42.90082" lon="-2.540391">
        <ele>542.429</ele>
        <time>2022-03-20T13:13:15Z</time>
      </trkpt>
      <trkpt lat="42.90082" lon="-2.540391">
        <ele>542.421</ele>
        <time>2022-03-20T13:13:16Z</time>
      </trkpt>
      <trkpt lat="42.90082" lon="-2.54039">
        <ele>542.408</ele>
        <time>2022-03-20T13:13:17Z</time>
      </trkpt>
      <trkpt lat="42.90082" lon="-2.54039">
        <ele>542.245</ele>
        <time>2022-03-20T13:13:18Z</time>
      </trkpt>
      <trkpt lat="42.900824" lon="-2.54039">
        <ele>542.053</ele>
        <time>2022-03-20T13:13:19Z</time>
      </trkpt>
      <trkpt lat="42.900825" lon="-2.54039">
        <ele>542.095</ele>
        <time>2022-03-20T13:13:20Z</time>
      </trkpt>
      <trkpt lat="42.900826" lon="-2.54039">
        <ele>541.830</ele>
        <time>2022-03-20T13:13:21Z</time>
      </trkpt>
      <trkpt lat="42.900829" lon="-2.54039">
        <ele>541.633</ele>
        <time>2022-03-20T13:13:22Z</time>
      </trkpt>
      <trkpt lat="42.90083" lon="-2.54039">
        <ele>541.472</ele>
        <time>2022-03-20T13:13:23Z</time>
      </trkpt>
      <trkpt lat="42.900832" lon="-2.54039">
        <ele>541.647</ele>
        <time>2022-03-20T13:13:24Z</time>
      </trkpt>
      <trkpt lat="42.900833" lon="-2.540386">
        <ele>541.868</ele>
        <time>2022-03-20T13:13:25Z</time>
      </trkpt>
      <trkpt lat="42.900833" lon="-2.540383">
        <ele>541.898</ele>
        <time>2022-03-20T13:13:26Z</time>
      </trkpt>
      <trkpt lat="42.900833" lon="-2.540383">
        <ele>541.815</ele>
        <time>2022-03-20T13:13:27Z</time>
      </trkpt>
      <trkpt lat="42.900834" lon="-2.540383">
        <ele>542.026</ele>
        <time>2022-03-20T13:13:28Z</time>
      </trkpt>
      <trkpt lat="42.900835" lon="-2.540383">
        <ele>542.208</ele>
        <time>2022-03-20T13:13:29Z</time>
      </trkpt>
      <trkpt lat="42.900836" lon="-2.540383">
        <ele>542.268</ele>
        <time>2022-03-20T13:13:30Z</time>
      </trkpt>
      <trkpt lat="42.900838" lon="-2.540383">
        <ele>542.256</ele>
        <time>2022-03-20T13:13:31Z</time>
      </trkpt>
      <trkpt lat="42.900839" lon="-2.540383">
        <ele>542.098</ele>
        <time>2022-03-20T13:13:32Z</time>
      </trkpt>
      <trkpt lat="42.90084" lon="-2.540383">
        <ele>542.093</ele>
        <time>2022-03-20T13:13:33Z</time>
      </trkpt>
      <trkpt lat="42.90084" lon="-2.540383">
        <ele>541.896</ele>
        <time>2022-03-20T13:13:34Z</time>
      </trkpt>
      <trkpt lat="42.900842" lon="-2.540383">
        <ele>541.815</ele>
        <time>2022-03-20T13:13:35Z</time>
      </trkpt>
      <trkpt lat="42.900842" lon="-2.540383">
        <ele>541.830</ele>
        <time>2022-03-20T13:13:36Z</time>
      </trkpt>
      <trkpt lat="42.900843" lon="-2.540383">
        <ele>541.831</ele>
        <time>2022-03-20T13:13:37Z</time>
      </trkpt>
      <trkpt lat="42.900843" lon="-2.540383">
        <ele>541.848</ele>
        <time>2022-03-20T13:13:38Z</time>
      </trkpt>
      <trkpt lat="42.900843" lon="-2.540383">
        <ele>541.861</ele>
        <time>2022-03-20T13:13:39Z</time>
      </trkpt>
      <trkpt lat="42.900844" lon="-2.540383">
        <ele>541.817</ele>
        <time>2022-03-20T13:13:40Z</time>
      </trkpt>
      <trkpt lat="42.900845" lon="-2.540383">
        <ele>541.808</ele>
        <time>2022-03-20T13:13:41Z</time>
      </trkpt>
      <trkpt lat="42.900845" lon="-2.540383">
        <ele>541.863</ele>
        <time>2022-03-20T13:13:42Z</time>
      </trkpt>
      <trkpt lat="42.900848" lon="-2.540384">
        <ele>541.861</ele>
        <time>2022-03-20T13:13:43Z</time>
      </trkpt>
      <trkpt lat="42.900849" lon="-2.540384">
        <ele>541.813</ele>
        <time>2022-03-20T13:13:44Z</time>
      </trkpt>
      <trkpt lat="42.90085" lon="-2.540384">
        <ele>541.898</ele>
        <time>2022-03-20T13:13:45Z</time>
      </trkpt>
      <trkpt lat="42.900853" lon="-2.540384">
        <ele>541.891</ele>
        <time>2022-03-20T13:13:46Z</time>
      </trkpt>
      <trkpt lat="42.900856" lon="-2.540384">
        <ele>541.880</ele>
        <time>2022-03-20T13:13:47Z</time>
      </trkpt>
      <trkpt lat="42.90086" lon="-2.540384">
        <ele>541.895</ele>
        <time>2022-03-20T13:13:48Z</time>
      </trkpt>
      <trkpt lat="42.900863" lon="-2.540384">
        <ele>541.876</ele>
        <time>2022-03-20T13:13:49Z</time>
      </trkpt>
      <trkpt lat="42.900866" lon="-2.540384">
        <ele>541.857</ele>
        <time>2022-03-20T13:13:50Z</time>
      </trkpt>
      <trkpt lat="42.90087" lon="-2.540384">
        <ele>541.800</ele>
        <time>2022-03-20T13:13:51Z</time>
      </trkpt>
      <trkpt lat="42.900873" lon="-2.540384">
        <ele>541.620</ele>
        <time>2022-03-20T13:13:52Z</time>
      </trkpt>
      <trkpt lat="42.900877" lon="-2.540385">
        <ele>541.608</ele>
        <time>2022-03-20T13:13:53Z</time>
      </trkpt>
      <trkpt lat="42.90088" lon="-2.540385">
        <ele>541.664</ele>
        <time>2022-03-20T13:13:54Z</time>
      </trkpt>
      <trkpt lat="42.900886" lon="-2.540385">
        <ele>541.642</ele>
        <time>2022-03-20T13:13:55Z</time>
      </trkpt>
      <trkpt lat="42.900894" lon="-2.540385">
        <ele>541.614</ele>
        <time>2022-03-20T13:13:56Z</time>
      </trkpt>
      <trkpt lat="42.900897" lon="-2.540385">
        <ele>541.669</ele>
        <time>2022-03-20T13:13:57Z</time>
      </trkpt>
      <trkpt lat="42.900899" lon="-2.540384">
        <ele>541.642</ele>
        <time>2022-03-20T13:13:58Z</time>
      </trkpt>
      <trkpt lat="42.9009" lon="-2.540384">
        <ele>541.661</ele>
        <time>2022-03-20T13:13:59Z</time>
      </trkpt>
      <trkpt lat="42.900901" lon="-2.540384">
        <ele>541.646</ele>
        <time>2022-03-20T13:14:00Z</time>
      </trkpt>
      <trkpt lat="42.900902" lon="-2.540384">
        <ele>541.627</ele>
        <time>2022-03-20T13:14:01Z</time>
      </trkpt>
      <trkpt lat="42.900903" lon="-2.540384">
        <ele>541.698</ele>
        <time>2022-03-20T13:14:02Z</time>
      </trkpt>
      <trkpt lat="42.900905" lon="-2.540384">
        <ele>541.615</ele>
        <time>2022-03-20T13:14:03Z</time>
      </trkpt>
      <trkpt lat="42.900905" lon="-2.540384">
        <ele>541.626</ele>
        <time>2022-03-20T13:14:04Z</time>
      </trkpt>
      <trkpt lat="42.900909" lon="-2.540385">
        <ele>541.608</ele>
        <time>2022-03-20T13:14:05Z</time>
      </trkpt>
      <trkpt lat="42.900912" lon="-2.540385">
        <ele>541.638</ele>
        <time>2022-03-20T13:14:06Z</time>
      </trkpt>
      <trkpt lat="42.900914" lon="-2.540385">
        <ele>541.626</ele>
        <time>2022-03-20T13:14:07Z</time>
      </trkpt>
      <trkpt lat="42.900915" lon="-2.540384">
        <ele>541.618</ele>
        <time>2022-03-20T13:14:08Z</time>
      </trkpt>
      <trkpt lat="42.900916" lon="-2.540384">
        <ele>541.613</ele>
        <time>2022-03-20T13:14:09Z</time>
      </trkpt>
      <trkpt lat="42.900917" lon="-2.540384">
        <ele>541.836</ele>
        <time>2022-03-20T13:14:10Z</time>
      </trkpt>
      <trkpt lat="42.900918" lon="-2.540383">
        <ele>542.095</ele>
        <time>2022-03-20T13:14:11Z</time>
      </trkpt>
      <trkpt lat="42.90092" lon="-2.540382">
        <ele>542.050</ele>
        <time>2022-03-20T13:14:12Z</time>
      </trkpt>
      <trkpt lat="42.90092" lon="-2.540376">
        <ele>542.041</ele>
        <time>2022-03-20T13:14:13Z</time>
      </trkpt>
      <trkpt lat="42.900922" lon="-2.540359">
        <ele>542.246</ele>
        <time>2022-03-20T13:14:14Z</time>
      </trkpt>
      <trkpt lat="42.900924" lon="-2.540342">
        <ele>542.288</ele>
        <time>2022-03-20T13:14:15Z</time>
      </trkpt>
      <trkpt lat="42.900924" lon="-2.540326">
        <ele>542.216</ele>
        <time>2022-03-20T13:14:16Z</time>
      </trkpt>
      <trkpt lat="42.900927" lon="-2.540309">
        <ele>542.208</ele>
        <time>2022-03-20T13:14:17Z</time>
      </trkpt>
      <trkpt lat="42.900926" lon="-2.54029">
        <ele>542.623</ele>
        <time>2022-03-20T13:14:18Z</time>
      </trkpt>
      <trkpt lat="42.900923" lon="-2.540272">
        <ele>542.611</ele>
        <time>2022-03-20T13:14:19Z</time>
      </trkpt>
      <trkpt lat="42.900923" lon="-2.540252">
        <ele>542.683</ele>
        <time>2022-03-20T13:14:20Z</time>
      </trkpt>
      <trkpt lat="42.900924" lon="-2.540234">
        <ele>542.878</ele>
        <time>2022-03-20T13:14:21Z</time>
      </trkpt>
      <trkpt lat="42.900925" lon="-2.540215">
        <ele>542.661</ele>
        <time>2022-03-20T13:14:22Z</time>
      </trkpt>
      <trkpt lat="42.900922" lon="-2.540204">
        <ele>542.880</ele>
        <time>2022-03-20T13:14:23Z</time>
      </trkpt>
      <trkpt lat="42.900916" lon="-2.540196">
        <ele>542.615</ele>
        <time>2022-03-20T13:14:24Z</time>
      </trkpt>
      <trkpt lat="42.900913" lon="-2.540192">
        <ele>542.626</ele>
        <time>2022-03-20T13:14:25Z</time>
      </trkpt>
      <trkpt lat="42.90091" lon="-2.54019">
        <ele>542.661</ele>
        <time>2022-03-20T13:14:26Z</time>
      </trkpt>
      <trkpt lat="42.900905" lon="-2.540186">
        <ele>542.621</ele>
        <time>2022-03-20T13:14:27Z</time>
      </trkpt>
      <trkpt lat="42.900903" lon="-2.540185">
        <ele>542.413</ele>
        <time>2022-03-20T13:14:28Z</time>
      </trkpt>
      <trkpt lat="42.900899" lon="-2.540184">
        <ele>542.208</ele>
        <time>2022-03-20T13:14:29Z</time>
      </trkpt>
      <trkpt lat="42.900895" lon="-2.540185">
        <ele>542.225</ele>
        <time>2022-03-20T13:14:30Z</time>
      </trkpt>
      <trkpt lat="42.900892" lon="-2.540185">
        <ele>542.273</ele>
        <time>2022-03-20T13:14:31Z</time>
      </trkpt>
      <trkpt lat="42.900892" lon="-2.540187">
        <ele>542.235</ele>
        <time>2022-03-20T13:14:32Z</time>
      </trkpt>
      <trkpt lat="42.900892" lon="-2.540188">
        <ele>542.220</ele>
        <time>2022-03-20T13:14:33Z</time>
      </trkpt>
      <trkpt lat="42.900895" lon="-2.540191">
        <ele>542.493</ele>
        <time>2022-03-20T13:14:34Z</time>
      </trkpt>
      <trkpt lat="42.900898" lon="-2.540192">
        <ele>542.412</ele>
        <time>2022-03-20T13:14:35Z</time>
      </trkpt>
      <trkpt lat="42.900901" lon="-2.540191">
        <ele>543.037</ele>
        <time>2022-03-20T13:14:36Z</time>
      </trkpt>
      <trkpt lat="42.900901" lon="-2.540191">
        <ele>543.238</ele>
        <time>2022-03-20T13:14:37Z</time>
      </trkpt>
      <trkpt lat="42.900901" lon="-2.540191">
        <ele>543.228</ele>
        <time>2022-03-20T13:14:38Z</time>
      </trkpt>
      <trkpt lat="42.900901" lon="-2.540191">
        <ele>543.289</ele>
        <time>2022-03-20T13:14:39Z</time>
      </trkpt>
      <trkpt lat="42.900901" lon="-2.540191">
        <ele>543.217</ele>
        <time>2022-03-20T13:14:40Z</time>
      </trkpt>
      <trkpt lat="42.900901" lon="-2.540191">
        <ele>542.808</ele>
        <time>2022-03-20T13:14:41Z</time>
      </trkpt>
      <trkpt lat="42.900901" lon="-2.540191">
        <ele>542.831</ele>
        <time>2022-03-20T13:14:42Z</time>
      </trkpt>
      <trkpt lat="42.900901" lon="-2.540191">
        <ele>542.889</ele>
        <time>2022-03-20T13:14:43Z</time>
      </trkpt>
      <trkpt lat="42.900901" lon="-2.540191">
        <ele>542.851</ele>
        <time>2022-03-20T13:14:44Z</time>
      </trkpt>
      <trkpt lat="42.900899" lon="-2.540191">
        <ele>542.876</ele>
        <time>2022-03-20T13:14:45Z</time>
      </trkpt>
      <trkpt lat="42.900898" lon="-2.540188">
        <ele>542.889</ele>
        <time>2022-03-20T13:14:46Z</time>
      </trkpt>
      <trkpt lat="42.900897" lon="-2.540188">
        <ele>542.858</ele>
        <time>2022-03-20T13:14:47Z</time>
      </trkpt>
      <trkpt lat="42.900896" lon="-2.540188">
        <ele>542.823</ele>
        <time>2022-03-20T13:14:48Z</time>
      </trkpt>
      <trkpt lat="42.900896" lon="-2.540187">
        <ele>542.444</ele>
        <time>2022-03-20T13:14:49Z</time>
      </trkpt>
      <trkpt lat="42.900895" lon="-2.540187">
        <ele>542.425</ele>
        <time>2022-03-20T13:14:50Z</time>
      </trkpt>
      <trkpt lat="42.900895" lon="-2.540187">
        <ele>542.426</ele>
        <time>2022-03-20T13:14:51Z</time>
      </trkpt>
      <trkpt lat="42.900895" lon="-2.540187">
        <ele>542.208</ele>
        <time>2022-03-20T13:14:52Z</time>
      </trkpt>
      <trkpt lat="42.900894" lon="-2.540187">
        <ele>542.408</ele>
        <time>2022-03-20T13:14:53Z</time>
      </trkpt>
      <trkpt lat="42.900892" lon="-2.540187">
        <ele>542.451</ele>
        <time>2022-03-20T13:14:54Z</time>
      </trkpt>
      <trkpt lat="42.900892" lon="-2.540186">
        <ele>542.459</ele>
        <time>2022-03-20T13:14:55Z</time>
      </trkpt>
      <trkpt lat="42.900892" lon="-2.540185">
        <ele>542.261</ele>
        <time>2022-03-20T13:14:56Z</time>
      </trkpt>
      <trkpt lat="42.900892" lon="-2.540179">
        <ele>542.026</ele>
        <time>2022-03-20T13:14:57Z</time>
      </trkpt>
      <trkpt lat="42.90089" lon="-2.540165">
        <ele>542.049</ele>
        <time>2022-03-20T13:14:58Z</time>
      </trkpt>
      <trkpt lat="42.90089" lon="-2.540147">
        <ele>542.228</ele>
        <time>2022-03-20T13:14:59Z</time>
      </trkpt>
      <trkpt lat="42.900887" lon="-2.540129">
        <ele>542.273</ele>
        <time>2022-03-20T13:15:00Z</time>
      </trkpt>
      <trkpt lat="42.900878" lon="-2.540113">
        <ele>542.294</ele>
        <time>2022-03-20T13:15:01Z</time>
      </trkpt>
      <trkpt lat="42.900871" lon="-2.540103">
        <ele>542.466</ele>
        <time>2022-03-20T13:15:02Z</time>
      </trkpt>
      <trkpt lat="42.900871" lon="-2.540096">
        <ele>542.429</ele>
        <time>2022-03-20T13:15:03Z</time>
      </trkpt>
      <trkpt lat="42.900872" lon="-2.540085">
        <ele>542.421</ele>
        <time>2022-03-20T13:15:04Z</time>
      </trkpt>
      <trkpt lat="42.900873" lon="-2.540071">
        <ele>542.808</ele>
        <time>2022-03-20T13:15:05Z</time>
      </trkpt>
      <trkpt lat="42.900871" lon="-2.540055">
        <ele>542.445</ele>
        <time>2022-03-20T13:15:06Z</time>
      </trkpt>
      <trkpt lat="42.900866" lon="-2.540043">
        <ele>542.453</ele>
        <time>2022-03-20T13:15:07Z</time>
      </trkpt>
      <trkpt lat="42.900865" lon="-2.540031">
        <ele>542.855</ele>
        <time>2022-03-20T13:15:08Z</time>
      </trkpt>
      <trkpt lat="42.900863" lon="-2.540017">
        <ele>543.410</ele>
        <time>2022-03-20T13:15:09Z</time>
      </trkpt>
      <trkpt lat="42.90086" lon="-2.540005">
        <ele>543.053</ele>
        <time>2022-03-20T13:15:10Z</time>
      </trkpt>
      <trkpt lat="42.900858" lon="-2.539991">
        <ele>543.092</ele>
        <time>2022-03-20T13:15:11Z</time>
      </trkpt>
      <trkpt lat="42.900858" lon="-2.539978">
        <ele>543.237</ele>
        <time>2022-03-20T13:15:12Z</time>
      </trkpt>
      <trkpt lat="42.90086" lon="-2.539966">
        <ele>543.298</ele>
        <time>2022-03-20T13:15:13Z</time>
      </trkpt>
      <trkpt lat="42.900861" lon="-2.539954">
        <ele>543.049</ele>
        <time>2022-03-20T13:15:14Z</time>
      </trkpt>
      <trkpt lat="42.900862" lon="-2.53994">
        <ele>543.002</ele>
        <time>2022-03-20T13:15:15Z</time>
      </trkpt>
      <trkpt lat="42.900862" lon="-2.539929">
        <ele>542.822</ele>
        <time>2022-03-20T13:15:16Z</time>
      </trkpt>
      <trkpt lat="42.900863" lon="-2.539913">
        <ele>542.808</ele>
        <time>2022-03-20T13:15:17Z</time>
      </trkpt>
      <trkpt lat="42.900861" lon="-2.539897">
        <ele>542.833</ele>
        <time>2022-03-20T13:15:18Z</time>
      </trkpt>
      <trkpt lat="42.900859" lon="-2.539883">
        <ele>542.821</ele>
        <time>2022-03-20T13:15:19Z</time>
      </trkpt>
      <trkpt lat="42.900855" lon="-2.539868">
        <ele>543.053</ele>
        <time>2022-03-20T13:15:20Z</time>
      </trkpt>
      <trkpt lat="42.900856" lon="-2.539857">
        <ele>543.068</ele>
        <time>2022-03-20T13:15:21Z</time>
      </trkpt>
      <trkpt lat="42.900858" lon="-2.539844">
        <ele>543.291</ele>
        <time>2022-03-20T13:15:22Z</time>
      </trkpt>
      <trkpt lat="42.900856" lon="-2.53983">
        <ele>543.630</ele>
        <time>2022-03-20T13:15:23Z</time>
      </trkpt>
      <trkpt lat="42.900858" lon="-2.539816">
        <ele>543.255</ele>
        <time>2022-03-20T13:15:24Z</time>
      </trkpt>
      <trkpt lat="42.900856" lon="-2.539805">
        <ele>543.256</ele>
        <time>2022-03-20T13:15:25Z</time>
      </trkpt>
      <trkpt lat="42.900857" lon="-2.539795">
        <ele>543.251</ele>
        <time>2022-03-20T13:15:26Z</time>
      </trkpt>
      <trkpt lat="42.900857" lon="-2.539783">
        <ele>543.201</ele>
        <time>2022-03-20T13:15:27Z</time>
      </trkpt>
      <trkpt lat="42.900857" lon="-2.53977">
        <ele>543.411</ele>
        <time>2022-03-20T13:15:28Z</time>
      </trkpt>
      <trkpt lat="42.900854" lon="-2.539758">
        <ele>543.208</ele>
        <time>2022-03-20T13:15:29Z</time>
      </trkpt>
      <trkpt lat="42.900852" lon="-2.539746">
        <ele>543.244</ele>
        <time>2022-03-20T13:15:30Z</time>
      </trkpt>
      <trkpt lat="42.90085" lon="-2.539733">
        <ele>543.272</ele>
        <time>2022-03-20T13:15:31Z</time>
      </trkpt>
      <trkpt lat="42.900848" lon="-2.53972">
        <ele>543.214</ele>
        <time>2022-03-20T13:15:32Z</time>
      </trkpt>
      <trkpt lat="42.900845" lon="-2.539708">
        <ele>543.029</ele>
        <time>2022-03-20T13:15:33Z</time>
      </trkpt>
      <trkpt lat="42.900843" lon="-2.539696">
        <ele>543.022</ele>
        <time>2022-03-20T13:15:34Z</time>
      </trkpt>
      <trkpt lat="42.90084" lon="-2.539683">
        <ele>543.071</ele>
        <time>2022-03-20T13:15:35Z</time>
      </trkpt>
      <trkpt lat="42.900837" lon="-2.53967">
        <ele>543.096</ele>
        <time>2022-03-20T13:15:36Z</time>
      </trkpt>
      <trkpt lat="42.900837" lon="-2.539658">
        <ele>543.087</ele>
        <time>2022-03-20T13:15:37Z</time>
      </trkpt>
      <trkpt lat="42.900833" lon="-2.539646">
        <ele>542.615</ele>
        <time>2022-03-20T13:15:38Z</time>
      </trkpt>
      <trkpt lat="42.90083" lon="-2.539632">
        <ele>543.065</ele>
        <time>2022-03-20T13:15:39Z</time>
      </trkpt>
      <trkpt lat="42.900826" lon="-2.539619">
        <ele>543.011</ele>
        <time>2022-03-20T13:15:40Z</time>
      </trkpt>
      <trkpt lat="42.900821" lon="-2.539606">
        <ele>542.608</ele>
        <time>2022-03-20T13:15:41Z</time>
      </trkpt>
      <trkpt lat="42.900817" lon="-2.539595">
        <ele>542.610</ele>
        <time>2022-03-20T13:15:42Z</time>
      </trkpt>
      <trkpt lat="42.900814" lon="-2.539584">
        <ele>542.628</ele>
        <time>2022-03-20T13:15:43Z</time>
      </trkpt>
      <trkpt lat="42.90081" lon="-2.539573">
        <ele>542.610</ele>
        <time>2022-03-20T13:15:44Z</time>
      </trkpt>
      <trkpt lat="42.900808" lon="-2.539566">
        <ele>542.685</ele>
        <time>2022-03-20T13:15:45Z</time>
      </trkpt>
      <trkpt lat="42.900809" lon="-2.539563">
        <ele>542.628</ele>
        <time>2022-03-20T13:15:46Z</time>
      </trkpt>
      <trkpt lat="42.900811" lon="-2.539564">
        <ele>542.647</ele>
        <time>2022-03-20T13:15:47Z</time>
      </trkpt>
      <trkpt lat="42.900813" lon="-2.53956">
        <ele>543.282</ele>
        <time>2022-03-20T13:15:48Z</time>
      </trkpt>
      <trkpt lat="42.900813" lon="-2.539551">
        <ele>543.853</ele>
        <time>2022-03-20T13:15:49Z</time>
      </trkpt>
      <trkpt lat="42.900811" lon="-2.53954">
        <ele>544.282</ele>
        <time>2022-03-20T13:15:50Z</time>
      </trkpt>
      <trkpt lat="42.900807" lon="-2.539527">
        <ele>544.243</ele>
        <time>2022-03-20T13:15:51Z</time>
      </trkpt>
      <trkpt lat="42.900804" lon="-2.539513">
        <ele>544.217</ele>
        <time>2022-03-20T13:15:52Z</time>
      </trkpt>
      <trkpt lat="42.900802" lon="-2.539499">
        <ele>544.008</ele>
        <time>2022-03-20T13:15:53Z</time>
      </trkpt>
      <trkpt lat="42.900799" lon="-2.539486">
        <ele>543.867</ele>
        <time>2022-03-20T13:15:54Z</time>
      </trkpt>
      <trkpt lat="42.900796" lon="-2.539473">
        <ele>542.695</ele>
        <time>2022-03-20T13:15:55Z</time>
      </trkpt>
      <trkpt lat="42.900791" lon="-2.53946">
        <ele>542.697</ele>
        <time>2022-03-20T13:15:56Z</time>
      </trkpt>
      <trkpt lat="42.900789" lon="-2.53945">
        <ele>542.652</ele>
        <time>2022-03-20T13:15:57Z</time>
      </trkpt>
      <trkpt lat="42.900787" lon="-2.539439">
        <ele>542.685</ele>
        <time>2022-03-20T13:15:58Z</time>
      </trkpt>
      <trkpt lat="42.900784" lon="-2.539429">
        <ele>542.694</ele>
        <time>2022-03-20T13:15:59Z</time>
      </trkpt>
      <trkpt lat="42.900779" lon="-2.539418">
        <ele>542.879</ele>
        <time>2022-03-20T13:16:00Z</time>
      </trkpt>
      <trkpt lat="42.900773" lon="-2.539408">
        <ele>543.040</ele>
        <time>2022-03-20T13:16:01Z</time>
      </trkpt>
      <trkpt lat="42.900768" lon="-2.539398">
        <ele>543.092</ele>
        <time>2022-03-20T13:16:02Z</time>
      </trkpt>
      <trkpt lat="42.900762" lon="-2.539385">
        <ele>543.273</ele>
        <time>2022-03-20T13:16:03Z</time>
      </trkpt>
      <trkpt lat="42.900759" lon="-2.539374">
        <ele>543.220</ele>
        <time>2022-03-20T13:16:04Z</time>
      </trkpt>
      <trkpt lat="42.900757" lon="-2.539363">
        <ele>543.208</ele>
        <time>2022-03-20T13:16:05Z</time>
      </trkpt>
      <trkpt lat="42.900753" lon="-2.539353">
        <ele>543.828</ele>
        <time>2022-03-20T13:16:06Z</time>
      </trkpt>
      <trkpt lat="42.900749" lon="-2.539344">
        <ele>543.886</ele>
        <time>2022-03-20T13:16:07Z</time>
      </trkpt>
      <trkpt lat="42.900742" lon="-2.539332">
        <ele>544.098</ele>
        <time>2022-03-20T13:16:08Z</time>
      </trkpt>
      <trkpt lat="42.900736" lon="-2.539321">
        <ele>544.053</ele>
        <time>2022-03-20T13:16:09Z</time>
      </trkpt>
      <trkpt lat="42.900735" lon="-2.539312">
        <ele>544.016</ele>
        <time>2022-03-20T13:16:10Z</time>
      </trkpt>
      <trkpt lat="42.900731" lon="-2.539304">
        <ele>544.025</ele>
        <time>2022-03-20T13:16:11Z</time>
      </trkpt>
      <trkpt lat="42.900726" lon="-2.539293">
        <ele>544.050</ele>
        <time>2022-03-20T13:16:12Z</time>
      </trkpt>
      <trkpt lat="42.900723" lon="-2.539281">
        <ele>544.091</ele>
        <time>2022-03-20T13:16:13Z</time>
      </trkpt>
      <trkpt lat="42.900717" lon="-2.539269">
        <ele>544.279</ele>
        <time>2022-03-20T13:16:14Z</time>
      </trkpt>
      <trkpt lat="42.900715" lon="-2.53926">
        <ele>544.205</ele>
        <time>2022-03-20T13:16:15Z</time>
      </trkpt>
      <trkpt lat="42.900712" lon="-2.53925">
        <ele>544.225</ele>
        <time>2022-03-20T13:16:16Z</time>
      </trkpt>
      <trkpt lat="42.900708" lon="-2.539241">
        <ele>544.608</ele>
        <time>2022-03-20T13:16:17Z</time>
      </trkpt>
      <trkpt lat="42.900704" lon="-2.53923">
        <ele>544.636</ele>
        <time>2022-03-20T13:16:18Z</time>
      </trkpt>
      <trkpt lat="42.9007" lon="-2.539219">
        <ele>544.654</ele>
        <time>2022-03-20T13:16:19Z</time>
      </trkpt>
      <trkpt lat="42.900693" lon="-2.539208">
        <ele>544.636</ele>
        <time>2022-03-20T13:16:20Z</time>
      </trkpt>
      <trkpt lat="42.90069" lon="-2.539197">
        <ele>544.631</ele>
        <time>2022-03-20T13:16:21Z</time>
      </trkpt>
      <trkpt lat="42.900689" lon="-2.539186">
        <ele>544.284</ele>
        <time>2022-03-20T13:16:22Z</time>
      </trkpt>
      <trkpt lat="42.900686" lon="-2.539175">
        <ele>544.273</ele>
        <time>2022-03-20T13:16:23Z</time>
      </trkpt>
      <trkpt lat="42.900684" lon="-2.539164">
        <ele>543.858</ele>
        <time>2022-03-20T13:16:24Z</time>
      </trkpt>
      <trkpt lat="42.900681" lon="-2.539153">
        <ele>543.089</ele>
        <time>2022-03-20T13:16:25Z</time>
      </trkpt>
      <trkpt lat="42.900677" lon="-2.539143">
        <ele>543.057</ele>
        <time>2022-03-20T13:16:26Z</time>
      </trkpt>
      <trkpt lat="42.90067" lon="-2.539135">
        <ele>543.000</ele>
        <time>2022-03-20T13:16:27Z</time>
      </trkpt>
      <trkpt lat="42.900665" lon="-2.539125">
        <ele>543.220</ele>
        <time>2022-03-20T13:16:28Z</time>
      </trkpt>
      <trkpt lat="42.900658" lon="-2.539114">
        <ele>543.208</ele>
        <time>2022-03-20T13:16:29Z</time>
      </trkpt>
      <trkpt lat="42.900651" lon="-2.539104">
        <ele>543.284</ele>
        <time>2022-03-20T13:16:30Z</time>
      </trkpt>
      <trkpt lat="42.900641" lon="-2.539094">
        <ele>543.262</ele>
        <time>2022-03-20T13:16:31Z</time>
      </trkpt>
      <trkpt lat="42.900631" lon="-2.539084">
        <ele>543.284</ele>
        <time>2022-03-20T13:16:32Z</time>
      </trkpt>
      <trkpt lat="42.900626" lon="-2.539078">
        <ele>543.289</ele>
        <time>2022-03-20T13:16:33Z</time>
      </trkpt>
      <trkpt lat="42.900626" lon="-2.53908">
        <ele>543.282</ele>
        <time>2022-03-20T13:16:34Z</time>
      </trkpt>
      <trkpt lat="42.900629" lon="-2.539083">
        <ele>543.261</ele>
        <time>2022-03-20T13:16:35Z</time>
      </trkpt>
      <trkpt lat="42.900633" lon="-2.539087">
        <ele>543.266</ele>
        <time>2022-03-20T13:16:36Z</time>
      </trkpt>
      <trkpt lat="42.900634" lon="-2.539092">
        <ele>543.027</ele>
        <time>2022-03-20T13:16:37Z</time>
      </trkpt>
      <trkpt lat="42.900634" lon="-2.539099">
        <ele>543.083</ele>
        <time>2022-03-20T13:16:38Z</time>
      </trkpt>
      <trkpt lat="42.90063" lon="-2.539114">
        <ele>543.025</ele>
        <time>2022-03-20T13:16:39Z</time>
      </trkpt>
      <trkpt lat="42.900625" lon="-2.539122">
        <ele>542.817</ele>
        <time>2022-03-20T13:16:40Z</time>
      </trkpt>
      <trkpt lat="42.900622" lon="-2.53913">
        <ele>542.808</ele>
        <time>2022-03-20T13:16:41Z</time>
      </trkpt>
      <trkpt lat="42.900622" lon="-2.539139">
        <ele>542.827</ele>
        <time>2022-03-20T13:16:42Z</time>
      </trkpt>
      <trkpt lat="42.900624" lon="-2.539138">
        <ele>542.825</ele>
        <time>2022-03-20T13:16:43Z</time>
      </trkpt>
      <trkpt lat="42.900628" lon="-2.539135">
        <ele>542.647</ele>
        <time>2022-03-20T13:16:44Z</time>
      </trkpt>
      <trkpt lat="42.900633" lon="-2.539131">
        <ele>542.892</ele>
        <time>2022-03-20T13:16:45Z</time>
      </trkpt>
      <trkpt lat="42.900635" lon="-2.53912">
        <ele>542.875</ele>
        <time>2022-03-20T13:16:46Z</time>
      </trkpt>
      <trkpt lat="42.900638" lon="-2.539112">
        <ele>542.874</ele>
        <time>2022-03-20T13:16:47Z</time>
      </trkpt>
      <trkpt lat="42.90064" lon="-2.539109">
        <ele>542.849</ele>
        <time>2022-03-20T13:16:48Z</time>
      </trkpt>
      <trkpt lat="42.900638" lon="-2.539106">
        <ele>543.230</ele>
        <time>2022-03-20T13:16:49Z</time>
      </trkpt>
      <trkpt lat="42.900638" lon="-2.539106">
        <ele>543.278</ele>
        <time>2022-03-20T13:16:50Z</time>
      </trkpt>
      <trkpt lat="42.900638" lon="-2.539106">
        <ele>543.233</ele>
        <time>2022-03-20T13:16:51Z</time>
      </trkpt>
      <trkpt lat="42.900638" lon="-2.539106">
        <ele>543.426</ele>
        <time>2022-03-20T13:16:52Z</time>
      </trkpt>
      <trkpt lat="42.900638" lon="-2.539106">
        <ele>543.208</ele>
        <time>2022-03-20T13:16:53Z</time>
      </trkpt>
      <trkpt lat="42.900638" lon="-2.539106">
        <ele>543.216</ele>
        <time>2022-03-20T13:16:54Z</time>
      </trkpt>
      <trkpt lat="42.900638" lon="-2.539102">
        <ele>543.424</ele>
        <time>2022-03-20T13:16:55Z</time>
      </trkpt>
      <trkpt lat="42.900635" lon="-2.539081">
        <ele>543.456</ele>
        <time>2022-03-20T13:16:56Z</time>
      </trkpt>
      <trkpt lat="42.900633" lon="-2.539062">
        <ele>543.611</ele>
        <time>2022-03-20T13:16:57Z</time>
      </trkpt>
      <trkpt lat="42.900629" lon="-2.539043">
        <ele>543.624</ele>
        <time>2022-03-20T13:16:58Z</time>
      </trkpt>
      <trkpt lat="42.900628" lon="-2.539023">
        <ele>544.043</ele>
        <time>2022-03-20T13:16:59Z</time>
      </trkpt>
      <trkpt lat="42.900627" lon="-2.539003">
        <ele>544.238</ele>
        <time>2022-03-20T13:17:00Z</time>
      </trkpt>
      <trkpt lat="42.900627" lon="-2.538984">
        <ele>544.279</ele>
        <time>2022-03-20T13:17:01Z</time>
      </trkpt>
      <trkpt lat="42.900626" lon="-2.538965">
        <ele>544.283</ele>
        <time>2022-03-20T13:17:02Z</time>
      </trkpt>
      <trkpt lat="42.900623" lon="-2.538944">
        <ele>544.025</ele>
        <time>2022-03-20T13:17:03Z</time>
      </trkpt>
      <trkpt lat="42.90062" lon="-2.538924">
        <ele>544.217</ele>
        <time>2022-03-20T13:17:04Z</time>
      </trkpt>
      <trkpt lat="42.90062" lon="-2.538911">
        <ele>544.008</ele>
        <time>2022-03-20T13:17:05Z</time>
      </trkpt>
      <trkpt lat="42.900621" lon="-2.538898">
        <ele>543.457</ele>
        <time>2022-03-20T13:17:06Z</time>
      </trkpt>
      <trkpt lat="42.900622" lon="-2.538886">
        <ele>543.495</ele>
        <time>2022-03-20T13:17:07Z</time>
      </trkpt>
      <trkpt lat="42.90062" lon="-2.538872">
        <ele>543.647</ele>
        <time>2022-03-20T13:17:08Z</time>
      </trkpt>
      <trkpt lat="42.90062" lon="-2.538858">
        <ele>543.622</ele>
        <time>2022-03-20T13:17:09Z</time>
      </trkpt>
      <trkpt lat="42.90062" lon="-2.538842">
        <ele>543.695</ele>
        <time>2022-03-20T13:17:10Z</time>
      </trkpt>
      <trkpt lat="42.900618" lon="-2.53883">
        <ele>543.694</ele>
        <time>2022-03-20T13:17:11Z</time>
      </trkpt>
      <trkpt lat="42.900616" lon="-2.538817">
        <ele>543.699</ele>
        <time>2022-03-20T13:17:12Z</time>
      </trkpt>
      <trkpt lat="42.900615" lon="-2.538803">
        <ele>543.690</ele>
        <time>2022-03-20T13:17:13Z</time>
      </trkpt>
      <trkpt lat="42.900616" lon="-2.538788">
        <ele>543.687</ele>
        <time>2022-03-20T13:17:14Z</time>
      </trkpt>
      <trkpt lat="42.900621" lon="-2.538776">
        <ele>543.842</ele>
        <time>2022-03-20T13:17:15Z</time>
      </trkpt>
      <trkpt lat="42.900625" lon="-2.538764">
        <ele>543.826</ele>
        <time>2022-03-20T13:17:16Z</time>
      </trkpt>
      <trkpt lat="42.900629" lon="-2.538751">
        <ele>543.808</ele>
        <time>2022-03-20T13:17:17Z</time>
      </trkpt>
      <trkpt lat="42.90063" lon="-2.538737">
        <ele>543.687</ele>
        <time>2022-03-20T13:17:18Z</time>
      </trkpt>
      <trkpt lat="42.900632" lon="-2.538725">
        <ele>543.465</ele>
        <time>2022-03-20T13:17:19Z</time>
      </trkpt>
      <trkpt lat="42.900634" lon="-2.538712">
        <ele>543.257</ele>
        <time>2022-03-20T13:17:20Z</time>
      </trkpt>
      <trkpt lat="42.900638" lon="-2.538701">
        <ele>543.042</ele>
        <time>2022-03-20T13:17:21Z</time>
      </trkpt>
      <trkpt lat="42.90064" lon="-2.538688">
        <ele>543.015</ele>
        <time>2022-03-20T13:17:22Z</time>
      </trkpt>
      <trkpt lat="42.900642" lon="-2.538676">
        <ele>543.094</ele>
        <time>2022-03-20T13:17:23Z</time>
      </trkpt>
      <trkpt lat="42.900648" lon="-2.538666">
        <ele>543.039</ele>
        <time>2022-03-20T13:17:24Z</time>
      </trkpt>
      <trkpt lat="42.900652" lon="-2.538656">
        <ele>543.030</ele>
        <time>2022-03-20T13:17:25Z</time>
      </trkpt>
      <trkpt lat="42.900656" lon="-2.538644">
        <ele>543.041</ele>
        <time>2022-03-20T13:17:26Z</time>
      </trkpt>
      <trkpt lat="42.900659" lon="-2.538631">
        <ele>543.081</ele>
        <time>2022-03-20T13:17:27Z</time>
      </trkpt>
      <trkpt lat="42.900659" lon="-2.538616">
        <ele>543.009</ele>
        <time>2022-03-20T13:17:28Z</time>
      </trkpt>
      <trkpt lat="42.900656" lon="-2.538603">
        <ele>543.208</ele>
        <time>2022-03-20T13:17:29Z</time>
      </trkpt>
      <trkpt lat="42.900654" lon="-2.538588">
        <ele>543.223</ele>
        <time>2022-03-20T13:17:30Z</time>
      </trkpt>
      <trkpt lat="42.900658" lon="-2.538576">
        <ele>543.231</ele>
        <time>2022-03-20T13:17:31Z</time>
      </trkpt>
      <trkpt lat="42.900663" lon="-2.538566">
        <ele>543.293</ele>
        <time>2022-03-20T13:17:32Z</time>
      </trkpt>
      <trkpt lat="42.90067" lon="-2.538559">
        <ele>543.218</ele>
        <time>2022-03-20T13:17:33Z</time>
      </trkpt>
      <trkpt lat="42.900679" lon="-2.538554">
        <ele>543.231</ele>
        <time>2022-03-20T13:17:34Z</time>
      </trkpt>
      <trkpt lat="42.900688" lon="-2.538546">
        <ele>543.280</ele>
        <time>2022-03-20T13:17:35Z</time>
      </trkpt>
      <trkpt lat="42.900695" lon="-2.538539">
        <ele>543.245</ele>
        <time>2022-03-20T13:17:36Z</time>
      </trkpt>
      <trkpt lat="42.900702" lon="-2.538528">
        <ele>543.246</ele>
        <time>2022-03-20T13:17:37Z</time>
      </trkpt>
      <trkpt lat="42.900708" lon="-2.538517">
        <ele>543.269</ele>
        <time>2022-03-20T13:17:38Z</time>
      </trkpt>
      <trkpt lat="42.900715" lon="-2.538506">
        <ele>543.204</ele>
        <time>2022-03-20T13:17:39Z</time>
      </trkpt>
      <trkpt lat="42.900722" lon="-2.538495">
        <ele>543.224</ele>
        <time>2022-03-20T13:17:40Z</time>
      </trkpt>
      <trkpt lat="42.900729" lon="-2.538484">
        <ele>543.408</ele>
        <time>2022-03-20T13:17:41Z</time>
      </trkpt>
      <trkpt lat="42.900735" lon="-2.538474">
        <ele>543.255</ele>
        <time>2022-03-20T13:17:42Z</time>
      </trkpt>
      <trkpt lat="42.900742" lon="-2.538464">
        <ele>543.263</ele>
        <time>2022-03-20T13:17:43Z</time>
      </trkpt>
      <trkpt lat="42.900748" lon="-2.538455">
        <ele>543.245</ele>
        <time>2022-03-20T13:17:44Z</time>
      </trkpt>
      <trkpt lat="42.900755" lon="-2.538445">
        <ele>543.430</ele>
        <time>2022-03-20T13:17:45Z</time>
      </trkpt>
      <trkpt lat="42.900761" lon="-2.538438">
        <ele>543.423</ele>
        <time>2022-03-20T13:17:46Z</time>
      </trkpt>
      <trkpt lat="42.900767" lon="-2.53843">
        <ele>543.632</ele>
        <time>2022-03-20T13:17:47Z</time>
      </trkpt>
      <trkpt lat="42.900772" lon="-2.53842">
        <ele>543.637</ele>
        <time>2022-03-20T13:17:48Z</time>
      </trkpt>
      <trkpt lat="42.900777" lon="-2.53841">
        <ele>543.648</ele>
        <time>2022-03-20T13:17:49Z</time>
      </trkpt>
      <trkpt lat="42.900784" lon="-2.538399">
        <ele>543.657</ele>
        <time>2022-03-20T13:17:50Z</time>
      </trkpt>
      <trkpt lat="42.90079" lon="-2.538387">
        <ele>543.800</ele>
        <time>2022-03-20T13:17:51Z</time>
      </trkpt>
      <trkpt lat="42.900794" lon="-2.538377">
        <ele>544.020</ele>
        <time>2022-03-20T13:17:52Z</time>
      </trkpt>
      <trkpt lat="42.900797" lon="-2.538367">
        <ele>544.208</ele>
        <time>2022-03-20T13:17:53Z</time>
      </trkpt>
      <trkpt lat="42.900802" lon="-2.538357">
        <ele>544.274</ele>
        <time>2022-03-20T13:17:54Z</time>
      </trkpt>
      <trkpt lat="42.900806" lon="-2.538345">
        <ele>544.272</ele>
        <time>2022-03-20T13:17:55Z</time>
      </trkpt>
      <trkpt lat="42.90081" lon="-2.538335">
        <ele>544.294</ele>
        <time>2022-03-20T13:17:56Z</time>
      </trkpt>
      <trkpt lat="42.900818" lon="-2.538325">
        <ele>544.249</ele>
        <time>2022-03-20T13:17:57Z</time>
      </trkpt>
      <trkpt lat="42.900824" lon="-2.538317">
        <ele>544.292</ele>
        <time>2022-03-20T13:17:58Z</time>
      </trkpt>
      <trkpt lat="42.900829" lon="-2.538307">
        <ele>544.211</ele>
        <time>2022-03-20T13:17:59Z</time>
      </trkpt>
      <trkpt lat="42.900834" lon="-2.538297">
        <ele>544.276</ele>
        <time>2022-03-20T13:18:00Z</time>
      </trkpt>
      <trkpt lat="42.900839" lon="-2.538285">
        <ele>544.297</ele>
        <time>2022-03-20T13:18:01Z</time>
      </trkpt>
      <trkpt lat="42.900844" lon="-2.538279">
        <ele>544.038</ele>
        <time>2022-03-20T13:18:02Z</time>
      </trkpt>
      <trkpt lat="42.900852" lon="-2.538274">
        <ele>544.070</ele>
        <time>2022-03-20T13:18:03Z</time>
      </trkpt>
      <trkpt lat="42.900858" lon="-2.538268">
        <ele>544.017</ele>
        <time>2022-03-20T13:18:04Z</time>
      </trkpt>
      <trkpt lat="42.900863" lon="-2.538258">
        <ele>544.008</ele>
        <time>2022-03-20T13:18:05Z</time>
      </trkpt>
      <trkpt lat="42.900869" lon="-2.538249">
        <ele>544.082</ele>
        <time>2022-03-20T13:18:06Z</time>
      </trkpt>
      <trkpt lat="42.900873" lon="-2.538242">
        <ele>544.210</ele>
        <time>2022-03-20T13:18:07Z</time>
      </trkpt>
      <trkpt lat="42.900876" lon="-2.538231">
        <ele>544.252</ele>
        <time>2022-03-20T13:18:08Z</time>
      </trkpt>
      <trkpt lat="42.900879" lon="-2.53822">
        <ele>544.277</ele>
        <time>2022-03-20T13:18:09Z</time>
      </trkpt>
      <trkpt lat="42.900883" lon="-2.538209">
        <ele>544.490</ele>
        <time>2022-03-20T13:18:10Z</time>
      </trkpt>
      <trkpt lat="42.900887" lon="-2.538202">
        <ele>544.429</ele>
        <time>2022-03-20T13:18:11Z</time>
      </trkpt>
      <trkpt lat="42.900891" lon="-2.538193">
        <ele>544.424</ele>
        <time>2022-03-20T13:18:12Z</time>
      </trkpt>
      <trkpt lat="42.900895" lon="-2.538185">
        <ele>544.425</ele>
        <time>2022-03-20T13:18:13Z</time>
      </trkpt>
      <trkpt lat="42.900899" lon="-2.538177">
        <ele>544.419</ele>
        <time>2022-03-20T13:18:14Z</time>
      </trkpt>
      <trkpt lat="42.900905" lon="-2.53817">
        <ele>544.809</ele>
        <time>2022-03-20T13:18:15Z</time>
      </trkpt>
      <trkpt lat="42.900911" lon="-2.538162">
        <ele>545.019</ele>
        <time>2022-03-20T13:18:16Z</time>
      </trkpt>
      <trkpt lat="42.900916" lon="-2.538155">
        <ele>545.008</ele>
        <time>2022-03-20T13:18:17Z</time>
      </trkpt>
      <trkpt lat="42.90092" lon="-2.538147">
        <ele>545.010</ele>
        <time>2022-03-20T13:18:18Z</time>
      </trkpt>
      <trkpt lat="42.900924" lon="-2.53814">
        <ele>545.038</ele>
        <time>2022-03-20T13:18:19Z</time>
      </trkpt>
      <trkpt lat="42.900929" lon="-2.538134">
        <ele>545.010</ele>
        <time>2022-03-20T13:18:20Z</time>
      </trkpt>
      <trkpt lat="42.900933" lon="-2.538131">
        <ele>545.075</ele>
        <time>2022-03-20T13:18:21Z</time>
      </trkpt>
      <trkpt lat="42.90094" lon="-2.538129">
        <ele>545.098</ele>
        <time>2022-03-20T13:18:22Z</time>
      </trkpt>
      <trkpt lat="42.900947" lon="-2.538127">
        <ele>545.057</ele>
        <time>2022-03-20T13:18:23Z</time>
      </trkpt>
      <trkpt lat="42.900953" lon="-2.538124">
        <ele>545.212</ele>
        <time>2022-03-20T13:18:24Z</time>
      </trkpt>
      <trkpt lat="42.900964" lon="-2.538128">
        <ele>545.213</ele>
        <time>2022-03-20T13:18:25Z</time>
      </trkpt>
      <trkpt lat="42.90097" lon="-2.538131">
        <ele>545.255</ele>
        <time>2022-03-20T13:18:26Z</time>
      </trkpt>
      <trkpt lat="42.900975" lon="-2.538133">
        <ele>545.007</ele>
        <time>2022-03-20T13:18:27Z</time>
      </trkpt>
      <trkpt lat="42.90098" lon="-2.538135">
        <ele>545.017</ele>
        <time>2022-03-20T13:18:28Z</time>
      </trkpt>
      <trkpt lat="42.900986" lon="-2.538136">
        <ele>545.008</ele>
        <time>2022-03-20T13:18:29Z</time>
      </trkpt>
      <trkpt lat="42.900989" lon="-2.538136">
        <ele>544.864</ele>
        <time>2022-03-20T13:18:30Z</time>
      </trkpt>
      <trkpt lat="42.90099" lon="-2.538132">
        <ele>544.832</ele>
        <time>2022-03-20T13:18:31Z</time>
      </trkpt>
      <trkpt lat="42.900989" lon="-2.53813">
        <ele>544.834</ele>
        <time>2022-03-20T13:18:32Z</time>
      </trkpt>
      <trkpt lat="42.900988" lon="-2.538129">
        <ele>544.889</ele>
        <time>2022-03-20T13:18:33Z</time>
      </trkpt>
      <trkpt lat="42.900987" lon="-2.53813">
        <ele>544.872</ele>
        <time>2022-03-20T13:18:34Z</time>
      </trkpt>
      <trkpt lat="42.900987" lon="-2.538128">
        <ele>544.831</ele>
        <time>2022-03-20T13:18:35Z</time>
      </trkpt>
      <trkpt lat="42.900986" lon="-2.538127">
        <ele>544.816</ele>
        <time>2022-03-20T13:18:36Z</time>
      </trkpt>
      <trkpt lat="42.900987" lon="-2.538131">
        <ele>544.887</ele>
        <time>2022-03-20T13:18:37Z</time>
      </trkpt>
      <trkpt lat="42.900987" lon="-2.53813">
        <ele>544.876</ele>
        <time>2022-03-20T13:18:38Z</time>
      </trkpt>
      <trkpt lat="42.900987" lon="-2.53813">
        <ele>544.890</ele>
        <time>2022-03-20T13:18:39Z</time>
      </trkpt>
      <trkpt lat="42.900987" lon="-2.53813">
        <ele>544.819</ele>
        <time>2022-03-20T13:18:40Z</time>
      </trkpt>
      <trkpt lat="42.900987" lon="-2.53813">
        <ele>544.808</ele>
        <time>2022-03-20T13:18:41Z</time>
      </trkpt>
      <trkpt lat="42.900987" lon="-2.53813">
        <ele>545.026</ele>
        <time>2022-03-20T13:18:42Z</time>
      </trkpt>
      <trkpt lat="42.900987" lon="-2.53813">
        <ele>545.254</ele>
        <time>2022-03-20T13:18:43Z</time>
      </trkpt>
      <trkpt lat="42.900987" lon="-2.53813">
        <ele>545.236</ele>
        <time>2022-03-20T13:18:44Z</time>
      </trkpt>
      <trkpt lat="42.900987" lon="-2.53813">
        <ele>545.231</ele>
        <time>2022-03-20T13:18:45Z</time>
      </trkpt>
      <trkpt lat="42.900987" lon="-2.53813">
        <ele>545.244</ele>
        <time>2022-03-20T13:18:46Z</time>
      </trkpt>
      <trkpt lat="42.900987" lon="-2.53813">
        <ele>545.083</ele>
        <time>2022-03-20T13:18:47Z</time>
      </trkpt>
      <trkpt lat="42.900987" lon="-2.53813">
        <ele>545.088</ele>
        <time>2022-03-20T13:18:48Z</time>
      </trkpt>
      <trkpt lat="42.900987" lon="-2.53813">
        <ele>545.099</ele>
        <time>2022-03-20T13:18:49Z</time>
      </trkpt>
      <trkpt lat="42.900987" lon="-2.53813">
        <ele>545.037</ele>
        <time>2022-03-20T13:18:50Z</time>
      </trkpt>
      <trkpt lat="42.900987" lon="-2.53813">
        <ele>544.849</ele>
        <time>2022-03-20T13:18:51Z</time>
      </trkpt>
      <trkpt lat="42.900987" lon="-2.53813">
        <ele>544.813</ele>
        <time>2022-03-20T13:18:52Z</time>
      </trkpt>
      <trkpt lat="42.900987" lon="-2.53813">
        <ele>544.808</ele>
        <time>2022-03-20T13:18:53Z</time>
      </trkpt>
      <trkpt lat="42.900987" lon="-2.53813">
        <ele>544.862</ele>
        <time>2022-03-20T13:18:54Z</time>
      </trkpt>
      <trkpt lat="42.900986" lon="-2.538129">
        <ele>544.840</ele>
        <time>2022-03-20T13:18:55Z</time>
      </trkpt>
      <trkpt lat="42.900985" lon="-2.538128">
        <ele>544.812</ele>
        <time>2022-03-20T13:18:56Z</time>
      </trkpt>
      <trkpt lat="42.900985" lon="-2.538128">
        <ele>544.897</ele>
        <time>2022-03-20T13:18:57Z</time>
      </trkpt>
      <trkpt lat="42.900984" lon="-2.538128">
        <ele>544.870</ele>
        <time>2022-03-20T13:18:58Z</time>
      </trkpt>
      <trkpt lat="42.900983" lon="-2.538128">
        <ele>544.859</ele>
        <time>2022-03-20T13:18:59Z</time>
      </trkpt>
      <trkpt lat="42.900981" lon="-2.538127">
        <ele>544.894</ele>
        <time>2022-03-20T13:19:00Z</time>
      </trkpt>
      <trkpt lat="42.90098" lon="-2.538126">
        <ele>544.655</ele>
        <time>2022-03-20T13:19:01Z</time>
      </trkpt>
      <trkpt lat="42.900979" lon="-2.53812">
        <ele>544.668</ele>
        <time>2022-03-20T13:19:02Z</time>
      </trkpt>
      <trkpt lat="42.900979" lon="-2.538112">
        <ele>544.842</ele>
        <time>2022-03-20T13:19:03Z</time>
      </trkpt>
      <trkpt lat="42.900977" lon="-2.538097">
        <ele>544.826</ele>
        <time>2022-03-20T13:19:04Z</time>
      </trkpt>
      <trkpt lat="42.900977" lon="-2.538093">
        <ele>545.008</ele>
        <time>2022-03-20T13:19:05Z</time>
      </trkpt>
      <trkpt lat="42.900976" lon="-2.538092">
        <ele>545.055</ele>
        <time>2022-03-20T13:19:06Z</time>
      </trkpt>
      <trkpt lat="42.900976" lon="-2.538092">
        <ele>545.033</ele>
        <time>2022-03-20T13:19:07Z</time>
      </trkpt>
      <trkpt lat="42.900975" lon="-2.538092">
        <ele>545.095</ele>
        <time>2022-03-20T13:19:08Z</time>
      </trkpt>
      <trkpt lat="42.900974" lon="-2.538092">
        <ele>544.870</ele>
        <time>2022-03-20T13:19:09Z</time>
      </trkpt>
      <trkpt lat="42.900974" lon="-2.538092">
        <ele>544.213</ele>
        <time>2022-03-20T13:19:10Z</time>
      </trkpt>
      <trkpt lat="42.900974" lon="-2.538092">
        <ele>544.252</ele>
        <time>2022-03-20T13:19:11Z</time>
      </trkpt>
      <trkpt lat="42.900973" lon="-2.538092">
        <ele>544.277</ele>
        <time>2022-03-20T13:19:12Z</time>
      </trkpt>
      <trkpt lat="42.900972" lon="-2.538092">
        <ele>544.218</ele>
        <time>2022-03-20T13:19:13Z</time>
      </trkpt>
      <trkpt lat="42.900972" lon="-2.538092">
        <ele>544.236</ele>
        <time>2022-03-20T13:19:14Z</time>
      </trkpt>
      <trkpt lat="42.900972" lon="-2.538092">
        <ele>545.617</ele>
        <time>2022-03-20T13:19:15Z</time>
      </trkpt>
      <trkpt lat="42.900972" lon="-2.538092">
        <ele>546.018</ele>
        <time>2022-03-20T13:19:16Z</time>
      </trkpt>
      <trkpt lat="42.900972" lon="-2.538092">
        <ele>546.008</ele>
        <time>2022-03-20T13:19:17Z</time>
      </trkpt>
      <trkpt lat="42.900972" lon="-2.538092">
        <ele>546.082</ele>
        <time>2022-03-20T13:19:18Z</time>
      </trkpt>
      <trkpt lat="42.900972" lon="-2.538092">
        <ele>546.050</ele>
        <time>2022-03-20T13:19:19Z</time>
      </trkpt>
      <trkpt lat="42.900972" lon="-2.538095">
        <ele>545.822</ele>
        <time>2022-03-20T13:19:20Z</time>
      </trkpt>
      <trkpt lat="42.900972" lon="-2.538098">
        <ele>545.677</ele>
        <time>2022-03-20T13:19:21Z</time>
      </trkpt>
      <trkpt lat="42.900972" lon="-2.538105">
        <ele>545.470</ele>
        <time>2022-03-20T13:19:22Z</time>
      </trkpt>
      <trkpt lat="42.900972" lon="-2.538114">
        <ele>545.269</ele>
        <time>2022-03-20T13:19:23Z</time>
      </trkpt>
      <trkpt lat="42.900972" lon="-2.538122">
        <ele>545.234</ele>
        <time>2022-03-20T13:19:24Z</time>
      </trkpt>
      <trkpt lat="42.900972" lon="-2.538128">
        <ele>544.865</ele>
        <time>2022-03-20T13:19:25Z</time>
      </trkpt>
      <trkpt lat="42.900972" lon="-2.538131">
        <ele>544.814</ele>
        <time>2022-03-20T13:19:26Z</time>
      </trkpt>
      <trkpt lat="42.900972" lon="-2.538136">
        <ele>544.854</ele>
        <time>2022-03-20T13:19:27Z</time>
      </trkpt>
      <trkpt lat="42.900972" lon="-2.538137">
        <ele>544.809</ele>
        <time>2022-03-20T13:19:28Z</time>
      </trkpt>
      <trkpt lat="42.900972" lon="-2.538137">
        <ele>544.408</ele>
        <time>2022-03-20T13:19:29Z</time>
      </trkpt>
      <trkpt lat="42.900974" lon="-2.538137">
        <ele>544.440</ele>
        <time>2022-03-20T13:19:30Z</time>
      </trkpt>
      <trkpt lat="42.900976" lon="-2.538138">
        <ele>544.458</ele>
        <time>2022-03-20T13:19:31Z</time>
      </trkpt>
      <trkpt lat="42.900978" lon="-2.538138">
        <ele>544.470</ele>
        <time>2022-03-20T13:19:32Z</time>
      </trkpt>
      <trkpt lat="42.900979" lon="-2.538138">
        <ele>544.425</ele>
        <time>2022-03-20T13:19:33Z</time>
      </trkpt>
      <trkpt lat="42.900979" lon="-2.538138">
        <ele>544.278</ele>
        <time>2022-03-20T13:19:34Z</time>
      </trkpt>
      <trkpt lat="42.90098" lon="-2.538138">
        <ele>544.467</ele>
        <time>2022-03-20T13:19:35Z</time>
      </trkpt>
      <trkpt lat="42.90098" lon="-2.538138">
        <ele>544.632</ele>
        <time>2022-03-20T13:19:36Z</time>
      </trkpt>
      <trkpt lat="42.900981" lon="-2.538138">
        <ele>544.623</ele>
        <time>2022-03-20T13:19:37Z</time>
      </trkpt>
      <trkpt lat="42.900981" lon="-2.538138">
        <ele>544.896</ele>
        <time>2022-03-20T13:19:38Z</time>
      </trkpt>
      <trkpt lat="42.900981" lon="-2.538138">
        <ele>544.631</ele>
        <time>2022-03-20T13:19:39Z</time>
      </trkpt>
      <trkpt lat="42.900982" lon="-2.538138">
        <ele>544.824</ele>
        <time>2022-03-20T13:19:40Z</time>
      </trkpt>
      <trkpt lat="42.900983" lon="-2.538138">
        <ele>544.808</ele>
        <time>2022-03-20T13:19:41Z</time>
      </trkpt>
      <trkpt lat="42.900984" lon="-2.538136">
        <ele>544.698</ele>
        <time>2022-03-20T13:19:42Z</time>
      </trkpt>
      <trkpt lat="42.900987" lon="-2.538135">
        <ele>544.676</ele>
        <time>2022-03-20T13:19:43Z</time>
      </trkpt>
      <trkpt lat="42.90099" lon="-2.538135">
        <ele>544.048</ele>
        <time>2022-03-20T13:19:44Z</time>
      </trkpt>
      <trkpt lat="42.900991" lon="-2.538133">
        <ele>543.083</ele>
        <time>2022-03-20T13:19:45Z</time>
      </trkpt>
      <trkpt lat="42.900991" lon="-2.538132">
        <ele>543.036</ele>
        <time>2022-03-20T13:19:46Z</time>
      </trkpt>
      <trkpt lat="42.900991" lon="-2.538132">
        <ele>543.035</ele>
        <time>2022-03-20T13:19:47Z</time>
      </trkpt>
      <trkpt lat="42.900991" lon="-2.538131">
        <ele>543.080</ele>
        <time>2022-03-20T13:19:48Z</time>
      </trkpt>
      <trkpt lat="42.900992" lon="-2.53813">
        <ele>543.061</ele>
        <time>2022-03-20T13:19:49Z</time>
      </trkpt>
      <trkpt lat="42.900992" lon="-2.538129">
        <ele>543.051</ele>
        <time>2022-03-20T13:19:50Z</time>
      </trkpt>
      <trkpt lat="42.900992" lon="-2.538128">
        <ele>543.601</ele>
        <time>2022-03-20T13:19:51Z</time>
      </trkpt>
      <trkpt lat="42.900993" lon="-2.538127">
        <ele>543.611</ele>
        <time>2022-03-20T13:19:52Z</time>
      </trkpt>
      <trkpt lat="42.900993" lon="-2.538127">
        <ele>543.808</ele>
        <time>2022-03-20T13:19:53Z</time>
      </trkpt>
      <trkpt lat="42.900994" lon="-2.538127">
        <ele>543.854</ele>
        <time>2022-03-20T13:19:54Z</time>
      </trkpt>
      <trkpt lat="42.900994" lon="-2.538127">
        <ele>544.022</ele>
        <time>2022-03-20T13:19:55Z</time>
      </trkpt>
      <trkpt lat="42.900994" lon="-2.538126">
        <ele>543.874</ele>
        <time>2022-03-20T13:19:56Z</time>
      </trkpt>
      <trkpt lat="42.900994" lon="-2.538126">
        <ele>543.869</ele>
        <time>2022-03-20T13:19:57Z</time>
      </trkpt>
      <trkpt lat="42.900994" lon="-2.538126">
        <ele>543.672</ele>
        <time>2022-03-20T13:19:58Z</time>
      </trkpt>
      <trkpt lat="42.900994" lon="-2.538126">
        <ele>543.661</ele>
        <time>2022-03-20T13:19:59Z</time>
      </trkpt>
      <trkpt lat="42.900994" lon="-2.538125">
        <ele>543.456</ele>
        <time>2022-03-20T13:20:00Z</time>
      </trkpt>
      <trkpt lat="42.900994" lon="-2.538125">
        <ele>543.477</ele>
        <time>2022-03-20T13:20:01Z</time>
      </trkpt>
      <trkpt lat="42.900994" lon="-2.538124">
        <ele>543.487</ele>
        <time>2022-03-20T13:20:02Z</time>
      </trkpt>
      <trkpt lat="42.900993" lon="-2.538124">
        <ele>543.442</ele>
        <time>2022-03-20T13:20:03Z</time>
      </trkpt>
      <trkpt lat="42.900991" lon="-2.538123">
        <ele>543.426</ele>
        <time>2022-03-20T13:20:04Z</time>
      </trkpt>
      <trkpt lat="42.90099" lon="-2.538122">
        <ele>543.408</ele>
        <time>2022-03-20T13:20:05Z</time>
      </trkpt>
      <trkpt lat="42.900988" lon="-2.538121">
        <ele>543.457</ele>
        <time>2022-03-20T13:20:06Z</time>
      </trkpt>
      <trkpt lat="42.900987" lon="-2.538119">
        <ele>543.435</ele>
        <time>2022-03-20T13:20:07Z</time>
      </trkpt>
      <trkpt lat="42.900985" lon="-2.538118">
        <ele>543.287</ele>
        <time>2022-03-20T13:20:08Z</time>
      </trkpt>
      <trkpt lat="42.900983" lon="-2.538118">
        <ele>543.092</ele>
        <time>2022-03-20T13:20:09Z</time>
      </trkpt>
      <trkpt lat="42.900982" lon="-2.538116">
        <ele>543.095</ele>
        <time>2022-03-20T13:20:10Z</time>
      </trkpt>
      <trkpt lat="42.900981" lon="-2.538111">
        <ele>543.094</ele>
        <time>2022-03-20T13:20:11Z</time>
      </trkpt>
      <trkpt lat="42.90098" lon="-2.538107">
        <ele>545.069</ele>
        <time>2022-03-20T13:20:12Z</time>
      </trkpt>
      <trkpt lat="42.90098" lon="-2.538105">
        <ele>545.080</ele>
        <time>2022-03-20T13:20:13Z</time>
      </trkpt>
      <trkpt lat="42.90098" lon="-2.538104">
        <ele>545.048</ele>
        <time>2022-03-20T13:20:14Z</time>
      </trkpt>
      <trkpt lat="42.900979" lon="-2.538104">
        <ele>545.061</ele>
        <time>2022-03-20T13:20:15Z</time>
      </trkpt>
      <trkpt lat="42.900979" lon="-2.538103">
        <ele>545.017</ele>
        <time>2022-03-20T13:20:16Z</time>
      </trkpt>
      <trkpt lat="42.900978" lon="-2.538103">
        <ele>545.008</ele>
        <time>2022-03-20T13:20:17Z</time>
      </trkpt>
      <trkpt lat="42.900978" lon="-2.538103">
        <ele>545.283</ele>
        <time>2022-03-20T13:20:18Z</time>
      </trkpt>
      <trkpt lat="42.900977" lon="-2.538103">
        <ele>545.271</ele>
        <time>2022-03-20T13:20:19Z</time>
      </trkpt>
      <trkpt lat="42.900977" lon="-2.538103">
        <ele>545.283</ele>
        <time>2022-03-20T13:20:20Z</time>
      </trkpt>
      <trkpt lat="42.900977" lon="-2.538103">
        <ele>545.248</ele>
        <time>2022-03-20T13:20:21Z</time>
      </trkpt>
      <trkpt lat="42.900976" lon="-2.538103">
        <ele>545.251</ele>
        <time>2022-03-20T13:20:22Z</time>
      </trkpt>
      <trkpt lat="42.900976" lon="-2.538103">
        <ele>545.090</ele>
        <time>2022-03-20T13:20:23Z</time>
      </trkpt>
      <trkpt lat="42.900976" lon="-2.538103">
        <ele>545.095</ele>
        <time>2022-03-20T13:20:24Z</time>
      </trkpt>
      <trkpt lat="42.900976" lon="-2.538103">
        <ele>545.086</ele>
        <time>2022-03-20T13:20:25Z</time>
      </trkpt>
      <trkpt lat="42.900975" lon="-2.538103">
        <ele>544.845</ele>
        <time>2022-03-20T13:20:26Z</time>
      </trkpt>
      <trkpt lat="42.900975" lon="-2.538103">
        <ele>544.847</ele>
        <time>2022-03-20T13:20:27Z</time>
      </trkpt>
      <trkpt lat="42.900975" lon="-2.538103">
        <ele>544.811</ele>
        <time>2022-03-20T13:20:28Z</time>
      </trkpt>
      <trkpt lat="42.900975" lon="-2.538104">
        <ele>544.808</ele>
        <time>2022-03-20T13:20:29Z</time>
      </trkpt>
      <trkpt lat="42.900974" lon="-2.538104">
        <ele>544.683</ele>
        <time>2022-03-20T13:20:30Z</time>
      </trkpt>
      <trkpt lat="42.900973" lon="-2.538111">
        <ele>544.661</ele>
        <time>2022-03-20T13:20:31Z</time>
      </trkpt>
      <trkpt lat="42.900973" lon="-2.538116">
        <ele>544.823</ele>
        <time>2022-03-20T13:20:32Z</time>
      </trkpt>
      <trkpt lat="42.900973" lon="-2.53812">
        <ele>544.868</ele>
        <time>2022-03-20T13:20:33Z</time>
      </trkpt>
      <trkpt lat="42.900972" lon="-2.538123">
        <ele>544.871</ele>
        <time>2022-03-20T13:20:34Z</time>
      </trkpt>
      <trkpt lat="42.900972" lon="-2.538124">
        <ele>544.820</ele>
        <time>2022-03-20T13:20:35Z</time>
      </trkpt>
      <trkpt lat="42.900972" lon="-2.538126">
        <ele>544.895</ele>
        <time>2022-03-20T13:20:36Z</time>
      </trkpt>
      <trkpt lat="42.900971" lon="-2.538126">
        <ele>544.616</ele>
        <time>2022-03-20T13:20:37Z</time>
      </trkpt>
      <trkpt lat="42.900968" lon="-2.538127">
        <ele>544.618</ele>
        <time>2022-03-20T13:20:38Z</time>
      </trkpt>
      <trkpt lat="42.900966" lon="-2.538127">
        <ele>544.698</ele>
        <time>2022-03-20T13:20:39Z</time>
      </trkpt>
      <trkpt lat="42.900965" lon="-2.538128">
        <ele>544.617</ele>
        <time>2022-03-20T13:20:40Z</time>
      </trkpt>
      <trkpt lat="42.900965" lon="-2.538128">
        <ele>544.408</ele>
        <time>2022-03-20T13:20:41Z</time>
      </trkpt>
      <trkpt lat="42.900964" lon="-2.538128">
        <ele>544.490</ele>
        <time>2022-03-20T13:20:42Z</time>
      </trkpt>
      <trkpt lat="42.900964" lon="-2.538129">
        <ele>544.458</ele>
        <time>2022-03-20T13:20:43Z</time>
      </trkpt>
      <trkpt lat="42.900964" lon="-2.538129">
        <ele>544.030</ele>
        <time>2022-03-20T13:20:44Z</time>
      </trkpt>
      <trkpt lat="42.900964" lon="-2.538129">
        <ele>544.035</ele>
        <time>2022-03-20T13:20:45Z</time>
      </trkpt>
      <trkpt lat="42.900964" lon="-2.53813">
        <ele>544.098</ele>
        <time>2022-03-20T13:20:46Z</time>
      </trkpt>
      <trkpt lat="42.900964" lon="-2.53813">
        <ele>544.297</ele>
        <time>2022-03-20T13:20:47Z</time>
      </trkpt>
      <trkpt lat="42.900964" lon="-2.53813">
        <ele>544.292</ele>
        <time>2022-03-20T13:20:48Z</time>
      </trkpt>
      <trkpt lat="42.900964" lon="-2.538131">
        <ele>544.263</ele>
        <time>2022-03-20T13:20:49Z</time>
      </trkpt>
      <trkpt lat="42.900964" lon="-2.538131">
        <ele>544.489</ele>
        <time>2022-03-20T13:20:50Z</time>
      </trkpt>
      <trkpt lat="42.900964" lon="-2.538132">
        <ele>544.406</ele>
        <time>2022-03-20T13:20:51Z</time>
      </trkpt>
      <trkpt lat="42.900964" lon="-2.538135">
        <ele>545.026</ele>
        <time>2022-03-20T13:20:52Z</time>
      </trkpt>
      <trkpt lat="42.900964" lon="-2.538137">
        <ele>545.208</ele>
        <time>2022-03-20T13:20:53Z</time>
      </trkpt>
      <trkpt lat="42.900964" lon="-2.538139">
        <ele>545.217</ele>
        <time>2022-03-20T13:20:54Z</time>
      </trkpt>
      <trkpt lat="42.900965" lon="-2.538141">
        <ele>545.245</ele>
        <time>2022-03-20T13:20:55Z</time>
      </trkpt>
      <trkpt lat="42.900966" lon="-2.538142">
        <ele>545.227</ele>
        <time>2022-03-20T13:20:56Z</time>
      </trkpt>
      <trkpt lat="42.900966" lon="-2.538143">
        <ele>544.892</ele>
        <time>2022-03-20T13:20:57Z</time>
      </trkpt>
      <trkpt lat="42.900967" lon="-2.538143">
        <ele>545.255</ele>
        <time>2022-03-20T13:20:58Z</time>
      </trkpt>
      <trkpt lat="42.900968" lon="-2.538144">
        <ele>544.894</ele>
        <time>2022-03-20T13:20:59Z</time>
      </trkpt>
      <trkpt lat="42.900968" lon="-2.538144">
        <ele>544.669</ele>
        <time>2022-03-20T13:21:00Z</time>
      </trkpt>
      <trkpt lat="42.900969" lon="-2.538144">
        <ele>544.620</ele>
        <time>2022-03-20T13:21:01Z</time>
      </trkpt>
      <trkpt lat="42.90097" lon="-2.538144">
        <ele>544.664</ele>
        <time>2022-03-20T13:21:02Z</time>
      </trkpt>
      <trkpt lat="42.90097" lon="-2.538145">
        <ele>544.606</ele>
        <time>2022-03-20T13:21:03Z</time>
      </trkpt>
      <trkpt lat="42.900971" lon="-2.538145">
        <ele>544.816</ele>
        <time>2022-03-20T13:21:04Z</time>
      </trkpt>
      <trkpt lat="42.900971" lon="-2.538146">
        <ele>544.808</ele>
        <time>2022-03-20T13:21:05Z</time>
      </trkpt>
      <trkpt lat="42.900971" lon="-2.538146">
        <ele>544.895</ele>
        <time>2022-03-20T13:21:06Z</time>
      </trkpt>
      <trkpt lat="42.900971" lon="-2.538147">
        <ele>544.863</ele>
        <time>2022-03-20T13:21:07Z</time>
      </trkpt>
      <trkpt lat="42.900971" lon="-2.538147">
        <ele>545.625</ele>
        <time>2022-03-20T13:21:08Z</time>
      </trkpt>
      <trkpt lat="42.900971" lon="-2.538147">
        <ele>545.610</ele>
        <time>2022-03-20T13:21:09Z</time>
      </trkpt>
      <trkpt lat="42.900972" lon="-2.538147">
        <ele>545.663</ele>
        <time>2022-03-20T13:21:10Z</time>
      </trkpt>
      <trkpt lat="42.900972" lon="-2.538148">
        <ele>545.682</ele>
        <time>2022-03-20T13:21:11Z</time>
      </trkpt>
      <trkpt lat="42.900972" lon="-2.538148">
        <ele>546.027</ele>
        <time>2022-03-20T13:21:12Z</time>
      </trkpt>
      <trkpt lat="42.900972" lon="-2.538148">
        <ele>545.698</ele>
        <time>2022-03-20T13:21:13Z</time>
      </trkpt>
      <trkpt lat="42.900971" lon="-2.538148">
        <ele>546.091</ele>
        <time>2022-03-20T13:21:14Z</time>
      </trkpt>
      <trkpt lat="42.900971" lon="-2.538148">
        <ele>546.081</ele>
        <time>2022-03-20T13:21:15Z</time>
      </trkpt>
      <trkpt lat="42.900971" lon="-2.538148">
        <ele>546.019</ele>
        <time>2022-03-20T13:21:16Z</time>
      </trkpt>
      <trkpt lat="42.90097" lon="-2.538148">
        <ele>546.008</ele>
        <time>2022-03-20T13:21:17Z</time>
      </trkpt>
      <trkpt lat="42.90097" lon="-2.538149">
        <ele>545.818</ele>
        <time>2022-03-20T13:21:18Z</time>
      </trkpt>
      <trkpt lat="42.90097" lon="-2.538149">
        <ele>545.896</ele>
        <time>2022-03-20T13:21:19Z</time>
      </trkpt>
      <trkpt lat="42.90097" lon="-2.538149">
        <ele>545.838</ele>
        <time>2022-03-20T13:21:20Z</time>
      </trkpt>
      <trkpt lat="42.90097" lon="-2.538149">
        <ele>545.653</ele>
        <time>2022-03-20T13:21:21Z</time>
      </trkpt>
      <trkpt lat="42.900969" lon="-2.538149">
        <ele>545.636</ele>
        <time>2022-03-20T13:21:22Z</time>
      </trkpt>
      <trkpt lat="42.900969" lon="-2.538149">
        <ele>545.885</ele>
        <time>2022-03-20T13:21:23Z</time>
      </trkpt>
      <trkpt lat="42.900969" lon="-2.538149">
        <ele>545.860</ele>
        <time>2022-03-20T13:21:24Z</time>
      </trkpt>
      <trkpt lat="42.900969" lon="-2.53815">
        <ele>546.061</ele>
        <time>2022-03-20T13:21:25Z</time>
      </trkpt>
      <trkpt lat="42.900969" lon="-2.53815">
        <ele>546.298</ele>
        <time>2022-03-20T13:21:26Z</time>
      </trkpt>
      <trkpt lat="42.900969" lon="-2.53815">
        <ele>546.215</ele>
        <time>2022-03-20T13:21:27Z</time>
      </trkpt>
      <trkpt lat="42.900969" lon="-2.53815">
        <ele>546.226</ele>
        <time>2022-03-20T13:21:28Z</time>
      </trkpt>
      <trkpt lat="42.900969" lon="-2.53815">
        <ele>546.208</ele>
        <time>2022-03-20T13:21:29Z</time>
      </trkpt>
      <trkpt lat="42.900969" lon="-2.53815">
        <ele>546.288</ele>
        <time>2022-03-20T13:21:30Z</time>
      </trkpt>
      <trkpt lat="42.900969" lon="-2.538149">
        <ele>546.276</ele>
        <time>2022-03-20T13:21:31Z</time>
      </trkpt>
      <trkpt lat="42.90097" lon="-2.538149">
        <ele>546.058</ele>
        <time>2022-03-20T13:21:32Z</time>
      </trkpt>
      <trkpt lat="42.90097" lon="-2.538149">
        <ele>546.013</ele>
        <time>2022-03-20T13:21:33Z</time>
      </trkpt>
      <trkpt lat="42.900971" lon="-2.538149">
        <ele>545.876</ele>
        <time>2022-03-20T13:21:34Z</time>
      </trkpt>
      <trkpt lat="42.900972" lon="-2.538149">
        <ele>545.835</ele>
        <time>2022-03-20T13:21:35Z</time>
      </trkpt>
      <trkpt lat="42.900973" lon="-2.538149">
        <ele>545.810</ele>
        <time>2022-03-20T13:21:36Z</time>
      </trkpt>
      <trkpt lat="42.900974" lon="-2.538148">
        <ele>545.851</ele>
        <time>2022-03-20T13:21:37Z</time>
      </trkpt>
      <trkpt lat="42.900975" lon="-2.538147">
        <ele>545.891</ele>
        <time>2022-03-20T13:21:38Z</time>
      </trkpt>
      <trkpt lat="42.900977" lon="-2.538147">
        <ele>545.881</ele>
        <time>2022-03-20T13:21:39Z</time>
      </trkpt>
      <trkpt lat="42.900978" lon="-2.538146">
        <ele>545.819</ele>
        <time>2022-03-20T13:21:40Z</time>
      </trkpt>
      <trkpt lat="42.900978" lon="-2.538146">
        <ele>546.008</ele>
        <time>2022-03-20T13:21:41Z</time>
      </trkpt>
      <trkpt lat="42.900974" lon="-2.538148">
        <ele>546.028</ele>
        <time>2022-03-20T13:21:42Z</time>
      </trkpt>
      <trkpt lat="42.900971" lon="-2.538145">
        <ele>546.016</ele>
        <time>2022-03-20T13:21:43Z</time>
      </trkpt>
      <trkpt lat="42.900968" lon="-2.538139">
        <ele>546.278</ele>
        <time>2022-03-20T13:21:44Z</time>
      </trkpt>
      <trkpt lat="42.900965" lon="-2.538136">
        <ele>546.283</ele>
        <time>2022-03-20T13:21:45Z</time>
      </trkpt>
      <trkpt lat="42.900958" lon="-2.538128">
        <ele>546.276</ele>
        <time>2022-03-20T13:21:46Z</time>
      </trkpt>
      <trkpt lat="42.900951" lon="-2.538117">
        <ele>544.645</ele>
        <time>2022-03-20T13:21:47Z</time>
      </trkpt>
      <trkpt lat="42.900954" lon="-2.538117">
        <ele>544.690</ele>
        <time>2022-03-20T13:21:48Z</time>
      </trkpt>
      <trkpt lat="42.900955" lon="-2.538117">
        <ele>544.671</ele>
        <time>2022-03-20T13:21:49Z</time>
      </trkpt>
      <trkpt lat="42.900955" lon="-2.538117">
        <ele>544.624</ele>
        <time>2022-03-20T13:21:50Z</time>
      </trkpt>
      <trkpt lat="42.900955" lon="-2.538117">
        <ele>544.604</ele>
        <time>2022-03-20T13:21:51Z</time>
      </trkpt>
      <trkpt lat="42.900955" lon="-2.538117">
        <ele>545.014</ele>
        <time>2022-03-20T13:21:52Z</time>
      </trkpt>
      <trkpt lat="42.900955" lon="-2.538117">
        <ele>545.008</ele>
        <time>2022-03-20T13:21:53Z</time>
      </trkpt>
      <trkpt lat="42.900955" lon="-2.538117">
        <ele>545.281</ele>
        <time>2022-03-20T13:21:54Z</time>
      </trkpt>
      <trkpt lat="42.900955" lon="-2.538117">
        <ele>545.249</ele>
        <time>2022-03-20T13:21:55Z</time>
      </trkpt>
      <trkpt lat="42.900955" lon="-2.538117">
        <ele>545.221</ele>
        <time>2022-03-20T13:21:56Z</time>
      </trkpt>
      <trkpt lat="42.900955" lon="-2.538117">
        <ele>545.256</ele>
        <time>2022-03-20T13:21:57Z</time>
      </trkpt>
      <trkpt lat="42.900955" lon="-2.538117">
        <ele>545.229</ele>
        <time>2022-03-20T13:21:58Z</time>
      </trkpt>
      <trkpt lat="42.900958" lon="-2.538118">
        <ele>545.218</ele>
        <time>2022-03-20T13:21:59Z</time>
      </trkpt>
      <trkpt lat="42.900959" lon="-2.538121">
        <ele>545.033</ele>
        <time>2022-03-20T13:22:00Z</time>
      </trkpt>
      <trkpt lat="42.900962" lon="-2.538121">
        <ele>544.444</ele>
        <time>2022-03-20T13:22:01Z</time>
      </trkpt>
      <trkpt lat="42.900964" lon="-2.538121">
        <ele>544.265</ele>
        <time>2022-03-20T13:22:02Z</time>
      </trkpt>
      <trkpt lat="42.900964" lon="-2.538121">
        <ele>543.668</ele>
        <time>2022-03-20T13:22:03Z</time>
      </trkpt>
      <trkpt lat="42.900964" lon="-2.538121">
        <ele>543.614</ele>
        <time>2022-03-20T13:22:04Z</time>
      </trkpt>
      <trkpt lat="42.900964" lon="-2.538121">
        <ele>543.608</ele>
        <time>2022-03-20T13:22:05Z</time>
      </trkpt>
      <trkpt lat="42.900964" lon="-2.538121">
        <ele>543.645</ele>
        <time>2022-03-20T13:22:06Z</time>
      </trkpt>
      <trkpt lat="42.900964" lon="-2.538121">
        <ele>543.883</ele>
        <time>2022-03-20T13:22:07Z</time>
      </trkpt>
      <trkpt lat="42.900964" lon="-2.538121">
        <ele>544.475</ele>
        <time>2022-03-20T13:22:08Z</time>
      </trkpt>
      <trkpt lat="42.900964" lon="-2.538121">
        <ele>544.410</ele>
        <time>2022-03-20T13:22:09Z</time>
      </trkpt>
      <trkpt lat="42.900964" lon="-2.538121">
        <ele>544.443</ele>
        <time>2022-03-20T13:22:10Z</time>
      </trkpt>
      <trkpt lat="42.900964" lon="-2.53812">
        <ele>544.832</ele>
        <time>2022-03-20T13:22:11Z</time>
      </trkpt>
      <trkpt lat="42.900963" lon="-2.53812">
        <ele>544.817</ele>
        <time>2022-03-20T13:22:12Z</time>
      </trkpt>
      <trkpt lat="42.900963" lon="-2.53812">
        <ele>544.818</ele>
        <time>2022-03-20T13:22:13Z</time>
      </trkpt>
      <trkpt lat="42.900962" lon="-2.53812">
        <ele>544.867</ele>
        <time>2022-03-20T13:22:14Z</time>
      </trkpt>
      <trkpt lat="42.900962" lon="-2.53812">
        <ele>544.881</ele>
        <time>2022-03-20T13:22:15Z</time>
      </trkpt>
      <trkpt lat="42.900962" lon="-2.53812">
        <ele>544.819</ele>
        <time>2022-03-20T13:22:16Z</time>
      </trkpt>
      <trkpt lat="42.900962" lon="-2.538121">
        <ele>545.008</ele>
        <time>2022-03-20T13:22:17Z</time>
      </trkpt>
      <trkpt lat="42.900962" lon="-2.538121">
        <ele>545.095</ele>
        <time>2022-03-20T13:22:18Z</time>
      </trkpt>
      <trkpt lat="42.900962" lon="-2.538124">
        <ele>545.013</ele>
        <time>2022-03-20T13:22:19Z</time>
      </trkpt>
      <trkpt lat="42.900962" lon="-2.538124">
        <ele>545.085</ele>
        <time>2022-03-20T13:22:20Z</time>
      </trkpt>
      <trkpt lat="42.900961" lon="-2.538125">
        <ele>545.050</ele>
        <time>2022-03-20T13:22:21Z</time>
      </trkpt>
      <trkpt lat="42.900961" lon="-2.538125">
        <ele>544.843</ele>
        <time>2022-03-20T13:22:22Z</time>
      </trkpt>
      <trkpt lat="42.900961" lon="-2.538125">
        <ele>544.682</ele>
        <time>2022-03-20T13:22:23Z</time>
      </trkpt>
      <trkpt lat="42.900961" lon="-2.538125">
        <ele>544.687</ele>
        <time>2022-03-20T13:22:24Z</time>
      </trkpt>
      <trkpt lat="42.90096" lon="-2.538125">
        <ele>544.618</ele>
        <time>2022-03-20T13:22:25Z</time>
      </trkpt>
      <trkpt lat="42.90096" lon="-2.538127">
        <ele>544.617</ele>
        <time>2022-03-20T13:22:26Z</time>
      </trkpt>
      <trkpt lat="42.90096" lon="-2.53813">
        <ele>544.687</ele>
        <time>2022-03-20T13:22:27Z</time>
      </trkpt>
      <trkpt lat="42.90096" lon="-2.538132">
        <ele>544.615</ele>
        <time>2022-03-20T13:22:28Z</time>
      </trkpt>
      <trkpt lat="42.90096" lon="-2.538133">
        <ele>544.608</ele>
        <time>2022-03-20T13:22:29Z</time>
      </trkpt>
      <trkpt lat="42.90096" lon="-2.538133">
        <ele>544.690</ele>
        <time>2022-03-20T13:22:30Z</time>
      </trkpt>
      <trkpt lat="42.90096" lon="-2.538134">
        <ele>544.868</ele>
        <time>2022-03-20T13:22:31Z</time>
      </trkpt>
      <trkpt lat="42.90096" lon="-2.538134">
        <ele>544.810</ele>
        <time>2022-03-20T13:22:32Z</time>
      </trkpt>
      <trkpt lat="42.90096" lon="-2.538134">
        <ele>544.895</ele>
        <time>2022-03-20T13:22:33Z</time>
      </trkpt>
      <trkpt lat="42.90096" lon="-2.538134">
        <ele>544.838</ele>
        <time>2022-03-20T13:22:34Z</time>
      </trkpt>
      <trkpt lat="42.90096" lon="-2.538134">
        <ele>544.847</ele>
        <time>2022-03-20T13:22:35Z</time>
      </trkpt>
      <trkpt lat="42.90096" lon="-2.538134">
        <ele>544.842</ele>
        <time>2022-03-20T13:22:36Z</time>
      </trkpt>
      <trkpt lat="42.90096" lon="-2.538134">
        <ele>544.893</ele>
        <time>2022-03-20T13:22:37Z</time>
      </trkpt>
      <trkpt lat="42.90096" lon="-2.538134">
        <ele>544.685</ele>
        <time>2022-03-20T13:22:38Z</time>
      </trkpt>
      <trkpt lat="42.90096" lon="-2.538134">
        <ele>544.689</ele>
        <time>2022-03-20T13:22:39Z</time>
      </trkpt>
      <trkpt lat="42.900961" lon="-2.538134">
        <ele>544.617</ele>
        <time>2022-03-20T13:22:40Z</time>
      </trkpt>
      <trkpt lat="42.900964" lon="-2.538134">
        <ele>544.608</ele>
        <time>2022-03-20T13:22:41Z</time>
      </trkpt>
      <trkpt lat="42.900967" lon="-2.538134">
        <ele>544.687</ele>
        <time>2022-03-20T13:22:42Z</time>
      </trkpt>
      <trkpt lat="42.900968" lon="-2.538134">
        <ele>544.665</ele>
        <time>2022-03-20T13:22:43Z</time>
      </trkpt>
      <trkpt lat="42.900969" lon="-2.538134">
        <ele>544.637</ele>
        <time>2022-03-20T13:22:44Z</time>
      </trkpt>
      <trkpt lat="42.900975" lon="-2.538133">
        <ele>544.622</ele>
        <time>2022-03-20T13:22:45Z</time>
      </trkpt>
      <trkpt lat="42.900976" lon="-2.538133">
        <ele>544.665</ele>
        <time>2022-03-20T13:22:46Z</time>
      </trkpt>
      <trkpt lat="42.900977" lon="-2.538132">
        <ele>544.614</ele>
        <time>2022-03-20T13:22:47Z</time>
      </trkpt>
      <trkpt lat="42.900977" lon="-2.53813">
        <ele>544.679</ele>
        <time>2022-03-20T13:22:48Z</time>
      </trkpt>
      <trkpt lat="42.900977" lon="-2.53813">
        <ele>544.680</ele>
        <time>2022-03-20T13:22:49Z</time>
      </trkpt>
      <trkpt lat="42.900977" lon="-2.538128">
        <ele>545.046</ele>
        <time>2022-03-20T13:22:50Z</time>
      </trkpt>
      <trkpt lat="42.900977" lon="-2.538127">
        <ele>545.088</ele>
        <time>2022-03-20T13:22:51Z</time>
      </trkpt>
      <trkpt lat="42.900977" lon="-2.538127">
        <ele>545.016</ele>
        <time>2022-03-20T13:22:52Z</time>
      </trkpt>
      <trkpt lat="42.900977" lon="-2.538127">
        <ele>545.008</ele>
        <time>2022-03-20T13:22:53Z</time>
      </trkpt>
      <trkpt lat="42.900977" lon="-2.538127">
        <ele>544.833</ele>
        <time>2022-03-20T13:22:54Z</time>
      </trkpt>
      <trkpt lat="42.900977" lon="-2.538126">
        <ele>544.851</ele>
        <time>2022-03-20T13:22:55Z</time>
      </trkpt>
      <trkpt lat="42.900977" lon="-2.538126">
        <ele>544.893</ele>
        <time>2022-03-20T13:22:56Z</time>
      </trkpt>
      <trkpt lat="42.900977" lon="-2.538126">
        <ele>544.628</ele>
        <time>2022-03-20T13:22:57Z</time>
      </trkpt>
      <trkpt lat="42.900977" lon="-2.538126">
        <ele>544.661</ele>
        <time>2022-03-20T13:22:58Z</time>
      </trkpt>
      <trkpt lat="42.900977" lon="-2.538126">
        <ele>544.450</ele>
        <time>2022-03-20T13:22:59Z</time>
      </trkpt>
      <trkpt lat="42.900976" lon="-2.538126">
        <ele>544.475</ele>
        <time>2022-03-20T13:23:00Z</time>
      </trkpt>
      <trkpt lat="42.900975" lon="-2.538126">
        <ele>544.466</ele>
        <time>2022-03-20T13:23:01Z</time>
      </trkpt>
      <trkpt lat="42.900974" lon="-2.538126">
        <ele>544.437</ele>
        <time>2022-03-20T13:23:02Z</time>
      </trkpt>
      <trkpt lat="42.900973" lon="-2.538126">
        <ele>544.449</ele>
        <time>2022-03-20T13:23:03Z</time>
      </trkpt>
      <trkpt lat="42.900972" lon="-2.538126">
        <ele>544.413</ele>
        <time>2022-03-20T13:23:04Z</time>
      </trkpt>
      <trkpt lat="42.900972" lon="-2.538126">
        <ele>544.408</ele>
        <time>2022-03-20T13:23:05Z</time>
      </trkpt>
      <trkpt lat="42.900972" lon="-2.538126">
        <ele>544.092</ele>
        <time>2022-03-20T13:23:06Z</time>
      </trkpt>
      <trkpt lat="42.900971" lon="-2.538127">
        <ele>544.080</ele>
        <time>2022-03-20T13:23:07Z</time>
      </trkpt>
      <trkpt lat="42.900971" lon="-2.538127">
        <ele>544.032</ele>
        <time>2022-03-20T13:23:08Z</time>
      </trkpt>
      <trkpt lat="42.900971" lon="-2.538127">
        <ele>544.027</ele>
        <time>2022-03-20T13:23:09Z</time>
      </trkpt>
      <trkpt lat="42.90097" lon="-2.538127">
        <ele>544.640</ele>
        <time>2022-03-20T13:23:10Z</time>
      </trkpt>
      <trkpt lat="42.90097" lon="-2.538127">
        <ele>544.649</ele>
        <time>2022-03-20T13:23:11Z</time>
      </trkpt>
      <trkpt lat="42.90097" lon="-2.538127">
        <ele>544.674</ele>
        <time>2022-03-20T13:23:12Z</time>
      </trkpt>
      <trkpt lat="42.90097" lon="-2.538127">
        <ele>544.635</ele>
        <time>2022-03-20T13:23:13Z</time>
      </trkpt>
      <trkpt lat="42.90097" lon="-2.538127">
        <ele>544.674</ele>
        <time>2022-03-20T13:23:14Z</time>
      </trkpt>
      <trkpt lat="42.90097" lon="-2.538128">
        <ele>544.456</ele>
        <time>2022-03-20T13:23:15Z</time>
      </trkpt>
      <trkpt lat="42.90097" lon="-2.538128">
        <ele>544.221</ele>
        <time>2022-03-20T13:23:16Z</time>
      </trkpt>
      <trkpt lat="42.90097" lon="-2.538128">
        <ele>544.208</ele>
        <time>2022-03-20T13:23:17Z</time>
      </trkpt>
      <trkpt lat="42.900971" lon="-2.538129">
        <ele>544.236</ele>
        <time>2022-03-20T13:23:18Z</time>
      </trkpt>
      <trkpt lat="42.900971" lon="-2.538129">
        <ele>544.244</ele>
        <time>2022-03-20T13:23:19Z</time>
      </trkpt>
      <trkpt lat="42.900971" lon="-2.538129">
        <ele>544.276</ele>
        <time>2022-03-20T13:23:20Z</time>
      </trkpt>
      <trkpt lat="42.900972" lon="-2.538128">
        <ele>544.221</ele>
        <time>2022-03-20T13:23:21Z</time>
      </trkpt>
      <trkpt lat="42.900972" lon="-2.538128">
        <ele>544.044</ele>
        <time>2022-03-20T13:23:22Z</time>
      </trkpt>
      <trkpt lat="42.900972" lon="-2.538128">
        <ele>544.073</ele>
        <time>2022-03-20T13:23:23Z</time>
      </trkpt>
      <trkpt lat="42.900972" lon="-2.538128">
        <ele>544.278</ele>
        <time>2022-03-20T13:23:24Z</time>
      </trkpt>
      <trkpt lat="42.900972" lon="-2.538128">
        <ele>544.259</ele>
        <time>2022-03-20T13:23:25Z</time>
      </trkpt>
      <trkpt lat="42.900973" lon="-2.538128">
        <ele>544.281</ele>
        <time>2022-03-20T13:23:26Z</time>
      </trkpt>
      <trkpt lat="42.900974" lon="-2.538128">
        <ele>544.261</ele>
        <time>2022-03-20T13:23:27Z</time>
      </trkpt>
      <trkpt lat="42.900975" lon="-2.538128">
        <ele>544.217</ele>
        <time>2022-03-20T13:23:28Z</time>
      </trkpt>
      <trkpt lat="42.900975" lon="-2.538128">
        <ele>544.408</ele>
        <time>2022-03-20T13:23:29Z</time>
      </trkpt>
      <trkpt lat="42.900975" lon="-2.538128">
        <ele>544.447</ele>
        <time>2022-03-20T13:23:30Z</time>
      </trkpt>
      <trkpt lat="42.900975" lon="-2.538128">
        <ele>544.675</ele>
        <time>2022-03-20T13:23:31Z</time>
      </trkpt>
      <trkpt lat="42.900975" lon="-2.538128">
        <ele>544.697</ele>
        <time>2022-03-20T13:23:32Z</time>
      </trkpt>
      <trkpt lat="42.900975" lon="-2.538128">
        <ele>544.422</ele>
        <time>2022-03-20T13:23:33Z</time>
      </trkpt>
      <trkpt lat="42.900975" lon="-2.538128">
        <ele>544.415</ele>
        <time>2022-03-20T13:23:34Z</time>
      </trkpt>
      <trkpt lat="42.900975" lon="-2.538128">
        <ele>544.414</ele>
        <time>2022-03-20T13:23:35Z</time>
      </trkpt>
      <trkpt lat="42.900975" lon="-2.538128">
        <ele>544.669</ele>
        <time>2022-03-20T13:23:36Z</time>
      </trkpt>
      <trkpt lat="42.900975" lon="-2.538129">
        <ele>544.610</ele>
        <time>2022-03-20T13:23:37Z</time>
      </trkpt>
      <trkpt lat="42.900975" lon="-2.538129">
        <ele>544.679</ele>
        <time>2022-03-20T13:23:38Z</time>
      </trkpt>
      <trkpt lat="42.900975" lon="-2.53813">
        <ele>544.605</ele>
        <time>2022-03-20T13:23:39Z</time>
      </trkpt>
      <trkpt lat="42.900975" lon="-2.53813">
        <ele>544.625</ele>
        <time>2022-03-20T13:23:40Z</time>
      </trkpt>
      <trkpt lat="42.900975" lon="-2.53813">
        <ele>544.608</ele>
        <time>2022-03-20T13:23:41Z</time>
      </trkpt>
      <trkpt lat="42.900975" lon="-2.538131">
        <ele>544.626</ele>
        <time>2022-03-20T13:23:42Z</time>
      </trkpt>
      <trkpt lat="42.900975" lon="-2.538131">
        <ele>544.684</ele>
        <time>2022-03-20T13:23:43Z</time>
      </trkpt>
      <trkpt lat="42.900974" lon="-2.538131">
        <ele>544.646</ele>
        <time>2022-03-20T13:23:44Z</time>
      </trkpt>
      <trkpt lat="42.900974" lon="-2.538135">
        <ele>544.631</ele>
        <time>2022-03-20T13:23:45Z</time>
      </trkpt>
      <trkpt lat="42.900973" lon="-2.538137">
        <ele>544.684</ele>
        <time>2022-03-20T13:23:46Z</time>
      </trkpt>
      <trkpt lat="42.900973" lon="-2.538138">
        <ele>544.663</ele>
        <time>2022-03-20T13:23:47Z</time>
      </trkpt>
      <trkpt lat="42.900971" lon="-2.538139">
        <ele>544.638</ele>
        <time>2022-03-20T13:23:48Z</time>
      </trkpt>
      <trkpt lat="42.900968" lon="-2.53814">
        <ele>544.639</ele>
        <time>2022-03-20T13:23:49Z</time>
      </trkpt>
      <trkpt lat="42.900966" lon="-2.538141">
        <ele>544.489</ele>
        <time>2022-03-20T13:23:50Z</time>
      </trkpt>
      <trkpt lat="42.900965" lon="-2.538141">
        <ele>544.606</ele>
        <time>2022-03-20T13:23:51Z</time>
      </trkpt>
      <trkpt lat="42.900963" lon="-2.538141">
        <ele>544.626</ele>
        <time>2022-03-20T13:23:52Z</time>
      </trkpt>
      <trkpt lat="42.900963" lon="-2.538141">
        <ele>544.608</ele>
        <time>2022-03-20T13:23:53Z</time>
      </trkpt>
      <trkpt lat="42.900962" lon="-2.538141">
        <ele>544.657</ele>
        <time>2022-03-20T13:23:54Z</time>
      </trkpt>
      <trkpt lat="42.900962" lon="-2.538141">
        <ele>544.675</ele>
        <time>2022-03-20T13:23:55Z</time>
      </trkpt>
      <trkpt lat="42.900962" lon="-2.538141">
        <ele>544.617</ele>
        <time>2022-03-20T13:23:56Z</time>
      </trkpt>
      <trkpt lat="42.900962" lon="-2.538141">
        <ele>544.662</ele>
        <time>2022-03-20T13:23:57Z</time>
      </trkpt>
      <trkpt lat="42.900962" lon="-2.538141">
        <ele>544.615</ele>
        <time>2022-03-20T13:23:58Z</time>
      </trkpt>
      <trkpt lat="42.900962" lon="-2.538142">
        <ele>544.684</ele>
        <time>2022-03-20T13:23:59Z</time>
      </trkpt>
      <trkpt lat="42.900962" lon="-2.538142">
        <ele>544.619</ele>
        <time>2022-03-20T13:24:00Z</time>
      </trkpt>
      <trkpt lat="42.900962" lon="-2.538142">
        <ele>544.660</ele>
        <time>2022-03-20T13:24:01Z</time>
      </trkpt>
      <trkpt lat="42.900962" lon="-2.538142">
        <ele>544.618</ele>
        <time>2022-03-20T13:24:02Z</time>
      </trkpt>
      <trkpt lat="42.900962" lon="-2.538142">
        <ele>544.498</ele>
        <time>2022-03-20T13:24:03Z</time>
      </trkpt>
      <trkpt lat="42.900962" lon="-2.538142">
        <ele>544.417</ele>
        <time>2022-03-20T13:24:04Z</time>
      </trkpt>
      <trkpt lat="42.900962" lon="-2.538142">
        <ele>544.208</ele>
        <time>2022-03-20T13:24:05Z</time>
      </trkpt>
      <trkpt lat="42.900962" lon="-2.538141">
        <ele>544.030</ele>
        <time>2022-03-20T13:24:06Z</time>
      </trkpt>
      <trkpt lat="42.900962" lon="-2.53814">
        <ele>544.068</ele>
        <time>2022-03-20T13:24:07Z</time>
      </trkpt>
      <trkpt lat="42.900963" lon="-2.53814">
        <ele>544.070</ele>
        <time>2022-03-20T13:24:08Z</time>
      </trkpt>
      <trkpt lat="42.900964" lon="-2.53814">
        <ele>544.045</ele>
        <time>2022-03-20T13:24:09Z</time>
      </trkpt>
      <trkpt lat="42.900965" lon="-2.53814">
        <ele>544.028</ele>
        <time>2022-03-20T13:24:10Z</time>
      </trkpt>
      <trkpt lat="42.900967" lon="-2.538141">
        <ele>544.097</ele>
        <time>2022-03-20T13:24:11Z</time>
      </trkpt>
      <trkpt lat="42.900969" lon="-2.538141">
        <ele>544.092</ele>
        <time>2022-03-20T13:24:12Z</time>
      </trkpt>
      <trkpt lat="42.900971" lon="-2.538141">
        <ele>544.483</ele>
        <time>2022-03-20T13:24:13Z</time>
      </trkpt>
      <trkpt lat="42.900974" lon="-2.538141">
        <ele>544.415</ele>
        <time>2022-03-20T13:24:14Z</time>
      </trkpt>
      <trkpt lat="42.900975" lon="-2.538141">
        <ele>544.465</ele>
        <time>2022-03-20T13:24:15Z</time>
      </trkpt>
      <trkpt lat="42.900977" lon="-2.538141">
        <ele>544.411</ele>
        <time>2022-03-20T13:24:16Z</time>
      </trkpt>
      <trkpt lat="42.900978" lon="-2.538142">
        <ele>544.408</ele>
        <time>2022-03-20T13:24:17Z</time>
      </trkpt>
      <trkpt lat="42.900979" lon="-2.538142">
        <ele>544.220</ele>
        <time>2022-03-20T13:24:18Z</time>
      </trkpt>
      <trkpt lat="42.90098" lon="-2.538141">
        <ele>544.228</ele>
        <time>2022-03-20T13:24:19Z</time>
      </trkpt>
      <trkpt lat="42.900981" lon="-2.538141">
        <ele>544.220</ele>
        <time>2022-03-20T13:24:20Z</time>
      </trkpt>
      <trkpt lat="42.900982" lon="-2.538141">
        <ele>544.285</ele>
        <time>2022-03-20T13:24:21Z</time>
      </trkpt>
      <trkpt lat="42.900983" lon="-2.53814">
        <ele>544.228</ele>
        <time>2022-03-20T13:24:22Z</time>
      </trkpt>
      <trkpt lat="42.900985" lon="-2.53814">
        <ele>544.247</ele>
        <time>2022-03-20T13:24:23Z</time>
      </trkpt>
      <trkpt lat="42.900987" lon="-2.53814">
        <ele>544.422</ele>
        <time>2022-03-20T13:24:24Z</time>
      </trkpt>
      <trkpt lat="42.900988" lon="-2.53814">
        <ele>544.853</ele>
        <time>2022-03-20T13:24:25Z</time>
      </trkpt>
      <trkpt lat="42.900989" lon="-2.53814">
        <ele>544.822</ele>
        <time>2022-03-20T13:24:26Z</time>
      </trkpt>
      <trkpt lat="42.900991" lon="-2.53814">
        <ele>544.862</ele>
        <time>2022-03-20T13:24:27Z</time>
      </trkpt>
      <trkpt lat="42.900992" lon="-2.53814">
        <ele>544.808</ele>
        <time>2022-03-20T13:24:28Z</time>
      </trkpt>
      <trkpt lat="42.900992" lon="-2.53814">
        <ele>544.808</ele>
        <time>2022-03-20T13:24:29Z</time>
      </trkpt>
      <trkpt lat="42.900993" lon="-2.53814">
        <ele>545.071</ele>
        <time>2022-03-20T13:24:30Z</time>
      </trkpt>
      <trkpt lat="42.900993" lon="-2.53814">
        <ele>545.029</ele>
        <time>2022-03-20T13:24:31Z</time>
      </trkpt>
      <trkpt lat="42.900994" lon="-2.53814">
        <ele>545.041</ele>
        <time>2022-03-20T13:24:32Z</time>
      </trkpt>
      <trkpt lat="42.900994" lon="-2.53814">
        <ele>545.626</ele>
        <time>2022-03-20T13:24:33Z</time>
      </trkpt>
      <trkpt lat="42.900994" lon="-2.53814">
        <ele>545.859</ele>
        <time>2022-03-20T13:24:34Z</time>
      </trkpt>
      <trkpt lat="42.900994" lon="-2.53814">
        <ele>545.868</ele>
        <time>2022-03-20T13:24:35Z</time>
      </trkpt>
      <trkpt lat="42.900995" lon="-2.538128">
        <ele>545.883</ele>
        <time>2022-03-20T13:24:36Z</time>
      </trkpt>
      <trkpt lat="42.900999" lon="-2.538101">
        <ele>545.844</ele>
        <time>2022-03-20T13:24:37Z</time>
      </trkpt>
      <trkpt lat="42.901" lon="-2.538079">
        <ele>545.864</ele>
        <time>2022-03-20T13:24:38Z</time>
      </trkpt>
      <trkpt lat="42.901001" lon="-2.538055">
        <ele>545.206</ele>
        <time>2022-03-20T13:24:39Z</time>
      </trkpt>
      <trkpt lat="42.901003" lon="-2.538031">
        <ele>545.216</ele>
        <time>2022-03-20T13:24:40Z</time>
      </trkpt>
      <trkpt lat="42.901006" lon="-2.538006">
        <ele>545.208</ele>
        <time>2022-03-20T13:24:41Z</time>
      </trkpt>
      <trkpt lat="42.901011" lon="-2.537982">
        <ele>545.235</ele>
        <time>2022-03-20T13:24:42Z</time>
      </trkpt>
      <trkpt lat="42.901015" lon="-2.53796">
        <ele>545.813</ele>
        <time>2022-03-20T13:24:43Z</time>
      </trkpt>
      <trkpt lat="42.901018" lon="-2.537936">
        <ele>545.865</ele>
        <time>2022-03-20T13:24:44Z</time>
      </trkpt>
      <trkpt lat="42.901019" lon="-2.537911">
        <ele>545.860</ele>
        <time>2022-03-20T13:24:45Z</time>
      </trkpt>
      <trkpt lat="42.901019" lon="-2.537898">
        <ele>546.263</ele>
        <time>2022-03-20T13:24:46Z</time>
      </trkpt>
      <trkpt lat="42.901019" lon="-2.537885">
        <ele>546.232</ele>
        <time>2022-03-20T13:24:47Z</time>
      </trkpt>
      <trkpt lat="42.901019" lon="-2.537872">
        <ele>546.257</ele>
        <time>2022-03-20T13:24:48Z</time>
      </trkpt>
      <trkpt lat="42.901018" lon="-2.537858">
        <ele>546.228</ele>
        <time>2022-03-20T13:24:49Z</time>
      </trkpt>
      <trkpt lat="42.901018" lon="-2.537844">
        <ele>546.264</ele>
        <time>2022-03-20T13:24:50Z</time>
      </trkpt>
      <trkpt lat="42.901024" lon="-2.537832">
        <ele>546.206</ele>
        <time>2022-03-20T13:24:51Z</time>
      </trkpt>
      <trkpt lat="42.901028" lon="-2.53782">
        <ele>546.216</ele>
        <time>2022-03-20T13:24:52Z</time>
      </trkpt>
      <trkpt lat="42.901033" lon="-2.537808">
        <ele>546.208</ele>
        <time>2022-03-20T13:24:53Z</time>
      </trkpt>
      <trkpt lat="42.901036" lon="-2.537794">
        <ele>546.045</ele>
        <time>2022-03-20T13:24:54Z</time>
      </trkpt>
      <trkpt lat="42.90104" lon="-2.537782">
        <ele>546.063</ele>
        <time>2022-03-20T13:24:55Z</time>
      </trkpt>
      <trkpt lat="42.901042" lon="-2.53777">
        <ele>546.265</ele>
        <time>2022-03-20T13:24:56Z</time>
      </trkpt>
      <trkpt lat="42.901044" lon="-2.537761">
        <ele>546.270</ele>
        <time>2022-03-20T13:24:57Z</time>
      </trkpt>
      <trkpt lat="42.90105" lon="-2.537752">
        <ele>546.453</ele>
        <time>2022-03-20T13:24:58Z</time>
      </trkpt>
      <trkpt lat="42.901058" lon="-2.537746">
        <ele>546.462</ele>
        <time>2022-03-20T13:24:59Z</time>
      </trkpt>
      <trkpt lat="42.901061" lon="-2.537744">
        <ele>546.627</ele>
        <time>2022-03-20T13:25:00Z</time>
      </trkpt>
      <trkpt lat="42.901063" lon="-2.537742">
        <ele>546.818</ele>
        <time>2022-03-20T13:25:01Z</time>
      </trkpt>
      <trkpt lat="42.901062" lon="-2.537737">
        <ele>546.656</ele>
        <time>2022-03-20T13:25:02Z</time>
      </trkpt>
      <trkpt lat="42.901061" lon="-2.537737">
        <ele>546.659</ele>
        <time>2022-03-20T13:25:03Z</time>
      </trkpt>
      <trkpt lat="42.90106" lon="-2.537737">
        <ele>546.614</ele>
        <time>2022-03-20T13:25:04Z</time>
      </trkpt>
      <trkpt lat="42.90106" lon="-2.537737">
        <ele>547.008</ele>
        <time>2022-03-20T13:25:05Z</time>
      </trkpt>
      <trkpt lat="42.901063" lon="-2.537733">
        <ele>546.884</ele>
        <time>2022-03-20T13:25:06Z</time>
      </trkpt>
      <trkpt lat="42.901063" lon="-2.537727">
        <ele>546.832</ele>
        <time>2022-03-20T13:25:07Z</time>
      </trkpt>
      <trkpt lat="42.901066" lon="-2.537719">
        <ele>546.894</ele>
        <time>2022-03-20T13:25:08Z</time>
      </trkpt>
      <trkpt lat="42.901064" lon="-2.537711">
        <ele>546.859</ele>
        <time>2022-03-20T13:25:09Z</time>
      </trkpt>
      <trkpt lat="42.901064" lon="-2.537706">
        <ele>546.882</ele>
        <time>2022-03-20T13:25:10Z</time>
      </trkpt>
      <trkpt lat="42.901068" lon="-2.537706">
        <ele>546.831</ele>
        <time>2022-03-20T13:25:11Z</time>
      </trkpt>
      <trkpt lat="42.901068" lon="-2.537706">
        <ele>546.826</ele>
        <time>2022-03-20T13:25:12Z</time>
      </trkpt>
      <trkpt lat="42.901068" lon="-2.537706">
        <ele>546.847</ele>
        <time>2022-03-20T13:25:13Z</time>
      </trkpt>
      <trkpt lat="42.901068" lon="-2.537706">
        <ele>546.886</ele>
        <time>2022-03-20T13:25:14Z</time>
      </trkpt>
      <trkpt lat="42.901068" lon="-2.537706">
        <ele>546.860</ele>
        <time>2022-03-20T13:25:15Z</time>
      </trkpt>
      <trkpt lat="42.901068" lon="-2.537706">
        <ele>546.826</ele>
        <time>2022-03-20T13:25:16Z</time>
      </trkpt>
      <trkpt lat="42.901068" lon="-2.537706">
        <ele>546.808</ele>
        <time>2022-03-20T13:25:17Z</time>
      </trkpt>
      <trkpt lat="42.901068" lon="-2.537706">
        <ele>547.247</ele>
        <time>2022-03-20T13:25:18Z</time>
      </trkpt>
      <trkpt lat="42.901068" lon="-2.537706">
        <ele>546.685</ele>
        <time>2022-03-20T13:25:19Z</time>
      </trkpt>
      <trkpt lat="42.901068" lon="-2.537706">
        <ele>546.637</ele>
        <time>2022-03-20T13:25:20Z</time>
      </trkpt>
      <trkpt lat="42.901068" lon="-2.537706">
        <ele>546.692</ele>
        <time>2022-03-20T13:25:21Z</time>
      </trkpt>
      <trkpt lat="42.901068" lon="-2.537706">
        <ele>547.285</ele>
        <time>2022-03-20T13:25:22Z</time>
      </trkpt>
      <trkpt lat="42.901068" lon="-2.537706">
        <ele>547.214</ele>
        <time>2022-03-20T13:25:23Z</time>
      </trkpt>
      <trkpt lat="42.901067" lon="-2.537706">
        <ele>547.289</ele>
        <time>2022-03-20T13:25:24Z</time>
      </trkpt>
      <trkpt lat="42.901066" lon="-2.537706">
        <ele>547.290</ele>
        <time>2022-03-20T13:25:25Z</time>
      </trkpt>
      <trkpt lat="42.901065" lon="-2.537706">
        <ele>547.221</ele>
        <time>2022-03-20T13:25:26Z</time>
      </trkpt>
      <trkpt lat="42.901065" lon="-2.537706">
        <ele>547.041</ele>
        <time>2022-03-20T13:25:27Z</time>
      </trkpt>
      <trkpt lat="42.901065" lon="-2.537705">
        <ele>546.805</ele>
        <time>2022-03-20T13:25:28Z</time>
      </trkpt>
      <trkpt lat="42.901065" lon="-2.537701">
        <ele>546.808</ele>
        <time>2022-03-20T13:25:29Z</time>
      </trkpt>
      <trkpt lat="42.901065" lon="-2.537698">
        <ele>546.851</ele>
        <time>2022-03-20T13:25:30Z</time>
      </trkpt>
      <trkpt lat="42.901065" lon="-2.537691">
        <ele>546.829</ele>
        <time>2022-03-20T13:25:31Z</time>
      </trkpt>
      <trkpt lat="42.901065" lon="-2.537687">
        <ele>546.831</ele>
        <time>2022-03-20T13:25:32Z</time>
      </trkpt>
      <trkpt lat="42.901066" lon="-2.537684">
        <ele>546.876</ele>
        <time>2022-03-20T13:25:33Z</time>
      </trkpt>
      <trkpt lat="42.901066" lon="-2.537678">
        <ele>546.869</ele>
        <time>2022-03-20T13:25:34Z</time>
      </trkpt>
      <trkpt lat="42.901066" lon="-2.537669">
        <ele>547.058</ele>
        <time>2022-03-20T13:25:35Z</time>
      </trkpt>
      <trkpt lat="42.901067" lon="-2.537661">
        <ele>547.273</ele>
        <time>2022-03-20T13:25:36Z</time>
      </trkpt>
      <trkpt lat="42.901068" lon="-2.537656">
        <ele>547.274</ele>
        <time>2022-03-20T13:25:37Z</time>
      </trkpt>
      <trkpt lat="42.901069" lon="-2.537654">
        <ele>547.239</ele>
        <time>2022-03-20T13:25:38Z</time>
      </trkpt>
      <trkpt lat="42.901069" lon="-2.537652">
        <ele>547.201</ele>
        <time>2022-03-20T13:25:39Z</time>
      </trkpt>
      <trkpt lat="42.90107" lon="-2.537646">
        <ele>547.421</ele>
        <time>2022-03-20T13:25:40Z</time>
      </trkpt>
      <trkpt lat="42.90107" lon="-2.537643">
        <ele>547.608</ele>
        <time>2022-03-20T13:25:41Z</time>
      </trkpt>
      <trkpt lat="42.90107" lon="-2.537638">
        <ele>547.622</ele>
        <time>2022-03-20T13:25:42Z</time>
      </trkpt>
      <trkpt lat="42.901072" lon="-2.537636">
        <ele>547.410</ele>
        <time>2022-03-20T13:25:43Z</time>
      </trkpt>
      <trkpt lat="42.901075" lon="-2.537627">
        <ele>547.242</ele>
        <time>2022-03-20T13:25:44Z</time>
      </trkpt>
      <trkpt lat="42.901088" lon="-2.537611">
        <ele>547.437</ele>
        <time>2022-03-20T13:25:45Z</time>
      </trkpt>
      <trkpt lat="42.901098" lon="-2.53759">
        <ele>547.840</ele>
        <time>2022-03-20T13:25:46Z</time>
      </trkpt>
      <trkpt lat="42.901108" lon="-2.537573">
        <ele>547.829</ele>
        <time>2022-03-20T13:25:47Z</time>
      </trkpt>
      <trkpt lat="42.901114" lon="-2.537554">
        <ele>547.254</ele>
        <time>2022-03-20T13:25:48Z</time>
      </trkpt>
      <trkpt lat="42.901112" lon="-2.537533">
        <ele>547.055</ele>
        <time>2022-03-20T13:25:49Z</time>
      </trkpt>
      <trkpt lat="42.901114" lon="-2.537517">
        <ele>548.218</ele>
        <time>2022-03-20T13:25:50Z</time>
      </trkpt>
      <trkpt lat="42.901117" lon="-2.537509">
        <ele>548.298</ele>
        <time>2022-03-20T13:25:51Z</time>
      </trkpt>
      <trkpt lat="42.901116" lon="-2.537501">
        <ele>548.217</ele>
        <time>2022-03-20T13:25:52Z</time>
      </trkpt>
      <trkpt lat="42.901115" lon="-2.537493">
        <ele>548.208</ele>
        <time>2022-03-20T13:25:53Z</time>
      </trkpt>
      <trkpt lat="42.901111" lon="-2.537493">
        <ele>548.280</ele>
        <time>2022-03-20T13:25:54Z</time>
      </trkpt>
      <trkpt lat="42.901109" lon="-2.537491">
        <ele>548.288</ele>
        <time>2022-03-20T13:25:55Z</time>
      </trkpt>
      <trkpt lat="42.90111" lon="-2.537491">
        <ele>548.290</ele>
        <time>2022-03-20T13:25:56Z</time>
      </trkpt>
      <trkpt lat="42.90111" lon="-2.537494">
        <ele>548.245</ele>
        <time>2022-03-20T13:25:57Z</time>
      </trkpt>
      <trkpt lat="42.901109" lon="-2.537495">
        <ele>548.218</ele>
        <time>2022-03-20T13:25:58Z</time>
      </trkpt>
      <trkpt lat="42.901107" lon="-2.537496">
        <ele>548.217</ele>
        <time>2022-03-20T13:25:59Z</time>
      </trkpt>
      <trkpt lat="42.901107" lon="-2.537496">
        <ele>548.012</ele>
        <time>2022-03-20T13:26:00Z</time>
      </trkpt>
      <trkpt lat="42.901107" lon="-2.537496">
        <ele>547.863</ele>
        <time>2022-03-20T13:26:01Z</time>
      </trkpt>
      <trkpt lat="42.901107" lon="-2.537496">
        <ele>547.872</ele>
        <time>2022-03-20T13:26:02Z</time>
      </trkpt>
      <trkpt lat="42.901107" lon="-2.537496">
        <ele>547.813</ele>
        <time>2022-03-20T13:26:03Z</time>
      </trkpt>
      <trkpt lat="42.901107" lon="-2.537496">
        <ele>547.814</ele>
        <time>2022-03-20T13:26:04Z</time>
      </trkpt>
      <trkpt lat="42.901107" lon="-2.537496">
        <ele>548.008</ele>
        <time>2022-03-20T13:26:05Z</time>
      </trkpt>
      <trkpt lat="42.901107" lon="-2.537496">
        <ele>548.416</ele>
        <time>2022-03-20T13:26:06Z</time>
      </trkpt>
      <trkpt lat="42.901107" lon="-2.537496">
        <ele>548.464</ele>
        <time>2022-03-20T13:26:07Z</time>
      </trkpt>
      <trkpt lat="42.901105" lon="-2.537491">
        <ele>548.446</ele>
        <time>2022-03-20T13:26:08Z</time>
      </trkpt>
      <trkpt lat="42.901097" lon="-2.537471">
        <ele>548.221</ele>
        <time>2022-03-20T13:26:09Z</time>
      </trkpt>
      <trkpt lat="42.901091" lon="-2.537453">
        <ele>548.854</ele>
        <time>2022-03-20T13:26:10Z</time>
      </trkpt>
      <trkpt lat="42.901085" lon="-2.537435">
        <ele>548.833</ele>
        <time>2022-03-20T13:26:11Z</time>
      </trkpt>
      <trkpt lat="42.901078" lon="-2.537414">
        <ele>549.088</ele>
        <time>2022-03-20T13:26:12Z</time>
      </trkpt>
      <trkpt lat="42.901071" lon="-2.537396">
        <ele>548.299</ele>
        <time>2022-03-20T13:26:13Z</time>
      </trkpt>
      <trkpt lat="42.901064" lon="-2.537378">
        <ele>548.271</ele>
        <time>2022-03-20T13:26:14Z</time>
      </trkpt>
      <trkpt lat="42.901055" lon="-2.537362">
        <ele>548.441</ele>
        <time>2022-03-20T13:26:15Z</time>
      </trkpt>
      <trkpt lat="42.901051" lon="-2.537347">
        <ele>549.015</ele>
        <time>2022-03-20T13:26:16Z</time>
      </trkpt>
      <trkpt lat="42.901044" lon="-2.537331">
        <ele>549.008</ele>
        <time>2022-03-20T13:26:17Z</time>
      </trkpt>
      <trkpt lat="42.90104" lon="-2.53732">
        <ele>549.046</ele>
        <time>2022-03-20T13:26:18Z</time>
      </trkpt>
      <trkpt lat="42.901035" lon="-2.537309">
        <ele>549.044</ele>
        <time>2022-03-20T13:26:19Z</time>
      </trkpt>
      <trkpt lat="42.901037" lon="-2.537301">
        <ele>549.646</ele>
        <time>2022-03-20T13:26:20Z</time>
      </trkpt>
      <trkpt lat="42.901034" lon="-2.537288">
        <ele>549.681</ele>
        <time>2022-03-20T13:26:21Z</time>
      </trkpt>
      <trkpt lat="42.901029" lon="-2.537274">
        <ele>549.654</ele>
        <time>2022-03-20T13:26:22Z</time>
      </trkpt>
      <trkpt lat="42.901024" lon="-2.53726">
        <ele>549.453</ele>
        <time>2022-03-20T13:26:23Z</time>
      </trkpt>
      <trkpt lat="42.901024" lon="-2.537249">
        <ele>549.428</ele>
        <time>2022-03-20T13:26:24Z</time>
      </trkpt>
      <trkpt lat="42.901023" lon="-2.537237">
        <ele>549.089</ele>
        <time>2022-03-20T13:26:25Z</time>
      </trkpt>
      <trkpt lat="42.901023" lon="-2.537225">
        <ele>548.224</ele>
        <time>2022-03-20T13:26:26Z</time>
      </trkpt>
      <trkpt lat="42.901017" lon="-2.537213">
        <ele>548.204</ele>
        <time>2022-03-20T13:26:27Z</time>
      </trkpt>
      <trkpt lat="42.901007" lon="-2.537199">
        <ele>548.214</ele>
        <time>2022-03-20T13:26:28Z</time>
      </trkpt>
      <trkpt lat="42.901002" lon="-2.537188">
        <ele>548.208</ele>
        <time>2022-03-20T13:26:29Z</time>
      </trkpt>
      <trkpt lat="42.900994" lon="-2.537177">
        <ele>548.461</ele>
        <time>2022-03-20T13:26:30Z</time>
      </trkpt>
      <trkpt lat="42.900991" lon="-2.537168">
        <ele>548.619</ele>
        <time>2022-03-20T13:26:31Z</time>
      </trkpt>
      <trkpt lat="42.900989" lon="-2.537157">
        <ele>548.891</ele>
        <time>2022-03-20T13:26:32Z</time>
      </trkpt>
      <trkpt lat="42.900987" lon="-2.537145">
        <ele>548.866</ele>
        <time>2022-03-20T13:26:33Z</time>
      </trkpt>
      <trkpt lat="42.900981" lon="-2.537132">
        <ele>548.829</ele>
        <time>2022-03-20T13:26:34Z</time>
      </trkpt>
      <trkpt lat="42.900975" lon="-2.53712">
        <ele>548.858</ele>
        <time>2022-03-20T13:26:35Z</time>
      </trkpt>
      <trkpt lat="42.90097" lon="-2.537108">
        <ele>549.283</ele>
        <time>2022-03-20T13:26:36Z</time>
      </trkpt>
      <trkpt lat="42.900963" lon="-2.537096">
        <ele>549.634</ele>
        <time>2022-03-20T13:26:37Z</time>
      </trkpt>
      <trkpt lat="42.900958" lon="-2.537085">
        <ele>549.655</ele>
        <time>2022-03-20T13:26:38Z</time>
      </trkpt>
      <trkpt lat="42.900954" lon="-2.537076">
        <ele>549.207</ele>
        <time>2022-03-20T13:26:39Z</time>
      </trkpt>
      <trkpt lat="42.900949" lon="-2.537065">
        <ele>549.217</ele>
        <time>2022-03-20T13:26:40Z</time>
      </trkpt>
      <trkpt lat="42.900942" lon="-2.537053">
        <ele>549.208</ele>
        <time>2022-03-20T13:26:41Z</time>
      </trkpt>
      <trkpt lat="42.900937" lon="-2.53704">
        <ele>549.234</ele>
        <time>2022-03-20T13:26:42Z</time>
      </trkpt>
      <trkpt lat="42.900933" lon="-2.537027">
        <ele>549.042</ele>
        <time>2022-03-20T13:26:43Z</time>
      </trkpt>
      <trkpt lat="42.900927" lon="-2.537013">
        <ele>549.054</ele>
        <time>2022-03-20T13:26:44Z</time>
      </trkpt>
      <trkpt lat="42.900921" lon="-2.537">
        <ele>549.049</ele>
        <time>2022-03-20T13:26:45Z</time>
      </trkpt>
      <trkpt lat="42.900915" lon="-2.536987">
        <ele>549.012</ele>
        <time>2022-03-20T13:26:46Z</time>
      </trkpt>
      <trkpt lat="42.90091" lon="-2.536974">
        <ele>548.891</ele>
        <time>2022-03-20T13:26:47Z</time>
      </trkpt>
      <trkpt lat="42.900906" lon="-2.536961">
        <ele>548.826</ele>
        <time>2022-03-20T13:26:48Z</time>
      </trkpt>
      <trkpt lat="42.900899" lon="-2.536949">
        <ele>548.867</ele>
        <time>2022-03-20T13:26:49Z</time>
      </trkpt>
      <trkpt lat="42.900893" lon="-2.536937">
        <ele>548.847</ele>
        <time>2022-03-20T13:26:50Z</time>
      </trkpt>
      <trkpt lat="42.900891" lon="-2.536927">
        <ele>549.029</ele>
        <time>2022-03-20T13:26:51Z</time>
      </trkpt>
      <trkpt lat="42.900889" lon="-2.536917">
        <ele>549.221</ele>
        <time>2022-03-20T13:26:52Z</time>
      </trkpt>
      <trkpt lat="42.900884" lon="-2.536905">
        <ele>549.208</ele>
        <time>2022-03-20T13:26:53Z</time>
      </trkpt>
      <trkpt lat="42.900876" lon="-2.536894">
        <ele>549.253</ele>
        <time>2022-03-20T13:26:54Z</time>
      </trkpt>
      <trkpt lat="42.900872" lon="-2.536883">
        <ele>549.091</ele>
        <time>2022-03-20T13:26:55Z</time>
      </trkpt>
      <trkpt lat="42.900869" lon="-2.536871">
        <ele>549.033</ele>
        <time>2022-03-20T13:26:56Z</time>
      </trkpt>
      <trkpt lat="42.900864" lon="-2.536858">
        <ele>549.068</ele>
        <time>2022-03-20T13:26:57Z</time>
      </trkpt>
      <trkpt lat="42.900858" lon="-2.536845">
        <ele>549.081</ele>
        <time>2022-03-20T13:26:58Z</time>
      </trkpt>
      <trkpt lat="42.900851" lon="-2.536834">
        <ele>549.080</ele>
        <time>2022-03-20T13:26:59Z</time>
      </trkpt>
      <trkpt lat="42.900846" lon="-2.53682">
        <ele>549.095</ele>
        <time>2022-03-20T13:27:00Z</time>
      </trkpt>
      <trkpt lat="42.900842" lon="-2.536808">
        <ele>548.616</ele>
        <time>2022-03-20T13:27:01Z</time>
      </trkpt>
      <trkpt lat="42.900836" lon="-2.536795">
        <ele>548.612</ele>
        <time>2022-03-20T13:27:02Z</time>
      </trkpt>
      <trkpt lat="42.900829" lon="-2.536783">
        <ele>548.832</ele>
        <time>2022-03-20T13:27:03Z</time>
      </trkpt>
      <trkpt lat="42.900824" lon="-2.536773">
        <ele>548.805</ele>
        <time>2022-03-20T13:27:04Z</time>
      </trkpt>
      <trkpt lat="42.90082" lon="-2.536764">
        <ele>548.808</ele>
        <time>2022-03-20T13:27:05Z</time>
      </trkpt>
      <trkpt lat="42.900814" lon="-2.536753">
        <ele>548.830</ele>
        <time>2022-03-20T13:27:06Z</time>
      </trkpt>
      <trkpt lat="42.900809" lon="-2.536743">
        <ele>549.058</ele>
        <time>2022-03-20T13:27:07Z</time>
      </trkpt>
      <trkpt lat="42.900804" lon="-2.536731">
        <ele>549.080</ele>
        <time>2022-03-20T13:27:08Z</time>
      </trkpt>
      <trkpt lat="42.900799" lon="-2.536719">
        <ele>549.085</ele>
        <time>2022-03-20T13:27:09Z</time>
      </trkpt>
      <trkpt lat="42.900793" lon="-2.536709">
        <ele>549.288</ele>
        <time>2022-03-20T13:27:10Z</time>
      </trkpt>
      <trkpt lat="42.900785" lon="-2.5367">
        <ele>549.287</ele>
        <time>2022-03-20T13:27:11Z</time>
      </trkpt>
      <trkpt lat="42.90078" lon="-2.536688">
        <ele>549.832</ele>
        <time>2022-03-20T13:27:12Z</time>
      </trkpt>
      <trkpt lat="42.900776" lon="-2.536676">
        <ele>549.873</ele>
        <time>2022-03-20T13:27:13Z</time>
      </trkpt>
      <trkpt lat="42.900772" lon="-2.536665">
        <ele>549.888</ele>
        <time>2022-03-20T13:27:14Z</time>
      </trkpt>
      <trkpt lat="42.900767" lon="-2.536653">
        <ele>550.224</ele>
        <time>2022-03-20T13:27:15Z</time>
      </trkpt>
      <trkpt lat="42.900761" lon="-2.536642">
        <ele>550.226</ele>
        <time>2022-03-20T13:27:16Z</time>
      </trkpt>
      <trkpt lat="42.900755" lon="-2.536631">
        <ele>549.608</ele>
        <time>2022-03-20T13:27:17Z</time>
      </trkpt>
      <trkpt lat="42.900748" lon="-2.536618">
        <ele>549.697</ele>
        <time>2022-03-20T13:27:18Z</time>
      </trkpt>
      <trkpt lat="42.900743" lon="-2.536607">
        <ele>549.485</ele>
        <time>2022-03-20T13:27:19Z</time>
      </trkpt>
      <trkpt lat="42.900737" lon="-2.536595">
        <ele>549.077</ele>
        <time>2022-03-20T13:27:20Z</time>
      </trkpt>
      <trkpt lat="42.900731" lon="-2.536585">
        <ele>549.432</ele>
        <time>2022-03-20T13:27:21Z</time>
      </trkpt>
      <trkpt lat="42.900726" lon="-2.536575">
        <ele>549.075</ele>
        <time>2022-03-20T13:27:22Z</time>
      </trkpt>
      <trkpt lat="42.900721" lon="-2.536567">
        <ele>549.074</ele>
        <time>2022-03-20T13:27:23Z</time>
      </trkpt>
      <trkpt lat="42.900716" lon="-2.53656">
        <ele>548.829</ele>
        <time>2022-03-20T13:27:24Z</time>
      </trkpt>
      <trkpt lat="42.900711" lon="-2.536557">
        <ele>548.830</ele>
        <time>2022-03-20T13:27:25Z</time>
      </trkpt>
      <trkpt lat="42.900709" lon="-2.536557">
        <ele>548.823</ele>
        <time>2022-03-20T13:27:26Z</time>
      </trkpt>
      <trkpt lat="42.900705" lon="-2.536556">
        <ele>547.883</ele>
        <time>2022-03-20T13:27:27Z</time>
      </trkpt>
      <trkpt lat="42.900703" lon="-2.536556">
        <ele>547.811</ele>
        <time>2022-03-20T13:27:28Z</time>
      </trkpt>
      <trkpt lat="42.900705" lon="-2.536553">
        <ele>547.808</ele>
        <time>2022-03-20T13:27:29Z</time>
      </trkpt>
      <trkpt lat="42.900704" lon="-2.53655">
        <ele>547.861</ele>
        <time>2022-03-20T13:27:30Z</time>
      </trkpt>
      <trkpt lat="42.900708" lon="-2.536548">
        <ele>548.099</ele>
        <time>2022-03-20T13:27:31Z</time>
      </trkpt>
      <trkpt lat="42.900706" lon="-2.536543">
        <ele>548.091</ele>
        <time>2022-03-20T13:27:32Z</time>
      </trkpt>
      <trkpt lat="42.900703" lon="-2.536538">
        <ele>548.016</ele>
        <time>2022-03-20T13:27:33Z</time>
      </trkpt>
      <trkpt lat="42.900699" lon="-2.536536">
        <ele>548.089</ele>
        <time>2022-03-20T13:27:34Z</time>
      </trkpt>
      <trkpt lat="42.900699" lon="-2.536534">
        <ele>548.028</ele>
        <time>2022-03-20T13:27:35Z</time>
      </trkpt>
      <trkpt lat="42.900699" lon="-2.536534">
        <ele>548.053</ele>
        <time>2022-03-20T13:27:36Z</time>
      </trkpt>
      <trkpt lat="42.900699" lon="-2.536534">
        <ele>548.024</ele>
        <time>2022-03-20T13:27:37Z</time>
      </trkpt>
      <trkpt lat="42.900699" lon="-2.536534">
        <ele>548.028</ele>
        <time>2022-03-20T13:27:38Z</time>
      </trkpt>
      <trkpt lat="42.900699" lon="-2.536534">
        <ele>548.089</ele>
        <time>2022-03-20T13:27:39Z</time>
      </trkpt>
      <trkpt lat="42.900699" lon="-2.536534">
        <ele>547.817</ele>
        <time>2022-03-20T13:27:40Z</time>
      </trkpt>
      <trkpt lat="42.900699" lon="-2.536534">
        <ele>547.808</ele>
        <time>2022-03-20T13:27:41Z</time>
      </trkpt>
      <trkpt lat="42.900699" lon="-2.536534">
        <ele>547.831</ele>
        <time>2022-03-20T13:27:42Z</time>
      </trkpt>
      <trkpt lat="42.900699" lon="-2.536534">
        <ele>547.879</ele>
        <time>2022-03-20T13:27:43Z</time>
      </trkpt>
      <trkpt lat="42.900699" lon="-2.536534">
        <ele>547.881</ele>
        <time>2022-03-20T13:27:44Z</time>
      </trkpt>
      <trkpt lat="42.900699" lon="-2.536534">
        <ele>548.056</ele>
        <time>2022-03-20T13:27:45Z</time>
      </trkpt>
      <trkpt lat="42.900702" lon="-2.536534">
        <ele>548.089</ele>
        <time>2022-03-20T13:27:46Z</time>
      </trkpt>
      <trkpt lat="42.900703" lon="-2.536534">
        <ele>548.038</ele>
        <time>2022-03-20T13:27:47Z</time>
      </trkpt>
      <trkpt lat="42.900703" lon="-2.536534">
        <ele>548.013</ele>
        <time>2022-03-20T13:27:48Z</time>
      </trkpt>
      <trkpt lat="42.900703" lon="-2.536534">
        <ele>548.014</ele>
        <time>2022-03-20T13:27:49Z</time>
      </trkpt>
      <trkpt lat="42.900703" lon="-2.536534">
        <ele>548.048</ele>
        <time>2022-03-20T13:27:50Z</time>
      </trkpt>
      <trkpt lat="42.900703" lon="-2.536534">
        <ele>548.061</ele>
        <time>2022-03-20T13:27:51Z</time>
      </trkpt>
      <trkpt lat="42.900703" lon="-2.536533">
        <ele>547.817</ele>
        <time>2022-03-20T13:27:52Z</time>
      </trkpt>
      <trkpt lat="42.900703" lon="-2.536532">
        <ele>547.808</ele>
        <time>2022-03-20T13:27:53Z</time>
      </trkpt>
      <trkpt lat="42.900703" lon="-2.536531">
        <ele>547.893</ele>
        <time>2022-03-20T13:27:54Z</time>
      </trkpt>
      <trkpt lat="42.900703" lon="-2.536526">
        <ele>547.831</ele>
        <time>2022-03-20T13:27:55Z</time>
      </trkpt>
      <trkpt lat="42.900703" lon="-2.536525">
        <ele>548.283</ele>
        <time>2022-03-20T13:27:56Z</time>
      </trkpt>
      <trkpt lat="42.900703" lon="-2.536523">
        <ele>548.448</ele>
        <time>2022-03-20T13:27:57Z</time>
      </trkpt>
      <trkpt lat="42.900702" lon="-2.536523">
        <ele>548.441</ele>
        <time>2022-03-20T13:27:58Z</time>
      </trkpt>
      <trkpt lat="42.900702" lon="-2.53652">
        <ele>548.480</ele>
        <time>2022-03-20T13:27:59Z</time>
      </trkpt>
      <trkpt lat="42.900701" lon="-2.536516">
        <ele>548.495</ele>
        <time>2022-03-20T13:28:00Z</time>
      </trkpt>
      <trkpt lat="42.900699" lon="-2.536509">
        <ele>548.456</ele>
        <time>2022-03-20T13:28:01Z</time>
      </trkpt>
      <trkpt lat="42.900699" lon="-2.536503">
        <ele>547.877</ele>
        <time>2022-03-20T13:28:02Z</time>
      </trkpt>
      <trkpt lat="42.900699" lon="-2.536497">
        <ele>547.861</ele>
        <time>2022-03-20T13:28:03Z</time>
      </trkpt>
      <trkpt lat="42.900698" lon="-2.53649">
        <ele>547.627</ele>
        <time>2022-03-20T13:28:04Z</time>
      </trkpt>
      <trkpt lat="42.900697" lon="-2.536484">
        <ele>547.608</ele>
        <time>2022-03-20T13:28:05Z</time>
      </trkpt>
      <trkpt lat="42.900693" lon="-2.536477">
        <ele>547.046</ele>
        <time>2022-03-20T13:28:06Z</time>
      </trkpt>
      <trkpt lat="42.900687" lon="-2.53647">
        <ele>546.664</ele>
        <time>2022-03-20T13:28:07Z</time>
      </trkpt>
      <trkpt lat="42.900681" lon="-2.53646">
        <ele>546.686</ele>
        <time>2022-03-20T13:28:08Z</time>
      </trkpt>
      <trkpt lat="42.900678" lon="-2.53645">
        <ele>546.681</ele>
        <time>2022-03-20T13:28:09Z</time>
      </trkpt>
      <trkpt lat="42.900674" lon="-2.536441">
        <ele>546.634</ele>
        <time>2022-03-20T13:28:10Z</time>
      </trkpt>
      <trkpt lat="42.90067" lon="-2.536433">
        <ele>546.613</ele>
        <time>2022-03-20T13:28:11Z</time>
      </trkpt>
      <trkpt lat="42.900666" lon="-2.536424">
        <ele>546.878</ele>
        <time>2022-03-20T13:28:12Z</time>
      </trkpt>
      <trkpt lat="42.900663" lon="-2.536416">
        <ele>546.889</ele>
        <time>2022-03-20T13:28:13Z</time>
      </trkpt>
      <trkpt lat="42.900658" lon="-2.536408">
        <ele>546.862</ele>
        <time>2022-03-20T13:28:14Z</time>
      </trkpt>
      <trkpt lat="42.900652" lon="-2.536401">
        <ele>546.883</ele>
        <time>2022-03-20T13:28:15Z</time>
      </trkpt>
      <trkpt lat="42.900647" lon="-2.536392">
        <ele>546.811</ele>
        <time>2022-03-20T13:28:16Z</time>
      </trkpt>
      <trkpt lat="42.900643" lon="-2.536383">
        <ele>546.608</ele>
        <time>2022-03-20T13:28:17Z</time>
      </trkpt>
      <trkpt lat="42.900639" lon="-2.536375">
        <ele>546.245</ele>
        <time>2022-03-20T13:28:18Z</time>
      </trkpt>
      <trkpt lat="42.900635" lon="-2.536374">
        <ele>546.213</ele>
        <time>2022-03-20T13:28:19Z</time>
      </trkpt>
      <trkpt lat="42.900633" lon="-2.536373">
        <ele>546.295</ele>
        <time>2022-03-20T13:28:20Z</time>
      </trkpt>
      <trkpt lat="42.900629" lon="-2.536373">
        <ele>546.240</ele>
        <time>2022-03-20T13:28:21Z</time>
      </trkpt>
      <trkpt lat="42.900623" lon="-2.536371">
        <ele>546.263</ele>
        <time>2022-03-20T13:28:22Z</time>
      </trkpt>
      <trkpt lat="42.900619" lon="-2.536369">
        <ele>546.612</ele>
        <time>2022-03-20T13:28:23Z</time>
      </trkpt>
      <trkpt lat="42.900617" lon="-2.536367">
        <ele>546.657</ele>
        <time>2022-03-20T13:28:24Z</time>
      </trkpt>
      <trkpt lat="42.900616" lon="-2.536366">
        <ele>546.688</ele>
        <time>2022-03-20T13:28:25Z</time>
      </trkpt>
      <trkpt lat="42.900609" lon="-2.536364">
        <ele>546.635</ele>
        <time>2022-03-20T13:28:26Z</time>
      </trkpt>
      <trkpt lat="42.900599" lon="-2.536363">
        <ele>546.686</ele>
        <time>2022-03-20T13:28:27Z</time>
      </trkpt>
      <trkpt lat="42.900589" lon="-2.536361">
        <ele>546.414</ele>
        <time>2022-03-20T13:28:28Z</time>
      </trkpt>
      <trkpt lat="42.900585" lon="-2.536359">
        <ele>546.408</ele>
        <time>2022-03-20T13:28:29Z</time>
      </trkpt>
      <trkpt lat="42.900583" lon="-2.536357">
        <ele>546.432</ele>
        <time>2022-03-20T13:28:30Z</time>
      </trkpt>
      <trkpt lat="42.900582" lon="-2.536355">
        <ele>546.420</ele>
        <time>2022-03-20T13:28:31Z</time>
      </trkpt>
      <trkpt lat="42.90058" lon="-2.536355">
        <ele>546.432</ele>
        <time>2022-03-20T13:28:32Z</time>
      </trkpt>
      <trkpt lat="42.900578" lon="-2.536353">
        <ele>546.427</ele>
        <time>2022-03-20T13:28:33Z</time>
      </trkpt>
      <trkpt lat="42.900576" lon="-2.536352">
        <ele>546.290</ele>
        <time>2022-03-20T13:28:34Z</time>
      </trkpt>
      <trkpt lat="42.900576" lon="-2.536352">
        <ele>546.019</ele>
        <time>2022-03-20T13:28:35Z</time>
      </trkpt>
      <trkpt lat="42.900576" lon="-2.53635">
        <ele>546.074</ele>
        <time>2022-03-20T13:28:36Z</time>
      </trkpt>
      <trkpt lat="42.900576" lon="-2.536349">
        <ele>546.015</ele>
        <time>2022-03-20T13:28:37Z</time>
      </trkpt>
      <trkpt lat="42.900576" lon="-2.536347">
        <ele>545.861</ele>
        <time>2022-03-20T13:28:38Z</time>
      </trkpt>
      <trkpt lat="42.900576" lon="-2.536346">
        <ele>545.821</ele>
        <time>2022-03-20T13:28:39Z</time>
      </trkpt>
      <trkpt lat="42.900576" lon="-2.536346">
        <ele>545.813</ele>
        <time>2022-03-20T13:28:40Z</time>
      </trkpt>
      <trkpt lat="42.900576" lon="-2.536344">
        <ele>546.008</ele>
        <time>2022-03-20T13:28:41Z</time>
      </trkpt>
      <trkpt lat="42.900576" lon="-2.536344">
        <ele>545.625</ele>
        <time>2022-03-20T13:28:42Z</time>
      </trkpt>
      <trkpt lat="42.900576" lon="-2.536343">
        <ele>545.643</ele>
        <time>2022-03-20T13:28:43Z</time>
      </trkpt>
      <trkpt lat="42.900576" lon="-2.536342">
        <ele>545.675</ele>
        <time>2022-03-20T13:28:44Z</time>
      </trkpt>
      <trkpt lat="42.900577" lon="-2.536339">
        <ele>545.660</ele>
        <time>2022-03-20T13:28:45Z</time>
      </trkpt>
      <trkpt lat="42.900577" lon="-2.536336">
        <ele>545.653</ele>
        <time>2022-03-20T13:28:46Z</time>
      </trkpt>
      <trkpt lat="42.900578" lon="-2.536333">
        <ele>545.632</ele>
        <time>2022-03-20T13:28:47Z</time>
      </trkpt>
      <trkpt lat="42.90058" lon="-2.536329">
        <ele>545.617</ele>
        <time>2022-03-20T13:28:48Z</time>
      </trkpt>
      <trkpt lat="42.90058" lon="-2.536328">
        <ele>545.688</ele>
        <time>2022-03-20T13:28:49Z</time>
      </trkpt>
      <trkpt lat="42.90058" lon="-2.536327">
        <ele>545.681</ele>
        <time>2022-03-20T13:28:50Z</time>
      </trkpt>
      <trkpt lat="42.90058" lon="-2.536327">
        <ele>545.861</ele>
        <time>2022-03-20T13:28:51Z</time>
      </trkpt>
      <trkpt lat="42.900581" lon="-2.536327">
        <ele>545.817</ele>
        <time>2022-03-20T13:28:52Z</time>
      </trkpt>
      <trkpt lat="42.900581" lon="-2.536327">
        <ele>545.808</ele>
        <time>2022-03-20T13:28:53Z</time>
      </trkpt>
      <trkpt lat="42.900582" lon="-2.536326">
        <ele>546.027</ele>
        <time>2022-03-20T13:28:54Z</time>
      </trkpt>
      <trkpt lat="42.900583" lon="-2.536325">
        <ele>546.225</ele>
        <time>2022-03-20T13:28:55Z</time>
      </trkpt>
      <trkpt lat="42.900585" lon="-2.536324">
        <ele>546.437</ele>
        <time>2022-03-20T13:28:56Z</time>
      </trkpt>
      <trkpt lat="42.900586" lon="-2.536323">
        <ele>546.452</ele>
        <time>2022-03-20T13:28:57Z</time>
      </trkpt>
      <trkpt lat="42.900588" lon="-2.536321">
        <ele>546.635</ele>
        <time>2022-03-20T13:28:58Z</time>
      </trkpt>
      <trkpt lat="42.90059" lon="-2.53632">
        <ele>546.614</ele>
        <time>2022-03-20T13:28:59Z</time>
      </trkpt>
      <trkpt lat="42.900592" lon="-2.53632">
        <ele>546.899</ele>
        <time>2022-03-20T13:29:00Z</time>
      </trkpt>
      <trkpt lat="42.900595" lon="-2.53632">
        <ele>546.830</ele>
        <time>2022-03-20T13:29:01Z</time>
      </trkpt>
      <trkpt lat="42.900598" lon="-2.53632">
        <ele>546.814</ele>
        <time>2022-03-20T13:29:02Z</time>
      </trkpt>
      <trkpt lat="42.9006" lon="-2.536319">
        <ele>546.654</ele>
        <time>2022-03-20T13:29:03Z</time>
      </trkpt>
      <trkpt lat="42.900601" lon="-2.536319">
        <ele>546.809</ele>
        <time>2022-03-20T13:29:04Z</time>
      </trkpt>
      <trkpt lat="42.900602" lon="-2.536319">
        <ele>546.808</ele>
        <time>2022-03-20T13:29:05Z</time>
      </trkpt>
      <trkpt lat="42.900603" lon="-2.536319">
        <ele>546.840</ele>
        <time>2022-03-20T13:29:06Z</time>
      </trkpt>
      <trkpt lat="42.900604" lon="-2.536319">
        <ele>546.828</ele>
        <time>2022-03-20T13:29:07Z</time>
      </trkpt>
      <trkpt lat="42.900605" lon="-2.536319">
        <ele>546.810</ele>
        <time>2022-03-20T13:29:08Z</time>
      </trkpt>
      <trkpt lat="42.900606" lon="-2.536319">
        <ele>546.835</ele>
        <time>2022-03-20T13:29:09Z</time>
      </trkpt>
      <trkpt lat="42.900607" lon="-2.536319">
        <ele>546.818</ele>
        <time>2022-03-20T13:29:10Z</time>
      </trkpt>
      <trkpt lat="42.900608" lon="-2.536319">
        <ele>546.697</ele>
        <time>2022-03-20T13:29:11Z</time>
      </trkpt>
      <trkpt lat="42.900609" lon="-2.536319">
        <ele>546.682</ele>
        <time>2022-03-20T13:29:12Z</time>
      </trkpt>
      <trkpt lat="42.900609" lon="-2.536319">
        <ele>546.613</ele>
        <time>2022-03-20T13:29:13Z</time>
      </trkpt>
      <trkpt lat="42.900609" lon="-2.536319">
        <ele>546.652</ele>
        <time>2022-03-20T13:29:14Z</time>
      </trkpt>
      <trkpt lat="42.90061" lon="-2.536319">
        <ele>546.853</ele>
        <time>2022-03-20T13:29:15Z</time>
      </trkpt>
      <trkpt lat="42.90061" lon="-2.536319">
        <ele>546.808</ele>
        <time>2022-03-20T13:29:16Z</time>
      </trkpt>
      <trkpt lat="42.900611" lon="-2.536317">
        <ele>547.008</ele>
        <time>2022-03-20T13:29:17Z</time>
      </trkpt>
      <trkpt lat="42.900611" lon="-2.536314">
        <ele>547.054</ele>
        <time>2022-03-20T13:29:18Z</time>
      </trkpt>
      <trkpt lat="42.900611" lon="-2.536312">
        <ele>547.052</ele>
        <time>2022-03-20T13:29:19Z</time>
      </trkpt>
      <trkpt lat="42.900611" lon="-2.53631">
        <ele>547.014</ele>
        <time>2022-03-20T13:29:20Z</time>
      </trkpt>
      <trkpt lat="42.900611" lon="-2.536309">
        <ele>547.069</ele>
        <time>2022-03-20T13:29:21Z</time>
      </trkpt>
      <trkpt lat="42.900611" lon="-2.536308">
        <ele>547.012</ele>
        <time>2022-03-20T13:29:22Z</time>
      </trkpt>
      <trkpt lat="42.900611" lon="-2.536307">
        <ele>547.051</ele>
        <time>2022-03-20T13:29:23Z</time>
      </trkpt>
      <trkpt lat="42.900611" lon="-2.536307">
        <ele>547.086</ele>
        <time>2022-03-20T13:29:24Z</time>
      </trkpt>
      <trkpt lat="42.900611" lon="-2.536306">
        <ele>547.037</ele>
        <time>2022-03-20T13:29:25Z</time>
      </trkpt>
      <trkpt lat="42.900611" lon="-2.536306">
        <ele>547.031</ele>
        <time>2022-03-20T13:29:26Z</time>
      </trkpt>
      <trkpt lat="42.900607" lon="-2.536301">
        <ele>547.061</ele>
        <time>2022-03-20T13:29:27Z</time>
      </trkpt>
      <trkpt lat="42.900599" lon="-2.536291">
        <ele>547.007</ele>
        <time>2022-03-20T13:29:28Z</time>
      </trkpt>
      <trkpt lat="42.900591" lon="-2.53628">
        <ele>546.808</ele>
        <time>2022-03-20T13:29:29Z</time>
      </trkpt>
      <trkpt lat="42.900581" lon="-2.536265">
        <ele>546.882</ele>
        <time>2022-03-20T13:29:30Z</time>
      </trkpt>
      <trkpt lat="42.900569" lon="-2.536247">
        <ele>546.660</ele>
        <time>2022-03-20T13:29:31Z</time>
      </trkpt>
      <trkpt lat="42.900557" lon="-2.536231">
        <ele>546.632</ele>
        <time>2022-03-20T13:29:32Z</time>
      </trkpt>
      <trkpt lat="42.900549" lon="-2.536221">
        <ele>546.037</ele>
        <time>2022-03-20T13:29:33Z</time>
      </trkpt>
      <trkpt lat="42.900541" lon="-2.536209">
        <ele>546.080</ele>
        <time>2022-03-20T13:29:34Z</time>
      </trkpt>
      <trkpt lat="42.900534" lon="-2.536204">
        <ele>546.089</ele>
        <time>2022-03-20T13:29:35Z</time>
      </trkpt>
      <trkpt lat="42.900527" lon="-2.53619">
        <ele>546.644</ele>
        <time>2022-03-20T13:29:36Z</time>
      </trkpt>
      <trkpt lat="42.90052" lon="-2.536177">
        <ele>546.415</ele>
        <time>2022-03-20T13:29:37Z</time>
      </trkpt>
      <trkpt lat="42.900513" lon="-2.536166">
        <ele>546.439</ele>
        <time>2022-03-20T13:29:38Z</time>
      </trkpt>
      <trkpt lat="42.900511" lon="-2.536158">
        <ele>546.601</ele>
        <time>2022-03-20T13:29:39Z</time>
      </trkpt>
      <trkpt lat="42.900504" lon="-2.536148">
        <ele>546.621</ele>
        <time>2022-03-20T13:29:40Z</time>
      </trkpt>
      <trkpt lat="42.9005" lon="-2.536141">
        <ele>546.608</ele>
        <time>2022-03-20T13:29:41Z</time>
      </trkpt>
      <trkpt lat="42.900496" lon="-2.536131">
        <ele>546.632</ele>
        <time>2022-03-20T13:29:42Z</time>
      </trkpt>
      <trkpt lat="42.900494" lon="-2.536122">
        <ele>546.660</ele>
        <time>2022-03-20T13:29:43Z</time>
      </trkpt>
      <trkpt lat="42.900491" lon="-2.536112">
        <ele>546.862</ele>
        <time>2022-03-20T13:29:44Z</time>
      </trkpt>
      <trkpt lat="42.900486" lon="-2.536102">
        <ele>548.097</ele>
        <time>2022-03-20T13:29:45Z</time>
      </trkpt>
      <trkpt lat="42.900478" lon="-2.536092">
        <ele>548.040</ele>
        <time>2022-03-20T13:29:46Z</time>
      </trkpt>
      <trkpt lat="42.90047" lon="-2.536082">
        <ele>548.099</ele>
        <time>2022-03-20T13:29:47Z</time>
      </trkpt>
      <trkpt lat="42.900462" lon="-2.536071">
        <ele>548.024</ele>
        <time>2022-03-20T13:29:48Z</time>
      </trkpt>
      <trkpt lat="42.900453" lon="-2.536061">
        <ele>547.685</ele>
        <time>2022-03-20T13:29:49Z</time>
      </trkpt>
      <trkpt lat="42.900445" lon="-2.536054">
        <ele>547.495</ele>
        <time>2022-03-20T13:29:50Z</time>
      </trkpt>
      <trkpt lat="42.900436" lon="-2.536046">
        <ele>547.449</ele>
        <time>2022-03-20T13:29:51Z</time>
      </trkpt>
      <trkpt lat="42.900428" lon="-2.536037">
        <ele>547.423</ele>
        <time>2022-03-20T13:29:52Z</time>
      </trkpt>
      <trkpt lat="42.900419" lon="-2.536031">
        <ele>547.408</ele>
        <time>2022-03-20T13:29:53Z</time>
      </trkpt>
      <trkpt lat="42.900409" lon="-2.536024">
        <ele>547.648</ele>
        <time>2022-03-20T13:29:54Z</time>
      </trkpt>
      <trkpt lat="42.900401" lon="-2.536017">
        <ele>547.486</ele>
        <time>2022-03-20T13:29:55Z</time>
      </trkpt>
      <trkpt lat="42.900393" lon="-2.536012">
        <ele>547.628</ele>
        <time>2022-03-20T13:29:56Z</time>
      </trkpt>
      <trkpt lat="42.900384" lon="-2.536005">
        <ele>547.613</ele>
        <time>2022-03-20T13:29:57Z</time>
      </trkpt>
      <trkpt lat="42.900376" lon="-2.535997">
        <ele>547.686</ele>
        <time>2022-03-20T13:29:58Z</time>
      </trkpt>
      <trkpt lat="42.90037" lon="-2.535989">
        <ele>547.495</ele>
        <time>2022-03-20T13:29:59Z</time>
      </trkpt>
      <trkpt lat="42.900362" lon="-2.53598">
        <ele>547.220</ele>
        <time>2022-03-20T13:30:00Z</time>
      </trkpt>
      <trkpt lat="42.900353" lon="-2.535969">
        <ele>547.281</ele>
        <time>2022-03-20T13:30:01Z</time>
      </trkpt>
      <trkpt lat="42.900345" lon="-2.53596">
        <ele>547.045</ele>
        <time>2022-03-20T13:30:02Z</time>
      </trkpt>
      <trkpt lat="42.900337" lon="-2.535952">
        <ele>547.047</ele>
        <time>2022-03-20T13:30:03Z</time>
      </trkpt>
      <trkpt lat="42.900328" lon="-2.535943">
        <ele>547.011</ele>
        <time>2022-03-20T13:30:04Z</time>
      </trkpt>
      <trkpt lat="42.900317" lon="-2.535936">
        <ele>546.808</ele>
        <time>2022-03-20T13:30:05Z</time>
      </trkpt>
      <trkpt lat="42.900306" lon="-2.535928">
        <ele>546.843</ele>
        <time>2022-03-20T13:30:06Z</time>
      </trkpt>
      <trkpt lat="42.900298" lon="-2.535921">
        <ele>547.081</ele>
        <time>2022-03-20T13:30:07Z</time>
      </trkpt>
      <trkpt lat="42.90029" lon="-2.535913">
        <ele>546.853</ele>
        <time>2022-03-20T13:30:08Z</time>
      </trkpt>
      <trkpt lat="42.900281" lon="-2.535905">
        <ele>546.818</ele>
        <time>2022-03-20T13:30:09Z</time>
      </trkpt>
      <trkpt lat="42.900271" lon="-2.535897">
        <ele>546.631</ele>
        <time>2022-03-20T13:30:10Z</time>
      </trkpt>
      <trkpt lat="42.900261" lon="-2.535889">
        <ele>546.670</ele>
        <time>2022-03-20T13:30:11Z</time>
      </trkpt>
      <trkpt lat="42.900255" lon="-2.535881">
        <ele>546.625</ele>
        <time>2022-03-20T13:30:12Z</time>
      </trkpt>
      <trkpt lat="42.900244" lon="-2.535868">
        <ele>546.856</ele>
        <time>2022-03-20T13:30:13Z</time>
      </trkpt>
      <trkpt lat="42.900237" lon="-2.53586">
        <ele>546.838</ele>
        <time>2022-03-20T13:30:14Z</time>
      </trkpt>
      <trkpt lat="42.900227" lon="-2.535845">
        <ele>546.870</ele>
        <time>2022-03-20T13:30:15Z</time>
      </trkpt>
      <trkpt lat="42.900223" lon="-2.535837">
        <ele>546.817</ele>
        <time>2022-03-20T13:30:16Z</time>
      </trkpt>
      <trkpt lat="42.900218" lon="-2.535829">
        <ele>546.808</ele>
        <time>2022-03-20T13:30:17Z</time>
      </trkpt>
      <trkpt lat="42.900214" lon="-2.535824">
        <ele>546.422</ele>
        <time>2022-03-20T13:30:18Z</time>
      </trkpt>
      <trkpt lat="42.900207" lon="-2.535822">
        <ele>546.430</ele>
        <time>2022-03-20T13:30:19Z</time>
      </trkpt>
      <trkpt lat="42.900199" lon="-2.53582">
        <ele>546.482</ele>
        <time>2022-03-20T13:30:20Z</time>
      </trkpt>
      <trkpt lat="42.90019" lon="-2.535816">
        <ele>546.437</ele>
        <time>2022-03-20T13:30:21Z</time>
      </trkpt>
      <trkpt lat="42.900181" lon="-2.535816">
        <ele>546.420</ele>
        <time>2022-03-20T13:30:22Z</time>
      </trkpt>
      <trkpt lat="42.900177" lon="-2.535815">
        <ele>546.489</ele>
        <time>2022-03-20T13:30:23Z</time>
      </trkpt>
      <trkpt lat="42.900165" lon="-2.535814">
        <ele>546.444</ele>
        <time>2022-03-20T13:30:24Z</time>
      </trkpt>
      <trkpt lat="42.90016" lon="-2.535809">
        <ele>546.415</ele>
        <time>2022-03-20T13:30:25Z</time>
      </trkpt>
      <trkpt lat="42.900159" lon="-2.535803">
        <ele>546.219</ele>
        <time>2022-03-20T13:30:26Z</time>
      </trkpt>
      <trkpt lat="42.900161" lon="-2.535803">
        <ele>546.009</ele>
        <time>2022-03-20T13:30:27Z</time>
      </trkpt>
      <trkpt lat="42.900161" lon="-2.535805">
        <ele>546.019</ele>
        <time>2022-03-20T13:30:28Z</time>
      </trkpt>
      <trkpt lat="42.900161" lon="-2.535805">
        <ele>546.008</ele>
        <time>2022-03-20T13:30:29Z</time>
      </trkpt>
      <trkpt lat="42.900162" lon="-2.535808">
        <ele>546.260</ele>
        <time>2022-03-20T13:30:30Z</time>
      </trkpt>
      <trkpt lat="42.900163" lon="-2.535812">
        <ele>546.448</ele>
        <time>2022-03-20T13:30:31Z</time>
      </trkpt>
      <trkpt lat="42.900166" lon="-2.535816">
        <ele>546.490</ele>
        <time>2022-03-20T13:30:32Z</time>
      </trkpt>
      <trkpt lat="42.900171" lon="-2.535822">
        <ele>546.415</ele>
        <time>2022-03-20T13:30:33Z</time>
      </trkpt>
      <trkpt lat="42.900174" lon="-2.535824">
        <ele>546.498</ele>
        <time>2022-03-20T13:30:34Z</time>
      </trkpt>
      <trkpt lat="42.900179" lon="-2.535825">
        <ele>546.437</ele>
        <time>2022-03-20T13:30:35Z</time>
      </trkpt>
      <trkpt lat="42.900188" lon="-2.535826">
        <ele>546.272</ele>
        <time>2022-03-20T13:30:36Z</time>
      </trkpt>
      <trkpt lat="42.900195" lon="-2.535828">
        <ele>546.243</ele>
        <time>2022-03-20T13:30:37Z</time>
      </trkpt>
      <trkpt lat="42.900204" lon="-2.535833">
        <ele>546.222</ele>
        <time>2022-03-20T13:30:38Z</time>
      </trkpt>
      <trkpt lat="42.900212" lon="-2.535835">
        <ele>546.062</ele>
        <time>2022-03-20T13:30:39Z</time>
      </trkpt>
      <trkpt lat="42.90022" lon="-2.535844">
        <ele>546.008</ele>
        <time>2022-03-20T13:30:40Z</time>
      </trkpt>
      <trkpt lat="42.900227" lon="-2.535855">
        <ele>546.008</ele>
        <time>2022-03-20T13:30:41Z</time>
      </trkpt>
      <trkpt lat="42.900234" lon="-2.535867">
        <ele>546.041</ele>
        <time>2022-03-20T13:30:42Z</time>
      </trkpt>
      <trkpt lat="42.900239" lon="-2.535881">
        <ele>546.089</ele>
        <time>2022-03-20T13:30:43Z</time>
      </trkpt>
      <trkpt lat="42.900244" lon="-2.535896">
        <ele>546.051</ele>
        <time>2022-03-20T13:30:44Z</time>
      </trkpt>
      <trkpt lat="42.90025" lon="-2.535907">
        <ele>545.816</ele>
        <time>2022-03-20T13:30:45Z</time>
      </trkpt>
      <trkpt lat="42.900257" lon="-2.53592">
        <ele>545.819</ele>
        <time>2022-03-20T13:30:46Z</time>
      </trkpt>
      <trkpt lat="42.900263" lon="-2.535929">
        <ele>545.658</ele>
        <time>2022-03-20T13:30:47Z</time>
      </trkpt>
      <trkpt lat="42.90027" lon="-2.53594">
        <ele>545.633</ele>
        <time>2022-03-20T13:30:48Z</time>
      </trkpt>
      <trkpt lat="42.900277" lon="-2.535952">
        <ele>545.624</ele>
        <time>2022-03-20T13:30:49Z</time>
      </trkpt>
      <trkpt lat="42.900283" lon="-2.53596">
        <ele>546.062</ele>
        <time>2022-03-20T13:30:50Z</time>
      </trkpt>
      <trkpt lat="42.90029" lon="-2.535971">
        <ele>546.083</ele>
        <time>2022-03-20T13:30:51Z</time>
      </trkpt>
      <trkpt lat="42.900298" lon="-2.53598">
        <ele>546.811</ele>
        <time>2022-03-20T13:30:52Z</time>
      </trkpt>
      <trkpt lat="42.900305" lon="-2.535986">
        <ele>546.808</ele>
        <time>2022-03-20T13:30:53Z</time>
      </trkpt>
      <trkpt lat="42.900312" lon="-2.535992">
        <ele>546.865</ele>
        <time>2022-03-20T13:30:54Z</time>
      </trkpt>
      <trkpt lat="42.900318" lon="-2.535996">
        <ele>546.823</ele>
        <time>2022-03-20T13:30:55Z</time>
      </trkpt>
      <trkpt lat="42.900316" lon="-2.535994">
        <ele>546.895</ele>
        <time>2022-03-20T13:30:56Z</time>
      </trkpt>
      <trkpt lat="42.900311" lon="-2.535989">
        <ele>547.040</ele>
        <time>2022-03-20T13:30:57Z</time>
      </trkpt>
      <trkpt lat="42.900306" lon="-2.535987">
        <ele>547.073</ele>
        <time>2022-03-20T13:30:58Z</time>
      </trkpt>
      <trkpt lat="42.900303" lon="-2.535984">
        <ele>547.082</ele>
        <time>2022-03-20T13:30:59Z</time>
      </trkpt>
      <trkpt lat="42.9003" lon="-2.535987">
        <ele>547.017</ele>
        <time>2022-03-20T13:31:00Z</time>
      </trkpt>
      <trkpt lat="42.900302" lon="-2.535997">
        <ele>547.038</ele>
        <time>2022-03-20T13:31:01Z</time>
      </trkpt>
      <trkpt lat="42.900318" lon="-2.536016">
        <ele>546.818</ele>
        <time>2022-03-20T13:31:02Z</time>
      </trkpt>
      <trkpt lat="42.900335" lon="-2.536038">
        <ele>546.898</ele>
        <time>2022-03-20T13:31:03Z</time>
      </trkpt>
      <trkpt lat="42.900341" lon="-2.536053">
        <ele>546.817</ele>
        <time>2022-03-20T13:31:04Z</time>
      </trkpt>
      <trkpt lat="42.900349" lon="-2.536061">
        <ele>546.808</ele>
        <time>2022-03-20T13:31:05Z</time>
      </trkpt>
      <trkpt lat="42.900356" lon="-2.536071">
        <ele>547.020</ele>
        <time>2022-03-20T13:31:06Z</time>
      </trkpt>
      <trkpt lat="42.900362" lon="-2.536079">
        <ele>547.218</ele>
        <time>2022-03-20T13:31:07Z</time>
      </trkpt>
      <trkpt lat="42.900368" lon="-2.536087">
        <ele>547.210</ele>
        <time>2022-03-20T13:31:08Z</time>
      </trkpt>
      <trkpt lat="42.900375" lon="-2.536094">
        <ele>547.285</ele>
        <time>2022-03-20T13:31:09Z</time>
      </trkpt>
      <trkpt lat="42.900382" lon="-2.536101">
        <ele>547.228</ele>
        <time>2022-03-20T13:31:10Z</time>
      </trkpt>
      <trkpt lat="42.900386" lon="-2.53611">
        <ele>547.017</ele>
        <time>2022-03-20T13:31:11Z</time>
      </trkpt>
      <trkpt lat="42.90039" lon="-2.536116">
        <ele>547.012</ele>
        <time>2022-03-20T13:31:12Z</time>
      </trkpt>
      <trkpt lat="42.900395" lon="-2.536126">
        <ele>547.033</ele>
        <time>2022-03-20T13:31:13Z</time>
      </trkpt>
      <trkpt lat="42.900399" lon="-2.536134">
        <ele>547.099</ele>
        <time>2022-03-20T13:31:14Z</time>
      </trkpt>
      <trkpt lat="42.9004" lon="-2.536132">
        <ele>547.007</ele>
        <time>2022-03-20T13:31:15Z</time>
      </trkpt>
      <trkpt lat="42.900406" lon="-2.53613">
        <ele>547.027</ele>
        <time>2022-03-20T13:31:16Z</time>
      </trkpt>
      <trkpt lat="42.90041" lon="-2.536131">
        <ele>547.008</ele>
        <time>2022-03-20T13:31:17Z</time>
      </trkpt>
      <trkpt lat="42.900418" lon="-2.536136">
        <ele>547.218</ele>
        <time>2022-03-20T13:31:18Z</time>
      </trkpt>
      <trkpt lat="42.900427" lon="-2.536144">
        <ele>547.256</ele>
        <time>2022-03-20T13:31:19Z</time>
      </trkpt>
      <trkpt lat="42.900436" lon="-2.536154">
        <ele>547.268</ele>
        <time>2022-03-20T13:31:20Z</time>
      </trkpt>
      <trkpt lat="42.900445" lon="-2.536165">
        <ele>547.243</ele>
        <time>2022-03-20T13:31:21Z</time>
      </trkpt>
      <trkpt lat="42.900455" lon="-2.536174">
        <ele>547.276</ele>
        <time>2022-03-20T13:31:22Z</time>
      </trkpt>
      <trkpt lat="42.900462" lon="-2.536181">
        <ele>547.255</ele>
        <time>2022-03-20T13:31:23Z</time>
      </trkpt>
      <trkpt lat="42.900472" lon="-2.53618">
        <ele>547.280</ele>
        <time>2022-03-20T13:31:24Z</time>
      </trkpt>
      <trkpt lat="42.900479" lon="-2.536179">
        <ele>547.231</ele>
        <time>2022-03-20T13:31:25Z</time>
      </trkpt>
      <trkpt lat="42.900487" lon="-2.536186">
        <ele>547.296</ele>
        <time>2022-03-20T13:31:26Z</time>
      </trkpt>
      <trkpt lat="42.900495" lon="-2.5362">
        <ele>547.231</ele>
        <time>2022-03-20T13:31:27Z</time>
      </trkpt>
      <trkpt lat="42.900494" lon="-2.536209">
        <ele>547.224</ele>
        <time>2022-03-20T13:31:28Z</time>
      </trkpt>
      <trkpt lat="42.9005" lon="-2.536221">
        <ele>547.008</ele>
        <time>2022-03-20T13:31:29Z</time>
      </trkpt>
      <trkpt lat="42.900506" lon="-2.536239">
        <ele>547.058</ele>
        <time>2022-03-20T13:31:30Z</time>
      </trkpt>
      <trkpt lat="42.900511" lon="-2.53625">
        <ele>547.086</ele>
        <time>2022-03-20T13:31:31Z</time>
      </trkpt>
      <trkpt lat="42.900517" lon="-2.536264">
        <ele>547.278</ele>
        <time>2022-03-20T13:31:32Z</time>
      </trkpt>
      <trkpt lat="42.900519" lon="-2.53627">
        <ele>546.023</ele>
        <time>2022-03-20T13:31:33Z</time>
      </trkpt>
      <trkpt lat="42.900522" lon="-2.536281">
        <ele>546.046</ele>
        <time>2022-03-20T13:31:34Z</time>
      </trkpt>
      <trkpt lat="42.900528" lon="-2.536294">
        <ele>546.055</ele>
        <time>2022-03-20T13:31:35Z</time>
      </trkpt>
      <trkpt lat="42.900531" lon="-2.536303">
        <ele>546.030</ele>
        <time>2022-03-20T13:31:36Z</time>
      </trkpt>
      <trkpt lat="42.900536" lon="-2.536313">
        <ele>546.051</ele>
        <time>2022-03-20T13:31:37Z</time>
      </trkpt>
      <trkpt lat="42.90054" lon="-2.536323">
        <ele>546.086</ele>
        <time>2022-03-20T13:31:38Z</time>
      </trkpt>
      <trkpt lat="42.900542" lon="-2.536333">
        <ele>546.060</ele>
        <time>2022-03-20T13:31:39Z</time>
      </trkpt>
      <trkpt lat="42.900547" lon="-2.536343">
        <ele>546.226</ele>
        <time>2022-03-20T13:31:40Z</time>
      </trkpt>
      <trkpt lat="42.90055" lon="-2.536351">
        <ele>546.208</ele>
        <time>2022-03-20T13:31:41Z</time>
      </trkpt>
      <trkpt lat="42.900554" lon="-2.536361">
        <ele>546.067</ele>
        <time>2022-03-20T13:31:42Z</time>
      </trkpt>
      <trkpt lat="42.900558" lon="-2.536371">
        <ele>545.855</ele>
        <time>2022-03-20T13:31:43Z</time>
      </trkpt>
      <trkpt lat="42.900563" lon="-2.53638">
        <ele>545.857</ele>
        <time>2022-03-20T13:31:44Z</time>
      </trkpt>
      <trkpt lat="42.900568" lon="-2.536388">
        <ele>545.862</ele>
        <time>2022-03-20T13:31:45Z</time>
      </trkpt>
      <trkpt lat="42.900573" lon="-2.536397">
        <ele>545.825</ele>
        <time>2022-03-20T13:31:46Z</time>
      </trkpt>
      <trkpt lat="42.900577" lon="-2.536405">
        <ele>545.834</ele>
        <time>2022-03-20T13:31:47Z</time>
      </trkpt>
      <trkpt lat="42.900579" lon="-2.536409">
        <ele>545.689</ele>
        <time>2022-03-20T13:31:48Z</time>
      </trkpt>
      <trkpt lat="42.900578" lon="-2.53641">
        <ele>545.810</ele>
        <time>2022-03-20T13:31:49Z</time>
      </trkpt>
      <trkpt lat="42.900581" lon="-2.536409">
        <ele>545.846</ele>
        <time>2022-03-20T13:31:50Z</time>
      </trkpt>
      <trkpt lat="42.900584" lon="-2.536408">
        <ele>545.688</ele>
        <time>2022-03-20T13:31:51Z</time>
      </trkpt>
      <trkpt lat="42.900586" lon="-2.536408">
        <ele>545.616</ele>
        <time>2022-03-20T13:31:52Z</time>
      </trkpt>
      <trkpt lat="42.900586" lon="-2.536409">
        <ele>545.208</ele>
        <time>2022-03-20T13:31:53Z</time>
      </trkpt>
      <trkpt lat="42.900586" lon="-2.536412">
        <ele>545.223</ele>
        <time>2022-03-20T13:31:54Z</time>
      </trkpt>
      <trkpt lat="42.900592" lon="-2.536426">
        <ele>545.631</ele>
        <time>2022-03-20T13:31:55Z</time>
      </trkpt>
      <trkpt lat="42.900594" lon="-2.536433">
        <ele>545.613</ele>
        <time>2022-03-20T13:31:56Z</time>
      </trkpt>
      <trkpt lat="42.900594" lon="-2.536439">
        <ele>545.648</ele>
        <time>2022-03-20T13:31:57Z</time>
      </trkpt>
      <trkpt lat="42.900598" lon="-2.536445">
        <ele>546.041</ele>
        <time>2022-03-20T13:31:58Z</time>
      </trkpt>
      <trkpt lat="42.900605" lon="-2.536455">
        <ele>546.040</ele>
        <time>2022-03-20T13:31:59Z</time>
      </trkpt>
      <trkpt lat="42.900615" lon="-2.536465">
        <ele>546.225</ele>
        <time>2022-03-20T13:32:00Z</time>
      </trkpt>
      <trkpt lat="42.900623" lon="-2.536477">
        <ele>546.256</ele>
        <time>2022-03-20T13:32:01Z</time>
      </trkpt>
      <trkpt lat="42.900628" lon="-2.536487">
        <ele>546.044</ele>
        <time>2022-03-20T13:32:02Z</time>
      </trkpt>
      <trkpt lat="42.90063" lon="-2.536498">
        <ele>546.005</ele>
        <time>2022-03-20T13:32:03Z</time>
      </trkpt>
      <trkpt lat="42.900635" lon="-2.536509">
        <ele>546.015</ele>
        <time>2022-03-20T13:32:04Z</time>
      </trkpt>
      <trkpt lat="42.900639" lon="-2.536519">
        <ele>545.808</ele>
        <time>2022-03-20T13:32:05Z</time>
      </trkpt>
      <trkpt lat="42.900644" lon="-2.536528">
        <ele>545.663</ele>
        <time>2022-03-20T13:32:06Z</time>
      </trkpt>
      <trkpt lat="42.90065" lon="-2.536539">
        <ele>545.671</ele>
        <time>2022-03-20T13:32:07Z</time>
      </trkpt>
      <trkpt lat="42.900657" lon="-2.53655">
        <ele>545.643</ele>
        <time>2022-03-20T13:32:08Z</time>
      </trkpt>
      <trkpt lat="42.900666" lon="-2.536559">
        <ele>545.638</ele>
        <time>2022-03-20T13:32:09Z</time>
      </trkpt>
      <trkpt lat="42.900674" lon="-2.53657">
        <ele>545.641</ele>
        <time>2022-03-20T13:32:10Z</time>
      </trkpt>
      <trkpt lat="42.90068" lon="-2.536582">
        <ele>545.650</ele>
        <time>2022-03-20T13:32:11Z</time>
      </trkpt>
      <trkpt lat="42.900685" lon="-2.536594">
        <ele>545.425</ele>
        <time>2022-03-20T13:32:12Z</time>
      </trkpt>
      <trkpt lat="42.900691" lon="-2.536607">
        <ele>545.466</ele>
        <time>2022-03-20T13:32:13Z</time>
      </trkpt>
      <trkpt lat="42.900694" lon="-2.536619">
        <ele>545.662</ele>
        <time>2022-03-20T13:32:14Z</time>
      </trkpt>
      <trkpt lat="42.9007" lon="-2.536629">
        <ele>545.683</ele>
        <time>2022-03-20T13:32:15Z</time>
      </trkpt>
      <trkpt lat="42.900703" lon="-2.536634">
        <ele>545.611</ele>
        <time>2022-03-20T13:32:16Z</time>
      </trkpt>
      <trkpt lat="42.900708" lon="-2.536639">
        <ele>545.608</ele>
        <time>2022-03-20T13:32:17Z</time>
      </trkpt>
      <trkpt lat="42.900715" lon="-2.536645">
        <ele>545.645</ele>
        <time>2022-03-20T13:32:18Z</time>
      </trkpt>
      <trkpt lat="42.900722" lon="-2.536653">
        <ele>545.673</ele>
        <time>2022-03-20T13:32:19Z</time>
      </trkpt>
      <trkpt lat="42.900729" lon="-2.536662">
        <ele>545.615</ele>
        <time>2022-03-20T13:32:20Z</time>
      </trkpt>
      <trkpt lat="42.900732" lon="-2.536669">
        <ele>545.620</ele>
        <time>2022-03-20T13:32:21Z</time>
      </trkpt>
      <trkpt lat="42.900731" lon="-2.536667">
        <ele>545.653</ele>
        <time>2022-03-20T13:32:22Z</time>
      </trkpt>
      <trkpt lat="42.900722" lon="-2.536663">
        <ele>545.682</ele>
        <time>2022-03-20T13:32:23Z</time>
      </trkpt>
      <trkpt lat="42.900722" lon="-2.536665">
        <ele>545.687</ele>
        <time>2022-03-20T13:32:24Z</time>
      </trkpt>
      <trkpt lat="42.900726" lon="-2.536667">
        <ele>545.638</ele>
        <time>2022-03-20T13:32:25Z</time>
      </trkpt>
      <trkpt lat="42.900734" lon="-2.53668">
        <ele>545.665</ele>
        <time>2022-03-20T13:32:26Z</time>
      </trkpt>
      <trkpt lat="42.900743" lon="-2.536695">
        <ele>545.668</ele>
        <time>2022-03-20T13:32:27Z</time>
      </trkpt>
      <trkpt lat="42.900752" lon="-2.53671">
        <ele>545.614</ele>
        <time>2022-03-20T13:32:28Z</time>
      </trkpt>
      <trkpt lat="42.900751" lon="-2.536717">
        <ele>545.608</ele>
        <time>2022-03-20T13:32:29Z</time>
      </trkpt>
      <trkpt lat="42.900757" lon="-2.536729">
        <ele>545.435</ele>
        <time>2022-03-20T13:32:30Z</time>
      </trkpt>
      <trkpt lat="42.900762" lon="-2.53674">
        <ele>545.443</ele>
        <time>2022-03-20T13:32:31Z</time>
      </trkpt>
      <trkpt lat="42.90077" lon="-2.536749">
        <ele>545.445</ele>
        <time>2022-03-20T13:32:32Z</time>
      </trkpt>
      <trkpt lat="42.900776" lon="-2.536763">
        <ele>545.450</ele>
        <time>2022-03-20T13:32:33Z</time>
      </trkpt>
      <trkpt lat="42.900785" lon="-2.536776">
        <ele>545.453</ele>
        <time>2022-03-20T13:32:34Z</time>
      </trkpt>
      <trkpt lat="42.900793" lon="-2.536781">
        <ele>545.412</ele>
        <time>2022-03-20T13:32:35Z</time>
      </trkpt>
      <trkpt lat="42.900801" lon="-2.536779">
        <ele>545.687</ele>
        <time>2022-03-20T13:32:36Z</time>
      </trkpt>
      <trkpt lat="42.900809" lon="-2.536777">
        <ele>545.618</ele>
        <time>2022-03-20T13:32:37Z</time>
      </trkpt>
      <trkpt lat="42.900815" lon="-2.536773">
        <ele>545.641</ele>
        <time>2022-03-20T13:32:38Z</time>
      </trkpt>
      <trkpt lat="42.900817" lon="-2.536771">
        <ele>545.681</ele>
        <time>2022-03-20T13:32:39Z</time>
      </trkpt>
      <trkpt lat="42.900821" lon="-2.536771">
        <ele>545.809</ele>
        <time>2022-03-20T13:32:40Z</time>
      </trkpt>
      <trkpt lat="42.900823" lon="-2.536769">
        <ele>546.008</ele>
        <time>2022-03-20T13:32:41Z</time>
      </trkpt>
      <trkpt lat="42.900827" lon="-2.536768">
        <ele>546.053</ele>
        <time>2022-03-20T13:32:42Z</time>
      </trkpt>
      <trkpt lat="42.900831" lon="-2.536764">
        <ele>546.021</ele>
        <time>2022-03-20T13:32:43Z</time>
      </trkpt>
      <trkpt lat="42.900835" lon="-2.536763">
        <ele>546.283</ele>
        <time>2022-03-20T13:32:44Z</time>
      </trkpt>
      <trkpt lat="42.900841" lon="-2.53676">
        <ele>546.248</ele>
        <time>2022-03-20T13:32:45Z</time>
      </trkpt>
      <trkpt lat="42.900846" lon="-2.536755">
        <ele>546.271</ele>
        <time>2022-03-20T13:32:46Z</time>
      </trkpt>
      <trkpt lat="42.900854" lon="-2.536749">
        <ele>546.250</ele>
        <time>2022-03-20T13:32:47Z</time>
      </trkpt>
      <trkpt lat="42.900861" lon="-2.536741">
        <ele>546.245</ele>
        <time>2022-03-20T13:32:48Z</time>
      </trkpt>
      <trkpt lat="42.900868" lon="-2.536727">
        <ele>546.276</ele>
        <time>2022-03-20T13:32:49Z</time>
      </trkpt>
      <trkpt lat="42.900874" lon="-2.536714">
        <ele>546.245</ele>
        <time>2022-03-20T13:32:50Z</time>
      </trkpt>
      <trkpt lat="42.90088" lon="-2.536699">
        <ele>546.647</ele>
        <time>2022-03-20T13:32:51Z</time>
      </trkpt>
      <trkpt lat="42.900889" lon="-2.53669">
        <ele>546.611</ele>
        <time>2022-03-20T13:32:52Z</time>
      </trkpt>
      <trkpt lat="42.900893" lon="-2.536683">
        <ele>546.608</ele>
        <time>2022-03-20T13:32:53Z</time>
      </trkpt>
      <trkpt lat="42.900892" lon="-2.536675">
        <ele>546.443</ele>
        <time>2022-03-20T13:32:54Z</time>
      </trkpt>
      <trkpt lat="42.900893" lon="-2.536669">
        <ele>546.691</ele>
        <time>2022-03-20T13:32:55Z</time>
      </trkpt>
      <trkpt lat="42.900898" lon="-2.536664">
        <ele>546.683</ele>
        <time>2022-03-20T13:32:56Z</time>
      </trkpt>
      <trkpt lat="42.900903" lon="-2.536657">
        <ele>546.838</ele>
        <time>2022-03-20T13:32:57Z</time>
      </trkpt>
      <trkpt lat="42.900907" lon="-2.53665">
        <ele>547.081</ele>
        <time>2022-03-20T13:32:58Z</time>
      </trkpt>
      <trkpt lat="42.900912" lon="-2.536645">
        <ele>547.080</ele>
        <time>2022-03-20T13:32:59Z</time>
      </trkpt>
      <trkpt lat="42.900917" lon="-2.536639">
        <ele>547.055</ele>
        <time>2022-03-20T13:33:00Z</time>
      </trkpt>
      <trkpt lat="42.900922" lon="-2.536632">
        <ele>547.096</ele>
        <time>2022-03-20T13:33:01Z</time>
      </trkpt>
      <trkpt lat="42.900929" lon="-2.536623">
        <ele>547.017</ele>
        <time>2022-03-20T13:33:02Z</time>
      </trkpt>
      <trkpt lat="42.900936" lon="-2.536616">
        <ele>547.087</ele>
        <time>2022-03-20T13:33:03Z</time>
      </trkpt>
      <trkpt lat="42.90094" lon="-2.536607">
        <ele>547.015</ele>
        <time>2022-03-20T13:33:04Z</time>
      </trkpt>
      <trkpt lat="42.900944" lon="-2.536597">
        <ele>547.208</ele>
        <time>2022-03-20T13:33:05Z</time>
      </trkpt>
      <trkpt lat="42.900947" lon="-2.536585">
        <ele>547.680</ele>
        <time>2022-03-20T13:33:06Z</time>
      </trkpt>
      <trkpt lat="42.900949" lon="-2.536571">
        <ele>547.868</ele>
        <time>2022-03-20T13:33:07Z</time>
      </trkpt>
      <trkpt lat="42.900952" lon="-2.536558">
        <ele>547.830</ele>
        <time>2022-03-20T13:33:08Z</time>
      </trkpt>
      <trkpt lat="42.900954" lon="-2.536544">
        <ele>547.895</ele>
        <time>2022-03-20T13:33:09Z</time>
      </trkpt>
      <trkpt lat="42.900957" lon="-2.536531">
        <ele>547.878</ele>
        <time>2022-03-20T13:33:10Z</time>
      </trkpt>
      <trkpt lat="42.900958" lon="-2.536518">
        <ele>548.097</ele>
        <time>2022-03-20T13:33:11Z</time>
      </trkpt>
      <trkpt lat="42.900959" lon="-2.536506">
        <ele>547.852</ele>
        <time>2022-03-20T13:33:12Z</time>
      </trkpt>
      <trkpt lat="42.90096" lon="-2.536492">
        <ele>548.073</ele>
        <time>2022-03-20T13:33:13Z</time>
      </trkpt>
      <trkpt lat="42.900961" lon="-2.536477">
        <ele>547.831</ele>
        <time>2022-03-20T13:33:14Z</time>
      </trkpt>
      <trkpt lat="42.900964" lon="-2.536463">
        <ele>547.861</ele>
        <time>2022-03-20T13:33:15Z</time>
      </trkpt>
      <trkpt lat="42.900965" lon="-2.536454">
        <ele>547.807</ele>
        <time>2022-03-20T13:33:16Z</time>
      </trkpt>
      <trkpt lat="42.900967" lon="-2.536448">
        <ele>547.808</ele>
        <time>2022-03-20T13:33:17Z</time>
      </trkpt>
      <trkpt lat="42.900968" lon="-2.536438">
        <ele>547.612</ele>
        <time>2022-03-20T13:33:18Z</time>
      </trkpt>
      <trkpt lat="42.900971" lon="-2.536426">
        <ele>547.810</ele>
        <time>2022-03-20T13:33:19Z</time>
      </trkpt>
      <trkpt lat="42.900975" lon="-2.536414">
        <ele>547.822</ele>
        <time>2022-03-20T13:33:20Z</time>
      </trkpt>
      <trkpt lat="42.900977" lon="-2.536401">
        <ele>547.817</ele>
        <time>2022-03-20T13:33:21Z</time>
      </trkpt>
      <trkpt lat="42.90098" lon="-2.536387">
        <ele>547.850</ele>
        <time>2022-03-20T13:33:22Z</time>
      </trkpt>
      <trkpt lat="42.900983" lon="-2.536373">
        <ele>547.619</ele>
        <time>2022-03-20T13:33:23Z</time>
      </trkpt>
      <trkpt lat="42.900985" lon="-2.536357">
        <ele>548.024</ele>
        <time>2022-03-20T13:33:24Z</time>
      </trkpt>
      <trkpt lat="42.900992" lon="-2.536345">
        <ele>548.065</ele>
        <time>2022-03-20T13:33:25Z</time>
      </trkpt>
      <trkpt lat="42.900995" lon="-2.536334">
        <ele>548.087</ele>
        <time>2022-03-20T13:33:26Z</time>
      </trkpt>
      <trkpt lat="42.900995" lon="-2.536321">
        <ele>548.042</ele>
        <time>2022-03-20T13:33:27Z</time>
      </trkpt>
      <trkpt lat="42.901" lon="-2.536307">
        <ele>548.026</ele>
        <time>2022-03-20T13:33:28Z</time>
      </trkpt>
      <trkpt lat="42.901006" lon="-2.536294">
        <ele>548.008</ele>
        <time>2022-03-20T13:33:29Z</time>
      </trkpt>
      <trkpt lat="42.901011" lon="-2.53628">
        <ele>548.447</ele>
        <time>2022-03-20T13:33:30Z</time>
      </trkpt>
      <trkpt lat="42.901017" lon="-2.536269">
        <ele>548.065</ele>
        <time>2022-03-20T13:33:31Z</time>
      </trkpt>
      <trkpt lat="42.901017" lon="-2.536252">
        <ele>548.087</ele>
        <time>2022-03-20T13:33:32Z</time>
      </trkpt>
      <trkpt lat="42.901017" lon="-2.536233">
        <ele>547.842</ele>
        <time>2022-03-20T13:33:33Z</time>
      </trkpt>
      <trkpt lat="42.901019" lon="-2.536216">
        <ele>547.895</ele>
        <time>2022-03-20T13:33:34Z</time>
      </trkpt>
      <trkpt lat="42.901018" lon="-2.536202">
        <ele>548.094</ele>
        <time>2022-03-20T13:33:35Z</time>
      </trkpt>
      <trkpt lat="42.901022" lon="-2.536189">
        <ele>548.059</ele>
        <time>2022-03-20T13:33:36Z</time>
      </trkpt>
      <trkpt lat="42.901023" lon="-2.536177">
        <ele>547.810</ele>
        <time>2022-03-20T13:33:37Z</time>
      </trkpt>
      <trkpt lat="42.901025" lon="-2.536164">
        <ele>547.886</ele>
        <time>2022-03-20T13:33:38Z</time>
      </trkpt>
      <trkpt lat="42.901024" lon="-2.536149">
        <ele>547.860</ele>
        <time>2022-03-20T13:33:39Z</time>
      </trkpt>
      <trkpt lat="42.901026" lon="-2.536135">
        <ele>547.826</ele>
        <time>2022-03-20T13:33:40Z</time>
      </trkpt>
      <trkpt lat="42.901022" lon="-2.536119">
        <ele>547.808</ele>
        <time>2022-03-20T13:33:41Z</time>
      </trkpt>
      <trkpt lat="42.901017" lon="-2.536106">
        <ele>547.867</ele>
        <time>2022-03-20T13:33:42Z</time>
      </trkpt>
      <trkpt lat="42.901019" lon="-2.536097">
        <ele>547.665</ele>
        <time>2022-03-20T13:33:43Z</time>
      </trkpt>
      <trkpt lat="42.901018" lon="-2.536085">
        <ele>547.667</ele>
        <time>2022-03-20T13:33:44Z</time>
      </trkpt>
      <trkpt lat="42.901013" lon="-2.536068">
        <ele>547.642</ele>
        <time>2022-03-20T13:33:45Z</time>
      </trkpt>
      <trkpt lat="42.901009" lon="-2.536052">
        <ele>547.675</ele>
        <time>2022-03-20T13:33:46Z</time>
      </trkpt>
      <trkpt lat="42.901008" lon="-2.536042">
        <ele>547.444</ele>
        <time>2022-03-20T13:33:47Z</time>
      </trkpt>
      <trkpt lat="42.901004" lon="-2.536033">
        <ele>547.679</ele>
        <time>2022-03-20T13:33:48Z</time>
      </trkpt>
      <trkpt lat="42.901001" lon="-2.536027">
        <ele>547.660</ele>
        <time>2022-03-20T13:33:49Z</time>
      </trkpt>
      <trkpt lat="42.900989" lon="-2.536011">
        <ele>547.692</ele>
        <time>2022-03-20T13:33:50Z</time>
      </trkpt>
      <trkpt lat="42.900978" lon="-2.535999">
        <ele>547.673</ele>
        <time>2022-03-20T13:33:51Z</time>
      </trkpt>
      <trkpt lat="42.900978" lon="-2.535986">
        <ele>547.420</ele>
        <time>2022-03-20T13:33:52Z</time>
      </trkpt>
      <trkpt lat="42.90097" lon="-2.535975">
        <ele>547.408</ele>
        <time>2022-03-20T13:33:53Z</time>
      </trkpt>
      <trkpt lat="42.900964" lon="-2.53596">
        <ele>547.478</ele>
        <time>2022-03-20T13:33:54Z</time>
      </trkpt>
      <trkpt lat="42.900962" lon="-2.53595">
        <ele>547.466</ele>
        <time>2022-03-20T13:33:55Z</time>
      </trkpt>
      <trkpt lat="42.900962" lon="-2.535939">
        <ele>547.248</ele>
        <time>2022-03-20T13:33:56Z</time>
      </trkpt>
      <trkpt lat="42.900957" lon="-2.535925">
        <ele>547.283</ele>
        <time>2022-03-20T13:33:57Z</time>
      </trkpt>
      <trkpt lat="42.900951" lon="-2.535914">
        <ele>547.046</ele>
        <time>2022-03-20T13:33:58Z</time>
      </trkpt>
      <trkpt lat="42.900948" lon="-2.535906">
        <ele>547.045</ele>
        <time>2022-03-20T13:33:59Z</time>
      </trkpt>
      <trkpt lat="42.900943" lon="-2.535894">
        <ele>547.010</ele>
        <time>2022-03-20T13:34:00Z</time>
      </trkpt>
      <trkpt lat="42.90094" lon="-2.535882">
        <ele>547.221</ele>
        <time>2022-03-20T13:34:01Z</time>
      </trkpt>
      <trkpt lat="42.900938" lon="-2.535869">
        <ele>547.238</ele>
        <time>2022-03-20T13:34:02Z</time>
      </trkpt>
      <trkpt lat="42.900937" lon="-2.535859">
        <ele>547.270</ele>
        <time>2022-03-20T13:34:03Z</time>
      </trkpt>
      <trkpt lat="42.900934" lon="-2.53585">
        <ele>547.217</ele>
        <time>2022-03-20T13:34:04Z</time>
      </trkpt>
      <trkpt lat="42.900936" lon="-2.535836">
        <ele>547.208</ele>
        <time>2022-03-20T13:34:05Z</time>
      </trkpt>
      <trkpt lat="42.900935" lon="-2.535823">
        <ele>547.242</ele>
        <time>2022-03-20T13:34:06Z</time>
      </trkpt>
      <trkpt lat="42.90093" lon="-2.535811">
        <ele>547.090</ele>
        <time>2022-03-20T13:34:07Z</time>
      </trkpt>
      <trkpt lat="42.900931" lon="-2.5358">
        <ele>547.072</ele>
        <time>2022-03-20T13:34:08Z</time>
      </trkpt>
      <trkpt lat="42.900938" lon="-2.535789">
        <ele>547.057</ele>
        <time>2022-03-20T13:34:09Z</time>
      </trkpt>
      <trkpt lat="42.900939" lon="-2.535775">
        <ele>547.020</ele>
        <time>2022-03-20T13:34:10Z</time>
      </trkpt>
      <trkpt lat="42.900939" lon="-2.535761">
        <ele>547.019</ele>
        <time>2022-03-20T13:34:11Z</time>
      </trkpt>
      <trkpt lat="42.900941" lon="-2.535749">
        <ele>547.044</ele>
        <time>2022-03-20T13:34:12Z</time>
      </trkpt>
      <trkpt lat="42.900946" lon="-2.535738">
        <ele>547.445</ele>
        <time>2022-03-20T13:34:13Z</time>
      </trkpt>
      <trkpt lat="42.900949" lon="-2.535727">
        <ele>547.492</ele>
        <time>2022-03-20T13:34:14Z</time>
      </trkpt>
      <trkpt lat="42.900953" lon="-2.535717">
        <ele>547.473</ele>
        <time>2022-03-20T13:34:15Z</time>
      </trkpt>
      <trkpt lat="42.900953" lon="-2.535701">
        <ele>547.420</ele>
        <time>2022-03-20T13:34:16Z</time>
      </trkpt>
      <trkpt lat="42.900952" lon="-2.535687">
        <ele>547.408</ele>
        <time>2022-03-20T13:34:17Z</time>
      </trkpt>
      <trkpt lat="42.900952" lon="-2.535674">
        <ele>547.458</ele>
        <time>2022-03-20T13:34:18Z</time>
      </trkpt>
      <trkpt lat="42.900951" lon="-2.535658">
        <ele>547.896</ele>
        <time>2022-03-20T13:34:19Z</time>
      </trkpt>
      <trkpt lat="42.900954" lon="-2.535643">
        <ele>547.878</ele>
        <time>2022-03-20T13:34:20Z</time>
      </trkpt>
      <trkpt lat="42.900955" lon="-2.535626">
        <ele>547.853</ele>
        <time>2022-03-20T13:34:21Z</time>
      </trkpt>
      <trkpt lat="42.900955" lon="-2.535611">
        <ele>547.836</ele>
        <time>2022-03-20T13:34:22Z</time>
      </trkpt>
      <trkpt lat="42.90096" lon="-2.535598">
        <ele>547.895</ele>
        <time>2022-03-20T13:34:23Z</time>
      </trkpt>
      <trkpt lat="42.90097" lon="-2.535587">
        <ele>548.030</ele>
        <time>2022-03-20T13:34:24Z</time>
      </trkpt>
      <trkpt lat="42.900972" lon="-2.535573">
        <ele>548.061</ele>
        <time>2022-03-20T13:34:25Z</time>
      </trkpt>
      <trkpt lat="42.900964" lon="-2.535559">
        <ele>548.045</ele>
        <time>2022-03-20T13:34:26Z</time>
      </trkpt>
      <trkpt lat="42.900962" lon="-2.535544">
        <ele>548.047</ele>
        <time>2022-03-20T13:34:27Z</time>
      </trkpt>
      <trkpt lat="42.90096" lon="-2.535529">
        <ele>548.211</ele>
        <time>2022-03-20T13:34:28Z</time>
      </trkpt>
      <trkpt lat="42.90096" lon="-2.535514">
        <ele>548.608</ele>
        <time>2022-03-20T13:34:29Z</time>
      </trkpt>
      <trkpt lat="42.900966" lon="-2.535502">
        <ele>548.653</ele>
        <time>2022-03-20T13:34:30Z</time>
      </trkpt>
      <trkpt lat="42.900971" lon="-2.535491">
        <ele>549.011</ele>
        <time>2022-03-20T13:34:31Z</time>
      </trkpt>
      <trkpt lat="42.900983" lon="-2.535484">
        <ele>548.863</ele>
        <time>2022-03-20T13:34:32Z</time>
      </trkpt>
      <trkpt lat="42.900986" lon="-2.535471">
        <ele>548.828</ele>
        <time>2022-03-20T13:34:33Z</time>
      </trkpt>
      <trkpt lat="42.900999" lon="-2.535464">
        <ele>549.251</ele>
        <time>2022-03-20T13:34:34Z</time>
      </trkpt>
      <trkpt lat="42.900998" lon="-2.535452">
        <ele>549.210</ele>
        <time>2022-03-20T13:34:35Z</time>
      </trkpt>
      <trkpt lat="42.901" lon="-2.535442">
        <ele>549.285</ele>
        <time>2022-03-20T13:34:36Z</time>
      </trkpt>
      <trkpt lat="42.901009" lon="-2.535433">
        <ele>549.216</ele>
        <time>2022-03-20T13:34:37Z</time>
      </trkpt>
      <trkpt lat="42.901012" lon="-2.535422">
        <ele>549.221</ele>
        <time>2022-03-20T13:34:38Z</time>
      </trkpt>
      <trkpt lat="42.901022" lon="-2.535412">
        <ele>549.241</ele>
        <time>2022-03-20T13:34:39Z</time>
      </trkpt>
      <trkpt lat="42.901025" lon="-2.535399">
        <ele>549.205</ele>
        <time>2022-03-20T13:34:40Z</time>
      </trkpt>
      <trkpt lat="42.90103" lon="-2.535388">
        <ele>549.008</ele>
        <time>2022-03-20T13:34:41Z</time>
      </trkpt>
      <trkpt lat="42.901036" lon="-2.535379">
        <ele>549.091</ele>
        <time>2022-03-20T13:34:42Z</time>
      </trkpt>
      <trkpt lat="42.90104" lon="-2.535368">
        <ele>549.049</ele>
        <time>2022-03-20T13:34:43Z</time>
      </trkpt>
      <trkpt lat="42.901043" lon="-2.535356">
        <ele>549.011</ele>
        <time>2022-03-20T13:34:44Z</time>
      </trkpt>
      <trkpt lat="42.901039" lon="-2.535342">
        <ele>549.036</ele>
        <time>2022-03-20T13:34:45Z</time>
      </trkpt>
      <trkpt lat="42.901034" lon="-2.535326">
        <ele>549.019</ele>
        <time>2022-03-20T13:34:46Z</time>
      </trkpt>
      <trkpt lat="42.901028" lon="-2.535314">
        <ele>549.498</ele>
        <time>2022-03-20T13:34:47Z</time>
      </trkpt>
      <trkpt lat="42.901018" lon="-2.535301">
        <ele>549.483</ele>
        <time>2022-03-20T13:34:48Z</time>
      </trkpt>
      <trkpt lat="42.901008" lon="-2.535291">
        <ele>549.034</ele>
        <time>2022-03-20T13:34:49Z</time>
      </trkpt>
      <trkpt lat="42.901" lon="-2.535283">
        <ele>549.482</ele>
        <time>2022-03-20T13:34:50Z</time>
      </trkpt>
      <trkpt lat="42.900991" lon="-2.535276">
        <ele>549.443</ele>
        <time>2022-03-20T13:34:51Z</time>
      </trkpt>
      <trkpt lat="42.90098" lon="-2.535266">
        <ele>549.417</ele>
        <time>2022-03-20T13:34:52Z</time>
      </trkpt>
      <trkpt lat="42.90097" lon="-2.535258">
        <ele>549.408</ele>
        <time>2022-03-20T13:34:53Z</time>
      </trkpt>
      <trkpt lat="42.900958" lon="-2.53525">
        <ele>548.857</ele>
        <time>2022-03-20T13:34:54Z</time>
      </trkpt>
      <trkpt lat="42.900946" lon="-2.535246">
        <ele>548.885</ele>
        <time>2022-03-20T13:34:55Z</time>
      </trkpt>
      <trkpt lat="42.900936" lon="-2.535237">
        <ele>548.867</ele>
        <time>2022-03-20T13:34:56Z</time>
      </trkpt>
      <trkpt lat="42.900929" lon="-2.535226">
        <ele>548.842</ele>
        <time>2022-03-20T13:34:57Z</time>
      </trkpt>
      <trkpt lat="42.900923" lon="-2.535215">
        <ele>548.835</ele>
        <time>2022-03-20T13:34:58Z</time>
      </trkpt>
      <trkpt lat="42.900918" lon="-2.535206">
        <ele>548.824</ele>
        <time>2022-03-20T13:34:59Z</time>
      </trkpt>
      <trkpt lat="42.900915" lon="-2.535199">
        <ele>548.839</ele>
        <time>2022-03-20T13:35:00Z</time>
      </trkpt>
      <trkpt lat="42.900915" lon="-2.535198">
        <ele>548.670</ele>
        <time>2022-03-20T13:35:01Z</time>
      </trkpt>
      <trkpt lat="42.900912" lon="-2.535199">
        <ele>548.627</ele>
        <time>2022-03-20T13:35:02Z</time>
      </trkpt>
      <trkpt lat="42.900911" lon="-2.535203">
        <ele>548.668</ele>
        <time>2022-03-20T13:35:03Z</time>
      </trkpt>
      <trkpt lat="42.900916" lon="-2.535211">
        <ele>548.614</ele>
        <time>2022-03-20T13:35:04Z</time>
      </trkpt>
      <trkpt lat="42.900922" lon="-2.53522">
        <ele>548.608</ele>
        <time>2022-03-20T13:35:05Z</time>
      </trkpt>
      <trkpt lat="42.90093" lon="-2.535226">
        <ele>548.451</ele>
        <time>2022-03-20T13:35:06Z</time>
      </trkpt>
      <trkpt lat="42.90094" lon="-2.535229">
        <ele>548.449</ele>
        <time>2022-03-20T13:35:07Z</time>
      </trkpt>
      <trkpt lat="42.900947" lon="-2.535227">
        <ele>548.651</ele>
        <time>2022-03-20T13:35:08Z</time>
      </trkpt>
      <trkpt lat="42.90095" lon="-2.535219">
        <ele>548.616</ele>
        <time>2022-03-20T13:35:09Z</time>
      </trkpt>
      <trkpt lat="42.90095" lon="-2.53521">
        <ele>548.619</ele>
        <time>2022-03-20T13:35:10Z</time>
      </trkpt>
      <trkpt lat="42.90095" lon="-2.535203">
        <ele>548.658</ele>
        <time>2022-03-20T13:35:11Z</time>
      </trkpt>
      <trkpt lat="42.900951" lon="-2.535195">
        <ele>548.693</ele>
        <time>2022-03-20T13:35:12Z</time>
      </trkpt>
      <trkpt lat="42.90095" lon="-2.53519">
        <ele>548.654</ele>
        <time>2022-03-20T13:35:13Z</time>
      </trkpt>
      <trkpt lat="42.90095" lon="-2.535185">
        <ele>548.487</ele>
        <time>2022-03-20T13:35:14Z</time>
      </trkpt>
      <trkpt lat="42.900952" lon="-2.535177">
        <ele>548.042</ele>
        <time>2022-03-20T13:35:15Z</time>
      </trkpt>
      <trkpt lat="42.900952" lon="-2.535174">
        <ele>548.026</ele>
        <time>2022-03-20T13:35:16Z</time>
      </trkpt>
      <trkpt lat="42.900952" lon="-2.535174">
        <ele>547.808</ele>
        <time>2022-03-20T13:35:17Z</time>
      </trkpt>
      <trkpt lat="42.900952" lon="-2.535174">
        <ele>547.837</ele>
        <time>2022-03-20T13:35:18Z</time>
      </trkpt>
      <trkpt lat="42.900952" lon="-2.535174">
        <ele>547.885</ele>
        <time>2022-03-20T13:35:19Z</time>
      </trkpt>
      <trkpt lat="42.900952" lon="-2.535174">
        <ele>548.087</ele>
        <time>2022-03-20T13:35:20Z</time>
      </trkpt>
      <trkpt lat="42.900952" lon="-2.535174">
        <ele>548.012</ele>
        <time>2022-03-20T13:35:21Z</time>
      </trkpt>
      <trkpt lat="42.900952" lon="-2.535174">
        <ele>548.015</ele>
        <time>2022-03-20T13:35:22Z</time>
      </trkpt>
      <trkpt lat="42.900952" lon="-2.535174">
        <ele>548.064</ele>
        <time>2022-03-20T13:35:23Z</time>
      </trkpt>
      <trkpt lat="42.900952" lon="-2.535174">
        <ele>548.269</ele>
        <time>2022-03-20T13:35:24Z</time>
      </trkpt>
      <trkpt lat="42.900952" lon="-2.535174">
        <ele>549.270</ele>
        <time>2022-03-20T13:35:25Z</time>
      </trkpt>
      <trkpt lat="42.900952" lon="-2.535174">
        <ele>549.231</ele>
        <time>2022-03-20T13:35:26Z</time>
      </trkpt>
      <trkpt lat="42.900952" lon="-2.535174">
        <ele>549.461</ele>
        <time>2022-03-20T13:35:27Z</time>
      </trkpt>
      <trkpt lat="42.900952" lon="-2.535174">
        <ele>549.407</ele>
        <time>2022-03-20T13:35:28Z</time>
      </trkpt>
      <trkpt lat="42.900952" lon="-2.535174">
        <ele>549.208</ele>
        <time>2022-03-20T13:35:29Z</time>
      </trkpt>
      <trkpt lat="42.900952" lon="-2.535174">
        <ele>548.812</ele>
        <time>2022-03-20T13:35:30Z</time>
      </trkpt>
      <trkpt lat="42.900952" lon="-2.535174">
        <ele>548.840</ele>
        <time>2022-03-20T13:35:31Z</time>
      </trkpt>
      <trkpt lat="42.900952" lon="-2.535172">
        <ele>548.822</ele>
        <time>2022-03-20T13:35:32Z</time>
      </trkpt>
      <trkpt lat="42.900952" lon="-2.535172">
        <ele>548.647</ele>
        <time>2022-03-20T13:35:33Z</time>
      </trkpt>
      <trkpt lat="42.900952" lon="-2.535171">
        <ele>548.640</ele>
        <time>2022-03-20T13:35:34Z</time>
      </trkpt>
      <trkpt lat="42.900952" lon="-2.535167">
        <ele>548.659</ele>
        <time>2022-03-20T13:35:35Z</time>
      </trkpt>
      <trkpt lat="42.900952" lon="-2.535166">
        <ele>548.694</ele>
        <time>2022-03-20T13:35:36Z</time>
      </trkpt>
      <trkpt lat="42.900952" lon="-2.535164">
        <ele>548.855</ele>
        <time>2022-03-20T13:35:37Z</time>
      </trkpt>
      <trkpt lat="42.900952" lon="-2.535163">
        <ele>548.699</ele>
        <time>2022-03-20T13:35:38Z</time>
      </trkpt>
      <trkpt lat="42.900952" lon="-2.535161">
        <ele>548.607</ele>
        <time>2022-03-20T13:35:39Z</time>
      </trkpt>
      <trkpt lat="42.900952" lon="-2.53516">
        <ele>549.027</ele>
        <time>2022-03-20T13:35:40Z</time>
      </trkpt>
      <trkpt lat="42.900952" lon="-2.53516">
        <ele>549.208</ele>
        <time>2022-03-20T13:35:41Z</time>
      </trkpt>
      <trkpt lat="42.900952" lon="-2.53516">
        <ele>549.298</ele>
        <time>2022-03-20T13:35:42Z</time>
      </trkpt>
      <trkpt lat="42.900954" lon="-2.53516">
        <ele>549.436</ele>
        <time>2022-03-20T13:35:43Z</time>
      </trkpt>
      <trkpt lat="42.900954" lon="-2.535159">
        <ele>549.848</ele>
        <time>2022-03-20T13:35:44Z</time>
      </trkpt>
      <trkpt lat="42.900954" lon="-2.535159">
        <ele>549.823</ele>
        <time>2022-03-20T13:35:45Z</time>
      </trkpt>
      <trkpt lat="42.900954" lon="-2.535159">
        <ele>549.666</ele>
        <time>2022-03-20T13:35:46Z</time>
      </trkpt>
      <trkpt lat="42.900955" lon="-2.535159">
        <ele>549.615</ele>
        <time>2022-03-20T13:35:47Z</time>
      </trkpt>
      <trkpt lat="42.900955" lon="-2.535159">
        <ele>549.880</ele>
        <time>2022-03-20T13:35:48Z</time>
      </trkpt>
      <trkpt lat="42.900955" lon="-2.535158">
        <ele>549.881</ele>
        <time>2022-03-20T13:35:49Z</time>
      </trkpt>
      <trkpt lat="42.900955" lon="-2.535158">
        <ele>549.848</ele>
        <time>2022-03-20T13:35:50Z</time>
      </trkpt>
      <trkpt lat="42.900955" lon="-2.535158">
        <ele>550.261</ele>
        <time>2022-03-20T13:35:51Z</time>
      </trkpt>
      <trkpt lat="42.900955" lon="-2.535158">
        <ele>550.617</ele>
        <time>2022-03-20T13:35:52Z</time>
      </trkpt>
      <trkpt lat="42.900955" lon="-2.535158">
        <ele>550.608</ele>
        <time>2022-03-20T13:35:53Z</time>
      </trkpt>
      <trkpt lat="42.900955" lon="-2.535157">
        <ele>550.633</ele>
        <time>2022-03-20T13:35:54Z</time>
      </trkpt>
      <trkpt lat="42.900955" lon="-2.535157">
        <ele>550.661</ele>
        <time>2022-03-20T13:35:55Z</time>
      </trkpt>
      <trkpt lat="42.900955" lon="-2.535157">
        <ele>550.873</ele>
        <time>2022-03-20T13:35:56Z</time>
      </trkpt>
      <trkpt lat="42.900955" lon="-2.535157">
        <ele>550.698</ele>
        <time>2022-03-20T13:35:57Z</time>
      </trkpt>
      <trkpt lat="42.900955" lon="-2.535157">
        <ele>550.671</ele>
        <time>2022-03-20T13:35:58Z</time>
      </trkpt>
      <trkpt lat="42.900955" lon="-2.535158">
        <ele>550.490</ele>
        <time>2022-03-20T13:35:59Z</time>
      </trkpt>
      <trkpt lat="42.900955" lon="-2.535158">
        <ele>550.465</ele>
        <time>2022-03-20T13:36:00Z</time>
      </trkpt>
      <trkpt lat="42.900955" lon="-2.535158">
        <ele>550.416</ele>
        <time>2022-03-20T13:36:01Z</time>
      </trkpt>
      <trkpt lat="42.900954" lon="-2.535158">
        <ele>550.449</ele>
        <time>2022-03-20T13:36:02Z</time>
      </trkpt>
      <trkpt lat="42.900953" lon="-2.535158">
        <ele>550.002</ele>
        <time>2022-03-20T13:36:03Z</time>
      </trkpt>
      <trkpt lat="42.900952" lon="-2.535158">
        <ele>550.022</ele>
        <time>2022-03-20T13:36:04Z</time>
      </trkpt>
      <trkpt lat="42.900952" lon="-2.535158">
        <ele>549.808</ele>
        <time>2022-03-20T13:36:05Z</time>
      </trkpt>
      <trkpt lat="42.900951" lon="-2.535158">
        <ele>549.893</ele>
        <time>2022-03-20T13:36:06Z</time>
      </trkpt>
      <trkpt lat="42.900951" lon="-2.535158">
        <ele>549.891</ele>
        <time>2022-03-20T13:36:07Z</time>
      </trkpt>
      <trkpt lat="42.900951" lon="-2.53516">
        <ele>549.623</ele>
        <time>2022-03-20T13:36:08Z</time>
      </trkpt>
      <trkpt lat="42.90095" lon="-2.53516">
        <ele>549.628</ele>
        <time>2022-03-20T13:36:09Z</time>
      </trkpt>
      <trkpt lat="42.90095" lon="-2.535162">
        <ele>549.661</ele>
        <time>2022-03-20T13:36:10Z</time>
      </trkpt>
      <trkpt lat="42.90095" lon="-2.535164">
        <ele>549.630</ele>
        <time>2022-03-20T13:36:11Z</time>
      </trkpt>
      <trkpt lat="42.90095" lon="-2.535164">
        <ele>549.675</ele>
        <time>2022-03-20T13:36:12Z</time>
      </trkpt>
      <trkpt lat="42.90095" lon="-2.535164">
        <ele>549.616</ele>
        <time>2022-03-20T13:36:13Z</time>
      </trkpt>
      <trkpt lat="42.900949" lon="-2.535164">
        <ele>549.671</ele>
        <time>2022-03-20T13:36:14Z</time>
      </trkpt>
      <trkpt lat="42.900949" lon="-2.535164">
        <ele>549.641</ele>
        <time>2022-03-20T13:36:15Z</time>
      </trkpt>
      <trkpt lat="42.900949" lon="-2.535164">
        <ele>549.615</ele>
        <time>2022-03-20T13:36:16Z</time>
      </trkpt>
      <trkpt lat="42.900949" lon="-2.535164">
        <ele>549.808</ele>
        <time>2022-03-20T13:36:17Z</time>
      </trkpt>
      <trkpt lat="42.900948" lon="-2.535164">
        <ele>549.896</ele>
        <time>2022-03-20T13:36:18Z</time>
      </trkpt>
      <trkpt lat="42.900948" lon="-2.535164">
        <ele>549.894</ele>
        <time>2022-03-20T13:36:19Z</time>
      </trkpt>
      <trkpt lat="42.900948" lon="-2.535164">
        <ele>549.826</ele>
        <time>2022-03-20T13:36:20Z</time>
      </trkpt>
      <trkpt lat="42.900947" lon="-2.535164">
        <ele>550.261</ele>
        <time>2022-03-20T13:36:21Z</time>
      </trkpt>
      <trkpt lat="42.900947" lon="-2.535164">
        <ele>550.224</ele>
        <time>2022-03-20T13:36:22Z</time>
      </trkpt>
      <trkpt lat="42.900946" lon="-2.535164">
        <ele>550.273</ele>
        <time>2022-03-20T13:36:23Z</time>
      </trkpt>
      <trkpt lat="42.900944" lon="-2.535164">
        <ele>550.298</ele>
        <time>2022-03-20T13:36:24Z</time>
      </trkpt>
      <trkpt lat="42.900936" lon="-2.535164">
        <ele>550.249</ele>
        <time>2022-03-20T13:36:25Z</time>
      </trkpt>
      <trkpt lat="42.900929" lon="-2.535162">
        <ele>550.217</ele>
        <time>2022-03-20T13:36:26Z</time>
      </trkpt>
      <trkpt lat="42.900925" lon="-2.535157">
        <ele>550.287</ele>
        <time>2022-03-20T13:36:27Z</time>
      </trkpt>
      <trkpt lat="42.900924" lon="-2.535153">
        <ele>550.215</ele>
        <time>2022-03-20T13:36:28Z</time>
      </trkpt>
      <trkpt lat="42.900923" lon="-2.535152">
        <ele>550.008</ele>
        <time>2022-03-20T13:36:29Z</time>
      </trkpt>
      <trkpt lat="42.900923" lon="-2.535151">
        <ele>550.020</ele>
        <time>2022-03-20T13:36:30Z</time>
      </trkpt>
      <trkpt lat="42.900923" lon="-2.535151">
        <ele>549.648</ele>
        <time>2022-03-20T13:36:31Z</time>
      </trkpt>
      <trkpt lat="42.900923" lon="-2.53515">
        <ele>549.610</ele>
        <time>2022-03-20T13:36:32Z</time>
      </trkpt>
      <trkpt lat="42.900923" lon="-2.53515">
        <ele>549.645</ele>
        <time>2022-03-20T13:36:33Z</time>
      </trkpt>
      <trkpt lat="42.900923" lon="-2.535149">
        <ele>549.628</ele>
        <time>2022-03-20T13:36:34Z</time>
      </trkpt>
      <trkpt lat="42.900923" lon="-2.535149">
        <ele>549.647</ele>
        <time>2022-03-20T13:36:35Z</time>
      </trkpt>
      <trkpt lat="42.900923" lon="-2.535149">
        <ele>550.082</ele>
        <time>2022-03-20T13:36:36Z</time>
      </trkpt>
      <trkpt lat="42.900923" lon="-2.535149">
        <ele>550.463</ele>
        <time>2022-03-20T13:36:37Z</time>
      </trkpt>
      <trkpt lat="42.900923" lon="-2.535149">
        <ele>550.433</ele>
        <time>2022-03-20T13:36:38Z</time>
      </trkpt>
      <trkpt lat="42.900923" lon="-2.535149">
        <ele>550.423</ele>
        <time>2022-03-20T13:36:39Z</time>
      </trkpt>
      <trkpt lat="42.900923" lon="-2.535149">
        <ele>550.415</ele>
        <time>2022-03-20T13:36:40Z</time>
      </trkpt>
      <trkpt lat="42.900923" lon="-2.535149">
        <ele>549.608</ele>
        <time>2022-03-20T13:36:41Z</time>
      </trkpt>
      <trkpt lat="42.900924" lon="-2.535149">
        <ele>549.652</ele>
        <time>2022-03-20T13:36:42Z</time>
      </trkpt>
      <trkpt lat="42.900926" lon="-2.535149">
        <ele>549.680</ele>
        <time>2022-03-20T13:36:43Z</time>
      </trkpt>
      <trkpt lat="42.900927" lon="-2.535149">
        <ele>549.442</ele>
        <time>2022-03-20T13:36:44Z</time>
      </trkpt>
      <trkpt lat="42.900928" lon="-2.535149">
        <ele>549.467</ele>
        <time>2022-03-20T13:36:45Z</time>
      </trkpt>
      <trkpt lat="42.900929" lon="-2.53515">
        <ele>549.480</ele>
        <time>2022-03-20T13:36:46Z</time>
      </trkpt>
      <trkpt lat="42.900929" lon="-2.53515">
        <ele>549.459</ele>
        <time>2022-03-20T13:36:47Z</time>
      </trkpt>
      <trkpt lat="42.90093" lon="-2.53515">
        <ele>549.024</ele>
        <time>2022-03-20T13:36:48Z</time>
      </trkpt>
      <trkpt lat="42.900931" lon="-2.53515">
        <ele>549.085</ele>
        <time>2022-03-20T13:36:49Z</time>
      </trkpt>
      <trkpt lat="42.900933" lon="-2.535151">
        <ele>548.889</ele>
        <time>2022-03-20T13:36:50Z</time>
      </trkpt>
      <trkpt lat="42.900934" lon="-2.535151">
        <ele>548.806</ele>
        <time>2022-03-20T13:36:51Z</time>
      </trkpt>
      <trkpt lat="42.900936" lon="-2.535151">
        <ele>548.826</ele>
        <time>2022-03-20T13:36:52Z</time>
      </trkpt>
      <trkpt lat="42.900939" lon="-2.535152">
        <ele>548.808</ele>
        <time>2022-03-20T13:36:53Z</time>
      </trkpt>
      <trkpt lat="42.90094" lon="-2.535155">
        <ele>548.687</ele>
        <time>2022-03-20T13:36:54Z</time>
      </trkpt>
      <trkpt lat="42.900941" lon="-2.53516">
        <ele>548.435</ele>
        <time>2022-03-20T13:36:55Z</time>
      </trkpt>
      <trkpt lat="42.900942" lon="-2.535163">
        <ele>548.627</ele>
        <time>2022-03-20T13:36:56Z</time>
      </trkpt>
      <trkpt lat="42.900943" lon="-2.535165">
        <ele>548.622</ele>
        <time>2022-03-20T13:36:57Z</time>
      </trkpt>
      <trkpt lat="42.900943" lon="-2.535167">
        <ele>548.625</ele>
        <time>2022-03-20T13:36:58Z</time>
      </trkpt>
      <trkpt lat="42.900946" lon="-2.535174">
        <ele>548.644</ele>
        <time>2022-03-20T13:36:59Z</time>
      </trkpt>
      <trkpt lat="42.900956" lon="-2.535189">
        <ele>548.679</ele>
        <time>2022-03-20T13:37:00Z</time>
      </trkpt>
      <trkpt lat="42.900966" lon="-2.535206">
        <ele>548.680</ele>
        <time>2022-03-20T13:37:01Z</time>
      </trkpt>
      <trkpt lat="42.900977" lon="-2.535221">
        <ele>548.622</ele>
        <time>2022-03-20T13:37:02Z</time>
      </trkpt>
      <trkpt lat="42.900988" lon="-2.535237">
        <ele>548.462</ele>
        <time>2022-03-20T13:37:03Z</time>
      </trkpt>
      <trkpt lat="42.900999" lon="-2.535251">
        <ele>548.408</ele>
        <time>2022-03-20T13:37:04Z</time>
      </trkpt>
      <trkpt lat="42.901013" lon="-2.535264">
        <ele>548.208</ele>
        <time>2022-03-20T13:37:05Z</time>
      </trkpt>
      <trkpt lat="42.901026" lon="-2.535276">
        <ele>548.271</ele>
        <time>2022-03-20T13:37:06Z</time>
      </trkpt>
      <trkpt lat="42.901037" lon="-2.535285">
        <ele>548.469</ele>
        <time>2022-03-20T13:37:07Z</time>
      </trkpt>
      <trkpt lat="42.901049" lon="-2.535294">
        <ele>548.471</ele>
        <time>2022-03-20T13:37:08Z</time>
      </trkpt>
      <trkpt lat="42.90106" lon="-2.535295">
        <ele>548.496</ele>
        <time>2022-03-20T13:37:09Z</time>
      </trkpt>
      <trkpt lat="42.901071" lon="-2.535295">
        <ele>548.459</ele>
        <time>2022-03-20T13:37:10Z</time>
      </trkpt>
      <trkpt lat="42.901081" lon="-2.535296">
        <ele>548.428</ele>
        <time>2022-03-20T13:37:11Z</time>
      </trkpt>
      <trkpt lat="42.901092" lon="-2.535295">
        <ele>548.693</ele>
        <time>2022-03-20T13:37:12Z</time>
      </trkpt>
      <trkpt lat="42.901101" lon="-2.53529">
        <ele>548.664</ele>
        <time>2022-03-20T13:37:13Z</time>
      </trkpt>
      <trkpt lat="42.901111" lon="-2.535287">
        <ele>548.899</ele>
        <time>2022-03-20T13:37:14Z</time>
      </trkpt>
      <trkpt lat="42.90112" lon="-2.535284">
        <ele>549.207</ele>
        <time>2022-03-20T13:37:15Z</time>
      </trkpt>
      <trkpt lat="42.901126" lon="-2.535281">
        <ele>549.427</ele>
        <time>2022-03-20T13:37:16Z</time>
      </trkpt>
      <trkpt lat="42.901131" lon="-2.535278">
        <ele>549.608</ele>
        <time>2022-03-20T13:37:17Z</time>
      </trkpt>
      <trkpt lat="42.901135" lon="-2.535276">
        <ele>549.688</ele>
        <time>2022-03-20T13:37:18Z</time>
      </trkpt>
      <trkpt lat="42.901136" lon="-2.535273">
        <ele>549.626</ele>
        <time>2022-03-20T13:37:19Z</time>
      </trkpt>
      <trkpt lat="42.90114" lon="-2.535271">
        <ele>549.678</ele>
        <time>2022-03-20T13:37:20Z</time>
      </trkpt>
      <trkpt lat="42.901142" lon="-2.535272">
        <ele>549.853</ele>
        <time>2022-03-20T13:37:21Z</time>
      </trkpt>
      <trkpt lat="42.90114" lon="-2.535271">
        <ele>549.846</ele>
        <time>2022-03-20T13:37:22Z</time>
      </trkpt>
      <trkpt lat="42.901134" lon="-2.53527">
        <ele>549.835</ele>
        <time>2022-03-20T13:37:23Z</time>
      </trkpt>
      <trkpt lat="42.901135" lon="-2.535272">
        <ele>549.830</ele>
        <time>2022-03-20T13:37:24Z</time>
      </trkpt>
      <trkpt lat="42.90114" lon="-2.53527">
        <ele>549.891</ele>
        <time>2022-03-20T13:37:25Z</time>
      </trkpt>
      <trkpt lat="42.90115" lon="-2.535269">
        <ele>549.813</ele>
        <time>2022-03-20T13:37:26Z</time>
      </trkpt>
      <trkpt lat="42.901159" lon="-2.535267">
        <ele>549.843</ele>
        <time>2022-03-20T13:37:27Z</time>
      </trkpt>
      <trkpt lat="42.901169" lon="-2.535265">
        <ele>549.807</ele>
        <time>2022-03-20T13:37:28Z</time>
      </trkpt>
      <trkpt lat="42.901181" lon="-2.535265">
        <ele>549.608</ele>
        <time>2022-03-20T13:37:29Z</time>
      </trkpt>
      <trkpt lat="42.901192" lon="-2.535264">
        <ele>549.840</ele>
        <time>2022-03-20T13:37:30Z</time>
      </trkpt>
      <trkpt lat="42.901204" lon="-2.535265">
        <ele>549.848</ele>
        <time>2022-03-20T13:37:31Z</time>
      </trkpt>
      <trkpt lat="42.901217" lon="-2.535266">
        <ele>549.830</ele>
        <time>2022-03-20T13:37:32Z</time>
      </trkpt>
      <trkpt lat="42.901225" lon="-2.535267">
        <ele>549.815</ele>
        <time>2022-03-20T13:37:33Z</time>
      </trkpt>
      <trkpt lat="42.901237" lon="-2.535269">
        <ele>549.678</ele>
        <time>2022-03-20T13:37:34Z</time>
      </trkpt>
      <trkpt lat="42.901248" lon="-2.535272">
        <ele>549.627</ele>
        <time>2022-03-20T13:37:35Z</time>
      </trkpt>
      <trkpt lat="42.901257" lon="-2.535274">
        <ele>550.222</ele>
        <time>2022-03-20T13:37:36Z</time>
      </trkpt>
      <trkpt lat="42.901264" lon="-2.53528">
        <ele>550.283</ele>
        <time>2022-03-20T13:37:37Z</time>
      </trkpt>
      <trkpt lat="42.901271" lon="-2.535289">
        <ele>550.265</ele>
        <time>2022-03-20T13:37:38Z</time>
      </trkpt>
      <trkpt lat="42.90128" lon="-2.535298">
        <ele>550.268</ele>
        <time>2022-03-20T13:37:39Z</time>
      </trkpt>
      <trkpt lat="42.901289" lon="-2.535309">
        <ele>550.214</ele>
        <time>2022-03-20T13:37:40Z</time>
      </trkpt>
      <trkpt lat="42.901299" lon="-2.535321">
        <ele>550.208</ele>
        <time>2022-03-20T13:37:41Z</time>
      </trkpt>
      <trkpt lat="42.901309" lon="-2.535329">
        <ele>550.265</ele>
        <time>2022-03-20T13:37:42Z</time>
      </trkpt>
      <trkpt lat="42.901319" lon="-2.535337">
        <ele>550.273</ele>
        <time>2022-03-20T13:37:43Z</time>
      </trkpt>
      <trkpt lat="42.901331" lon="-2.535344">
        <ele>550.285</ele>
        <time>2022-03-20T13:37:44Z</time>
      </trkpt>
      <trkpt lat="42.901339" lon="-2.535351">
        <ele>550.290</ele>
        <time>2022-03-20T13:37:45Z</time>
      </trkpt>
      <trkpt lat="42.901346" lon="-2.535359">
        <ele>550.253</ele>
        <time>2022-03-20T13:37:46Z</time>
      </trkpt>
      <trkpt lat="42.901356" lon="-2.535365">
        <ele>550.462</ele>
        <time>2022-03-20T13:37:47Z</time>
      </trkpt>
      <trkpt lat="42.901363" lon="-2.535369">
        <ele>550.437</ele>
        <time>2022-03-20T13:37:48Z</time>
      </trkpt>
      <trkpt lat="42.901372" lon="-2.535375">
        <ele>550.688</ele>
        <time>2022-03-20T13:37:49Z</time>
      </trkpt>
      <trkpt lat="42.901382" lon="-2.535382">
        <ele>550.673</ele>
        <time>2022-03-20T13:37:50Z</time>
      </trkpt>
      <trkpt lat="42.901391" lon="-2.53539">
        <ele>550.885</ele>
        <time>2022-03-20T13:37:51Z</time>
      </trkpt>
      <trkpt lat="42.9014" lon="-2.535397">
        <ele>551.013</ele>
        <time>2022-03-20T13:37:52Z</time>
      </trkpt>
      <trkpt lat="42.901411" lon="-2.535404">
        <ele>551.208</ele>
        <time>2022-03-20T13:37:53Z</time>
      </trkpt>
      <trkpt lat="42.901418" lon="-2.535407">
        <ele>551.256</ele>
        <time>2022-03-20T13:37:54Z</time>
      </trkpt>
      <trkpt lat="42.901428" lon="-2.535411">
        <ele>551.844</ele>
        <time>2022-03-20T13:37:55Z</time>
      </trkpt>
      <trkpt lat="42.901439" lon="-2.535416">
        <ele>551.856</ele>
        <time>2022-03-20T13:37:56Z</time>
      </trkpt>
      <trkpt lat="42.901449" lon="-2.535421">
        <ele>552.051</ele>
        <time>2022-03-20T13:37:57Z</time>
      </trkpt>
      <trkpt lat="42.901459" lon="-2.535428">
        <ele>552.094</ele>
        <time>2022-03-20T13:37:58Z</time>
      </trkpt>
      <trkpt lat="42.901466" lon="-2.535434">
        <ele>552.033</ele>
        <time>2022-03-20T13:37:59Z</time>
      </trkpt>
      <trkpt lat="42.901474" lon="-2.535442">
        <ele>552.048</ele>
        <time>2022-03-20T13:38:00Z</time>
      </trkpt>
      <trkpt lat="42.901485" lon="-2.535451">
        <ele>552.229</ele>
        <time>2022-03-20T13:38:01Z</time>
      </trkpt>
      <trkpt lat="42.901494" lon="-2.535458">
        <ele>552.484</ele>
        <time>2022-03-20T13:38:02Z</time>
      </trkpt>
      <trkpt lat="42.901503" lon="-2.53546">
        <ele>552.407</ele>
        <time>2022-03-20T13:38:03Z</time>
      </trkpt>
      <trkpt lat="42.901512" lon="-2.535461">
        <ele>552.417</ele>
        <time>2022-03-20T13:38:04Z</time>
      </trkpt>
      <trkpt lat="42.90152" lon="-2.535463">
        <ele>552.408</ele>
        <time>2022-03-20T13:38:05Z</time>
      </trkpt>
      <trkpt lat="42.901528" lon="-2.535466">
        <ele>552.847</ele>
        <time>2022-03-20T13:38:06Z</time>
      </trkpt>
      <trkpt lat="42.901535" lon="-2.53547">
        <ele>553.225</ele>
        <time>2022-03-20T13:38:07Z</time>
      </trkpt>
      <trkpt lat="42.901546" lon="-2.535476">
        <ele>553.297</ele>
        <time>2022-03-20T13:38:08Z</time>
      </trkpt>
      <trkpt lat="42.901557" lon="-2.53548">
        <ele>553.212</ele>
        <time>2022-03-20T13:38:09Z</time>
      </trkpt>
      <trkpt lat="42.901568" lon="-2.53548">
        <ele>553.275</ele>
        <time>2022-03-20T13:38:10Z</time>
      </trkpt>
      <trkpt lat="42.901577" lon="-2.53548">
        <ele>553.264</ele>
        <time>2022-03-20T13:38:11Z</time>
      </trkpt>
      <trkpt lat="42.901588" lon="-2.535478">
        <ele>553.239</ele>
        <time>2022-03-20T13:38:12Z</time>
      </trkpt>
      <trkpt lat="42.901593" lon="-2.535477">
        <ele>553.240</ele>
        <time>2022-03-20T13:38:13Z</time>
      </trkpt>
      <trkpt lat="42.901604" lon="-2.535476">
        <ele>553.263</ele>
        <time>2022-03-20T13:38:14Z</time>
      </trkpt>
      <trkpt lat="42.901616" lon="-2.535478">
        <ele>553.244</ele>
        <time>2022-03-20T13:38:15Z</time>
      </trkpt>
      <trkpt lat="42.901626" lon="-2.53548">
        <ele>553.218</ele>
        <time>2022-03-20T13:38:16Z</time>
      </trkpt>
      <trkpt lat="42.901638" lon="-2.535481">
        <ele>553.408</ele>
        <time>2022-03-20T13:38:17Z</time>
      </trkpt>
      <trkpt lat="42.901649" lon="-2.535482">
        <ele>553.485</ele>
        <time>2022-03-20T13:38:18Z</time>
      </trkpt>
      <trkpt lat="42.90166" lon="-2.535479">
        <ele>553.893</ele>
        <time>2022-03-20T13:38:19Z</time>
      </trkpt>
      <trkpt lat="42.901672" lon="-2.53548">
        <ele>554.055</ele>
        <time>2022-03-20T13:38:20Z</time>
      </trkpt>
      <trkpt lat="42.901682" lon="-2.53548">
        <ele>554.020</ele>
        <time>2022-03-20T13:38:21Z</time>
      </trkpt>
      <trkpt lat="42.901692" lon="-2.535479">
        <ele>554.063</ele>
        <time>2022-03-20T13:38:22Z</time>
      </trkpt>
      <trkpt lat="42.901702" lon="-2.535477">
        <ele>554.082</ele>
        <time>2022-03-20T13:38:23Z</time>
      </trkpt>
      <trkpt lat="42.901714" lon="-2.535476">
        <ele>554.077</ele>
        <time>2022-03-20T13:38:24Z</time>
      </trkpt>
      <trkpt lat="42.901725" lon="-2.535476">
        <ele>554.058</ele>
        <time>2022-03-20T13:38:25Z</time>
      </trkpt>
      <trkpt lat="42.901737" lon="-2.535475">
        <ele>554.019</ele>
        <time>2022-03-20T13:38:26Z</time>
      </trkpt>
      <trkpt lat="42.901744" lon="-2.535474">
        <ele>554.009</ele>
        <time>2022-03-20T13:38:27Z</time>
      </trkpt>
      <trkpt lat="42.901755" lon="-2.535473">
        <ele>553.819</ele>
        <time>2022-03-20T13:38:28Z</time>
      </trkpt>
      <trkpt lat="42.901769" lon="-2.535472">
        <ele>553.808</ele>
        <time>2022-03-20T13:38:29Z</time>
      </trkpt>
      <trkpt lat="42.901779" lon="-2.535472">
        <ele>553.880</ele>
        <time>2022-03-20T13:38:30Z</time>
      </trkpt>
      <trkpt lat="42.901789" lon="-2.535471">
        <ele>553.898</ele>
        <time>2022-03-20T13:38:31Z</time>
      </trkpt>
      <trkpt lat="42.9018" lon="-2.535472">
        <ele>553.850</ele>
        <time>2022-03-20T13:38:32Z</time>
      </trkpt>
      <trkpt lat="42.901808" lon="-2.535472">
        <ele>554.045</ele>
        <time>2022-03-20T13:38:33Z</time>
      </trkpt>
      <trkpt lat="42.901817" lon="-2.53547">
        <ele>554.488</ele>
        <time>2022-03-20T13:38:34Z</time>
      </trkpt>
      <trkpt lat="42.901827" lon="-2.53547">
        <ele>554.447</ele>
        <time>2022-03-20T13:38:35Z</time>
      </trkpt>
      <trkpt lat="42.901836" lon="-2.53547">
        <ele>554.462</ele>
        <time>2022-03-20T13:38:36Z</time>
      </trkpt>
      <trkpt lat="42.901844" lon="-2.535469">
        <ele>554.483</ele>
        <time>2022-03-20T13:38:37Z</time>
      </trkpt>
      <trkpt lat="42.901853" lon="-2.535469">
        <ele>554.484</ele>
        <time>2022-03-20T13:38:38Z</time>
      </trkpt>
      <trkpt lat="42.901863" lon="-2.535472">
        <ele>554.407</ele>
        <time>2022-03-20T13:38:39Z</time>
      </trkpt>
      <trkpt lat="42.901871" lon="-2.535475">
        <ele>554.617</ele>
        <time>2022-03-20T13:38:40Z</time>
      </trkpt>
      <trkpt lat="42.90188" lon="-2.535478">
        <ele>554.608</ele>
        <time>2022-03-20T13:38:41Z</time>
      </trkpt>
      <trkpt lat="42.901891" lon="-2.535483">
        <ele>554.627</ele>
        <time>2022-03-20T13:38:42Z</time>
      </trkpt>
      <trkpt lat="42.901903" lon="-2.53549">
        <ele>554.635</ele>
        <time>2022-03-20T13:38:43Z</time>
      </trkpt>
      <trkpt lat="42.901912" lon="-2.535495">
        <ele>555.057</ele>
        <time>2022-03-20T13:38:44Z</time>
      </trkpt>
      <trkpt lat="42.901919" lon="-2.535495">
        <ele>555.032</ele>
        <time>2022-03-20T13:38:45Z</time>
      </trkpt>
      <trkpt lat="42.901922" lon="-2.535492">
        <ele>555.065</ele>
        <time>2022-03-20T13:38:46Z</time>
      </trkpt>
      <trkpt lat="42.901922" lon="-2.535488">
        <ele>555.024</ele>
        <time>2022-03-20T13:38:47Z</time>
      </trkpt>
      <trkpt lat="42.901922" lon="-2.535488">
        <ele>555.079</ele>
        <time>2022-03-20T13:38:48Z</time>
      </trkpt>
      <trkpt lat="42.901923" lon="-2.535489">
        <ele>555.230</ele>
        <time>2022-03-20T13:38:49Z</time>
      </trkpt>
      <trkpt lat="42.901927" lon="-2.535491">
        <ele>555.254</ele>
        <time>2022-03-20T13:38:50Z</time>
      </trkpt>
      <trkpt lat="42.901929" lon="-2.535493">
        <ele>555.256</ele>
        <time>2022-03-20T13:38:51Z</time>
      </trkpt>
      <trkpt lat="42.901927" lon="-2.535493">
        <ele>555.211</ele>
        <time>2022-03-20T13:38:52Z</time>
      </trkpt>
      <trkpt lat="42.901926" lon="-2.535495">
        <ele>555.208</ele>
        <time>2022-03-20T13:38:53Z</time>
      </trkpt>
      <trkpt lat="42.901926" lon="-2.535495">
        <ele>555.284</ele>
        <time>2022-03-20T13:38:54Z</time>
      </trkpt>
      <trkpt lat="42.901924" lon="-2.535493">
        <ele>555.272</ele>
        <time>2022-03-20T13:38:55Z</time>
      </trkpt>
      <trkpt lat="42.901925" lon="-2.535493">
        <ele>555.214</ele>
        <time>2022-03-20T13:38:56Z</time>
      </trkpt>
      <trkpt lat="42.901921" lon="-2.535495">
        <ele>555.249</ele>
        <time>2022-03-20T13:38:57Z</time>
      </trkpt>
      <trkpt lat="42.901921" lon="-2.535495">
        <ele>555.242</ele>
        <time>2022-03-20T13:38:58Z</time>
      </trkpt>
      <trkpt lat="42.901921" lon="-2.535495">
        <ele>555.231</ele>
        <time>2022-03-20T13:38:59Z</time>
      </trkpt>
      <trkpt lat="42.901921" lon="-2.535495">
        <ele>555.266</ele>
        <time>2022-03-20T13:39:00Z</time>
      </trkpt>
      <trkpt lat="42.901921" lon="-2.535495">
        <ele>555.257</ele>
        <time>2022-03-20T13:39:01Z</time>
      </trkpt>
      <trkpt lat="42.901921" lon="-2.535495">
        <ele>555.223</ele>
        <time>2022-03-20T13:39:02Z</time>
      </trkpt>
      <trkpt lat="42.901921" lon="-2.535495">
        <ele>555.483</ele>
        <time>2022-03-20T13:39:03Z</time>
      </trkpt>
      <trkpt lat="42.901921" lon="-2.535495">
        <ele>555.411</ele>
        <time>2022-03-20T13:39:04Z</time>
      </trkpt>
      <trkpt lat="42.901921" lon="-2.535495">
        <ele>555.408</ele>
        <time>2022-03-20T13:39:05Z</time>
      </trkpt>
      <trkpt lat="42.901921" lon="-2.535495">
        <ele>555.441</ele>
        <time>2022-03-20T13:39:06Z</time>
      </trkpt>
      <trkpt lat="42.901922" lon="-2.535495">
        <ele>555.659</ele>
        <time>2022-03-20T13:39:07Z</time>
      </trkpt>
      <trkpt lat="42.901923" lon="-2.535495">
        <ele>555.691</ele>
        <time>2022-03-20T13:39:08Z</time>
      </trkpt>
      <trkpt lat="42.901924" lon="-2.535495">
        <ele>555.616</ele>
        <time>2022-03-20T13:39:09Z</time>
      </trkpt>
      <trkpt lat="42.901924" lon="-2.535495">
        <ele>555.689</ele>
        <time>2022-03-20T13:39:10Z</time>
      </trkpt>
      <trkpt lat="42.901929" lon="-2.535499">
        <ele>555.858</ele>
        <time>2022-03-20T13:39:11Z</time>
      </trkpt>
      <trkpt lat="42.901938" lon="-2.53551">
        <ele>555.833</ele>
        <time>2022-03-20T13:39:12Z</time>
      </trkpt>
      <trkpt lat="42.901948" lon="-2.53552">
        <ele>556.444</ele>
        <time>2022-03-20T13:39:13Z</time>
      </trkpt>
      <trkpt lat="42.901959" lon="-2.535531">
        <ele>556.679</ele>
        <time>2022-03-20T13:39:14Z</time>
      </trkpt>
      <trkpt lat="42.901969" lon="-2.535544">
        <ele>556.605</ele>
        <time>2022-03-20T13:39:15Z</time>
      </trkpt>
      <trkpt lat="42.90198" lon="-2.535556">
        <ele>556.625</ele>
        <time>2022-03-20T13:39:16Z</time>
      </trkpt>
      <trkpt lat="42.901994" lon="-2.535569">
        <ele>556.608</ele>
        <time>2022-03-20T13:39:17Z</time>
      </trkpt>
      <trkpt lat="42.902005" lon="-2.535579">
        <ele>556.696</ele>
        <time>2022-03-20T13:39:18Z</time>
      </trkpt>
      <trkpt lat="42.902016" lon="-2.53559">
        <ele>556.634</ele>
        <time>2022-03-20T13:39:19Z</time>
      </trkpt>
      <trkpt lat="42.902026" lon="-2.535602">
        <ele>556.836</ele>
        <time>2022-03-20T13:39:20Z</time>
      </trkpt>
      <trkpt lat="42.902033" lon="-2.535613">
        <ele>556.841</ele>
        <time>2022-03-20T13:39:21Z</time>
      </trkpt>
      <trkpt lat="42.902038" lon="-2.535623">
        <ele>556.854</ele>
        <time>2022-03-20T13:39:22Z</time>
      </trkpt>
      <trkpt lat="42.902042" lon="-2.535633">
        <ele>556.843</ele>
        <time>2022-03-20T13:39:23Z</time>
      </trkpt>
      <trkpt lat="42.902048" lon="-2.535642">
        <ele>557.088</ele>
        <time>2022-03-20T13:39:24Z</time>
      </trkpt>
      <trkpt lat="42.902054" lon="-2.535651">
        <ele>557.079</ele>
        <time>2022-03-20T13:39:25Z</time>
      </trkpt>
      <trkpt lat="42.902058" lon="-2.535659">
        <ele>557.073</ele>
        <time>2022-03-20T13:39:26Z</time>
      </trkpt>
      <trkpt lat="42.902062" lon="-2.535667">
        <ele>557.285</ele>
        <time>2022-03-20T13:39:27Z</time>
      </trkpt>
      <trkpt lat="42.902066" lon="-2.535677">
        <ele>557.213</ele>
        <time>2022-03-20T13:39:28Z</time>
      </trkpt>
      <trkpt lat="42.902071" lon="-2.535687">
        <ele>557.208</ele>
        <time>2022-03-20T13:39:29Z</time>
      </trkpt>
      <trkpt lat="42.902074" lon="-2.535696">
        <ele>557.266</ele>
        <time>2022-03-20T13:39:30Z</time>
      </trkpt>
      <trkpt lat="42.902078" lon="-2.535704">
        <ele>557.214</ele>
        <time>2022-03-20T13:39:31Z</time>
      </trkpt>
      <trkpt lat="42.902083" lon="-2.535716">
        <ele>557.276</ele>
        <time>2022-03-20T13:39:32Z</time>
      </trkpt>
      <trkpt lat="42.902087" lon="-2.535725">
        <ele>557.461</ele>
        <time>2022-03-20T13:39:33Z</time>
      </trkpt>
      <trkpt lat="42.902092" lon="-2.535734">
        <ele>557.444</ele>
        <time>2022-03-20T13:39:34Z</time>
      </trkpt>
      <trkpt lat="42.902095" lon="-2.535744">
        <ele>557.493</ele>
        <time>2022-03-20T13:39:35Z</time>
      </trkpt>
      <trkpt lat="42.902099" lon="-2.535755">
        <ele>557.638</ele>
        <time>2022-03-20T13:39:36Z</time>
      </trkpt>
      <trkpt lat="42.902103" lon="-2.535764">
        <ele>557.679</ele>
        <time>2022-03-20T13:39:37Z</time>
      </trkpt>
      <trkpt lat="42.90211" lon="-2.535774">
        <ele>557.673</ele>
        <time>2022-03-20T13:39:38Z</time>
      </trkpt>
      <trkpt lat="42.902115" lon="-2.535783">
        <ele>557.885</ele>
        <time>2022-03-20T13:39:39Z</time>
      </trkpt>
      <trkpt lat="42.902118" lon="-2.535792">
        <ele>557.813</ele>
        <time>2022-03-20T13:39:40Z</time>
      </trkpt>
      <trkpt lat="42.902125" lon="-2.535804">
        <ele>557.808</ele>
        <time>2022-03-20T13:39:41Z</time>
      </trkpt>
      <trkpt lat="42.902131" lon="-2.535814">
        <ele>557.816</ele>
        <time>2022-03-20T13:39:42Z</time>
      </trkpt>
      <trkpt lat="42.902138" lon="-2.535824">
        <ele>557.854</ele>
        <time>2022-03-20T13:39:43Z</time>
      </trkpt>
      <trkpt lat="42.902144" lon="-2.535831">
        <ele>558.216</ele>
        <time>2022-03-20T13:39:44Z</time>
      </trkpt>
      <trkpt lat="42.902148" lon="-2.535842">
        <ele>558.291</ele>
        <time>2022-03-20T13:39:45Z</time>
      </trkpt>
      <trkpt lat="42.902153" lon="-2.535855">
        <ele>558.214</ele>
        <time>2022-03-20T13:39:46Z</time>
      </trkpt>
      <trkpt lat="42.902157" lon="-2.535866">
        <ele>558.233</ele>
        <time>2022-03-20T13:39:47Z</time>
      </trkpt>
      <trkpt lat="42.902161" lon="-2.535876">
        <ele>558.438</ele>
        <time>2022-03-20T13:39:48Z</time>
      </trkpt>
      <trkpt lat="42.902166" lon="-2.535887">
        <ele>558.449</ele>
        <time>2022-03-20T13:39:49Z</time>
      </trkpt>
      <trkpt lat="42.902169" lon="-2.535898">
        <ele>558.421</ele>
        <time>2022-03-20T13:39:50Z</time>
      </trkpt>
      <trkpt lat="42.902174" lon="-2.535909">
        <ele>558.441</ele>
        <time>2022-03-20T13:39:51Z</time>
      </trkpt>
      <trkpt lat="42.90218" lon="-2.535918">
        <ele>558.405</ele>
        <time>2022-03-20T13:39:52Z</time>
      </trkpt>
      <trkpt lat="42.902187" lon="-2.535928">
        <ele>558.408</ele>
        <time>2022-03-20T13:39:53Z</time>
      </trkpt>
      <trkpt lat="42.902193" lon="-2.53594">
        <ele>558.661</ele>
        <time>2022-03-20T13:39:54Z</time>
      </trkpt>
      <trkpt lat="42.902198" lon="-2.535951">
        <ele>559.269</ele>
        <time>2022-03-20T13:39:55Z</time>
      </trkpt>
      <trkpt lat="42.902205" lon="-2.535962">
        <ele>559.261</ele>
        <time>2022-03-20T13:39:56Z</time>
      </trkpt>
      <trkpt lat="42.902212" lon="-2.535973">
        <ele>559.256</ele>
        <time>2022-03-20T13:39:57Z</time>
      </trkpt>
      <trkpt lat="42.902218" lon="-2.535983">
        <ele>559.299</ele>
        <time>2022-03-20T13:39:58Z</time>
      </trkpt>
      <trkpt lat="42.902223" lon="-2.535992">
        <ele>559.258</ele>
        <time>2022-03-20T13:39:59Z</time>
      </trkpt>
      <trkpt lat="42.90223" lon="-2.536002">
        <ele>559.253</ele>
        <time>2022-03-20T13:40:00Z</time>
      </trkpt>
      <trkpt lat="42.902236" lon="-2.536013">
        <ele>559.234</ele>
        <time>2022-03-20T13:40:01Z</time>
      </trkpt>
      <trkpt lat="42.902241" lon="-2.536023">
        <ele>559.242</ele>
        <time>2022-03-20T13:40:02Z</time>
      </trkpt>
      <trkpt lat="42.902247" lon="-2.536032">
        <ele>559.222</ele>
        <time>2022-03-20T13:40:03Z</time>
      </trkpt>
      <trkpt lat="42.902253" lon="-2.536038">
        <ele>559.214</ele>
        <time>2022-03-20T13:40:04Z</time>
      </trkpt>
      <trkpt lat="42.902262" lon="-2.53605">
        <ele>559.208</ele>
        <time>2022-03-20T13:40:05Z</time>
      </trkpt>
      <trkpt lat="42.902269" lon="-2.536061">
        <ele>559.253</ele>
        <time>2022-03-20T13:40:06Z</time>
      </trkpt>
      <trkpt lat="42.902277" lon="-2.536072">
        <ele>559.411</ele>
        <time>2022-03-20T13:40:07Z</time>
      </trkpt>
      <trkpt lat="42.902284" lon="-2.53608">
        <ele>559.453</ele>
        <time>2022-03-20T13:40:08Z</time>
      </trkpt>
      <trkpt lat="42.90229" lon="-2.536088">
        <ele>559.478</ele>
        <time>2022-03-20T13:40:09Z</time>
      </trkpt>
      <trkpt lat="42.902297" lon="-2.536096">
        <ele>559.831</ele>
        <time>2022-03-20T13:40:10Z</time>
      </trkpt>
      <trkpt lat="42.902304" lon="-2.536104">
        <ele>560.080</ele>
        <time>2022-03-20T13:40:11Z</time>
      </trkpt>
      <trkpt lat="42.902313" lon="-2.536112">
        <ele>560.045</ele>
        <time>2022-03-20T13:40:12Z</time>
      </trkpt>
      <trkpt lat="42.902318" lon="-2.536116">
        <ele>560.066</ele>
        <time>2022-03-20T13:40:13Z</time>
      </trkpt>
      <trkpt lat="42.902328" lon="-2.536122">
        <ele>560.016</ele>
        <time>2022-03-20T13:40:14Z</time>
      </trkpt>
      <trkpt lat="42.902336" lon="-2.536129">
        <ele>560.276</ele>
        <time>2022-03-20T13:40:15Z</time>
      </trkpt>
      <trkpt lat="42.902346" lon="-2.536134">
        <ele>560.413</ele>
        <time>2022-03-20T13:40:16Z</time>
      </trkpt>
      <trkpt lat="42.902354" lon="-2.536138">
        <ele>560.808</ele>
        <time>2022-03-20T13:40:17Z</time>
      </trkpt>
      <trkpt lat="42.902362" lon="-2.536145">
        <ele>561.020</ele>
        <time>2022-03-20T13:40:18Z</time>
      </trkpt>
      <trkpt lat="42.902371" lon="-2.53615">
        <ele>560.838</ele>
        <time>2022-03-20T13:40:19Z</time>
      </trkpt>
      <trkpt lat="42.902384" lon="-2.536154">
        <ele>560.830</ele>
        <time>2022-03-20T13:40:20Z</time>
      </trkpt>
      <trkpt lat="42.902393" lon="-2.536159">
        <ele>560.855</ele>
        <time>2022-03-20T13:40:21Z</time>
      </trkpt>
      <trkpt lat="42.902399" lon="-2.536164">
        <ele>560.828</ele>
        <time>2022-03-20T13:40:22Z</time>
      </trkpt>
      <trkpt lat="42.902406" lon="-2.53617">
        <ele>560.857</ele>
        <time>2022-03-20T13:40:23Z</time>
      </trkpt>
      <trkpt lat="42.902417" lon="-2.536176">
        <ele>560.692</ele>
        <time>2022-03-20T13:40:24Z</time>
      </trkpt>
      <trkpt lat="42.902423" lon="-2.536177">
        <ele>560.693</ele>
        <time>2022-03-20T13:40:25Z</time>
      </trkpt>
      <trkpt lat="42.902429" lon="-2.53618">
        <ele>560.618</ele>
        <time>2022-03-20T13:40:26Z</time>
      </trkpt>
      <trkpt lat="42.902431" lon="-2.536177">
        <ele>560.698</ele>
        <time>2022-03-20T13:40:27Z</time>
      </trkpt>
      <trkpt lat="42.902431" lon="-2.536176">
        <ele>560.617</ele>
        <time>2022-03-20T13:40:28Z</time>
      </trkpt>
      <trkpt lat="42.902432" lon="-2.536175">
        <ele>560.608</ele>
        <time>2022-03-20T13:40:29Z</time>
      </trkpt>
      <trkpt lat="42.902429" lon="-2.536173">
        <ele>560.620</ele>
        <time>2022-03-20T13:40:30Z</time>
      </trkpt>
      <trkpt lat="42.90243" lon="-2.536172">
        <ele>560.678</ele>
        <time>2022-03-20T13:40:31Z</time>
      </trkpt>
      <trkpt lat="42.902429" lon="-2.536171">
        <ele>560.670</ele>
        <time>2022-03-20T13:40:32Z</time>
      </trkpt>
      <trkpt lat="42.90243" lon="-2.536171">
        <ele>560.695</ele>
        <time>2022-03-20T13:40:33Z</time>
      </trkpt>
      <trkpt lat="42.902431" lon="-2.536172">
        <ele>560.688</ele>
        <time>2022-03-20T13:40:34Z</time>
      </trkpt>
      <trkpt lat="42.902435" lon="-2.536173">
        <ele>560.887</ele>
        <time>2022-03-20T13:40:35Z</time>
      </trkpt>
      <trkpt lat="42.902437" lon="-2.536174">
        <ele>560.822</ele>
        <time>2022-03-20T13:40:36Z</time>
      </trkpt>
      <trkpt lat="42.902438" lon="-2.536172">
        <ele>561.223</ele>
        <time>2022-03-20T13:40:37Z</time>
      </trkpt>
      <trkpt lat="42.902438" lon="-2.536171">
        <ele>561.266</ele>
        <time>2022-03-20T13:40:38Z</time>
      </trkpt>
      <trkpt lat="42.902445" lon="-2.536177">
        <ele>561.229</ele>
        <time>2022-03-20T13:40:39Z</time>
      </trkpt>
      <trkpt lat="42.902445" lon="-2.536176">
        <ele>561.221</ele>
        <time>2022-03-20T13:40:40Z</time>
      </trkpt>
      <trkpt lat="42.902445" lon="-2.536176">
        <ele>561.208</ele>
        <time>2022-03-20T13:40:41Z</time>
      </trkpt>
      <trkpt lat="42.902445" lon="-2.536176">
        <ele>561.265</ele>
        <time>2022-03-20T13:40:42Z</time>
      </trkpt>
      <trkpt lat="42.902445" lon="-2.536176">
        <ele>561.223</ele>
        <time>2022-03-20T13:40:43Z</time>
      </trkpt>
      <trkpt lat="42.902445" lon="-2.536176">
        <ele>561.635</ele>
        <time>2022-03-20T13:40:44Z</time>
      </trkpt>
      <trkpt lat="42.902445" lon="-2.536176">
        <ele>561.680</ele>
        <time>2022-03-20T13:40:45Z</time>
      </trkpt>
      <trkpt lat="42.902445" lon="-2.536176">
        <ele>561.643</ele>
        <time>2022-03-20T13:40:46Z</time>
      </trkpt>
      <trkpt lat="42.902448" lon="-2.536176">
        <ele>561.632</ele>
        <time>2022-03-20T13:40:47Z</time>
      </trkpt>
      <trkpt lat="42.90246" lon="-2.536176">
        <ele>561.647</ele>
        <time>2022-03-20T13:40:48Z</time>
      </trkpt>
      <trkpt lat="42.90247" lon="-2.536178">
        <ele>561.638</ele>
        <time>2022-03-20T13:40:49Z</time>
      </trkpt>
      <trkpt lat="42.902479" lon="-2.53618">
        <ele>561.477</ele>
        <time>2022-03-20T13:40:50Z</time>
      </trkpt>
      <trkpt lat="42.902488" lon="-2.536181">
        <ele>561.461</ele>
        <time>2022-03-20T13:40:51Z</time>
      </trkpt>
      <trkpt lat="42.9025" lon="-2.536183">
        <ele>561.427</ele>
        <time>2022-03-20T13:40:52Z</time>
      </trkpt>
      <trkpt lat="42.902512" lon="-2.536182">
        <ele>561.408</ele>
        <time>2022-03-20T13:40:53Z</time>
      </trkpt>
      <trkpt lat="42.902524" lon="-2.536181">
        <ele>561.276</ele>
        <time>2022-03-20T13:40:54Z</time>
      </trkpt>
      <trkpt lat="42.902534" lon="-2.53618">
        <ele>561.264</ele>
        <time>2022-03-20T13:40:55Z</time>
      </trkpt>
      <trkpt lat="42.902546" lon="-2.53618">
        <ele>561.246</ele>
        <time>2022-03-20T13:40:56Z</time>
      </trkpt>
      <trkpt lat="42.902553" lon="-2.536181">
        <ele>561.291</ele>
        <time>2022-03-20T13:40:57Z</time>
      </trkpt>
      <trkpt lat="42.902565" lon="-2.536182">
        <ele>561.294</ele>
        <time>2022-03-20T13:40:58Z</time>
      </trkpt>
      <trkpt lat="42.902573" lon="-2.536183">
        <ele>561.863</ele>
        <time>2022-03-20T13:40:59Z</time>
      </trkpt>
      <trkpt lat="42.902584" lon="-2.536185">
        <ele>561.848</ele>
        <time>2022-03-20T13:41:00Z</time>
      </trkpt>
      <trkpt lat="42.902591" lon="-2.536186">
        <ele>562.039</ele>
        <time>2022-03-20T13:41:01Z</time>
      </trkpt>
      <trkpt lat="42.902598" lon="-2.536185">
        <ele>562.048</ele>
        <time>2022-03-20T13:41:02Z</time>
      </trkpt>
      <trkpt lat="42.902607" lon="-2.536184">
        <ele>562.261</ele>
        <time>2022-03-20T13:41:03Z</time>
      </trkpt>
      <trkpt lat="42.902617" lon="-2.536183">
        <ele>562.417</ele>
        <time>2022-03-20T13:41:04Z</time>
      </trkpt>
      <trkpt lat="42.902625" lon="-2.536179">
        <ele>562.808</ele>
        <time>2022-03-20T13:41:05Z</time>
      </trkpt>
      <trkpt lat="42.902633" lon="-2.536178">
        <ele>562.823</ele>
        <time>2022-03-20T13:41:06Z</time>
      </trkpt>
      <trkpt lat="42.902639" lon="-2.536182">
        <ele>562.811</ele>
        <time>2022-03-20T13:41:07Z</time>
      </trkpt>
      <trkpt lat="42.902647" lon="-2.536183">
        <ele>562.653</ele>
        <time>2022-03-20T13:41:08Z</time>
      </trkpt>
      <trkpt lat="42.902657" lon="-2.536187">
        <ele>562.478</ele>
        <time>2022-03-20T13:41:09Z</time>
      </trkpt>
      <trkpt lat="42.902663" lon="-2.536189">
        <ele>562.411</ele>
        <time>2022-03-20T13:41:10Z</time>
      </trkpt>
      <trkpt lat="42.90267" lon="-2.536191">
        <ele>562.440</ele>
        <time>2022-03-20T13:41:11Z</time>
      </trkpt>
      <trkpt lat="42.902678" lon="-2.536191">
        <ele>562.445</ele>
        <time>2022-03-20T13:41:12Z</time>
      </trkpt>
      <trkpt lat="42.902684" lon="-2.536188">
        <ele>562.446</ele>
        <time>2022-03-20T13:41:13Z</time>
      </trkpt>
      <trkpt lat="42.902692" lon="-2.536187">
        <ele>562.434</ele>
        <time>2022-03-20T13:41:14Z</time>
      </trkpt>
      <trkpt lat="42.9027" lon="-2.536187">
        <ele>562.455</ele>
        <time>2022-03-20T13:41:15Z</time>
      </trkpt>
      <trkpt lat="42.902707" lon="-2.536188">
        <ele>562.610</ele>
        <time>2022-03-20T13:41:16Z</time>
      </trkpt>
      <trkpt lat="42.902717" lon="-2.536186">
        <ele>562.608</ele>
        <time>2022-03-20T13:41:17Z</time>
      </trkpt>
      <trkpt lat="42.902725" lon="-2.536186">
        <ele>562.632</ele>
        <time>2022-03-20T13:41:18Z</time>
      </trkpt>
      <trkpt lat="42.902732" lon="-2.536187">
        <ele>562.690</ele>
        <time>2022-03-20T13:41:19Z</time>
      </trkpt>
      <trkpt lat="42.902737" lon="-2.536187">
        <ele>562.662</ele>
        <time>2022-03-20T13:41:20Z</time>
      </trkpt>
      <trkpt lat="42.902745" lon="-2.536186">
        <ele>562.877</ele>
        <time>2022-03-20T13:41:21Z</time>
      </trkpt>
      <trkpt lat="42.902755" lon="-2.536185">
        <ele>562.810</ele>
        <time>2022-03-20T13:41:22Z</time>
      </trkpt>
      <trkpt lat="42.902763" lon="-2.536186">
        <ele>562.819</ele>
        <time>2022-03-20T13:41:23Z</time>
      </trkpt>
      <trkpt lat="42.902772" lon="-2.536186">
        <ele>563.024</ele>
        <time>2022-03-20T13:41:24Z</time>
      </trkpt>
      <trkpt lat="42.90278" lon="-2.536187">
        <ele>563.055</ele>
        <time>2022-03-20T13:41:25Z</time>
      </trkpt>
      <trkpt lat="42.902787" lon="-2.536186">
        <ele>563.289</ele>
        <time>2022-03-20T13:41:26Z</time>
      </trkpt>
      <trkpt lat="42.902795" lon="-2.536187">
        <ele>563.406</ele>
        <time>2022-03-20T13:41:27Z</time>
      </trkpt>
      <trkpt lat="42.902805" lon="-2.536189">
        <ele>563.426</ele>
        <time>2022-03-20T13:41:28Z</time>
      </trkpt>
      <trkpt lat="42.902814" lon="-2.53619">
        <ele>563.408</ele>
        <time>2022-03-20T13:41:29Z</time>
      </trkpt>
      <trkpt lat="42.902818" lon="-2.536192">
        <ele>563.497</ele>
        <time>2022-03-20T13:41:30Z</time>
      </trkpt>
      <trkpt lat="42.902821" lon="-2.536189">
        <ele>563.475</ele>
        <time>2022-03-20T13:41:31Z</time>
      </trkpt>
      <trkpt lat="42.902822" lon="-2.536191">
        <ele>563.437</ele>
        <time>2022-03-20T13:41:32Z</time>
      </trkpt>
      <trkpt lat="42.902822" lon="-2.536191">
        <ele>563.462</ele>
        <time>2022-03-20T13:41:33Z</time>
      </trkpt>
      <trkpt lat="42.902824" lon="-2.536191">
        <ele>563.435</ele>
        <time>2022-03-20T13:41:34Z</time>
      </trkpt>
      <trkpt lat="42.902825" lon="-2.536195">
        <ele>563.454</ele>
        <time>2022-03-20T13:41:35Z</time>
      </trkpt>
      <trkpt lat="42.90283" lon="-2.536203">
        <ele>563.469</ele>
        <time>2022-03-20T13:41:36Z</time>
      </trkpt>
      <trkpt lat="42.902839" lon="-2.536205">
        <ele>563.430</ele>
        <time>2022-03-20T13:41:37Z</time>
      </trkpt>
      <trkpt lat="42.902848" lon="-2.536206">
        <ele>563.652</ele>
        <time>2022-03-20T13:41:38Z</time>
      </trkpt>
      <trkpt lat="42.902859" lon="-2.536207">
        <ele>563.853</ele>
        <time>2022-03-20T13:41:39Z</time>
      </trkpt>
      <trkpt lat="42.902871" lon="-2.536208">
        <ele>564.008</ele>
        <time>2022-03-20T13:41:40Z</time>
      </trkpt>
      <trkpt lat="42.902878" lon="-2.536208">
        <ele>564.008</ele>
        <time>2022-03-20T13:41:41Z</time>
      </trkpt>
      <trkpt lat="42.902888" lon="-2.536208">
        <ele>564.474</ele>
        <time>2022-03-20T13:41:42Z</time>
      </trkpt>
      <trkpt lat="42.902897" lon="-2.53621">
        <ele>564.452</ele>
        <time>2022-03-20T13:41:43Z</time>
      </trkpt>
      <trkpt lat="42.902907" lon="-2.536215">
        <ele>564.494</ele>
        <time>2022-03-20T13:41:44Z</time>
      </trkpt>
      <trkpt lat="42.902919" lon="-2.536221">
        <ele>564.619</ele>
        <time>2022-03-20T13:41:45Z</time>
      </trkpt>
      <trkpt lat="42.90293" lon="-2.536227">
        <ele>564.692</ele>
        <time>2022-03-20T13:41:46Z</time>
      </trkpt>
      <trkpt lat="42.902938" lon="-2.53623">
        <ele>565.081</ele>
        <time>2022-03-20T13:41:47Z</time>
      </trkpt>
      <trkpt lat="42.902947" lon="-2.536233">
        <ele>565.096</ele>
        <time>2022-03-20T13:41:48Z</time>
      </trkpt>
      <trkpt lat="42.902954" lon="-2.536237">
        <ele>565.057</ele>
        <time>2022-03-20T13:41:49Z</time>
      </trkpt>
      <trkpt lat="42.902965" lon="-2.536241">
        <ele>564.871</ele>
        <time>2022-03-20T13:41:50Z</time>
      </trkpt>
      <trkpt lat="42.902977" lon="-2.536247">
        <ele>565.041</ele>
        <time>2022-03-20T13:41:51Z</time>
      </trkpt>
      <trkpt lat="42.902984" lon="-2.536248">
        <ele>564.815</ele>
        <time>2022-03-20T13:41:52Z</time>
      </trkpt>
      <trkpt lat="42.902992" lon="-2.536251">
        <ele>564.808</ele>
        <time>2022-03-20T13:41:53Z</time>
      </trkpt>
      <trkpt lat="42.902999" lon="-2.536254">
        <ele>564.816</ele>
        <time>2022-03-20T13:41:54Z</time>
      </trkpt>
      <trkpt lat="42.903011" lon="-2.536258">
        <ele>565.264</ele>
        <time>2022-03-20T13:41:55Z</time>
      </trkpt>
      <trkpt lat="42.903022" lon="-2.536262">
        <ele>565.676</ele>
        <time>2022-03-20T13:41:56Z</time>
      </trkpt>
      <trkpt lat="42.903032" lon="-2.536266">
        <ele>565.861</ele>
        <time>2022-03-20T13:41:57Z</time>
      </trkpt>
      <trkpt lat="42.903042" lon="-2.536269">
        <ele>566.034</ele>
        <time>2022-03-20T13:41:58Z</time>
      </trkpt>
      <trkpt lat="42.903049" lon="-2.536273">
        <ele>566.263</ele>
        <time>2022-03-20T13:41:59Z</time>
      </trkpt>
      <trkpt lat="42.903057" lon="-2.536275">
        <ele>566.238</ele>
        <time>2022-03-20T13:42:00Z</time>
      </trkpt>
      <trkpt lat="42.90307" lon="-2.536278">
        <ele>566.249</ele>
        <time>2022-03-20T13:42:01Z</time>
      </trkpt>
      <trkpt lat="42.903078" lon="-2.536279">
        <ele>566.274</ele>
        <time>2022-03-20T13:42:02Z</time>
      </trkpt>
      <trkpt lat="42.90309" lon="-2.536281">
        <ele>566.256</ele>
        <time>2022-03-20T13:42:03Z</time>
      </trkpt>
      <trkpt lat="42.9031" lon="-2.536281">
        <ele>566.421</ele>
        <time>2022-03-20T13:42:04Z</time>
      </trkpt>
      <trkpt lat="42.903111" lon="-2.536281">
        <ele>566.608</ele>
        <time>2022-03-20T13:42:05Z</time>
      </trkpt>
      <trkpt lat="42.903122" lon="-2.536281">
        <ele>566.866</ele>
        <time>2022-03-20T13:42:06Z</time>
      </trkpt>
      <trkpt lat="42.903132" lon="-2.536281">
        <ele>567.094</ele>
        <time>2022-03-20T13:42:07Z</time>
      </trkpt>
      <trkpt lat="42.903142" lon="-2.536281">
        <ele>567.066</ele>
        <time>2022-03-20T13:42:08Z</time>
      </trkpt>
      <trkpt lat="42.903151" lon="-2.536276">
        <ele>567.091</ele>
        <time>2022-03-20T13:42:09Z</time>
      </trkpt>
      <trkpt lat="42.903162" lon="-2.536272">
        <ele>567.084</ele>
        <time>2022-03-20T13:42:10Z</time>
      </trkpt>
      <trkpt lat="42.903173" lon="-2.536269">
        <ele>567.043</ele>
        <time>2022-03-20T13:42:11Z</time>
      </trkpt>
      <trkpt lat="42.903183" lon="-2.536269">
        <ele>567.038</ele>
        <time>2022-03-20T13:42:12Z</time>
      </trkpt>
      <trkpt lat="42.903192" lon="-2.53627">
        <ele>567.039</ele>
        <time>2022-03-20T13:42:13Z</time>
      </trkpt>
      <trkpt lat="42.903204" lon="-2.536271">
        <ele>567.024</ele>
        <time>2022-03-20T13:42:14Z</time>
      </trkpt>
      <trkpt lat="42.903213" lon="-2.536271">
        <ele>567.004</ele>
        <time>2022-03-20T13:42:15Z</time>
      </trkpt>
      <trkpt lat="42.903223" lon="-2.53627">
        <ele>567.414</ele>
        <time>2022-03-20T13:42:16Z</time>
      </trkpt>
      <trkpt lat="42.903232" lon="-2.536268">
        <ele>567.408</ele>
        <time>2022-03-20T13:42:17Z</time>
      </trkpt>
      <trkpt lat="42.903239" lon="-2.536267">
        <ele>567.431</ele>
        <time>2022-03-20T13:42:18Z</time>
      </trkpt>
      <trkpt lat="42.903248" lon="-2.536265">
        <ele>567.619</ele>
        <time>2022-03-20T13:42:19Z</time>
      </trkpt>
      <trkpt lat="42.903259" lon="-2.536261">
        <ele>567.661</ele>
        <time>2022-03-20T13:42:20Z</time>
      </trkpt>
      <trkpt lat="42.903269" lon="-2.536258">
        <ele>567.476</ele>
        <time>2022-03-20T13:42:21Z</time>
      </trkpt>
      <trkpt lat="42.90328" lon="-2.536256">
        <ele>567.449</ele>
        <time>2022-03-20T13:42:22Z</time>
      </trkpt>
      <trkpt lat="42.90329" lon="-2.536253">
        <ele>567.478</ele>
        <time>2022-03-20T13:42:23Z</time>
      </trkpt>
      <trkpt lat="42.9033" lon="-2.53625">
        <ele>567.433</ele>
        <time>2022-03-20T13:42:24Z</time>
      </trkpt>
      <trkpt lat="42.903307" lon="-2.536249">
        <ele>567.414</ele>
        <time>2022-03-20T13:42:25Z</time>
      </trkpt>
      <trkpt lat="42.903317" lon="-2.536247">
        <ele>567.485</ele>
        <time>2022-03-20T13:42:26Z</time>
      </trkpt>
      <trkpt lat="42.903324" lon="-2.536244">
        <ele>567.489</ele>
        <time>2022-03-20T13:42:27Z</time>
      </trkpt>
      <trkpt lat="42.903331" lon="-2.536242">
        <ele>567.417</ele>
        <time>2022-03-20T13:42:28Z</time>
      </trkpt>
      <trkpt lat="42.903338" lon="-2.53624">
        <ele>567.808</ele>
        <time>2022-03-20T13:42:29Z</time>
      </trkpt>
      <trkpt lat="42.903347" lon="-2.536241">
        <ele>567.847</ele>
        <time>2022-03-20T13:42:30Z</time>
      </trkpt>
      <trkpt lat="42.903356" lon="-2.536241">
        <ele>567.885</ele>
        <time>2022-03-20T13:42:31Z</time>
      </trkpt>
      <trkpt lat="42.903365" lon="-2.536239">
        <ele>568.037</ele>
        <time>2022-03-20T13:42:32Z</time>
      </trkpt>
      <trkpt lat="42.903373" lon="-2.536236">
        <ele>568.082</ele>
        <time>2022-03-20T13:42:33Z</time>
      </trkpt>
      <trkpt lat="42.903381" lon="-2.536234">
        <ele>568.085</ele>
        <time>2022-03-20T13:42:34Z</time>
      </trkpt>
      <trkpt lat="42.903392" lon="-2.536228">
        <ele>568.064</ele>
        <time>2022-03-20T13:42:35Z</time>
      </trkpt>
      <trkpt lat="42.903395" lon="-2.536223">
        <ele>568.059</ele>
        <time>2022-03-20T13:42:36Z</time>
      </trkpt>
      <trkpt lat="42.903395" lon="-2.536218">
        <ele>568.090</ele>
        <time>2022-03-20T13:42:37Z</time>
      </trkpt>
      <trkpt lat="42.903396" lon="-2.536216">
        <ele>568.084</ele>
        <time>2022-03-20T13:42:38Z</time>
      </trkpt>
      <trkpt lat="42.9034" lon="-2.536216">
        <ele>568.007</ele>
        <time>2022-03-20T13:42:39Z</time>
      </trkpt>
      <trkpt lat="42.903409" lon="-2.536214">
        <ele>568.017</ele>
        <time>2022-03-20T13:42:40Z</time>
      </trkpt>
      <trkpt lat="42.903417" lon="-2.536211">
        <ele>568.008</ele>
        <time>2022-03-20T13:42:41Z</time>
      </trkpt>
      <trkpt lat="42.903425" lon="-2.536208">
        <ele>568.027</ele>
        <time>2022-03-20T13:42:42Z</time>
      </trkpt>
      <trkpt lat="42.903436" lon="-2.536204">
        <ele>568.015</ele>
        <time>2022-03-20T13:42:43Z</time>
      </trkpt>
      <trkpt lat="42.903445" lon="-2.536201">
        <ele>568.017</ele>
        <time>2022-03-20T13:42:44Z</time>
      </trkpt>
      <trkpt lat="42.903457" lon="-2.536198">
        <ele>568.222</ele>
        <time>2022-03-20T13:42:45Z</time>
      </trkpt>
      <trkpt lat="42.903468" lon="-2.536193">
        <ele>568.075</ele>
        <time>2022-03-20T13:42:46Z</time>
      </trkpt>
      <trkpt lat="42.903477" lon="-2.53619">
        <ele>568.084</ele>
        <time>2022-03-20T13:42:47Z</time>
      </trkpt>
      <trkpt lat="42.903488" lon="-2.536186">
        <ele>568.249</ele>
        <time>2022-03-20T13:42:48Z</time>
      </trkpt>
      <trkpt lat="42.903499" lon="-2.53618">
        <ele>568.260</ele>
        <time>2022-03-20T13:42:49Z</time>
      </trkpt>
      <trkpt lat="42.903512" lon="-2.536178">
        <ele>568.455</ele>
        <time>2022-03-20T13:42:50Z</time>
      </trkpt>
      <trkpt lat="42.903522" lon="-2.536177">
        <ele>568.207</ele>
        <time>2022-03-20T13:42:51Z</time>
      </trkpt>
      <trkpt lat="42.903532" lon="-2.536174">
        <ele>568.217</ele>
        <time>2022-03-20T13:42:52Z</time>
      </trkpt>
      <trkpt lat="42.903543" lon="-2.53617">
        <ele>568.208</ele>
        <time>2022-03-20T13:42:53Z</time>
      </trkpt>
      <trkpt lat="42.903555" lon="-2.536167">
        <ele>568.224</ele>
        <time>2022-03-20T13:42:54Z</time>
      </trkpt>
      <trkpt lat="42.903566" lon="-2.536163">
        <ele>568.292</ele>
        <time>2022-03-20T13:42:55Z</time>
      </trkpt>
      <trkpt lat="42.903576" lon="-2.53616">
        <ele>568.284</ele>
        <time>2022-03-20T13:42:56Z</time>
      </trkpt>
      <trkpt lat="42.903585" lon="-2.536159">
        <ele>568.219</ele>
        <time>2022-03-20T13:42:57Z</time>
      </trkpt>
      <trkpt lat="42.903595" lon="-2.536156">
        <ele>568.292</ele>
        <time>2022-03-20T13:42:58Z</time>
      </trkpt>
      <trkpt lat="42.903609" lon="-2.536154">
        <ele>568.251</ele>
        <time>2022-03-20T13:42:59Z</time>
      </trkpt>
      <trkpt lat="42.90362" lon="-2.536152">
        <ele>568.276</ele>
        <time>2022-03-20T13:43:00Z</time>
      </trkpt>
      <trkpt lat="42.903629" lon="-2.536153">
        <ele>568.477</ele>
        <time>2022-03-20T13:43:01Z</time>
      </trkpt>
      <trkpt lat="42.90364" lon="-2.536153">
        <ele>568.648</ele>
        <time>2022-03-20T13:43:02Z</time>
      </trkpt>
      <trkpt lat="42.903651" lon="-2.536152">
        <ele>568.661</ele>
        <time>2022-03-20T13:43:03Z</time>
      </trkpt>
      <trkpt lat="42.903664" lon="-2.53615">
        <ele>568.617</ele>
        <time>2022-03-20T13:43:04Z</time>
      </trkpt>
      <trkpt lat="42.903675" lon="-2.536148">
        <ele>568.208</ele>
        <time>2022-03-20T13:43:05Z</time>
      </trkpt>
      <trkpt lat="42.903686" lon="-2.536147">
        <ele>568.433</ele>
        <time>2022-03-20T13:43:06Z</time>
      </trkpt>
      <trkpt lat="42.903696" lon="-2.536144">
        <ele>568.461</ele>
        <time>2022-03-20T13:43:07Z</time>
      </trkpt>
      <trkpt lat="42.903706" lon="-2.536143">
        <ele>568.473</ele>
        <time>2022-03-20T13:43:08Z</time>
      </trkpt>
      <trkpt lat="42.903715" lon="-2.536141">
        <ele>568.468</ele>
        <time>2022-03-20T13:43:09Z</time>
      </trkpt>
      <trkpt lat="42.903727" lon="-2.53614">
        <ele>568.621</ele>
        <time>2022-03-20T13:43:10Z</time>
      </trkpt>
      <trkpt lat="42.903738" lon="-2.536142">
        <ele>568.820</ele>
        <time>2022-03-20T13:43:11Z</time>
      </trkpt>
      <trkpt lat="42.903749" lon="-2.536144">
        <ele>568.885</ele>
        <time>2022-03-20T13:43:12Z</time>
      </trkpt>
      <trkpt lat="42.903759" lon="-2.536145">
        <ele>568.836</ele>
        <time>2022-03-20T13:43:13Z</time>
      </trkpt>
      <trkpt lat="42.90377" lon="-2.536146">
        <ele>568.634</ele>
        <time>2022-03-20T13:43:14Z</time>
      </trkpt>
      <trkpt lat="42.90378" lon="-2.536149">
        <ele>568.655</ele>
        <time>2022-03-20T13:43:15Z</time>
      </trkpt>
      <trkpt lat="42.90379" lon="-2.536153">
        <ele>568.610</ele>
        <time>2022-03-20T13:43:16Z</time>
      </trkpt>
      <trkpt lat="42.903793" lon="-2.536152">
        <ele>568.808</ele>
        <time>2022-03-20T13:43:17Z</time>
      </trkpt>
      <trkpt lat="42.903797" lon="-2.536152">
        <ele>568.662</ele>
        <time>2022-03-20T13:43:18Z</time>
      </trkpt>
      <trkpt lat="42.903803" lon="-2.536152">
        <ele>568.640</ele>
        <time>2022-03-20T13:43:19Z</time>
      </trkpt>
      <trkpt lat="42.90381" lon="-2.536155">
        <ele>569.032</ele>
        <time>2022-03-20T13:43:20Z</time>
      </trkpt>
      <trkpt lat="42.903819" lon="-2.536157">
        <ele>569.047</ele>
        <time>2022-03-20T13:43:21Z</time>
      </trkpt>
      <trkpt lat="42.903826" lon="-2.536159">
        <ele>568.830</ele>
        <time>2022-03-20T13:43:22Z</time>
      </trkpt>
      <trkpt lat="42.903835" lon="-2.536162">
        <ele>568.649</ele>
        <time>2022-03-20T13:43:23Z</time>
      </trkpt>
      <trkpt lat="42.903845" lon="-2.536167">
        <ele>568.634</ele>
        <time>2022-03-20T13:43:24Z</time>
      </trkpt>
      <trkpt lat="42.903854" lon="-2.536174">
        <ele>568.665</ele>
        <time>2022-03-20T13:43:25Z</time>
      </trkpt>
      <trkpt lat="42.903863" lon="-2.536177">
        <ele>568.674</ele>
        <time>2022-03-20T13:43:26Z</time>
      </trkpt>
      <trkpt lat="42.903871" lon="-2.536179">
        <ele>568.456</ele>
        <time>2022-03-20T13:43:27Z</time>
      </trkpt>
      <trkpt lat="42.90388" lon="-2.536181">
        <ele>568.421</ele>
        <time>2022-03-20T13:43:28Z</time>
      </trkpt>
      <trkpt lat="42.903888" lon="-2.536184">
        <ele>568.408</ele>
        <time>2022-03-20T13:43:29Z</time>
      </trkpt>
      <trkpt lat="42.903896" lon="-2.536186">
        <ele>568.446</ele>
        <time>2022-03-20T13:43:30Z</time>
      </trkpt>
      <trkpt lat="42.903905" lon="-2.536189">
        <ele>568.414</ele>
        <time>2022-03-20T13:43:31Z</time>
      </trkpt>
      <trkpt lat="42.90391" lon="-2.536188">
        <ele>568.486</ele>
        <time>2022-03-20T13:43:32Z</time>
      </trkpt>
      <trkpt lat="42.903906" lon="-2.536184">
        <ele>568.461</ele>
        <time>2022-03-20T13:43:33Z</time>
      </trkpt>
      <trkpt lat="42.903905" lon="-2.536179">
        <ele>568.434</ele>
        <time>2022-03-20T13:43:34Z</time>
      </trkpt>
      <trkpt lat="42.903904" lon="-2.536175">
        <ele>568.463</ele>
        <time>2022-03-20T13:43:35Z</time>
      </trkpt>
      <trkpt lat="42.903906" lon="-2.536175">
        <ele>568.268</ele>
        <time>2022-03-20T13:43:36Z</time>
      </trkpt>
      <trkpt lat="42.903907" lon="-2.536175">
        <ele>568.259</ele>
        <time>2022-03-20T13:43:37Z</time>
      </trkpt>
      <trkpt lat="42.903908" lon="-2.536174">
        <ele>568.236</ele>
        <time>2022-03-20T13:43:38Z</time>
      </trkpt>
      <trkpt lat="42.903911" lon="-2.536177">
        <ele>568.017</ele>
        <time>2022-03-20T13:43:39Z</time>
      </trkpt>
      <trkpt lat="42.903914" lon="-2.536178">
        <ele>568.018</ele>
        <time>2022-03-20T13:43:40Z</time>
      </trkpt>
      <trkpt lat="42.903918" lon="-2.536179">
        <ele>568.008</ele>
        <time>2022-03-20T13:43:41Z</time>
      </trkpt>
      <trkpt lat="42.903917" lon="-2.536177">
        <ele>567.842</ele>
        <time>2022-03-20T13:43:42Z</time>
      </trkpt>
      <trkpt lat="42.903917" lon="-2.536177">
        <ele>567.660</ele>
        <time>2022-03-20T13:43:43Z</time>
      </trkpt>
      <trkpt lat="42.903917" lon="-2.536177">
        <ele>567.682</ele>
        <time>2022-03-20T13:43:44Z</time>
      </trkpt>
      <trkpt lat="42.903917" lon="-2.536177">
        <ele>567.647</ele>
        <time>2022-03-20T13:43:45Z</time>
      </trkpt>
      <trkpt lat="42.903917" lon="-2.536177">
        <ele>567.640</ele>
        <time>2022-03-20T13:43:46Z</time>
      </trkpt>
      <trkpt lat="42.903917" lon="-2.536177">
        <ele>567.829</ele>
        <time>2022-03-20T13:43:47Z</time>
      </trkpt>
      <trkpt lat="42.903917" lon="-2.536177">
        <ele>567.874</ele>
        <time>2022-03-20T13:43:48Z</time>
      </trkpt>
      <trkpt lat="42.903917" lon="-2.536177">
        <ele>567.875</ele>
        <time>2022-03-20T13:43:49Z</time>
      </trkpt>
      <trkpt lat="42.903917" lon="-2.536177">
        <ele>568.422</ele>
        <time>2022-03-20T13:43:50Z</time>
      </trkpt>
      <trkpt lat="42.903917" lon="-2.536177">
        <ele>567.862</ele>
        <time>2022-03-20T13:43:51Z</time>
      </trkpt>
      <trkpt lat="42.903917" lon="-2.536177">
        <ele>568.408</ele>
        <time>2022-03-20T13:43:52Z</time>
      </trkpt>
      <trkpt lat="42.903917" lon="-2.536177">
        <ele>568.208</ele>
        <time>2022-03-20T13:43:53Z</time>
      </trkpt>
      <trkpt lat="42.903917" lon="-2.536175">
        <ele>568.231</ele>
        <time>2022-03-20T13:43:54Z</time>
      </trkpt>
      <trkpt lat="42.903917" lon="-2.536175">
        <ele>568.049</ele>
        <time>2022-03-20T13:43:55Z</time>
      </trkpt>
      <trkpt lat="42.903917" lon="-2.536175">
        <ele>568.041</ele>
        <time>2022-03-20T13:43:56Z</time>
      </trkpt>
      <trkpt lat="42.903917" lon="-2.536175">
        <ele>568.026</ele>
        <time>2022-03-20T13:43:57Z</time>
      </trkpt>
      <trkpt lat="42.903917" lon="-2.536175">
        <ele>568.039</ele>
        <time>2022-03-20T13:43:58Z</time>
      </trkpt>
      <trkpt lat="42.903917" lon="-2.536175">
        <ele>568.078</ele>
        <time>2022-03-20T13:43:59Z</time>
      </trkpt>
      <trkpt lat="42.903918" lon="-2.536175">
        <ele>568.023</ele>
        <time>2022-03-20T13:44:00Z</time>
      </trkpt>
      <trkpt lat="42.903918" lon="-2.536175">
        <ele>567.874</ele>
        <time>2022-03-20T13:44:01Z</time>
      </trkpt>
      <trkpt lat="42.903918" lon="-2.536175">
        <ele>567.883</ele>
        <time>2022-03-20T13:44:02Z</time>
      </trkpt>
      <trkpt lat="42.903918" lon="-2.536175">
        <ele>567.825</ele>
        <time>2022-03-20T13:44:03Z</time>
      </trkpt>
      <trkpt lat="42.903919" lon="-2.536175">
        <ele>567.817</ele>
        <time>2022-03-20T13:44:04Z</time>
      </trkpt>
      <trkpt lat="42.90392" lon="-2.536175">
        <ele>567.608</ele>
        <time>2022-03-20T13:44:05Z</time>
      </trkpt>
      <trkpt lat="42.903922" lon="-2.536175">
        <ele>567.487</ele>
        <time>2022-03-20T13:44:06Z</time>
      </trkpt>
      <trkpt lat="42.903922" lon="-2.536175">
        <ele>567.455</ele>
        <time>2022-03-20T13:44:07Z</time>
      </trkpt>
      <trkpt lat="42.903922" lon="-2.536175">
        <ele>567.497</ele>
        <time>2022-03-20T13:44:08Z</time>
      </trkpt>
      <trkpt lat="42.903927" lon="-2.536177">
        <ele>567.432</ele>
        <time>2022-03-20T13:44:09Z</time>
      </trkpt>
      <trkpt lat="42.903942" lon="-2.53618">
        <ele>567.465</ele>
        <time>2022-03-20T13:44:10Z</time>
      </trkpt>
      <trkpt lat="42.903955" lon="-2.536183">
        <ele>567.024</ele>
        <time>2022-03-20T13:44:11Z</time>
      </trkpt>
      <trkpt lat="42.903968" lon="-2.536185">
        <ele>567.069</ele>
        <time>2022-03-20T13:44:12Z</time>
      </trkpt>
      <trkpt lat="42.903984" lon="-2.536189">
        <ele>567.040</ele>
        <time>2022-03-20T13:44:13Z</time>
      </trkpt>
      <trkpt lat="42.903998" lon="-2.536192">
        <ele>567.057</ele>
        <time>2022-03-20T13:44:14Z</time>
      </trkpt>
      <trkpt lat="42.904012" lon="-2.536196">
        <ele>566.600</ele>
        <time>2022-03-20T13:44:15Z</time>
      </trkpt>
      <trkpt lat="42.904026" lon="-2.536201">
        <ele>566.620</ele>
        <time>2022-03-20T13:44:16Z</time>
      </trkpt>
      <trkpt lat="42.904038" lon="-2.536203">
        <ele>566.608</ele>
        <time>2022-03-20T13:44:17Z</time>
      </trkpt>
      <trkpt lat="42.904052" lon="-2.536205">
        <ele>566.634</ele>
        <time>2022-03-20T13:44:18Z</time>
      </trkpt>
      <trkpt lat="42.904061" lon="-2.536206">
        <ele>566.682</ele>
        <time>2022-03-20T13:44:19Z</time>
      </trkpt>
      <trkpt lat="42.90407" lon="-2.536207">
        <ele>566.694</ele>
        <time>2022-03-20T13:44:20Z</time>
      </trkpt>
      <trkpt lat="42.904078" lon="-2.536207">
        <ele>566.629</ele>
        <time>2022-03-20T13:44:21Z</time>
      </trkpt>
      <trkpt lat="42.90409" lon="-2.536209">
        <ele>567.442</ele>
        <time>2022-03-20T13:44:22Z</time>
      </trkpt>
      <trkpt lat="42.904098" lon="-2.536208">
        <ele>567.441</ele>
        <time>2022-03-20T13:44:23Z</time>
      </trkpt>
      <trkpt lat="42.904107" lon="-2.536206">
        <ele>567.426</ele>
        <time>2022-03-20T13:44:24Z</time>
      </trkpt>
      <trkpt lat="42.904117" lon="-2.536206">
        <ele>567.467</ele>
        <time>2022-03-20T13:44:25Z</time>
      </trkpt>
      <trkpt lat="42.904126" lon="-2.536206">
        <ele>567.459</ele>
        <time>2022-03-20T13:44:26Z</time>
      </trkpt>
      <trkpt lat="42.904132" lon="-2.536205">
        <ele>567.203</ele>
        <time>2022-03-20T13:44:27Z</time>
      </trkpt>
      <trkpt lat="42.904141" lon="-2.536208">
        <ele>567.223</ele>
        <time>2022-03-20T13:44:28Z</time>
      </trkpt>
      <trkpt lat="42.90415" lon="-2.536212">
        <ele>567.008</ele>
        <time>2022-03-20T13:44:29Z</time>
      </trkpt>
      <trkpt lat="42.90416" lon="-2.536217">
        <ele>566.834</ele>
        <time>2022-03-20T13:44:30Z</time>
      </trkpt>
      <trkpt lat="42.904169" lon="-2.536221">
        <ele>566.252</ele>
        <time>2022-03-20T13:44:31Z</time>
      </trkpt>
      <trkpt lat="42.90418" lon="-2.536222">
        <ele>566.234</ele>
        <time>2022-03-20T13:44:32Z</time>
      </trkpt>
      <trkpt lat="42.90419" lon="-2.536225">
        <ele>566.219</ele>
        <time>2022-03-20T13:44:33Z</time>
      </trkpt>
      <trkpt lat="42.9042" lon="-2.536227">
        <ele>566.232</ele>
        <time>2022-03-20T13:44:34Z</time>
      </trkpt>
      <trkpt lat="42.904209" lon="-2.53623">
        <ele>566.281</ele>
        <time>2022-03-20T13:44:35Z</time>
      </trkpt>
      <trkpt lat="42.904218" lon="-2.536234">
        <ele>566.676</ele>
        <time>2022-03-20T13:44:36Z</time>
      </trkpt>
      <trkpt lat="42.904227" lon="-2.536236">
        <ele>566.677</ele>
        <time>2022-03-20T13:44:37Z</time>
      </trkpt>
      <trkpt lat="42.904237" lon="-2.536239">
        <ele>566.669</ele>
        <time>2022-03-20T13:44:38Z</time>
      </trkpt>
      <trkpt lat="42.904244" lon="-2.536238">
        <ele>566.604</ele>
        <time>2022-03-20T13:44:39Z</time>
      </trkpt>
      <trkpt lat="42.904254" lon="-2.536237">
        <ele>566.424</ele>
        <time>2022-03-20T13:44:40Z</time>
      </trkpt>
      <trkpt lat="42.904263" lon="-2.536235">
        <ele>566.608</ele>
        <time>2022-03-20T13:44:41Z</time>
      </trkpt>
      <trkpt lat="42.904274" lon="-2.536237">
        <ele>566.685</ele>
        <time>2022-03-20T13:44:42Z</time>
      </trkpt>
      <trkpt lat="42.904284" lon="-2.536238">
        <ele>566.423</ele>
        <time>2022-03-20T13:44:43Z</time>
      </trkpt>
      <trkpt lat="42.904293" lon="-2.536238">
        <ele>566.415</ele>
        <time>2022-03-20T13:44:44Z</time>
      </trkpt>
      <trkpt lat="42.904303" lon="-2.53624">
        <ele>566.420</ele>
        <time>2022-03-20T13:44:45Z</time>
      </trkpt>
      <trkpt lat="42.904312" lon="-2.536243">
        <ele>566.423</ele>
        <time>2022-03-20T13:44:46Z</time>
      </trkpt>
      <trkpt lat="42.904321" lon="-2.536246">
        <ele>566.682</ele>
        <time>2022-03-20T13:44:47Z</time>
      </trkpt>
      <trkpt lat="42.90433" lon="-2.536247">
        <ele>566.637</ele>
        <time>2022-03-20T13:44:48Z</time>
      </trkpt>
      <trkpt lat="42.904339" lon="-2.536249">
        <ele>566.698</ele>
        <time>2022-03-20T13:44:49Z</time>
      </trkpt>
      <trkpt lat="42.904347" lon="-2.536252">
        <ele>566.636</ele>
        <time>2022-03-20T13:44:50Z</time>
      </trkpt>
      <trkpt lat="42.904356" lon="-2.536255">
        <ele>566.617</ele>
        <time>2022-03-20T13:44:51Z</time>
      </trkpt>
      <trkpt lat="42.904367" lon="-2.536256">
        <ele>566.618</ele>
        <time>2022-03-20T13:44:52Z</time>
      </trkpt>
      <trkpt lat="42.904375" lon="-2.536256">
        <ele>566.608</ele>
        <time>2022-03-20T13:44:53Z</time>
      </trkpt>
      <trkpt lat="42.904386" lon="-2.536259">
        <ele>566.642</ele>
        <time>2022-03-20T13:44:54Z</time>
      </trkpt>
      <trkpt lat="42.904396" lon="-2.53626">
        <ele>566.630</ele>
        <time>2022-03-20T13:44:55Z</time>
      </trkpt>
      <trkpt lat="42.904404" lon="-2.53626">
        <ele>566.642</ele>
        <time>2022-03-20T13:44:56Z</time>
      </trkpt>
      <trkpt lat="42.904412" lon="-2.536259">
        <ele>566.677</ele>
        <time>2022-03-20T13:44:57Z</time>
      </trkpt>
      <trkpt lat="42.90442" lon="-2.536261">
        <ele>566.690</ele>
        <time>2022-03-20T13:44:58Z</time>
      </trkpt>
      <trkpt lat="42.90443" lon="-2.536263">
        <ele>566.839</ele>
        <time>2022-03-20T13:44:59Z</time>
      </trkpt>
      <trkpt lat="42.904439" lon="-2.536264">
        <ele>566.844</ele>
        <time>2022-03-20T13:45:00Z</time>
      </trkpt>
      <trkpt lat="42.904449" lon="-2.536264">
        <ele>566.445</ele>
        <time>2022-03-20T13:45:01Z</time>
      </trkpt>
      <trkpt lat="42.904458" lon="-2.536266">
        <ele>566.444</ele>
        <time>2022-03-20T13:45:02Z</time>
      </trkpt>
      <trkpt lat="42.904469" lon="-2.536266">
        <ele>566.405</ele>
        <time>2022-03-20T13:45:03Z</time>
      </trkpt>
      <trkpt lat="42.904479" lon="-2.536266">
        <ele>566.415</ele>
        <time>2022-03-20T13:45:04Z</time>
      </trkpt>
      <trkpt lat="42.904488" lon="-2.536265">
        <ele>566.408</ele>
        <time>2022-03-20T13:45:05Z</time>
      </trkpt>
      <trkpt lat="42.904497" lon="-2.536268">
        <ele>566.443</ele>
        <time>2022-03-20T13:45:06Z</time>
      </trkpt>
      <trkpt lat="42.904505" lon="-2.53627">
        <ele>566.251</ele>
        <time>2022-03-20T13:45:07Z</time>
      </trkpt>
      <trkpt lat="42.904514" lon="-2.536277">
        <ele>566.483</ele>
        <time>2022-03-20T13:45:08Z</time>
      </trkpt>
      <trkpt lat="42.904522" lon="-2.53628">
        <ele>566.498</ele>
        <time>2022-03-20T13:45:09Z</time>
      </trkpt>
      <trkpt lat="42.904532" lon="-2.536285">
        <ele>566.441</ele>
        <time>2022-03-20T13:45:10Z</time>
      </trkpt>
      <trkpt lat="42.904541" lon="-2.536289">
        <ele>566.410</ele>
        <time>2022-03-20T13:45:11Z</time>
      </trkpt>
      <trkpt lat="42.90455" lon="-2.53629">
        <ele>566.475</ele>
        <time>2022-03-20T13:45:12Z</time>
      </trkpt>
      <trkpt lat="42.904559" lon="-2.536292">
        <ele>566.486</ele>
        <time>2022-03-20T13:45:13Z</time>
      </trkpt>
      <trkpt lat="42.904569" lon="-2.536294">
        <ele>566.487</ele>
        <time>2022-03-20T13:45:14Z</time>
      </trkpt>
      <trkpt lat="42.904578" lon="-2.536297">
        <ele>566.442</ele>
        <time>2022-03-20T13:45:15Z</time>
      </trkpt>
      <trkpt lat="42.904587" lon="-2.5363">
        <ele>566.426</ele>
        <time>2022-03-20T13:45:16Z</time>
      </trkpt>
      <trkpt lat="42.904595" lon="-2.536301">
        <ele>567.008</ele>
        <time>2022-03-20T13:45:17Z</time>
      </trkpt>
      <trkpt lat="42.904604" lon="-2.536304">
        <ele>567.027</ele>
        <time>2022-03-20T13:45:18Z</time>
      </trkpt>
      <trkpt lat="42.904612" lon="-2.536305">
        <ele>567.025</ele>
        <time>2022-03-20T13:45:19Z</time>
      </trkpt>
      <trkpt lat="42.904621" lon="-2.536308">
        <ele>566.667</ele>
        <time>2022-03-20T13:45:20Z</time>
      </trkpt>
      <trkpt lat="42.904627" lon="-2.536312">
        <ele>566.662</ele>
        <time>2022-03-20T13:45:21Z</time>
      </trkpt>
      <trkpt lat="42.904632" lon="-2.536314">
        <ele>566.685</ele>
        <time>2022-03-20T13:45:22Z</time>
      </trkpt>
      <trkpt lat="42.904635" lon="-2.536318">
        <ele>566.614</ele>
        <time>2022-03-20T13:45:23Z</time>
      </trkpt>
      <trkpt lat="42.904636" lon="-2.536326">
        <ele>566.639</ele>
        <time>2022-03-20T13:45:24Z</time>
      </trkpt>
      <trkpt lat="42.904634" lon="-2.536332">
        <ele>566.630</ele>
        <time>2022-03-20T13:45:25Z</time>
      </trkpt>
      <trkpt lat="42.904635" lon="-2.536333">
        <ele>566.652</ele>
        <time>2022-03-20T13:45:26Z</time>
      </trkpt>
      <trkpt lat="42.904635" lon="-2.536332">
        <ele>566.653</ele>
        <time>2022-03-20T13:45:27Z</time>
      </trkpt>
      <trkpt lat="42.904635" lon="-2.536331">
        <ele>566.608</ele>
        <time>2022-03-20T13:45:28Z</time>
      </trkpt>
      <trkpt lat="42.904636" lon="-2.53633">
        <ele>566.608</ele>
        <time>2022-03-20T13:45:29Z</time>
      </trkpt>
      <trkpt lat="42.90464" lon="-2.536333">
        <ele>566.434</ele>
        <time>2022-03-20T13:45:30Z</time>
      </trkpt>
      <trkpt lat="42.904644" lon="-2.536334">
        <ele>566.012</ele>
        <time>2022-03-20T13:45:31Z</time>
      </trkpt>
      <trkpt lat="42.904644" lon="-2.536332">
        <ele>566.014</ele>
        <time>2022-03-20T13:45:32Z</time>
      </trkpt>
      <trkpt lat="42.904645" lon="-2.536331">
        <ele>565.839</ele>
        <time>2022-03-20T13:45:33Z</time>
      </trkpt>
      <trkpt lat="42.904645" lon="-2.536331">
        <ele>565.682</ele>
        <time>2022-03-20T13:45:34Z</time>
      </trkpt>
      <trkpt lat="42.904645" lon="-2.536331">
        <ele>565.251</ele>
        <time>2022-03-20T13:45:35Z</time>
      </trkpt>
      <trkpt lat="42.904645" lon="-2.536331">
        <ele>565.286</ele>
        <time>2022-03-20T13:45:36Z</time>
      </trkpt>
      <trkpt lat="42.904645" lon="-2.536331">
        <ele>565.237</ele>
        <time>2022-03-20T13:45:37Z</time>
      </trkpt>
      <trkpt lat="42.904645" lon="-2.536331">
        <ele>565.033</ele>
        <time>2022-03-20T13:45:38Z</time>
      </trkpt>
      <trkpt lat="42.904645" lon="-2.536331">
        <ele>565.023</ele>
        <time>2022-03-20T13:45:39Z</time>
      </trkpt>
      <trkpt lat="42.904645" lon="-2.536331">
        <ele>565.015</ele>
        <time>2022-03-20T13:45:40Z</time>
      </trkpt>
      <trkpt lat="42.904645" lon="-2.536331">
        <ele>565.008</ele>
        <time>2022-03-20T13:45:41Z</time>
      </trkpt>
      <trkpt lat="42.904645" lon="-2.536331">
        <ele>565.092</ele>
        <time>2022-03-20T13:45:42Z</time>
      </trkpt>
      <trkpt lat="42.904645" lon="-2.536331">
        <ele>565.490</ele>
        <time>2022-03-20T13:45:43Z</time>
      </trkpt>
      <trkpt lat="42.904645" lon="-2.536331">
        <ele>565.432</ele>
        <time>2022-03-20T13:45:44Z</time>
      </trkpt>
      <trkpt lat="42.904645" lon="-2.536331">
        <ele>565.887</ele>
        <time>2022-03-20T13:45:45Z</time>
      </trkpt>
      <trkpt lat="42.904644" lon="-2.536331">
        <ele>566.070</ele>
        <time>2022-03-20T13:45:46Z</time>
      </trkpt>
      <trkpt lat="42.904644" lon="-2.536331">
        <ele>566.059</ele>
        <time>2022-03-20T13:45:47Z</time>
      </trkpt>
      <trkpt lat="42.904644" lon="-2.536331">
        <ele>566.084</ele>
        <time>2022-03-20T13:45:48Z</time>
      </trkpt>
      <trkpt lat="42.904644" lon="-2.536331">
        <ele>566.085</ele>
        <time>2022-03-20T13:45:49Z</time>
      </trkpt>
      <trkpt lat="42.904644" lon="-2.536331">
        <ele>566.067</ele>
        <time>2022-03-20T13:45:50Z</time>
      </trkpt>
      <trkpt lat="42.904644" lon="-2.536331">
        <ele>566.281</ele>
        <time>2022-03-20T13:45:51Z</time>
      </trkpt>
      <trkpt lat="42.904649" lon="-2.53633">
        <ele>566.019</ele>
        <time>2022-03-20T13:45:52Z</time>
      </trkpt>
      <trkpt lat="42.904663" lon="-2.536331">
        <ele>566.008</ele>
        <time>2022-03-20T13:45:53Z</time>
      </trkpt>
      <trkpt lat="42.904676" lon="-2.536327">
        <ele>565.895</ele>
        <time>2022-03-20T13:45:54Z</time>
      </trkpt>
      <trkpt lat="42.904688" lon="-2.536323">
        <ele>565.813</ele>
        <time>2022-03-20T13:45:55Z</time>
      </trkpt>
      <trkpt lat="42.904701" lon="-2.536321">
        <ele>565.885</ele>
        <time>2022-03-20T13:45:56Z</time>
      </trkpt>
      <trkpt lat="42.904713" lon="-2.536321">
        <ele>565.820</ele>
        <time>2022-03-20T13:45:57Z</time>
      </trkpt>
      <trkpt lat="42.904726" lon="-2.53632">
        <ele>565.673</ele>
        <time>2022-03-20T13:45:58Z</time>
      </trkpt>
      <trkpt lat="42.90474" lon="-2.536322">
        <ele>565.662</ele>
        <time>2022-03-20T13:45:59Z</time>
      </trkpt>
      <trkpt lat="42.904754" lon="-2.536322">
        <ele>565.847</ele>
        <time>2022-03-20T13:46:00Z</time>
      </trkpt>
      <trkpt lat="42.904766" lon="-2.53632">
        <ele>565.828</ele>
        <time>2022-03-20T13:46:01Z</time>
      </trkpt>
      <trkpt lat="42.904774" lon="-2.53632">
        <ele>565.857</ele>
        <time>2022-03-20T13:46:02Z</time>
      </trkpt>
      <trkpt lat="42.904785" lon="-2.536322">
        <ele>566.000</ele>
        <time>2022-03-20T13:46:03Z</time>
      </trkpt>
      <trkpt lat="42.904794" lon="-2.536323">
        <ele>566.020</ele>
        <time>2022-03-20T13:46:04Z</time>
      </trkpt>
      <trkpt lat="42.904803" lon="-2.536326">
        <ele>566.008</ele>
        <time>2022-03-20T13:46:05Z</time>
      </trkpt>
      <trkpt lat="42.904811" lon="-2.536327">
        <ele>566.034</ele>
        <time>2022-03-20T13:46:06Z</time>
      </trkpt>
      <trkpt lat="42.904817" lon="-2.536327">
        <ele>566.052</ele>
        <time>2022-03-20T13:46:07Z</time>
      </trkpt>
      <trkpt lat="42.904827" lon="-2.536329">
        <ele>566.274</ele>
        <time>2022-03-20T13:46:08Z</time>
      </trkpt>
      <trkpt lat="42.904836" lon="-2.536329">
        <ele>566.229</ele>
        <time>2022-03-20T13:46:09Z</time>
      </trkpt>
      <trkpt lat="42.904843" lon="-2.53633">
        <ele>566.282</ele>
        <time>2022-03-20T13:46:10Z</time>
      </trkpt>
      <trkpt lat="42.904852" lon="-2.536331">
        <ele>566.211</ele>
        <time>2022-03-20T13:46:11Z</time>
      </trkpt>
      <trkpt lat="42.90486" lon="-2.536333">
        <ele>566.216</ele>
        <time>2022-03-20T13:46:12Z</time>
      </trkpt>
      <trkpt lat="42.904869" lon="-2.536336">
        <ele>566.287</ele>
        <time>2022-03-20T13:46:13Z</time>
      </trkpt>
      <trkpt lat="42.904878" lon="-2.536339">
        <ele>566.253</ele>
        <time>2022-03-20T13:46:14Z</time>
      </trkpt>
      <trkpt lat="42.904887" lon="-2.53634">
        <ele>566.204</ele>
        <time>2022-03-20T13:46:15Z</time>
      </trkpt>
      <trkpt lat="42.904897" lon="-2.536344">
        <ele>566.214</ele>
        <time>2022-03-20T13:46:16Z</time>
      </trkpt>
      <trkpt lat="42.904908" lon="-2.536346">
        <ele>566.208</ele>
        <time>2022-03-20T13:46:17Z</time>
      </trkpt>
      <trkpt lat="42.904916" lon="-2.536346">
        <ele>566.254</ele>
        <time>2022-03-20T13:46:18Z</time>
      </trkpt>
      <trkpt lat="42.904924" lon="-2.536348">
        <ele>566.212</ele>
        <time>2022-03-20T13:46:19Z</time>
      </trkpt>
      <trkpt lat="42.904936" lon="-2.536351">
        <ele>566.084</ele>
        <time>2022-03-20T13:46:20Z</time>
      </trkpt>
      <trkpt lat="42.904946" lon="-2.536354">
        <ele>566.279</ele>
        <time>2022-03-20T13:46:21Z</time>
      </trkpt>
      <trkpt lat="42.904955" lon="-2.536355">
        <ele>566.232</ele>
        <time>2022-03-20T13:46:22Z</time>
      </trkpt>
      <trkpt lat="42.904964" lon="-2.536358">
        <ele>566.231</ele>
        <time>2022-03-20T13:46:23Z</time>
      </trkpt>
      <trkpt lat="42.904972" lon="-2.536361">
        <ele>566.296</ele>
        <time>2022-03-20T13:46:24Z</time>
      </trkpt>
      <trkpt lat="42.904981" lon="-2.536364">
        <ele>566.227</ele>
        <time>2022-03-20T13:46:25Z</time>
      </trkpt>
      <trkpt lat="42.904988" lon="-2.536368">
        <ele>566.689</ele>
        <time>2022-03-20T13:46:26Z</time>
      </trkpt>
      <trkpt lat="42.904998" lon="-2.536373">
        <ele>566.806</ele>
        <time>2022-03-20T13:46:27Z</time>
      </trkpt>
      <trkpt lat="42.905008" lon="-2.536375">
        <ele>566.826</ele>
        <time>2022-03-20T13:46:28Z</time>
      </trkpt>
      <trkpt lat="42.905017" lon="-2.536373">
        <ele>566.808</ele>
        <time>2022-03-20T13:46:29Z</time>
      </trkpt>
      <trkpt lat="42.905025" lon="-2.536371">
        <ele>566.887</ele>
        <time>2022-03-20T13:46:30Z</time>
      </trkpt>
      <trkpt lat="42.905033" lon="-2.536371">
        <ele>566.835</ele>
        <time>2022-03-20T13:46:31Z</time>
      </trkpt>
      <trkpt lat="42.905045" lon="-2.536375">
        <ele>566.897</ele>
        <time>2022-03-20T13:46:32Z</time>
      </trkpt>
      <trkpt lat="42.905056" lon="-2.536377">
        <ele>566.862</ele>
        <time>2022-03-20T13:46:33Z</time>
      </trkpt>
      <trkpt lat="42.905065" lon="-2.536378">
        <ele>566.885</ele>
        <time>2022-03-20T13:46:34Z</time>
      </trkpt>
      <trkpt lat="42.90507" lon="-2.536378">
        <ele>567.094</ele>
        <time>2022-03-20T13:46:35Z</time>
      </trkpt>
      <trkpt lat="42.905077" lon="-2.53638">
        <ele>567.429</ele>
        <time>2022-03-20T13:46:36Z</time>
      </trkpt>
      <trkpt lat="42.905087" lon="-2.536381">
        <ele>567.640</ele>
        <time>2022-03-20T13:46:37Z</time>
      </trkpt>
      <trkpt lat="42.905097" lon="-2.536384">
        <ele>567.851</ele>
        <time>2022-03-20T13:46:38Z</time>
      </trkpt>
      <trkpt lat="42.905107" lon="-2.536385">
        <ele>567.801</ele>
        <time>2022-03-20T13:46:39Z</time>
      </trkpt>
      <trkpt lat="42.905118" lon="-2.536386">
        <ele>567.811</ele>
        <time>2022-03-20T13:46:40Z</time>
      </trkpt>
      <trkpt lat="42.905129" lon="-2.536389">
        <ele>567.608</ele>
        <time>2022-03-20T13:46:41Z</time>
      </trkpt>
      <trkpt lat="42.90514" lon="-2.536392">
        <ele>567.694</ele>
        <time>2022-03-20T13:46:42Z</time>
      </trkpt>
      <trkpt lat="42.905149" lon="-2.536395">
        <ele>567.832</ele>
        <time>2022-03-20T13:46:43Z</time>
      </trkpt>
      <trkpt lat="42.905158" lon="-2.536398">
        <ele>567.854</ele>
        <time>2022-03-20T13:46:44Z</time>
      </trkpt>
      <trkpt lat="42.905169" lon="-2.536401">
        <ele>567.839</ele>
        <time>2022-03-20T13:46:45Z</time>
      </trkpt>
      <trkpt lat="42.905177" lon="-2.536404">
        <ele>567.832</ele>
        <time>2022-03-20T13:46:46Z</time>
      </trkpt>
      <trkpt lat="42.905186" lon="-2.536406">
        <ele>567.811</ele>
        <time>2022-03-20T13:46:47Z</time>
      </trkpt>
      <trkpt lat="42.905195" lon="-2.536408">
        <ele>568.086</ele>
        <time>2022-03-20T13:46:48Z</time>
      </trkpt>
      <trkpt lat="42.905204" lon="-2.536405">
        <ele>568.057</ele>
        <time>2022-03-20T13:46:49Z</time>
      </trkpt>
      <trkpt lat="42.905208" lon="-2.536402">
        <ele>568.027</ele>
        <time>2022-03-20T13:46:50Z</time>
      </trkpt>
      <trkpt lat="42.905213" lon="-2.536399">
        <ele>568.068</ele>
        <time>2022-03-20T13:46:51Z</time>
      </trkpt>
      <trkpt lat="42.905217" lon="-2.536398">
        <ele>568.014</ele>
        <time>2022-03-20T13:46:52Z</time>
      </trkpt>
      <trkpt lat="42.905221" lon="-2.536398">
        <ele>568.008</ele>
        <time>2022-03-20T13:46:53Z</time>
      </trkpt>
      <trkpt lat="42.905226" lon="-2.536399">
        <ele>568.041</ele>
        <time>2022-03-20T13:46:54Z</time>
      </trkpt>
      <trkpt lat="42.905238" lon="-2.536401">
        <ele>568.479</ele>
        <time>2022-03-20T13:46:55Z</time>
      </trkpt>
      <trkpt lat="42.905249" lon="-2.536406">
        <ele>568.621</ele>
        <time>2022-03-20T13:46:56Z</time>
      </trkpt>
      <trkpt lat="42.905249" lon="-2.536405">
        <ele>568.866</ele>
        <time>2022-03-20T13:46:57Z</time>
      </trkpt>
      <trkpt lat="42.905253" lon="-2.536409">
        <ele>568.899</ele>
        <time>2022-03-20T13:46:58Z</time>
      </trkpt>
      <trkpt lat="42.90526" lon="-2.536415">
        <ele>568.878</ele>
        <time>2022-03-20T13:46:59Z</time>
      </trkpt>
      <trkpt lat="42.90527" lon="-2.53642">
        <ele>568.863</ele>
        <time>2022-03-20T13:47:00Z</time>
      </trkpt>
      <trkpt lat="42.905278" lon="-2.53642">
        <ele>568.864</ele>
        <time>2022-03-20T13:47:01Z</time>
      </trkpt>
      <trkpt lat="42.905286" lon="-2.536422">
        <ele>568.694</ele>
        <time>2022-03-20T13:47:02Z</time>
      </trkpt>
      <trkpt lat="42.905296" lon="-2.536425">
        <ele>568.457</ele>
        <time>2022-03-20T13:47:03Z</time>
      </trkpt>
      <trkpt lat="42.905304" lon="-2.536425">
        <ele>568.422</ele>
        <time>2022-03-20T13:47:04Z</time>
      </trkpt>
      <trkpt lat="42.905313" lon="-2.536427">
        <ele>568.408</ele>
        <time>2022-03-20T13:47:05Z</time>
      </trkpt>
      <trkpt lat="42.905324" lon="-2.536428">
        <ele>568.498</ele>
        <time>2022-03-20T13:47:06Z</time>
      </trkpt>
      <trkpt lat="42.905333" lon="-2.536428">
        <ele>568.696</ele>
        <time>2022-03-20T13:47:07Z</time>
      </trkpt>
      <trkpt lat="42.905343" lon="-2.536431">
        <ele>568.658</ele>
        <time>2022-03-20T13:47:08Z</time>
      </trkpt>
      <trkpt lat="42.905352" lon="-2.536433">
        <ele>568.863</ele>
        <time>2022-03-20T13:47:09Z</time>
      </trkpt>
      <trkpt lat="42.905361" lon="-2.536435">
        <ele>568.826</ele>
        <time>2022-03-20T13:47:10Z</time>
      </trkpt>
      <trkpt lat="42.90537" lon="-2.536436">
        <ele>569.075</ele>
        <time>2022-03-20T13:47:11Z</time>
      </trkpt>
      <trkpt lat="42.90538" lon="-2.536442">
        <ele>569.240</ele>
        <time>2022-03-20T13:47:12Z</time>
      </trkpt>
      <trkpt lat="42.90539" lon="-2.536444">
        <ele>569.281</ele>
        <time>2022-03-20T13:47:13Z</time>
      </trkpt>
      <trkpt lat="42.905399" lon="-2.536445">
        <ele>569.267</ele>
        <time>2022-03-20T13:47:14Z</time>
      </trkpt>
      <trkpt lat="42.905407" lon="-2.536446">
        <ele>569.281</ele>
        <time>2022-03-20T13:47:15Z</time>
      </trkpt>
      <trkpt lat="42.905416" lon="-2.536448">
        <ele>569.219</ele>
        <time>2022-03-20T13:47:16Z</time>
      </trkpt>
      <trkpt lat="42.905426" lon="-2.536449">
        <ele>569.408</ele>
        <time>2022-03-20T13:47:17Z</time>
      </trkpt>
      <trkpt lat="42.905435" lon="-2.53645">
        <ele>569.675</ele>
        <time>2022-03-20T13:47:18Z</time>
      </trkpt>
      <trkpt lat="42.905444" lon="-2.536453">
        <ele>569.613</ele>
        <time>2022-03-20T13:47:19Z</time>
      </trkpt>
      <trkpt lat="42.905453" lon="-2.536459">
        <ele>569.815</ele>
        <time>2022-03-20T13:47:20Z</time>
      </trkpt>
      <trkpt lat="42.905461" lon="-2.53646">
        <ele>569.830</ele>
        <time>2022-03-20T13:47:21Z</time>
      </trkpt>
      <trkpt lat="42.905468" lon="-2.536461">
        <ele>570.213</ele>
        <time>2022-03-20T13:47:22Z</time>
      </trkpt>
      <trkpt lat="42.905473" lon="-2.53646">
        <ele>570.442</ele>
        <time>2022-03-20T13:47:23Z</time>
      </trkpt>
      <trkpt lat="42.905474" lon="-2.536458">
        <ele>570.427</ele>
        <time>2022-03-20T13:47:24Z</time>
      </trkpt>
      <trkpt lat="42.905472" lon="-2.536455">
        <ele>570.428</ele>
        <time>2022-03-20T13:47:25Z</time>
      </trkpt>
      <trkpt lat="42.905472" lon="-2.536455">
        <ele>570.433</ele>
        <time>2022-03-20T13:47:26Z</time>
      </trkpt>
      <trkpt lat="42.905471" lon="-2.536454">
        <ele>570.423</ele>
        <time>2022-03-20T13:47:27Z</time>
      </trkpt>
      <trkpt lat="42.905472" lon="-2.536453">
        <ele>570.415</ele>
        <time>2022-03-20T13:47:28Z</time>
      </trkpt>
      <trkpt lat="42.905474" lon="-2.536452">
        <ele>570.208</ele>
        <time>2022-03-20T13:47:29Z</time>
      </trkpt>
      <trkpt lat="42.905475" lon="-2.536452">
        <ele>570.252</ele>
        <time>2022-03-20T13:47:30Z</time>
      </trkpt>
      <trkpt lat="42.905475" lon="-2.536452">
        <ele>570.250</ele>
        <time>2022-03-20T13:47:31Z</time>
      </trkpt>
      <trkpt lat="42.905475" lon="-2.536453">
        <ele>570.212</ele>
        <time>2022-03-20T13:47:32Z</time>
      </trkpt>
      <trkpt lat="42.905478" lon="-2.536453">
        <ele>570.227</ele>
        <time>2022-03-20T13:47:33Z</time>
      </trkpt>
      <trkpt lat="42.905484" lon="-2.536453">
        <ele>570.240</ele>
        <time>2022-03-20T13:47:34Z</time>
      </trkpt>
      <trkpt lat="42.90549" lon="-2.536454">
        <ele>570.499</ele>
        <time>2022-03-20T13:47:35Z</time>
      </trkpt>
      <trkpt lat="42.905497" lon="-2.536455">
        <ele>570.694</ele>
        <time>2022-03-20T13:47:36Z</time>
      </trkpt>
      <trkpt lat="42.905507" lon="-2.536458">
        <ele>570.855</ele>
        <time>2022-03-20T13:47:37Z</time>
      </trkpt>
      <trkpt lat="42.905516" lon="-2.536461">
        <ele>570.888</ele>
        <time>2022-03-20T13:47:38Z</time>
      </trkpt>
      <trkpt lat="42.905525" lon="-2.536463">
        <ele>571.024</ele>
        <time>2022-03-20T13:47:39Z</time>
      </trkpt>
      <trkpt lat="42.905531" lon="-2.53646">
        <ele>571.026</ele>
        <time>2022-03-20T13:47:40Z</time>
      </trkpt>
      <trkpt lat="42.905536" lon="-2.536455">
        <ele>570.808</ele>
        <time>2022-03-20T13:47:41Z</time>
      </trkpt>
      <trkpt lat="42.905534" lon="-2.536455">
        <ele>570.817</ele>
        <time>2022-03-20T13:47:42Z</time>
      </trkpt>
      <trkpt lat="42.905538" lon="-2.536457">
        <ele>570.895</ele>
        <time>2022-03-20T13:47:43Z</time>
      </trkpt>
      <trkpt lat="42.905539" lon="-2.536459">
        <ele>570.637</ele>
        <time>2022-03-20T13:47:44Z</time>
      </trkpt>
      <trkpt lat="42.905543" lon="-2.536459">
        <ele>571.012</ele>
        <time>2022-03-20T13:47:45Z</time>
      </trkpt>
      <trkpt lat="42.905549" lon="-2.536459">
        <ele>571.035</ele>
        <time>2022-03-20T13:47:46Z</time>
      </trkpt>
      <trkpt lat="42.905556" lon="-2.536459">
        <ele>571.254</ele>
        <time>2022-03-20T13:47:47Z</time>
      </trkpt>
      <trkpt lat="42.905565" lon="-2.536459">
        <ele>571.219</ele>
        <time>2022-03-20T13:47:48Z</time>
      </trkpt>
      <trkpt lat="42.905569" lon="-2.536456">
        <ele>571.230</ele>
        <time>2022-03-20T13:47:49Z</time>
      </trkpt>
      <trkpt lat="42.905573" lon="-2.536455">
        <ele>571.255</ele>
        <time>2022-03-20T13:47:50Z</time>
      </trkpt>
      <trkpt lat="42.905576" lon="-2.536454">
        <ele>571.407</ele>
        <time>2022-03-20T13:47:51Z</time>
      </trkpt>
      <trkpt lat="42.905577" lon="-2.536453">
        <ele>571.417</ele>
        <time>2022-03-20T13:47:52Z</time>
      </trkpt>
      <trkpt lat="42.905577" lon="-2.536452">
        <ele>571.408</ele>
        <time>2022-03-20T13:47:53Z</time>
      </trkpt>
      <trkpt lat="42.90558" lon="-2.536452">
        <ele>571.454</ele>
        <time>2022-03-20T13:47:54Z</time>
      </trkpt>
      <trkpt lat="42.905585" lon="-2.53645">
        <ele>571.432</ele>
        <time>2022-03-20T13:47:55Z</time>
      </trkpt>
      <trkpt lat="42.905591" lon="-2.536451">
        <ele>571.434</ele>
        <time>2022-03-20T13:47:56Z</time>
      </trkpt>
      <trkpt lat="42.9056" lon="-2.536452">
        <ele>571.639</ele>
        <time>2022-03-20T13:47:57Z</time>
      </trkpt>
      <trkpt lat="42.905609" lon="-2.536454">
        <ele>571.622</ele>
        <time>2022-03-20T13:47:58Z</time>
      </trkpt>
      <trkpt lat="42.905615" lon="-2.536456">
        <ele>571.611</ele>
        <time>2022-03-20T13:47:59Z</time>
      </trkpt>
      <trkpt lat="42.905616" lon="-2.536453">
        <ele>571.616</ele>
        <time>2022-03-20T13:48:00Z</time>
      </trkpt>
      <trkpt lat="42.905616" lon="-2.536451">
        <ele>571.647</ele>
        <time>2022-03-20T13:48:01Z</time>
      </trkpt>
      <trkpt lat="42.905619" lon="-2.53645">
        <ele>571.639</ele>
        <time>2022-03-20T13:48:02Z</time>
      </trkpt>
      <trkpt lat="42.905627" lon="-2.536449">
        <ele>571.601</ele>
        <time>2022-03-20T13:48:03Z</time>
      </trkpt>
      <trkpt lat="42.905636" lon="-2.53645">
        <ele>571.421</ele>
        <time>2022-03-20T13:48:04Z</time>
      </trkpt>
      <trkpt lat="42.905646" lon="-2.53645">
        <ele>571.408</ele>
        <time>2022-03-20T13:48:05Z</time>
      </trkpt>
      <trkpt lat="42.905657" lon="-2.53645">
        <ele>571.472</ele>
        <time>2022-03-20T13:48:06Z</time>
      </trkpt>
      <trkpt lat="42.905667" lon="-2.53645">
        <ele>571.470</ele>
        <time>2022-03-20T13:48:07Z</time>
      </trkpt>
      <trkpt lat="42.905676" lon="-2.536451">
        <ele>571.452</ele>
        <time>2022-03-20T13:48:08Z</time>
      </trkpt>
      <trkpt lat="42.905686" lon="-2.536449">
        <ele>571.417</ele>
        <time>2022-03-20T13:48:09Z</time>
      </trkpt>
      <trkpt lat="42.905694" lon="-2.536448">
        <ele>571.470</ele>
        <time>2022-03-20T13:48:10Z</time>
      </trkpt>
      <trkpt lat="42.905705" lon="-2.53645">
        <ele>571.459</ele>
        <time>2022-03-20T13:48:11Z</time>
      </trkpt>
      <trkpt lat="42.905714" lon="-2.53645">
        <ele>571.654</ele>
        <time>2022-03-20T13:48:12Z</time>
      </trkpt>
      <trkpt lat="42.905723" lon="-2.536448">
        <ele>571.415</ele>
        <time>2022-03-20T13:48:13Z</time>
      </trkpt>
      <trkpt lat="42.905733" lon="-2.536445">
        <ele>571.443</ele>
        <time>2022-03-20T13:48:14Z</time>
      </trkpt>
      <trkpt lat="42.905742" lon="-2.536445">
        <ele>571.664</ele>
        <time>2022-03-20T13:48:15Z</time>
      </trkpt>
      <trkpt lat="42.90575" lon="-2.536446">
        <ele>571.810</ele>
        <time>2022-03-20T13:48:16Z</time>
      </trkpt>
      <trkpt lat="42.905761" lon="-2.536443">
        <ele>572.008</ele>
        <time>2022-03-20T13:48:17Z</time>
      </trkpt>
      <trkpt lat="42.905769" lon="-2.53644">
        <ele>572.013</ele>
        <time>2022-03-20T13:48:18Z</time>
      </trkpt>
      <trkpt lat="42.905778" lon="-2.536438">
        <ele>572.061</ele>
        <time>2022-03-20T13:48:19Z</time>
      </trkpt>
      <trkpt lat="42.905791" lon="-2.536436">
        <ele>572.483</ele>
        <time>2022-03-20T13:48:20Z</time>
      </trkpt>
      <trkpt lat="42.905802" lon="-2.536434">
        <ele>572.488</ele>
        <time>2022-03-20T13:48:21Z</time>
      </trkpt>
      <trkpt lat="42.905811" lon="-2.536433">
        <ele>572.281</ele>
        <time>2022-03-20T13:48:22Z</time>
      </trkpt>
      <trkpt lat="42.905819" lon="-2.536433">
        <ele>572.460</ele>
        <time>2022-03-20T13:48:23Z</time>
      </trkpt>
      <trkpt lat="42.90583" lon="-2.536433">
        <ele>572.415</ele>
        <time>2022-03-20T13:48:24Z</time>
      </trkpt>
      <trkpt lat="42.905841" lon="-2.536433">
        <ele>572.236</ele>
        <time>2022-03-20T13:48:25Z</time>
      </trkpt>
      <trkpt lat="42.905853" lon="-2.536432">
        <ele>572.254</ele>
        <time>2022-03-20T13:48:26Z</time>
      </trkpt>
      <trkpt lat="42.905863" lon="-2.536429">
        <ele>572.256</ele>
        <time>2022-03-20T13:48:27Z</time>
      </trkpt>
      <trkpt lat="42.905872" lon="-2.536428">
        <ele>572.211</ele>
        <time>2022-03-20T13:48:28Z</time>
      </trkpt>
      <trkpt lat="42.905883" lon="-2.53643">
        <ele>572.208</ele>
        <time>2022-03-20T13:48:29Z</time>
      </trkpt>
      <trkpt lat="42.905893" lon="-2.53643">
        <ele>572.244</ele>
        <time>2022-03-20T13:48:30Z</time>
      </trkpt>
      <trkpt lat="42.905901" lon="-2.536432">
        <ele>572.272</ele>
        <time>2022-03-20T13:48:31Z</time>
      </trkpt>
      <trkpt lat="42.905912" lon="-2.536433">
        <ele>572.224</ele>
        <time>2022-03-20T13:48:32Z</time>
      </trkpt>
      <trkpt lat="42.905922" lon="-2.536432">
        <ele>572.469</ele>
        <time>2022-03-20T13:48:33Z</time>
      </trkpt>
      <trkpt lat="42.905929" lon="-2.536434">
        <ele>572.862</ele>
        <time>2022-03-20T13:48:34Z</time>
      </trkpt>
      <trkpt lat="42.905938" lon="-2.536441">
        <ele>572.821</ele>
        <time>2022-03-20T13:48:35Z</time>
      </trkpt>
      <trkpt lat="42.905945" lon="-2.536448">
        <ele>572.816</ele>
        <time>2022-03-20T13:48:36Z</time>
      </trkpt>
      <trkpt lat="42.905956" lon="-2.536455">
        <ele>572.637</ele>
        <time>2022-03-20T13:48:37Z</time>
      </trkpt>
      <trkpt lat="42.905969" lon="-2.536462">
        <ele>572.625</ele>
        <time>2022-03-20T13:48:38Z</time>
      </trkpt>
      <trkpt lat="42.905979" lon="-2.536465">
        <ele>572.426</ele>
        <time>2022-03-20T13:48:39Z</time>
      </trkpt>
      <trkpt lat="42.905987" lon="-2.536467">
        <ele>572.208</ele>
        <time>2022-03-20T13:48:40Z</time>
      </trkpt>
      <trkpt lat="42.905994" lon="-2.536469">
        <ele>572.208</ele>
        <time>2022-03-20T13:48:41Z</time>
      </trkpt>
      <trkpt lat="42.906004" lon="-2.536471">
        <ele>572.251</ele>
        <time>2022-03-20T13:48:42Z</time>
      </trkpt>
      <trkpt lat="42.906009" lon="-2.536473">
        <ele>572.259</ele>
        <time>2022-03-20T13:48:43Z</time>
      </trkpt>
      <trkpt lat="42.906011" lon="-2.536477">
        <ele>572.641</ele>
        <time>2022-03-20T13:48:44Z</time>
      </trkpt>
      <trkpt lat="42.906012" lon="-2.536477">
        <ele>572.646</ele>
        <time>2022-03-20T13:48:45Z</time>
      </trkpt>
      <trkpt lat="42.906015" lon="-2.536478">
        <ele>572.689</ele>
        <time>2022-03-20T13:48:46Z</time>
      </trkpt>
      <trkpt lat="42.906017" lon="-2.536479">
        <ele>572.658</ele>
        <time>2022-03-20T13:48:47Z</time>
      </trkpt>
      <trkpt lat="42.90602" lon="-2.53648">
        <ele>572.693</ele>
        <time>2022-03-20T13:48:48Z</time>
      </trkpt>
      <trkpt lat="42.906024" lon="-2.536478">
        <ele>572.474</ele>
        <time>2022-03-20T13:48:49Z</time>
      </trkpt>
      <trkpt lat="42.906026" lon="-2.536478">
        <ele>572.469</ele>
        <time>2022-03-20T13:48:50Z</time>
      </trkpt>
      <trkpt lat="42.906027" lon="-2.536476">
        <ele>572.204</ele>
        <time>2022-03-20T13:48:51Z</time>
      </trkpt>
      <trkpt lat="42.90603" lon="-2.536474">
        <ele>572.224</ele>
        <time>2022-03-20T13:48:52Z</time>
      </trkpt>
      <trkpt lat="42.906032" lon="-2.53647">
        <ele>572.208</ele>
        <time>2022-03-20T13:48:53Z</time>
      </trkpt>
      <trkpt lat="42.906034" lon="-2.53647">
        <ele>572.255</ele>
        <time>2022-03-20T13:48:54Z</time>
      </trkpt>
      <trkpt lat="42.906037" lon="-2.536473">
        <ele>572.023</ele>
        <time>2022-03-20T13:48:55Z</time>
      </trkpt>
      <trkpt lat="42.906043" lon="-2.536477">
        <ele>571.835</ele>
        <time>2022-03-20T13:48:56Z</time>
      </trkpt>
      <trkpt lat="42.906044" lon="-2.536481">
        <ele>571.830</ele>
        <time>2022-03-20T13:48:57Z</time>
      </trkpt>
      <trkpt lat="42.906045" lon="-2.536482">
        <ele>571.813</ele>
        <time>2022-03-20T13:48:58Z</time>
      </trkpt>
      <trkpt lat="42.906056" lon="-2.536483">
        <ele>571.882</ele>
        <time>2022-03-20T13:48:59Z</time>
      </trkpt>
      <trkpt lat="42.906067" lon="-2.536493">
        <ele>571.837</ele>
        <time>2022-03-20T13:49:00Z</time>
      </trkpt>
      <trkpt lat="42.906072" lon="-2.536501">
        <ele>571.858</ele>
        <time>2022-03-20T13:49:01Z</time>
      </trkpt>
      <trkpt lat="42.906083" lon="-2.536507">
        <ele>571.898</ele>
        <time>2022-03-20T13:49:02Z</time>
      </trkpt>
      <trkpt lat="42.906091" lon="-2.536524">
        <ele>571.615</ele>
        <time>2022-03-20T13:49:03Z</time>
      </trkpt>
      <trkpt lat="42.906099" lon="-2.536532">
        <ele>571.626</ele>
        <time>2022-03-20T13:49:04Z</time>
      </trkpt>
      <trkpt lat="42.906104" lon="-2.536537">
        <ele>571.608</ele>
        <time>2022-03-20T13:49:05Z</time>
      </trkpt>
      <trkpt lat="42.906112" lon="-2.536545">
        <ele>571.638</ele>
        <time>2022-03-20T13:49:06Z</time>
      </trkpt>
      <trkpt lat="42.906121" lon="-2.536549">
        <ele>571.426</ele>
        <time>2022-03-20T13:49:07Z</time>
      </trkpt>
      <trkpt lat="42.906132" lon="-2.536555">
        <ele>571.278</ele>
        <time>2022-03-20T13:49:08Z</time>
      </trkpt>
      <trkpt lat="42.906142" lon="-2.53656">
        <ele>571.283</ele>
        <time>2022-03-20T13:49:09Z</time>
      </trkpt>
      <trkpt lat="42.90615" lon="-2.536565">
        <ele>571.256</ele>
        <time>2022-03-20T13:49:10Z</time>
      </trkpt>
      <trkpt lat="42.906161" lon="-2.53657">
        <ele>571.075</ele>
        <time>2022-03-20T13:49:11Z</time>
      </trkpt>
      <trkpt lat="42.906167" lon="-2.536574">
        <ele>571.080</ele>
        <time>2022-03-20T13:49:12Z</time>
      </trkpt>
      <trkpt lat="42.906175" lon="-2.536581">
        <ele>571.021</ele>
        <time>2022-03-20T13:49:13Z</time>
      </trkpt>
      <trkpt lat="42.906185" lon="-2.536588">
        <ele>571.027</ele>
        <time>2022-03-20T13:49:14Z</time>
      </trkpt>
      <trkpt lat="42.906194" lon="-2.536593">
        <ele>570.868</ele>
        <time>2022-03-20T13:49:15Z</time>
      </trkpt>
      <trkpt lat="42.906202" lon="-2.536596">
        <ele>570.814</ele>
        <time>2022-03-20T13:49:16Z</time>
      </trkpt>
      <trkpt lat="42.906212" lon="-2.536599">
        <ele>570.808</ele>
        <time>2022-03-20T13:49:17Z</time>
      </trkpt>
      <trkpt lat="42.906223" lon="-2.536602">
        <ele>570.891</ele>
        <time>2022-03-20T13:49:18Z</time>
      </trkpt>
      <trkpt lat="42.906232" lon="-2.536606">
        <ele>570.689</ele>
        <time>2022-03-20T13:49:19Z</time>
      </trkpt>
      <trkpt lat="42.906244" lon="-2.536611">
        <ele>570.681</ele>
        <time>2022-03-20T13:49:20Z</time>
      </trkpt>
      <trkpt lat="42.906249" lon="-2.536616">
        <ele>570.866</ele>
        <time>2022-03-20T13:49:21Z</time>
      </trkpt>
      <trkpt lat="42.906259" lon="-2.536621">
        <ele>571.039</ele>
        <time>2022-03-20T13:49:22Z</time>
      </trkpt>
      <trkpt lat="42.906271" lon="-2.536624">
        <ele>571.088</ele>
        <time>2022-03-20T13:49:23Z</time>
      </trkpt>
      <trkpt lat="42.90628" lon="-2.536627">
        <ele>571.033</ele>
        <time>2022-03-20T13:49:24Z</time>
      </trkpt>
      <trkpt lat="42.90629" lon="-2.536628">
        <ele>570.884</ele>
        <time>2022-03-20T13:49:25Z</time>
      </trkpt>
      <trkpt lat="42.9063" lon="-2.536631">
        <ele>570.871</ele>
        <time>2022-03-20T13:49:26Z</time>
      </trkpt>
      <trkpt lat="42.906311" lon="-2.536636">
        <ele>570.641</ele>
        <time>2022-03-20T13:49:27Z</time>
      </trkpt>
      <trkpt lat="42.90632" lon="-2.536639">
        <ele>570.215</ele>
        <time>2022-03-20T13:49:28Z</time>
      </trkpt>
      <trkpt lat="42.906333" lon="-2.536645">
        <ele>570.208</ele>
        <time>2022-03-20T13:49:29Z</time>
      </trkpt>
      <trkpt lat="42.906343" lon="-2.536648">
        <ele>570.266</ele>
        <time>2022-03-20T13:49:30Z</time>
      </trkpt>
      <trkpt lat="42.906353" lon="-2.536654">
        <ele>570.234</ele>
        <time>2022-03-20T13:49:31Z</time>
      </trkpt>
      <trkpt lat="42.906363" lon="-2.536659">
        <ele>570.226</ele>
        <time>2022-03-20T13:49:32Z</time>
      </trkpt>
      <trkpt lat="42.906371" lon="-2.536664">
        <ele>570.291</ele>
        <time>2022-03-20T13:49:33Z</time>
      </trkpt>
      <trkpt lat="42.906379" lon="-2.536668">
        <ele>570.244</ele>
        <time>2022-03-20T13:49:34Z</time>
      </trkpt>
      <trkpt lat="42.906386" lon="-2.536673">
        <ele>570.223</ele>
        <time>2022-03-20T13:49:35Z</time>
      </trkpt>
      <trkpt lat="42.906396" lon="-2.536683">
        <ele>569.818</ele>
        <time>2022-03-20T13:49:36Z</time>
      </trkpt>
      <trkpt lat="42.906405" lon="-2.53669">
        <ele>569.849</ele>
        <time>2022-03-20T13:49:37Z</time>
      </trkpt>
      <trkpt lat="42.906413" lon="-2.536695">
        <ele>569.662</ele>
        <time>2022-03-20T13:49:38Z</time>
      </trkpt>
      <trkpt lat="42.906423" lon="-2.536703">
        <ele>569.683</ele>
        <time>2022-03-20T13:49:39Z</time>
      </trkpt>
      <trkpt lat="42.906432" lon="-2.536707">
        <ele>569.611</ele>
        <time>2022-03-20T13:49:40Z</time>
      </trkpt>
      <trkpt lat="42.906442" lon="-2.536716">
        <ele>569.608</ele>
        <time>2022-03-20T13:49:41Z</time>
      </trkpt>
      <trkpt lat="42.906452" lon="-2.536725">
        <ele>569.695</ele>
        <time>2022-03-20T13:49:42Z</time>
      </trkpt>
      <trkpt lat="42.906462" lon="-2.536733">
        <ele>569.673</ele>
        <time>2022-03-20T13:49:43Z</time>
      </trkpt>
      <trkpt lat="42.906471" lon="-2.53674">
        <ele>569.465</ele>
        <time>2022-03-20T13:49:44Z</time>
      </trkpt>
      <trkpt lat="42.906481" lon="-2.536748">
        <ele>569.280</ele>
        <time>2022-03-20T13:49:45Z</time>
      </trkpt>
      <trkpt lat="42.906491" lon="-2.536754">
        <ele>569.043</ele>
        <time>2022-03-20T13:49:46Z</time>
      </trkpt>
      <trkpt lat="42.906499" lon="-2.53676">
        <ele>569.082</ele>
        <time>2022-03-20T13:49:47Z</time>
      </trkpt>
      <trkpt lat="42.906506" lon="-2.536764">
        <ele>569.047</ele>
        <time>2022-03-20T13:49:48Z</time>
      </trkpt>
      <trkpt lat="42.906514" lon="-2.536771">
        <ele>569.028</ele>
        <time>2022-03-20T13:49:49Z</time>
      </trkpt>
      <trkpt lat="42.906525" lon="-2.53678">
        <ele>569.044</ele>
        <time>2022-03-20T13:49:50Z</time>
      </trkpt>
      <trkpt lat="42.906533" lon="-2.536784">
        <ele>569.005</ele>
        <time>2022-03-20T13:49:51Z</time>
      </trkpt>
      <trkpt lat="42.906541" lon="-2.536789">
        <ele>569.015</ele>
        <time>2022-03-20T13:49:52Z</time>
      </trkpt>
      <trkpt lat="42.906548" lon="-2.536793">
        <ele>569.008</ele>
        <time>2022-03-20T13:49:53Z</time>
      </trkpt>
      <trkpt lat="42.906555" lon="-2.5368">
        <ele>568.823</ele>
        <time>2022-03-20T13:49:54Z</time>
      </trkpt>
      <trkpt lat="42.906563" lon="-2.536806">
        <ele>568.811</ele>
        <time>2022-03-20T13:49:55Z</time>
      </trkpt>
      <trkpt lat="42.906572" lon="-2.536813">
        <ele>568.493</ele>
        <time>2022-03-20T13:49:56Z</time>
      </trkpt>
      <trkpt lat="42.906579" lon="-2.53682">
        <ele>568.418</ele>
        <time>2022-03-20T13:49:57Z</time>
      </trkpt>
      <trkpt lat="42.906589" lon="-2.536829">
        <ele>568.451</ele>
        <time>2022-03-20T13:49:58Z</time>
      </trkpt>
      <trkpt lat="42.906598" lon="-2.536836">
        <ele>568.020</ele>
        <time>2022-03-20T13:49:59Z</time>
      </trkpt>
      <trkpt lat="42.906608" lon="-2.536845">
        <ele>568.085</ele>
        <time>2022-03-20T13:50:00Z</time>
      </trkpt>
      <trkpt lat="42.906617" lon="-2.536852">
        <ele>567.886</ele>
        <time>2022-03-20T13:50:01Z</time>
      </trkpt>
      <trkpt lat="42.906627" lon="-2.536859">
        <ele>567.863</ele>
        <time>2022-03-20T13:50:02Z</time>
      </trkpt>
      <trkpt lat="42.906635" lon="-2.536864">
        <ele>567.644</ele>
        <time>2022-03-20T13:50:03Z</time>
      </trkpt>
      <trkpt lat="42.906642" lon="-2.536872">
        <ele>567.618</ele>
        <time>2022-03-20T13:50:04Z</time>
      </trkpt>
      <trkpt lat="42.906649" lon="-2.536882">
        <ele>567.608</ele>
        <time>2022-03-20T13:50:05Z</time>
      </trkpt>
      <trkpt lat="42.906654" lon="-2.536887">
        <ele>567.695</ele>
        <time>2022-03-20T13:50:06Z</time>
      </trkpt>
      <trkpt lat="42.906665" lon="-2.536894">
        <ele>567.613</ele>
        <time>2022-03-20T13:50:07Z</time>
      </trkpt>
      <trkpt lat="42.906674" lon="-2.536901">
        <ele>567.445</ele>
        <time>2022-03-20T13:50:08Z</time>
      </trkpt>
      <trkpt lat="42.906684" lon="-2.536907">
        <ele>567.220</ele>
        <time>2022-03-20T13:50:09Z</time>
      </trkpt>
      <trkpt lat="42.906691" lon="-2.536912">
        <ele>567.263</ele>
        <time>2022-03-20T13:50:10Z</time>
      </trkpt>
      <trkpt lat="42.9067" lon="-2.53692">
        <ele>567.212</ele>
        <time>2022-03-20T13:50:11Z</time>
      </trkpt>
      <trkpt lat="42.906709" lon="-2.536926">
        <ele>567.247</ele>
        <time>2022-03-20T13:50:12Z</time>
      </trkpt>
      <trkpt lat="42.906719" lon="-2.536932">
        <ele>567.048</ele>
        <time>2022-03-20T13:50:13Z</time>
      </trkpt>
      <trkpt lat="42.906728" lon="-2.536938">
        <ele>566.842</ele>
        <time>2022-03-20T13:50:14Z</time>
      </trkpt>
      <trkpt lat="42.906736" lon="-2.536944">
        <ele>566.822</ele>
        <time>2022-03-20T13:50:15Z</time>
      </trkpt>
      <trkpt lat="42.906747" lon="-2.536951">
        <ele>566.814</ele>
        <time>2022-03-20T13:50:16Z</time>
      </trkpt>
      <trkpt lat="42.906757" lon="-2.536955">
        <ele>566.608</ele>
        <time>2022-03-20T13:50:17Z</time>
      </trkpt>
      <trkpt lat="42.906766" lon="-2.53696">
        <ele>566.493</ele>
        <time>2022-03-20T13:50:18Z</time>
      </trkpt>
      <trkpt lat="42.906774" lon="-2.536967">
        <ele>566.441</ele>
        <time>2022-03-20T13:50:19Z</time>
      </trkpt>
      <trkpt lat="42.90678" lon="-2.536974">
        <ele>566.483</ele>
        <time>2022-03-20T13:50:20Z</time>
      </trkpt>
      <trkpt lat="42.906792" lon="-2.536985">
        <ele>566.488</ele>
        <time>2022-03-20T13:50:21Z</time>
      </trkpt>
      <trkpt lat="42.9068" lon="-2.536993">
        <ele>566.431</ele>
        <time>2022-03-20T13:50:22Z</time>
      </trkpt>
      <trkpt lat="42.90681" lon="-2.537002">
        <ele>566.440</ele>
        <time>2022-03-20T13:50:23Z</time>
      </trkpt>
      <trkpt lat="42.906816" lon="-2.537008">
        <ele>566.495</ele>
        <time>2022-03-20T13:50:24Z</time>
      </trkpt>
      <trkpt lat="42.906826" lon="-2.537016">
        <ele>566.266</ele>
        <time>2022-03-20T13:50:25Z</time>
      </trkpt>
      <trkpt lat="42.906836" lon="-2.537025">
        <ele>566.096</ele>
        <time>2022-03-20T13:50:26Z</time>
      </trkpt>
      <trkpt lat="42.906844" lon="-2.537032">
        <ele>566.031</ele>
        <time>2022-03-20T13:50:27Z</time>
      </trkpt>
      <trkpt lat="42.906852" lon="-2.537041">
        <ele>566.024</ele>
        <time>2022-03-20T13:50:28Z</time>
      </trkpt>
      <trkpt lat="42.906861" lon="-2.53705">
        <ele>566.008</ele>
        <time>2022-03-20T13:50:29Z</time>
      </trkpt>
      <trkpt lat="42.90687" lon="-2.537059">
        <ele>565.838</ele>
        <time>2022-03-20T13:50:30Z</time>
      </trkpt>
      <trkpt lat="42.906879" lon="-2.537071">
        <ele>565.876</ele>
        <time>2022-03-20T13:50:31Z</time>
      </trkpt>
      <trkpt lat="42.906887" lon="-2.537081">
        <ele>565.618</ele>
        <time>2022-03-20T13:50:32Z</time>
      </trkpt>
      <trkpt lat="42.906893" lon="-2.537088">
        <ele>565.653</ele>
        <time>2022-03-20T13:50:33Z</time>
      </trkpt>
      <trkpt lat="42.906901" lon="-2.537098">
        <ele>565.636</ele>
        <time>2022-03-20T13:50:34Z</time>
      </trkpt>
      <trkpt lat="42.906908" lon="-2.537109">
        <ele>565.695</ele>
        <time>2022-03-20T13:50:35Z</time>
      </trkpt>
      <trkpt lat="42.906914" lon="-2.537116">
        <ele>565.610</ele>
        <time>2022-03-20T13:50:36Z</time>
      </trkpt>
      <trkpt lat="42.906919" lon="-2.537124">
        <ele>565.411</ele>
        <time>2022-03-20T13:50:37Z</time>
      </trkpt>
      <trkpt lat="42.906921" lon="-2.537128">
        <ele>565.231</ele>
        <time>2022-03-20T13:50:38Z</time>
      </trkpt>
      <trkpt lat="42.906922" lon="-2.537126">
        <ele>565.461</ele>
        <time>2022-03-20T13:50:39Z</time>
      </trkpt>
      <trkpt lat="42.906925" lon="-2.537127">
        <ele>565.207</ele>
        <time>2022-03-20T13:50:40Z</time>
      </trkpt>
      <trkpt lat="42.906928" lon="-2.537127">
        <ele>565.208</ele>
        <time>2022-03-20T13:50:41Z</time>
      </trkpt>
      <trkpt lat="42.906928" lon="-2.537126">
        <ele>565.282</ele>
        <time>2022-03-20T13:50:42Z</time>
      </trkpt>
      <trkpt lat="42.906927" lon="-2.537125">
        <ele>565.290</ele>
        <time>2022-03-20T13:50:43Z</time>
      </trkpt>
      <trkpt lat="42.906924" lon="-2.53712">
        <ele>565.292</ele>
        <time>2022-03-20T13:50:44Z</time>
      </trkpt>
      <trkpt lat="42.906924" lon="-2.537118">
        <ele>565.267</ele>
        <time>2022-03-20T13:50:45Z</time>
      </trkpt>
      <trkpt lat="42.906923" lon="-2.53712">
        <ele>565.270</ele>
        <time>2022-03-20T13:50:46Z</time>
      </trkpt>
      <trkpt lat="42.906924" lon="-2.537123">
        <ele>565.219</ele>
        <time>2022-03-20T13:50:47Z</time>
      </trkpt>
      <trkpt lat="42.906924" lon="-2.537123">
        <ele>565.214</ele>
        <time>2022-03-20T13:50:48Z</time>
      </trkpt>
      <trkpt lat="42.906924" lon="-2.537123">
        <ele>565.225</ele>
        <time>2022-03-20T13:50:49Z</time>
      </trkpt>
      <trkpt lat="42.906924" lon="-2.537123">
        <ele>565.245</ele>
        <time>2022-03-20T13:50:50Z</time>
      </trkpt>
      <trkpt lat="42.906924" lon="-2.537123">
        <ele>565.247</ele>
        <time>2022-03-20T13:50:51Z</time>
      </trkpt>
      <trkpt lat="42.906924" lon="-2.537123">
        <ele>565.211</ele>
        <time>2022-03-20T13:50:52Z</time>
      </trkpt>
      <trkpt lat="42.906924" lon="-2.537123">
        <ele>565.208</ele>
        <time>2022-03-20T13:50:53Z</time>
      </trkpt>
      <trkpt lat="42.906924" lon="-2.537123">
        <ele>565.233</ele>
        <time>2022-03-20T13:50:54Z</time>
      </trkpt>
      <trkpt lat="42.906924" lon="-2.537123">
        <ele>565.271</ele>
        <time>2022-03-20T13:50:55Z</time>
      </trkpt>
      <trkpt lat="42.906924" lon="-2.537123">
        <ele>565.283</ele>
        <time>2022-03-20T13:50:56Z</time>
      </trkpt>
      <trkpt lat="42.906924" lon="-2.537123">
        <ele>565.238</ele>
        <time>2022-03-20T13:50:57Z</time>
      </trkpt>
      <trkpt lat="42.906924" lon="-2.537123">
        <ele>565.281</ele>
        <time>2022-03-20T13:50:58Z</time>
      </trkpt>
      <trkpt lat="42.906924" lon="-2.537123">
        <ele>565.230</ele>
        <time>2022-03-20T13:50:59Z</time>
      </trkpt>
      <trkpt lat="42.906924" lon="-2.537123">
        <ele>565.285</ele>
        <time>2022-03-20T13:51:00Z</time>
      </trkpt>
      <trkpt lat="42.906924" lon="-2.537123">
        <ele>565.276</ele>
        <time>2022-03-20T13:51:01Z</time>
      </trkpt>
      <trkpt lat="42.906924" lon="-2.537123">
        <ele>565.287</ele>
        <time>2022-03-20T13:51:02Z</time>
      </trkpt>
      <trkpt lat="42.906924" lon="-2.537123">
        <ele>565.242</ele>
        <time>2022-03-20T13:51:03Z</time>
      </trkpt>
      <trkpt lat="42.906924" lon="-2.537123">
        <ele>565.226</ele>
        <time>2022-03-20T13:51:04Z</time>
      </trkpt>
      <trkpt lat="42.906924" lon="-2.537123">
        <ele>565.208</ele>
        <time>2022-03-20T13:51:05Z</time>
      </trkpt>
      <trkpt lat="42.906924" lon="-2.537123">
        <ele>565.467</ele>
        <time>2022-03-20T13:51:06Z</time>
      </trkpt>
      <trkpt lat="42.906924" lon="-2.537124">
        <ele>565.665</ele>
        <time>2022-03-20T13:51:07Z</time>
      </trkpt>
      <trkpt lat="42.90692" lon="-2.537126">
        <ele>565.627</ele>
        <time>2022-03-20T13:51:08Z</time>
      </trkpt>
      <trkpt lat="42.906909" lon="-2.537119">
        <ele>565.622</ele>
        <time>2022-03-20T13:51:09Z</time>
      </trkpt>
      <trkpt lat="42.906897" lon="-2.537113">
        <ele>565.875</ele>
        <time>2022-03-20T13:51:10Z</time>
      </trkpt>
      <trkpt lat="42.906889" lon="-2.537108">
        <ele>565.884</ele>
        <time>2022-03-20T13:51:11Z</time>
      </trkpt>
      <trkpt lat="42.90688" lon="-2.537108">
        <ele>565.889</ele>
        <time>2022-03-20T13:51:12Z</time>
      </trkpt>
      <trkpt lat="42.906869" lon="-2.537107">
        <ele>566.010</ele>
        <time>2022-03-20T13:51:13Z</time>
      </trkpt>
      <trkpt lat="42.90686" lon="-2.53711">
        <ele>566.292</ele>
        <time>2022-03-20T13:51:14Z</time>
      </trkpt>
      <trkpt lat="42.90685" lon="-2.537112">
        <ele>566.473</ele>
        <time>2022-03-20T13:51:15Z</time>
      </trkpt>
      <trkpt lat="42.90684" lon="-2.537112">
        <ele>566.820</ele>
        <time>2022-03-20T13:51:16Z</time>
      </trkpt>
      <trkpt lat="42.90683" lon="-2.53711">
        <ele>566.808</ele>
        <time>2022-03-20T13:51:17Z</time>
      </trkpt>
      <trkpt lat="42.906824" lon="-2.537107">
        <ele>567.258</ele>
        <time>2022-03-20T13:51:18Z</time>
      </trkpt>
      <trkpt lat="42.906814" lon="-2.537107">
        <ele>567.416</ele>
        <time>2022-03-20T13:51:19Z</time>
      </trkpt>
      <trkpt lat="42.906804" lon="-2.53711">
        <ele>567.468</ele>
        <time>2022-03-20T13:51:20Z</time>
      </trkpt>
      <trkpt lat="42.906794" lon="-2.537113">
        <ele>567.613</ele>
        <time>2022-03-20T13:51:21Z</time>
      </trkpt>
      <trkpt lat="42.906781" lon="-2.537115">
        <ele>568.656</ele>
        <time>2022-03-20T13:51:22Z</time>
      </trkpt>
      <trkpt lat="42.906769" lon="-2.537119">
        <ele>568.635</ele>
        <time>2022-03-20T13:51:23Z</time>
      </trkpt>
      <trkpt lat="42.906754" lon="-2.53712">
        <ele>568.610</ele>
        <time>2022-03-20T13:51:24Z</time>
      </trkpt>
      <trkpt lat="42.906743" lon="-2.537123">
        <ele>568.621</ele>
        <time>2022-03-20T13:51:25Z</time>
      </trkpt>
      <trkpt lat="42.906731" lon="-2.537126">
        <ele>568.629</ele>
        <time>2022-03-20T13:51:26Z</time>
      </trkpt>
      <trkpt lat="42.906723" lon="-2.53713">
        <ele>568.600</ele>
        <time>2022-03-20T13:51:27Z</time>
      </trkpt>
      <trkpt lat="42.906713" lon="-2.53714">
        <ele>568.620</ele>
        <time>2022-03-20T13:51:28Z</time>
      </trkpt>
      <trkpt lat="42.906703" lon="-2.537148">
        <ele>568.608</ele>
        <time>2022-03-20T13:51:29Z</time>
      </trkpt>
      <trkpt lat="42.906695" lon="-2.537149">
        <ele>568.621</ele>
        <time>2022-03-20T13:51:30Z</time>
      </trkpt>
      <trkpt lat="42.906687" lon="-2.537154">
        <ele>569.079</ele>
        <time>2022-03-20T13:51:31Z</time>
      </trkpt>
      <trkpt lat="42.90668" lon="-2.537164">
        <ele>569.241</ele>
        <time>2022-03-20T13:51:32Z</time>
      </trkpt>
      <trkpt lat="42.906675" lon="-2.537176">
        <ele>569.456</ele>
        <time>2022-03-20T13:51:33Z</time>
      </trkpt>
      <trkpt lat="42.906667" lon="-2.537184">
        <ele>569.439</ele>
        <time>2022-03-20T13:51:34Z</time>
      </trkpt>
      <trkpt lat="42.906662" lon="-2.53719">
        <ele>569.648</ele>
        <time>2022-03-20T13:51:35Z</time>
      </trkpt>
      <trkpt lat="42.906653" lon="-2.537199">
        <ele>569.623</ele>
        <time>2022-03-20T13:51:36Z</time>
      </trkpt>
      <trkpt lat="42.906646" lon="-2.537208">
        <ele>569.814</ele>
        <time>2022-03-20T13:51:37Z</time>
      </trkpt>
      <trkpt lat="42.90664" lon="-2.537217">
        <ele>570.218</ele>
        <time>2022-03-20T13:51:38Z</time>
      </trkpt>
      <trkpt lat="42.906632" lon="-2.537223">
        <ele>570.298</ele>
        <time>2022-03-20T13:51:39Z</time>
      </trkpt>
      <trkpt lat="42.906623" lon="-2.537227">
        <ele>570.217</ele>
        <time>2022-03-20T13:51:40Z</time>
      </trkpt>
      <trkpt lat="42.90662" lon="-2.537232">
        <ele>570.608</ele>
        <time>2022-03-20T13:51:41Z</time>
      </trkpt>
      <trkpt lat="42.90662" lon="-2.537231">
        <ele>570.660</ele>
        <time>2022-03-20T13:51:42Z</time>
      </trkpt>
      <trkpt lat="42.90662" lon="-2.537236">
        <ele>570.638</ele>
        <time>2022-03-20T13:51:43Z</time>
      </trkpt>
      <trkpt lat="42.906617" lon="-2.537242">
        <ele>570.440</ele>
        <time>2022-03-20T13:51:44Z</time>
      </trkpt>
      <trkpt lat="42.906609" lon="-2.537251">
        <ele>570.615</ele>
        <time>2022-03-20T13:51:45Z</time>
      </trkpt>
      <trkpt lat="42.906601" lon="-2.537256">
        <ele>571.028</ele>
        <time>2022-03-20T13:51:46Z</time>
      </trkpt>
      <trkpt lat="42.906594" lon="-2.537261">
        <ele>571.097</ele>
        <time>2022-03-20T13:51:47Z</time>
      </trkpt>
      <trkpt lat="42.90659" lon="-2.53727">
        <ele>571.022</ele>
        <time>2022-03-20T13:51:48Z</time>
      </trkpt>
      <trkpt lat="42.906583" lon="-2.53728">
        <ele>571.033</ele>
        <time>2022-03-20T13:51:49Z</time>
      </trkpt>
      <trkpt lat="42.906575" lon="-2.537287">
        <ele>571.036</ele>
        <time>2022-03-20T13:51:50Z</time>
      </trkpt>
      <trkpt lat="42.906561" lon="-2.537292">
        <ele>571.017</ele>
        <time>2022-03-20T13:51:51Z</time>
      </trkpt>
      <trkpt lat="42.906552" lon="-2.537301">
        <ele>571.218</ele>
        <time>2022-03-20T13:51:52Z</time>
      </trkpt>
      <trkpt lat="42.906549" lon="-2.537307">
        <ele>571.208</ele>
        <time>2022-03-20T13:51:53Z</time>
      </trkpt>
      <trkpt lat="42.906543" lon="-2.537316">
        <ele>571.432</ele>
        <time>2022-03-20T13:51:54Z</time>
      </trkpt>
      <trkpt lat="42.906536" lon="-2.537323">
        <ele>571.460</ele>
        <time>2022-03-20T13:51:55Z</time>
      </trkpt>
      <trkpt lat="42.906529" lon="-2.537332">
        <ele>571.472</ele>
        <time>2022-03-20T13:51:56Z</time>
      </trkpt>
      <trkpt lat="42.906524" lon="-2.53734">
        <ele>571.827</ele>
        <time>2022-03-20T13:51:57Z</time>
      </trkpt>
      <trkpt lat="42.906518" lon="-2.537348">
        <ele>572.080</ele>
        <time>2022-03-20T13:51:58Z</time>
      </trkpt>
      <trkpt lat="42.906514" lon="-2.537359">
        <ele>572.019</ele>
        <time>2022-03-20T13:51:59Z</time>
      </trkpt>
      <trkpt lat="42.90651" lon="-2.537366">
        <ele>572.284</ele>
        <time>2022-03-20T13:52:00Z</time>
      </trkpt>
      <trkpt lat="42.906508" lon="-2.537375">
        <ele>572.245</ele>
        <time>2022-03-20T13:52:01Z</time>
      </trkpt>
      <trkpt lat="42.90651" lon="-2.537382">
        <ele>572.444</ele>
        <time>2022-03-20T13:52:02Z</time>
      </trkpt>
      <trkpt lat="42.906508" lon="-2.537393">
        <ele>572.605</ele>
        <time>2022-03-20T13:52:03Z</time>
      </trkpt>
      <trkpt lat="42.906508" lon="-2.537403">
        <ele>572.615</ele>
        <time>2022-03-20T13:52:04Z</time>
      </trkpt>
      <trkpt lat="42.906508" lon="-2.537416">
        <ele>572.608</ele>
        <time>2022-03-20T13:52:05Z</time>
      </trkpt>
      <trkpt lat="42.906511" lon="-2.537429">
        <ele>572.833</ele>
        <time>2022-03-20T13:52:06Z</time>
      </trkpt>
      <trkpt lat="42.906514" lon="-2.537442">
        <ele>572.821</ele>
        <time>2022-03-20T13:52:07Z</time>
      </trkpt>
      <trkpt lat="42.906515" lon="-2.537454">
        <ele>573.093</ele>
        <time>2022-03-20T13:52:08Z</time>
      </trkpt>
      <trkpt lat="42.906518" lon="-2.537468">
        <ele>573.298</ele>
        <time>2022-03-20T13:52:09Z</time>
      </trkpt>
      <trkpt lat="42.906522" lon="-2.537482">
        <ele>573.471</ele>
        <time>2022-03-20T13:52:10Z</time>
      </trkpt>
      <trkpt lat="42.906523" lon="-2.537491">
        <ele>573.670</ele>
        <time>2022-03-20T13:52:11Z</time>
      </trkpt>
      <trkpt lat="42.906528" lon="-2.537506">
        <ele>574.055</ele>
        <time>2022-03-20T13:52:12Z</time>
      </trkpt>
      <trkpt lat="42.90653" lon="-2.537519">
        <ele>574.016</ele>
        <time>2022-03-20T13:52:13Z</time>
      </trkpt>
      <trkpt lat="42.906532" lon="-2.537534">
        <ele>574.261</ele>
        <time>2022-03-20T13:52:14Z</time>
      </trkpt>
      <trkpt lat="42.906535" lon="-2.537547">
        <ele>574.221</ele>
        <time>2022-03-20T13:52:15Z</time>
      </trkpt>
      <trkpt lat="42.906537" lon="-2.537554">
        <ele>574.213</ele>
        <time>2022-03-20T13:52:16Z</time>
      </trkpt>
      <trkpt lat="42.906539" lon="-2.53757">
        <ele>574.208</ele>
        <time>2022-03-20T13:52:17Z</time>
      </trkpt>
      <trkpt lat="42.906541" lon="-2.537586">
        <ele>574.215</ele>
        <time>2022-03-20T13:52:18Z</time>
      </trkpt>
      <trkpt lat="42.906541" lon="-2.537597">
        <ele>574.223</ele>
        <time>2022-03-20T13:52:19Z</time>
      </trkpt>
      <trkpt lat="42.906544" lon="-2.537613">
        <ele>574.285</ele>
        <time>2022-03-20T13:52:20Z</time>
      </trkpt>
      <trkpt lat="42.906549" lon="-2.537628">
        <ele>574.220</ele>
        <time>2022-03-20T13:52:21Z</time>
      </trkpt>
      <trkpt lat="42.906551" lon="-2.537639">
        <ele>574.223</ele>
        <time>2022-03-20T13:52:22Z</time>
      </trkpt>
      <trkpt lat="42.906554" lon="-2.537651">
        <ele>574.442</ele>
        <time>2022-03-20T13:52:23Z</time>
      </trkpt>
      <trkpt lat="42.906557" lon="-2.537666">
        <ele>574.287</ele>
        <time>2022-03-20T13:52:24Z</time>
      </trkpt>
      <trkpt lat="42.906559" lon="-2.537678">
        <ele>574.268</ele>
        <time>2022-03-20T13:52:25Z</time>
      </trkpt>
      <trkpt lat="42.906561" lon="-2.537693">
        <ele>574.443</ele>
        <time>2022-03-20T13:52:26Z</time>
      </trkpt>
      <trkpt lat="42.906562" lon="-2.537705">
        <ele>574.464</ele>
        <time>2022-03-20T13:52:27Z</time>
      </trkpt>
      <trkpt lat="42.906561" lon="-2.537718">
        <ele>574.410</ele>
        <time>2022-03-20T13:52:28Z</time>
      </trkpt>
      <trkpt lat="42.906561" lon="-2.537728">
        <ele>574.408</ele>
        <time>2022-03-20T13:52:29Z</time>
      </trkpt>
      <trkpt lat="42.906564" lon="-2.537746">
        <ele>574.473</ele>
        <time>2022-03-20T13:52:30Z</time>
      </trkpt>
      <trkpt lat="42.906567" lon="-2.53776">
        <ele>574.471</ele>
        <time>2022-03-20T13:52:31Z</time>
      </trkpt>
      <trkpt lat="42.906568" lon="-2.537772">
        <ele>574.483</ele>
        <time>2022-03-20T13:52:32Z</time>
      </trkpt>
      <trkpt lat="42.906569" lon="-2.537786">
        <ele>574.438</ele>
        <time>2022-03-20T13:52:33Z</time>
      </trkpt>
      <trkpt lat="42.906571" lon="-2.537802">
        <ele>574.421</ele>
        <time>2022-03-20T13:52:34Z</time>
      </trkpt>
      <trkpt lat="42.90657" lon="-2.537814">
        <ele>574.480</ele>
        <time>2022-03-20T13:52:35Z</time>
      </trkpt>
      <trkpt lat="42.906568" lon="-2.537827">
        <ele>574.415</ele>
        <time>2022-03-20T13:52:36Z</time>
      </trkpt>
      <trkpt lat="42.906567" lon="-2.537842">
        <ele>574.496</ele>
        <time>2022-03-20T13:52:37Z</time>
      </trkpt>
      <trkpt lat="42.906566" lon="-2.537854">
        <ele>574.294</ele>
        <time>2022-03-20T13:52:38Z</time>
      </trkpt>
      <trkpt lat="42.906563" lon="-2.537868">
        <ele>574.257</ele>
        <time>2022-03-20T13:52:39Z</time>
      </trkpt>
      <trkpt lat="42.906562" lon="-2.53788">
        <ele>574.022</ele>
        <time>2022-03-20T13:52:40Z</time>
      </trkpt>
      <trkpt lat="42.906561" lon="-2.53789">
        <ele>574.008</ele>
        <time>2022-03-20T13:52:41Z</time>
      </trkpt>
      <trkpt lat="42.906561" lon="-2.537901">
        <ele>573.618</ele>
        <time>2022-03-20T13:52:42Z</time>
      </trkpt>
      <trkpt lat="42.906563" lon="-2.537918">
        <ele>573.426</ele>
        <time>2022-03-20T13:52:43Z</time>
      </trkpt>
      <trkpt lat="42.906564" lon="-2.537929">
        <ele>573.488</ele>
        <time>2022-03-20T13:52:44Z</time>
      </trkpt>
      <trkpt lat="42.906564" lon="-2.537938">
        <ele>573.273</ele>
        <time>2022-03-20T13:52:45Z</time>
      </trkpt>
      <trkpt lat="42.906559" lon="-2.537945">
        <ele>573.256</ele>
        <time>2022-03-20T13:52:46Z</time>
      </trkpt>
      <trkpt lat="42.906556" lon="-2.53795">
        <ele>573.275</ele>
        <time>2022-03-20T13:52:47Z</time>
      </trkpt>
      <trkpt lat="42.906555" lon="-2.537958">
        <ele>573.420</ele>
        <time>2022-03-20T13:52:48Z</time>
      </trkpt>
      <trkpt lat="42.906554" lon="-2.537968">
        <ele>573.291</ele>
        <time>2022-03-20T13:52:49Z</time>
      </trkpt>
      <trkpt lat="42.90655" lon="-2.537978">
        <ele>573.283</ele>
        <time>2022-03-20T13:52:50Z</time>
      </trkpt>
      <trkpt lat="42.906547" lon="-2.537987">
        <ele>573.225</ele>
        <time>2022-03-20T13:52:51Z</time>
      </trkpt>
      <trkpt lat="42.906544" lon="-2.537999">
        <ele>573.217</ele>
        <time>2022-03-20T13:52:52Z</time>
      </trkpt>
      <trkpt lat="42.906543" lon="-2.538011">
        <ele>573.008</ele>
        <time>2022-03-20T13:52:53Z</time>
      </trkpt>
      <trkpt lat="42.906543" lon="-2.538024">
        <ele>573.057</ele>
        <time>2022-03-20T13:52:54Z</time>
      </trkpt>
      <trkpt lat="42.906542" lon="-2.538035">
        <ele>572.855</ele>
        <time>2022-03-20T13:52:55Z</time>
      </trkpt>
      <trkpt lat="42.906539" lon="-2.538049">
        <ele>573.087</ele>
        <time>2022-03-20T13:52:56Z</time>
      </trkpt>
      <trkpt lat="42.906539" lon="-2.538063">
        <ele>573.042</ele>
        <time>2022-03-20T13:52:57Z</time>
      </trkpt>
      <trkpt lat="42.906541" lon="-2.538077">
        <ele>573.035</ele>
        <time>2022-03-20T13:52:58Z</time>
      </trkpt>
      <trkpt lat="42.906541" lon="-2.538089">
        <ele>573.024</ele>
        <time>2022-03-20T13:52:59Z</time>
      </trkpt>
      <trkpt lat="42.906541" lon="-2.538103">
        <ele>573.069</ele>
        <time>2022-03-20T13:53:00Z</time>
      </trkpt>
      <trkpt lat="42.906542" lon="-2.53812">
        <ele>573.050</ele>
        <time>2022-03-20T13:53:01Z</time>
      </trkpt>
      <trkpt lat="42.906543" lon="-2.538134">
        <ele>573.288</ele>
        <time>2022-03-20T13:53:02Z</time>
      </trkpt>
      <trkpt lat="42.906545" lon="-2.538147">
        <ele>573.224</ele>
        <time>2022-03-20T13:53:03Z</time>
      </trkpt>
      <trkpt lat="42.906544" lon="-2.538158">
        <ele>573.226</ele>
        <time>2022-03-20T13:53:04Z</time>
      </trkpt>
      <trkpt lat="42.906547" lon="-2.538167">
        <ele>573.408</ele>
        <time>2022-03-20T13:53:05Z</time>
      </trkpt>
      <trkpt lat="42.906554" lon="-2.538183">
        <ele>573.487</ele>
        <time>2022-03-20T13:53:06Z</time>
      </trkpt>
      <trkpt lat="42.906557" lon="-2.538196">
        <ele>573.425</ele>
        <time>2022-03-20T13:53:07Z</time>
      </trkpt>
      <trkpt lat="42.906562" lon="-2.538206">
        <ele>573.667</ele>
        <time>2022-03-20T13:53:08Z</time>
      </trkpt>
      <trkpt lat="42.906569" lon="-2.538218">
        <ele>573.492</ele>
        <time>2022-03-20T13:53:09Z</time>
      </trkpt>
      <trkpt lat="42.906576" lon="-2.538227">
        <ele>573.225</ele>
        <time>2022-03-20T13:53:10Z</time>
      </trkpt>
      <trkpt lat="42.906585" lon="-2.538237">
        <ele>573.294</ele>
        <time>2022-03-20T13:53:11Z</time>
      </trkpt>
      <trkpt lat="42.90659" lon="-2.538245">
        <ele>573.269</ele>
        <time>2022-03-20T13:53:12Z</time>
      </trkpt>
      <trkpt lat="42.906594" lon="-2.538253">
        <ele>573.020</ele>
        <time>2022-03-20T13:53:13Z</time>
      </trkpt>
      <trkpt lat="42.9066" lon="-2.538264">
        <ele>573.265</ele>
        <time>2022-03-20T13:53:14Z</time>
      </trkpt>
      <trkpt lat="42.906602" lon="-2.538276">
        <ele>573.268</ele>
        <time>2022-03-20T13:53:15Z</time>
      </trkpt>
      <trkpt lat="42.906607" lon="-2.538288">
        <ele>573.414</ele>
        <time>2022-03-20T13:53:16Z</time>
      </trkpt>
      <trkpt lat="42.906613" lon="-2.538301">
        <ele>573.608</ele>
        <time>2022-03-20T13:53:17Z</time>
      </trkpt>
      <trkpt lat="42.906619" lon="-2.538313">
        <ele>573.695</ele>
        <time>2022-03-20T13:53:18Z</time>
      </trkpt>
      <trkpt lat="42.906623" lon="-2.538324">
        <ele>573.693</ele>
        <time>2022-03-20T13:53:19Z</time>
      </trkpt>
      <trkpt lat="42.906631" lon="-2.538335">
        <ele>573.875</ele>
        <time>2022-03-20T13:53:20Z</time>
      </trkpt>
      <trkpt lat="42.906638" lon="-2.538345">
        <ele>573.860</ele>
        <time>2022-03-20T13:53:21Z</time>
      </trkpt>
      <trkpt lat="42.906643" lon="-2.538354">
        <ele>574.083</ele>
        <time>2022-03-20T13:53:22Z</time>
      </trkpt>
      <trkpt lat="42.906651" lon="-2.538363">
        <ele>574.242</ele>
        <time>2022-03-20T13:53:23Z</time>
      </trkpt>
      <trkpt lat="42.906656" lon="-2.538368">
        <ele>574.277</ele>
        <time>2022-03-20T13:53:24Z</time>
      </trkpt>
      <trkpt lat="42.906661" lon="-2.538375">
        <ele>574.298</ele>
        <time>2022-03-20T13:53:25Z</time>
      </trkpt>
      <trkpt lat="42.906663" lon="-2.538383">
        <ele>574.434</ele>
        <time>2022-03-20T13:53:26Z</time>
      </trkpt>
      <trkpt lat="42.906667" lon="-2.538391">
        <ele>574.855</ele>
        <time>2022-03-20T13:53:27Z</time>
      </trkpt>
      <trkpt lat="42.906675" lon="-2.538401">
        <ele>575.410</ele>
        <time>2022-03-20T13:53:28Z</time>
      </trkpt>
      <trkpt lat="42.906683" lon="-2.538413">
        <ele>575.808</ele>
        <time>2022-03-20T13:53:29Z</time>
      </trkpt>
      <trkpt lat="42.906691" lon="-2.538427">
        <ele>577.282</ele>
        <time>2022-03-20T13:53:30Z</time>
      </trkpt>
      <trkpt lat="42.906695" lon="-2.538436">
        <ele>577.230</ele>
        <time>2022-03-20T13:53:31Z</time>
      </trkpt>
      <trkpt lat="42.906702" lon="-2.538446">
        <ele>577.482</ele>
        <time>2022-03-20T13:53:32Z</time>
      </trkpt>
      <trkpt lat="42.906712" lon="-2.538452">
        <ele>577.657</ele>
        <time>2022-03-20T13:53:33Z</time>
      </trkpt>
      <trkpt lat="42.90672" lon="-2.538459">
        <ele>577.660</ele>
        <time>2022-03-20T13:53:34Z</time>
      </trkpt>
      <trkpt lat="42.906729" lon="-2.538467">
        <ele>577.689</ele>
        <time>2022-03-20T13:53:35Z</time>
      </trkpt>
      <trkpt lat="42.906736" lon="-2.538472">
        <ele>577.614</ele>
        <time>2022-03-20T13:53:36Z</time>
      </trkpt>
      <trkpt lat="42.906744" lon="-2.53848">
        <ele>577.475</ele>
        <time>2022-03-20T13:53:37Z</time>
      </trkpt>
      <trkpt lat="42.906751" lon="-2.538486">
        <ele>577.465</ele>
        <time>2022-03-20T13:53:38Z</time>
      </trkpt>
      <trkpt lat="42.906759" lon="-2.538495">
        <ele>577.468</ele>
        <time>2022-03-20T13:53:39Z</time>
      </trkpt>
      <trkpt lat="42.906766" lon="-2.538502">
        <ele>577.214</ele>
        <time>2022-03-20T13:53:40Z</time>
      </trkpt>
      <trkpt lat="42.906774" lon="-2.538512">
        <ele>577.408</ele>
        <time>2022-03-20T13:53:41Z</time>
      </trkpt>
      <trkpt lat="42.906782" lon="-2.538525">
        <ele>577.215</ele>
        <time>2022-03-20T13:53:42Z</time>
      </trkpt>
      <trkpt lat="42.906787" lon="-2.538535">
        <ele>577.483</ele>
        <time>2022-03-20T13:53:43Z</time>
      </trkpt>
      <trkpt lat="42.906794" lon="-2.538545">
        <ele>577.445</ele>
        <time>2022-03-20T13:53:44Z</time>
      </trkpt>
      <trkpt lat="42.906801" lon="-2.538555">
        <ele>577.430</ele>
        <time>2022-03-20T13:53:45Z</time>
      </trkpt>
      <trkpt lat="42.906811" lon="-2.538563">
        <ele>577.463</ele>
        <time>2022-03-20T13:53:46Z</time>
      </trkpt>
      <trkpt lat="42.906819" lon="-2.538571">
        <ele>577.652</ele>
        <time>2022-03-20T13:53:47Z</time>
      </trkpt>
      <trkpt lat="42.906827" lon="-2.538581">
        <ele>577.667</ele>
        <time>2022-03-20T13:53:48Z</time>
      </trkpt>
      <trkpt lat="42.906831" lon="-2.538589">
        <ele>577.868</ele>
        <time>2022-03-20T13:53:49Z</time>
      </trkpt>
      <trkpt lat="42.906837" lon="-2.538593">
        <ele>577.896</ele>
        <time>2022-03-20T13:53:50Z</time>
      </trkpt>
      <trkpt lat="42.906843" lon="-2.538591">
        <ele>578.031</ele>
        <time>2022-03-20T13:53:51Z</time>
      </trkpt>
      <trkpt lat="42.906846" lon="-2.538591">
        <ele>578.024</ele>
        <time>2022-03-20T13:53:52Z</time>
      </trkpt>
      <trkpt lat="42.906845" lon="-2.538593">
        <ele>578.008</ele>
        <time>2022-03-20T13:53:53Z</time>
      </trkpt>
      <trkpt lat="42.90684" lon="-2.538594">
        <ele>578.018</ele>
        <time>2022-03-20T13:53:54Z</time>
      </trkpt>
      <trkpt lat="42.906833" lon="-2.538597">
        <ele>578.696</ele>
        <time>2022-03-20T13:53:55Z</time>
      </trkpt>
      <trkpt lat="42.90683" lon="-2.538595">
        <ele>578.678</ele>
        <time>2022-03-20T13:53:56Z</time>
      </trkpt>
      <trkpt lat="42.906828" lon="-2.538593">
        <ele>578.663</ele>
        <time>2022-03-20T13:53:57Z</time>
      </trkpt>
      <trkpt lat="42.906826" lon="-2.538591">
        <ele>578.676</ele>
        <time>2022-03-20T13:53:58Z</time>
      </trkpt>
      <trkpt lat="42.906826" lon="-2.538589">
        <ele>578.675</ele>
        <time>2022-03-20T13:53:59Z</time>
      </trkpt>
      <trkpt lat="42.906826" lon="-2.538586">
        <ele>578.470</ele>
        <time>2022-03-20T13:54:00Z</time>
      </trkpt>
      <trkpt lat="42.906826" lon="-2.538586">
        <ele>578.451</ele>
        <time>2022-03-20T13:54:01Z</time>
      </trkpt>
      <trkpt lat="42.906826" lon="-2.538586">
        <ele>578.453</ele>
        <time>2022-03-20T13:54:02Z</time>
      </trkpt>
      <trkpt lat="42.906826" lon="-2.538586">
        <ele>578.404</ele>
        <time>2022-03-20T13:54:03Z</time>
      </trkpt>
      <trkpt lat="42.906826" lon="-2.538586">
        <ele>578.414</ele>
        <time>2022-03-20T13:54:04Z</time>
      </trkpt>
      <trkpt lat="42.906826" lon="-2.538586">
        <ele>578.408</ele>
        <time>2022-03-20T13:54:05Z</time>
      </trkpt>
      <trkpt lat="42.906826" lon="-2.538586">
        <ele>578.454</ele>
        <time>2022-03-20T13:54:06Z</time>
      </trkpt>
      <trkpt lat="42.906826" lon="-2.538586">
        <ele>578.812</ele>
        <time>2022-03-20T13:54:07Z</time>
      </trkpt>
      <trkpt lat="42.906826" lon="-2.538586">
        <ele>578.854</ele>
        <time>2022-03-20T13:54:08Z</time>
      </trkpt>
      <trkpt lat="42.906826" lon="-2.538586">
        <ele>578.839</ele>
        <time>2022-03-20T13:54:09Z</time>
      </trkpt>
      <trkpt lat="42.906826" lon="-2.538586">
        <ele>578.862</ele>
        <time>2022-03-20T13:54:10Z</time>
      </trkpt>
      <trkpt lat="42.906826" lon="-2.538586">
        <ele>578.861</ele>
        <time>2022-03-20T13:54:11Z</time>
      </trkpt>
      <trkpt lat="42.906828" lon="-2.538586">
        <ele>578.876</ele>
        <time>2022-03-20T13:54:12Z</time>
      </trkpt>
      <trkpt lat="42.906828" lon="-2.538586">
        <ele>578.897</ele>
        <time>2022-03-20T13:54:13Z</time>
      </trkpt>
      <trkpt lat="42.906828" lon="-2.538586">
        <ele>578.873</ele>
        <time>2022-03-20T13:54:14Z</time>
      </trkpt>
      <trkpt lat="42.906828" lon="-2.538586">
        <ele>578.885</ele>
        <time>2022-03-20T13:54:15Z</time>
      </trkpt>
      <trkpt lat="42.906829" lon="-2.538581">
        <ele>578.613</ele>
        <time>2022-03-20T13:54:16Z</time>
      </trkpt>
      <trkpt lat="42.90683" lon="-2.538581">
        <ele>578.608</ele>
        <time>2022-03-20T13:54:17Z</time>
      </trkpt>
      <trkpt lat="42.906831" lon="-2.538581">
        <ele>578.686</ele>
        <time>2022-03-20T13:54:18Z</time>
      </trkpt>
      <trkpt lat="42.906832" lon="-2.538581">
        <ele>578.644</ele>
        <time>2022-03-20T13:54:19Z</time>
      </trkpt>
      <trkpt lat="42.906832" lon="-2.538581">
        <ele>578.696</ele>
        <time>2022-03-20T13:54:20Z</time>
      </trkpt>
      <trkpt lat="42.906832" lon="-2.538581">
        <ele>578.671</ele>
        <time>2022-03-20T13:54:21Z</time>
      </trkpt>
      <trkpt lat="42.906837" lon="-2.538587">
        <ele>578.664</ele>
        <time>2022-03-20T13:54:22Z</time>
      </trkpt>
      <trkpt lat="42.906844" lon="-2.538595">
        <ele>578.873</ele>
        <time>2022-03-20T13:54:23Z</time>
      </trkpt>
      <trkpt lat="42.90685" lon="-2.538606">
        <ele>578.888</ele>
        <time>2022-03-20T13:54:24Z</time>
      </trkpt>
      <trkpt lat="42.906855" lon="-2.538616">
        <ele>578.849</ele>
        <time>2022-03-20T13:54:25Z</time>
      </trkpt>
      <trkpt lat="42.906858" lon="-2.538628">
        <ele>578.825</ele>
        <time>2022-03-20T13:54:26Z</time>
      </trkpt>
      <trkpt lat="42.906865" lon="-2.538638">
        <ele>578.826</ele>
        <time>2022-03-20T13:54:27Z</time>
      </trkpt>
      <trkpt lat="42.906874" lon="-2.538654">
        <ele>578.808</ele>
        <time>2022-03-20T13:54:28Z</time>
      </trkpt>
      <trkpt lat="42.906884" lon="-2.538669">
        <ele>579.008</ele>
        <time>2022-03-20T13:54:29Z</time>
      </trkpt>
      <trkpt lat="42.906893" lon="-2.538685">
        <ele>579.081</ele>
        <time>2022-03-20T13:54:30Z</time>
      </trkpt>
      <trkpt lat="42.9069" lon="-2.538704">
        <ele>579.079</ele>
        <time>2022-03-20T13:54:31Z</time>
      </trkpt>
      <trkpt lat="42.906904" lon="-2.538715">
        <ele>579.271</ele>
        <time>2022-03-20T13:54:32Z</time>
      </trkpt>
      <trkpt lat="42.906908" lon="-2.538725">
        <ele>579.236</ele>
        <time>2022-03-20T13:54:33Z</time>
      </trkpt>
      <trkpt lat="42.906911" lon="-2.538737">
        <ele>579.289</ele>
        <time>2022-03-20T13:54:34Z</time>
      </trkpt>
      <trkpt lat="42.906915" lon="-2.538749">
        <ele>579.268</ele>
        <time>2022-03-20T13:54:35Z</time>
      </trkpt>
      <trkpt lat="42.906921" lon="-2.53876">
        <ele>579.263</ele>
        <time>2022-03-20T13:54:36Z</time>
      </trkpt>
      <trkpt lat="42.906926" lon="-2.538772">
        <ele>579.254</ele>
        <time>2022-03-20T13:54:37Z</time>
      </trkpt>
      <trkpt lat="42.906928" lon="-2.538779">
        <ele>579.223</ele>
        <time>2022-03-20T13:54:38Z</time>
      </trkpt>
      <trkpt lat="42.906933" lon="-2.538789">
        <ele>579.283</ele>
        <time>2022-03-20T13:54:39Z</time>
      </trkpt>
      <trkpt lat="42.906938" lon="-2.538805">
        <ele>579.211</ele>
        <time>2022-03-20T13:54:40Z</time>
      </trkpt>
      <trkpt lat="42.906942" lon="-2.538817">
        <ele>579.808</ele>
        <time>2022-03-20T13:54:41Z</time>
      </trkpt>
      <trkpt lat="42.906946" lon="-2.538828">
        <ele>579.661</ele>
        <time>2022-03-20T13:54:42Z</time>
      </trkpt>
      <trkpt lat="42.906949" lon="-2.538839">
        <ele>579.249</ele>
        <time>2022-03-20T13:54:43Z</time>
      </trkpt>
      <trkpt lat="42.906951" lon="-2.538853">
        <ele>579.491</ele>
        <time>2022-03-20T13:54:44Z</time>
      </trkpt>
      <trkpt lat="42.906954" lon="-2.538868">
        <ele>579.636</ele>
        <time>2022-03-20T13:54:45Z</time>
      </trkpt>
      <trkpt lat="42.906961" lon="-2.538887">
        <ele>579.689</ele>
        <time>2022-03-20T13:54:46Z</time>
      </trkpt>
      <trkpt lat="42.906966" lon="-2.538897">
        <ele>579.428</ele>
        <time>2022-03-20T13:54:47Z</time>
      </trkpt>
      <trkpt lat="42.90697" lon="-2.53891">
        <ele>579.413</ele>
        <time>2022-03-20T13:54:48Z</time>
      </trkpt>
      <trkpt lat="42.906973" lon="-2.538923">
        <ele>579.474</ele>
        <time>2022-03-20T13:54:49Z</time>
      </trkpt>
      <trkpt lat="42.906978" lon="-2.538937">
        <ele>579.416</ele>
        <time>2022-03-20T13:54:50Z</time>
      </trkpt>
      <trkpt lat="42.906982" lon="-2.538949">
        <ele>579.676</ele>
        <time>2022-03-20T13:54:51Z</time>
      </trkpt>
      <trkpt lat="42.906988" lon="-2.538962">
        <ele>579.413</ele>
        <time>2022-03-20T13:54:52Z</time>
      </trkpt>
      <trkpt lat="42.906993" lon="-2.538975">
        <ele>579.608</ele>
        <time>2022-03-20T13:54:53Z</time>
      </trkpt>
      <trkpt lat="42.906997" lon="-2.538987">
        <ele>579.680</ele>
        <time>2022-03-20T13:54:54Z</time>
      </trkpt>
      <trkpt lat="42.907" lon="-2.539003">
        <ele>579.628</ele>
        <time>2022-03-20T13:54:55Z</time>
      </trkpt>
      <trkpt lat="42.907005" lon="-2.539019">
        <ele>579.630</ele>
        <time>2022-03-20T13:54:56Z</time>
      </trkpt>
      <trkpt lat="42.907007" lon="-2.539029">
        <ele>579.625</ele>
        <time>2022-03-20T13:54:57Z</time>
      </trkpt>
      <trkpt lat="42.907011" lon="-2.539043">
        <ele>579.818</ele>
        <time>2022-03-20T13:54:58Z</time>
      </trkpt>
      <trkpt lat="42.907014" lon="-2.539052">
        <ele>580.087</ele>
        <time>2022-03-20T13:54:59Z</time>
      </trkpt>
      <trkpt lat="42.907018" lon="-2.539063">
        <ele>580.092</ele>
        <time>2022-03-20T13:55:00Z</time>
      </trkpt>
      <trkpt lat="42.907022" lon="-2.539077">
        <ele>580.233</ele>
        <time>2022-03-20T13:55:01Z</time>
      </trkpt>
      <trkpt lat="42.907025" lon="-2.539088">
        <ele>580.221</ele>
        <time>2022-03-20T13:55:02Z</time>
      </trkpt>
      <trkpt lat="42.907026" lon="-2.539103">
        <ele>580.241</ele>
        <time>2022-03-20T13:55:03Z</time>
      </trkpt>
      <trkpt lat="42.90703" lon="-2.539116">
        <ele>580.005</ele>
        <time>2022-03-20T13:55:04Z</time>
      </trkpt>
      <trkpt lat="42.907034" lon="-2.539132">
        <ele>580.008</ele>
        <time>2022-03-20T13:55:05Z</time>
      </trkpt>
      <trkpt lat="42.907036" lon="-2.539141">
        <ele>580.031</ele>
        <time>2022-03-20T13:55:06Z</time>
      </trkpt>
      <trkpt lat="42.907038" lon="-2.539151">
        <ele>580.079</ele>
        <time>2022-03-20T13:55:07Z</time>
      </trkpt>
      <trkpt lat="42.907039" lon="-2.539162">
        <ele>580.081</ele>
        <time>2022-03-20T13:55:08Z</time>
      </trkpt>
      <trkpt lat="42.907042" lon="-2.539174">
        <ele>580.066</ele>
        <time>2022-03-20T13:55:09Z</time>
      </trkpt>
      <trkpt lat="42.907043" lon="-2.539188">
        <ele>580.639</ele>
        <time>2022-03-20T13:55:10Z</time>
      </trkpt>
      <trkpt lat="42.907045" lon="-2.5392">
        <ele>580.698</ele>
        <time>2022-03-20T13:55:11Z</time>
      </trkpt>
      <trkpt lat="42.907046" lon="-2.539216">
        <ele>580.643</ele>
        <time>2022-03-20T13:55:12Z</time>
      </trkpt>
      <trkpt lat="42.907045" lon="-2.539226">
        <ele>580.874</ele>
        <time>2022-03-20T13:55:13Z</time>
      </trkpt>
      <trkpt lat="42.907042" lon="-2.53924">
        <ele>580.868</ele>
        <time>2022-03-20T13:55:14Z</time>
      </trkpt>
      <trkpt lat="42.907039" lon="-2.539249">
        <ele>580.842</ele>
        <time>2022-03-20T13:55:15Z</time>
      </trkpt>
      <trkpt lat="42.907037" lon="-2.53926">
        <ele>581.026</ele>
        <time>2022-03-20T13:55:16Z</time>
      </trkpt>
      <trkpt lat="42.907035" lon="-2.539275">
        <ele>581.208</ele>
        <time>2022-03-20T13:55:17Z</time>
      </trkpt>
      <trkpt lat="42.907032" lon="-2.539285">
        <ele>581.425</ele>
        <time>2022-03-20T13:55:18Z</time>
      </trkpt>
      <trkpt lat="42.90703" lon="-2.539296">
        <ele>581.423</ele>
        <time>2022-03-20T13:55:19Z</time>
      </trkpt>
      <trkpt lat="42.907028" lon="-2.539307">
        <ele>581.645</ele>
        <time>2022-03-20T13:55:20Z</time>
      </trkpt>
      <trkpt lat="42.907024" lon="-2.539316">
        <ele>581.670</ele>
        <time>2022-03-20T13:55:21Z</time>
      </trkpt>
      <trkpt lat="42.907016" lon="-2.539328">
        <ele>581.683</ele>
        <time>2022-03-20T13:55:22Z</time>
      </trkpt>
      <trkpt lat="42.907011" lon="-2.539336">
        <ele>581.882</ele>
        <time>2022-03-20T13:55:23Z</time>
      </trkpt>
      <trkpt lat="42.907006" lon="-2.539341">
        <ele>581.817</ele>
        <time>2022-03-20T13:55:24Z</time>
      </trkpt>
      <trkpt lat="42.907003" lon="-2.539351">
        <ele>581.848</ele>
        <time>2022-03-20T13:55:25Z</time>
      </trkpt>
      <trkpt lat="42.906997" lon="-2.539361">
        <ele>582.263</ele>
        <time>2022-03-20T13:55:26Z</time>
      </trkpt>
      <trkpt lat="42.906995" lon="-2.539366">
        <ele>582.644</ele>
        <time>2022-03-20T13:55:27Z</time>
      </trkpt>
      <trkpt lat="42.906995" lon="-2.53937">
        <ele>582.818</ele>
        <time>2022-03-20T13:55:28Z</time>
      </trkpt>
      <trkpt lat="42.906994" lon="-2.539378">
        <ele>582.808</ele>
        <time>2022-03-20T13:55:29Z</time>
      </trkpt>
      <trkpt lat="42.906989" lon="-2.539384">
        <ele>583.075</ele>
        <time>2022-03-20T13:55:30Z</time>
      </trkpt>
      <trkpt lat="42.906984" lon="-2.539387">
        <ele>583.463</ele>
        <time>2022-03-20T13:55:31Z</time>
      </trkpt>
      <trkpt lat="42.906978" lon="-2.539389">
        <ele>583.075</ele>
        <time>2022-03-20T13:55:32Z</time>
      </trkpt>
      <trkpt lat="42.90697" lon="-2.539396">
        <ele>583.420</ele>
        <time>2022-03-20T13:55:33Z</time>
      </trkpt>
      <trkpt lat="42.906961" lon="-2.539404">
        <ele>583.453</ele>
        <time>2022-03-20T13:55:34Z</time>
      </trkpt>
      <trkpt lat="42.906951" lon="-2.539411">
        <ele>583.662</ele>
        <time>2022-03-20T13:55:35Z</time>
      </trkpt>
      <trkpt lat="42.906943" lon="-2.53942">
        <ele>583.857</ele>
        <time>2022-03-20T13:55:36Z</time>
      </trkpt>
      <trkpt lat="42.906935" lon="-2.539425">
        <ele>583.638</ele>
        <time>2022-03-20T13:55:37Z</time>
      </trkpt>
      <trkpt lat="42.906928" lon="-2.539431">
        <ele>583.823</ele>
        <time>2022-03-20T13:55:38Z</time>
      </trkpt>
      <trkpt lat="42.906917" lon="-2.539435">
        <ele>583.883</ele>
        <time>2022-03-20T13:55:39Z</time>
      </trkpt>
      <trkpt lat="42.906907" lon="-2.539438">
        <ele>583.811</ele>
        <time>2022-03-20T13:55:40Z</time>
      </trkpt>
      <trkpt lat="42.906901" lon="-2.539439">
        <ele>583.808</ele>
        <time>2022-03-20T13:55:41Z</time>
      </trkpt>
      <trkpt lat="42.906898" lon="-2.539443">
        <ele>584.021</ele>
        <time>2022-03-20T13:55:42Z</time>
      </trkpt>
      <trkpt lat="42.90689" lon="-2.539444">
        <ele>584.469</ele>
        <time>2022-03-20T13:55:43Z</time>
      </trkpt>
      <trkpt lat="42.906885" lon="-2.539444">
        <ele>584.411</ele>
        <time>2022-03-20T13:55:44Z</time>
      </trkpt>
      <trkpt lat="42.906876" lon="-2.539442">
        <ele>584.626</ele>
        <time>2022-03-20T13:55:45Z</time>
      </trkpt>
      <trkpt lat="42.906869" lon="-2.539442">
        <ele>585.299</ele>
        <time>2022-03-20T13:55:46Z</time>
      </trkpt>
      <trkpt lat="42.906864" lon="-2.539441">
        <ele>585.858</ele>
        <time>2022-03-20T13:55:47Z</time>
      </trkpt>
      <trkpt lat="42.906856" lon="-2.53944">
        <ele>586.043</ele>
        <time>2022-03-20T13:55:48Z</time>
      </trkpt>
      <trkpt lat="42.906851" lon="-2.53944">
        <ele>586.284</ele>
        <time>2022-03-20T13:55:49Z</time>
      </trkpt>
      <trkpt lat="42.906844" lon="-2.53944">
        <ele>586.622</ele>
        <time>2022-03-20T13:55:50Z</time>
      </trkpt>
      <trkpt lat="42.906839" lon="-2.53944">
        <ele>586.662</ele>
        <time>2022-03-20T13:55:51Z</time>
      </trkpt>
      <trkpt lat="42.906834" lon="-2.539439">
        <ele>586.808</ele>
        <time>2022-03-20T13:55:52Z</time>
      </trkpt>
      <trkpt lat="42.906826" lon="-2.539437">
        <ele>587.008</ele>
        <time>2022-03-20T13:55:53Z</time>
      </trkpt>
      <trkpt lat="42.906818" lon="-2.539435">
        <ele>587.011</ele>
        <time>2022-03-20T13:55:54Z</time>
      </trkpt>
      <trkpt lat="42.906811" lon="-2.539433">
        <ele>587.219</ele>
        <time>2022-03-20T13:55:55Z</time>
      </trkpt>
      <trkpt lat="42.906807" lon="-2.539432">
        <ele>587.441</ele>
        <time>2022-03-20T13:55:56Z</time>
      </trkpt>
      <trkpt lat="42.9068" lon="-2.53943">
        <ele>587.496</ele>
        <time>2022-03-20T13:55:57Z</time>
      </trkpt>
      <trkpt lat="42.906794" lon="-2.539428">
        <ele>588.849</ele>
        <time>2022-03-20T13:55:58Z</time>
      </trkpt>
      <trkpt lat="42.906788" lon="-2.539425">
        <ele>589.478</ele>
        <time>2022-03-20T13:55:59Z</time>
      </trkpt>
      <trkpt lat="42.906781" lon="-2.539422">
        <ele>589.893</ele>
        <time>2022-03-20T13:56:00Z</time>
      </trkpt>
      <trkpt lat="42.906774" lon="-2.539421">
        <ele>590.634</ele>
        <time>2022-03-20T13:56:01Z</time>
      </trkpt>
      <trkpt lat="42.906765" lon="-2.539419">
        <ele>590.848</ele>
        <time>2022-03-20T13:56:02Z</time>
      </trkpt>
      <trkpt lat="42.906758" lon="-2.53942">
        <ele>590.661</ele>
        <time>2022-03-20T13:56:03Z</time>
      </trkpt>
      <trkpt lat="42.90675" lon="-2.539422">
        <ele>591.417</ele>
        <time>2022-03-20T13:56:04Z</time>
      </trkpt>
      <trkpt lat="42.906746" lon="-2.539422">
        <ele>591.408</ele>
        <time>2022-03-20T13:56:05Z</time>
      </trkpt>
      <trkpt lat="42.906741" lon="-2.53942">
        <ele>591.453</ele>
        <time>2022-03-20T13:56:06Z</time>
      </trkpt>
      <trkpt lat="42.906735" lon="-2.53942">
        <ele>591.471</ele>
        <time>2022-03-20T13:56:07Z</time>
      </trkpt>
      <trkpt lat="42.906727" lon="-2.53942">
        <ele>591.413</ele>
        <time>2022-03-20T13:56:08Z</time>
      </trkpt>
      <trkpt lat="42.906723" lon="-2.539421">
        <ele>591.628</ele>
        <time>2022-03-20T13:56:09Z</time>
      </trkpt>
      <trkpt lat="42.90672" lon="-2.539423">
        <ele>592.051</ele>
        <time>2022-03-20T13:56:10Z</time>
      </trkpt>
      <trkpt lat="42.906715" lon="-2.539423">
        <ele>593.260</ele>
        <time>2022-03-20T13:56:11Z</time>
      </trkpt>
      <trkpt lat="42.906709" lon="-2.539425">
        <ele>594.085</ele>
        <time>2022-03-20T13:56:12Z</time>
      </trkpt>
      <trkpt lat="42.906701" lon="-2.539425">
        <ele>594.096</ele>
        <time>2022-03-20T13:56:13Z</time>
      </trkpt>
      <trkpt lat="42.906695" lon="-2.539425">
        <ele>594.015</ele>
        <time>2022-03-20T13:56:14Z</time>
      </trkpt>
      <trkpt lat="42.906686" lon="-2.539424">
        <ele>594.865</ele>
        <time>2022-03-20T13:56:15Z</time>
      </trkpt>
      <trkpt lat="42.906677" lon="-2.539421">
        <ele>595.011</ele>
        <time>2022-03-20T13:56:16Z</time>
      </trkpt>
      <trkpt lat="42.906671" lon="-2.539416">
        <ele>595.408</ele>
        <time>2022-03-20T13:56:17Z</time>
      </trkpt>
      <trkpt lat="42.906665" lon="-2.539414">
        <ele>595.490</ele>
        <time>2022-03-20T13:56:18Z</time>
      </trkpt>
      <trkpt lat="42.906659" lon="-2.539414">
        <ele>596.458</ele>
        <time>2022-03-20T13:56:19Z</time>
      </trkpt>
      <trkpt lat="42.906653" lon="-2.539415">
        <ele>596.420</ele>
        <time>2022-03-20T13:56:20Z</time>
      </trkpt>
      <trkpt lat="42.906645" lon="-2.539416">
        <ele>596.435</ele>
        <time>2022-03-20T13:56:21Z</time>
      </trkpt>
      <trkpt lat="42.906638" lon="-2.539422">
        <ele>597.088</ele>
        <time>2022-03-20T13:56:22Z</time>
      </trkpt>
      <trkpt lat="42.906633" lon="-2.539425">
        <ele>597.017</ele>
        <time>2022-03-20T13:56:23Z</time>
      </trkpt>
      <trkpt lat="42.90663" lon="-2.539428">
        <ele>597.262</ele>
        <time>2022-03-20T13:56:24Z</time>
      </trkpt>
      <trkpt lat="42.906631" lon="-2.539429">
        <ele>597.663</ele>
        <time>2022-03-20T13:56:25Z</time>
      </trkpt>
      <trkpt lat="42.90663" lon="-2.539429">
        <ele>598.054</ele>
        <time>2022-03-20T13:56:26Z</time>
      </trkpt>
      <trkpt lat="42.906633" lon="-2.539414">
        <ele>598.456</ele>
        <time>2022-03-20T13:56:27Z</time>
      </trkpt>
      <trkpt lat="42.906632" lon="-2.53941">
        <ele>598.411</ele>
        <time>2022-03-20T13:56:28Z</time>
      </trkpt>
      <trkpt lat="42.90663" lon="-2.539412">
        <ele>598.408</ele>
        <time>2022-03-20T13:56:29Z</time>
      </trkpt>
      <trkpt lat="42.906626" lon="-2.539415">
        <ele>598.054</ele>
        <time>2022-03-20T13:56:30Z</time>
      </trkpt>
      <trkpt lat="42.906622" lon="-2.53942">
        <ele>598.052</ele>
        <time>2022-03-20T13:56:31Z</time>
      </trkpt>
      <trkpt lat="42.90662" lon="-2.539422">
        <ele>598.254</ele>
        <time>2022-03-20T13:56:32Z</time>
      </trkpt>
      <trkpt lat="42.906614" lon="-2.539424">
        <ele>598.269</ele>
        <time>2022-03-20T13:56:33Z</time>
      </trkpt>
      <trkpt lat="42.906608" lon="-2.539425">
        <ele>598.242</ele>
        <time>2022-03-20T13:56:34Z</time>
      </trkpt>
      <trkpt lat="42.906602" lon="-2.539424">
        <ele>598.631</ele>
        <time>2022-03-20T13:56:35Z</time>
      </trkpt>
      <trkpt lat="42.906593" lon="-2.539423">
        <ele>598.686</ele>
        <time>2022-03-20T13:56:36Z</time>
      </trkpt>
      <trkpt lat="42.906583" lon="-2.539426">
        <ele>599.047</ele>
        <time>2022-03-20T13:56:37Z</time>
      </trkpt>
      <trkpt lat="42.906569" lon="-2.539429">
        <ele>599.424</ele>
        <time>2022-03-20T13:56:38Z</time>
      </trkpt>
      <trkpt lat="42.906557" lon="-2.539431">
        <ele>599.604</ele>
        <time>2022-03-20T13:56:39Z</time>
      </trkpt>
      <trkpt lat="42.906544" lon="-2.539434">
        <ele>599.814</ele>
        <time>2022-03-20T13:56:40Z</time>
      </trkpt>
      <trkpt lat="42.906538" lon="-2.539437">
        <ele>600.008</ele>
        <time>2022-03-20T13:56:41Z</time>
      </trkpt>
      <trkpt lat="42.906528" lon="-2.539442">
        <ele>600.291</ele>
        <time>2022-03-20T13:56:42Z</time>
      </trkpt>
      <trkpt lat="42.906518" lon="-2.539453">
        <ele>600.479</ele>
        <time>2022-03-20T13:56:43Z</time>
      </trkpt>
      <trkpt lat="42.90652" lon="-2.53946">
        <ele>600.481</ele>
        <time>2022-03-20T13:56:44Z</time>
      </trkpt>
      <trkpt lat="42.906518" lon="-2.539469">
        <ele>600.656</ele>
        <time>2022-03-20T13:56:45Z</time>
      </trkpt>
      <trkpt lat="42.906513" lon="-2.539475">
        <ele>600.849</ele>
        <time>2022-03-20T13:56:46Z</time>
      </trkpt>
      <trkpt lat="42.906506" lon="-2.539486">
        <ele>600.878</ele>
        <time>2022-03-20T13:56:47Z</time>
      </trkpt>
      <trkpt lat="42.906506" lon="-2.53949">
        <ele>600.833</ele>
        <time>2022-03-20T13:56:48Z</time>
      </trkpt>
      <trkpt lat="42.906507" lon="-2.539493">
        <ele>600.874</ele>
        <time>2022-03-20T13:56:49Z</time>
      </trkpt>
      <trkpt lat="42.906507" lon="-2.539494">
        <ele>601.061</ele>
        <time>2022-03-20T13:56:50Z</time>
      </trkpt>
      <trkpt lat="42.906508" lon="-2.539497">
        <ele>601.021</ele>
        <time>2022-03-20T13:56:51Z</time>
      </trkpt>
      <trkpt lat="42.90651" lon="-2.539498">
        <ele>601.013</ele>
        <time>2022-03-20T13:56:52Z</time>
      </trkpt>
      <trkpt lat="42.90651" lon="-2.539496">
        <ele>601.208</ele>
        <time>2022-03-20T13:56:53Z</time>
      </trkpt>
      <trkpt lat="42.906513" lon="-2.539491">
        <ele>601.255</ele>
        <time>2022-03-20T13:56:54Z</time>
      </trkpt>
      <trkpt lat="42.906513" lon="-2.539482">
        <ele>601.293</ele>
        <time>2022-03-20T13:56:55Z</time>
      </trkpt>
      <trkpt lat="42.906511" lon="-2.539475">
        <ele>601.225</ele>
        <time>2022-03-20T13:56:56Z</time>
      </trkpt>
      <trkpt lat="42.90651" lon="-2.539469">
        <ele>601.240</ele>
        <time>2022-03-20T13:56:57Z</time>
      </trkpt>
      <trkpt lat="42.906508" lon="-2.539465">
        <ele>601.213</ele>
        <time>2022-03-20T13:56:58Z</time>
      </trkpt>
      <trkpt lat="42.906508" lon="-2.53946">
        <ele>601.212</ele>
        <time>2022-03-20T13:56:59Z</time>
      </trkpt>
      <trkpt lat="42.906507" lon="-2.539459">
        <ele>601.297</ele>
        <time>2022-03-20T13:57:00Z</time>
      </trkpt>
      <trkpt lat="42.906508" lon="-2.539459">
        <ele>601.028</ele>
        <time>2022-03-20T13:57:01Z</time>
      </trkpt>
      <trkpt lat="42.906508" lon="-2.539459">
        <ele>601.057</ele>
        <time>2022-03-20T13:57:02Z</time>
      </trkpt>
      <trkpt lat="42.906508" lon="-2.539459">
        <ele>601.000</ele>
        <time>2022-03-20T13:57:03Z</time>
      </trkpt>
      <trkpt lat="42.906508" lon="-2.539459">
        <ele>600.620</ele>
        <time>2022-03-20T13:57:04Z</time>
      </trkpt>
      <trkpt lat="42.906508" lon="-2.539459">
        <ele>600.608</ele>
        <time>2022-03-20T13:57:05Z</time>
      </trkpt>
      <trkpt lat="42.906508" lon="-2.539459">
        <ele>600.664</ele>
        <time>2022-03-20T13:57:06Z</time>
      </trkpt>
      <trkpt lat="42.906508" lon="-2.539459">
        <ele>600.412</ele>
        <time>2022-03-20T13:57:07Z</time>
      </trkpt>
      <trkpt lat="42.906508" lon="-2.539459">
        <ele>600.464</ele>
        <time>2022-03-20T13:57:08Z</time>
      </trkpt>
      <trkpt lat="42.906508" lon="-2.539459">
        <ele>600.429</ele>
        <time>2022-03-20T13:57:09Z</time>
      </trkpt>
      <trkpt lat="42.906508" lon="-2.53946">
        <ele>600.462</ele>
        <time>2022-03-20T13:57:10Z</time>
      </trkpt>
      <trkpt lat="42.906508" lon="-2.53946">
        <ele>600.421</ele>
        <time>2022-03-20T13:57:11Z</time>
      </trkpt>
      <trkpt lat="42.906508" lon="-2.53946">
        <ele>600.426</ele>
        <time>2022-03-20T13:57:12Z</time>
      </trkpt>
      <trkpt lat="42.906508" lon="-2.539461">
        <ele>600.457</ele>
        <time>2022-03-20T13:57:13Z</time>
      </trkpt>
      <trkpt lat="42.906508" lon="-2.539463">
        <ele>600.473</ele>
        <time>2022-03-20T13:57:14Z</time>
      </trkpt>
      <trkpt lat="42.906508" lon="-2.539463">
        <ele>600.485</ele>
        <time>2022-03-20T13:57:15Z</time>
      </trkpt>
      <trkpt lat="42.906508" lon="-2.539465">
        <ele>600.413</ele>
        <time>2022-03-20T13:57:16Z</time>
      </trkpt>
      <trkpt lat="42.906509" lon="-2.539465">
        <ele>600.408</ele>
        <time>2022-03-20T13:57:17Z</time>
      </trkpt>
      <trkpt lat="42.906509" lon="-2.539466">
        <ele>600.696</ele>
        <time>2022-03-20T13:57:18Z</time>
      </trkpt>
      <trkpt lat="42.906509" lon="-2.539466">
        <ele>600.664</ele>
        <time>2022-03-20T13:57:19Z</time>
      </trkpt>
      <trkpt lat="42.906509" lon="-2.539466">
        <ele>600.666</ele>
        <time>2022-03-20T13:57:20Z</time>
      </trkpt>
      <trkpt lat="42.90651" lon="-2.539467">
        <ele>600.641</ele>
        <time>2022-03-20T13:57:21Z</time>
      </trkpt>
      <trkpt lat="42.90651" lon="-2.539467">
        <ele>600.474</ele>
        <time>2022-03-20T13:57:22Z</time>
      </trkpt>
      <trkpt lat="42.90651" lon="-2.539468">
        <ele>600.463</ele>
        <time>2022-03-20T13:57:23Z</time>
      </trkpt>
      <trkpt lat="42.90651" lon="-2.539468">
        <ele>600.238</ele>
        <time>2022-03-20T13:57:24Z</time>
      </trkpt>
      <trkpt lat="42.90651" lon="-2.539468">
        <ele>600.299</ele>
        <time>2022-03-20T13:57:25Z</time>
      </trkpt>
      <trkpt lat="42.90651" lon="-2.539468">
        <ele>600.298</ele>
        <time>2022-03-20T13:57:26Z</time>
      </trkpt>
      <trkpt lat="42.90651" lon="-2.539468">
        <ele>600.215</ele>
        <time>2022-03-20T13:57:27Z</time>
      </trkpt>
      <trkpt lat="42.90651" lon="-2.539471">
        <ele>600.026</ele>
        <time>2022-03-20T13:57:28Z</time>
      </trkpt>
      <trkpt lat="42.906511" lon="-2.539472">
        <ele>600.008</ele>
        <time>2022-03-20T13:57:29Z</time>
      </trkpt>
      <trkpt lat="42.906511" lon="-2.539474">
        <ele>599.818</ele>
        <time>2022-03-20T13:57:30Z</time>
      </trkpt>
      <trkpt lat="42.906512" lon="-2.539475">
        <ele>599.886</ele>
        <time>2022-03-20T13:57:31Z</time>
      </trkpt>
      <trkpt lat="42.906513" lon="-2.539476">
        <ele>599.878</ele>
        <time>2022-03-20T13:57:32Z</time>
      </trkpt>
      <trkpt lat="42.906514" lon="-2.539476">
        <ele>599.643</ele>
        <time>2022-03-20T13:57:33Z</time>
      </trkpt>
      <trkpt lat="42.906515" lon="-2.539476">
        <ele>599.676</ele>
        <time>2022-03-20T13:57:34Z</time>
      </trkpt>
      <trkpt lat="42.906516" lon="-2.539477">
        <ele>599.655</ele>
        <time>2022-03-20T13:57:35Z</time>
      </trkpt>
      <trkpt lat="42.906517" lon="-2.539477">
        <ele>599.830</ele>
        <time>2022-03-20T13:57:36Z</time>
      </trkpt>
      <trkpt lat="42.906517" lon="-2.539477">
        <ele>599.891</ele>
        <time>2022-03-20T13:57:37Z</time>
      </trkpt>
      <trkpt lat="42.906517" lon="-2.539477">
        <ele>599.673</ele>
        <time>2022-03-20T13:57:38Z</time>
      </trkpt>
      <trkpt lat="42.906518" lon="-2.539478">
        <ele>599.885</ele>
        <time>2022-03-20T13:57:39Z</time>
      </trkpt>
      <trkpt lat="42.906518" lon="-2.53948">
        <ele>599.813</ele>
        <time>2022-03-20T13:57:40Z</time>
      </trkpt>
      <trkpt lat="42.906518" lon="-2.539482">
        <ele>599.808</ele>
        <time>2022-03-20T13:57:41Z</time>
      </trkpt>
      <trkpt lat="42.906518" lon="-2.539483">
        <ele>599.826</ele>
        <time>2022-03-20T13:57:42Z</time>
      </trkpt>
      <trkpt lat="42.906518" lon="-2.539483">
        <ele>599.644</ele>
        <time>2022-03-20T13:57:43Z</time>
      </trkpt>
      <trkpt lat="42.906519" lon="-2.539483">
        <ele>599.626</ele>
        <time>2022-03-20T13:57:44Z</time>
      </trkpt>
      <trkpt lat="42.90652" lon="-2.539483">
        <ele>599.441</ele>
        <time>2022-03-20T13:57:45Z</time>
      </trkpt>
      <trkpt lat="42.90652" lon="-2.539483">
        <ele>599.454</ele>
        <time>2022-03-20T13:57:46Z</time>
      </trkpt>
      <trkpt lat="42.906521" lon="-2.539484">
        <ele>599.273</ele>
        <time>2022-03-20T13:57:47Z</time>
      </trkpt>
      <trkpt lat="42.906521" lon="-2.539485">
        <ele>599.078</ele>
        <time>2022-03-20T13:57:48Z</time>
      </trkpt>
      <trkpt lat="42.906521" lon="-2.539485">
        <ele>598.649</ele>
        <time>2022-03-20T13:57:49Z</time>
      </trkpt>
      <trkpt lat="42.906521" lon="-2.539485">
        <ele>598.646</ele>
        <time>2022-03-20T13:57:50Z</time>
      </trkpt>
      <trkpt lat="42.906521" lon="-2.539486">
        <ele>598.488</ele>
        <time>2022-03-20T13:57:51Z</time>
      </trkpt>
      <trkpt lat="42.906522" lon="-2.539487">
        <ele>598.416</ele>
        <time>2022-03-20T13:57:52Z</time>
      </trkpt>
      <trkpt lat="42.906522" lon="-2.539488">
        <ele>598.408</ele>
        <time>2022-03-20T13:57:53Z</time>
      </trkpt>
      <trkpt lat="42.906522" lon="-2.539489">
        <ele>598.273</ele>
        <time>2022-03-20T13:57:54Z</time>
      </trkpt>
      <trkpt lat="42.906522" lon="-2.539491">
        <ele>598.091</ele>
        <time>2022-03-20T13:57:55Z</time>
      </trkpt>
      <trkpt lat="42.906522" lon="-2.539491">
        <ele>598.013</ele>
        <time>2022-03-20T13:57:56Z</time>
      </trkpt>
      <trkpt lat="42.906522" lon="-2.539492">
        <ele>598.088</ele>
        <time>2022-03-20T13:57:57Z</time>
      </trkpt>
      <trkpt lat="42.906522" lon="-2.539492">
        <ele>598.011</ele>
        <time>2022-03-20T13:57:58Z</time>
      </trkpt>
      <trkpt lat="42.906522" lon="-2.539493">
        <ele>598.050</ele>
        <time>2022-03-20T13:57:59Z</time>
      </trkpt>
      <trkpt lat="42.906522" lon="-2.539493">
        <ele>598.095</ele>
        <time>2022-03-20T13:58:00Z</time>
      </trkpt>
      <trkpt lat="42.906522" lon="-2.539493">
        <ele>598.086</ele>
        <time>2022-03-20T13:58:01Z</time>
      </trkpt>
      <trkpt lat="42.906522" lon="-2.539493">
        <ele>598.244</ele>
        <time>2022-03-20T13:58:02Z</time>
      </trkpt>
      <trkpt lat="42.906523" lon="-2.539493">
        <ele>598.205</ele>
        <time>2022-03-20T13:58:03Z</time>
      </trkpt>
      <trkpt lat="42.906523" lon="-2.539493">
        <ele>598.415</ele>
        <time>2022-03-20T13:58:04Z</time>
      </trkpt>
      <trkpt lat="42.906523" lon="-2.539493">
        <ele>598.408</ele>
        <time>2022-03-20T13:58:05Z</time>
      </trkpt>
      <trkpt lat="42.906523" lon="-2.539493">
        <ele>598.843</ele>
        <time>2022-03-20T13:58:06Z</time>
      </trkpt>
      <trkpt lat="42.906523" lon="-2.539493">
        <ele>598.871</ele>
        <time>2022-03-20T13:58:07Z</time>
      </trkpt>
      <trkpt lat="42.906523" lon="-2.539493">
        <ele>598.833</ele>
        <time>2022-03-20T13:58:08Z</time>
      </trkpt>
      <trkpt lat="42.906523" lon="-2.539495">
        <ele>598.878</ele>
        <time>2022-03-20T13:58:09Z</time>
      </trkpt>
      <trkpt lat="42.906523" lon="-2.539498">
        <ele>598.831</ele>
        <time>2022-03-20T13:58:10Z</time>
      </trkpt>
      <trkpt lat="42.906524" lon="-2.539499">
        <ele>598.820</ele>
        <time>2022-03-20T13:58:11Z</time>
      </trkpt>
      <trkpt lat="42.906524" lon="-2.539499">
        <ele>598.895</ele>
        <time>2022-03-20T13:58:12Z</time>
      </trkpt>
      <trkpt lat="42.906524" lon="-2.539499">
        <ele>598.836</ele>
        <time>2022-03-20T13:58:13Z</time>
      </trkpt>
      <trkpt lat="42.906525" lon="-2.539499">
        <ele>598.842</ele>
        <time>2022-03-20T13:58:14Z</time>
      </trkpt>
      <trkpt lat="42.906525" lon="-2.539499">
        <ele>598.822</ele>
        <time>2022-03-20T13:58:15Z</time>
      </trkpt>
      <trkpt lat="42.906525" lon="-2.539499">
        <ele>598.814</ele>
        <time>2022-03-20T13:58:16Z</time>
      </trkpt>
      <trkpt lat="42.906525" lon="-2.539499">
        <ele>598.608</ele>
        <time>2022-03-20T13:58:17Z</time>
      </trkpt>
      <trkpt lat="42.906526" lon="-2.539499">
        <ele>598.633</ele>
        <time>2022-03-20T13:58:18Z</time>
      </trkpt>
      <trkpt lat="42.906526" lon="-2.539499">
        <ele>598.611</ele>
        <time>2022-03-20T13:58:19Z</time>
      </trkpt>
      <trkpt lat="42.906526" lon="-2.539499">
        <ele>598.813</ele>
        <time>2022-03-20T13:58:20Z</time>
      </trkpt>
      <trkpt lat="42.906526" lon="-2.539499">
        <ele>598.858</ele>
        <time>2022-03-20T13:58:21Z</time>
      </trkpt>
      <trkpt lat="42.906527" lon="-2.539499">
        <ele>598.861</ele>
        <time>2022-03-20T13:58:22Z</time>
      </trkpt>
      <trkpt lat="42.906527" lon="-2.539499">
        <ele>598.810</ele>
        <time>2022-03-20T13:58:23Z</time>
      </trkpt>
      <trkpt lat="42.906528" lon="-2.539499">
        <ele>598.825</ele>
        <time>2022-03-20T13:58:24Z</time>
      </trkpt>
      <trkpt lat="42.906528" lon="-2.539499">
        <ele>598.846</ele>
        <time>2022-03-20T13:58:25Z</time>
      </trkpt>
      <trkpt lat="42.906528" lon="-2.539496">
        <ele>598.442</ele>
        <time>2022-03-20T13:58:26Z</time>
      </trkpt>
      <trkpt lat="42.906528" lon="-2.539493">
        <ele>598.422</ele>
        <time>2022-03-20T13:58:27Z</time>
      </trkpt>
      <trkpt lat="42.906528" lon="-2.53949">
        <ele>598.214</ele>
        <time>2022-03-20T13:58:28Z</time>
      </trkpt>
      <trkpt lat="42.906528" lon="-2.539487">
        <ele>598.208</ele>
        <time>2022-03-20T13:58:29Z</time>
      </trkpt>
      <trkpt lat="42.906528" lon="-2.539485">
        <ele>598.293</ele>
        <time>2022-03-20T13:58:30Z</time>
      </trkpt>
      <trkpt lat="42.906528" lon="-2.539484">
        <ele>598.211</ele>
        <time>2022-03-20T13:58:31Z</time>
      </trkpt>
      <trkpt lat="42.906528" lon="-2.539484">
        <ele>598.293</ele>
        <time>2022-03-20T13:58:32Z</time>
      </trkpt>
      <trkpt lat="42.906528" lon="-2.539483">
        <ele>598.078</ele>
        <time>2022-03-20T13:58:33Z</time>
      </trkpt>
      <trkpt lat="42.906528" lon="-2.539483">
        <ele>598.091</ele>
        <time>2022-03-20T13:58:34Z</time>
      </trkpt>
      <trkpt lat="42.906528" lon="-2.539483">
        <ele>598.070</ele>
        <time>2022-03-20T13:58:35Z</time>
      </trkpt>
      <trkpt lat="42.906528" lon="-2.539482">
        <ele>598.275</ele>
        <time>2022-03-20T13:58:36Z</time>
      </trkpt>
      <trkpt lat="42.906528" lon="-2.539481">
        <ele>598.236</ele>
        <time>2022-03-20T13:58:37Z</time>
      </trkpt>
      <trkpt lat="42.906528" lon="-2.53948">
        <ele>598.287</ele>
        <time>2022-03-20T13:58:38Z</time>
      </trkpt>
      <trkpt lat="42.906528" lon="-2.53948">
        <ele>598.042</ele>
        <time>2022-03-20T13:58:39Z</time>
      </trkpt>
      <trkpt lat="42.906527" lon="-2.53948">
        <ele>598.026</ele>
        <time>2022-03-20T13:58:40Z</time>
      </trkpt>
      <trkpt lat="42.906527" lon="-2.539479">
        <ele>598.008</ele>
        <time>2022-03-20T13:58:41Z</time>
      </trkpt>
      <trkpt lat="42.906527" lon="-2.539479">
        <ele>598.027</ele>
        <time>2022-03-20T13:58:42Z</time>
      </trkpt>
      <trkpt lat="42.906526" lon="-2.539479">
        <ele>598.085</ele>
        <time>2022-03-20T13:58:43Z</time>
      </trkpt>
      <trkpt lat="42.906526" lon="-2.539479">
        <ele>598.047</ele>
        <time>2022-03-20T13:58:44Z</time>
      </trkpt>
      <trkpt lat="42.906526" lon="-2.539479">
        <ele>598.012</ele>
        <time>2022-03-20T13:58:45Z</time>
      </trkpt>
      <trkpt lat="42.906526" lon="-2.539479">
        <ele>597.625</ele>
        <time>2022-03-20T13:58:46Z</time>
      </trkpt>
      <trkpt lat="42.906525" lon="-2.539478">
        <ele>597.854</ele>
        <time>2022-03-20T13:58:47Z</time>
      </trkpt>
      <trkpt lat="42.906524" lon="-2.539478">
        <ele>597.669</ele>
        <time>2022-03-20T13:58:48Z</time>
      </trkpt>
      <trkpt lat="42.906523" lon="-2.539477">
        <ele>597.620</ele>
        <time>2022-03-20T13:58:49Z</time>
      </trkpt>
      <trkpt lat="42.906523" lon="-2.539476">
        <ele>597.648</ele>
        <time>2022-03-20T13:58:50Z</time>
      </trkpt>
      <trkpt lat="42.906523" lon="-2.539476">
        <ele>597.461</ele>
        <time>2022-03-20T13:58:51Z</time>
      </trkpt>
      <trkpt lat="42.906522" lon="-2.539476">
        <ele>597.417</ele>
        <time>2022-03-20T13:58:52Z</time>
      </trkpt>
      <trkpt lat="42.906522" lon="-2.539475">
        <ele>597.008</ele>
        <time>2022-03-20T13:58:53Z</time>
      </trkpt>
      <trkpt lat="42.906522" lon="-2.539475">
        <ele>597.093</ele>
        <time>2022-03-20T13:58:54Z</time>
      </trkpt>
      <trkpt lat="42.906522" lon="-2.539475">
        <ele>597.011</ele>
        <time>2022-03-20T13:58:55Z</time>
      </trkpt>
      <trkpt lat="42.906521" lon="-2.539474">
        <ele>597.083</ele>
        <time>2022-03-20T13:58:56Z</time>
      </trkpt>
      <trkpt lat="42.906521" lon="-2.539474">
        <ele>596.858</ele>
        <time>2022-03-20T13:58:57Z</time>
      </trkpt>
      <trkpt lat="42.906521" lon="-2.539473">
        <ele>596.881</ele>
        <time>2022-03-20T13:58:58Z</time>
      </trkpt>
      <trkpt lat="42.906521" lon="-2.539473">
        <ele>596.850</ele>
        <time>2022-03-20T13:58:59Z</time>
      </trkpt>
      <trkpt lat="42.906521" lon="-2.539473">
        <ele>596.695</ele>
        <time>2022-03-20T13:59:00Z</time>
      </trkpt>
      <trkpt lat="42.90652" lon="-2.539473">
        <ele>596.476</ele>
        <time>2022-03-20T13:59:01Z</time>
      </trkpt>
      <trkpt lat="42.90652" lon="-2.539473">
        <ele>596.459</ele>
        <time>2022-03-20T13:59:02Z</time>
      </trkpt>
      <trkpt lat="42.90652" lon="-2.539472">
        <ele>596.403</ele>
        <time>2022-03-20T13:59:03Z</time>
      </trkpt>
      <trkpt lat="42.90652" lon="-2.539472">
        <ele>596.423</ele>
        <time>2022-03-20T13:59:04Z</time>
      </trkpt>
      <trkpt lat="42.90652" lon="-2.539472">
        <ele>596.408</ele>
        <time>2022-03-20T13:59:05Z</time>
      </trkpt>
      <trkpt lat="42.90652" lon="-2.539472">
        <ele>596.444</ele>
        <time>2022-03-20T13:59:06Z</time>
      </trkpt>
      <trkpt lat="42.90652" lon="-2.539472">
        <ele>596.212</ele>
        <time>2022-03-20T13:59:07Z</time>
      </trkpt>
      <trkpt lat="42.906519" lon="-2.539472">
        <ele>596.254</ele>
        <time>2022-03-20T13:59:08Z</time>
      </trkpt>
      <trkpt lat="42.906519" lon="-2.539472">
        <ele>596.289</ele>
        <time>2022-03-20T13:59:09Z</time>
      </trkpt>
      <trkpt lat="42.906518" lon="-2.539472">
        <ele>596.282</ele>
        <time>2022-03-20T13:59:10Z</time>
      </trkpt>
      <trkpt lat="42.906518" lon="-2.539472">
        <ele>596.291</ele>
        <time>2022-03-20T13:59:11Z</time>
      </trkpt>
      <trkpt lat="42.906517" lon="-2.539472">
        <ele>596.086</ele>
        <time>2022-03-20T13:59:12Z</time>
      </trkpt>
      <trkpt lat="42.906517" lon="-2.539472">
        <ele>596.077</ele>
        <time>2022-03-20T13:59:13Z</time>
      </trkpt>
      <trkpt lat="42.906517" lon="-2.539472">
        <ele>596.067</ele>
        <time>2022-03-20T13:59:14Z</time>
      </trkpt>
      <trkpt lat="42.906516" lon="-2.539473">
        <ele>596.081</ele>
        <time>2022-03-20T13:59:15Z</time>
      </trkpt>
      <trkpt lat="42.906516" lon="-2.539473">
        <ele>596.019</ele>
        <time>2022-03-20T13:59:16Z</time>
      </trkpt>
      <trkpt lat="42.906516" lon="-2.539473">
        <ele>596.008</ele>
        <time>2022-03-20T13:59:17Z</time>
      </trkpt>
      <trkpt lat="42.906515" lon="-2.539473">
        <ele>596.075</ele>
        <time>2022-03-20T13:59:18Z</time>
      </trkpt>
      <trkpt lat="42.906515" lon="-2.539473">
        <ele>596.093</ele>
        <time>2022-03-20T13:59:19Z</time>
      </trkpt>
      <trkpt lat="42.906515" lon="-2.539474">
        <ele>596.015</ele>
        <time>2022-03-20T13:59:20Z</time>
      </trkpt>
      <trkpt lat="42.906514" lon="-2.539474">
        <ele>596.010</ele>
        <time>2022-03-20T13:59:21Z</time>
      </trkpt>
      <trkpt lat="42.906514" lon="-2.539475">
        <ele>596.073</ele>
        <time>2022-03-20T13:59:22Z</time>
      </trkpt>
      <trkpt lat="42.906513" lon="-2.539475">
        <ele>596.272</ele>
        <time>2022-03-20T13:59:23Z</time>
      </trkpt>
      <trkpt lat="42.906513" lon="-2.539475">
        <ele>596.217</ele>
        <time>2022-03-20T13:59:24Z</time>
      </trkpt>
      <trkpt lat="42.906513" lon="-2.539476">
        <ele>596.238</ele>
        <time>2022-03-20T13:59:25Z</time>
      </trkpt>
      <trkpt lat="42.906512" lon="-2.539476">
        <ele>596.228</ele>
        <time>2022-03-20T13:59:26Z</time>
      </trkpt>
      <trkpt lat="42.906512" lon="-2.539476">
        <ele>596.289</ele>
        <time>2022-03-20T13:59:27Z</time>
      </trkpt>
      <trkpt lat="42.906511" lon="-2.539476">
        <ele>596.417</ele>
        <time>2022-03-20T13:59:28Z</time>
      </trkpt>
      <trkpt lat="42.906511" lon="-2.539476">
        <ele>596.408</ele>
        <time>2022-03-20T13:59:29Z</time>
      </trkpt>
      <trkpt lat="42.90651" lon="-2.539476">
        <ele>596.461</ele>
        <time>2022-03-20T13:59:30Z</time>
      </trkpt>
      <trkpt lat="42.906506" lon="-2.539477">
        <ele>596.469</ele>
        <time>2022-03-20T13:59:31Z</time>
      </trkpt>
      <trkpt lat="42.906489" lon="-2.539477">
        <ele>596.271</ele>
        <time>2022-03-20T13:59:32Z</time>
      </trkpt>
      <trkpt lat="42.906478" lon="-2.539476">
        <ele>596.286</ele>
        <time>2022-03-20T13:59:33Z</time>
      </trkpt>
      <trkpt lat="42.906463" lon="-2.539477">
        <ele>596.219</ele>
        <time>2022-03-20T13:59:34Z</time>
      </trkpt>
      <trkpt lat="42.906448" lon="-2.539481">
        <ele>596.018</ele>
        <time>2022-03-20T13:59:35Z</time>
      </trkpt>
      <trkpt lat="42.90643" lon="-2.539484">
        <ele>596.083</ele>
        <time>2022-03-20T13:59:36Z</time>
      </trkpt>
      <trkpt lat="42.906417" lon="-2.539488">
        <ele>595.834</ele>
        <time>2022-03-20T13:59:37Z</time>
      </trkpt>
      <trkpt lat="42.906399" lon="-2.539495">
        <ele>595.846</ele>
        <time>2022-03-20T13:59:38Z</time>
      </trkpt>
      <trkpt lat="42.906385" lon="-2.539499">
        <ele>595.288</ele>
        <time>2022-03-20T13:59:39Z</time>
      </trkpt>
      <trkpt lat="42.906369" lon="-2.539508">
        <ele>595.816</ele>
        <time>2022-03-20T13:59:40Z</time>
      </trkpt>
      <trkpt lat="42.90636" lon="-2.53952">
        <ele>595.408</ele>
        <time>2022-03-20T13:59:41Z</time>
      </trkpt>
      <trkpt lat="42.906351" lon="-2.539532">
        <ele>595.433</ele>
        <time>2022-03-20T13:59:42Z</time>
      </trkpt>
      <trkpt lat="42.906342" lon="-2.539544">
        <ele>595.471</ele>
        <time>2022-03-20T13:59:43Z</time>
      </trkpt>
      <trkpt lat="42.906335" lon="-2.539555">
        <ele>595.443</ele>
        <time>2022-03-20T13:59:44Z</time>
      </trkpt>
      <trkpt lat="42.906325" lon="-2.539569">
        <ele>595.428</ele>
        <time>2022-03-20T13:59:45Z</time>
      </trkpt>
      <trkpt lat="42.906319" lon="-2.539576">
        <ele>595.411</ele>
        <time>2022-03-20T13:59:46Z</time>
      </trkpt>
      <trkpt lat="42.906308" lon="-2.539586">
        <ele>594.850</ele>
        <time>2022-03-20T13:59:47Z</time>
      </trkpt>
      <trkpt lat="42.906295" lon="-2.539595">
        <ele>594.845</ele>
        <time>2022-03-20T13:59:48Z</time>
      </trkpt>
      <trkpt lat="42.906282" lon="-2.539603">
        <ele>594.426</ele>
        <time>2022-03-20T13:59:49Z</time>
      </trkpt>
      <trkpt lat="42.906269" lon="-2.539613">
        <ele>594.424</ele>
        <time>2022-03-20T13:59:50Z</time>
      </trkpt>
      <trkpt lat="42.906262" lon="-2.539618">
        <ele>594.404</ele>
        <time>2022-03-20T13:59:51Z</time>
      </trkpt>
      <trkpt lat="42.906253" lon="-2.539623">
        <ele>594.414</ele>
        <time>2022-03-20T13:59:52Z</time>
      </trkpt>
      <trkpt lat="42.906247" lon="-2.539628">
        <ele>594.608</ele>
        <time>2022-03-20T13:59:53Z</time>
      </trkpt>
      <trkpt lat="42.906247" lon="-2.539632">
        <ele>594.851</ele>
        <time>2022-03-20T13:59:54Z</time>
      </trkpt>
      <trkpt lat="42.906246" lon="-2.539632">
        <ele>595.269</ele>
        <time>2022-03-20T13:59:55Z</time>
      </trkpt>
      <trkpt lat="42.906244" lon="-2.539635">
        <ele>595.211</ele>
        <time>2022-03-20T13:59:56Z</time>
      </trkpt>
      <trkpt lat="42.906241" lon="-2.539638">
        <ele>595.426</ele>
        <time>2022-03-20T13:59:57Z</time>
      </trkpt>
      <trkpt lat="42.906235" lon="-2.539646">
        <ele>596.489</ele>
        <time>2022-03-20T13:59:58Z</time>
      </trkpt>
      <trkpt lat="42.906228" lon="-2.539653">
        <ele>595.438</ele>
        <time>2022-03-20T13:59:59Z</time>
      </trkpt>
      <trkpt lat="42.906221" lon="-2.53966">
        <ele>595.433</ele>
        <time>2022-03-20T14:00:00Z</time>
      </trkpt>
      <trkpt lat="42.906215" lon="-2.539669">
        <ele>595.464</ele>
        <time>2022-03-20T14:00:01Z</time>
      </trkpt>
      <trkpt lat="42.906209" lon="-2.539681">
        <ele>595.894</ele>
        <time>2022-03-20T14:00:02Z</time>
      </trkpt>
      <trkpt lat="42.906204" lon="-2.539696">
        <ele>595.257</ele>
        <time>2022-03-20T14:00:03Z</time>
      </trkpt>
      <trkpt lat="42.906202" lon="-2.539707">
        <ele>595.222</ele>
        <time>2022-03-20T14:00:04Z</time>
      </trkpt>
      <trkpt lat="42.906197" lon="-2.539725">
        <ele>595.208</ele>
        <time>2022-03-20T14:00:05Z</time>
      </trkpt>
      <trkpt lat="42.906195" lon="-2.539738">
        <ele>595.228</ele>
        <time>2022-03-20T14:00:06Z</time>
      </trkpt>
      <trkpt lat="42.906191" lon="-2.53975">
        <ele>595.286</ele>
        <time>2022-03-20T14:00:07Z</time>
      </trkpt>
      <trkpt lat="42.906186" lon="-2.539763">
        <ele>595.218</ele>
        <time>2022-03-20T14:00:08Z</time>
      </trkpt>
      <trkpt lat="42.906181" lon="-2.539779">
        <ele>595.283</ele>
        <time>2022-03-20T14:00:09Z</time>
      </trkpt>
      <trkpt lat="42.906176" lon="-2.539794">
        <ele>594.256</ele>
        <time>2022-03-20T14:00:10Z</time>
      </trkpt>
      <trkpt lat="42.906169" lon="-2.539808">
        <ele>593.665</ele>
        <time>2022-03-20T14:00:11Z</time>
      </trkpt>
      <trkpt lat="42.906164" lon="-2.539821">
        <ele>593.670</ele>
        <time>2022-03-20T14:00:12Z</time>
      </trkpt>
      <trkpt lat="42.906157" lon="-2.539837">
        <ele>593.441</ele>
        <time>2022-03-20T14:00:13Z</time>
      </trkpt>
      <trkpt lat="42.906148" lon="-2.539856">
        <ele>592.642</ele>
        <time>2022-03-20T14:00:14Z</time>
      </trkpt>
      <trkpt lat="42.906141" lon="-2.539868">
        <ele>592.622</ele>
        <time>2022-03-20T14:00:15Z</time>
      </trkpt>
      <trkpt lat="42.906131" lon="-2.539883">
        <ele>592.414</ele>
        <time>2022-03-20T14:00:16Z</time>
      </trkpt>
      <trkpt lat="42.906121" lon="-2.539903">
        <ele>592.208</ele>
        <time>2022-03-20T14:00:17Z</time>
      </trkpt>
      <trkpt lat="42.906121" lon="-2.539913">
        <ele>592.223</ele>
        <time>2022-03-20T14:00:18Z</time>
      </trkpt>
      <trkpt lat="42.906122" lon="-2.539915">
        <ele>592.421</ele>
        <time>2022-03-20T14:00:19Z</time>
      </trkpt>
      <trkpt lat="42.906123" lon="-2.539918">
        <ele>592.673</ele>
        <time>2022-03-20T14:00:20Z</time>
      </trkpt>
      <trkpt lat="42.906124" lon="-2.539917">
        <ele>593.298</ele>
        <time>2022-03-20T14:00:21Z</time>
      </trkpt>
      <trkpt lat="42.906121" lon="-2.539919">
        <ele>593.291</ele>
        <time>2022-03-20T14:00:22Z</time>
      </trkpt>
      <trkpt lat="42.90612" lon="-2.539926">
        <ele>593.250</ele>
        <time>2022-03-20T14:00:23Z</time>
      </trkpt>
      <trkpt lat="42.906117" lon="-2.539939">
        <ele>593.215</ele>
        <time>2022-03-20T14:00:24Z</time>
      </trkpt>
      <trkpt lat="42.906113" lon="-2.539952">
        <ele>593.236</ele>
        <time>2022-03-20T14:00:25Z</time>
      </trkpt>
      <trkpt lat="42.906111" lon="-2.53997">
        <ele>593.099</ele>
        <time>2022-03-20T14:00:26Z</time>
      </trkpt>
      <trkpt lat="42.906108" lon="-2.539987">
        <ele>593.007</ele>
        <time>2022-03-20T14:00:27Z</time>
      </trkpt>
      <trkpt lat="42.906106" lon="-2.540001">
        <ele>592.827</ele>
        <time>2022-03-20T14:00:28Z</time>
      </trkpt>
      <trkpt lat="42.906104" lon="-2.540016">
        <ele>592.608</ele>
        <time>2022-03-20T14:00:29Z</time>
      </trkpt>
      <trkpt lat="42.906104" lon="-2.540031">
        <ele>592.448</ele>
        <time>2022-03-20T14:00:30Z</time>
      </trkpt>
      <trkpt lat="42.906104" lon="-2.540046">
        <ele>592.446</ele>
        <time>2022-03-20T14:00:31Z</time>
      </trkpt>
      <trkpt lat="42.906103" lon="-2.540062">
        <ele>592.498</ele>
        <time>2022-03-20T14:00:32Z</time>
      </trkpt>
      <trkpt lat="42.906099" lon="-2.540079">
        <ele>592.243</ele>
        <time>2022-03-20T14:00:33Z</time>
      </trkpt>
      <trkpt lat="42.906097" lon="-2.540096">
        <ele>592.226</ele>
        <time>2022-03-20T14:00:34Z</time>
      </trkpt>
      <trkpt lat="42.906095" lon="-2.540116">
        <ele>592.215</ele>
        <time>2022-03-20T14:00:35Z</time>
      </trkpt>
      <trkpt lat="42.906095" lon="-2.540125">
        <ele>592.290</ele>
        <time>2022-03-20T14:00:36Z</time>
      </trkpt>
      <trkpt lat="42.906093" lon="-2.540142">
        <ele>592.271</ele>
        <time>2022-03-20T14:00:37Z</time>
      </trkpt>
      <trkpt lat="42.906093" lon="-2.540151">
        <ele>592.287</ele>
        <time>2022-03-20T14:00:38Z</time>
      </trkpt>
      <trkpt lat="42.906091" lon="-2.540165">
        <ele>592.042</ele>
        <time>2022-03-20T14:00:39Z</time>
      </trkpt>
      <trkpt lat="42.90609" lon="-2.540181">
        <ele>592.026</ele>
        <time>2022-03-20T14:00:40Z</time>
      </trkpt>
      <trkpt lat="42.906088" lon="-2.540194">
        <ele>592.008</ele>
        <time>2022-03-20T14:00:41Z</time>
      </trkpt>
      <trkpt lat="42.906089" lon="-2.540201">
        <ele>592.027</ele>
        <time>2022-03-20T14:00:42Z</time>
      </trkpt>
      <trkpt lat="42.906089" lon="-2.540211">
        <ele>591.675</ele>
        <time>2022-03-20T14:00:43Z</time>
      </trkpt>
      <trkpt lat="42.906087" lon="-2.540226">
        <ele>591.627</ele>
        <time>2022-03-20T14:00:44Z</time>
      </trkpt>
      <trkpt lat="42.906087" lon="-2.540238">
        <ele>592.012</ele>
        <time>2022-03-20T14:00:45Z</time>
      </trkpt>
      <trkpt lat="42.906085" lon="-2.540258">
        <ele>592.085</ele>
        <time>2022-03-20T14:00:46Z</time>
      </trkpt>
      <trkpt lat="42.906082" lon="-2.540272">
        <ele>592.024</ele>
        <time>2022-03-20T14:00:47Z</time>
      </trkpt>
      <trkpt lat="42.906082" lon="-2.540286">
        <ele>592.059</ele>
        <time>2022-03-20T14:00:48Z</time>
      </trkpt>
      <trkpt lat="42.906083" lon="-2.540301">
        <ele>592.090</ele>
        <time>2022-03-20T14:00:49Z</time>
      </trkpt>
      <trkpt lat="42.906084" lon="-2.540313">
        <ele>592.018</ele>
        <time>2022-03-20T14:00:50Z</time>
      </trkpt>
      <trkpt lat="42.906085" lon="-2.540325">
        <ele>591.898</ele>
        <time>2022-03-20T14:00:51Z</time>
      </trkpt>
      <trkpt lat="42.906084" lon="-2.540341">
        <ele>591.617</ele>
        <time>2022-03-20T14:00:52Z</time>
      </trkpt>
      <trkpt lat="42.906083" lon="-2.540356">
        <ele>591.608</ele>
        <time>2022-03-20T14:00:53Z</time>
      </trkpt>
      <trkpt lat="42.906082" lon="-2.540371">
        <ele>591.660</ele>
        <time>2022-03-20T14:00:54Z</time>
      </trkpt>
      <trkpt lat="42.906082" lon="-2.540389">
        <ele>591.658</ele>
        <time>2022-03-20T14:00:55Z</time>
      </trkpt>
      <trkpt lat="42.906084" lon="-2.540401">
        <ele>591.680</ele>
        <time>2022-03-20T14:00:56Z</time>
      </trkpt>
      <trkpt lat="42.906088" lon="-2.540407">
        <ele>591.435</ele>
        <time>2022-03-20T14:00:57Z</time>
      </trkpt>
      <trkpt lat="42.906094" lon="-2.540409">
        <ele>591.688</ele>
        <time>2022-03-20T14:00:58Z</time>
      </trkpt>
      <trkpt lat="42.906097" lon="-2.540408">
        <ele>591.627</ele>
        <time>2022-03-20T14:00:59Z</time>
      </trkpt>
      <trkpt lat="42.9061" lon="-2.540408">
        <ele>591.612</ele>
        <time>2022-03-20T14:01:00Z</time>
      </trkpt>
      <trkpt lat="42.906102" lon="-2.540409">
        <ele>592.073</ele>
        <time>2022-03-20T14:01:01Z</time>
      </trkpt>
      <trkpt lat="42.906103" lon="-2.540408">
        <ele>592.286</ele>
        <time>2022-03-20T14:01:02Z</time>
      </trkpt>
      <trkpt lat="42.906104" lon="-2.540408">
        <ele>592.260</ele>
        <time>2022-03-20T14:01:03Z</time>
      </trkpt>
      <trkpt lat="42.906104" lon="-2.540407">
        <ele>592.226</ele>
        <time>2022-03-20T14:01:04Z</time>
      </trkpt>
      <trkpt lat="42.906102" lon="-2.540406">
        <ele>592.208</ele>
        <time>2022-03-20T14:01:05Z</time>
      </trkpt>
      <trkpt lat="42.9061" lon="-2.540405">
        <ele>592.247</ele>
        <time>2022-03-20T14:01:06Z</time>
      </trkpt>
      <trkpt lat="42.906098" lon="-2.540407">
        <ele>592.295</ele>
        <time>2022-03-20T14:01:07Z</time>
      </trkpt>
      <trkpt lat="42.906096" lon="-2.540407">
        <ele>592.047</ele>
        <time>2022-03-20T14:01:08Z</time>
      </trkpt>
      <trkpt lat="42.906096" lon="-2.540407">
        <ele>592.032</ele>
        <time>2022-03-20T14:01:09Z</time>
      </trkpt>
      <trkpt lat="42.906096" lon="-2.540407">
        <ele>592.025</ele>
        <time>2022-03-20T14:01:10Z</time>
      </trkpt>
      <trkpt lat="42.906096" lon="-2.540407">
        <ele>592.254</ele>
        <time>2022-03-20T14:01:11Z</time>
      </trkpt>
      <trkpt lat="42.906096" lon="-2.540407">
        <ele>592.469</ele>
        <time>2022-03-20T14:01:12Z</time>
      </trkpt>
      <trkpt lat="42.906096" lon="-2.540407">
        <ele>592.080</ele>
        <time>2022-03-20T14:01:13Z</time>
      </trkpt>
      <trkpt lat="42.906096" lon="-2.540407">
        <ele>592.291</ele>
        <time>2022-03-20T14:01:14Z</time>
      </trkpt>
      <trkpt lat="42.906096" lon="-2.540407">
        <ele>592.281</ele>
        <time>2022-03-20T14:01:15Z</time>
      </trkpt>
      <trkpt lat="42.906096" lon="-2.540407">
        <ele>592.219</ele>
        <time>2022-03-20T14:01:16Z</time>
      </trkpt>
      <trkpt lat="42.906096" lon="-2.540407">
        <ele>592.208</ele>
        <time>2022-03-20T14:01:17Z</time>
      </trkpt>
      <trkpt lat="42.906096" lon="-2.540407">
        <ele>592.098</ele>
        <time>2022-03-20T14:01:18Z</time>
      </trkpt>
      <trkpt lat="42.906096" lon="-2.540407">
        <ele>592.056</ele>
        <time>2022-03-20T14:01:19Z</time>
      </trkpt>
      <trkpt lat="42.906096" lon="-2.540407">
        <ele>591.618</ele>
        <time>2022-03-20T14:01:20Z</time>
      </trkpt>
      <trkpt lat="42.906096" lon="-2.540407">
        <ele>591.633</ele>
        <time>2022-03-20T14:01:21Z</time>
      </trkpt>
      <trkpt lat="42.906096" lon="-2.540407">
        <ele>591.646</ele>
        <time>2022-03-20T14:01:22Z</time>
      </trkpt>
      <trkpt lat="42.906096" lon="-2.540406">
        <ele>591.665</ele>
        <time>2022-03-20T14:01:23Z</time>
      </trkpt>
      <trkpt lat="42.906096" lon="-2.540406">
        <ele>591.680</ele>
        <time>2022-03-20T14:01:24Z</time>
      </trkpt>
      <trkpt lat="42.906096" lon="-2.540406">
        <ele>591.681</ele>
        <time>2022-03-20T14:01:25Z</time>
      </trkpt>
      <trkpt lat="42.906096" lon="-2.540406">
        <ele>591.461</ele>
        <time>2022-03-20T14:01:26Z</time>
      </trkpt>
      <trkpt lat="42.906096" lon="-2.540406">
        <ele>591.421</ele>
        <time>2022-03-20T14:01:27Z</time>
      </trkpt>
      <trkpt lat="42.906096" lon="-2.540406">
        <ele>591.413</ele>
        <time>2022-03-20T14:01:28Z</time>
      </trkpt>
      <trkpt lat="42.906096" lon="-2.540406">
        <ele>591.408</ele>
        <time>2022-03-20T14:01:29Z</time>
      </trkpt>
      <trkpt lat="42.906094" lon="-2.54041">
        <ele>591.215</ele>
        <time>2022-03-20T14:01:30Z</time>
      </trkpt>
      <trkpt lat="42.906094" lon="-2.540428">
        <ele>591.073</ele>
        <time>2022-03-20T14:01:31Z</time>
      </trkpt>
      <trkpt lat="42.906093" lon="-2.54045">
        <ele>591.055</ele>
        <time>2022-03-20T14:01:32Z</time>
      </trkpt>
      <trkpt lat="42.906094" lon="-2.540467">
        <ele>590.860</ele>
        <time>2022-03-20T14:01:33Z</time>
      </trkpt>
      <trkpt lat="42.906098" lon="-2.540484">
        <ele>590.883</ele>
        <time>2022-03-20T14:01:34Z</time>
      </trkpt>
      <trkpt lat="42.906101" lon="-2.540501">
        <ele>590.842</ele>
        <time>2022-03-20T14:01:35Z</time>
      </trkpt>
      <trkpt lat="42.906099" lon="-2.540522">
        <ele>590.867</ele>
        <time>2022-03-20T14:01:36Z</time>
      </trkpt>
      <trkpt lat="42.906101" lon="-2.54054">
        <ele>590.828</ele>
        <time>2022-03-20T14:01:37Z</time>
      </trkpt>
      <trkpt lat="42.906104" lon="-2.540551">
        <ele>590.822</ele>
        <time>2022-03-20T14:01:38Z</time>
      </trkpt>
      <trkpt lat="42.906107" lon="-2.540557">
        <ele>591.462</ele>
        <time>2022-03-20T14:01:39Z</time>
      </trkpt>
      <trkpt lat="42.906111" lon="-2.540556">
        <ele>591.608</ele>
        <time>2022-03-20T14:01:40Z</time>
      </trkpt>
      <trkpt lat="42.906112" lon="-2.540557">
        <ele>591.608</ele>
        <time>2022-03-20T14:01:41Z</time>
      </trkpt>
      <trkpt lat="42.906114" lon="-2.540555">
        <ele>591.671</ele>
        <time>2022-03-20T14:01:42Z</time>
      </trkpt>
      <trkpt lat="42.906117" lon="-2.540558">
        <ele>591.669</ele>
        <time>2022-03-20T14:01:43Z</time>
      </trkpt>
      <trkpt lat="42.906121" lon="-2.540563">
        <ele>591.611</ele>
        <time>2022-03-20T14:01:44Z</time>
      </trkpt>
      <trkpt lat="42.906125" lon="-2.54057">
        <ele>591.696</ele>
        <time>2022-03-20T14:01:45Z</time>
      </trkpt>
      <trkpt lat="42.90613" lon="-2.54058">
        <ele>591.679</ele>
        <time>2022-03-20T14:01:46Z</time>
      </trkpt>
      <trkpt lat="42.906134" lon="-2.540589">
        <ele>591.638</ele>
        <time>2022-03-20T14:01:47Z</time>
      </trkpt>
      <trkpt lat="42.906138" lon="-2.540596">
        <ele>591.653</ele>
        <time>2022-03-20T14:01:48Z</time>
      </trkpt>
      <trkpt lat="42.906142" lon="-2.540603">
        <ele>591.894</ele>
        <time>2022-03-20T14:01:49Z</time>
      </trkpt>
      <trkpt lat="42.906148" lon="-2.540613">
        <ele>591.834</ele>
        <time>2022-03-20T14:01:50Z</time>
      </trkpt>
      <trkpt lat="42.906152" lon="-2.54062">
        <ele>591.855</ele>
        <time>2022-03-20T14:01:51Z</time>
      </trkpt>
      <trkpt lat="42.906156" lon="-2.540631">
        <ele>591.810</ele>
        <time>2022-03-20T14:01:52Z</time>
      </trkpt>
      <trkpt lat="42.90616" lon="-2.540642">
        <ele>591.808</ele>
        <time>2022-03-20T14:01:53Z</time>
      </trkpt>
      <trkpt lat="42.906162" lon="-2.540653">
        <ele>592.062</ele>
        <time>2022-03-20T14:01:54Z</time>
      </trkpt>
      <trkpt lat="42.906165" lon="-2.540661">
        <ele>592.490</ele>
        <time>2022-03-20T14:01:55Z</time>
      </trkpt>
      <trkpt lat="42.90617" lon="-2.540668">
        <ele>592.422</ele>
        <time>2022-03-20T14:01:56Z</time>
      </trkpt>
      <trkpt lat="42.906173" lon="-2.540676">
        <ele>592.697</ele>
        <time>2022-03-20T14:01:57Z</time>
      </trkpt>
      <trkpt lat="42.906176" lon="-2.540684">
        <ele>592.820</ele>
        <time>2022-03-20T14:01:58Z</time>
      </trkpt>
      <trkpt lat="42.906178" lon="-2.540694">
        <ele>592.839</ele>
        <time>2022-03-20T14:01:59Z</time>
      </trkpt>
      <trkpt lat="42.906181" lon="-2.540707">
        <ele>593.034</ele>
        <time>2022-03-20T14:02:00Z</time>
      </trkpt>
      <trkpt lat="42.906183" lon="-2.540716">
        <ele>593.085</ele>
        <time>2022-03-20T14:02:01Z</time>
      </trkpt>
      <trkpt lat="42.906186" lon="-2.540726">
        <ele>593.066</ele>
        <time>2022-03-20T14:02:02Z</time>
      </trkpt>
      <trkpt lat="42.906189" lon="-2.540737">
        <ele>593.029</ele>
        <time>2022-03-20T14:02:03Z</time>
      </trkpt>
      <trkpt lat="42.906193" lon="-2.540748">
        <ele>593.021</ele>
        <time>2022-03-20T14:02:04Z</time>
      </trkpt>
      <trkpt lat="42.906198" lon="-2.540758">
        <ele>593.208</ele>
        <time>2022-03-20T14:02:05Z</time>
      </trkpt>
      <trkpt lat="42.906201" lon="-2.54077">
        <ele>593.435</ele>
        <time>2022-03-20T14:02:06Z</time>
      </trkpt>
      <trkpt lat="42.906205" lon="-2.540781">
        <ele>593.493</ele>
        <time>2022-03-20T14:02:07Z</time>
      </trkpt>
      <trkpt lat="42.906209" lon="-2.540792">
        <ele>593.485</ele>
        <time>2022-03-20T14:02:08Z</time>
      </trkpt>
      <trkpt lat="42.906215" lon="-2.540803">
        <ele>593.680</ele>
        <time>2022-03-20T14:02:09Z</time>
      </trkpt>
      <trkpt lat="42.906222" lon="-2.540813">
        <ele>593.623</ele>
        <time>2022-03-20T14:02:10Z</time>
      </trkpt>
      <trkpt lat="42.906226" lon="-2.540825">
        <ele>593.682</ele>
        <time>2022-03-20T14:02:11Z</time>
      </trkpt>
      <trkpt lat="42.906232" lon="-2.540837">
        <ele>593.637</ele>
        <time>2022-03-20T14:02:12Z</time>
      </trkpt>
      <trkpt lat="42.906235" lon="-2.540848">
        <ele>594.068</ele>
        <time>2022-03-20T14:02:13Z</time>
      </trkpt>
      <trkpt lat="42.906237" lon="-2.540863">
        <ele>594.019</ele>
        <time>2022-03-20T14:02:14Z</time>
      </trkpt>
      <trkpt lat="42.906241" lon="-2.540877">
        <ele>594.009</ele>
        <time>2022-03-20T14:02:15Z</time>
      </trkpt>
      <trkpt lat="42.906245" lon="-2.540889">
        <ele>594.219</ele>
        <time>2022-03-20T14:02:16Z</time>
      </trkpt>
      <trkpt lat="42.906252" lon="-2.540901">
        <ele>594.408</ele>
        <time>2022-03-20T14:02:17Z</time>
      </trkpt>
      <trkpt lat="42.90626" lon="-2.540911">
        <ele>594.480</ele>
        <time>2022-03-20T14:02:18Z</time>
      </trkpt>
      <trkpt lat="42.906267" lon="-2.540921">
        <ele>594.478</ele>
        <time>2022-03-20T14:02:19Z</time>
      </trkpt>
      <trkpt lat="42.906273" lon="-2.540932">
        <ele>594.410</ele>
        <time>2022-03-20T14:02:20Z</time>
      </trkpt>
      <trkpt lat="42.90628" lon="-2.540941">
        <ele>594.645</ele>
        <time>2022-03-20T14:02:21Z</time>
      </trkpt>
      <trkpt lat="42.906289" lon="-2.540951">
        <ele>594.618</ele>
        <time>2022-03-20T14:02:22Z</time>
      </trkpt>
      <trkpt lat="42.906295" lon="-2.54096">
        <ele>594.877</ele>
        <time>2022-03-20T14:02:23Z</time>
      </trkpt>
      <trkpt lat="42.906302" lon="-2.540972">
        <ele>595.072</ele>
        <time>2022-03-20T14:02:24Z</time>
      </trkpt>
      <trkpt lat="42.906308" lon="-2.540984">
        <ele>595.053</ele>
        <time>2022-03-20T14:02:25Z</time>
      </trkpt>
      <trkpt lat="42.906314" lon="-2.540994">
        <ele>595.082</ele>
        <time>2022-03-20T14:02:26Z</time>
      </trkpt>
      <trkpt lat="42.906321" lon="-2.541">
        <ele>595.043</ele>
        <time>2022-03-20T14:02:27Z</time>
      </trkpt>
      <trkpt lat="42.906326" lon="-2.541007">
        <ele>595.017</ele>
        <time>2022-03-20T14:02:28Z</time>
      </trkpt>
      <trkpt lat="42.906333" lon="-2.541014">
        <ele>595.008</ele>
        <time>2022-03-20T14:02:29Z</time>
      </trkpt>
      <trkpt lat="42.90634" lon="-2.541023">
        <ele>595.027</ele>
        <time>2022-03-20T14:02:30Z</time>
      </trkpt>
      <trkpt lat="42.906346" lon="-2.541034">
        <ele>595.025</ele>
        <time>2022-03-20T14:02:31Z</time>
      </trkpt>
      <trkpt lat="42.906352" lon="-2.541045">
        <ele>595.267</ele>
        <time>2022-03-20T14:02:32Z</time>
      </trkpt>
      <trkpt lat="42.906357" lon="-2.541056">
        <ele>595.242</ele>
        <time>2022-03-20T14:02:33Z</time>
      </trkpt>
      <trkpt lat="42.906364" lon="-2.541067">
        <ele>595.265</ele>
        <time>2022-03-20T14:02:34Z</time>
      </trkpt>
      <trkpt lat="42.906369" lon="-2.541079">
        <ele>595.274</ele>
        <time>2022-03-20T14:02:35Z</time>
      </trkpt>
      <trkpt lat="42.90637" lon="-2.541087">
        <ele>595.239</ele>
        <time>2022-03-20T14:02:36Z</time>
      </trkpt>
      <trkpt lat="42.90637" lon="-2.541095">
        <ele>595.290</ele>
        <time>2022-03-20T14:02:37Z</time>
      </trkpt>
      <trkpt lat="42.906368" lon="-2.541105">
        <ele>595.226</ele>
        <time>2022-03-20T14:02:38Z</time>
      </trkpt>
      <trkpt lat="42.906365" lon="-2.541116">
        <ele>595.247</ele>
        <time>2022-03-20T14:02:39Z</time>
      </trkpt>
      <trkpt lat="42.906365" lon="-2.541127">
        <ele>595.011</ele>
        <time>2022-03-20T14:02:40Z</time>
      </trkpt>
      <trkpt lat="42.90636" lon="-2.541138">
        <ele>594.808</ele>
        <time>2022-03-20T14:02:41Z</time>
      </trkpt>
      <trkpt lat="42.906358" lon="-2.541148">
        <ele>594.861</ele>
        <time>2022-03-20T14:02:42Z</time>
      </trkpt>
      <trkpt lat="42.906357" lon="-2.541155">
        <ele>594.879</ele>
        <time>2022-03-20T14:02:43Z</time>
      </trkpt>
      <trkpt lat="42.906361" lon="-2.541158">
        <ele>594.861</ele>
        <time>2022-03-20T14:02:44Z</time>
      </trkpt>
      <trkpt lat="42.906363" lon="-2.541157">
        <ele>594.836</ele>
        <time>2022-03-20T14:02:45Z</time>
      </trkpt>
      <trkpt lat="42.906362" lon="-2.541151">
        <ele>595.079</ele>
        <time>2022-03-20T14:02:46Z</time>
      </trkpt>
      <trkpt lat="42.906361" lon="-2.541143">
        <ele>595.028</ele>
        <time>2022-03-20T14:02:47Z</time>
      </trkpt>
      <trkpt lat="42.906359" lon="-2.541135">
        <ele>595.083</ele>
        <time>2022-03-20T14:02:48Z</time>
      </trkpt>
      <trkpt lat="42.906358" lon="-2.541135">
        <ele>595.054</ele>
        <time>2022-03-20T14:02:49Z</time>
      </trkpt>
      <trkpt lat="42.906358" lon="-2.541133">
        <ele>595.049</ele>
        <time>2022-03-20T14:02:50Z</time>
      </trkpt>
      <trkpt lat="42.906357" lon="-2.541133">
        <ele>595.002</ele>
        <time>2022-03-20T14:02:51Z</time>
      </trkpt>
      <trkpt lat="42.906357" lon="-2.541133">
        <ele>595.022</ele>
        <time>2022-03-20T14:02:52Z</time>
      </trkpt>
      <trkpt lat="42.906357" lon="-2.541133">
        <ele>595.008</ele>
        <time>2022-03-20T14:02:53Z</time>
      </trkpt>
      <trkpt lat="42.906357" lon="-2.541133">
        <ele>595.043</ele>
        <time>2022-03-20T14:02:54Z</time>
      </trkpt>
      <trkpt lat="42.906357" lon="-2.541133">
        <ele>595.011</ele>
        <time>2022-03-20T14:02:55Z</time>
      </trkpt>
      <trkpt lat="42.906357" lon="-2.541133">
        <ele>595.013</ele>
        <time>2022-03-20T14:02:56Z</time>
      </trkpt>
      <trkpt lat="42.906357" lon="-2.541133">
        <ele>594.818</ele>
        <time>2022-03-20T14:02:57Z</time>
      </trkpt>
      <trkpt lat="42.906357" lon="-2.541133">
        <ele>594.851</ele>
        <time>2022-03-20T14:02:58Z</time>
      </trkpt>
      <trkpt lat="42.906357" lon="-2.541133">
        <ele>594.820</ele>
        <time>2022-03-20T14:02:59Z</time>
      </trkpt>
      <trkpt lat="42.906357" lon="-2.541133">
        <ele>594.825</ele>
        <time>2022-03-20T14:03:00Z</time>
      </trkpt>
      <trkpt lat="42.906357" lon="-2.541133">
        <ele>594.876</ele>
        <time>2022-03-20T14:03:01Z</time>
      </trkpt>
      <trkpt lat="42.906357" lon="-2.541133">
        <ele>594.855</ele>
        <time>2022-03-20T14:03:02Z</time>
      </trkpt>
      <trkpt lat="42.906357" lon="-2.541134">
        <ele>595.007</ele>
        <time>2022-03-20T14:03:03Z</time>
      </trkpt>
      <trkpt lat="42.906357" lon="-2.541135">
        <ele>595.017</ele>
        <time>2022-03-20T14:03:04Z</time>
      </trkpt>
      <trkpt lat="42.906357" lon="-2.541137">
        <ele>595.008</ele>
        <time>2022-03-20T14:03:05Z</time>
      </trkpt>
      <trkpt lat="42.906357" lon="-2.541142">
        <ele>595.094</ele>
        <time>2022-03-20T14:03:06Z</time>
      </trkpt>
      <trkpt lat="42.906357" lon="-2.541146">
        <ele>595.052</ele>
        <time>2022-03-20T14:03:07Z</time>
      </trkpt>
      <trkpt lat="42.906357" lon="-2.54115">
        <ele>595.034</ele>
        <time>2022-03-20T14:03:08Z</time>
      </trkpt>
      <trkpt lat="42.906353" lon="-2.541159">
        <ele>595.019</ele>
        <time>2022-03-20T14:03:09Z</time>
      </trkpt>
      <trkpt lat="42.906344" lon="-2.54118">
        <ele>595.092</ele>
        <time>2022-03-20T14:03:10Z</time>
      </trkpt>
      <trkpt lat="42.906334" lon="-2.5412">
        <ele>594.841</ele>
        <time>2022-03-20T14:03:11Z</time>
      </trkpt>
      <trkpt lat="42.906325" lon="-2.541219">
        <ele>595.036</ele>
        <time>2022-03-20T14:03:12Z</time>
      </trkpt>
      <trkpt lat="42.906316" lon="-2.541241">
        <ele>595.027</ele>
        <time>2022-03-20T14:03:13Z</time>
      </trkpt>
      <trkpt lat="42.90631" lon="-2.541265">
        <ele>595.044</ele>
        <time>2022-03-20T14:03:14Z</time>
      </trkpt>
      <trkpt lat="42.906305" lon="-2.541285">
        <ele>595.005</ele>
        <time>2022-03-20T14:03:15Z</time>
      </trkpt>
      <trkpt lat="42.9063" lon="-2.541306">
        <ele>595.015</ele>
        <time>2022-03-20T14:03:16Z</time>
      </trkpt>
      <trkpt lat="42.906296" lon="-2.541327">
        <ele>595.008</ele>
        <time>2022-03-20T14:03:17Z</time>
      </trkpt>
      <trkpt lat="42.906287" lon="-2.541347">
        <ele>595.073</ele>
        <time>2022-03-20T14:03:18Z</time>
      </trkpt>
      <trkpt lat="42.906288" lon="-2.541364">
        <ele>595.041</ele>
        <time>2022-03-20T14:03:19Z</time>
      </trkpt>
      <trkpt lat="42.906293" lon="-2.541382">
        <ele>595.253</ele>
        <time>2022-03-20T14:03:20Z</time>
      </trkpt>
      <trkpt lat="42.906293" lon="-2.541396">
        <ele>595.228</ele>
        <time>2022-03-20T14:03:21Z</time>
      </trkpt>
      <trkpt lat="42.906294" lon="-2.541407">
        <ele>595.281</ele>
        <time>2022-03-20T14:03:22Z</time>
      </trkpt>
      <trkpt lat="42.906292" lon="-2.541419">
        <ele>595.060</ele>
        <time>2022-03-20T14:03:23Z</time>
      </trkpt>
      <trkpt lat="42.906291" lon="-2.541432">
        <ele>595.025</ele>
        <time>2022-03-20T14:03:24Z</time>
      </trkpt>
      <trkpt lat="42.906288" lon="-2.541444">
        <ele>594.446</ele>
        <time>2022-03-20T14:03:25Z</time>
      </trkpt>
      <trkpt lat="42.906285" lon="-2.541453">
        <ele>594.069</ele>
        <time>2022-03-20T14:03:26Z</time>
      </trkpt>
      <trkpt lat="42.906281" lon="-2.541462">
        <ele>594.004</ele>
        <time>2022-03-20T14:03:27Z</time>
      </trkpt>
      <trkpt lat="42.906277" lon="-2.541476">
        <ele>594.024</ele>
        <time>2022-03-20T14:03:28Z</time>
      </trkpt>
      <trkpt lat="42.906276" lon="-2.541491">
        <ele>594.008</ele>
        <time>2022-03-20T14:03:29Z</time>
      </trkpt>
      <trkpt lat="42.906277" lon="-2.541505">
        <ele>594.025</ele>
        <time>2022-03-20T14:03:30Z</time>
      </trkpt>
      <trkpt lat="42.906276" lon="-2.541517">
        <ele>593.653</ele>
        <time>2022-03-20T14:03:31Z</time>
      </trkpt>
      <trkpt lat="42.906274" lon="-2.541529">
        <ele>593.695</ele>
        <time>2022-03-20T14:03:32Z</time>
      </trkpt>
      <trkpt lat="42.906269" lon="-2.54154">
        <ele>593.660</ele>
        <time>2022-03-20T14:03:33Z</time>
      </trkpt>
      <trkpt lat="42.906266" lon="-2.541551">
        <ele>593.613</ele>
        <time>2022-03-20T14:03:34Z</time>
      </trkpt>
      <trkpt lat="42.906261" lon="-2.541562">
        <ele>593.672</ele>
        <time>2022-03-20T14:03:35Z</time>
      </trkpt>
      <trkpt lat="42.906254" lon="-2.541573">
        <ele>593.487</ele>
        <time>2022-03-20T14:03:36Z</time>
      </trkpt>
      <trkpt lat="42.906251" lon="-2.541581">
        <ele>593.698</ele>
        <time>2022-03-20T14:03:37Z</time>
      </trkpt>
      <trkpt lat="42.906248" lon="-2.541589">
        <ele>593.638</ele>
        <time>2022-03-20T14:03:38Z</time>
      </trkpt>
      <trkpt lat="42.906247" lon="-2.541591">
        <ele>593.670</ele>
        <time>2022-03-20T14:03:39Z</time>
      </trkpt>
      <trkpt lat="42.906245" lon="-2.541594">
        <ele>593.617</ele>
        <time>2022-03-20T14:03:40Z</time>
      </trkpt>
      <trkpt lat="42.906243" lon="-2.541597">
        <ele>593.608</ele>
        <time>2022-03-20T14:03:41Z</time>
      </trkpt>
      <trkpt lat="42.906243" lon="-2.541605">
        <ele>593.462</ele>
        <time>2022-03-20T14:03:42Z</time>
      </trkpt>
      <trkpt lat="42.906246" lon="-2.541614">
        <ele>593.410</ele>
        <time>2022-03-20T14:03:43Z</time>
      </trkpt>
      <trkpt lat="42.906253" lon="-2.541619">
        <ele>593.472</ele>
        <time>2022-03-20T14:03:44Z</time>
      </trkpt>
      <trkpt lat="42.906257" lon="-2.541624">
        <ele>593.217</ele>
        <time>2022-03-20T14:03:45Z</time>
      </trkpt>
      <trkpt lat="42.906261" lon="-2.541632">
        <ele>593.030</ele>
        <time>2022-03-20T14:03:46Z</time>
      </trkpt>
      <trkpt lat="42.906262" lon="-2.541643">
        <ele>593.039</ele>
        <time>2022-03-20T14:03:47Z</time>
      </trkpt>
      <trkpt lat="42.906262" lon="-2.541659">
        <ele>592.874</ele>
        <time>2022-03-20T14:03:48Z</time>
      </trkpt>
      <trkpt lat="42.906263" lon="-2.541671">
        <ele>592.835</ele>
        <time>2022-03-20T14:03:49Z</time>
      </trkpt>
      <trkpt lat="42.906264" lon="-2.541681">
        <ele>592.842</ele>
        <time>2022-03-20T14:03:50Z</time>
      </trkpt>
      <trkpt lat="42.906264" lon="-2.541691">
        <ele>592.422</ele>
        <time>2022-03-20T14:03:51Z</time>
      </trkpt>
      <trkpt lat="42.906263" lon="-2.541702">
        <ele>592.414</ele>
        <time>2022-03-20T14:03:52Z</time>
      </trkpt>
      <trkpt lat="42.906265" lon="-2.541711">
        <ele>592.408</ele>
        <time>2022-03-20T14:03:53Z</time>
      </trkpt>
      <trkpt lat="42.906273" lon="-2.541718">
        <ele>592.423</ele>
        <time>2022-03-20T14:03:54Z</time>
      </trkpt>
      <trkpt lat="42.906283" lon="-2.54172">
        <ele>592.271</ele>
        <time>2022-03-20T14:03:55Z</time>
      </trkpt>
      <trkpt lat="42.906295" lon="-2.541721">
        <ele>591.683</ele>
        <time>2022-03-20T14:03:56Z</time>
      </trkpt>
      <trkpt lat="42.906306" lon="-2.541721">
        <ele>591.418</ele>
        <time>2022-03-20T14:03:57Z</time>
      </trkpt>
      <trkpt lat="42.906316" lon="-2.54172">
        <ele>591.421</ele>
        <time>2022-03-20T14:03:58Z</time>
      </trkpt>
      <trkpt lat="42.906318" lon="-2.541721">
        <ele>591.490</ele>
        <time>2022-03-20T14:03:59Z</time>
      </trkpt>
      <trkpt lat="42.906318" lon="-2.541721">
        <ele>591.285</ele>
        <time>2022-03-20T14:04:00Z</time>
      </trkpt>
      <trkpt lat="42.906316" lon="-2.541719">
        <ele>591.066</ele>
        <time>2022-03-20T14:04:01Z</time>
      </trkpt>
      <trkpt lat="42.906315" lon="-2.541719">
        <ele>591.233</ele>
        <time>2022-03-20T14:04:02Z</time>
      </trkpt>
      <trkpt lat="42.906313" lon="-2.541718">
        <ele>591.223</ele>
        <time>2022-03-20T14:04:03Z</time>
      </trkpt>
      <trkpt lat="42.906313" lon="-2.541719">
        <ele>591.215</ele>
        <time>2022-03-20T14:04:04Z</time>
      </trkpt>
      <trkpt lat="42.906311" lon="-2.54172">
        <ele>591.008</ele>
        <time>2022-03-20T14:04:05Z</time>
      </trkpt>
      <trkpt lat="42.906311" lon="-2.54172">
        <ele>591.292</ele>
        <time>2022-03-20T14:04:06Z</time>
      </trkpt>
      <trkpt lat="42.906311" lon="-2.541718">
        <ele>591.280</ele>
        <time>2022-03-20T14:04:07Z</time>
      </trkpt>
      <trkpt lat="42.906311" lon="-2.541713">
        <ele>591.222</ele>
        <time>2022-03-20T14:04:08Z</time>
      </trkpt>
      <trkpt lat="42.90631" lon="-2.541711">
        <ele>591.277</ele>
        <time>2022-03-20T14:04:09Z</time>
      </trkpt>
      <trkpt lat="42.90631" lon="-2.541711">
        <ele>591.210</ele>
        <time>2022-03-20T14:04:10Z</time>
      </trkpt>
      <trkpt lat="42.90631" lon="-2.541711">
        <ele>591.069</ele>
        <time>2022-03-20T14:04:11Z</time>
      </trkpt>
      <trkpt lat="42.90631" lon="-2.541711">
        <ele>591.234</ele>
        <time>2022-03-20T14:04:12Z</time>
      </trkpt>
      <trkpt lat="42.90631" lon="-2.541711">
        <ele>591.235</ele>
        <time>2022-03-20T14:04:13Z</time>
      </trkpt>
      <trkpt lat="42.90631" lon="-2.541711">
        <ele>591.288</ele>
        <time>2022-03-20T14:04:14Z</time>
      </trkpt>
      <trkpt lat="42.90631" lon="-2.541711">
        <ele>591.024</ele>
        <time>2022-03-20T14:04:15Z</time>
      </trkpt>
      <trkpt lat="42.90631" lon="-2.541711">
        <ele>591.226</ele>
        <time>2022-03-20T14:04:16Z</time>
      </trkpt>
      <trkpt lat="42.90631" lon="-2.541711">
        <ele>591.208</ele>
        <time>2022-03-20T14:04:17Z</time>
      </trkpt>
      <trkpt lat="42.90631" lon="-2.541711">
        <ele>591.457</ele>
        <time>2022-03-20T14:04:18Z</time>
      </trkpt>
      <trkpt lat="42.90631" lon="-2.541711">
        <ele>591.425</ele>
        <time>2022-03-20T14:04:19Z</time>
      </trkpt>
      <trkpt lat="42.90631" lon="-2.541711">
        <ele>591.447</ele>
        <time>2022-03-20T14:04:20Z</time>
      </trkpt>
      <trkpt lat="42.90631" lon="-2.541711">
        <ele>591.252</ele>
        <time>2022-03-20T14:04:21Z</time>
      </trkpt>
      <trkpt lat="42.90631" lon="-2.541711">
        <ele>591.235</ele>
        <time>2022-03-20T14:04:22Z</time>
      </trkpt>
      <trkpt lat="42.90631" lon="-2.541712">
        <ele>591.094</ele>
        <time>2022-03-20T14:04:23Z</time>
      </trkpt>
      <trkpt lat="42.90631" lon="-2.541713">
        <ele>591.069</ele>
        <time>2022-03-20T14:04:24Z</time>
      </trkpt>
      <trkpt lat="42.90631" lon="-2.541713">
        <ele>591.090</ele>
        <time>2022-03-20T14:04:25Z</time>
      </trkpt>
      <trkpt lat="42.906309" lon="-2.541713">
        <ele>590.898</ele>
        <time>2022-03-20T14:04:26Z</time>
      </trkpt>
      <trkpt lat="42.906309" lon="-2.541713">
        <ele>590.815</ele>
        <time>2022-03-20T14:04:27Z</time>
      </trkpt>
      <trkpt lat="42.906309" lon="-2.541714">
        <ele>590.826</ele>
        <time>2022-03-20T14:04:28Z</time>
      </trkpt>
      <trkpt lat="42.906309" lon="-2.541714">
        <ele>590.808</ele>
        <time>2022-03-20T14:04:29Z</time>
      </trkpt>
      <trkpt lat="42.906309" lon="-2.541715">
        <ele>590.888</ele>
        <time>2022-03-20T14:04:30Z</time>
      </trkpt>
      <trkpt lat="42.906309" lon="-2.541715">
        <ele>590.866</ele>
        <time>2022-03-20T14:04:31Z</time>
      </trkpt>
      <trkpt lat="42.906309" lon="-2.541714">
        <ele>590.888</ele>
        <time>2022-03-20T14:04:32Z</time>
      </trkpt>
      <trkpt lat="42.906309" lon="-2.541714">
        <ele>590.823</ele>
        <time>2022-03-20T14:04:33Z</time>
      </trkpt>
      <trkpt lat="42.906595" lon="-2.539507">
        <ele>599.626</ele>
        <time>2022-03-20T15:02:01Z</time>
      </trkpt>
      <trkpt lat="42.906555" lon="-2.539566">
        <ele>599.455</ele>
        <time>2022-03-20T15:02:03Z</time>
      </trkpt>
      <trkpt lat="42.906548" lon="-2.539592">
        <ele>599.630</ele>
        <time>2022-03-20T15:02:04Z</time>
      </trkpt>
      <trkpt lat="42.906548" lon="-2.539594">
        <ele>599.691</ele>
        <time>2022-03-20T15:02:05Z</time>
      </trkpt>
      <trkpt lat="42.906543" lon="-2.539598">
        <ele>599.699</ele>
        <time>2022-03-20T15:02:06Z</time>
      </trkpt>
      <trkpt lat="42.906543" lon="-2.53959">
        <ele>599.607</ele>
        <time>2022-03-20T15:02:07Z</time>
      </trkpt>
      <trkpt lat="42.906532" lon="-2.539579">
        <ele>599.627</ele>
        <time>2022-03-20T15:02:08Z</time>
      </trkpt>
      <trkpt lat="42.906524" lon="-2.539575">
        <ele>599.608</ele>
        <time>2022-03-20T15:02:09Z</time>
      </trkpt>
      <trkpt lat="42.906509" lon="-2.53957">
        <ele>599.628</ele>
        <time>2022-03-20T15:02:10Z</time>
      </trkpt>
      <trkpt lat="42.906498" lon="-2.539566">
        <ele>599.666</ele>
        <time>2022-03-20T15:02:11Z</time>
      </trkpt>
      <trkpt lat="42.906497" lon="-2.539556">
        <ele>599.648</ele>
        <time>2022-03-20T15:02:12Z</time>
      </trkpt>
      <trkpt lat="42.906503" lon="-2.539545">
        <ele>599.433</ele>
        <time>2022-03-20T15:02:13Z</time>
      </trkpt>
      <trkpt lat="42.906505" lon="-2.53954">
        <ele>599.466</ele>
        <time>2022-03-20T15:02:14Z</time>
      </trkpt>
      <trkpt lat="42.906512" lon="-2.539533">
        <ele>599.265</ele>
        <time>2022-03-20T15:02:15Z</time>
      </trkpt>
      <trkpt lat="42.906515" lon="-2.539525">
        <ele>599.260</ele>
        <time>2022-03-20T15:02:16Z</time>
      </trkpt>
      <trkpt lat="42.906514" lon="-2.539516">
        <ele>599.291</ele>
        <time>2022-03-20T15:02:17Z</time>
      </trkpt>
      <trkpt lat="42.90652" lon="-2.539509">
        <ele>599.252</ele>
        <time>2022-03-20T15:02:18Z</time>
      </trkpt>
      <trkpt lat="42.906527" lon="-2.539501">
        <ele>599.253</ele>
        <time>2022-03-20T15:02:19Z</time>
      </trkpt>
      <trkpt lat="42.906531" lon="-2.539489">
        <ele>599.208</ele>
        <time>2022-03-20T15:02:20Z</time>
      </trkpt>
      <trkpt lat="42.906529" lon="-2.539481">
        <ele>599.408</ele>
        <time>2022-03-20T15:02:21Z</time>
      </trkpt>
      <trkpt lat="42.906522" lon="-2.539476">
        <ele>599.634</ele>
        <time>2022-03-20T15:02:22Z</time>
      </trkpt>
      <trkpt lat="42.906525" lon="-2.53947">
        <ele>599.652</ele>
        <time>2022-03-20T15:02:23Z</time>
      </trkpt>
      <trkpt lat="42.90653" lon="-2.539464">
        <ele>599.674</ele>
        <time>2022-03-20T15:02:24Z</time>
      </trkpt>
      <trkpt lat="42.90653" lon="-2.539462">
        <ele>599.679</ele>
        <time>2022-03-20T15:02:25Z</time>
      </trkpt>
      <trkpt lat="42.906533" lon="-2.539459">
        <ele>599.882</ele>
        <time>2022-03-20T15:02:26Z</time>
      </trkpt>
      <trkpt lat="42.906533" lon="-2.539459">
        <ele>599.811</ele>
        <time>2022-03-20T15:02:27Z</time>
      </trkpt>
      <trkpt lat="42.906531" lon="-2.53946">
        <ele>599.626</ele>
        <time>2022-03-20T15:02:28Z</time>
      </trkpt>
      <trkpt lat="42.906531" lon="-2.53946">
        <ele>599.697</ele>
        <time>2022-03-20T15:02:29Z</time>
      </trkpt>
      <trkpt lat="42.906532" lon="-2.539462">
        <ele>599.441</ele>
        <time>2022-03-20T15:02:30Z</time>
      </trkpt>
      <trkpt lat="42.906528" lon="-2.539458">
        <ele>599.481</ele>
        <time>2022-03-20T15:02:31Z</time>
      </trkpt>
      <trkpt lat="42.90653" lon="-2.539462">
        <ele>599.409</ele>
        <time>2022-03-20T15:02:32Z</time>
      </trkpt>
      <trkpt lat="42.906532" lon="-2.539465">
        <ele>599.208</ele>
        <time>2022-03-20T15:02:33Z</time>
      </trkpt>
      <trkpt lat="42.906529" lon="-2.539458">
        <ele>599.223</ele>
        <time>2022-03-20T15:02:34Z</time>
      </trkpt>
      <trkpt lat="42.90653" lon="-2.539457">
        <ele>599.281</ele>
        <time>2022-03-20T15:02:35Z</time>
      </trkpt>
      <trkpt lat="42.90653" lon="-2.539457">
        <ele>599.013</ele>
        <time>2022-03-20T15:02:36Z</time>
      </trkpt>
      <trkpt lat="42.90653" lon="-2.539457">
        <ele>599.028</ele>
        <time>2022-03-20T15:02:37Z</time>
      </trkpt>
      <trkpt lat="42.90653" lon="-2.539457">
        <ele>598.671</ele>
        <time>2022-03-20T15:02:38Z</time>
      </trkpt>
      <trkpt lat="42.90653" lon="-2.539457">
        <ele>598.680</ele>
        <time>2022-03-20T15:02:39Z</time>
      </trkpt>
      <trkpt lat="42.90653" lon="-2.539457">
        <ele>598.495</ele>
        <time>2022-03-20T15:02:40Z</time>
      </trkpt>
      <trkpt lat="42.90653" lon="-2.539457">
        <ele>598.416</ele>
        <time>2022-03-20T15:02:41Z</time>
      </trkpt>
      <trkpt lat="42.90653" lon="-2.539457">
        <ele>598.288</ele>
        <time>2022-03-20T15:02:42Z</time>
      </trkpt>
      <trkpt lat="42.90653" lon="-2.539457">
        <ele>598.224</ele>
        <time>2022-03-20T15:02:43Z</time>
      </trkpt>
      <trkpt lat="42.90653" lon="-2.539457">
        <ele>598.226</ele>
        <time>2022-03-20T15:02:44Z</time>
      </trkpt>
      <trkpt lat="42.90653" lon="-2.539457">
        <ele>598.208</ele>
        <time>2022-03-20T15:02:45Z</time>
      </trkpt>
      <trkpt lat="42.906531" lon="-2.539457">
        <ele>598.227</ele>
        <time>2022-03-20T15:02:46Z</time>
      </trkpt>
      <trkpt lat="42.906531" lon="-2.539457">
        <ele>598.245</ele>
        <time>2022-03-20T15:02:47Z</time>
      </trkpt>
      <trkpt lat="42.906532" lon="-2.539457">
        <ele>598.217</ele>
        <time>2022-03-20T15:02:48Z</time>
      </trkpt>
      <trkpt lat="42.906532" lon="-2.539457">
        <ele>598.292</ele>
        <time>2022-03-20T15:02:49Z</time>
      </trkpt>
      <trkpt lat="42.906533" lon="-2.539457">
        <ele>598.295</ele>
        <time>2022-03-20T15:02:50Z</time>
      </trkpt>
      <trkpt lat="42.906535" lon="-2.539453">
        <ele>598.224</ele>
        <time>2022-03-20T15:02:51Z</time>
      </trkpt>
      <trkpt lat="42.906536" lon="-2.539449">
        <ele>598.219</ele>
        <time>2022-03-20T15:02:52Z</time>
      </trkpt>
      <trkpt lat="42.906538" lon="-2.539447">
        <ele>598.240</ele>
        <time>2022-03-20T15:02:53Z</time>
      </trkpt>
      <trkpt lat="42.906539" lon="-2.539446">
        <ele>598.041</ele>
        <time>2022-03-20T15:02:54Z</time>
      </trkpt>
      <trkpt lat="42.90654" lon="-2.539445">
        <ele>597.881</ele>
        <time>2022-03-20T15:02:55Z</time>
      </trkpt>
      <trkpt lat="42.906541" lon="-2.539444">
        <ele>596.009</ele>
        <time>2022-03-20T15:02:56Z</time>
      </trkpt>
      <trkpt lat="42.906543" lon="-2.539443">
        <ele>596.008</ele>
        <time>2022-03-20T15:02:57Z</time>
      </trkpt>
      <trkpt lat="42.906548" lon="-2.539442">
        <ele>596.033</ele>
        <time>2022-03-20T15:02:58Z</time>
      </trkpt>
      <trkpt lat="42.906558" lon="-2.539439">
        <ele>595.851</ele>
        <time>2022-03-20T15:02:59Z</time>
      </trkpt>
      <trkpt lat="42.906567" lon="-2.539435">
        <ele>595.623</ele>
        <time>2022-03-20T15:03:00Z</time>
      </trkpt>
      <trkpt lat="42.906573" lon="-2.539432">
        <ele>595.458</ele>
        <time>2022-03-20T15:03:01Z</time>
      </trkpt>
      <trkpt lat="42.906575" lon="-2.539419">
        <ele>595.211</ele>
        <time>2022-03-20T15:03:02Z</time>
      </trkpt>
      <trkpt lat="42.906586" lon="-2.539411">
        <ele>595.270</ele>
        <time>2022-03-20T15:03:03Z</time>
      </trkpt>
      <trkpt lat="42.906593" lon="-2.53941">
        <ele>595.065</ele>
        <time>2022-03-20T15:03:04Z</time>
      </trkpt>
      <trkpt lat="42.906599" lon="-2.539409">
        <ele>595.086</ele>
        <time>2022-03-20T15:03:05Z</time>
      </trkpt>
      <trkpt lat="42.906603" lon="-2.539411">
        <ele>595.065</ele>
        <time>2022-03-20T15:03:06Z</time>
      </trkpt>
      <trkpt lat="42.906612" lon="-2.53941">
        <ele>595.268</ele>
        <time>2022-03-20T15:03:07Z</time>
      </trkpt>
      <trkpt lat="42.906616" lon="-2.539411">
        <ele>595.214</ele>
        <time>2022-03-20T15:03:08Z</time>
      </trkpt>
      <trkpt lat="42.906621" lon="-2.53941">
        <ele>595.208</ele>
        <time>2022-03-20T15:03:09Z</time>
      </trkpt>
      <trkpt lat="42.906625" lon="-2.53941">
        <ele>595.235</ele>
        <time>2022-03-20T15:03:10Z</time>
      </trkpt>
      <trkpt lat="42.906629" lon="-2.53941">
        <ele>595.233</ele>
        <time>2022-03-20T15:03:11Z</time>
      </trkpt>
      <trkpt lat="42.906633" lon="-2.53941">
        <ele>595.045</ele>
        <time>2022-03-20T15:03:12Z</time>
      </trkpt>
      <trkpt lat="42.906637" lon="-2.53941">
        <ele>594.810</ele>
        <time>2022-03-20T15:03:13Z</time>
      </trkpt>
      <trkpt lat="42.906642" lon="-2.539411">
        <ele>594.473</ele>
        <time>2022-03-20T15:03:14Z</time>
      </trkpt>
      <trkpt lat="42.906651" lon="-2.539408">
        <ele>594.272</ele>
        <time>2022-03-20T15:03:15Z</time>
      </trkpt>
      <trkpt lat="42.906659" lon="-2.539411">
        <ele>594.097</ele>
        <time>2022-03-20T15:03:16Z</time>
      </trkpt>
      <trkpt lat="42.906665" lon="-2.539412">
        <ele>593.458</ele>
        <time>2022-03-20T15:03:17Z</time>
      </trkpt>
      <trkpt lat="42.906672" lon="-2.53941">
        <ele>593.077</ele>
        <time>2022-03-20T15:03:18Z</time>
      </trkpt>
      <trkpt lat="42.906683" lon="-2.539412">
        <ele>592.861</ele>
        <time>2022-03-20T15:03:19Z</time>
      </trkpt>
      <trkpt lat="42.906692" lon="-2.539414">
        <ele>592.427</ele>
        <time>2022-03-20T15:03:20Z</time>
      </trkpt>
      <trkpt lat="42.906702" lon="-2.539414">
        <ele>592.208</ele>
        <time>2022-03-20T15:03:21Z</time>
      </trkpt>
      <trkpt lat="42.90671" lon="-2.539415">
        <ele>591.856</ele>
        <time>2022-03-20T15:03:22Z</time>
      </trkpt>
      <trkpt lat="42.906718" lon="-2.539415">
        <ele>591.694</ele>
        <time>2022-03-20T15:03:23Z</time>
      </trkpt>
      <trkpt lat="42.906728" lon="-2.539416">
        <ele>591.456</ele>
        <time>2022-03-20T15:03:24Z</time>
      </trkpt>
      <trkpt lat="42.906736" lon="-2.53942">
        <ele>591.251</ele>
        <time>2022-03-20T15:03:25Z</time>
      </trkpt>
      <trkpt lat="42.906744" lon="-2.539421">
        <ele>591.054</ele>
        <time>2022-03-20T15:03:26Z</time>
      </trkpt>
      <trkpt lat="42.906753" lon="-2.53942">
        <ele>590.653</ele>
        <time>2022-03-20T15:03:27Z</time>
      </trkpt>
      <trkpt lat="42.90676" lon="-2.539422">
        <ele>590.478</ele>
        <time>2022-03-20T15:03:28Z</time>
      </trkpt>
      <trkpt lat="42.906769" lon="-2.539425">
        <ele>589.829</ele>
        <time>2022-03-20T15:03:29Z</time>
      </trkpt>
      <trkpt lat="42.906777" lon="-2.539429">
        <ele>589.075</ele>
        <time>2022-03-20T15:03:30Z</time>
      </trkpt>
      <trkpt lat="42.906784" lon="-2.539434">
        <ele>588.628</ele>
        <time>2022-03-20T15:03:31Z</time>
      </trkpt>
      <trkpt lat="42.906794" lon="-2.539438">
        <ele>588.220</ele>
        <time>2022-03-20T15:03:32Z</time>
      </trkpt>
      <trkpt lat="42.906805" lon="-2.539442">
        <ele>587.808</ele>
        <time>2022-03-20T15:03:33Z</time>
      </trkpt>
      <trkpt lat="42.906817" lon="-2.539442">
        <ele>587.626</ele>
        <time>2022-03-20T15:03:34Z</time>
      </trkpt>
      <trkpt lat="42.90683" lon="-2.539445">
        <ele>587.224</ele>
        <time>2022-03-20T15:03:35Z</time>
      </trkpt>
      <trkpt lat="42.906842" lon="-2.539445">
        <ele>586.696</ele>
        <time>2022-03-20T15:03:36Z</time>
      </trkpt>
      <trkpt lat="42.906852" lon="-2.539448">
        <ele>586.211</ele>
        <time>2022-03-20T15:03:37Z</time>
      </trkpt>
      <trkpt lat="42.90686" lon="-2.539451">
        <ele>585.854</ele>
        <time>2022-03-20T15:03:38Z</time>
      </trkpt>
      <trkpt lat="42.906868" lon="-2.539452">
        <ele>585.673</ele>
        <time>2022-03-20T15:03:39Z</time>
      </trkpt>
      <trkpt lat="42.90688" lon="-2.539454">
        <ele>585.248</ele>
        <time>2022-03-20T15:03:40Z</time>
      </trkpt>
      <trkpt lat="42.906891" lon="-2.539452">
        <ele>585.069</ele>
        <time>2022-03-20T15:03:41Z</time>
      </trkpt>
      <trkpt lat="42.906899" lon="-2.539447">
        <ele>584.664</ele>
        <time>2022-03-20T15:03:42Z</time>
      </trkpt>
      <trkpt lat="42.906908" lon="-2.539445">
        <ele>584.406</ele>
        <time>2022-03-20T15:03:43Z</time>
      </trkpt>
      <trkpt lat="42.906915" lon="-2.539443">
        <ele>583.816</ele>
        <time>2022-03-20T15:03:44Z</time>
      </trkpt>
      <trkpt lat="42.906929" lon="-2.539433">
        <ele>583.408</ele>
        <time>2022-03-20T15:03:45Z</time>
      </trkpt>
      <trkpt lat="42.906942" lon="-2.539424">
        <ele>583.095</ele>
        <time>2022-03-20T15:03:46Z</time>
      </trkpt>
      <trkpt lat="42.906955" lon="-2.539414">
        <ele>582.863</ele>
        <time>2022-03-20T15:03:47Z</time>
      </trkpt>
      <trkpt lat="42.906962" lon="-2.539406">
        <ele>582.645</ele>
        <time>2022-03-20T15:03:48Z</time>
      </trkpt>
      <trkpt lat="42.906969" lon="-2.539397">
        <ele>582.470</ele>
        <time>2022-03-20T15:03:49Z</time>
      </trkpt>
      <trkpt lat="42.906977" lon="-2.539388">
        <ele>582.063</ele>
        <time>2022-03-20T15:03:50Z</time>
      </trkpt>
      <trkpt lat="42.906984" lon="-2.539384">
        <ele>581.812</ele>
        <time>2022-03-20T15:03:51Z</time>
      </trkpt>
      <trkpt lat="42.906993" lon="-2.539377">
        <ele>581.677</ele>
        <time>2022-03-20T15:03:52Z</time>
      </trkpt>
      <trkpt lat="42.907" lon="-2.53937">
        <ele>581.648</ele>
        <time>2022-03-20T15:03:53Z</time>
      </trkpt>
      <trkpt lat="42.907007" lon="-2.539363">
        <ele>581.031</ele>
        <time>2022-03-20T15:03:54Z</time>
      </trkpt>
      <trkpt lat="42.907011" lon="-2.539353">
        <ele>580.861</ele>
        <time>2022-03-20T15:03:55Z</time>
      </trkpt>
      <trkpt lat="42.90702" lon="-2.539342">
        <ele>580.607</ele>
        <time>2022-03-20T15:03:56Z</time>
      </trkpt>
      <trkpt lat="42.907026" lon="-2.539329">
        <ele>580.608</ele>
        <time>2022-03-20T15:03:57Z</time>
      </trkpt>
      <trkpt lat="42.90703" lon="-2.539318">
        <ele>580.442</ele>
        <time>2022-03-20T15:03:58Z</time>
      </trkpt>
      <trkpt lat="42.907035" lon="-2.539307">
        <ele>580.290</ele>
        <time>2022-03-20T15:03:59Z</time>
      </trkpt>
      <trkpt lat="42.907039" lon="-2.539297">
        <ele>580.442</ele>
        <time>2022-03-20T15:04:00Z</time>
      </trkpt>
      <trkpt lat="42.907044" lon="-2.539282">
        <ele>580.217</ele>
        <time>2022-03-20T15:04:01Z</time>
      </trkpt>
      <trkpt lat="42.907046" lon="-2.539271">
        <ele>580.040</ele>
        <time>2022-03-20T15:04:02Z</time>
      </trkpt>
      <trkpt lat="42.907047" lon="-2.539258">
        <ele>580.099</ele>
        <time>2022-03-20T15:04:03Z</time>
      </trkpt>
      <trkpt lat="42.907052" lon="-2.539246">
        <ele>579.814</ele>
        <time>2022-03-20T15:04:04Z</time>
      </trkpt>
      <trkpt lat="42.907054" lon="-2.539229">
        <ele>579.865</ele>
        <time>2022-03-20T15:04:05Z</time>
      </trkpt>
      <trkpt lat="42.907053" lon="-2.539212">
        <ele>579.872</ele>
        <time>2022-03-20T15:04:06Z</time>
      </trkpt>
      <trkpt lat="42.907053" lon="-2.539202">
        <ele>579.613</ele>
        <time>2022-03-20T15:04:07Z</time>
      </trkpt>
      <trkpt lat="42.907053" lon="-2.53919">
        <ele>579.614</ele>
        <time>2022-03-20T15:04:08Z</time>
      </trkpt>
      <trkpt lat="42.907054" lon="-2.539182">
        <ele>579.608</ele>
        <time>2022-03-20T15:04:09Z</time>
      </trkpt>
      <trkpt lat="42.907054" lon="-2.539173">
        <ele>580.036</ele>
        <time>2022-03-20T15:04:10Z</time>
      </trkpt>
      <trkpt lat="42.907054" lon="-2.539161">
        <ele>580.094</ele>
        <time>2022-03-20T15:04:11Z</time>
      </trkpt>
      <trkpt lat="42.907051" lon="-2.539147">
        <ele>580.296</ele>
        <time>2022-03-20T15:04:12Z</time>
      </trkpt>
      <trkpt lat="42.907049" lon="-2.539135">
        <ele>580.271</ele>
        <time>2022-03-20T15:04:13Z</time>
      </trkpt>
      <trkpt lat="42.907044" lon="-2.539123">
        <ele>580.214</ele>
        <time>2022-03-20T15:04:14Z</time>
      </trkpt>
      <trkpt lat="42.90704" lon="-2.539114">
        <ele>580.213</ele>
        <time>2022-03-20T15:04:15Z</time>
      </trkpt>
      <trkpt lat="42.907038" lon="-2.539097">
        <ele>580.248</ele>
        <time>2022-03-20T15:04:16Z</time>
      </trkpt>
      <trkpt lat="42.907035" lon="-2.539085">
        <ele>579.829</ele>
        <time>2022-03-20T15:04:17Z</time>
      </trkpt>
      <trkpt lat="42.907032" lon="-2.539073">
        <ele>579.671</ele>
        <time>2022-03-20T15:04:18Z</time>
      </trkpt>
      <trkpt lat="42.90703" lon="-2.539062">
        <ele>580.641</ele>
        <time>2022-03-20T15:04:19Z</time>
      </trkpt>
      <trkpt lat="42.907027" lon="-2.539049">
        <ele>580.415</ele>
        <time>2022-03-20T15:04:20Z</time>
      </trkpt>
      <trkpt lat="42.907027" lon="-2.539037">
        <ele>579.208</ele>
        <time>2022-03-20T15:04:21Z</time>
      </trkpt>
      <trkpt lat="42.907027" lon="-2.539026">
        <ele>578.616</ele>
        <time>2022-03-20T15:04:22Z</time>
      </trkpt>
      <trkpt lat="42.907023" lon="-2.539014">
        <ele>578.444</ele>
        <time>2022-03-20T15:04:23Z</time>
      </trkpt>
      <trkpt lat="42.907018" lon="-2.539003">
        <ele>578.646</ele>
        <time>2022-03-20T15:04:24Z</time>
      </trkpt>
      <trkpt lat="42.907015" lon="-2.538995">
        <ele>578.871</ele>
        <time>2022-03-20T15:04:25Z</time>
      </trkpt>
      <trkpt lat="42.907012" lon="-2.538981">
        <ele>578.814</ele>
        <time>2022-03-20T15:04:26Z</time>
      </trkpt>
      <trkpt lat="42.907009" lon="-2.538963">
        <ele>578.853</ele>
        <time>2022-03-20T15:04:27Z</time>
      </trkpt>
      <trkpt lat="42.907008" lon="-2.538949">
        <ele>578.828</ele>
        <time>2022-03-20T15:04:28Z</time>
      </trkpt>
      <trkpt lat="42.907007" lon="-2.538938">
        <ele>579.269</ele>
        <time>2022-03-20T15:04:29Z</time>
      </trkpt>
      <trkpt lat="42.907002" lon="-2.538928">
        <ele>579.298</ele>
        <time>2022-03-20T15:04:30Z</time>
      </trkpt>
      <trkpt lat="42.907" lon="-2.538922">
        <ele>579.415</ele>
        <time>2022-03-20T15:04:31Z</time>
      </trkpt>
      <trkpt lat="42.906994" lon="-2.538911">
        <ele>579.426</ele>
        <time>2022-03-20T15:04:32Z</time>
      </trkpt>
      <trkpt lat="42.906987" lon="-2.538901">
        <ele>579.408</ele>
        <time>2022-03-20T15:04:33Z</time>
      </trkpt>
      <trkpt lat="42.906983" lon="-2.53889">
        <ele>579.438</ele>
        <time>2022-03-20T15:04:34Z</time>
      </trkpt>
      <trkpt lat="42.90698" lon="-2.53888">
        <ele>579.096</ele>
        <time>2022-03-20T15:04:35Z</time>
      </trkpt>
      <trkpt lat="42.906976" lon="-2.538868">
        <ele>578.638</ele>
        <time>2022-03-20T15:04:36Z</time>
      </trkpt>
      <trkpt lat="42.906972" lon="-2.538861">
        <ele>578.223</ele>
        <time>2022-03-20T15:04:37Z</time>
      </trkpt>
      <trkpt lat="42.906966" lon="-2.53885">
        <ele>578.286</ele>
        <time>2022-03-20T15:04:38Z</time>
      </trkpt>
      <trkpt lat="42.906962" lon="-2.53884">
        <ele>578.085</ele>
        <time>2022-03-20T15:04:39Z</time>
      </trkpt>
      <trkpt lat="42.90696" lon="-2.538828">
        <ele>578.030</ele>
        <time>2022-03-20T15:04:40Z</time>
      </trkpt>
      <trkpt lat="42.90696" lon="-2.538817">
        <ele>578.091</ele>
        <time>2022-03-20T15:04:41Z</time>
      </trkpt>
      <trkpt lat="42.906958" lon="-2.538805">
        <ele>578.073</ele>
        <time>2022-03-20T15:04:42Z</time>
      </trkpt>
      <trkpt lat="42.906956" lon="-2.538793">
        <ele>577.885</ele>
        <time>2022-03-20T15:04:43Z</time>
      </trkpt>
      <trkpt lat="42.906952" lon="-2.538782">
        <ele>577.813</ele>
        <time>2022-03-20T15:04:44Z</time>
      </trkpt>
      <trkpt lat="42.906949" lon="-2.538769">
        <ele>577.608</ele>
        <time>2022-03-20T15:04:45Z</time>
      </trkpt>
      <trkpt lat="42.906943" lon="-2.538754">
        <ele>578.086</ele>
        <time>2022-03-20T15:04:46Z</time>
      </trkpt>
      <trkpt lat="42.90694" lon="-2.538742">
        <ele>578.024</ele>
        <time>2022-03-20T15:04:47Z</time>
      </trkpt>
      <trkpt lat="42.906934" lon="-2.53873">
        <ele>577.866</ele>
        <time>2022-03-20T15:04:48Z</time>
      </trkpt>
      <trkpt lat="42.906926" lon="-2.538719">
        <ele>578.051</ele>
        <time>2022-03-20T15:04:49Z</time>
      </trkpt>
      <trkpt lat="42.906922" lon="-2.538708">
        <ele>578.224</ele>
        <time>2022-03-20T15:04:50Z</time>
      </trkpt>
      <trkpt lat="42.906917" lon="-2.538699">
        <ele>578.483</ele>
        <time>2022-03-20T15:04:51Z</time>
      </trkpt>
      <trkpt lat="42.906913" lon="-2.538688">
        <ele>578.678</ele>
        <time>2022-03-20T15:04:52Z</time>
      </trkpt>
      <trkpt lat="42.906908" lon="-2.538677">
        <ele>578.689</ele>
        <time>2022-03-20T15:04:53Z</time>
      </trkpt>
      <trkpt lat="42.906902" lon="-2.538666">
        <ele>578.663</ele>
        <time>2022-03-20T15:04:54Z</time>
      </trkpt>
      <trkpt lat="42.906897" lon="-2.538652">
        <ele>578.644</ele>
        <time>2022-03-20T15:04:55Z</time>
      </trkpt>
      <trkpt lat="42.906892" lon="-2.538641">
        <ele>578.418</ele>
        <time>2022-03-20T15:04:56Z</time>
      </trkpt>
      <trkpt lat="42.906888" lon="-2.538629">
        <ele>578.208</ele>
        <time>2022-03-20T15:04:57Z</time>
      </trkpt>
      <trkpt lat="42.906883" lon="-2.538621">
        <ele>578.085</ele>
        <time>2022-03-20T15:04:58Z</time>
      </trkpt>
      <trkpt lat="42.906878" lon="-2.538611">
        <ele>577.893</ele>
        <time>2022-03-20T15:04:59Z</time>
      </trkpt>
      <trkpt lat="42.906875" lon="-2.538602">
        <ele>577.855</ele>
        <time>2022-03-20T15:05:00Z</time>
      </trkpt>
      <trkpt lat="42.90687" lon="-2.538586">
        <ele>577.670</ele>
        <time>2022-03-20T15:05:01Z</time>
      </trkpt>
      <trkpt lat="42.906866" lon="-2.538573">
        <ele>577.683</ele>
        <time>2022-03-20T15:05:02Z</time>
      </trkpt>
      <trkpt lat="42.906859" lon="-2.538565">
        <ele>577.822</ele>
        <time>2022-03-20T15:05:03Z</time>
      </trkpt>
      <trkpt lat="42.906851" lon="-2.538556">
        <ele>577.847</ele>
        <time>2022-03-20T15:05:04Z</time>
      </trkpt>
      <trkpt lat="42.906844" lon="-2.538546">
        <ele>577.898</ele>
        <time>2022-03-20T15:05:05Z</time>
      </trkpt>
      <trkpt lat="42.906839" lon="-2.538535">
        <ele>577.851</ele>
        <time>2022-03-20T15:05:06Z</time>
      </trkpt>
      <trkpt lat="42.906832" lon="-2.538523">
        <ele>578.001</ele>
        <time>2022-03-20T15:05:07Z</time>
      </trkpt>
      <trkpt lat="42.906828" lon="-2.538513">
        <ele>578.011</ele>
        <time>2022-03-20T15:05:08Z</time>
      </trkpt>
      <trkpt lat="42.906821" lon="-2.538502">
        <ele>578.008</ele>
        <time>2022-03-20T15:05:09Z</time>
      </trkpt>
      <trkpt lat="42.906813" lon="-2.538495">
        <ele>577.444</ele>
        <time>2022-03-20T15:05:10Z</time>
      </trkpt>
      <trkpt lat="42.906803" lon="-2.538485">
        <ele>577.042</ele>
        <time>2022-03-20T15:05:11Z</time>
      </trkpt>
      <trkpt lat="42.906798" lon="-2.538476">
        <ele>576.424</ele>
        <time>2022-03-20T15:05:12Z</time>
      </trkpt>
      <trkpt lat="42.906793" lon="-2.53847">
        <ele>575.629</ele>
        <time>2022-03-20T15:05:13Z</time>
      </trkpt>
      <trkpt lat="42.906786" lon="-2.538463">
        <ele>575.222</ele>
        <time>2022-03-20T15:05:14Z</time>
      </trkpt>
      <trkpt lat="42.906781" lon="-2.538455">
        <ele>575.831</ele>
        <time>2022-03-20T15:05:15Z</time>
      </trkpt>
      <trkpt lat="42.906775" lon="-2.538448">
        <ele>576.266</ele>
        <time>2022-03-20T15:05:16Z</time>
      </trkpt>
      <trkpt lat="42.906766" lon="-2.538439">
        <ele>576.257</ele>
        <time>2022-03-20T15:05:17Z</time>
      </trkpt>
      <trkpt lat="42.906758" lon="-2.538433">
        <ele>576.863</ele>
        <time>2022-03-20T15:05:18Z</time>
      </trkpt>
      <trkpt lat="42.906752" lon="-2.538426">
        <ele>577.244</ele>
        <time>2022-03-20T15:05:19Z</time>
      </trkpt>
      <trkpt lat="42.906746" lon="-2.538415">
        <ele>577.618</ele>
        <time>2022-03-20T15:05:20Z</time>
      </trkpt>
      <trkpt lat="42.90674" lon="-2.538406">
        <ele>578.208</ele>
        <time>2022-03-20T15:05:21Z</time>
      </trkpt>
      <trkpt lat="42.906732" lon="-2.538399">
        <ele>578.015</ele>
        <time>2022-03-20T15:05:22Z</time>
      </trkpt>
      <trkpt lat="42.906727" lon="-2.538392">
        <ele>577.833</ele>
        <time>2022-03-20T15:05:23Z</time>
      </trkpt>
      <trkpt lat="42.906722" lon="-2.538381">
        <ele>577.865</ele>
        <time>2022-03-20T15:05:24Z</time>
      </trkpt>
      <trkpt lat="42.906714" lon="-2.538373">
        <ele>577.070</ele>
        <time>2022-03-20T15:05:25Z</time>
      </trkpt>
      <trkpt lat="42.906704" lon="-2.538362">
        <ele>576.623</ele>
        <time>2022-03-20T15:05:26Z</time>
      </trkpt>
      <trkpt lat="42.906696" lon="-2.538353">
        <ele>576.072</ele>
        <time>2022-03-20T15:05:27Z</time>
      </trkpt>
      <trkpt lat="42.906692" lon="-2.538344">
        <ele>575.017</ele>
        <time>2022-03-20T15:05:28Z</time>
      </trkpt>
      <trkpt lat="42.90669" lon="-2.538339">
        <ele>574.438</ele>
        <time>2022-03-20T15:05:29Z</time>
      </trkpt>
      <trkpt lat="42.906685" lon="-2.53833">
        <ele>574.034</ele>
        <time>2022-03-20T15:05:30Z</time>
      </trkpt>
      <trkpt lat="42.906677" lon="-2.538319">
        <ele>574.055</ele>
        <time>2022-03-20T15:05:31Z</time>
      </trkpt>
      <trkpt lat="42.90667" lon="-2.538307">
        <ele>573.810</ele>
        <time>2022-03-20T15:05:32Z</time>
      </trkpt>
      <trkpt lat="42.906664" lon="-2.538297">
        <ele>573.608</ele>
        <time>2022-03-20T15:05:33Z</time>
      </trkpt>
      <trkpt lat="42.90666" lon="-2.538287">
        <ele>573.612</ele>
        <time>2022-03-20T15:05:34Z</time>
      </trkpt>
      <trkpt lat="42.906655" lon="-2.538273">
        <ele>573.610</ele>
        <time>2022-03-20T15:05:35Z</time>
      </trkpt>
      <trkpt lat="42.906646" lon="-2.538256">
        <ele>573.032</ele>
        <time>2022-03-20T15:05:36Z</time>
      </trkpt>
      <trkpt lat="42.906641" lon="-2.538242">
        <ele>572.677</ele>
        <time>2022-03-20T15:05:37Z</time>
      </trkpt>
      <trkpt lat="42.906637" lon="-2.538228">
        <ele>572.640</ele>
        <time>2022-03-20T15:05:38Z</time>
      </trkpt>
      <trkpt lat="42.906633" lon="-2.538215">
        <ele>574.259</ele>
        <time>2022-03-20T15:05:39Z</time>
      </trkpt>
      <trkpt lat="42.906628" lon="-2.538203">
        <ele>574.224</ele>
        <time>2022-03-20T15:05:40Z</time>
      </trkpt>
      <trkpt lat="42.906626" lon="-2.538189">
        <ele>574.215</ele>
        <time>2022-03-20T15:05:41Z</time>
      </trkpt>
      <trkpt lat="42.906623" lon="-2.53817">
        <ele>574.247</ele>
        <time>2022-03-20T15:05:42Z</time>
      </trkpt>
      <trkpt lat="42.906621" lon="-2.538159">
        <ele>574.229</ele>
        <time>2022-03-20T15:05:43Z</time>
      </trkpt>
      <trkpt lat="42.906618" lon="-2.538146">
        <ele>574.221</ele>
        <time>2022-03-20T15:05:44Z</time>
      </trkpt>
      <trkpt lat="42.906617" lon="-2.538131">
        <ele>573.608</ele>
        <time>2022-03-20T15:05:45Z</time>
      </trkpt>
      <trkpt lat="42.906613" lon="-2.53812">
        <ele>573.453</ele>
        <time>2022-03-20T15:05:46Z</time>
      </trkpt>
      <trkpt lat="42.90661" lon="-2.538106">
        <ele>573.661</ele>
        <time>2022-03-20T15:05:47Z</time>
      </trkpt>
      <trkpt lat="42.906606" lon="-2.53809">
        <ele>573.223</ele>
        <time>2022-03-20T15:05:48Z</time>
      </trkpt>
      <trkpt lat="42.906604" lon="-2.538078">
        <ele>573.228</ele>
        <time>2022-03-20T15:05:49Z</time>
      </trkpt>
      <trkpt lat="42.906602" lon="-2.53807">
        <ele>573.281</ele>
        <time>2022-03-20T15:05:50Z</time>
      </trkpt>
      <trkpt lat="42.9066" lon="-2.53806">
        <ele>573.290</ele>
        <time>2022-03-20T15:05:51Z</time>
      </trkpt>
      <trkpt lat="42.906597" lon="-2.53805">
        <ele>573.295</ele>
        <time>2022-03-20T15:05:52Z</time>
      </trkpt>
      <trkpt lat="42.906598" lon="-2.538036">
        <ele>573.256</ele>
        <time>2022-03-20T15:05:53Z</time>
      </trkpt>
      <trkpt lat="42.9066" lon="-2.538019">
        <ele>573.238</ele>
        <time>2022-03-20T15:05:54Z</time>
      </trkpt>
      <trkpt lat="42.906603" lon="-2.538008">
        <ele>573.270</ele>
        <time>2022-03-20T15:05:55Z</time>
      </trkpt>
      <trkpt lat="42.906604" lon="-2.537997">
        <ele>573.217</ele>
        <time>2022-03-20T15:05:56Z</time>
      </trkpt>
      <trkpt lat="42.906604" lon="-2.537983">
        <ele>573.408</ele>
        <time>2022-03-20T15:05:57Z</time>
      </trkpt>
      <trkpt lat="42.906606" lon="-2.537971">
        <ele>573.492</ele>
        <time>2022-03-20T15:05:58Z</time>
      </trkpt>
      <trkpt lat="42.906611" lon="-2.53796">
        <ele>573.640</ele>
        <time>2022-03-20T15:05:59Z</time>
      </trkpt>
      <trkpt lat="42.906613" lon="-2.537952">
        <ele>573.652</ele>
        <time>2022-03-20T15:06:00Z</time>
      </trkpt>
      <trkpt lat="42.906613" lon="-2.537939">
        <ele>573.627</ele>
        <time>2022-03-20T15:06:01Z</time>
      </trkpt>
      <trkpt lat="42.906615" lon="-2.537928">
        <ele>573.630</ele>
        <time>2022-03-20T15:06:02Z</time>
      </trkpt>
      <trkpt lat="42.906617" lon="-2.53791">
        <ele>573.629</ele>
        <time>2022-03-20T15:06:03Z</time>
      </trkpt>
      <trkpt lat="42.906619" lon="-2.537897">
        <ele>573.894</ele>
        <time>2022-03-20T15:06:04Z</time>
      </trkpt>
      <trkpt lat="42.90662" lon="-2.537884">
        <ele>573.845</ele>
        <time>2022-03-20T15:06:05Z</time>
      </trkpt>
      <trkpt lat="42.906619" lon="-2.537874">
        <ele>573.897</ele>
        <time>2022-03-20T15:06:06Z</time>
      </trkpt>
      <trkpt lat="42.906621" lon="-2.537859">
        <ele>573.423</ele>
        <time>2022-03-20T15:06:07Z</time>
      </trkpt>
      <trkpt lat="42.906624" lon="-2.53784">
        <ele>573.625</ele>
        <time>2022-03-20T15:06:08Z</time>
      </trkpt>
      <trkpt lat="42.906626" lon="-2.537822">
        <ele>573.808</ele>
        <time>2022-03-20T15:06:09Z</time>
      </trkpt>
      <trkpt lat="42.906625" lon="-2.537812">
        <ele>573.858</ele>
        <time>2022-03-20T15:06:10Z</time>
      </trkpt>
      <trkpt lat="42.906625" lon="-2.537802">
        <ele>573.866</ele>
        <time>2022-03-20T15:06:11Z</time>
      </trkpt>
      <trkpt lat="42.906622" lon="-2.537796">
        <ele>573.878</ele>
        <time>2022-03-20T15:06:12Z</time>
      </trkpt>
      <trkpt lat="42.906622" lon="-2.537787">
        <ele>573.833</ele>
        <time>2022-03-20T15:06:13Z</time>
      </trkpt>
      <trkpt lat="42.906618" lon="-2.53778">
        <ele>573.836</ele>
        <time>2022-03-20T15:06:14Z</time>
      </trkpt>
      <trkpt lat="42.906616" lon="-2.537777">
        <ele>573.655</ele>
        <time>2022-03-20T15:06:15Z</time>
      </trkpt>
      <trkpt lat="42.906615" lon="-2.537773">
        <ele>573.490</ele>
        <time>2022-03-20T15:06:16Z</time>
      </trkpt>
      <trkpt lat="42.906613" lon="-2.537769">
        <ele>573.281</ele>
        <time>2022-03-20T15:06:17Z</time>
      </trkpt>
      <trkpt lat="42.906611" lon="-2.537766">
        <ele>573.223</ele>
        <time>2022-03-20T15:06:18Z</time>
      </trkpt>
      <trkpt lat="42.906608" lon="-2.537761">
        <ele>573.283</ele>
        <time>2022-03-20T15:06:19Z</time>
      </trkpt>
      <trkpt lat="42.906607" lon="-2.537758">
        <ele>573.211</ele>
        <time>2022-03-20T15:06:20Z</time>
      </trkpt>
      <trkpt lat="42.906605" lon="-2.537755">
        <ele>573.208</ele>
        <time>2022-03-20T15:06:21Z</time>
      </trkpt>
      <trkpt lat="42.906606" lon="-2.537753">
        <ele>573.421</ele>
        <time>2022-03-20T15:06:22Z</time>
      </trkpt>
      <trkpt lat="42.906609" lon="-2.537755">
        <ele>573.479</ele>
        <time>2022-03-20T15:06:23Z</time>
      </trkpt>
      <trkpt lat="42.906613" lon="-2.537756">
        <ele>573.421</ele>
        <time>2022-03-20T15:06:24Z</time>
      </trkpt>
      <trkpt lat="42.906614" lon="-2.537756">
        <ele>573.626</ele>
        <time>2022-03-20T15:06:25Z</time>
      </trkpt>
      <trkpt lat="42.906615" lon="-2.537749">
        <ele>573.699</ele>
        <time>2022-03-20T15:06:26Z</time>
      </trkpt>
      <trkpt lat="42.90662" lon="-2.537737">
        <ele>573.648</ele>
        <time>2022-03-20T15:06:27Z</time>
      </trkpt>
      <trkpt lat="42.906615" lon="-2.537721">
        <ele>573.863</ele>
        <time>2022-03-20T15:06:28Z</time>
      </trkpt>
      <trkpt lat="42.906618" lon="-2.53771">
        <ele>574.014</ele>
        <time>2022-03-20T15:06:29Z</time>
      </trkpt>
      <trkpt lat="42.906618" lon="-2.5377">
        <ele>574.493</ele>
        <time>2022-03-20T15:06:30Z</time>
      </trkpt>
      <trkpt lat="42.906616" lon="-2.537693">
        <ele>574.665</ele>
        <time>2022-03-20T15:06:31Z</time>
      </trkpt>
      <trkpt lat="42.906616" lon="-2.537683">
        <ele>574.621</ele>
        <time>2022-03-20T15:06:32Z</time>
      </trkpt>
      <trkpt lat="42.906614" lon="-2.537672">
        <ele>574.808</ele>
        <time>2022-03-20T15:06:33Z</time>
      </trkpt>
      <trkpt lat="42.906611" lon="-2.537659">
        <ele>574.438</ele>
        <time>2022-03-20T15:06:34Z</time>
      </trkpt>
      <trkpt lat="42.906608" lon="-2.537649">
        <ele>574.266</ele>
        <time>2022-03-20T15:06:35Z</time>
      </trkpt>
      <trkpt lat="42.906608" lon="-2.537635">
        <ele>574.228</ele>
        <time>2022-03-20T15:06:36Z</time>
      </trkpt>
      <trkpt lat="42.906606" lon="-2.537624">
        <ele>574.243</ele>
        <time>2022-03-20T15:06:37Z</time>
      </trkpt>
      <trkpt lat="42.906604" lon="-2.537611">
        <ele>574.246</ele>
        <time>2022-03-20T15:06:38Z</time>
      </trkpt>
      <trkpt lat="42.906599" lon="-2.537596">
        <ele>574.255</ele>
        <time>2022-03-20T15:06:39Z</time>
      </trkpt>
      <trkpt lat="42.906597" lon="-2.537586">
        <ele>574.410</ele>
        <time>2022-03-20T15:06:40Z</time>
      </trkpt>
      <trkpt lat="42.906595" lon="-2.537573">
        <ele>574.621</ele>
        <time>2022-03-20T15:06:41Z</time>
      </trkpt>
      <trkpt lat="42.906592" lon="-2.537561">
        <ele>574.674</ele>
        <time>2022-03-20T15:06:42Z</time>
      </trkpt>
      <trkpt lat="42.906587" lon="-2.537547">
        <ele>574.656</ele>
        <time>2022-03-20T15:06:43Z</time>
      </trkpt>
      <trkpt lat="42.906583" lon="-2.537534">
        <ele>574.621</ele>
        <time>2022-03-20T15:06:44Z</time>
      </trkpt>
      <trkpt lat="42.906579" lon="-2.53752">
        <ele>574.808</ele>
        <time>2022-03-20T15:06:45Z</time>
      </trkpt>
      <trkpt lat="42.906575" lon="-2.537506">
        <ele>574.696</ele>
        <time>2022-03-20T15:06:46Z</time>
      </trkpt>
      <trkpt lat="42.906568" lon="-2.537495">
        <ele>574.844</ele>
        <time>2022-03-20T15:06:47Z</time>
      </trkpt>
      <trkpt lat="42.906565" lon="-2.537482">
        <ele>574.866</ele>
        <time>2022-03-20T15:06:48Z</time>
      </trkpt>
      <trkpt lat="42.906562" lon="-2.537471">
        <ele>574.851</ele>
        <time>2022-03-20T15:06:49Z</time>
      </trkpt>
      <trkpt lat="42.90656" lon="-2.537458">
        <ele>574.814</ele>
        <time>2022-03-20T15:06:50Z</time>
      </trkpt>
      <trkpt lat="42.906555" lon="-2.537444">
        <ele>574.823</ele>
        <time>2022-03-20T15:06:51Z</time>
      </trkpt>
      <trkpt lat="42.906554" lon="-2.537425">
        <ele>574.858</ele>
        <time>2022-03-20T15:06:52Z</time>
      </trkpt>
      <trkpt lat="42.906555" lon="-2.537415">
        <ele>574.869</ele>
        <time>2022-03-20T15:06:53Z</time>
      </trkpt>
      <trkpt lat="42.906554" lon="-2.537406">
        <ele>574.631</ele>
        <time>2022-03-20T15:06:54Z</time>
      </trkpt>
      <trkpt lat="42.906552" lon="-2.537396">
        <ele>574.061</ele>
        <time>2022-03-20T15:06:55Z</time>
      </trkpt>
      <trkpt lat="42.906555" lon="-2.537387">
        <ele>573.607</ele>
        <time>2022-03-20T15:06:56Z</time>
      </trkpt>
      <trkpt lat="42.90656" lon="-2.537382">
        <ele>573.208</ele>
        <time>2022-03-20T15:06:57Z</time>
      </trkpt>
      <trkpt lat="42.906565" lon="-2.537379">
        <ele>573.042</ele>
        <time>2022-03-20T15:06:58Z</time>
      </trkpt>
      <trkpt lat="42.906572" lon="-2.537372">
        <ele>572.870</ele>
        <time>2022-03-20T15:06:59Z</time>
      </trkpt>
      <trkpt lat="42.90658" lon="-2.537365">
        <ele>572.682</ele>
        <time>2022-03-20T15:07:00Z</time>
      </trkpt>
      <trkpt lat="42.906589" lon="-2.537356">
        <ele>572.417</ele>
        <time>2022-03-20T15:07:01Z</time>
      </trkpt>
      <trkpt lat="42.906594" lon="-2.537349">
        <ele>572.250</ele>
        <time>2022-03-20T15:07:02Z</time>
      </trkpt>
      <trkpt lat="42.906609" lon="-2.537331">
        <ele>571.859</ele>
        <time>2022-03-20T15:07:03Z</time>
      </trkpt>
      <trkpt lat="42.906609" lon="-2.537331">
        <ele>571.624</ele>
        <time>2022-03-20T15:07:04Z</time>
      </trkpt>
      <trkpt lat="42.906618" lon="-2.537322">
        <ele>571.645</ele>
        <time>2022-03-20T15:07:05Z</time>
      </trkpt>
      <trkpt lat="42.906628" lon="-2.537314">
        <ele>571.452</ele>
        <time>2022-03-20T15:07:06Z</time>
      </trkpt>
      <trkpt lat="42.906637" lon="-2.537306">
        <ele>571.253</ele>
        <time>2022-03-20T15:07:07Z</time>
      </trkpt>
      <trkpt lat="42.906645" lon="-2.537297">
        <ele>571.208</ele>
        <time>2022-03-20T15:07:08Z</time>
      </trkpt>
      <trkpt lat="42.906654" lon="-2.53729">
        <ele>571.008</ele>
        <time>2022-03-20T15:07:09Z</time>
      </trkpt>
      <trkpt lat="42.906659" lon="-2.537285">
        <ele>571.054</ele>
        <time>2022-03-20T15:07:10Z</time>
      </trkpt>
      <trkpt lat="42.906666" lon="-2.537277">
        <ele>570.822</ele>
        <time>2022-03-20T15:07:11Z</time>
      </trkpt>
      <trkpt lat="42.906671" lon="-2.53727">
        <ele>570.854</ele>
        <time>2022-03-20T15:07:12Z</time>
      </trkpt>
      <trkpt lat="42.906679" lon="-2.537261">
        <ele>570.659</ele>
        <time>2022-03-20T15:07:13Z</time>
      </trkpt>
      <trkpt lat="42.906687" lon="-2.537253">
        <ele>570.612</ele>
        <time>2022-03-20T15:07:14Z</time>
      </trkpt>
      <trkpt lat="42.906698" lon="-2.537245">
        <ele>570.681</ele>
        <time>2022-03-20T15:07:15Z</time>
      </trkpt>
      <trkpt lat="42.906705" lon="-2.537238">
        <ele>570.416</ele>
        <time>2022-03-20T15:07:16Z</time>
      </trkpt>
      <trkpt lat="42.906715" lon="-2.537229">
        <ele>570.277</ele>
        <time>2022-03-20T15:07:17Z</time>
      </trkpt>
      <trkpt lat="42.906722" lon="-2.537221">
        <ele>570.054</ele>
        <time>2022-03-20T15:07:18Z</time>
      </trkpt>
      <trkpt lat="42.90673" lon="-2.537213">
        <ele>570.056</ele>
        <time>2022-03-20T15:07:19Z</time>
      </trkpt>
      <trkpt lat="42.906735" lon="-2.537208">
        <ele>570.011</ele>
        <time>2022-03-20T15:07:20Z</time>
      </trkpt>
      <trkpt lat="42.906742" lon="-2.5372">
        <ele>569.808</ele>
        <time>2022-03-20T15:07:21Z</time>
      </trkpt>
      <trkpt lat="42.906753" lon="-2.537194">
        <ele>569.874</ele>
        <time>2022-03-20T15:07:22Z</time>
      </trkpt>
      <trkpt lat="42.906757" lon="-2.537186">
        <ele>569.892</ele>
        <time>2022-03-20T15:07:23Z</time>
      </trkpt>
      <trkpt lat="42.906764" lon="-2.537176">
        <ele>569.894</ele>
        <time>2022-03-20T15:07:24Z</time>
      </trkpt>
      <trkpt lat="42.90677" lon="-2.53717">
        <ele>569.849</ele>
        <time>2022-03-20T15:07:25Z</time>
      </trkpt>
      <trkpt lat="42.906774" lon="-2.537165">
        <ele>569.482</ele>
        <time>2022-03-20T15:07:26Z</time>
      </trkpt>
      <trkpt lat="42.90678" lon="-2.537157">
        <ele>569.211</ele>
        <time>2022-03-20T15:07:27Z</time>
      </trkpt>
      <trkpt lat="42.906783" lon="-2.537156">
        <ele>569.026</ele>
        <time>2022-03-20T15:07:28Z</time>
      </trkpt>
      <trkpt lat="42.906792" lon="-2.537156">
        <ele>568.487</ele>
        <time>2022-03-20T15:07:29Z</time>
      </trkpt>
      <trkpt lat="42.906801" lon="-2.537154">
        <ele>568.015</ele>
        <time>2022-03-20T15:07:30Z</time>
      </trkpt>
      <trkpt lat="42.906808" lon="-2.53715">
        <ele>567.465</ele>
        <time>2022-03-20T15:07:31Z</time>
      </trkpt>
      <trkpt lat="42.906816" lon="-2.537146">
        <ele>567.211</ele>
        <time>2022-03-20T15:07:32Z</time>
      </trkpt>
      <trkpt lat="42.906825" lon="-2.537147">
        <ele>567.008</ele>
        <time>2022-03-20T15:07:33Z</time>
      </trkpt>
      <trkpt lat="42.906835" lon="-2.537149">
        <ele>566.870</ele>
        <time>2022-03-20T15:07:34Z</time>
      </trkpt>
      <trkpt lat="42.906843" lon="-2.53715">
        <ele>566.628</ele>
        <time>2022-03-20T15:07:35Z</time>
      </trkpt>
      <trkpt lat="42.906844" lon="-2.537148">
        <ele>566.450</ele>
        <time>2022-03-20T15:07:36Z</time>
      </trkpt>
      <trkpt lat="42.906847" lon="-2.537143">
        <ele>566.215</ele>
        <time>2022-03-20T15:07:37Z</time>
      </trkpt>
      <trkpt lat="42.906848" lon="-2.537142">
        <ele>566.048</ele>
        <time>2022-03-20T15:07:38Z</time>
      </trkpt>
      <trkpt lat="42.90685" lon="-2.537141">
        <ele>566.087</ele>
        <time>2022-03-20T15:07:39Z</time>
      </trkpt>
      <trkpt lat="42.90685" lon="-2.537141">
        <ele>565.882</ele>
        <time>2022-03-20T15:07:40Z</time>
      </trkpt>
      <trkpt lat="42.906851" lon="-2.537142">
        <ele>565.873</ele>
        <time>2022-03-20T15:07:41Z</time>
      </trkpt>
      <trkpt lat="42.906853" lon="-2.537141">
        <ele>565.859</ele>
        <time>2022-03-20T15:07:42Z</time>
      </trkpt>
      <trkpt lat="42.906856" lon="-2.53714">
        <ele>565.803</ele>
        <time>2022-03-20T15:07:43Z</time>
      </trkpt>
      <trkpt lat="42.906857" lon="-2.537144">
        <ele>565.823</ele>
        <time>2022-03-20T15:07:44Z</time>
      </trkpt>
      <trkpt lat="42.906859" lon="-2.537153">
        <ele>565.808</ele>
        <time>2022-03-20T15:07:45Z</time>
      </trkpt>
      <trkpt lat="42.906866" lon="-2.537159">
        <ele>565.814</ele>
        <time>2022-03-20T15:07:46Z</time>
      </trkpt>
      <trkpt lat="42.906873" lon="-2.537164">
        <ele>565.632</ele>
        <time>2022-03-20T15:07:47Z</time>
      </trkpt>
      <trkpt lat="42.906881" lon="-2.53717">
        <ele>565.484</ele>
        <time>2022-03-20T15:07:48Z</time>
      </trkpt>
      <trkpt lat="42.906889" lon="-2.537177">
        <ele>565.289</ele>
        <time>2022-03-20T15:07:49Z</time>
      </trkpt>
      <trkpt lat="42.906898" lon="-2.537183">
        <ele>565.012</ele>
        <time>2022-03-20T15:07:50Z</time>
      </trkpt>
      <trkpt lat="42.906903" lon="-2.537187">
        <ele>564.871</ele>
        <time>2022-03-20T15:07:51Z</time>
      </trkpt>
      <trkpt lat="42.906914" lon="-2.537189">
        <ele>564.636</ele>
        <time>2022-03-20T15:07:52Z</time>
      </trkpt>
      <trkpt lat="42.906928" lon="-2.537187">
        <ele>564.657</ele>
        <time>2022-03-20T15:07:53Z</time>
      </trkpt>
      <trkpt lat="42.906937" lon="-2.53718">
        <ele>564.486</ele>
        <time>2022-03-20T15:07:54Z</time>
      </trkpt>
      <trkpt lat="42.906941" lon="-2.537176">
        <ele>564.460</ele>
        <time>2022-03-20T15:07:55Z</time>
      </trkpt>
      <trkpt lat="42.906947" lon="-2.537167">
        <ele>564.226</ele>
        <time>2022-03-20T15:07:56Z</time>
      </trkpt>
      <trkpt lat="42.906948" lon="-2.53716">
        <ele>564.208</ele>
        <time>2022-03-20T15:07:57Z</time>
      </trkpt>
      <trkpt lat="42.906948" lon="-2.537154">
        <ele>564.087</ele>
        <time>2022-03-20T15:07:58Z</time>
      </trkpt>
      <trkpt lat="42.906951" lon="-2.537145">
        <ele>564.025</ele>
        <time>2022-03-20T15:07:59Z</time>
      </trkpt>
      <trkpt lat="42.906952" lon="-2.537143">
        <ele>563.657</ele>
        <time>2022-03-20T15:08:00Z</time>
      </trkpt>
      <trkpt lat="42.906951" lon="-2.537143">
        <ele>563.442</ele>
        <time>2022-03-20T15:08:01Z</time>
      </trkpt>
      <trkpt lat="42.906951" lon="-2.537142">
        <ele>563.235</ele>
        <time>2022-03-20T15:08:02Z</time>
      </trkpt>
      <trkpt lat="42.90695" lon="-2.53714">
        <ele>563.054</ele>
        <time>2022-03-20T15:08:03Z</time>
      </trkpt>
      <trkpt lat="42.906949" lon="-2.537141">
        <ele>563.039</ele>
        <time>2022-03-20T15:08:04Z</time>
      </trkpt>
      <trkpt lat="42.90695" lon="-2.537135">
        <ele>562.850</ele>
        <time>2022-03-20T15:08:05Z</time>
      </trkpt>
      <trkpt lat="42.90695" lon="-2.537129">
        <ele>562.814</ele>
        <time>2022-03-20T15:08:06Z</time>
      </trkpt>
      <trkpt lat="42.90695" lon="-2.537123">
        <ele>562.854</ele>
        <time>2022-03-20T15:08:07Z</time>
      </trkpt>
      <trkpt lat="42.90695" lon="-2.537119">
        <ele>562.609</ele>
        <time>2022-03-20T15:08:08Z</time>
      </trkpt>
      <trkpt lat="42.906948" lon="-2.537115">
        <ele>562.608</ele>
        <time>2022-03-20T15:08:09Z</time>
      </trkpt>
      <trkpt lat="42.906946" lon="-2.537115">
        <ele>562.610</ele>
        <time>2022-03-20T15:08:10Z</time>
      </trkpt>
      <trkpt lat="42.906946" lon="-2.537115">
        <ele>562.878</ele>
        <time>2022-03-20T15:08:11Z</time>
      </trkpt>
      <trkpt lat="42.906946" lon="-2.537115">
        <ele>563.230</ele>
        <time>2022-03-20T15:08:12Z</time>
      </trkpt>
      <trkpt lat="42.906946" lon="-2.537115">
        <ele>563.275</ele>
        <time>2022-03-20T15:08:13Z</time>
      </trkpt>
      <trkpt lat="42.906946" lon="-2.537115">
        <ele>563.498</ele>
        <time>2022-03-20T15:08:14Z</time>
      </trkpt>
      <trkpt lat="42.906946" lon="-2.537115">
        <ele>563.467</ele>
        <time>2022-03-20T15:08:15Z</time>
      </trkpt>
      <trkpt lat="42.906946" lon="-2.537115">
        <ele>563.452</ele>
        <time>2022-03-20T15:08:16Z</time>
      </trkpt>
      <trkpt lat="42.906946" lon="-2.537115">
        <ele>563.483</ele>
        <time>2022-03-20T15:08:17Z</time>
      </trkpt>
      <trkpt lat="42.906946" lon="-2.537115">
        <ele>563.626</ele>
        <time>2022-03-20T15:08:18Z</time>
      </trkpt>
      <trkpt lat="42.906946" lon="-2.537119">
        <ele>564.047</ele>
        <time>2022-03-20T15:08:19Z</time>
      </trkpt>
      <trkpt lat="42.906948" lon="-2.537119">
        <ele>564.211</ele>
        <time>2022-03-20T15:08:20Z</time>
      </trkpt>
      <trkpt lat="42.906949" lon="-2.537121">
        <ele>564.608</ele>
        <time>2022-03-20T15:08:21Z</time>
      </trkpt>
      <trkpt lat="42.90695" lon="-2.537123">
        <ele>564.681</ele>
        <time>2022-03-20T15:08:22Z</time>
      </trkpt>
      <trkpt lat="42.906956" lon="-2.537125">
        <ele>564.829</ele>
        <time>2022-03-20T15:08:23Z</time>
      </trkpt>
      <trkpt lat="42.906972" lon="-2.537136">
        <ele>564.881</ele>
        <time>2022-03-20T15:08:24Z</time>
      </trkpt>
      <trkpt lat="42.906988" lon="-2.537145">
        <ele>564.846</ele>
        <time>2022-03-20T15:08:25Z</time>
      </trkpt>
      <trkpt lat="42.907004" lon="-2.53715">
        <ele>564.849</ele>
        <time>2022-03-20T15:08:26Z</time>
      </trkpt>
      <trkpt lat="42.907019" lon="-2.537153">
        <ele>564.868</ele>
        <time>2022-03-20T15:08:27Z</time>
      </trkpt>
      <trkpt lat="42.907033" lon="-2.53716">
        <ele>564.873</ele>
        <time>2022-03-20T15:08:28Z</time>
      </trkpt>
      <trkpt lat="42.907042" lon="-2.537165">
        <ele>564.864</ele>
        <time>2022-03-20T15:08:29Z</time>
      </trkpt>
      <trkpt lat="42.907052" lon="-2.537176">
        <ele>564.631</ele>
        <time>2022-03-20T15:08:30Z</time>
      </trkpt>
      <trkpt lat="42.907069" lon="-2.537179">
        <ele>564.461</ele>
        <time>2022-03-20T15:08:31Z</time>
      </trkpt>
      <trkpt lat="42.907088" lon="-2.537175">
        <ele>564.207</ele>
        <time>2022-03-20T15:08:32Z</time>
      </trkpt>
      <trkpt lat="42.907103" lon="-2.537169">
        <ele>564.208</ele>
        <time>2022-03-20T15:08:33Z</time>
      </trkpt>
      <trkpt lat="42.907111" lon="-2.537168">
        <ele>564.072</ele>
        <time>2022-03-20T15:08:34Z</time>
      </trkpt>
      <trkpt lat="42.90712" lon="-2.537165">
        <ele>563.870</ele>
        <time>2022-03-20T15:08:35Z</time>
      </trkpt>
      <trkpt lat="42.907126" lon="-2.53717">
        <ele>563.692</ele>
        <time>2022-03-20T15:08:36Z</time>
      </trkpt>
      <trkpt lat="42.907133" lon="-2.537176">
        <ele>563.697</ele>
        <time>2022-03-20T15:08:37Z</time>
      </trkpt>
      <trkpt lat="42.907137" lon="-2.537185">
        <ele>563.220</ele>
        <time>2022-03-20T15:08:38Z</time>
      </trkpt>
      <trkpt lat="42.907144" lon="-2.53719">
        <ele>563.079</ele>
        <time>2022-03-20T15:08:39Z</time>
      </trkpt>
      <trkpt lat="42.907153" lon="-2.537196">
        <ele>563.074</ele>
        <time>2022-03-20T15:08:40Z</time>
      </trkpt>
      <trkpt lat="42.907163" lon="-2.537207">
        <ele>562.815</ele>
        <time>2022-03-20T15:08:41Z</time>
      </trkpt>
      <trkpt lat="42.907168" lon="-2.537218">
        <ele>562.641</ele>
        <time>2022-03-20T15:08:42Z</time>
      </trkpt>
      <trkpt lat="42.907171" lon="-2.537231">
        <ele>562.481</ele>
        <time>2022-03-20T15:08:43Z</time>
      </trkpt>
      <trkpt lat="42.90717" lon="-2.537234">
        <ele>562.409</ele>
        <time>2022-03-20T15:08:44Z</time>
      </trkpt>
      <trkpt lat="42.907177" lon="-2.537232">
        <ele>562.208</ele>
        <time>2022-03-20T15:08:45Z</time>
      </trkpt>
      <trkpt lat="42.907187" lon="-2.537226">
        <ele>562.283</ele>
        <time>2022-03-20T15:08:46Z</time>
      </trkpt>
      <trkpt lat="42.907189" lon="-2.537225">
        <ele>562.231</ele>
        <time>2022-03-20T15:08:47Z</time>
      </trkpt>
      <trkpt lat="42.90719" lon="-2.537223">
        <ele>562.253</ele>
        <time>2022-03-20T15:08:48Z</time>
      </trkpt>
      <trkpt lat="42.907195" lon="-2.537222">
        <ele>562.268</ele>
        <time>2022-03-20T15:08:49Z</time>
      </trkpt>
      <trkpt lat="42.907193" lon="-2.537225">
        <ele>562.221</ele>
        <time>2022-03-20T15:08:50Z</time>
      </trkpt>
      <trkpt lat="42.907197" lon="-2.537232">
        <ele>562.030</ele>
        <time>2022-03-20T15:08:51Z</time>
      </trkpt>
      <trkpt lat="42.907205" lon="-2.537243">
        <ele>562.035</ele>
        <time>2022-03-20T15:08:52Z</time>
      </trkpt>
      <trkpt lat="42.907213" lon="-2.537251">
        <ele>561.836</ele>
        <time>2022-03-20T15:08:53Z</time>
      </trkpt>
      <trkpt lat="42.907218" lon="-2.537259">
        <ele>561.891</ele>
        <time>2022-03-20T15:08:54Z</time>
      </trkpt>
      <trkpt lat="42.907223" lon="-2.537263">
        <ele>561.681</ele>
        <time>2022-03-20T15:08:55Z</time>
      </trkpt>
      <trkpt lat="42.907229" lon="-2.537274">
        <ele>561.619</ele>
        <time>2022-03-20T15:08:56Z</time>
      </trkpt>
      <trkpt lat="42.907238" lon="-2.537285">
        <ele>561.608</ele>
        <time>2022-03-20T15:08:57Z</time>
      </trkpt>
      <trkpt lat="42.907246" lon="-2.537296">
        <ele>561.818</ele>
        <time>2022-03-20T15:08:58Z</time>
      </trkpt>
      <trkpt lat="42.907257" lon="-2.537309">
        <ele>561.866</ele>
        <time>2022-03-20T15:08:59Z</time>
      </trkpt>
      <trkpt lat="42.907264" lon="-2.537318">
        <ele>561.888</ele>
        <time>2022-03-20T15:09:00Z</time>
      </trkpt>
      <trkpt lat="42.90727" lon="-2.537327">
        <ele>561.883</ele>
        <time>2022-03-20T15:09:01Z</time>
      </trkpt>
      <trkpt lat="42.907279" lon="-2.53734">
        <ele>561.886</ele>
        <time>2022-03-20T15:09:02Z</time>
      </trkpt>
      <trkpt lat="42.907289" lon="-2.537346">
        <ele>561.865</ele>
        <time>2022-03-20T15:09:03Z</time>
      </trkpt>
      <trkpt lat="42.907296" lon="-2.537354">
        <ele>561.690</ele>
        <time>2022-03-20T15:09:04Z</time>
      </trkpt>
      <trkpt lat="42.907301" lon="-2.537365">
        <ele>561.411</ele>
        <time>2022-03-20T15:09:05Z</time>
      </trkpt>
      <trkpt lat="42.907302" lon="-2.537375">
        <ele>561.477</ele>
        <time>2022-03-20T15:09:06Z</time>
      </trkpt>
      <trkpt lat="42.907304" lon="-2.537384">
        <ele>561.461</ele>
        <time>2022-03-20T15:09:07Z</time>
      </trkpt>
      <trkpt lat="42.907311" lon="-2.537395">
        <ele>561.427</ele>
        <time>2022-03-20T15:09:08Z</time>
      </trkpt>
      <trkpt lat="42.907317" lon="-2.537406">
        <ele>561.408</ele>
        <time>2022-03-20T15:09:09Z</time>
      </trkpt>
      <trkpt lat="42.907323" lon="-2.537417">
        <ele>561.276</ele>
        <time>2022-03-20T15:09:10Z</time>
      </trkpt>
      <trkpt lat="42.907327" lon="-2.537425">
        <ele>561.094</ele>
        <time>2022-03-20T15:09:11Z</time>
      </trkpt>
      <trkpt lat="42.907332" lon="-2.537435">
        <ele>561.086</ele>
        <time>2022-03-20T15:09:12Z</time>
      </trkpt>
      <trkpt lat="42.90734" lon="-2.537448">
        <ele>560.891</ele>
        <time>2022-03-20T15:09:13Z</time>
      </trkpt>
      <trkpt lat="42.907345" lon="-2.537457">
        <ele>560.854</ele>
        <time>2022-03-20T15:09:14Z</time>
      </trkpt>
      <trkpt lat="42.907353" lon="-2.537465">
        <ele>560.833</ele>
        <time>2022-03-20T15:09:15Z</time>
      </trkpt>
      <trkpt lat="42.907359" lon="-2.537472">
        <ele>560.858</ele>
        <time>2022-03-20T15:09:16Z</time>
      </trkpt>
      <trkpt lat="42.907366" lon="-2.537481">
        <ele>560.819</ele>
        <time>2022-03-20T15:09:17Z</time>
      </trkpt>
      <trkpt lat="42.907376" lon="-2.537492">
        <ele>560.821</ele>
        <time>2022-03-20T15:09:18Z</time>
      </trkpt>
      <trkpt lat="42.907383" lon="-2.537502">
        <ele>560.841</ele>
        <time>2022-03-20T15:09:19Z</time>
      </trkpt>
      <trkpt lat="42.907392" lon="-2.537514">
        <ele>560.805</ele>
        <time>2022-03-20T15:09:20Z</time>
      </trkpt>
      <trkpt lat="42.907398" lon="-2.537522">
        <ele>560.808</ele>
        <time>2022-03-20T15:09:21Z</time>
      </trkpt>
      <trkpt lat="42.907406" lon="-2.53753">
        <ele>560.831</ele>
        <time>2022-03-20T15:09:22Z</time>
      </trkpt>
      <trkpt lat="42.907413" lon="-2.537542">
        <ele>560.869</ele>
        <time>2022-03-20T15:09:23Z</time>
      </trkpt>
      <trkpt lat="42.907418" lon="-2.537552">
        <ele>560.681</ele>
        <time>2022-03-20T15:09:24Z</time>
      </trkpt>
      <trkpt lat="42.907418" lon="-2.537565">
        <ele>560.426</ele>
        <time>2022-03-20T15:09:25Z</time>
      </trkpt>
      <trkpt lat="42.907419" lon="-2.537571">
        <ele>560.429</ele>
        <time>2022-03-20T15:09:26Z</time>
      </trkpt>
      <trkpt lat="42.907424" lon="-2.537579">
        <ele>560.288</ele>
        <time>2022-03-20T15:09:27Z</time>
      </trkpt>
      <trkpt lat="42.907429" lon="-2.537588">
        <ele>560.213</ele>
        <time>2022-03-20T15:09:28Z</time>
      </trkpt>
      <trkpt lat="42.907437" lon="-2.5376">
        <ele>560.074</ele>
        <time>2022-03-20T15:09:29Z</time>
      </trkpt>
      <trkpt lat="42.907445" lon="-2.53761">
        <ele>560.041</ele>
        <time>2022-03-20T15:09:30Z</time>
      </trkpt>
      <trkpt lat="42.907457" lon="-2.537616">
        <ele>560.081</ele>
        <time>2022-03-20T15:09:31Z</time>
      </trkpt>
      <trkpt lat="42.907467" lon="-2.537622">
        <ele>559.809</ele>
        <time>2022-03-20T15:09:32Z</time>
      </trkpt>
      <trkpt lat="42.907478" lon="-2.53763">
        <ele>559.608</ele>
        <time>2022-03-20T15:09:33Z</time>
      </trkpt>
      <trkpt lat="42.907492" lon="-2.537641">
        <ele>559.693</ele>
        <time>2022-03-20T15:09:34Z</time>
      </trkpt>
      <trkpt lat="42.907502" lon="-2.537652">
        <ele>559.461</ele>
        <time>2022-03-20T15:09:35Z</time>
      </trkpt>
      <trkpt lat="42.907513" lon="-2.537662">
        <ele>559.073</ele>
        <time>2022-03-20T15:09:36Z</time>
      </trkpt>
      <trkpt lat="42.907522" lon="-2.537674">
        <ele>558.858</ele>
        <time>2022-03-20T15:09:37Z</time>
      </trkpt>
      <trkpt lat="42.907527" lon="-2.537683">
        <ele>558.851</ele>
        <time>2022-03-20T15:09:38Z</time>
      </trkpt>
      <trkpt lat="42.907538" lon="-2.537697">
        <ele>558.810</ele>
        <time>2022-03-20T15:09:39Z</time>
      </trkpt>
      <trkpt lat="42.907549" lon="-2.537709">
        <ele>558.675</ele>
        <time>2022-03-20T15:09:40Z</time>
      </trkpt>
      <trkpt lat="42.90756" lon="-2.53772">
        <ele>558.646</ele>
        <time>2022-03-20T15:09:41Z</time>
      </trkpt>
      <trkpt lat="42.907567" lon="-2.537734">
        <ele>558.661</ele>
        <time>2022-03-20T15:09:42Z</time>
      </trkpt>
      <trkpt lat="42.907573" lon="-2.537746">
        <ele>558.621</ele>
        <time>2022-03-20T15:09:43Z</time>
      </trkpt>
      <trkpt lat="42.90758" lon="-2.537759">
        <ele>558.613</ele>
        <time>2022-03-20T15:09:44Z</time>
      </trkpt>
      <trkpt lat="42.907589" lon="-2.537773">
        <ele>558.408</ele>
        <time>2022-03-20T15:09:45Z</time>
      </trkpt>
      <trkpt lat="42.907597" lon="-2.537781">
        <ele>558.415</ele>
        <time>2022-03-20T15:09:46Z</time>
      </trkpt>
      <trkpt lat="42.907603" lon="-2.537791">
        <ele>558.283</ele>
        <time>2022-03-20T15:09:47Z</time>
      </trkpt>
      <trkpt lat="42.90761" lon="-2.537802">
        <ele>558.235</ele>
        <time>2022-03-20T15:09:48Z</time>
      </trkpt>
      <trkpt lat="42.907618" lon="-2.537816">
        <ele>558.280</ele>
        <time>2022-03-20T15:09:49Z</time>
      </trkpt>
      <trkpt lat="42.907628" lon="-2.537833">
        <ele>558.293</ele>
        <time>2022-03-20T15:09:50Z</time>
      </trkpt>
      <trkpt lat="42.907637" lon="-2.537846">
        <ele>558.042</ele>
        <time>2022-03-20T15:09:51Z</time>
      </trkpt>
      <trkpt lat="42.907645" lon="-2.53786">
        <ele>558.067</ele>
        <time>2022-03-20T15:09:52Z</time>
      </trkpt>
      <trkpt lat="42.90765" lon="-2.53787">
        <ele>558.058</ele>
        <time>2022-03-20T15:09:53Z</time>
      </trkpt>
      <trkpt lat="42.907656" lon="-2.537884">
        <ele>558.098</ele>
        <time>2022-03-20T15:09:54Z</time>
      </trkpt>
      <trkpt lat="42.907663" lon="-2.537901">
        <ele>558.015</ele>
        <time>2022-03-20T15:09:55Z</time>
      </trkpt>
      <trkpt lat="42.90767" lon="-2.537914">
        <ele>557.826</ele>
        <time>2022-03-20T15:09:56Z</time>
      </trkpt>
      <trkpt lat="42.907678" lon="-2.537925">
        <ele>557.808</ele>
        <time>2022-03-20T15:09:57Z</time>
      </trkpt>
      <trkpt lat="42.907684" lon="-2.537934">
        <ele>557.818</ele>
        <time>2022-03-20T15:09:58Z</time>
      </trkpt>
      <trkpt lat="42.90769" lon="-2.537947">
        <ele>557.676</ele>
        <time>2022-03-20T15:09:59Z</time>
      </trkpt>
      <trkpt lat="42.907697" lon="-2.537962">
        <ele>557.448</ele>
        <time>2022-03-20T15:10:00Z</time>
      </trkpt>
      <trkpt lat="42.907705" lon="-2.537973">
        <ele>557.413</ele>
        <time>2022-03-20T15:10:01Z</time>
      </trkpt>
      <trkpt lat="42.907712" lon="-2.537985">
        <ele>557.416</ele>
        <time>2022-03-20T15:10:02Z</time>
      </trkpt>
      <trkpt lat="42.907718" lon="-2.537995">
        <ele>557.475</ele>
        <time>2022-03-20T15:10:03Z</time>
      </trkpt>
      <trkpt lat="42.907723" lon="-2.538005">
        <ele>557.470</ele>
        <time>2022-03-20T15:10:04Z</time>
      </trkpt>
      <trkpt lat="42.907731" lon="-2.53802">
        <ele>557.231</ele>
        <time>2022-03-20T15:10:05Z</time>
      </trkpt>
      <trkpt lat="42.907738" lon="-2.538033">
        <ele>557.222</ele>
        <time>2022-03-20T15:10:06Z</time>
      </trkpt>
      <trkpt lat="42.907746" lon="-2.538044">
        <ele>557.262</ele>
        <time>2022-03-20T15:10:07Z</time>
      </trkpt>
      <trkpt lat="42.90775" lon="-2.538056">
        <ele>557.208</ele>
        <time>2022-03-20T15:10:08Z</time>
      </trkpt>
      <trkpt lat="42.907756" lon="-2.538067">
        <ele>557.008</ele>
        <time>2022-03-20T15:10:09Z</time>
      </trkpt>
      <trkpt lat="42.90776" lon="-2.538075">
        <ele>556.821</ele>
        <time>2022-03-20T15:10:10Z</time>
      </trkpt>
      <trkpt lat="42.907767" lon="-2.538084">
        <ele>556.699</ele>
        <time>2022-03-20T15:10:11Z</time>
      </trkpt>
      <trkpt lat="42.907774" lon="-2.538098">
        <ele>556.461</ele>
        <time>2022-03-20T15:10:12Z</time>
      </trkpt>
      <trkpt lat="42.907781" lon="-2.538107">
        <ele>556.416</ele>
        <time>2022-03-20T15:10:13Z</time>
      </trkpt>
      <trkpt lat="42.90779" lon="-2.538119">
        <ele>556.279</ele>
        <time>2022-03-20T15:10:14Z</time>
      </trkpt>
      <trkpt lat="42.9078" lon="-2.538132">
        <ele>556.298</ele>
        <time>2022-03-20T15:10:15Z</time>
      </trkpt>
      <trkpt lat="42.907812" lon="-2.538146">
        <ele>556.063</ele>
        <time>2022-03-20T15:10:16Z</time>
      </trkpt>
      <trkpt lat="42.907821" lon="-2.538154">
        <ele>555.844</ele>
        <time>2022-03-20T15:10:17Z</time>
      </trkpt>
      <trkpt lat="42.907834" lon="-2.538166">
        <ele>555.662</ele>
        <time>2022-03-20T15:10:18Z</time>
      </trkpt>
      <trkpt lat="42.907844" lon="-2.538175">
        <ele>555.483</ele>
        <time>2022-03-20T15:10:19Z</time>
      </trkpt>
      <trkpt lat="42.907851" lon="-2.538182">
        <ele>555.411</ele>
        <time>2022-03-20T15:10:20Z</time>
      </trkpt>
      <trkpt lat="42.90786" lon="-2.538191">
        <ele>555.208</ele>
        <time>2022-03-20T15:10:21Z</time>
      </trkpt>
      <trkpt lat="42.907867" lon="-2.5382">
        <ele>555.285</ele>
        <time>2022-03-20T15:10:22Z</time>
      </trkpt>
      <trkpt lat="42.907874" lon="-2.538209">
        <ele>555.033</ele>
        <time>2022-03-20T15:10:23Z</time>
      </trkpt>
      <trkpt lat="42.907883" lon="-2.538216">
        <ele>554.825</ele>
        <time>2022-03-20T15:10:24Z</time>
      </trkpt>
      <trkpt lat="42.907891" lon="-2.538226">
        <ele>554.820</ele>
        <time>2022-03-20T15:10:25Z</time>
      </trkpt>
      <trkpt lat="42.907898" lon="-2.538233">
        <ele>554.683</ele>
        <time>2022-03-20T15:10:26Z</time>
      </trkpt>
      <trkpt lat="42.907903" lon="-2.538238">
        <ele>554.682</ele>
        <time>2022-03-20T15:10:27Z</time>
      </trkpt>
      <trkpt lat="42.907906" lon="-2.538241">
        <ele>554.657</ele>
        <time>2022-03-20T15:10:28Z</time>
      </trkpt>
      <trkpt lat="42.907909" lon="-2.538244">
        <ele>554.698</ele>
        <time>2022-03-20T15:10:29Z</time>
      </trkpt>
      <trkpt lat="42.907915" lon="-2.538246">
        <ele>554.638</ele>
        <time>2022-03-20T15:10:30Z</time>
      </trkpt>
      <trkpt lat="42.90792" lon="-2.538248">
        <ele>554.670</ele>
        <time>2022-03-20T15:10:31Z</time>
      </trkpt>
      <trkpt lat="42.907925" lon="-2.538255">
        <ele>554.617</ele>
        <time>2022-03-20T15:10:32Z</time>
      </trkpt>
      <trkpt lat="42.90793" lon="-2.538261">
        <ele>554.608</ele>
        <time>2022-03-20T15:10:33Z</time>
      </trkpt>
      <trkpt lat="42.907936" lon="-2.538269">
        <ele>554.642</ele>
        <time>2022-03-20T15:10:34Z</time>
      </trkpt>
      <trkpt lat="42.907938" lon="-2.538273">
        <ele>554.440</ele>
        <time>2022-03-20T15:10:35Z</time>
      </trkpt>
      <trkpt lat="42.907941" lon="-2.538278">
        <ele>554.482</ele>
        <time>2022-03-20T15:10:36Z</time>
      </trkpt>
      <trkpt lat="42.907944" lon="-2.538285">
        <ele>554.457</ele>
        <time>2022-03-20T15:10:37Z</time>
      </trkpt>
      <trkpt lat="42.907948" lon="-2.53829">
        <ele>554.430</ele>
        <time>2022-03-20T15:10:38Z</time>
      </trkpt>
      <trkpt lat="42.907952" lon="-2.538297">
        <ele>554.459</ele>
        <time>2022-03-20T15:10:39Z</time>
      </trkpt>
      <trkpt lat="42.907961" lon="-2.538304">
        <ele>554.494</ele>
        <time>2022-03-20T15:10:40Z</time>
      </trkpt>
      <trkpt lat="42.907967" lon="-2.538312">
        <ele>554.255</ele>
        <time>2022-03-20T15:10:41Z</time>
      </trkpt>
      <trkpt lat="42.907975" lon="-2.538318">
        <ele>554.239</ele>
        <time>2022-03-20T15:10:42Z</time>
      </trkpt>
      <trkpt lat="42.907986" lon="-2.538326">
        <ele>554.201</ele>
        <time>2022-03-20T15:10:43Z</time>
      </trkpt>
      <trkpt lat="42.907991" lon="-2.538332">
        <ele>554.221</ele>
        <time>2022-03-20T15:10:44Z</time>
      </trkpt>
      <trkpt lat="42.907992" lon="-2.538338">
        <ele>554.008</ele>
        <time>2022-03-20T15:10:45Z</time>
      </trkpt>
      <trkpt lat="42.907996" lon="-2.538341">
        <ele>554.082</ele>
        <time>2022-03-20T15:10:46Z</time>
      </trkpt>
      <trkpt lat="42.908002" lon="-2.538347">
        <ele>553.810</ele>
        <time>2022-03-20T15:10:47Z</time>
      </trkpt>
      <trkpt lat="42.908013" lon="-2.53835">
        <ele>553.882</ele>
        <time>2022-03-20T15:10:48Z</time>
      </trkpt>
      <trkpt lat="42.908021" lon="-2.538358">
        <ele>553.867</ele>
        <time>2022-03-20T15:10:49Z</time>
      </trkpt>
      <trkpt lat="42.908026" lon="-2.538365">
        <ele>553.680</ele>
        <time>2022-03-20T15:10:50Z</time>
      </trkpt>
      <trkpt lat="42.908031" lon="-2.538369">
        <ele>553.699</ele>
        <time>2022-03-20T15:10:51Z</time>
      </trkpt>
      <trkpt lat="42.908038" lon="-2.538375">
        <ele>553.684</ele>
        <time>2022-03-20T15:10:52Z</time>
      </trkpt>
      <trkpt lat="42.908042" lon="-2.538383">
        <ele>553.485</ele>
        <time>2022-03-20T15:10:53Z</time>
      </trkpt>
      <trkpt lat="42.908046" lon="-2.538387">
        <ele>553.482</ele>
        <time>2022-03-20T15:10:54Z</time>
      </trkpt>
      <trkpt lat="42.908051" lon="-2.53839">
        <ele>553.443</ele>
        <time>2022-03-20T15:10:55Z</time>
      </trkpt>
      <trkpt lat="42.908058" lon="-2.538396">
        <ele>553.417</ele>
        <time>2022-03-20T15:10:56Z</time>
      </trkpt>
      <trkpt lat="42.908065" lon="-2.538401">
        <ele>553.408</ele>
        <time>2022-03-20T15:10:57Z</time>
      </trkpt>
      <trkpt lat="42.908068" lon="-2.53841">
        <ele>553.467</ele>
        <time>2022-03-20T15:10:58Z</time>
      </trkpt>
      <trkpt lat="42.908071" lon="-2.538419">
        <ele>553.255</ele>
        <time>2022-03-20T15:10:59Z</time>
      </trkpt>
      <trkpt lat="42.908073" lon="-2.538426">
        <ele>553.287</ele>
        <time>2022-03-20T15:11:00Z</time>
      </trkpt>
      <trkpt lat="42.908076" lon="-2.538436">
        <ele>553.052</ele>
        <time>2022-03-20T15:11:01Z</time>
      </trkpt>
      <trkpt lat="42.90808" lon="-2.538445">
        <ele>553.035</ele>
        <time>2022-03-20T15:11:02Z</time>
      </trkpt>
      <trkpt lat="42.908082" lon="-2.538458">
        <ele>553.014</ele>
        <time>2022-03-20T15:11:03Z</time>
      </trkpt>
      <trkpt lat="42.908088" lon="-2.538467">
        <ele>553.039</ele>
        <time>2022-03-20T15:11:04Z</time>
      </trkpt>
      <trkpt lat="42.908094" lon="-2.538472">
        <ele>553.030</ele>
        <time>2022-03-20T15:11:05Z</time>
      </trkpt>
      <trkpt lat="42.908102" lon="-2.538477">
        <ele>552.836</ele>
        <time>2022-03-20T15:11:06Z</time>
      </trkpt>
      <trkpt lat="42.908108" lon="-2.538486">
        <ele>552.817</ele>
        <time>2022-03-20T15:11:07Z</time>
      </trkpt>
      <trkpt lat="42.908112" lon="-2.538493">
        <ele>552.818</ele>
        <time>2022-03-20T15:11:08Z</time>
      </trkpt>
      <trkpt lat="42.908116" lon="-2.538501">
        <ele>552.808</ele>
        <time>2022-03-20T15:11:09Z</time>
      </trkpt>
      <trkpt lat="42.908119" lon="-2.538508">
        <ele>552.692</ele>
        <time>2022-03-20T15:11:10Z</time>
      </trkpt>
      <trkpt lat="42.908125" lon="-2.538516">
        <ele>552.670</ele>
        <time>2022-03-20T15:11:11Z</time>
      </trkpt>
      <trkpt lat="42.908132" lon="-2.538521">
        <ele>552.652</ele>
        <time>2022-03-20T15:11:12Z</time>
      </trkpt>
      <trkpt lat="42.908138" lon="-2.538527">
        <ele>552.667</ele>
        <time>2022-03-20T15:11:13Z</time>
      </trkpt>
      <trkpt lat="42.908142" lon="-2.538533">
        <ele>552.640</ele>
        <time>2022-03-20T15:11:14Z</time>
      </trkpt>
      <trkpt lat="42.908145" lon="-2.53854">
        <ele>552.619</ele>
        <time>2022-03-20T15:11:15Z</time>
      </trkpt>
      <trkpt lat="42.908149" lon="-2.538547">
        <ele>552.674</ele>
        <time>2022-03-20T15:11:16Z</time>
      </trkpt>
      <trkpt lat="42.908152" lon="-2.538556">
        <ele>552.625</ele>
        <time>2022-03-20T15:11:17Z</time>
      </trkpt>
      <trkpt lat="42.908157" lon="-2.538566">
        <ele>552.612</ele>
        <time>2022-03-20T15:11:18Z</time>
      </trkpt>
      <trkpt lat="42.908165" lon="-2.538575">
        <ele>552.832</ele>
        <time>2022-03-20T15:11:19Z</time>
      </trkpt>
      <trkpt lat="42.908172" lon="-2.538584">
        <ele>552.805</ele>
        <time>2022-03-20T15:11:20Z</time>
      </trkpt>
      <trkpt lat="42.908182" lon="-2.538593">
        <ele>552.808</ele>
        <time>2022-03-20T15:11:21Z</time>
      </trkpt>
      <trkpt lat="42.908187" lon="-2.5386">
        <ele>552.850</ele>
        <time>2022-03-20T15:11:22Z</time>
      </trkpt>
      <trkpt lat="42.908194" lon="-2.538609">
        <ele>552.818</ele>
        <time>2022-03-20T15:11:23Z</time>
      </trkpt>
      <trkpt lat="42.908199" lon="-2.538617">
        <ele>552.880</ele>
        <time>2022-03-20T15:11:24Z</time>
      </trkpt>
      <trkpt lat="42.908205" lon="-2.538624">
        <ele>552.895</ele>
        <time>2022-03-20T15:11:25Z</time>
      </trkpt>
      <trkpt lat="42.908211" lon="-2.538632">
        <ele>552.898</ele>
        <time>2022-03-20T15:11:26Z</time>
      </trkpt>
      <trkpt lat="42.908217" lon="-2.538645">
        <ele>552.887</ele>
        <time>2022-03-20T15:11:27Z</time>
      </trkpt>
      <trkpt lat="42.908218" lon="-2.538654">
        <ele>552.892</ele>
        <time>2022-03-20T15:11:28Z</time>
      </trkpt>
      <trkpt lat="42.908222" lon="-2.538663">
        <ele>552.613</ele>
        <time>2022-03-20T15:11:29Z</time>
      </trkpt>
      <trkpt lat="42.908226" lon="-2.538672">
        <ele>552.694</ele>
        <time>2022-03-20T15:11:30Z</time>
      </trkpt>
      <trkpt lat="42.908233" lon="-2.538683">
        <ele>552.457</ele>
        <time>2022-03-20T15:11:31Z</time>
      </trkpt>
      <trkpt lat="42.908238" lon="-2.53869">
        <ele>552.422</ele>
        <time>2022-03-20T15:11:32Z</time>
      </trkpt>
      <trkpt lat="42.908245" lon="-2.538702">
        <ele>552.408</ele>
        <time>2022-03-20T15:11:33Z</time>
      </trkpt>
      <trkpt lat="42.908252" lon="-2.538709">
        <ele>552.268</ele>
        <time>2022-03-20T15:11:34Z</time>
      </trkpt>
      <trkpt lat="42.908259" lon="-2.538717">
        <ele>552.256</ele>
        <time>2022-03-20T15:11:35Z</time>
      </trkpt>
      <trkpt lat="42.908266" lon="-2.538725">
        <ele>552.258</ele>
        <time>2022-03-20T15:11:36Z</time>
      </trkpt>
      <trkpt lat="42.908271" lon="-2.538733">
        <ele>552.013</ele>
        <time>2022-03-20T15:11:37Z</time>
      </trkpt>
      <trkpt lat="42.908277" lon="-2.538742">
        <ele>551.876</ele>
        <time>2022-03-20T15:11:38Z</time>
      </trkpt>
      <trkpt lat="42.908282" lon="-2.538751">
        <ele>551.875</ele>
        <time>2022-03-20T15:11:39Z</time>
      </trkpt>
      <trkpt lat="42.908288" lon="-2.538761">
        <ele>551.660</ele>
        <time>2022-03-20T15:11:40Z</time>
      </trkpt>
      <trkpt lat="42.908294" lon="-2.538771">
        <ele>551.651</ele>
        <time>2022-03-20T15:11:41Z</time>
      </trkpt>
      <trkpt lat="42.908302" lon="-2.538782">
        <ele>551.474</ele>
        <time>2022-03-20T15:11:42Z</time>
      </trkpt>
      <trkpt lat="42.908307" lon="-2.538792">
        <ele>551.456</ele>
        <time>2022-03-20T15:11:43Z</time>
      </trkpt>
      <trkpt lat="42.908312" lon="-2.5388">
        <ele>551.421</ele>
        <time>2022-03-20T15:11:44Z</time>
      </trkpt>
      <trkpt lat="42.908319" lon="-2.538808">
        <ele>551.408</ele>
        <time>2022-03-20T15:11:45Z</time>
      </trkpt>
      <trkpt lat="42.908326" lon="-2.538815">
        <ele>551.496</ele>
        <time>2022-03-20T15:11:46Z</time>
      </trkpt>
      <trkpt lat="42.908331" lon="-2.538822">
        <ele>551.444</ele>
        <time>2022-03-20T15:11:47Z</time>
      </trkpt>
      <trkpt lat="42.908337" lon="-2.538831">
        <ele>551.646</ele>
        <time>2022-03-20T15:11:48Z</time>
      </trkpt>
      <trkpt lat="42.908343" lon="-2.538838">
        <ele>551.641</ele>
        <time>2022-03-20T15:11:49Z</time>
      </trkpt>
      <trkpt lat="42.908349" lon="-2.538846">
        <ele>551.664</ele>
        <time>2022-03-20T15:11:50Z</time>
      </trkpt>
      <trkpt lat="42.908354" lon="-2.538855">
        <ele>551.433</ele>
        <time>2022-03-20T15:11:51Z</time>
      </trkpt>
      <trkpt lat="42.908358" lon="-2.538864">
        <ele>551.438</ele>
        <time>2022-03-20T15:11:52Z</time>
      </trkpt>
      <trkpt lat="42.90836" lon="-2.538874">
        <ele>551.689</ele>
        <time>2022-03-20T15:11:53Z</time>
      </trkpt>
      <trkpt lat="42.908365" lon="-2.53888">
        <ele>551.462</ele>
        <time>2022-03-20T15:11:54Z</time>
      </trkpt>
      <trkpt lat="42.908371" lon="-2.538887">
        <ele>551.483</ele>
        <time>2022-03-20T15:11:55Z</time>
      </trkpt>
      <trkpt lat="42.908378" lon="-2.538897">
        <ele>551.411</ele>
        <time>2022-03-20T15:11:56Z</time>
      </trkpt>
      <trkpt lat="42.908387" lon="-2.538904">
        <ele>551.408</ele>
        <time>2022-03-20T15:11:57Z</time>
      </trkpt>
      <trkpt lat="42.908393" lon="-2.53891">
        <ele>551.485</ele>
        <time>2022-03-20T15:11:58Z</time>
      </trkpt>
      <trkpt lat="42.908399" lon="-2.538916">
        <ele>551.443</ele>
        <time>2022-03-20T15:11:59Z</time>
      </trkpt>
      <trkpt lat="42.908407" lon="-2.538923">
        <ele>551.415</ele>
        <time>2022-03-20T15:12:00Z</time>
      </trkpt>
      <trkpt lat="42.908412" lon="-2.538933">
        <ele>551.260</ele>
        <time>2022-03-20T15:12:01Z</time>
      </trkpt>
      <trkpt lat="42.908422" lon="-2.538942">
        <ele>551.213</ele>
        <time>2022-03-20T15:12:02Z</time>
      </trkpt>
      <trkpt lat="42.908429" lon="-2.538951">
        <ele>551.242</ele>
        <time>2022-03-20T15:12:03Z</time>
      </trkpt>
      <trkpt lat="42.908436" lon="-2.538958">
        <ele>551.287</ele>
        <time>2022-03-20T15:12:04Z</time>
      </trkpt>
      <trkpt lat="42.908445" lon="-2.538965">
        <ele>551.068</ele>
        <time>2022-03-20T15:12:05Z</time>
      </trkpt>
      <trkpt lat="42.908452" lon="-2.538974">
        <ele>551.033</ele>
        <time>2022-03-20T15:12:06Z</time>
      </trkpt>
      <trkpt lat="42.908457" lon="-2.538982">
        <ele>551.023</ele>
        <time>2022-03-20T15:12:07Z</time>
      </trkpt>
      <trkpt lat="42.908463" lon="-2.538987">
        <ele>551.015</ele>
        <time>2022-03-20T15:12:08Z</time>
      </trkpt>
      <trkpt lat="42.908467" lon="-2.538995">
        <ele>550.808</ele>
        <time>2022-03-20T15:12:09Z</time>
      </trkpt>
      <trkpt lat="42.908473" lon="-2.539004">
        <ele>550.832</ele>
        <time>2022-03-20T15:12:10Z</time>
      </trkpt>
      <trkpt lat="42.908478" lon="-2.539016">
        <ele>550.860</ele>
        <time>2022-03-20T15:12:11Z</time>
      </trkpt>
      <trkpt lat="42.908484" lon="-2.539027">
        <ele>550.842</ele>
        <time>2022-03-20T15:12:12Z</time>
      </trkpt>
      <trkpt lat="42.908491" lon="-2.539036">
        <ele>550.897</ele>
        <time>2022-03-20T15:12:13Z</time>
      </trkpt>
      <trkpt lat="42.908495" lon="-2.539048">
        <ele>550.670</ele>
        <time>2022-03-20T15:12:14Z</time>
      </trkpt>
      <trkpt lat="42.908504" lon="-2.53907">
        <ele>550.619</ele>
        <time>2022-03-20T15:12:15Z</time>
      </trkpt>
      <trkpt lat="42.908511" lon="-2.539085">
        <ele>550.674</ele>
        <time>2022-03-20T15:12:16Z</time>
      </trkpt>
      <trkpt lat="42.908524" lon="-2.539104">
        <ele>550.655</ele>
        <time>2022-03-20T15:12:17Z</time>
      </trkpt>
      <trkpt lat="42.908541" lon="-2.539121">
        <ele>550.685</ele>
        <time>2022-03-20T15:12:18Z</time>
      </trkpt>
      <trkpt lat="42.908556" lon="-2.539138">
        <ele>550.689</ele>
        <time>2022-03-20T15:12:19Z</time>
      </trkpt>
      <trkpt lat="42.908567" lon="-2.539155">
        <ele>550.417</ele>
        <time>2022-03-20T15:12:20Z</time>
      </trkpt>
      <trkpt lat="42.908575" lon="-2.539171">
        <ele>550.408</ele>
        <time>2022-03-20T15:12:21Z</time>
      </trkpt>
      <trkpt lat="42.908581" lon="-2.539186">
        <ele>550.427</ele>
        <time>2022-03-20T15:12:22Z</time>
      </trkpt>
      <trkpt lat="42.908592" lon="-2.539198">
        <ele>550.495</ele>
        <time>2022-03-20T15:12:23Z</time>
      </trkpt>
      <trkpt lat="42.908595" lon="-2.539206">
        <ele>550.457</ele>
        <time>2022-03-20T15:12:24Z</time>
      </trkpt>
      <trkpt lat="42.908596" lon="-2.539211">
        <ele>550.262</ele>
        <time>2022-03-20T15:12:25Z</time>
      </trkpt>
      <trkpt lat="42.908595" lon="-2.539218">
        <ele>550.425</ele>
        <time>2022-03-20T15:12:26Z</time>
      </trkpt>
      <trkpt lat="42.908595" lon="-2.539226">
        <ele>550.424</ele>
        <time>2022-03-20T15:12:27Z</time>
      </trkpt>
      <trkpt lat="42.908598" lon="-2.53923">
        <ele>550.459</ele>
        <time>2022-03-20T15:12:28Z</time>
      </trkpt>
      <trkpt lat="42.908605" lon="-2.539232">
        <ele>550.440</ele>
        <time>2022-03-20T15:12:29Z</time>
      </trkpt>
      <trkpt lat="42.908608" lon="-2.539236">
        <ele>550.423</ele>
        <time>2022-03-20T15:12:30Z</time>
      </trkpt>
      <trkpt lat="42.908612" lon="-2.539236">
        <ele>550.483</ele>
        <time>2022-03-20T15:12:31Z</time>
      </trkpt>
      <trkpt lat="42.908614" lon="-2.539234">
        <ele>550.411</ele>
        <time>2022-03-20T15:12:32Z</time>
      </trkpt>
      <trkpt lat="42.908616" lon="-2.539233">
        <ele>550.408</ele>
        <time>2022-03-20T15:12:33Z</time>
      </trkpt>
      <trkpt lat="42.908614" lon="-2.539233">
        <ele>550.491</ele>
        <time>2022-03-20T15:12:34Z</time>
      </trkpt>
      <trkpt lat="42.908612" lon="-2.539231">
        <ele>550.429</ele>
        <time>2022-03-20T15:12:35Z</time>
      </trkpt>
      <trkpt lat="42.908611" lon="-2.539227">
        <ele>550.251</ele>
        <time>2022-03-20T15:12:36Z</time>
      </trkpt>
      <trkpt lat="42.90861" lon="-2.539228">
        <ele>550.216</ele>
        <time>2022-03-20T15:12:37Z</time>
      </trkpt>
      <trkpt lat="42.908611" lon="-2.539233">
        <ele>550.049</ele>
        <time>2022-03-20T15:12:38Z</time>
      </trkpt>
      <trkpt lat="42.908615" lon="-2.539241">
        <ele>550.068</ele>
        <time>2022-03-20T15:12:39Z</time>
      </trkpt>
      <trkpt lat="42.908621" lon="-2.53925">
        <ele>549.823</ele>
        <time>2022-03-20T15:12:40Z</time>
      </trkpt>
      <trkpt lat="42.908627" lon="-2.539258">
        <ele>549.834</ele>
        <time>2022-03-20T15:12:41Z</time>
      </trkpt>
      <trkpt lat="42.908633" lon="-2.539268">
        <ele>549.813</ele>
        <time>2022-03-20T15:12:42Z</time>
      </trkpt>
      <trkpt lat="42.908638" lon="-2.539278">
        <ele>549.843</ele>
        <time>2022-03-20T15:12:43Z</time>
      </trkpt>
      <trkpt lat="42.908643" lon="-2.539288">
        <ele>549.807</ele>
        <time>2022-03-20T15:12:44Z</time>
      </trkpt>
      <trkpt lat="42.90865" lon="-2.539299">
        <ele>549.608</ele>
        <time>2022-03-20T15:12:45Z</time>
      </trkpt>
      <trkpt lat="42.908657" lon="-2.539308">
        <ele>549.620</ele>
        <time>2022-03-20T15:12:46Z</time>
      </trkpt>
      <trkpt lat="42.908662" lon="-2.539319">
        <ele>549.678</ele>
        <time>2022-03-20T15:12:47Z</time>
      </trkpt>
      <trkpt lat="42.908669" lon="-2.539327">
        <ele>549.480</ele>
        <time>2022-03-20T15:12:48Z</time>
      </trkpt>
      <trkpt lat="42.908677" lon="-2.539337">
        <ele>549.485</ele>
        <time>2022-03-20T15:12:49Z</time>
      </trkpt>
      <trkpt lat="42.908685" lon="-2.539344">
        <ele>549.228</ele>
        <time>2022-03-20T15:12:50Z</time>
      </trkpt>
      <trkpt lat="42.908692" lon="-2.539351">
        <ele>549.217</ele>
        <time>2022-03-20T15:12:51Z</time>
      </trkpt>
      <trkpt lat="42.908701" lon="-2.539357">
        <ele>549.242</ele>
        <time>2022-03-20T15:12:52Z</time>
      </trkpt>
      <trkpt lat="42.908711" lon="-2.539365">
        <ele>549.023</ele>
        <time>2022-03-20T15:12:53Z</time>
      </trkpt>
      <trkpt lat="42.90872" lon="-2.539377">
        <ele>549.077</ele>
        <time>2022-03-20T15:12:54Z</time>
      </trkpt>
      <trkpt lat="42.908722" lon="-2.539393">
        <ele>548.861</ele>
        <time>2022-03-20T15:12:55Z</time>
      </trkpt>
      <trkpt lat="42.908729" lon="-2.539409">
        <ele>548.827</ele>
        <time>2022-03-20T15:12:56Z</time>
      </trkpt>
      <trkpt lat="42.908738" lon="-2.539427">
        <ele>548.808</ele>
        <time>2022-03-20T15:12:57Z</time>
      </trkpt>
      <trkpt lat="42.908743" lon="-2.539438">
        <ele>548.856</ele>
        <time>2022-03-20T15:12:58Z</time>
      </trkpt>
      <trkpt lat="42.908748" lon="-2.539452">
        <ele>548.624</ele>
        <time>2022-03-20T15:12:59Z</time>
      </trkpt>
      <trkpt lat="42.908755" lon="-2.539463">
        <ele>548.656</ele>
        <time>2022-03-20T15:13:00Z</time>
      </trkpt>
      <trkpt lat="42.908761" lon="-2.539475">
        <ele>548.681</ele>
        <time>2022-03-20T15:13:01Z</time>
      </trkpt>
      <trkpt lat="42.908767" lon="-2.539488">
        <ele>548.654</ele>
        <time>2022-03-20T15:13:02Z</time>
      </trkpt>
      <trkpt lat="42.908773" lon="-2.539499">
        <ele>548.663</ele>
        <time>2022-03-20T15:13:03Z</time>
      </trkpt>
      <trkpt lat="42.908777" lon="-2.53951">
        <ele>548.478</ele>
        <time>2022-03-20T15:13:04Z</time>
      </trkpt>
      <trkpt lat="42.908778" lon="-2.539524">
        <ele>548.449</ele>
        <time>2022-03-20T15:13:05Z</time>
      </trkpt>
      <trkpt lat="42.908781" lon="-2.539538">
        <ele>548.468</ele>
        <time>2022-03-20T15:13:06Z</time>
      </trkpt>
      <trkpt lat="42.908784" lon="-2.539552">
        <ele>548.442</ele>
        <time>2022-03-20T15:13:07Z</time>
      </trkpt>
      <trkpt lat="42.908787" lon="-2.539557">
        <ele>548.426</ele>
        <time>2022-03-20T15:13:08Z</time>
      </trkpt>
      <trkpt lat="42.908789" lon="-2.539556">
        <ele>548.408</ele>
        <time>2022-03-20T15:13:09Z</time>
      </trkpt>
      <trkpt lat="42.908794" lon="-2.539554">
        <ele>548.475</ele>
        <time>2022-03-20T15:13:10Z</time>
      </trkpt>
      <trkpt lat="42.908799" lon="-2.53955">
        <ele>548.493</ele>
        <time>2022-03-20T15:13:11Z</time>
      </trkpt>
      <trkpt lat="42.908804" lon="-2.539545">
        <ele>548.475</ele>
        <time>2022-03-20T15:13:12Z</time>
      </trkpt>
      <trkpt lat="42.908805" lon="-2.53954">
        <ele>548.440</ele>
        <time>2022-03-20T15:13:13Z</time>
      </trkpt>
      <trkpt lat="42.90879" lon="-2.539542">
        <ele>548.453</ele>
        <time>2022-03-20T15:13:14Z</time>
      </trkpt>
      <trkpt lat="42.908783" lon="-2.53954">
        <ele>548.442</ele>
        <time>2022-03-20T15:13:15Z</time>
      </trkpt>
      <trkpt lat="42.90877" lon="-2.539538">
        <ele>548.677</ele>
        <time>2022-03-20T15:13:16Z</time>
      </trkpt>
      <trkpt lat="42.908765" lon="-2.539536">
        <ele>548.688</ele>
        <time>2022-03-20T15:13:17Z</time>
      </trkpt>
      <trkpt lat="42.908761" lon="-2.539538">
        <ele>548.638</ele>
        <time>2022-03-20T15:13:18Z</time>
      </trkpt>
      <trkpt lat="42.908758" lon="-2.539541">
        <ele>548.670</ele>
        <time>2022-03-20T15:13:19Z</time>
      </trkpt>
      <trkpt lat="42.908757" lon="-2.539542">
        <ele>548.617</ele>
        <time>2022-03-20T15:13:20Z</time>
      </trkpt>
      <trkpt lat="42.908757" lon="-2.539542">
        <ele>548.608</ele>
        <time>2022-03-20T15:13:21Z</time>
      </trkpt>
      <trkpt lat="42.908757" lon="-2.539542">
        <ele>548.842</ele>
        <time>2022-03-20T15:13:22Z</time>
      </trkpt>
      <trkpt lat="42.908757" lon="-2.539542">
        <ele>548.810</ele>
        <time>2022-03-20T15:13:23Z</time>
      </trkpt>
      <trkpt lat="42.908757" lon="-2.539542">
        <ele>548.852</ele>
        <time>2022-03-20T15:13:24Z</time>
      </trkpt>
      <trkpt lat="42.908757" lon="-2.539542">
        <ele>548.877</ele>
        <time>2022-03-20T15:13:25Z</time>
      </trkpt>
      <trkpt lat="42.908757" lon="-2.539542">
        <ele>548.810</ele>
        <time>2022-03-20T15:13:26Z</time>
      </trkpt>
      <trkpt lat="42.908757" lon="-2.539542">
        <ele>548.839</ele>
        <time>2022-03-20T15:13:27Z</time>
      </trkpt>
      <trkpt lat="42.908757" lon="-2.539542">
        <ele>548.824</ele>
        <time>2022-03-20T15:13:28Z</time>
      </trkpt>
      <trkpt lat="42.908757" lon="-2.539542">
        <ele>548.695</ele>
        <time>2022-03-20T15:13:29Z</time>
      </trkpt>
      <trkpt lat="42.908761" lon="-2.539548">
        <ele>548.667</ele>
        <time>2022-03-20T15:13:30Z</time>
      </trkpt>
      <trkpt lat="42.908776" lon="-2.539571">
        <ele>548.481</ele>
        <time>2022-03-20T15:13:31Z</time>
      </trkpt>
      <trkpt lat="42.908792" lon="-2.539592">
        <ele>548.419</ele>
        <time>2022-03-20T15:13:32Z</time>
      </trkpt>
      <trkpt lat="42.908805" lon="-2.539609">
        <ele>548.408</ele>
        <time>2022-03-20T15:13:33Z</time>
      </trkpt>
      <trkpt lat="42.908816" lon="-2.539628">
        <ele>548.455</ele>
        <time>2022-03-20T15:13:34Z</time>
      </trkpt>
      <trkpt lat="42.908828" lon="-2.539646">
        <ele>548.613</ele>
        <time>2022-03-20T15:13:35Z</time>
      </trkpt>
      <trkpt lat="42.90884" lon="-2.539666">
        <ele>548.685</ele>
        <time>2022-03-20T15:13:36Z</time>
      </trkpt>
      <trkpt lat="42.908854" lon="-2.539685">
        <ele>548.650</ele>
        <time>2022-03-20T15:13:37Z</time>
      </trkpt>
      <trkpt lat="42.908865" lon="-2.539701">
        <ele>548.833</ele>
        <time>2022-03-20T15:13:38Z</time>
      </trkpt>
      <trkpt lat="42.908875" lon="-2.539714">
        <ele>548.822</ele>
        <time>2022-03-20T15:13:39Z</time>
      </trkpt>
      <trkpt lat="42.908881" lon="-2.539719">
        <ele>548.877</ele>
        <time>2022-03-20T15:13:40Z</time>
      </trkpt>
      <trkpt lat="42.908889" lon="-2.539724">
        <ele>548.868</ele>
        <time>2022-03-20T15:13:41Z</time>
      </trkpt>
      <trkpt lat="42.908897" lon="-2.539727">
        <ele>548.865</ele>
        <time>2022-03-20T15:13:42Z</time>
      </trkpt>
      <trkpt lat="42.908903" lon="-2.539734">
        <ele>548.868</ele>
        <time>2022-03-20T15:13:43Z</time>
      </trkpt>
      <trkpt lat="42.908909" lon="-2.539747">
        <ele>548.814</ele>
        <time>2022-03-20T15:13:44Z</time>
      </trkpt>
      <trkpt lat="42.908921" lon="-2.539764">
        <ele>548.808</ele>
        <time>2022-03-20T15:13:45Z</time>
      </trkpt>
      <trkpt lat="42.908935" lon="-2.53978">
        <ele>548.885</ele>
        <time>2022-03-20T15:13:46Z</time>
      </trkpt>
      <trkpt lat="42.908949" lon="-2.539793">
        <ele>548.633</ele>
        <time>2022-03-20T15:13:47Z</time>
      </trkpt>
      <trkpt lat="42.908964" lon="-2.539803">
        <ele>548.425</ele>
        <time>2022-03-20T15:13:48Z</time>
      </trkpt>
      <trkpt lat="42.908976" lon="-2.53981">
        <ele>548.490</ele>
        <time>2022-03-20T15:13:49Z</time>
      </trkpt>
      <trkpt lat="42.908989" lon="-2.539817">
        <ele>548.453</ele>
        <time>2022-03-20T15:13:50Z</time>
      </trkpt>
      <trkpt lat="42.909002" lon="-2.539822">
        <ele>548.252</ele>
        <time>2022-03-20T15:13:51Z</time>
      </trkpt>
      <trkpt lat="42.909015" lon="-2.539828">
        <ele>548.217</ele>
        <time>2022-03-20T15:13:52Z</time>
      </trkpt>
      <trkpt lat="42.90903" lon="-2.539836">
        <ele>548.258</ele>
        <time>2022-03-20T15:13:53Z</time>
      </trkpt>
      <trkpt lat="42.909047" lon="-2.539842">
        <ele>548.427</ele>
        <time>2022-03-20T15:13:54Z</time>
      </trkpt>
      <trkpt lat="42.909072" lon="-2.53985">
        <ele>548.468</ele>
        <time>2022-03-20T15:13:55Z</time>
      </trkpt>
      <trkpt lat="42.909095" lon="-2.539864">
        <ele>548.614</ele>
        <time>2022-03-20T15:13:56Z</time>
      </trkpt>
      <trkpt lat="42.909117" lon="-2.539874">
        <ele>548.608</ele>
        <time>2022-03-20T15:13:57Z</time>
      </trkpt>
      <trkpt lat="42.90914" lon="-2.539886">
        <ele>548.891</ele>
        <time>2022-03-20T15:13:58Z</time>
      </trkpt>
      <trkpt lat="42.909165" lon="-2.539906">
        <ele>548.859</ele>
        <time>2022-03-20T15:13:59Z</time>
      </trkpt>
      <trkpt lat="42.909192" lon="-2.539919">
        <ele>548.861</ele>
        <time>2022-03-20T15:14:00Z</time>
      </trkpt>
      <trkpt lat="42.909215" lon="-2.539932">
        <ele>548.846</ele>
        <time>2022-03-20T15:14:01Z</time>
      </trkpt>
      <trkpt lat="42.909231" lon="-2.539943">
        <ele>549.069</ele>
        <time>2022-03-20T15:14:02Z</time>
      </trkpt>
      <trkpt lat="42.909239" lon="-2.539953">
        <ele>549.048</ele>
        <time>2022-03-20T15:14:03Z</time>
      </trkpt>
      <trkpt lat="42.909245" lon="-2.539956">
        <ele>549.063</ele>
        <time>2022-03-20T15:14:04Z</time>
      </trkpt>
      <trkpt lat="42.90925" lon="-2.539957">
        <ele>549.074</ele>
        <time>2022-03-20T15:14:05Z</time>
      </trkpt>
      <trkpt lat="42.909254" lon="-2.539962">
        <ele>549.027</ele>
        <time>2022-03-20T15:14:06Z</time>
      </trkpt>
      <trkpt lat="42.90926" lon="-2.539965">
        <ele>549.068</ele>
        <time>2022-03-20T15:14:07Z</time>
      </trkpt>
      <trkpt lat="42.909264" lon="-2.53997">
        <ele>549.014</ele>
        <time>2022-03-20T15:14:08Z</time>
      </trkpt>
      <trkpt lat="42.909264" lon="-2.539974">
        <ele>549.008</ele>
        <time>2022-03-20T15:14:09Z</time>
      </trkpt>
      <trkpt lat="42.909258" lon="-2.539977">
        <ele>549.041</ele>
        <time>2022-03-20T15:14:10Z</time>
      </trkpt>
      <trkpt lat="42.909262" lon="-2.539976">
        <ele>549.059</ele>
        <time>2022-03-20T15:14:11Z</time>
      </trkpt>
      <trkpt lat="42.909268" lon="-2.539973">
        <ele>549.091</ele>
        <time>2022-03-20T15:14:12Z</time>
      </trkpt>
      <trkpt lat="42.909269" lon="-2.539968">
        <ele>549.086</ele>
        <time>2022-03-20T15:14:13Z</time>
      </trkpt>
      <trkpt lat="42.90927" lon="-2.539968">
        <ele>548.829</ele>
        <time>2022-03-20T15:14:14Z</time>
      </trkpt>
      <trkpt lat="42.909268" lon="-2.539969">
        <ele>548.878</ele>
        <time>2022-03-20T15:14:15Z</time>
      </trkpt>
      <trkpt lat="42.909267" lon="-2.539969">
        <ele>548.873</ele>
        <time>2022-03-20T15:14:16Z</time>
      </trkpt>
      <trkpt lat="42.909266" lon="-2.539966">
        <ele>548.624</ele>
        <time>2022-03-20T15:14:17Z</time>
      </trkpt>
      <trkpt lat="42.909266" lon="-2.539966">
        <ele>548.685</ele>
        <time>2022-03-20T15:14:18Z</time>
      </trkpt>
      <trkpt lat="42.909266" lon="-2.539966">
        <ele>548.689</ele>
        <time>2022-03-20T15:14:19Z</time>
      </trkpt>
      <trkpt lat="42.909266" lon="-2.539966">
        <ele>548.417</ele>
        <time>2022-03-20T15:14:20Z</time>
      </trkpt>
      <trkpt lat="42.909266" lon="-2.539966">
        <ele>548.408</ele>
        <time>2022-03-20T15:14:21Z</time>
      </trkpt>
      <trkpt lat="42.909266" lon="-2.539966">
        <ele>548.437</ele>
        <time>2022-03-20T15:14:22Z</time>
      </trkpt>
      <trkpt lat="42.909266" lon="-2.539966">
        <ele>548.455</ele>
        <time>2022-03-20T15:14:23Z</time>
      </trkpt>
      <trkpt lat="42.909266" lon="-2.539966">
        <ele>548.477</ele>
        <time>2022-03-20T15:14:24Z</time>
      </trkpt>
      <trkpt lat="42.909266" lon="-2.539966">
        <ele>548.482</ele>
        <time>2022-03-20T15:14:25Z</time>
      </trkpt>
      <trkpt lat="42.909266" lon="-2.539966">
        <ele>548.435</ele>
        <time>2022-03-20T15:14:26Z</time>
      </trkpt>
      <trkpt lat="42.909266" lon="-2.539966">
        <ele>548.434</ele>
        <time>2022-03-20T15:14:27Z</time>
      </trkpt>
      <trkpt lat="42.909266" lon="-2.539966">
        <ele>548.449</ele>
        <time>2022-03-20T15:14:28Z</time>
      </trkpt>
      <trkpt lat="42.909266" lon="-2.539966">
        <ele>548.420</ele>
        <time>2022-03-20T15:14:29Z</time>
      </trkpt>
      <trkpt lat="42.909266" lon="-2.539966">
        <ele>548.425</ele>
        <time>2022-03-20T15:14:30Z</time>
      </trkpt>
      <trkpt lat="42.909267" lon="-2.539966">
        <ele>548.426</ele>
        <time>2022-03-20T15:14:31Z</time>
      </trkpt>
      <trkpt lat="42.909267" lon="-2.539966">
        <ele>548.408</ele>
        <time>2022-03-20T15:14:32Z</time>
      </trkpt>
      <trkpt lat="42.909268" lon="-2.539964">
        <ele>548.608</ele>
        <time>2022-03-20T15:14:33Z</time>
      </trkpt>
      <trkpt lat="42.909268" lon="-2.539964">
        <ele>548.881</ele>
        <time>2022-03-20T15:14:34Z</time>
      </trkpt>
      <trkpt lat="42.909269" lon="-2.539963">
        <ele>548.879</ele>
        <time>2022-03-20T15:14:35Z</time>
      </trkpt>
      <trkpt lat="42.90927" lon="-2.539963">
        <ele>549.041</ele>
        <time>2022-03-20T15:14:36Z</time>
      </trkpt>
      <trkpt lat="42.909275" lon="-2.539966">
        <ele>549.066</ele>
        <time>2022-03-20T15:14:37Z</time>
      </trkpt>
      <trkpt lat="42.909285" lon="-2.53998">
        <ele>549.219</ele>
        <time>2022-03-20T15:14:38Z</time>
      </trkpt>
      <trkpt lat="42.909295" lon="-2.539995">
        <ele>549.248</ele>
        <time>2022-03-20T15:14:39Z</time>
      </trkpt>
      <trkpt lat="42.909304" lon="-2.540008">
        <ele>549.223</ele>
        <time>2022-03-20T15:14:40Z</time>
      </trkpt>
      <trkpt lat="42.909313" lon="-2.540019">
        <ele>549.234</ele>
        <time>2022-03-20T15:14:41Z</time>
      </trkpt>
      <trkpt lat="42.90932" lon="-2.540031">
        <ele>549.443</ele>
        <time>2022-03-20T15:14:42Z</time>
      </trkpt>
      <trkpt lat="42.909332" lon="-2.540045">
        <ele>549.664</ele>
        <time>2022-03-20T15:14:43Z</time>
      </trkpt>
      <trkpt lat="42.909343" lon="-2.540062">
        <ele>549.810</ele>
        <time>2022-03-20T15:14:44Z</time>
      </trkpt>
      <trkpt lat="42.909356" lon="-2.540074">
        <ele>550.008</ele>
        <time>2022-03-20T15:14:45Z</time>
      </trkpt>
      <trkpt lat="42.909369" lon="-2.540085">
        <ele>550.443</ele>
        <time>2022-03-20T15:14:46Z</time>
      </trkpt>
      <trkpt lat="42.909374" lon="-2.540095">
        <ele>550.661</ele>
        <time>2022-03-20T15:14:47Z</time>
      </trkpt>
      <trkpt lat="42.909381" lon="-2.540103">
        <ele>550.863</ele>
        <time>2022-03-20T15:14:48Z</time>
      </trkpt>
      <trkpt lat="42.909386" lon="-2.540112">
        <ele>551.018</ele>
        <time>2022-03-20T15:14:49Z</time>
      </trkpt>
      <trkpt lat="42.90939" lon="-2.540121">
        <ele>551.071</ele>
        <time>2022-03-20T15:14:50Z</time>
      </trkpt>
      <trkpt lat="42.909394" lon="-2.540127">
        <ele>551.260</ele>
        <time>2022-03-20T15:14:51Z</time>
      </trkpt>
      <trkpt lat="42.909399" lon="-2.540134">
        <ele>551.415</ele>
        <time>2022-03-20T15:14:52Z</time>
      </trkpt>
      <trkpt lat="42.909404" lon="-2.540142">
        <ele>551.656</ele>
        <time>2022-03-20T15:14:53Z</time>
      </trkpt>
      <trkpt lat="42.909412" lon="-2.540147">
        <ele>551.894</ele>
        <time>2022-03-20T15:14:54Z</time>
      </trkpt>
      <trkpt lat="42.909417" lon="-2.540149">
        <ele>552.057</ele>
        <time>2022-03-20T15:14:55Z</time>
      </trkpt>
      <trkpt lat="42.909423" lon="-2.54015">
        <ele>552.422</ele>
        <time>2022-03-20T15:14:56Z</time>
      </trkpt>
      <trkpt lat="42.909427" lon="-2.540152">
        <ele>552.608</ele>
        <time>2022-03-20T15:14:57Z</time>
      </trkpt>
      <trkpt lat="42.909429" lon="-2.540156">
        <ele>553.058</ele>
        <time>2022-03-20T15:14:58Z</time>
      </trkpt>
      <trkpt lat="42.909434" lon="-2.540163">
        <ele>553.026</ele>
        <time>2022-03-20T15:14:59Z</time>
      </trkpt>
      <trkpt lat="42.909439" lon="-2.540172">
        <ele>553.238</ele>
        <time>2022-03-20T15:15:00Z</time>
      </trkpt>
      <trkpt lat="42.909444" lon="-2.540183">
        <ele>553.233</ele>
        <time>2022-03-20T15:15:01Z</time>
      </trkpt>
      <trkpt lat="42.909449" lon="-2.540196">
        <ele>553.296</ele>
        <time>2022-03-20T15:15:02Z</time>
      </trkpt>
      <trkpt lat="42.909453" lon="-2.540213">
        <ele>553.235</ele>
        <time>2022-03-20T15:15:03Z</time>
      </trkpt>
      <trkpt lat="42.909457" lon="-2.540226">
        <ele>553.240</ele>
        <time>2022-03-20T15:15:04Z</time>
      </trkpt>
      <trkpt lat="42.909462" lon="-2.540237">
        <ele>553.251</ele>
        <time>2022-03-20T15:15:05Z</time>
      </trkpt>
      <trkpt lat="42.909465" lon="-2.540252">
        <ele>553.276</ele>
        <time>2022-03-20T15:15:06Z</time>
      </trkpt>
      <trkpt lat="42.909468" lon="-2.54027">
        <ele>553.290</ele>
        <time>2022-03-20T15:15:07Z</time>
      </trkpt>
      <trkpt lat="42.909474" lon="-2.540286">
        <ele>553.419</ele>
        <time>2022-03-20T15:15:08Z</time>
      </trkpt>
      <trkpt lat="42.909477" lon="-2.540303">
        <ele>553.408</ele>
        <time>2022-03-20T15:15:09Z</time>
      </trkpt>
      <trkpt lat="42.909478" lon="-2.540319">
        <ele>553.436</ele>
        <time>2022-03-20T15:15:10Z</time>
      </trkpt>
      <trkpt lat="42.90948" lon="-2.540332">
        <ele>553.444</ele>
        <time>2022-03-20T15:15:11Z</time>
      </trkpt>
      <trkpt lat="42.909482" lon="-2.540352">
        <ele>553.236</ele>
        <time>2022-03-20T15:15:12Z</time>
      </trkpt>
      <trkpt lat="42.909483" lon="-2.540368">
        <ele>553.031</ele>
        <time>2022-03-20T15:15:13Z</time>
      </trkpt>
      <trkpt lat="42.909485" lon="-2.540386">
        <ele>553.084</ele>
        <time>2022-03-20T15:15:14Z</time>
      </trkpt>
      <trkpt lat="42.909487" lon="-2.540403">
        <ele>552.813</ele>
        <time>2022-03-20T15:15:15Z</time>
      </trkpt>
      <trkpt lat="42.90949" lon="-2.540421">
        <ele>552.868</ele>
        <time>2022-03-20T15:15:16Z</time>
      </trkpt>
      <trkpt lat="42.909495" lon="-2.540439">
        <ele>552.889</ele>
        <time>2022-03-20T15:15:17Z</time>
      </trkpt>
      <trkpt lat="42.909501" lon="-2.54045">
        <ele>552.845</ele>
        <time>2022-03-20T15:15:18Z</time>
      </trkpt>
      <trkpt lat="42.909511" lon="-2.540458">
        <ele>552.847</ele>
        <time>2022-03-20T15:15:19Z</time>
      </trkpt>
      <trkpt lat="42.909517" lon="-2.54046">
        <ele>553.011</ele>
        <time>2022-03-20T15:15:20Z</time>
      </trkpt>
      <trkpt lat="42.909527" lon="-2.540462">
        <ele>553.608</ele>
        <time>2022-03-20T15:15:21Z</time>
      </trkpt>
      <trkpt lat="42.909538" lon="-2.540464">
        <ele>554.223</ele>
        <time>2022-03-20T15:15:22Z</time>
      </trkpt>
      <trkpt lat="42.909548" lon="-2.540467">
        <ele>554.851</ele>
        <time>2022-03-20T15:15:23Z</time>
      </trkpt>
      <trkpt lat="42.909558" lon="-2.540471">
        <ele>555.043</ele>
        <time>2022-03-20T15:15:24Z</time>
      </trkpt>
      <trkpt lat="42.909567" lon="-2.540481">
        <ele>555.238</ele>
        <time>2022-03-20T15:15:25Z</time>
      </trkpt>
      <trkpt lat="42.909575" lon="-2.540492">
        <ele>555.221</ele>
        <time>2022-03-20T15:15:26Z</time>
      </trkpt>
      <trkpt lat="42.909582" lon="-2.540508">
        <ele>555.090</ele>
        <time>2022-03-20T15:15:27Z</time>
      </trkpt>
      <trkpt lat="42.909583" lon="-2.540521">
        <ele>554.815</ele>
        <time>2022-03-20T15:15:28Z</time>
      </trkpt>
      <trkpt lat="42.909584" lon="-2.540531">
        <ele>554.886</ele>
        <time>2022-03-20T15:15:29Z</time>
      </trkpt>
      <trkpt lat="42.909581" lon="-2.540548">
        <ele>554.616</ele>
        <time>2022-03-20T15:15:30Z</time>
      </trkpt>
      <trkpt lat="42.90958" lon="-2.540564">
        <ele>554.676</ele>
        <time>2022-03-20T15:15:31Z</time>
      </trkpt>
      <trkpt lat="42.909581" lon="-2.540575">
        <ele>554.613</ele>
        <time>2022-03-20T15:15:32Z</time>
      </trkpt>
      <trkpt lat="42.909583" lon="-2.540588">
        <ele>554.608</ele>
        <time>2022-03-20T15:15:33Z</time>
      </trkpt>
      <trkpt lat="42.909585" lon="-2.540599">
        <ele>554.840</ele>
        <time>2022-03-20T15:15:34Z</time>
      </trkpt>
      <trkpt lat="42.909587" lon="-2.540614">
        <ele>554.898</ele>
        <time>2022-03-20T15:15:35Z</time>
      </trkpt>
      <trkpt lat="42.909587" lon="-2.540623">
        <ele>554.830</ele>
        <time>2022-03-20T15:15:36Z</time>
      </trkpt>
      <trkpt lat="42.90959" lon="-2.540631">
        <ele>554.895</ele>
        <time>2022-03-20T15:15:37Z</time>
      </trkpt>
      <trkpt lat="42.909591" lon="-2.540637">
        <ele>554.858</ele>
        <time>2022-03-20T15:15:38Z</time>
      </trkpt>
      <trkpt lat="42.90959" lon="-2.54065">
        <ele>554.827</ele>
        <time>2022-03-20T15:15:39Z</time>
      </trkpt>
      <trkpt lat="42.909595" lon="-2.54066">
        <ele>554.632</ele>
        <time>2022-03-20T15:15:40Z</time>
      </trkpt>
      <trkpt lat="42.9096" lon="-2.540668">
        <ele>554.613</ele>
        <time>2022-03-20T15:15:41Z</time>
      </trkpt>
      <trkpt lat="42.9096" lon="-2.54068">
        <ele>554.666</ele>
        <time>2022-03-20T15:15:42Z</time>
      </trkpt>
      <trkpt lat="42.9096" lon="-2.54069">
        <ele>554.429</ele>
        <time>2022-03-20T15:15:43Z</time>
      </trkpt>
      <trkpt lat="42.909595" lon="-2.540705">
        <ele>554.221</ele>
        <time>2022-03-20T15:15:44Z</time>
      </trkpt>
      <trkpt lat="42.90959" lon="-2.540723">
        <ele>554.008</ele>
        <time>2022-03-20T15:15:45Z</time>
      </trkpt>
      <trkpt lat="42.909588" lon="-2.540734">
        <ele>553.855</ele>
        <time>2022-03-20T15:15:46Z</time>
      </trkpt>
      <trkpt lat="42.909586" lon="-2.540746">
        <ele>553.643</ele>
        <time>2022-03-20T15:15:47Z</time>
      </trkpt>
      <trkpt lat="42.909582" lon="-2.540762">
        <ele>553.445</ele>
        <time>2022-03-20T15:15:48Z</time>
      </trkpt>
      <trkpt lat="42.909575" lon="-2.540777">
        <ele>553.220</ele>
        <time>2022-03-20T15:15:49Z</time>
      </trkpt>
      <trkpt lat="42.909568" lon="-2.540793">
        <ele>553.023</ele>
        <time>2022-03-20T15:15:50Z</time>
      </trkpt>
      <trkpt lat="42.909562" lon="-2.540807">
        <ele>552.832</ele>
        <time>2022-03-20T15:15:51Z</time>
      </trkpt>
      <trkpt lat="42.909557" lon="-2.540816">
        <ele>552.687</ele>
        <time>2022-03-20T15:15:52Z</time>
      </trkpt>
      <trkpt lat="42.909557" lon="-2.540827">
        <ele>552.468</ele>
        <time>2022-03-20T15:15:53Z</time>
      </trkpt>
      <trkpt lat="42.909557" lon="-2.540831">
        <ele>552.438</ele>
        <time>2022-03-20T15:15:54Z</time>
      </trkpt>
      <trkpt lat="42.90956" lon="-2.540833">
        <ele>552.470</ele>
        <time>2022-03-20T15:15:55Z</time>
      </trkpt>
      <trkpt lat="42.909566" lon="-2.540838">
        <ele>552.417</ele>
        <time>2022-03-20T15:15:56Z</time>
      </trkpt>
      <trkpt lat="42.909572" lon="-2.54084">
        <ele>552.408</ele>
        <time>2022-03-20T15:15:57Z</time>
      </trkpt>
      <trkpt lat="42.909575" lon="-2.540837">
        <ele>552.242</ele>
        <time>2022-03-20T15:15:58Z</time>
      </trkpt>
      <trkpt lat="42.90958" lon="-2.540833">
        <ele>552.240</ele>
        <time>2022-03-20T15:15:59Z</time>
      </trkpt>
      <trkpt lat="42.909578" lon="-2.540831">
        <ele>552.272</ele>
        <time>2022-03-20T15:16:00Z</time>
      </trkpt>
      <trkpt lat="42.909576" lon="-2.540832">
        <ele>552.277</ele>
        <time>2022-03-20T15:16:01Z</time>
      </trkpt>
      <trkpt lat="42.909574" lon="-2.540834">
        <ele>552.270</ele>
        <time>2022-03-20T15:16:02Z</time>
      </trkpt>
      <trkpt lat="42.909575" lon="-2.540834">
        <ele>552.269</ele>
        <time>2022-03-20T15:16:03Z</time>
      </trkpt>
      <trkpt lat="42.909575" lon="-2.540834">
        <ele>552.254</ele>
        <time>2022-03-20T15:16:04Z</time>
      </trkpt>
      <trkpt lat="42.909575" lon="-2.540834">
        <ele>552.085</ele>
        <time>2022-03-20T15:16:05Z</time>
      </trkpt>
      <trkpt lat="42.909575" lon="-2.540834">
        <ele>552.074</ele>
        <time>2022-03-20T15:16:06Z</time>
      </trkpt>
      <trkpt lat="42.909575" lon="-2.540834">
        <ele>552.056</ele>
        <time>2022-03-20T15:16:07Z</time>
      </trkpt>
      <trkpt lat="42.909575" lon="-2.540834">
        <ele>552.021</ele>
        <time>2022-03-20T15:16:08Z</time>
      </trkpt>
      <trkpt lat="42.909575" lon="-2.540834">
        <ele>552.208</ele>
        <time>2022-03-20T15:16:09Z</time>
      </trkpt>
      <trkpt lat="42.909575" lon="-2.540834">
        <ele>552.216</ele>
        <time>2022-03-20T15:16:10Z</time>
      </trkpt>
      <trkpt lat="42.909575" lon="-2.540834">
        <ele>552.294</ele>
        <time>2022-03-20T15:16:11Z</time>
      </trkpt>
      <trkpt lat="42.909575" lon="-2.540834">
        <ele>552.276</ele>
        <time>2022-03-20T15:16:12Z</time>
      </trkpt>
      <trkpt lat="42.909575" lon="-2.540834">
        <ele>552.221</ele>
        <time>2022-03-20T15:16:13Z</time>
      </trkpt>
      <trkpt lat="42.909575" lon="-2.540834">
        <ele>552.254</ele>
        <time>2022-03-20T15:16:14Z</time>
      </trkpt>
      <trkpt lat="42.909575" lon="-2.540834">
        <ele>552.233</ele>
        <time>2022-03-20T15:16:15Z</time>
      </trkpt>
      <trkpt lat="42.909575" lon="-2.540834">
        <ele>552.238</ele>
        <time>2022-03-20T15:16:16Z</time>
      </trkpt>
      <trkpt lat="42.909575" lon="-2.540834">
        <ele>552.219</ele>
        <time>2022-03-20T15:16:17Z</time>
      </trkpt>
      <trkpt lat="42.909576" lon="-2.540834">
        <ele>552.241</ele>
        <time>2022-03-20T15:16:18Z</time>
      </trkpt>
      <trkpt lat="42.909576" lon="-2.540834">
        <ele>552.281</ele>
        <time>2022-03-20T15:16:19Z</time>
      </trkpt>
      <trkpt lat="42.909576" lon="-2.540834">
        <ele>552.209</ele>
        <time>2022-03-20T15:16:20Z</time>
      </trkpt>
      <trkpt lat="42.909576" lon="-2.540834">
        <ele>552.208</ele>
        <time>2022-03-20T15:16:21Z</time>
      </trkpt>
      <trkpt lat="42.909576" lon="-2.540834">
        <ele>552.233</ele>
        <time>2022-03-20T15:16:22Z</time>
      </trkpt>
      <trkpt lat="42.909576" lon="-2.540834">
        <ele>552.271</ele>
        <time>2022-03-20T15:16:23Z</time>
      </trkpt>
      <trkpt lat="42.909576" lon="-2.540834">
        <ele>552.293</ele>
        <time>2022-03-20T15:16:24Z</time>
      </trkpt>
      <trkpt lat="42.909576" lon="-2.540835">
        <ele>552.278</ele>
        <time>2022-03-20T15:16:25Z</time>
      </trkpt>
      <trkpt lat="42.909576" lon="-2.540835">
        <ele>552.251</ele>
        <time>2022-03-20T15:16:26Z</time>
      </trkpt>
      <trkpt lat="42.909576" lon="-2.540835">
        <ele>552.020</ele>
        <time>2022-03-20T15:16:27Z</time>
      </trkpt>
      <trkpt lat="42.909576" lon="-2.540835">
        <ele>552.015</ele>
        <time>2022-03-20T15:16:28Z</time>
      </trkpt>
      <trkpt lat="42.909576" lon="-2.540835">
        <ele>552.036</ele>
        <time>2022-03-20T15:16:29Z</time>
      </trkpt>
      <trkpt lat="42.909575" lon="-2.540836">
        <ele>552.024</ele>
        <time>2022-03-20T15:16:30Z</time>
      </trkpt>
      <trkpt lat="42.909575" lon="-2.540837">
        <ele>552.004</ele>
        <time>2022-03-20T15:16:31Z</time>
      </trkpt>
      <trkpt lat="42.909575" lon="-2.540837">
        <ele>552.014</ele>
        <time>2022-03-20T15:16:32Z</time>
      </trkpt>
      <trkpt lat="42.909575" lon="-2.540837">
        <ele>551.608</ele>
        <time>2022-03-20T15:16:33Z</time>
      </trkpt>
      <trkpt lat="42.909572" lon="-2.540838">
        <ele>551.681</ele>
        <time>2022-03-20T15:16:34Z</time>
      </trkpt>
      <trkpt lat="42.909571" lon="-2.540838">
        <ele>551.469</ele>
        <time>2022-03-20T15:16:35Z</time>
      </trkpt>
      <trkpt lat="42.909571" lon="-2.540838">
        <ele>551.291</ele>
        <time>2022-03-20T15:16:36Z</time>
      </trkpt>
      <trkpt lat="42.909566" lon="-2.540835">
        <ele>551.236</ele>
        <time>2022-03-20T15:16:37Z</time>
      </trkpt>
      <trkpt lat="42.909559" lon="-2.540807">
        <ele>551.289</ele>
        <time>2022-03-20T15:16:38Z</time>
      </trkpt>
      <trkpt lat="42.909549" lon="-2.540781">
        <ele>551.218</ele>
        <time>2022-03-20T15:16:39Z</time>
      </trkpt>
      <trkpt lat="42.90954" lon="-2.540759">
        <ele>551.453</ele>
        <time>2022-03-20T15:16:40Z</time>
      </trkpt>
      <trkpt lat="42.909533" lon="-2.540741">
        <ele>551.454</ele>
        <time>2022-03-20T15:16:41Z</time>
      </trkpt>
      <trkpt lat="42.909527" lon="-2.540717">
        <ele>551.633</ele>
        <time>2022-03-20T15:16:42Z</time>
      </trkpt>
      <trkpt lat="42.909523" lon="-2.540694">
        <ele>551.623</ele>
        <time>2022-03-20T15:16:43Z</time>
      </trkpt>
      <trkpt lat="42.909519" lon="-2.540671">
        <ele>551.615</ele>
        <time>2022-03-20T15:16:44Z</time>
      </trkpt>
      <trkpt lat="42.909513" lon="-2.540652">
        <ele>551.608</ele>
        <time>2022-03-20T15:16:45Z</time>
      </trkpt>
      <trkpt lat="42.909506" lon="-2.540636">
        <ele>551.882</ele>
        <time>2022-03-20T15:16:46Z</time>
      </trkpt>
      <trkpt lat="42.909506" lon="-2.540623">
        <ele>551.820</ele>
        <time>2022-03-20T15:16:47Z</time>
      </trkpt>
      <trkpt lat="42.909504" lon="-2.540614">
        <ele>552.012</ele>
        <time>2022-03-20T15:16:48Z</time>
      </trkpt>
      <trkpt lat="42.909504" lon="-2.540607">
        <ele>552.287</ele>
        <time>2022-03-20T15:16:49Z</time>
      </trkpt>
      <trkpt lat="42.909503" lon="-2.540597">
        <ele>552.220</ele>
        <time>2022-03-20T15:16:50Z</time>
      </trkpt>
      <trkpt lat="42.909502" lon="-2.540585">
        <ele>552.259</ele>
        <time>2022-03-20T15:16:51Z</time>
      </trkpt>
      <trkpt lat="42.909502" lon="-2.540574">
        <ele>552.244</ele>
        <time>2022-03-20T15:16:52Z</time>
      </trkpt>
      <trkpt lat="42.909502" lon="-2.540564">
        <ele>552.445</ele>
        <time>2022-03-20T15:16:53Z</time>
      </trkpt>
      <trkpt lat="42.909498" lon="-2.540561">
        <ele>552.428</ele>
        <time>2022-03-20T15:16:54Z</time>
      </trkpt>
      <trkpt lat="42.909494" lon="-2.540557">
        <ele>552.489</ele>
        <time>2022-03-20T15:16:55Z</time>
      </trkpt>
      <trkpt lat="42.90949" lon="-2.540548">
        <ele>552.417</ele>
        <time>2022-03-20T15:16:56Z</time>
      </trkpt>
      <trkpt lat="42.909486" lon="-2.540541">
        <ele>552.408</ele>
        <time>2022-03-20T15:16:57Z</time>
      </trkpt>
      <trkpt lat="42.909485" lon="-2.540528">
        <ele>552.611</ele>
        <time>2022-03-20T15:16:58Z</time>
      </trkpt>
      <trkpt lat="42.909487" lon="-2.540517">
        <ele>552.639</ele>
        <time>2022-03-20T15:16:59Z</time>
      </trkpt>
      <trkpt lat="42.90949" lon="-2.540501">
        <ele>552.871</ele>
        <time>2022-03-20T15:17:00Z</time>
      </trkpt>
      <trkpt lat="42.9095" lon="-2.540484">
        <ele>553.096</ele>
        <time>2022-03-20T15:17:01Z</time>
      </trkpt>
      <trkpt lat="42.909511" lon="-2.540469">
        <ele>553.059</ele>
        <time>2022-03-20T15:17:02Z</time>
      </trkpt>
      <trkpt lat="42.909516" lon="-2.540459">
        <ele>553.088</ele>
        <time>2022-03-20T15:17:03Z</time>
      </trkpt>
      <trkpt lat="42.90952" lon="-2.540455">
        <ele>553.053</ele>
        <time>2022-03-20T15:17:04Z</time>
      </trkpt>
      <trkpt lat="42.909527" lon="-2.540452">
        <ele>553.084</ele>
        <time>2022-03-20T15:17:05Z</time>
      </trkpt>
      <trkpt lat="42.909534" lon="-2.54045">
        <ele>553.027</ele>
        <time>2022-03-20T15:17:06Z</time>
      </trkpt>
      <trkpt lat="42.909537" lon="-2.540451">
        <ele>553.268</ele>
        <time>2022-03-20T15:17:07Z</time>
      </trkpt>
      <trkpt lat="42.909542" lon="-2.54045">
        <ele>553.614</ele>
        <time>2022-03-20T15:17:08Z</time>
      </trkpt>
      <trkpt lat="42.909546" lon="-2.54045">
        <ele>553.808</ele>
        <time>2022-03-20T15:17:09Z</time>
      </trkpt>
      <trkpt lat="42.90955" lon="-2.540451">
        <ele>554.011</ele>
        <time>2022-03-20T15:17:10Z</time>
      </trkpt>
      <trkpt lat="42.909552" lon="-2.540451">
        <ele>554.419</ele>
        <time>2022-03-20T15:17:11Z</time>
      </trkpt>
      <trkpt lat="42.909558" lon="-2.540446">
        <ele>554.651</ele>
        <time>2022-03-20T15:17:12Z</time>
      </trkpt>
      <trkpt lat="42.909563" lon="-2.540444">
        <ele>555.096</ele>
        <time>2022-03-20T15:17:13Z</time>
      </trkpt>
      <trkpt lat="42.909571" lon="-2.540445">
        <ele>555.299</ele>
        <time>2022-03-20T15:17:14Z</time>
      </trkpt>
      <trkpt lat="42.909581" lon="-2.540449">
        <ele>555.428</ele>
        <time>2022-03-20T15:17:15Z</time>
      </trkpt>
      <trkpt lat="42.90959" lon="-2.540453">
        <ele>555.433</ele>
        <time>2022-03-20T15:17:16Z</time>
      </trkpt>
      <trkpt lat="42.909598" lon="-2.54046">
        <ele>555.424</ele>
        <time>2022-03-20T15:17:17Z</time>
      </trkpt>
      <trkpt lat="42.909604" lon="-2.540471">
        <ele>555.452</ele>
        <time>2022-03-20T15:17:18Z</time>
      </trkpt>
      <trkpt lat="42.909611" lon="-2.540483">
        <ele>555.453</ele>
        <time>2022-03-20T15:17:19Z</time>
      </trkpt>
      <trkpt lat="42.90962" lon="-2.540487">
        <ele>555.208</ele>
        <time>2022-03-20T15:17:20Z</time>
      </trkpt>
      <trkpt lat="42.909632" lon="-2.540485">
        <ele>555.208</ele>
        <time>2022-03-20T15:17:21Z</time>
      </trkpt>
      <trkpt lat="42.90964" lon="-2.540483">
        <ele>555.264</ele>
        <time>2022-03-20T15:17:22Z</time>
      </trkpt>
      <trkpt lat="42.909649" lon="-2.540483">
        <ele>555.222</ele>
        <time>2022-03-20T15:17:23Z</time>
      </trkpt>
      <trkpt lat="42.909654" lon="-2.540483">
        <ele>555.274</ele>
        <time>2022-03-20T15:17:24Z</time>
      </trkpt>
      <trkpt lat="42.909652" lon="-2.540487">
        <ele>555.259</ele>
        <time>2022-03-20T15:17:25Z</time>
      </trkpt>
      <trkpt lat="42.909647" lon="-2.540487">
        <ele>555.222</ele>
        <time>2022-03-20T15:17:26Z</time>
      </trkpt>
      <trkpt lat="42.909643" lon="-2.540489">
        <ele>555.271</ele>
        <time>2022-03-20T15:17:27Z</time>
      </trkpt>
      <trkpt lat="42.909641" lon="-2.540488">
        <ele>555.086</ele>
        <time>2022-03-20T15:17:28Z</time>
      </trkpt>
      <trkpt lat="42.909643" lon="-2.540487">
        <ele>555.037</ele>
        <time>2022-03-20T15:17:29Z</time>
      </trkpt>
      <trkpt lat="42.909647" lon="-2.540483">
        <ele>555.039</ele>
        <time>2022-03-20T15:17:30Z</time>
      </trkpt>
      <trkpt lat="42.909647" lon="-2.540481">
        <ele>555.001</ele>
        <time>2022-03-20T15:17:31Z</time>
      </trkpt>
      <trkpt lat="42.909649" lon="-2.54048">
        <ele>555.021</ele>
        <time>2022-03-20T15:17:32Z</time>
      </trkpt>
      <trkpt lat="42.909649" lon="-2.540483">
        <ele>555.008</ele>
        <time>2022-03-20T15:17:33Z</time>
      </trkpt>
      <trkpt lat="42.909647" lon="-2.540488">
        <ele>555.042</ele>
        <time>2022-03-20T15:17:34Z</time>
      </trkpt>
      <trkpt lat="42.909646" lon="-2.540491">
        <ele>555.040</ele>
        <time>2022-03-20T15:17:35Z</time>
      </trkpt>
      <trkpt lat="42.909646" lon="-2.540495">
        <ele>554.882</ele>
        <time>2022-03-20T15:17:36Z</time>
      </trkpt>
      <trkpt lat="42.909644" lon="-2.540493">
        <ele>554.817</ele>
        <time>2022-03-20T15:17:37Z</time>
      </trkpt>
      <trkpt lat="42.909645" lon="-2.540487">
        <ele>554.850</ele>
        <time>2022-03-20T15:17:38Z</time>
      </trkpt>
      <trkpt lat="42.909644" lon="-2.540472">
        <ele>554.839</ele>
        <time>2022-03-20T15:17:39Z</time>
      </trkpt>
      <trkpt lat="42.909644" lon="-2.540454">
        <ele>555.014</ele>
        <time>2022-03-20T15:17:40Z</time>
      </trkpt>
      <trkpt lat="42.909645" lon="-2.54045">
        <ele>555.055</ele>
        <time>2022-03-20T15:17:41Z</time>
      </trkpt>
      <trkpt lat="42.909644" lon="-2.540449">
        <ele>555.033</ele>
        <time>2022-03-20T15:17:42Z</time>
      </trkpt>
      <trkpt lat="42.909639" lon="-2.54046">
        <ele>555.023</ele>
        <time>2022-03-20T15:17:43Z</time>
      </trkpt>
      <trkpt lat="42.909633" lon="-2.540458">
        <ele>555.215</ele>
        <time>2022-03-20T15:17:44Z</time>
      </trkpt>
      <trkpt lat="42.909622" lon="-2.540455">
        <ele>555.208</ele>
        <time>2022-03-20T15:17:45Z</time>
      </trkpt>
      <trkpt lat="42.909606" lon="-2.540463">
        <ele>555.242</ele>
        <time>2022-03-20T15:17:46Z</time>
      </trkpt>
      <trkpt lat="42.909598" lon="-2.54047">
        <ele>555.260</ele>
        <time>2022-03-20T15:17:47Z</time>
      </trkpt>
      <trkpt lat="42.909596" lon="-2.540471">
        <ele>555.242</ele>
        <time>2022-03-20T15:17:48Z</time>
      </trkpt>
      <trkpt lat="42.909594" lon="-2.54047">
        <ele>555.097</ele>
        <time>2022-03-20T15:17:49Z</time>
      </trkpt>
      <trkpt lat="42.909592" lon="-2.540471">
        <ele>554.830</ele>
        <time>2022-03-20T15:17:50Z</time>
      </trkpt>
      <trkpt lat="42.909586" lon="-2.540477">
        <ele>554.839</ele>
        <time>2022-03-20T15:17:51Z</time>
      </trkpt>
      <trkpt lat="42.909578" lon="-2.540483">
        <ele>554.824</ele>
        <time>2022-03-20T15:17:52Z</time>
      </trkpt>
      <trkpt lat="42.909579" lon="-2.540502">
        <ele>554.895</ele>
        <time>2022-03-20T15:17:53Z</time>
      </trkpt>
      <trkpt lat="42.909577" lon="-2.54052">
        <ele>554.842</ele>
        <time>2022-03-20T15:17:54Z</time>
      </trkpt>
      <trkpt lat="42.90957" lon="-2.540541">
        <ele>554.822</ele>
        <time>2022-03-20T15:17:55Z</time>
      </trkpt>
      <trkpt lat="42.909566" lon="-2.540565">
        <ele>554.814</ele>
        <time>2022-03-20T15:17:56Z</time>
      </trkpt>
      <trkpt lat="42.909565" lon="-2.540582">
        <ele>554.808</ele>
        <time>2022-03-20T15:17:57Z</time>
      </trkpt>
      <trkpt lat="42.909564" lon="-2.540597">
        <ele>554.873</ele>
        <time>2022-03-20T15:17:58Z</time>
      </trkpt>
      <trkpt lat="42.909567" lon="-2.540608">
        <ele>554.871</ele>
        <time>2022-03-20T15:17:59Z</time>
      </trkpt>
      <trkpt lat="42.909566" lon="-2.540627">
        <ele>554.833</ele>
        <time>2022-03-20T15:18:00Z</time>
      </trkpt>
      <trkpt lat="42.909567" lon="-2.540643">
        <ele>554.818</ele>
        <time>2022-03-20T15:18:01Z</time>
      </trkpt>
      <trkpt lat="42.909571" lon="-2.540659">
        <ele>554.811</ele>
        <time>2022-03-20T15:18:02Z</time>
      </trkpt>
      <trkpt lat="42.909574" lon="-2.540671">
        <ele>554.850</ele>
        <time>2022-03-20T15:18:03Z</time>
      </trkpt>
      <trkpt lat="42.909577" lon="-2.540685">
        <ele>554.895</ele>
        <time>2022-03-20T15:18:04Z</time>
      </trkpt>
      <trkpt lat="42.909582" lon="-2.540704">
        <ele>554.876</ele>
        <time>2022-03-20T15:18:05Z</time>
      </trkpt>
      <trkpt lat="42.909587" lon="-2.540719">
        <ele>554.679</ele>
        <time>2022-03-20T15:18:06Z</time>
      </trkpt>
      <trkpt lat="42.909594" lon="-2.540735">
        <ele>554.405</ele>
        <time>2022-03-20T15:18:07Z</time>
      </trkpt>
      <trkpt lat="42.909599" lon="-2.540748">
        <ele>554.225</ele>
        <time>2022-03-20T15:18:08Z</time>
      </trkpt>
      <trkpt lat="42.909605" lon="-2.540764">
        <ele>554.008</ele>
        <time>2022-03-20T15:18:09Z</time>
      </trkpt>
      <trkpt lat="42.90961" lon="-2.540781">
        <ele>553.896</ele>
        <time>2022-03-20T15:18:10Z</time>
      </trkpt>
      <trkpt lat="42.909615" lon="-2.540797">
        <ele>553.824</ele>
        <time>2022-03-20T15:18:11Z</time>
      </trkpt>
      <trkpt lat="42.90962" lon="-2.540814">
        <ele>553.686</ele>
        <time>2022-03-20T15:18:12Z</time>
      </trkpt>
      <trkpt lat="42.909625" lon="-2.540827">
        <ele>553.281</ele>
        <time>2022-03-20T15:18:13Z</time>
      </trkpt>
      <trkpt lat="42.909634" lon="-2.540849">
        <ele>552.864</ele>
        <time>2022-03-20T15:18:14Z</time>
      </trkpt>
      <trkpt lat="42.909638" lon="-2.540871">
        <ele>552.413</ele>
        <time>2022-03-20T15:18:15Z</time>
      </trkpt>
      <trkpt lat="42.909641" lon="-2.540888">
        <ele>552.238</ele>
        <time>2022-03-20T15:18:16Z</time>
      </trkpt>
      <trkpt lat="42.909646" lon="-2.540901">
        <ele>552.069</ele>
        <time>2022-03-20T15:18:17Z</time>
      </trkpt>
      <trkpt lat="42.909648" lon="-2.540915">
        <ele>551.889</ele>
        <time>2022-03-20T15:18:18Z</time>
      </trkpt>
      <trkpt lat="42.909653" lon="-2.540932">
        <ele>551.606</ele>
        <time>2022-03-20T15:18:19Z</time>
      </trkpt>
      <trkpt lat="42.90966" lon="-2.540946">
        <ele>551.426</ele>
        <time>2022-03-20T15:18:20Z</time>
      </trkpt>
      <trkpt lat="42.909672" lon="-2.540956">
        <ele>551.408</ele>
        <time>2022-03-20T15:18:21Z</time>
      </trkpt>
      <trkpt lat="42.909675" lon="-2.540971">
        <ele>551.087</ele>
        <time>2022-03-20T15:18:22Z</time>
      </trkpt>
      <trkpt lat="42.909676" lon="-2.540985">
        <ele>550.635</ele>
        <time>2022-03-20T15:18:23Z</time>
      </trkpt>
      <trkpt lat="42.909684" lon="-2.54101">
        <ele>550.297</ele>
        <time>2022-03-20T15:18:24Z</time>
      </trkpt>
      <trkpt lat="42.909695" lon="-2.541021">
        <ele>549.832</ele>
        <time>2022-03-20T15:18:25Z</time>
      </trkpt>
      <trkpt lat="42.90971" lon="-2.541028">
        <ele>549.625</ele>
        <time>2022-03-20T15:18:26Z</time>
      </trkpt>
      <trkpt lat="42.909717" lon="-2.541035">
        <ele>549.464</ele>
        <time>2022-03-20T15:18:27Z</time>
      </trkpt>
    </trkseg>
  </trk>
</gpx>
